<?xml version="1.0" encoding="UTF-8" standalone="no" ?>
<gpx xmlns="http://www.topografix.com/GPX/1/1" xmlns:xsi="http://www.w3.org/2001/XMLSchema-instance" xsi:schemaLocation="http://www.topografix.com/GPX/1/1 http://www.topografix.com/GPX/1/1/gpx.xsd" version="1.1" creator="VisuGPX - https://www.visugpx.com">
  <metadata>
    <name>160224ROBDolmenGueiletCommanderie</name>
    <desc><![CDATA[tres bonne sortie]]></desc>
  </metadata>
  <trk>
    <name><![CDATA[160224ROBDolmenGueiletCommanderie]]></name>
    <trkseg>
      <trkpt lat="43.41575" lon="6.07036">
        <ele>196.60000610352</ele>
        <time>2016-02-24T13:01:59Z</time>
      </trkpt>
      <trkpt lat="43.41575" lon="6.07036">
        <ele>196.39999389648</ele>
        <time>2016-02-24T13:02:00Z</time>
      </trkpt>
      <trkpt lat="43.41577" lon="6.07037">
        <ele>196.60000610352</ele>
        <time>2016-02-24T13:02:16Z</time>
      </trkpt>
      <trkpt lat="43.41577" lon="6.07037">
        <ele>196.60000610352</ele>
        <time>2016-02-24T13:02:17Z</time>
      </trkpt>
      <trkpt lat="43.41577" lon="6.07037">
        <ele>196.60000610352</ele>
        <time>2016-02-24T13:02:18Z</time>
      </trkpt>
      <trkpt lat="43.41577" lon="6.07037">
        <ele>197</ele>
        <time>2016-02-24T13:02:20Z</time>
      </trkpt>
      <trkpt lat="43.41577" lon="6.07037">
        <ele>196.80000305176</ele>
        <time>2016-02-24T13:02:22Z</time>
      </trkpt>
      <trkpt lat="43.41577" lon="6.07037">
        <ele>196.80000305176</ele>
        <time>2016-02-24T13:02:24Z</time>
      </trkpt>
      <trkpt lat="43.41577" lon="6.07037">
        <ele>196.80000305176</ele>
        <time>2016-02-24T13:02:26Z</time>
      </trkpt>
      <trkpt lat="43.41577" lon="6.07037">
        <ele>196.60000610352</ele>
        <time>2016-02-24T13:02:28Z</time>
      </trkpt>
      <trkpt lat="43.41577" lon="6.07037">
        <ele>196.60000610352</ele>
        <time>2016-02-24T13:02:30Z</time>
      </trkpt>
      <trkpt lat="43.41577" lon="6.07037">
        <ele>196.60000610352</ele>
        <time>2016-02-24T13:02:32Z</time>
      </trkpt>
      <trkpt lat="43.41577" lon="6.07037">
        <ele>196.80000305176</ele>
        <time>2016-02-24T13:02:34Z</time>
      </trkpt>
      <trkpt lat="43.41577" lon="6.07037">
        <ele>196.80000305176</ele>
        <time>2016-02-24T13:02:36Z</time>
      </trkpt>
      <trkpt lat="43.41577" lon="6.07037">
        <ele>196.39999389648</ele>
        <time>2016-02-24T13:02:38Z</time>
      </trkpt>
      <trkpt lat="43.41577" lon="6.07037">
        <ele>196.39999389648</ele>
        <time>2016-02-24T13:02:40Z</time>
      </trkpt>
      <trkpt lat="43.41577" lon="6.07037">
        <ele>196.80000305176</ele>
        <time>2016-02-24T13:02:42Z</time>
      </trkpt>
      <trkpt lat="43.41577" lon="6.07036">
        <ele>196.60000610352</ele>
        <time>2016-02-24T13:02:44Z</time>
      </trkpt>
      <trkpt lat="43.41577" lon="6.07036">
        <ele>196.80000305176</ele>
        <time>2016-02-24T13:02:46Z</time>
      </trkpt>
      <trkpt lat="43.41577" lon="6.07036">
        <ele>197</ele>
        <time>2016-02-24T13:02:48Z</time>
      </trkpt>
      <trkpt lat="43.41577" lon="6.07036">
        <ele>197</ele>
        <time>2016-02-24T13:02:50Z</time>
      </trkpt>
      <trkpt lat="43.41577" lon="6.07036">
        <ele>197</ele>
        <time>2016-02-24T13:02:52Z</time>
      </trkpt>
      <trkpt lat="43.41576" lon="6.07036">
        <ele>197.19999694824</ele>
        <time>2016-02-24T13:02:54Z</time>
      </trkpt>
      <trkpt lat="43.41576" lon="6.07036">
        <ele>197</ele>
        <time>2016-02-24T13:02:56Z</time>
      </trkpt>
      <trkpt lat="43.41576" lon="6.07036">
        <ele>197</ele>
        <time>2016-02-24T13:02:58Z</time>
      </trkpt>
      <trkpt lat="43.41576" lon="6.07036">
        <ele>196.80000305176</ele>
        <time>2016-02-24T13:03:00Z</time>
      </trkpt>
      <trkpt lat="43.41576" lon="6.07036">
        <ele>197</ele>
        <time>2016-02-24T13:03:02Z</time>
      </trkpt>
      <trkpt lat="43.41576" lon="6.07036">
        <ele>196.80000305176</ele>
        <time>2016-02-24T13:03:04Z</time>
      </trkpt>
      <trkpt lat="43.41576" lon="6.07036">
        <ele>196.80000305176</ele>
        <time>2016-02-24T13:03:06Z</time>
      </trkpt>
      <trkpt lat="43.41576" lon="6.07036">
        <ele>196.80000305176</ele>
        <time>2016-02-24T13:03:08Z</time>
      </trkpt>
      <trkpt lat="43.41576" lon="6.07036">
        <ele>196.80000305176</ele>
        <time>2016-02-24T13:03:10Z</time>
      </trkpt>
      <trkpt lat="43.41576" lon="6.07036">
        <ele>197</ele>
        <time>2016-02-24T13:03:12Z</time>
      </trkpt>
      <trkpt lat="43.41576" lon="6.07036">
        <ele>197</ele>
        <time>2016-02-24T13:03:14Z</time>
      </trkpt>
      <trkpt lat="43.41576" lon="6.07036">
        <ele>196.60000610352</ele>
        <time>2016-02-24T13:03:16Z</time>
      </trkpt>
      <trkpt lat="43.41578" lon="6.07039">
        <ele>196.80000305176</ele>
        <time>2016-02-24T13:03:18Z</time>
      </trkpt>
      <trkpt lat="43.41579" lon="6.0704">
        <ele>196.80000305176</ele>
        <time>2016-02-24T13:03:20Z</time>
      </trkpt>
      <trkpt lat="43.41579" lon="6.0704">
        <ele>196.80000305176</ele>
        <time>2016-02-24T13:03:22Z</time>
      </trkpt>
      <trkpt lat="43.41579" lon="6.0704">
        <ele>196.60000610352</ele>
        <time>2016-02-24T13:03:24Z</time>
      </trkpt>
      <trkpt lat="43.41579" lon="6.0704">
        <ele>196.60000610352</ele>
        <time>2016-02-24T13:03:26Z</time>
      </trkpt>
      <trkpt lat="43.41579" lon="6.0704">
        <ele>196.80000305176</ele>
        <time>2016-02-24T13:03:28Z</time>
      </trkpt>
      <trkpt lat="43.41579" lon="6.0704">
        <ele>196.80000305176</ele>
        <time>2016-02-24T13:03:30Z</time>
      </trkpt>
      <trkpt lat="43.41579" lon="6.07042">
        <ele>196.60000610352</ele>
        <time>2016-02-24T13:03:32Z</time>
      </trkpt>
      <trkpt lat="43.4158" lon="6.07045">
        <ele>196.39999389648</ele>
        <time>2016-02-24T13:03:34Z</time>
      </trkpt>
      <trkpt lat="43.4158" lon="6.07048">
        <ele>196.80000305176</ele>
        <time>2016-02-24T13:03:35Z</time>
      </trkpt>
      <trkpt lat="43.4158" lon="6.07051">
        <ele>196.80000305176</ele>
        <time>2016-02-24T13:03:36Z</time>
      </trkpt>
      <trkpt lat="43.4158" lon="6.07059">
        <ele>196.80000305176</ele>
        <time>2016-02-24T13:03:38Z</time>
      </trkpt>
      <trkpt lat="43.4158" lon="6.07066">
        <ele>196.80000305176</ele>
        <time>2016-02-24T13:03:40Z</time>
      </trkpt>
      <trkpt lat="43.41581" lon="6.0707">
        <ele>196.80000305176</ele>
        <time>2016-02-24T13:03:41Z</time>
      </trkpt>
      <trkpt lat="43.41581" lon="6.07075">
        <ele>196.19999694824</ele>
        <time>2016-02-24T13:03:42Z</time>
      </trkpt>
      <trkpt lat="43.41582" lon="6.07088">
        <ele>196.19999694824</ele>
        <time>2016-02-24T13:03:44Z</time>
      </trkpt>
      <trkpt lat="43.41583" lon="6.07094">
        <ele>196.39999389648</ele>
        <time>2016-02-24T13:03:45Z</time>
      </trkpt>
      <trkpt lat="43.41581" lon="6.07101">
        <ele>196.60000610352</ele>
        <time>2016-02-24T13:03:46Z</time>
      </trkpt>
      <trkpt lat="43.41577" lon="6.07106">
        <ele>196.60000610352</ele>
        <time>2016-02-24T13:03:48Z</time>
      </trkpt>
      <trkpt lat="43.41569" lon="6.07111">
        <ele>196.39999389648</ele>
        <time>2016-02-24T13:03:50Z</time>
      </trkpt>
      <trkpt lat="43.41566" lon="6.07114">
        <ele>196.60000610352</ele>
        <time>2016-02-24T13:03:51Z</time>
      </trkpt>
      <trkpt lat="43.41561" lon="6.07116">
        <ele>196.60000610352</ele>
        <time>2016-02-24T13:03:52Z</time>
      </trkpt>
      <trkpt lat="43.41557" lon="6.07116">
        <ele>196.80000305176</ele>
        <time>2016-02-24T13:03:53Z</time>
      </trkpt>
      <trkpt lat="43.41552" lon="6.07115">
        <ele>196.60000610352</ele>
        <time>2016-02-24T13:03:54Z</time>
      </trkpt>
      <trkpt lat="43.41545" lon="6.07108">
        <ele>197.19999694824</ele>
        <time>2016-02-24T13:03:56Z</time>
      </trkpt>
      <trkpt lat="43.41544" lon="6.07097">
        <ele>197</ele>
        <time>2016-02-24T13:03:58Z</time>
      </trkpt>
      <trkpt lat="43.41543" lon="6.07091">
        <ele>196.80000305176</ele>
        <time>2016-02-24T13:03:59Z</time>
      </trkpt>
      <trkpt lat="43.41542" lon="6.07085">
        <ele>197.19999694824</ele>
        <time>2016-02-24T13:04:00Z</time>
      </trkpt>
      <trkpt lat="43.41536" lon="6.07077">
        <ele>197.19999694824</ele>
        <time>2016-02-24T13:04:02Z</time>
      </trkpt>
      <trkpt lat="43.41533" lon="6.07076">
        <ele>196.60000610352</ele>
        <time>2016-02-24T13:04:03Z</time>
      </trkpt>
      <trkpt lat="43.41527" lon="6.07076">
        <ele>196.19999694824</ele>
        <time>2016-02-24T13:04:04Z</time>
      </trkpt>
      <trkpt lat="43.41521" lon="6.07077">
        <ele>195.80000305176</ele>
        <time>2016-02-24T13:04:05Z</time>
      </trkpt>
      <trkpt lat="43.41515" lon="6.07078">
        <ele>195.60000610352</ele>
        <time>2016-02-24T13:04:06Z</time>
      </trkpt>
      <trkpt lat="43.41503" lon="6.0708">
        <ele>195.60000610352</ele>
        <time>2016-02-24T13:04:08Z</time>
      </trkpt>
      <trkpt lat="43.41492" lon="6.07079">
        <ele>196.39999389648</ele>
        <time>2016-02-24T13:04:10Z</time>
      </trkpt>
      <trkpt lat="43.41487" lon="6.07076">
        <ele>196.60000610352</ele>
        <time>2016-02-24T13:04:11Z</time>
      </trkpt>
      <trkpt lat="43.41482" lon="6.07073">
        <ele>195.80000305176</ele>
        <time>2016-02-24T13:04:12Z</time>
      </trkpt>
      <trkpt lat="43.41478" lon="6.07072">
        <ele>195</ele>
        <time>2016-02-24T13:04:13Z</time>
      </trkpt>
      <trkpt lat="43.41474" lon="6.07073">
        <ele>194.60000610352</ele>
        <time>2016-02-24T13:04:14Z</time>
      </trkpt>
      <trkpt lat="43.41473" lon="6.07073">
        <ele>194.39999389648</ele>
        <time>2016-02-24T13:04:15Z</time>
      </trkpt>
      <trkpt lat="43.41473" lon="6.07073">
        <ele>194.60000610352</ele>
        <time>2016-02-24T13:04:16Z</time>
      </trkpt>
      <trkpt lat="43.41471" lon="6.07074">
        <ele>194.39999389648</ele>
        <time>2016-02-24T13:04:17Z</time>
      </trkpt>
      <trkpt lat="43.4147" lon="6.07075">
        <ele>194.39999389648</ele>
        <time>2016-02-24T13:04:18Z</time>
      </trkpt>
      <trkpt lat="43.41468" lon="6.07074">
        <ele>194.39999389648</ele>
        <time>2016-02-24T13:04:19Z</time>
      </trkpt>
      <trkpt lat="43.41468" lon="6.07073">
        <ele>194.19999694824</ele>
        <time>2016-02-24T13:04:20Z</time>
      </trkpt>
      <trkpt lat="43.41468" lon="6.07074">
        <ele>194</ele>
        <time>2016-02-24T13:04:22Z</time>
      </trkpt>
      <trkpt lat="43.41468" lon="6.07074">
        <ele>193.80000305176</ele>
        <time>2016-02-24T13:04:23Z</time>
      </trkpt>
      <trkpt lat="43.41468" lon="6.07074">
        <ele>194</ele>
        <time>2016-02-24T13:04:24Z</time>
      </trkpt>
      <trkpt lat="43.41468" lon="6.07074">
        <ele>194.39999389648</ele>
        <time>2016-02-24T13:04:26Z</time>
      </trkpt>
      <trkpt lat="43.41467" lon="6.07074">
        <ele>194.39999389648</ele>
        <time>2016-02-24T13:04:28Z</time>
      </trkpt>
      <trkpt lat="43.41467" lon="6.07074">
        <ele>194</ele>
        <time>2016-02-24T13:04:30Z</time>
      </trkpt>
      <trkpt lat="43.41467" lon="6.07074">
        <ele>194.19999694824</ele>
        <time>2016-02-24T13:04:32Z</time>
      </trkpt>
      <trkpt lat="43.41467" lon="6.07073">
        <ele>193.80000305176</ele>
        <time>2016-02-24T13:04:34Z</time>
      </trkpt>
      <trkpt lat="43.41467" lon="6.07073">
        <ele>194.19999694824</ele>
        <time>2016-02-24T13:04:36Z</time>
      </trkpt>
      <trkpt lat="43.41466" lon="6.07073">
        <ele>194.19999694824</ele>
        <time>2016-02-24T13:04:38Z</time>
      </trkpt>
      <trkpt lat="43.41462" lon="6.07068">
        <ele>194.19999694824</ele>
        <time>2016-02-24T13:04:40Z</time>
      </trkpt>
      <trkpt lat="43.41462" lon="6.07069">
        <ele>194.19999694824</ele>
        <time>2016-02-24T13:04:42Z</time>
      </trkpt>
      <trkpt lat="43.41462" lon="6.07069">
        <ele>194</ele>
        <time>2016-02-24T13:04:44Z</time>
      </trkpt>
      <trkpt lat="43.41462" lon="6.07069">
        <ele>194.19999694824</ele>
        <time>2016-02-24T13:04:46Z</time>
      </trkpt>
      <trkpt lat="43.41462" lon="6.07069">
        <ele>194.19999694824</ele>
        <time>2016-02-24T13:04:47Z</time>
      </trkpt>
      <trkpt lat="43.41462" lon="6.0707">
        <ele>194</ele>
        <time>2016-02-24T13:04:48Z</time>
      </trkpt>
      <trkpt lat="43.41461" lon="6.07071">
        <ele>194.39999389648</ele>
        <time>2016-02-24T13:04:50Z</time>
      </trkpt>
      <trkpt lat="43.41461" lon="6.07071">
        <ele>194.19999694824</ele>
        <time>2016-02-24T13:04:52Z</time>
      </trkpt>
      <trkpt lat="43.41462" lon="6.07071">
        <ele>194.19999694824</ele>
        <time>2016-02-24T13:04:54Z</time>
      </trkpt>
      <trkpt lat="43.41462" lon="6.07071">
        <ele>194.19999694824</ele>
        <time>2016-02-24T13:04:56Z</time>
      </trkpt>
      <trkpt lat="43.41462" lon="6.07072">
        <ele>194.19999694824</ele>
        <time>2016-02-24T13:04:58Z</time>
      </trkpt>
      <trkpt lat="43.41462" lon="6.07072">
        <ele>193.80000305176</ele>
        <time>2016-02-24T13:05:00Z</time>
      </trkpt>
      <trkpt lat="43.41462" lon="6.07072">
        <ele>194.19999694824</ele>
        <time>2016-02-24T13:05:02Z</time>
      </trkpt>
      <trkpt lat="43.41462" lon="6.07072">
        <ele>194.39999389648</ele>
        <time>2016-02-24T13:05:04Z</time>
      </trkpt>
      <trkpt lat="43.41462" lon="6.07072">
        <ele>194.39999389648</ele>
        <time>2016-02-24T13:05:06Z</time>
      </trkpt>
      <trkpt lat="43.41462" lon="6.07071">
        <ele>194.19999694824</ele>
        <time>2016-02-24T13:05:08Z</time>
      </trkpt>
      <trkpt lat="43.41462" lon="6.07071">
        <ele>194.19999694824</ele>
        <time>2016-02-24T13:05:10Z</time>
      </trkpt>
      <trkpt lat="43.41463" lon="6.07071">
        <ele>194.19999694824</ele>
        <time>2016-02-24T13:05:12Z</time>
      </trkpt>
      <trkpt lat="43.41463" lon="6.07071">
        <ele>194.19999694824</ele>
        <time>2016-02-24T13:05:14Z</time>
      </trkpt>
      <trkpt lat="43.41463" lon="6.07071">
        <ele>194.19999694824</ele>
        <time>2016-02-24T13:05:16Z</time>
      </trkpt>
      <trkpt lat="43.41463" lon="6.07071">
        <ele>194.19999694824</ele>
        <time>2016-02-24T13:05:18Z</time>
      </trkpt>
      <trkpt lat="43.41463" lon="6.07071">
        <ele>194.39999389648</ele>
        <time>2016-02-24T13:05:20Z</time>
      </trkpt>
      <trkpt lat="43.41463" lon="6.07071">
        <ele>194.39999389648</ele>
        <time>2016-02-24T13:05:22Z</time>
      </trkpt>
      <trkpt lat="43.41463" lon="6.07071">
        <ele>194</ele>
        <time>2016-02-24T13:05:24Z</time>
      </trkpt>
      <trkpt lat="43.41463" lon="6.07072">
        <ele>194.19999694824</ele>
        <time>2016-02-24T13:05:26Z</time>
      </trkpt>
      <trkpt lat="43.41463" lon="6.07073">
        <ele>194.39999389648</ele>
        <time>2016-02-24T13:05:28Z</time>
      </trkpt>
      <trkpt lat="43.41463" lon="6.07073">
        <ele>194.39999389648</ele>
        <time>2016-02-24T13:05:29Z</time>
      </trkpt>
      <trkpt lat="43.41463" lon="6.07073">
        <ele>194.19999694824</ele>
        <time>2016-02-24T13:05:30Z</time>
      </trkpt>
      <trkpt lat="43.41463" lon="6.07073">
        <ele>194.39999389648</ele>
        <time>2016-02-24T13:05:32Z</time>
      </trkpt>
      <trkpt lat="43.41463" lon="6.07073">
        <ele>194.60000610352</ele>
        <time>2016-02-24T13:05:34Z</time>
      </trkpt>
      <trkpt lat="43.41463" lon="6.07073">
        <ele>194.39999389648</ele>
        <time>2016-02-24T13:05:36Z</time>
      </trkpt>
      <trkpt lat="43.41463" lon="6.07073">
        <ele>194.19999694824</ele>
        <time>2016-02-24T13:05:38Z</time>
      </trkpt>
      <trkpt lat="43.41463" lon="6.07073">
        <ele>194.39999389648</ele>
        <time>2016-02-24T13:05:40Z</time>
      </trkpt>
      <trkpt lat="43.41463" lon="6.07073">
        <ele>194.60000610352</ele>
        <time>2016-02-24T13:05:42Z</time>
      </trkpt>
      <trkpt lat="43.41463" lon="6.07073">
        <ele>194.60000610352</ele>
        <time>2016-02-24T13:05:44Z</time>
      </trkpt>
      <trkpt lat="43.41463" lon="6.07073">
        <ele>195</ele>
        <time>2016-02-24T13:05:46Z</time>
      </trkpt>
      <trkpt lat="43.41463" lon="6.07072">
        <ele>194.60000610352</ele>
        <time>2016-02-24T13:05:48Z</time>
      </trkpt>
      <trkpt lat="43.41463" lon="6.07072">
        <ele>194.39999389648</ele>
        <time>2016-02-24T13:05:50Z</time>
      </trkpt>
      <trkpt lat="43.41463" lon="6.07072">
        <ele>194.19999694824</ele>
        <time>2016-02-24T13:05:51Z</time>
      </trkpt>
      <trkpt lat="43.41463" lon="6.07072">
        <ele>194.19999694824</ele>
        <time>2016-02-24T13:05:52Z</time>
      </trkpt>
      <trkpt lat="43.41463" lon="6.07072">
        <ele>194.19999694824</ele>
        <time>2016-02-24T13:05:54Z</time>
      </trkpt>
      <trkpt lat="43.41463" lon="6.07073">
        <ele>194.39999389648</ele>
        <time>2016-02-24T13:05:56Z</time>
      </trkpt>
      <trkpt lat="43.41464" lon="6.07073">
        <ele>194.60000610352</ele>
        <time>2016-02-24T13:05:58Z</time>
      </trkpt>
      <trkpt lat="43.41464" lon="6.07073">
        <ele>194.60000610352</ele>
        <time>2016-02-24T13:06:00Z</time>
      </trkpt>
      <trkpt lat="43.41464" lon="6.07073">
        <ele>194.60000610352</ele>
        <time>2016-02-24T13:06:02Z</time>
      </trkpt>
      <trkpt lat="43.41463" lon="6.07072">
        <ele>194.39999389648</ele>
        <time>2016-02-24T13:06:04Z</time>
      </trkpt>
      <trkpt lat="43.41463" lon="6.07067">
        <ele>194.60000610352</ele>
        <time>2016-02-24T13:06:06Z</time>
      </trkpt>
      <trkpt lat="43.41464" lon="6.07061">
        <ele>194.39999389648</ele>
        <time>2016-02-24T13:06:08Z</time>
      </trkpt>
      <trkpt lat="43.41467" lon="6.07054">
        <ele>194.60000610352</ele>
        <time>2016-02-24T13:06:10Z</time>
      </trkpt>
      <trkpt lat="43.41471" lon="6.07047">
        <ele>194.60000610352</ele>
        <time>2016-02-24T13:06:12Z</time>
      </trkpt>
      <trkpt lat="43.41475" lon="6.07038">
        <ele>194.80000305176</ele>
        <time>2016-02-24T13:06:14Z</time>
      </trkpt>
      <trkpt lat="43.41477" lon="6.07034">
        <ele>195</ele>
        <time>2016-02-24T13:06:15Z</time>
      </trkpt>
      <trkpt lat="43.41479" lon="6.07029">
        <ele>195</ele>
        <time>2016-02-24T13:06:16Z</time>
      </trkpt>
      <trkpt lat="43.41483" lon="6.07019">
        <ele>195.19999694824</ele>
        <time>2016-02-24T13:06:18Z</time>
      </trkpt>
      <trkpt lat="43.41486" lon="6.07011">
        <ele>195.39999389648</ele>
        <time>2016-02-24T13:06:20Z</time>
      </trkpt>
      <trkpt lat="43.41489" lon="6.07002">
        <ele>195.60000610352</ele>
        <time>2016-02-24T13:06:22Z</time>
      </trkpt>
      <trkpt lat="43.41491" lon="6.06998">
        <ele>195.80000305176</ele>
        <time>2016-02-24T13:06:23Z</time>
      </trkpt>
      <trkpt lat="43.41491" lon="6.06994">
        <ele>195.80000305176</ele>
        <time>2016-02-24T13:06:24Z</time>
      </trkpt>
      <trkpt lat="43.41491" lon="6.06984">
        <ele>195.80000305176</ele>
        <time>2016-02-24T13:06:26Z</time>
      </trkpt>
      <trkpt lat="43.41489" lon="6.06974">
        <ele>196</ele>
        <time>2016-02-24T13:06:28Z</time>
      </trkpt>
      <trkpt lat="43.41486" lon="6.06967">
        <ele>195.80000305176</ele>
        <time>2016-02-24T13:06:30Z</time>
      </trkpt>
      <trkpt lat="43.41482" lon="6.06958">
        <ele>196</ele>
        <time>2016-02-24T13:06:32Z</time>
      </trkpt>
      <trkpt lat="43.41478" lon="6.06952">
        <ele>196.19999694824</ele>
        <time>2016-02-24T13:06:34Z</time>
      </trkpt>
      <trkpt lat="43.41474" lon="6.06945">
        <ele>196.39999389648</ele>
        <time>2016-02-24T13:06:36Z</time>
      </trkpt>
      <trkpt lat="43.4147" lon="6.06937">
        <ele>196.39999389648</ele>
        <time>2016-02-24T13:06:38Z</time>
      </trkpt>
      <trkpt lat="43.41465" lon="6.06931">
        <ele>196.60000610352</ele>
        <time>2016-02-24T13:06:40Z</time>
      </trkpt>
      <trkpt lat="43.41463" lon="6.06927">
        <ele>196.80000305176</ele>
        <time>2016-02-24T13:06:41Z</time>
      </trkpt>
      <trkpt lat="43.41465" lon="6.06923">
        <ele>196.80000305176</ele>
        <time>2016-02-24T13:06:42Z</time>
      </trkpt>
      <trkpt lat="43.41469" lon="6.0692">
        <ele>197.19999694824</ele>
        <time>2016-02-24T13:06:44Z</time>
      </trkpt>
      <trkpt lat="43.4147" lon="6.06919">
        <ele>197.39999389648</ele>
        <time>2016-02-24T13:06:46Z</time>
      </trkpt>
      <trkpt lat="43.41471" lon="6.06917">
        <ele>197.19999694824</ele>
        <time>2016-02-24T13:06:48Z</time>
      </trkpt>
      <trkpt lat="43.41472" lon="6.06915">
        <ele>196.80000305176</ele>
        <time>2016-02-24T13:06:49Z</time>
      </trkpt>
      <trkpt lat="43.41472" lon="6.06913">
        <ele>196.80000305176</ele>
        <time>2016-02-24T13:06:50Z</time>
      </trkpt>
      <trkpt lat="43.41473" lon="6.0691">
        <ele>197</ele>
        <time>2016-02-24T13:06:52Z</time>
      </trkpt>
      <trkpt lat="43.41473" lon="6.06908">
        <ele>197</ele>
        <time>2016-02-24T13:06:54Z</time>
      </trkpt>
      <trkpt lat="43.41473" lon="6.06909">
        <ele>196.80000305176</ele>
        <time>2016-02-24T13:06:56Z</time>
      </trkpt>
      <trkpt lat="43.41473" lon="6.06909">
        <ele>196.60000610352</ele>
        <time>2016-02-24T13:06:58Z</time>
      </trkpt>
      <trkpt lat="43.41474" lon="6.06906">
        <ele>196.80000305176</ele>
        <time>2016-02-24T13:07:00Z</time>
      </trkpt>
      <trkpt lat="43.41475" lon="6.06902">
        <ele>197</ele>
        <time>2016-02-24T13:07:02Z</time>
      </trkpt>
      <trkpt lat="43.41474" lon="6.06899">
        <ele>197.19999694824</ele>
        <time>2016-02-24T13:07:03Z</time>
      </trkpt>
      <trkpt lat="43.41473" lon="6.06896">
        <ele>197.19999694824</ele>
        <time>2016-02-24T13:07:04Z</time>
      </trkpt>
      <trkpt lat="43.41473" lon="6.06893">
        <ele>197.19999694824</ele>
        <time>2016-02-24T13:07:05Z</time>
      </trkpt>
      <trkpt lat="43.41473" lon="6.06891">
        <ele>197.19999694824</ele>
        <time>2016-02-24T13:07:06Z</time>
      </trkpt>
      <trkpt lat="43.41473" lon="6.06889">
        <ele>196.80000305176</ele>
        <time>2016-02-24T13:07:08Z</time>
      </trkpt>
      <trkpt lat="43.41474" lon="6.06883">
        <ele>197</ele>
        <time>2016-02-24T13:07:10Z</time>
      </trkpt>
      <trkpt lat="43.41475" lon="6.06875">
        <ele>197</ele>
        <time>2016-02-24T13:07:12Z</time>
      </trkpt>
      <trkpt lat="43.41474" lon="6.06872">
        <ele>197.19999694824</ele>
        <time>2016-02-24T13:07:13Z</time>
      </trkpt>
      <trkpt lat="43.41473" lon="6.06868">
        <ele>197.39999389648</ele>
        <time>2016-02-24T13:07:14Z</time>
      </trkpt>
      <trkpt lat="43.41472" lon="6.0686">
        <ele>197.60000610352</ele>
        <time>2016-02-24T13:07:16Z</time>
      </trkpt>
      <trkpt lat="43.41473" lon="6.06849">
        <ele>197.39999389648</ele>
        <time>2016-02-24T13:07:18Z</time>
      </trkpt>
      <trkpt lat="43.41474" lon="6.06844">
        <ele>197.19999694824</ele>
        <time>2016-02-24T13:07:19Z</time>
      </trkpt>
      <trkpt lat="43.41474" lon="6.0684">
        <ele>197.19999694824</ele>
        <time>2016-02-24T13:07:20Z</time>
      </trkpt>
      <trkpt lat="43.41475" lon="6.06833">
        <ele>197.19999694824</ele>
        <time>2016-02-24T13:07:22Z</time>
      </trkpt>
      <trkpt lat="43.41479" lon="6.06824">
        <ele>197</ele>
        <time>2016-02-24T13:07:24Z</time>
      </trkpt>
      <trkpt lat="43.41483" lon="6.06813">
        <ele>196.60000610352</ele>
        <time>2016-02-24T13:07:26Z</time>
      </trkpt>
      <trkpt lat="43.41485" lon="6.06803">
        <ele>196.60000610352</ele>
        <time>2016-02-24T13:07:28Z</time>
      </trkpt>
      <trkpt lat="43.41488" lon="6.06791">
        <ele>197.19999694824</ele>
        <time>2016-02-24T13:07:30Z</time>
      </trkpt>
      <trkpt lat="43.41489" lon="6.06786">
        <ele>197.39999389648</ele>
        <time>2016-02-24T13:07:31Z</time>
      </trkpt>
      <trkpt lat="43.41491" lon="6.0678">
        <ele>197.80000305176</ele>
        <time>2016-02-24T13:07:32Z</time>
      </trkpt>
      <trkpt lat="43.41493" lon="6.06769">
        <ele>198.19999694824</ele>
        <time>2016-02-24T13:07:34Z</time>
      </trkpt>
      <trkpt lat="43.41494" lon="6.06757">
        <ele>198.39999389648</ele>
        <time>2016-02-24T13:07:36Z</time>
      </trkpt>
      <trkpt lat="43.41496" lon="6.06746">
        <ele>198.60000610352</ele>
        <time>2016-02-24T13:07:38Z</time>
      </trkpt>
      <trkpt lat="43.41496" lon="6.06741">
        <ele>198.60000610352</ele>
        <time>2016-02-24T13:07:39Z</time>
      </trkpt>
      <trkpt lat="43.41496" lon="6.06735">
        <ele>199</ele>
        <time>2016-02-24T13:07:40Z</time>
      </trkpt>
      <trkpt lat="43.41496" lon="6.06726">
        <ele>199.19999694824</ele>
        <time>2016-02-24T13:07:42Z</time>
      </trkpt>
      <trkpt lat="43.41496" lon="6.06717">
        <ele>199.39999389648</ele>
        <time>2016-02-24T13:07:44Z</time>
      </trkpt>
      <trkpt lat="43.41497" lon="6.06708">
        <ele>199.39999389648</ele>
        <time>2016-02-24T13:07:46Z</time>
      </trkpt>
      <trkpt lat="43.41496" lon="6.06699">
        <ele>199.60000610352</ele>
        <time>2016-02-24T13:07:48Z</time>
      </trkpt>
      <trkpt lat="43.41497" lon="6.06689">
        <ele>199.80000305176</ele>
        <time>2016-02-24T13:07:50Z</time>
      </trkpt>
      <trkpt lat="43.41497" lon="6.06684">
        <ele>199.80000305176</ele>
        <time>2016-02-24T13:07:51Z</time>
      </trkpt>
      <trkpt lat="43.41497" lon="6.06679">
        <ele>199.80000305176</ele>
        <time>2016-02-24T13:07:52Z</time>
      </trkpt>
      <trkpt lat="43.41498" lon="6.0667">
        <ele>200</ele>
        <time>2016-02-24T13:07:54Z</time>
      </trkpt>
      <trkpt lat="43.415" lon="6.06661">
        <ele>200</ele>
        <time>2016-02-24T13:07:56Z</time>
      </trkpt>
      <trkpt lat="43.41501" lon="6.06652">
        <ele>200</ele>
        <time>2016-02-24T13:07:58Z</time>
      </trkpt>
      <trkpt lat="43.41504" lon="6.06643">
        <ele>200.19999694824</ele>
        <time>2016-02-24T13:08:00Z</time>
      </trkpt>
      <trkpt lat="43.41506" lon="6.06634">
        <ele>200</ele>
        <time>2016-02-24T13:08:02Z</time>
      </trkpt>
      <trkpt lat="43.41507" lon="6.06626">
        <ele>200.39999389648</ele>
        <time>2016-02-24T13:08:04Z</time>
      </trkpt>
      <trkpt lat="43.41508" lon="6.06618">
        <ele>200.60000610352</ele>
        <time>2016-02-24T13:08:06Z</time>
      </trkpt>
      <trkpt lat="43.41508" lon="6.0661">
        <ele>200.80000305176</ele>
        <time>2016-02-24T13:08:08Z</time>
      </trkpt>
      <trkpt lat="43.4151" lon="6.06602">
        <ele>200.80000305176</ele>
        <time>2016-02-24T13:08:10Z</time>
      </trkpt>
      <trkpt lat="43.4151" lon="6.06598">
        <ele>200.80000305176</ele>
        <time>2016-02-24T13:08:11Z</time>
      </trkpt>
      <trkpt lat="43.41511" lon="6.06594">
        <ele>200.60000610352</ele>
        <time>2016-02-24T13:08:12Z</time>
      </trkpt>
      <trkpt lat="43.41513" lon="6.06585">
        <ele>200.39999389648</ele>
        <time>2016-02-24T13:08:14Z</time>
      </trkpt>
      <trkpt lat="43.41514" lon="6.06577">
        <ele>200.39999389648</ele>
        <time>2016-02-24T13:08:16Z</time>
      </trkpt>
      <trkpt lat="43.41515" lon="6.06568">
        <ele>200.19999694824</ele>
        <time>2016-02-24T13:08:18Z</time>
      </trkpt>
      <trkpt lat="43.41517" lon="6.0656">
        <ele>200.19999694824</ele>
        <time>2016-02-24T13:08:20Z</time>
      </trkpt>
      <trkpt lat="43.41519" lon="6.06551">
        <ele>200.39999389648</ele>
        <time>2016-02-24T13:08:22Z</time>
      </trkpt>
      <trkpt lat="43.4152" lon="6.06541">
        <ele>200.60000610352</ele>
        <time>2016-02-24T13:08:24Z</time>
      </trkpt>
      <trkpt lat="43.41522" lon="6.06532">
        <ele>200.60000610352</ele>
        <time>2016-02-24T13:08:26Z</time>
      </trkpt>
      <trkpt lat="43.41524" lon="6.06523">
        <ele>200.80000305176</ele>
        <time>2016-02-24T13:08:28Z</time>
      </trkpt>
      <trkpt lat="43.41526" lon="6.06513">
        <ele>201.39999389648</ele>
        <time>2016-02-24T13:08:30Z</time>
      </trkpt>
      <trkpt lat="43.4153" lon="6.06504">
        <ele>202</ele>
        <time>2016-02-24T13:08:32Z</time>
      </trkpt>
      <trkpt lat="43.41531" lon="6.065">
        <ele>201.80000305176</ele>
        <time>2016-02-24T13:08:33Z</time>
      </trkpt>
      <trkpt lat="43.41533" lon="6.06496">
        <ele>201.39999389648</ele>
        <time>2016-02-24T13:08:34Z</time>
      </trkpt>
      <trkpt lat="43.41538" lon="6.06489">
        <ele>201</ele>
        <time>2016-02-24T13:08:36Z</time>
      </trkpt>
      <trkpt lat="43.41542" lon="6.06483">
        <ele>201.19999694824</ele>
        <time>2016-02-24T13:08:38Z</time>
      </trkpt>
      <trkpt lat="43.41546" lon="6.06475">
        <ele>201.39999389648</ele>
        <time>2016-02-24T13:08:40Z</time>
      </trkpt>
      <trkpt lat="43.41547" lon="6.06464">
        <ele>201.60000610352</ele>
        <time>2016-02-24T13:08:42Z</time>
      </trkpt>
      <trkpt lat="43.41546" lon="6.06453">
        <ele>201.80000305176</ele>
        <time>2016-02-24T13:08:44Z</time>
      </trkpt>
      <trkpt lat="43.41546" lon="6.06443">
        <ele>202</ele>
        <time>2016-02-24T13:08:46Z</time>
      </trkpt>
      <trkpt lat="43.41547" lon="6.06433">
        <ele>202.39999389648</ele>
        <time>2016-02-24T13:08:48Z</time>
      </trkpt>
      <trkpt lat="43.41549" lon="6.06423">
        <ele>202.60000610352</ele>
        <time>2016-02-24T13:08:50Z</time>
      </trkpt>
      <trkpt lat="43.41551" lon="6.06414">
        <ele>203</ele>
        <time>2016-02-24T13:08:52Z</time>
      </trkpt>
      <trkpt lat="43.41553" lon="6.06404">
        <ele>203.19999694824</ele>
        <time>2016-02-24T13:08:54Z</time>
      </trkpt>
      <trkpt lat="43.41555" lon="6.06394">
        <ele>203.39999389648</ele>
        <time>2016-02-24T13:08:56Z</time>
      </trkpt>
      <trkpt lat="43.41556" lon="6.06385">
        <ele>204.19999694824</ele>
        <time>2016-02-24T13:08:58Z</time>
      </trkpt>
      <trkpt lat="43.41556" lon="6.0638">
        <ele>204.80000305176</ele>
        <time>2016-02-24T13:08:59Z</time>
      </trkpt>
      <trkpt lat="43.41557" lon="6.06375">
        <ele>204.80000305176</ele>
        <time>2016-02-24T13:09:00Z</time>
      </trkpt>
      <trkpt lat="43.41558" lon="6.06366">
        <ele>205.19999694824</ele>
        <time>2016-02-24T13:09:02Z</time>
      </trkpt>
      <trkpt lat="43.4156" lon="6.06358">
        <ele>205.80000305176</ele>
        <time>2016-02-24T13:09:04Z</time>
      </trkpt>
      <trkpt lat="43.41564" lon="6.0635">
        <ele>206.39999389648</ele>
        <time>2016-02-24T13:09:06Z</time>
      </trkpt>
      <trkpt lat="43.41568" lon="6.06343">
        <ele>206.80000305176</ele>
        <time>2016-02-24T13:09:08Z</time>
      </trkpt>
      <trkpt lat="43.41573" lon="6.06337">
        <ele>207.19999694824</ele>
        <time>2016-02-24T13:09:10Z</time>
      </trkpt>
      <trkpt lat="43.41578" lon="6.06331">
        <ele>207.60000610352</ele>
        <time>2016-02-24T13:09:12Z</time>
      </trkpt>
      <trkpt lat="43.41581" lon="6.06325">
        <ele>208.19999694824</ele>
        <time>2016-02-24T13:09:14Z</time>
      </trkpt>
      <trkpt lat="43.41585" lon="6.06319">
        <ele>208.39999389648</ele>
        <time>2016-02-24T13:09:16Z</time>
      </trkpt>
      <trkpt lat="43.41587" lon="6.06311">
        <ele>208.80000305176</ele>
        <time>2016-02-24T13:09:18Z</time>
      </trkpt>
      <trkpt lat="43.41588" lon="6.06307">
        <ele>209</ele>
        <time>2016-02-24T13:09:19Z</time>
      </trkpt>
      <trkpt lat="43.41589" lon="6.06303">
        <ele>209</ele>
        <time>2016-02-24T13:09:20Z</time>
      </trkpt>
      <trkpt lat="43.41589" lon="6.06294">
        <ele>209.80000305176</ele>
        <time>2016-02-24T13:09:22Z</time>
      </trkpt>
      <trkpt lat="43.41587" lon="6.06285">
        <ele>209.80000305176</ele>
        <time>2016-02-24T13:09:24Z</time>
      </trkpt>
      <trkpt lat="43.41587" lon="6.06281">
        <ele>210</ele>
        <time>2016-02-24T13:09:25Z</time>
      </trkpt>
      <trkpt lat="43.41587" lon="6.06277">
        <ele>210</ele>
        <time>2016-02-24T13:09:26Z</time>
      </trkpt>
      <trkpt lat="43.41588" lon="6.06271">
        <ele>210</ele>
        <time>2016-02-24T13:09:28Z</time>
      </trkpt>
      <trkpt lat="43.41589" lon="6.06269">
        <ele>210.19999694824</ele>
        <time>2016-02-24T13:09:29Z</time>
      </trkpt>
      <trkpt lat="43.4159" lon="6.06268">
        <ele>210.19999694824</ele>
        <time>2016-02-24T13:09:30Z</time>
      </trkpt>
      <trkpt lat="43.41592" lon="6.06266">
        <ele>210.19999694824</ele>
        <time>2016-02-24T13:09:32Z</time>
      </trkpt>
      <trkpt lat="43.41593" lon="6.06264">
        <ele>210.19999694824</ele>
        <time>2016-02-24T13:09:34Z</time>
      </trkpt>
      <trkpt lat="43.41594" lon="6.06263">
        <ele>210.19999694824</ele>
        <time>2016-02-24T13:09:36Z</time>
      </trkpt>
      <trkpt lat="43.41595" lon="6.06262">
        <ele>210</ele>
        <time>2016-02-24T13:09:38Z</time>
      </trkpt>
      <trkpt lat="43.41595" lon="6.06262">
        <ele>210.19999694824</ele>
        <time>2016-02-24T13:09:40Z</time>
      </trkpt>
      <trkpt lat="43.41595" lon="6.06262">
        <ele>210.19999694824</ele>
        <time>2016-02-24T13:09:42Z</time>
      </trkpt>
      <trkpt lat="43.41595" lon="6.06261">
        <ele>210</ele>
        <time>2016-02-24T13:09:44Z</time>
      </trkpt>
      <trkpt lat="43.41595" lon="6.06261">
        <ele>209.60000610352</ele>
        <time>2016-02-24T13:09:46Z</time>
      </trkpt>
      <trkpt lat="43.41596" lon="6.06259">
        <ele>209.80000305176</ele>
        <time>2016-02-24T13:09:48Z</time>
      </trkpt>
      <trkpt lat="43.41597" lon="6.06258">
        <ele>209.80000305176</ele>
        <time>2016-02-24T13:09:49Z</time>
      </trkpt>
      <trkpt lat="43.41599" lon="6.06258">
        <ele>209.60000610352</ele>
        <time>2016-02-24T13:09:50Z</time>
      </trkpt>
      <trkpt lat="43.41598" lon="6.06258">
        <ele>209.39999389648</ele>
        <time>2016-02-24T13:09:52Z</time>
      </trkpt>
      <trkpt lat="43.41599" lon="6.06258">
        <ele>209.39999389648</ele>
        <time>2016-02-24T13:09:54Z</time>
      </trkpt>
      <trkpt lat="43.41599" lon="6.06258">
        <ele>209.80000305176</ele>
        <time>2016-02-24T13:09:55Z</time>
      </trkpt>
      <trkpt lat="43.41599" lon="6.06258">
        <ele>210.19999694824</ele>
        <time>2016-02-24T13:09:56Z</time>
      </trkpt>
      <trkpt lat="43.41599" lon="6.06255">
        <ele>210.60000610352</ele>
        <time>2016-02-24T13:09:58Z</time>
      </trkpt>
      <trkpt lat="43.416" lon="6.06254">
        <ele>210.60000610352</ele>
        <time>2016-02-24T13:10:00Z</time>
      </trkpt>
      <trkpt lat="43.416" lon="6.06254">
        <ele>210.19999694824</ele>
        <time>2016-02-24T13:10:02Z</time>
      </trkpt>
      <trkpt lat="43.41599" lon="6.06254">
        <ele>210.19999694824</ele>
        <time>2016-02-24T13:10:04Z</time>
      </trkpt>
      <trkpt lat="43.41599" lon="6.06254">
        <ele>210.39999389648</ele>
        <time>2016-02-24T13:10:06Z</time>
      </trkpt>
      <trkpt lat="43.41599" lon="6.06254">
        <ele>210.39999389648</ele>
        <time>2016-02-24T13:10:08Z</time>
      </trkpt>
      <trkpt lat="43.416" lon="6.06252">
        <ele>210.39999389648</ele>
        <time>2016-02-24T13:10:09Z</time>
      </trkpt>
      <trkpt lat="43.41601" lon="6.06251">
        <ele>210.60000610352</ele>
        <time>2016-02-24T13:10:10Z</time>
      </trkpt>
      <trkpt lat="43.41602" lon="6.06245">
        <ele>210.60000610352</ele>
        <time>2016-02-24T13:10:12Z</time>
      </trkpt>
      <trkpt lat="43.41605" lon="6.06239">
        <ele>210.80000305176</ele>
        <time>2016-02-24T13:10:14Z</time>
      </trkpt>
      <trkpt lat="43.41607" lon="6.06232">
        <ele>210.80000305176</ele>
        <time>2016-02-24T13:10:16Z</time>
      </trkpt>
      <trkpt lat="43.41607" lon="6.06228">
        <ele>211</ele>
        <time>2016-02-24T13:10:17Z</time>
      </trkpt>
      <trkpt lat="43.41608" lon="6.06225">
        <ele>211</ele>
        <time>2016-02-24T13:10:18Z</time>
      </trkpt>
      <trkpt lat="43.41608" lon="6.06218">
        <ele>211</ele>
        <time>2016-02-24T13:10:20Z</time>
      </trkpt>
      <trkpt lat="43.41608" lon="6.0621">
        <ele>211.19999694824</ele>
        <time>2016-02-24T13:10:22Z</time>
      </trkpt>
      <trkpt lat="43.41604" lon="6.06202">
        <ele>211.19999694824</ele>
        <time>2016-02-24T13:10:24Z</time>
      </trkpt>
      <trkpt lat="43.41602" lon="6.06194">
        <ele>210.80000305176</ele>
        <time>2016-02-24T13:10:26Z</time>
      </trkpt>
      <trkpt lat="43.416" lon="6.06184">
        <ele>210.60000610352</ele>
        <time>2016-02-24T13:10:28Z</time>
      </trkpt>
      <trkpt lat="43.41601" lon="6.06178">
        <ele>210.80000305176</ele>
        <time>2016-02-24T13:10:29Z</time>
      </trkpt>
      <trkpt lat="43.41603" lon="6.06172">
        <ele>210.80000305176</ele>
        <time>2016-02-24T13:10:30Z</time>
      </trkpt>
      <trkpt lat="43.41609" lon="6.06161">
        <ele>210.19999694824</ele>
        <time>2016-02-24T13:10:32Z</time>
      </trkpt>
      <trkpt lat="43.41612" lon="6.06156">
        <ele>210.19999694824</ele>
        <time>2016-02-24T13:10:33Z</time>
      </trkpt>
      <trkpt lat="43.41616" lon="6.06152">
        <ele>210</ele>
        <time>2016-02-24T13:10:34Z</time>
      </trkpt>
      <trkpt lat="43.41619" lon="6.06148">
        <ele>209.60000610352</ele>
        <time>2016-02-24T13:10:35Z</time>
      </trkpt>
      <trkpt lat="43.41622" lon="6.06145">
        <ele>209.60000610352</ele>
        <time>2016-02-24T13:10:36Z</time>
      </trkpt>
      <trkpt lat="43.41626" lon="6.06139">
        <ele>210</ele>
        <time>2016-02-24T13:10:38Z</time>
      </trkpt>
      <trkpt lat="43.41628" lon="6.06136">
        <ele>210.39999389648</ele>
        <time>2016-02-24T13:10:39Z</time>
      </trkpt>
      <trkpt lat="43.41629" lon="6.06132">
        <ele>210.39999389648</ele>
        <time>2016-02-24T13:10:40Z</time>
      </trkpt>
      <trkpt lat="43.41629" lon="6.06123">
        <ele>210</ele>
        <time>2016-02-24T13:10:42Z</time>
      </trkpt>
      <trkpt lat="43.41628" lon="6.06119">
        <ele>210</ele>
        <time>2016-02-24T13:10:43Z</time>
      </trkpt>
      <trkpt lat="43.41626" lon="6.06114">
        <ele>210</ele>
        <time>2016-02-24T13:10:44Z</time>
      </trkpt>
      <trkpt lat="43.41621" lon="6.06103">
        <ele>209.60000610352</ele>
        <time>2016-02-24T13:10:46Z</time>
      </trkpt>
      <trkpt lat="43.41619" lon="6.06093">
        <ele>209.80000305176</ele>
        <time>2016-02-24T13:10:48Z</time>
      </trkpt>
      <trkpt lat="43.41618" lon="6.06083">
        <ele>210</ele>
        <time>2016-02-24T13:10:50Z</time>
      </trkpt>
      <trkpt lat="43.41618" lon="6.06072">
        <ele>210.19999694824</ele>
        <time>2016-02-24T13:10:52Z</time>
      </trkpt>
      <trkpt lat="43.41618" lon="6.06062">
        <ele>210.19999694824</ele>
        <time>2016-02-24T13:10:54Z</time>
      </trkpt>
      <trkpt lat="43.41619" lon="6.06051">
        <ele>210.39999389648</ele>
        <time>2016-02-24T13:10:56Z</time>
      </trkpt>
      <trkpt lat="43.41621" lon="6.06041">
        <ele>210.80000305176</ele>
        <time>2016-02-24T13:10:58Z</time>
      </trkpt>
      <trkpt lat="43.41622" lon="6.0603">
        <ele>211</ele>
        <time>2016-02-24T13:11:00Z</time>
      </trkpt>
      <trkpt lat="43.41623" lon="6.06025">
        <ele>211.19999694824</ele>
        <time>2016-02-24T13:11:01Z</time>
      </trkpt>
      <trkpt lat="43.41623" lon="6.0602">
        <ele>211.39999389648</ele>
        <time>2016-02-24T13:11:02Z</time>
      </trkpt>
      <trkpt lat="43.41623" lon="6.06012">
        <ele>211.60000610352</ele>
        <time>2016-02-24T13:11:04Z</time>
      </trkpt>
      <trkpt lat="43.41624" lon="6.06002">
        <ele>212</ele>
        <time>2016-02-24T13:11:06Z</time>
      </trkpt>
      <trkpt lat="43.41625" lon="6.05998">
        <ele>212.19999694824</ele>
        <time>2016-02-24T13:11:07Z</time>
      </trkpt>
      <trkpt lat="43.41626" lon="6.05994">
        <ele>212.39999389648</ele>
        <time>2016-02-24T13:11:08Z</time>
      </trkpt>
      <trkpt lat="43.41627" lon="6.05984">
        <ele>212.60000610352</ele>
        <time>2016-02-24T13:11:10Z</time>
      </trkpt>
      <trkpt lat="43.41629" lon="6.05975">
        <ele>212.80000305176</ele>
        <time>2016-02-24T13:11:12Z</time>
      </trkpt>
      <trkpt lat="43.41631" lon="6.05965">
        <ele>212.80000305176</ele>
        <time>2016-02-24T13:11:14Z</time>
      </trkpt>
      <trkpt lat="43.41631" lon="6.05961">
        <ele>213</ele>
        <time>2016-02-24T13:11:15Z</time>
      </trkpt>
      <trkpt lat="43.41632" lon="6.05957">
        <ele>213.19999694824</ele>
        <time>2016-02-24T13:11:16Z</time>
      </trkpt>
      <trkpt lat="43.41633" lon="6.05952">
        <ele>213.39999389648</ele>
        <time>2016-02-24T13:11:17Z</time>
      </trkpt>
      <trkpt lat="43.41634" lon="6.05947">
        <ele>213.60000610352</ele>
        <time>2016-02-24T13:11:18Z</time>
      </trkpt>
      <trkpt lat="43.41634" lon="6.05938">
        <ele>213.80000305176</ele>
        <time>2016-02-24T13:11:20Z</time>
      </trkpt>
      <trkpt lat="43.41636" lon="6.05929">
        <ele>214</ele>
        <time>2016-02-24T13:11:22Z</time>
      </trkpt>
      <trkpt lat="43.41636" lon="6.05924">
        <ele>214.19999694824</ele>
        <time>2016-02-24T13:11:23Z</time>
      </trkpt>
      <trkpt lat="43.41637" lon="6.05919">
        <ele>214.19999694824</ele>
        <time>2016-02-24T13:11:24Z</time>
      </trkpt>
      <trkpt lat="43.41637" lon="6.05914">
        <ele>214.39999389648</ele>
        <time>2016-02-24T13:11:25Z</time>
      </trkpt>
      <trkpt lat="43.41638" lon="6.0591">
        <ele>214.60000610352</ele>
        <time>2016-02-24T13:11:26Z</time>
      </trkpt>
      <trkpt lat="43.4164" lon="6.059">
        <ele>215</ele>
        <time>2016-02-24T13:11:28Z</time>
      </trkpt>
      <trkpt lat="43.4164" lon="6.05891">
        <ele>214.60000610352</ele>
        <time>2016-02-24T13:11:30Z</time>
      </trkpt>
      <trkpt lat="43.41641" lon="6.05882">
        <ele>214.80000305176</ele>
        <time>2016-02-24T13:11:32Z</time>
      </trkpt>
      <trkpt lat="43.41642" lon="6.05873">
        <ele>215</ele>
        <time>2016-02-24T13:11:34Z</time>
      </trkpt>
      <trkpt lat="43.41643" lon="6.05868">
        <ele>215.19999694824</ele>
        <time>2016-02-24T13:11:35Z</time>
      </trkpt>
      <trkpt lat="43.41644" lon="6.05863">
        <ele>215.39999389648</ele>
        <time>2016-02-24T13:11:36Z</time>
      </trkpt>
      <trkpt lat="43.41644" lon="6.05854">
        <ele>215.39999389648</ele>
        <time>2016-02-24T13:11:38Z</time>
      </trkpt>
      <trkpt lat="43.41644" lon="6.05844">
        <ele>215.19999694824</ele>
        <time>2016-02-24T13:11:40Z</time>
      </trkpt>
      <trkpt lat="43.41644" lon="6.0584">
        <ele>215.19999694824</ele>
        <time>2016-02-24T13:11:41Z</time>
      </trkpt>
      <trkpt lat="43.41645" lon="6.05835">
        <ele>215.19999694824</ele>
        <time>2016-02-24T13:11:42Z</time>
      </trkpt>
      <trkpt lat="43.41645" lon="6.05826">
        <ele>215.19999694824</ele>
        <time>2016-02-24T13:11:44Z</time>
      </trkpt>
      <trkpt lat="43.41645" lon="6.05817">
        <ele>215.19999694824</ele>
        <time>2016-02-24T13:11:46Z</time>
      </trkpt>
      <trkpt lat="43.41647" lon="6.05809">
        <ele>215.39999389648</ele>
        <time>2016-02-24T13:11:48Z</time>
      </trkpt>
      <trkpt lat="43.41648" lon="6.058">
        <ele>215.80000305176</ele>
        <time>2016-02-24T13:11:50Z</time>
      </trkpt>
      <trkpt lat="43.41648" lon="6.05796">
        <ele>216</ele>
        <time>2016-02-24T13:11:51Z</time>
      </trkpt>
      <trkpt lat="43.41648" lon="6.05791">
        <ele>216</ele>
        <time>2016-02-24T13:11:52Z</time>
      </trkpt>
      <trkpt lat="43.41648" lon="6.05782">
        <ele>215.80000305176</ele>
        <time>2016-02-24T13:11:54Z</time>
      </trkpt>
      <trkpt lat="43.41648" lon="6.05772">
        <ele>216</ele>
        <time>2016-02-24T13:11:56Z</time>
      </trkpt>
      <trkpt lat="43.41648" lon="6.05761">
        <ele>216.19999694824</ele>
        <time>2016-02-24T13:11:58Z</time>
      </trkpt>
      <trkpt lat="43.41648" lon="6.05751">
        <ele>215.80000305176</ele>
        <time>2016-02-24T13:12:00Z</time>
      </trkpt>
      <trkpt lat="43.41648" lon="6.05741">
        <ele>215.60000610352</ele>
        <time>2016-02-24T13:12:02Z</time>
      </trkpt>
      <trkpt lat="43.41647" lon="6.0573">
        <ele>215.60000610352</ele>
        <time>2016-02-24T13:12:04Z</time>
      </trkpt>
      <trkpt lat="43.41647" lon="6.0572">
        <ele>215.60000610352</ele>
        <time>2016-02-24T13:12:06Z</time>
      </trkpt>
      <trkpt lat="43.41647" lon="6.05715">
        <ele>215.60000610352</ele>
        <time>2016-02-24T13:12:07Z</time>
      </trkpt>
      <trkpt lat="43.41647" lon="6.0571">
        <ele>215.60000610352</ele>
        <time>2016-02-24T13:12:08Z</time>
      </trkpt>
      <trkpt lat="43.41646" lon="6.057">
        <ele>215.60000610352</ele>
        <time>2016-02-24T13:12:10Z</time>
      </trkpt>
      <trkpt lat="43.41645" lon="6.0569">
        <ele>215.39999389648</ele>
        <time>2016-02-24T13:12:12Z</time>
      </trkpt>
      <trkpt lat="43.41645" lon="6.05681">
        <ele>215.60000610352</ele>
        <time>2016-02-24T13:12:14Z</time>
      </trkpt>
      <trkpt lat="43.41644" lon="6.05676">
        <ele>215.60000610352</ele>
        <time>2016-02-24T13:12:15Z</time>
      </trkpt>
      <trkpt lat="43.41644" lon="6.05671">
        <ele>215.60000610352</ele>
        <time>2016-02-24T13:12:16Z</time>
      </trkpt>
      <trkpt lat="43.41642" lon="6.05661">
        <ele>215.39999389648</ele>
        <time>2016-02-24T13:12:18Z</time>
      </trkpt>
      <trkpt lat="43.41641" lon="6.05649">
        <ele>215.19999694824</ele>
        <time>2016-02-24T13:12:20Z</time>
      </trkpt>
      <trkpt lat="43.4164" lon="6.05636">
        <ele>215</ele>
        <time>2016-02-24T13:12:22Z</time>
      </trkpt>
      <trkpt lat="43.41638" lon="6.05624">
        <ele>215.19999694824</ele>
        <time>2016-02-24T13:12:24Z</time>
      </trkpt>
      <trkpt lat="43.41637" lon="6.05611">
        <ele>215.19999694824</ele>
        <time>2016-02-24T13:12:26Z</time>
      </trkpt>
      <trkpt lat="43.41635" lon="6.05598">
        <ele>214.80000305176</ele>
        <time>2016-02-24T13:12:28Z</time>
      </trkpt>
      <trkpt lat="43.41633" lon="6.05586">
        <ele>214.39999389648</ele>
        <time>2016-02-24T13:12:30Z</time>
      </trkpt>
      <trkpt lat="43.4163" lon="6.05573">
        <ele>214.39999389648</ele>
        <time>2016-02-24T13:12:32Z</time>
      </trkpt>
      <trkpt lat="43.41628" lon="6.0556">
        <ele>214.80000305176</ele>
        <time>2016-02-24T13:12:34Z</time>
      </trkpt>
      <trkpt lat="43.41625" lon="6.05548">
        <ele>214.80000305176</ele>
        <time>2016-02-24T13:12:36Z</time>
      </trkpt>
      <trkpt lat="43.41622" lon="6.05535">
        <ele>214.39999389648</ele>
        <time>2016-02-24T13:12:38Z</time>
      </trkpt>
      <trkpt lat="43.4162" lon="6.05529">
        <ele>214.19999694824</ele>
        <time>2016-02-24T13:12:39Z</time>
      </trkpt>
      <trkpt lat="43.41618" lon="6.05522">
        <ele>214.19999694824</ele>
        <time>2016-02-24T13:12:40Z</time>
      </trkpt>
      <trkpt lat="43.41615" lon="6.05509">
        <ele>214.19999694824</ele>
        <time>2016-02-24T13:12:42Z</time>
      </trkpt>
      <trkpt lat="43.41611" lon="6.05496">
        <ele>214.19999694824</ele>
        <time>2016-02-24T13:12:44Z</time>
      </trkpt>
      <trkpt lat="43.41607" lon="6.05483">
        <ele>214.19999694824</ele>
        <time>2016-02-24T13:12:46Z</time>
      </trkpt>
      <trkpt lat="43.41603" lon="6.0547">
        <ele>214.39999389648</ele>
        <time>2016-02-24T13:12:48Z</time>
      </trkpt>
      <trkpt lat="43.41602" lon="6.05463">
        <ele>214.39999389648</ele>
        <time>2016-02-24T13:12:49Z</time>
      </trkpt>
      <trkpt lat="43.416" lon="6.05457">
        <ele>214.19999694824</ele>
        <time>2016-02-24T13:12:50Z</time>
      </trkpt>
      <trkpt lat="43.41595" lon="6.05443">
        <ele>214.19999694824</ele>
        <time>2016-02-24T13:12:52Z</time>
      </trkpt>
      <trkpt lat="43.41592" lon="6.05429">
        <ele>214.60000610352</ele>
        <time>2016-02-24T13:12:54Z</time>
      </trkpt>
      <trkpt lat="43.41587" lon="6.05416">
        <ele>214.60000610352</ele>
        <time>2016-02-24T13:12:56Z</time>
      </trkpt>
      <trkpt lat="43.41583" lon="6.05403">
        <ele>214</ele>
        <time>2016-02-24T13:12:58Z</time>
      </trkpt>
      <trkpt lat="43.41579" lon="6.05391">
        <ele>214.19999694824</ele>
        <time>2016-02-24T13:13:00Z</time>
      </trkpt>
      <trkpt lat="43.41574" lon="6.05379">
        <ele>213.60000610352</ele>
        <time>2016-02-24T13:13:02Z</time>
      </trkpt>
      <trkpt lat="43.41571" lon="6.05368">
        <ele>213.39999389648</ele>
        <time>2016-02-24T13:13:04Z</time>
      </trkpt>
      <trkpt lat="43.41568" lon="6.05362">
        <ele>213.19999694824</ele>
        <time>2016-02-24T13:13:05Z</time>
      </trkpt>
      <trkpt lat="43.41566" lon="6.05357">
        <ele>213.19999694824</ele>
        <time>2016-02-24T13:13:06Z</time>
      </trkpt>
      <trkpt lat="43.41561" lon="6.05345">
        <ele>213</ele>
        <time>2016-02-24T13:13:08Z</time>
      </trkpt>
      <trkpt lat="43.41556" lon="6.05333">
        <ele>213</ele>
        <time>2016-02-24T13:13:10Z</time>
      </trkpt>
      <trkpt lat="43.41552" lon="6.0532">
        <ele>213.19999694824</ele>
        <time>2016-02-24T13:13:12Z</time>
      </trkpt>
      <trkpt lat="43.41549" lon="6.05306">
        <ele>213.19999694824</ele>
        <time>2016-02-24T13:13:14Z</time>
      </trkpt>
      <trkpt lat="43.41545" lon="6.05293">
        <ele>212.60000610352</ele>
        <time>2016-02-24T13:13:16Z</time>
      </trkpt>
      <trkpt lat="43.41541" lon="6.05279">
        <ele>212</ele>
        <time>2016-02-24T13:13:18Z</time>
      </trkpt>
      <trkpt lat="43.41537" lon="6.05266">
        <ele>212</ele>
        <time>2016-02-24T13:13:20Z</time>
      </trkpt>
      <trkpt lat="43.41532" lon="6.05254">
        <ele>211.60000610352</ele>
        <time>2016-02-24T13:13:22Z</time>
      </trkpt>
      <trkpt lat="43.41526" lon="6.05242">
        <ele>211.60000610352</ele>
        <time>2016-02-24T13:13:24Z</time>
      </trkpt>
      <trkpt lat="43.41524" lon="6.05236">
        <ele>211.19999694824</ele>
        <time>2016-02-24T13:13:25Z</time>
      </trkpt>
      <trkpt lat="43.41521" lon="6.05232">
        <ele>210.39999389648</ele>
        <time>2016-02-24T13:13:26Z</time>
      </trkpt>
      <trkpt lat="43.4152" lon="6.05227">
        <ele>210.19999694824</ele>
        <time>2016-02-24T13:13:27Z</time>
      </trkpt>
      <trkpt lat="43.41518" lon="6.05221">
        <ele>210.39999389648</ele>
        <time>2016-02-24T13:13:28Z</time>
      </trkpt>
      <trkpt lat="43.41512" lon="6.05211">
        <ele>210.60000610352</ele>
        <time>2016-02-24T13:13:30Z</time>
      </trkpt>
      <trkpt lat="43.41507" lon="6.052">
        <ele>210</ele>
        <time>2016-02-24T13:13:32Z</time>
      </trkpt>
      <trkpt lat="43.41505" lon="6.05194">
        <ele>209.80000305176</ele>
        <time>2016-02-24T13:13:33Z</time>
      </trkpt>
      <trkpt lat="43.41502" lon="6.05188">
        <ele>210</ele>
        <time>2016-02-24T13:13:34Z</time>
      </trkpt>
      <trkpt lat="43.41497" lon="6.05176">
        <ele>210.19999694824</ele>
        <time>2016-02-24T13:13:36Z</time>
      </trkpt>
      <trkpt lat="43.41496" lon="6.05169">
        <ele>210</ele>
        <time>2016-02-24T13:13:37Z</time>
      </trkpt>
      <trkpt lat="43.41497" lon="6.05164">
        <ele>210</ele>
        <time>2016-02-24T13:13:38Z</time>
      </trkpt>
      <trkpt lat="43.41499" lon="6.0516">
        <ele>210</ele>
        <time>2016-02-24T13:13:39Z</time>
      </trkpt>
      <trkpt lat="43.41501" lon="6.05158">
        <ele>210</ele>
        <time>2016-02-24T13:13:40Z</time>
      </trkpt>
      <trkpt lat="43.41505" lon="6.05156">
        <ele>210</ele>
        <time>2016-02-24T13:13:42Z</time>
      </trkpt>
      <trkpt lat="43.41505" lon="6.05157">
        <ele>210</ele>
        <time>2016-02-24T13:13:44Z</time>
      </trkpt>
      <trkpt lat="43.41505" lon="6.05157">
        <ele>210</ele>
        <time>2016-02-24T13:13:46Z</time>
      </trkpt>
      <trkpt lat="43.41505" lon="6.05157">
        <ele>210</ele>
        <time>2016-02-24T13:13:48Z</time>
      </trkpt>
      <trkpt lat="43.41505" lon="6.05157">
        <ele>210</ele>
        <time>2016-02-24T13:13:50Z</time>
      </trkpt>
      <trkpt lat="43.41505" lon="6.05157">
        <ele>209.80000305176</ele>
        <time>2016-02-24T13:13:52Z</time>
      </trkpt>
      <trkpt lat="43.41505" lon="6.05157">
        <ele>210</ele>
        <time>2016-02-24T13:13:54Z</time>
      </trkpt>
      <trkpt lat="43.41505" lon="6.05157">
        <ele>209.80000305176</ele>
        <time>2016-02-24T13:13:56Z</time>
      </trkpt>
      <trkpt lat="43.41505" lon="6.05157">
        <ele>209.80000305176</ele>
        <time>2016-02-24T13:13:58Z</time>
      </trkpt>
      <trkpt lat="43.41505" lon="6.05157">
        <ele>209.80000305176</ele>
        <time>2016-02-24T13:14:00Z</time>
      </trkpt>
      <trkpt lat="43.41505" lon="6.05157">
        <ele>209.80000305176</ele>
        <time>2016-02-24T13:14:02Z</time>
      </trkpt>
      <trkpt lat="43.41505" lon="6.05157">
        <ele>209.80000305176</ele>
        <time>2016-02-24T13:14:04Z</time>
      </trkpt>
      <trkpt lat="43.41505" lon="6.05157">
        <ele>209.80000305176</ele>
        <time>2016-02-24T13:14:06Z</time>
      </trkpt>
      <trkpt lat="43.41505" lon="6.05157">
        <ele>209.80000305176</ele>
        <time>2016-02-24T13:14:08Z</time>
      </trkpt>
      <trkpt lat="43.41505" lon="6.05157">
        <ele>209.80000305176</ele>
        <time>2016-02-24T13:14:10Z</time>
      </trkpt>
      <trkpt lat="43.41505" lon="6.05157">
        <ele>209.80000305176</ele>
        <time>2016-02-24T13:14:12Z</time>
      </trkpt>
      <trkpt lat="43.41505" lon="6.05157">
        <ele>209.60000610352</ele>
        <time>2016-02-24T13:14:14Z</time>
      </trkpt>
      <trkpt lat="43.41505" lon="6.05157">
        <ele>209.80000305176</ele>
        <time>2016-02-24T13:14:16Z</time>
      </trkpt>
      <trkpt lat="43.41505" lon="6.05157">
        <ele>209.80000305176</ele>
        <time>2016-02-24T13:14:18Z</time>
      </trkpt>
      <trkpt lat="43.41505" lon="6.05157">
        <ele>209.80000305176</ele>
        <time>2016-02-24T13:14:20Z</time>
      </trkpt>
      <trkpt lat="43.41505" lon="6.05157">
        <ele>210</ele>
        <time>2016-02-24T13:14:22Z</time>
      </trkpt>
      <trkpt lat="43.41505" lon="6.05157">
        <ele>210</ele>
        <time>2016-02-24T13:14:24Z</time>
      </trkpt>
      <trkpt lat="43.41505" lon="6.05157">
        <ele>209.80000305176</ele>
        <time>2016-02-24T13:14:26Z</time>
      </trkpt>
      <trkpt lat="43.41505" lon="6.05157">
        <ele>209.80000305176</ele>
        <time>2016-02-24T13:14:28Z</time>
      </trkpt>
      <trkpt lat="43.41505" lon="6.05157">
        <ele>209.80000305176</ele>
        <time>2016-02-24T13:14:30Z</time>
      </trkpt>
      <trkpt lat="43.41505" lon="6.05157">
        <ele>209.80000305176</ele>
        <time>2016-02-24T13:14:32Z</time>
      </trkpt>
      <trkpt lat="43.41505" lon="6.05157">
        <ele>209.80000305176</ele>
        <time>2016-02-24T13:14:34Z</time>
      </trkpt>
      <trkpt lat="43.41505" lon="6.05157">
        <ele>209.39999389648</ele>
        <time>2016-02-24T13:14:36Z</time>
      </trkpt>
      <trkpt lat="43.41505" lon="6.05157">
        <ele>209.39999389648</ele>
        <time>2016-02-24T13:14:38Z</time>
      </trkpt>
      <trkpt lat="43.41505" lon="6.05157">
        <ele>209.60000610352</ele>
        <time>2016-02-24T13:14:40Z</time>
      </trkpt>
      <trkpt lat="43.41505" lon="6.05157">
        <ele>209.80000305176</ele>
        <time>2016-02-24T13:14:42Z</time>
      </trkpt>
      <trkpt lat="43.41505" lon="6.05157">
        <ele>209.60000610352</ele>
        <time>2016-02-24T13:14:44Z</time>
      </trkpt>
      <trkpt lat="43.41505" lon="6.05157">
        <ele>209.80000305176</ele>
        <time>2016-02-24T13:14:46Z</time>
      </trkpt>
      <trkpt lat="43.41505" lon="6.05157">
        <ele>209.80000305176</ele>
        <time>2016-02-24T13:14:48Z</time>
      </trkpt>
      <trkpt lat="43.41507" lon="6.05156">
        <ele>210</ele>
        <time>2016-02-24T13:14:50Z</time>
      </trkpt>
      <trkpt lat="43.41511" lon="6.05157">
        <ele>210.19999694824</ele>
        <time>2016-02-24T13:14:52Z</time>
      </trkpt>
      <trkpt lat="43.41516" lon="6.05156">
        <ele>209.60000610352</ele>
        <time>2016-02-24T13:14:54Z</time>
      </trkpt>
      <trkpt lat="43.41522" lon="6.05156">
        <ele>210</ele>
        <time>2016-02-24T13:14:56Z</time>
      </trkpt>
      <trkpt lat="43.41528" lon="6.05155">
        <ele>210</ele>
        <time>2016-02-24T13:14:58Z</time>
      </trkpt>
      <trkpt lat="43.41533" lon="6.05154">
        <ele>210.39999389648</ele>
        <time>2016-02-24T13:15:00Z</time>
      </trkpt>
      <trkpt lat="43.41536" lon="6.05154">
        <ele>210.80000305176</ele>
        <time>2016-02-24T13:15:02Z</time>
      </trkpt>
      <trkpt lat="43.41538" lon="6.05155">
        <ele>210.80000305176</ele>
        <time>2016-02-24T13:15:04Z</time>
      </trkpt>
      <trkpt lat="43.41539" lon="6.05154">
        <ele>211</ele>
        <time>2016-02-24T13:15:06Z</time>
      </trkpt>
      <trkpt lat="43.41541" lon="6.05153">
        <ele>211</ele>
        <time>2016-02-24T13:15:08Z</time>
      </trkpt>
      <trkpt lat="43.41543" lon="6.05154">
        <ele>211.19999694824</ele>
        <time>2016-02-24T13:15:09Z</time>
      </trkpt>
      <trkpt lat="43.41544" lon="6.05154">
        <ele>211.39999389648</ele>
        <time>2016-02-24T13:15:10Z</time>
      </trkpt>
      <trkpt lat="43.41546" lon="6.05154">
        <ele>211.39999389648</ele>
        <time>2016-02-24T13:15:11Z</time>
      </trkpt>
      <trkpt lat="43.41548" lon="6.05155">
        <ele>211.39999389648</ele>
        <time>2016-02-24T13:15:12Z</time>
      </trkpt>
      <trkpt lat="43.4155" lon="6.05155">
        <ele>211.60000610352</ele>
        <time>2016-02-24T13:15:13Z</time>
      </trkpt>
      <trkpt lat="43.41551" lon="6.05155">
        <ele>211.60000610352</ele>
        <time>2016-02-24T13:15:14Z</time>
      </trkpt>
      <trkpt lat="43.41555" lon="6.05155">
        <ele>211.80000305176</ele>
        <time>2016-02-24T13:15:16Z</time>
      </trkpt>
      <trkpt lat="43.41556" lon="6.05155">
        <ele>212</ele>
        <time>2016-02-24T13:15:17Z</time>
      </trkpt>
      <trkpt lat="43.41558" lon="6.05155">
        <ele>212.19999694824</ele>
        <time>2016-02-24T13:15:18Z</time>
      </trkpt>
      <trkpt lat="43.41562" lon="6.05155">
        <ele>212.60000610352</ele>
        <time>2016-02-24T13:15:20Z</time>
      </trkpt>
      <trkpt lat="43.41565" lon="6.05156">
        <ele>212.80000305176</ele>
        <time>2016-02-24T13:15:22Z</time>
      </trkpt>
      <trkpt lat="43.41569" lon="6.05157">
        <ele>213</ele>
        <time>2016-02-24T13:15:24Z</time>
      </trkpt>
      <trkpt lat="43.41573" lon="6.05157">
        <ele>213.39999389648</ele>
        <time>2016-02-24T13:15:26Z</time>
      </trkpt>
      <trkpt lat="43.41576" lon="6.05158">
        <ele>213.60000610352</ele>
        <time>2016-02-24T13:15:27Z</time>
      </trkpt>
      <trkpt lat="43.41578" lon="6.05158">
        <ele>213.80000305176</ele>
        <time>2016-02-24T13:15:28Z</time>
      </trkpt>
      <trkpt lat="43.41582" lon="6.05159">
        <ele>214.19999694824</ele>
        <time>2016-02-24T13:15:30Z</time>
      </trkpt>
      <trkpt lat="43.41587" lon="6.0516">
        <ele>214.39999389648</ele>
        <time>2016-02-24T13:15:32Z</time>
      </trkpt>
      <trkpt lat="43.4159" lon="6.0516">
        <ele>214.39999389648</ele>
        <time>2016-02-24T13:15:33Z</time>
      </trkpt>
      <trkpt lat="43.41592" lon="6.0516">
        <ele>214.60000610352</ele>
        <time>2016-02-24T13:15:34Z</time>
      </trkpt>
      <trkpt lat="43.41597" lon="6.05162">
        <ele>215.19999694824</ele>
        <time>2016-02-24T13:15:36Z</time>
      </trkpt>
      <trkpt lat="43.41602" lon="6.05162">
        <ele>215.39999389648</ele>
        <time>2016-02-24T13:15:38Z</time>
      </trkpt>
      <trkpt lat="43.41607" lon="6.05163">
        <ele>215.60000610352</ele>
        <time>2016-02-24T13:15:40Z</time>
      </trkpt>
      <trkpt lat="43.41612" lon="6.05163">
        <ele>215.80000305176</ele>
        <time>2016-02-24T13:15:42Z</time>
      </trkpt>
      <trkpt lat="43.41617" lon="6.05164">
        <ele>216.19999694824</ele>
        <time>2016-02-24T13:15:44Z</time>
      </trkpt>
      <trkpt lat="43.41622" lon="6.05165">
        <ele>216.39999389648</ele>
        <time>2016-02-24T13:15:46Z</time>
      </trkpt>
      <trkpt lat="43.41627" lon="6.05165">
        <ele>216.60000610352</ele>
        <time>2016-02-24T13:15:48Z</time>
      </trkpt>
      <trkpt lat="43.41629" lon="6.05165">
        <ele>216.80000305176</ele>
        <time>2016-02-24T13:15:49Z</time>
      </trkpt>
      <trkpt lat="43.41632" lon="6.05166">
        <ele>216.80000305176</ele>
        <time>2016-02-24T13:15:50Z</time>
      </trkpt>
      <trkpt lat="43.41637" lon="6.05166">
        <ele>217.39999389648</ele>
        <time>2016-02-24T13:15:52Z</time>
      </trkpt>
      <trkpt lat="43.41642" lon="6.05167">
        <ele>217.80000305176</ele>
        <time>2016-02-24T13:15:54Z</time>
      </trkpt>
      <trkpt lat="43.41647" lon="6.05168">
        <ele>218.39999389648</ele>
        <time>2016-02-24T13:15:56Z</time>
      </trkpt>
      <trkpt lat="43.4165" lon="6.05168">
        <ele>218.39999389648</ele>
        <time>2016-02-24T13:15:57Z</time>
      </trkpt>
      <trkpt lat="43.41652" lon="6.05168">
        <ele>218.60000610352</ele>
        <time>2016-02-24T13:15:58Z</time>
      </trkpt>
      <trkpt lat="43.41657" lon="6.05168">
        <ele>219.19999694824</ele>
        <time>2016-02-24T13:16:00Z</time>
      </trkpt>
      <trkpt lat="43.41662" lon="6.05167">
        <ele>219.80000305176</ele>
        <time>2016-02-24T13:16:02Z</time>
      </trkpt>
      <trkpt lat="43.41667" lon="6.05165">
        <ele>220</ele>
        <time>2016-02-24T13:16:04Z</time>
      </trkpt>
      <trkpt lat="43.41671" lon="6.05162">
        <ele>220.19999694824</ele>
        <time>2016-02-24T13:16:06Z</time>
      </trkpt>
      <trkpt lat="43.41675" lon="6.05158">
        <ele>220</ele>
        <time>2016-02-24T13:16:08Z</time>
      </trkpt>
      <trkpt lat="43.41678" lon="6.05152">
        <ele>220.19999694824</ele>
        <time>2016-02-24T13:16:10Z</time>
      </trkpt>
      <trkpt lat="43.41682" lon="6.05147">
        <ele>220.80000305176</ele>
        <time>2016-02-24T13:16:12Z</time>
      </trkpt>
      <trkpt lat="43.41684" lon="6.05145">
        <ele>221</ele>
        <time>2016-02-24T13:16:13Z</time>
      </trkpt>
      <trkpt lat="43.41685" lon="6.05143">
        <ele>221</ele>
        <time>2016-02-24T13:16:14Z</time>
      </trkpt>
      <trkpt lat="43.41689" lon="6.05139">
        <ele>221.19999694824</ele>
        <time>2016-02-24T13:16:16Z</time>
      </trkpt>
      <trkpt lat="43.41693" lon="6.05134">
        <ele>221.60000610352</ele>
        <time>2016-02-24T13:16:18Z</time>
      </trkpt>
      <trkpt lat="43.41695" lon="6.05132">
        <ele>221.80000305176</ele>
        <time>2016-02-24T13:16:19Z</time>
      </trkpt>
      <trkpt lat="43.41697" lon="6.05131">
        <ele>221.80000305176</ele>
        <time>2016-02-24T13:16:20Z</time>
      </trkpt>
      <trkpt lat="43.41698" lon="6.05129">
        <ele>222</ele>
        <time>2016-02-24T13:16:21Z</time>
      </trkpt>
      <trkpt lat="43.41701" lon="6.05127">
        <ele>222</ele>
        <time>2016-02-24T13:16:22Z</time>
      </trkpt>
      <trkpt lat="43.41705" lon="6.05124">
        <ele>222.19999694824</ele>
        <time>2016-02-24T13:16:24Z</time>
      </trkpt>
      <trkpt lat="43.41709" lon="6.05121">
        <ele>222.39999389648</ele>
        <time>2016-02-24T13:16:26Z</time>
      </trkpt>
      <trkpt lat="43.41713" lon="6.05119">
        <ele>222.60000610352</ele>
        <time>2016-02-24T13:16:28Z</time>
      </trkpt>
      <trkpt lat="43.41715" lon="6.05117">
        <ele>222.60000610352</ele>
        <time>2016-02-24T13:16:29Z</time>
      </trkpt>
      <trkpt lat="43.41717" lon="6.05115">
        <ele>222.80000305176</ele>
        <time>2016-02-24T13:16:30Z</time>
      </trkpt>
      <trkpt lat="43.41721" lon="6.05112">
        <ele>222.80000305176</ele>
        <time>2016-02-24T13:16:32Z</time>
      </trkpt>
      <trkpt lat="43.41725" lon="6.0511">
        <ele>223.39999389648</ele>
        <time>2016-02-24T13:16:34Z</time>
      </trkpt>
      <trkpt lat="43.41727" lon="6.05109">
        <ele>223.80000305176</ele>
        <time>2016-02-24T13:16:35Z</time>
      </trkpt>
      <trkpt lat="43.41729" lon="6.05109">
        <ele>224</ele>
        <time>2016-02-24T13:16:36Z</time>
      </trkpt>
      <trkpt lat="43.41731" lon="6.05108">
        <ele>224.39999389648</ele>
        <time>2016-02-24T13:16:37Z</time>
      </trkpt>
      <trkpt lat="43.41734" lon="6.0511">
        <ele>224.60000610352</ele>
        <time>2016-02-24T13:16:38Z</time>
      </trkpt>
      <trkpt lat="43.41735" lon="6.05112">
        <ele>225.19999694824</ele>
        <time>2016-02-24T13:16:39Z</time>
      </trkpt>
      <trkpt lat="43.41736" lon="6.05115">
        <ele>225.19999694824</ele>
        <time>2016-02-24T13:16:40Z</time>
      </trkpt>
      <trkpt lat="43.41736" lon="6.05118">
        <ele>225.39999389648</ele>
        <time>2016-02-24T13:16:41Z</time>
      </trkpt>
      <trkpt lat="43.41736" lon="6.05121">
        <ele>225.39999389648</ele>
        <time>2016-02-24T13:16:42Z</time>
      </trkpt>
      <trkpt lat="43.41736" lon="6.05128">
        <ele>225.60000610352</ele>
        <time>2016-02-24T13:16:44Z</time>
      </trkpt>
      <trkpt lat="43.41736" lon="6.05131">
        <ele>225.60000610352</ele>
        <time>2016-02-24T13:16:45Z</time>
      </trkpt>
      <trkpt lat="43.41736" lon="6.05135">
        <ele>225.60000610352</ele>
        <time>2016-02-24T13:16:46Z</time>
      </trkpt>
      <trkpt lat="43.41737" lon="6.05143">
        <ele>225.39999389648</ele>
        <time>2016-02-24T13:16:48Z</time>
      </trkpt>
      <trkpt lat="43.41736" lon="6.0515">
        <ele>225.39999389648</ele>
        <time>2016-02-24T13:16:50Z</time>
      </trkpt>
      <trkpt lat="43.41736" lon="6.05158">
        <ele>225.19999694824</ele>
        <time>2016-02-24T13:16:52Z</time>
      </trkpt>
      <trkpt lat="43.41736" lon="6.05161">
        <ele>225.39999389648</ele>
        <time>2016-02-24T13:16:53Z</time>
      </trkpt>
      <trkpt lat="43.41737" lon="6.05165">
        <ele>225.39999389648</ele>
        <time>2016-02-24T13:16:54Z</time>
      </trkpt>
      <trkpt lat="43.41739" lon="6.05172">
        <ele>225.39999389648</ele>
        <time>2016-02-24T13:16:56Z</time>
      </trkpt>
      <trkpt lat="43.41743" lon="6.05176">
        <ele>225.80000305176</ele>
        <time>2016-02-24T13:16:58Z</time>
      </trkpt>
      <trkpt lat="43.41748" lon="6.05179">
        <ele>226.39999389648</ele>
        <time>2016-02-24T13:17:00Z</time>
      </trkpt>
      <trkpt lat="43.41753" lon="6.05181">
        <ele>226.19999694824</ele>
        <time>2016-02-24T13:17:02Z</time>
      </trkpt>
      <trkpt lat="43.41758" lon="6.05181">
        <ele>226.39999389648</ele>
        <time>2016-02-24T13:17:04Z</time>
      </trkpt>
      <trkpt lat="43.41763" lon="6.05181">
        <ele>226.60000610352</ele>
        <time>2016-02-24T13:17:06Z</time>
      </trkpt>
      <trkpt lat="43.41768" lon="6.05182">
        <ele>227.19999694824</ele>
        <time>2016-02-24T13:17:08Z</time>
      </trkpt>
      <trkpt lat="43.41773" lon="6.05183">
        <ele>226.80000305176</ele>
        <time>2016-02-24T13:17:10Z</time>
      </trkpt>
      <trkpt lat="43.41777" lon="6.05183">
        <ele>227.39999389648</ele>
        <time>2016-02-24T13:17:12Z</time>
      </trkpt>
      <trkpt lat="43.4178" lon="6.05183">
        <ele>227.80000305176</ele>
        <time>2016-02-24T13:17:13Z</time>
      </trkpt>
      <trkpt lat="43.41782" lon="6.05183">
        <ele>228.19999694824</ele>
        <time>2016-02-24T13:17:14Z</time>
      </trkpt>
      <trkpt lat="43.41787" lon="6.05184">
        <ele>228</ele>
        <time>2016-02-24T13:17:16Z</time>
      </trkpt>
      <trkpt lat="43.41792" lon="6.05184">
        <ele>228</ele>
        <time>2016-02-24T13:17:18Z</time>
      </trkpt>
      <trkpt lat="43.41797" lon="6.05184">
        <ele>228.60000610352</ele>
        <time>2016-02-24T13:17:20Z</time>
      </trkpt>
      <trkpt lat="43.41801" lon="6.05184">
        <ele>228.80000305176</ele>
        <time>2016-02-24T13:17:22Z</time>
      </trkpt>
      <trkpt lat="43.41804" lon="6.05184">
        <ele>229</ele>
        <time>2016-02-24T13:17:23Z</time>
      </trkpt>
      <trkpt lat="43.41806" lon="6.05184">
        <ele>229</ele>
        <time>2016-02-24T13:17:24Z</time>
      </trkpt>
      <trkpt lat="43.4181" lon="6.05182">
        <ele>229.39999389648</ele>
        <time>2016-02-24T13:17:26Z</time>
      </trkpt>
      <trkpt lat="43.41815" lon="6.05183">
        <ele>229.80000305176</ele>
        <time>2016-02-24T13:17:28Z</time>
      </trkpt>
      <trkpt lat="43.41819" lon="6.05184">
        <ele>230</ele>
        <time>2016-02-24T13:17:30Z</time>
      </trkpt>
      <trkpt lat="43.41822" lon="6.05185">
        <ele>230.39999389648</ele>
        <time>2016-02-24T13:17:31Z</time>
      </trkpt>
      <trkpt lat="43.41824" lon="6.05185">
        <ele>230.39999389648</ele>
        <time>2016-02-24T13:17:32Z</time>
      </trkpt>
      <trkpt lat="43.41829" lon="6.05185">
        <ele>230.80000305176</ele>
        <time>2016-02-24T13:17:34Z</time>
      </trkpt>
      <trkpt lat="43.41833" lon="6.05185">
        <ele>231</ele>
        <time>2016-02-24T13:17:36Z</time>
      </trkpt>
      <trkpt lat="43.41838" lon="6.05184">
        <ele>231.39999389648</ele>
        <time>2016-02-24T13:17:38Z</time>
      </trkpt>
      <trkpt lat="43.41843" lon="6.05185">
        <ele>232</ele>
        <time>2016-02-24T13:17:40Z</time>
      </trkpt>
      <trkpt lat="43.41847" lon="6.05184">
        <ele>231.80000305176</ele>
        <time>2016-02-24T13:17:42Z</time>
      </trkpt>
      <trkpt lat="43.41852" lon="6.05184">
        <ele>232</ele>
        <time>2016-02-24T13:17:44Z</time>
      </trkpt>
      <trkpt lat="43.41856" lon="6.05183">
        <ele>232.19999694824</ele>
        <time>2016-02-24T13:17:46Z</time>
      </trkpt>
      <trkpt lat="43.41859" lon="6.05182">
        <ele>232.39999389648</ele>
        <time>2016-02-24T13:17:47Z</time>
      </trkpt>
      <trkpt lat="43.41861" lon="6.05182">
        <ele>232.39999389648</ele>
        <time>2016-02-24T13:17:48Z</time>
      </trkpt>
      <trkpt lat="43.41866" lon="6.05181">
        <ele>232.60000610352</ele>
        <time>2016-02-24T13:17:50Z</time>
      </trkpt>
      <trkpt lat="43.4187" lon="6.0518">
        <ele>233.19999694824</ele>
        <time>2016-02-24T13:17:52Z</time>
      </trkpt>
      <trkpt lat="43.41872" lon="6.05179">
        <ele>233.19999694824</ele>
        <time>2016-02-24T13:17:53Z</time>
      </trkpt>
      <trkpt lat="43.41874" lon="6.05178">
        <ele>233.39999389648</ele>
        <time>2016-02-24T13:17:54Z</time>
      </trkpt>
      <trkpt lat="43.41878" lon="6.05177">
        <ele>233.60000610352</ele>
        <time>2016-02-24T13:17:56Z</time>
      </trkpt>
      <trkpt lat="43.41881" lon="6.05176">
        <ele>233.80000305176</ele>
        <time>2016-02-24T13:17:58Z</time>
      </trkpt>
      <trkpt lat="43.41883" lon="6.05174">
        <ele>233.80000305176</ele>
        <time>2016-02-24T13:18:00Z</time>
      </trkpt>
      <trkpt lat="43.41885" lon="6.05175">
        <ele>234.19999694824</ele>
        <time>2016-02-24T13:18:02Z</time>
      </trkpt>
      <trkpt lat="43.41885" lon="6.05175">
        <ele>234.39999389648</ele>
        <time>2016-02-24T13:18:03Z</time>
      </trkpt>
      <trkpt lat="43.41887" lon="6.05177">
        <ele>234.39999389648</ele>
        <time>2016-02-24T13:18:04Z</time>
      </trkpt>
      <trkpt lat="43.41888" lon="6.0518">
        <ele>234.80000305176</ele>
        <time>2016-02-24T13:18:06Z</time>
      </trkpt>
      <trkpt lat="43.41889" lon="6.05181">
        <ele>234.80000305176</ele>
        <time>2016-02-24T13:18:08Z</time>
      </trkpt>
      <trkpt lat="43.41891" lon="6.05181">
        <ele>235</ele>
        <time>2016-02-24T13:18:10Z</time>
      </trkpt>
      <trkpt lat="43.41893" lon="6.05181">
        <ele>235.19999694824</ele>
        <time>2016-02-24T13:18:12Z</time>
      </trkpt>
      <trkpt lat="43.41893" lon="6.05177">
        <ele>235.39999389648</ele>
        <time>2016-02-24T13:18:14Z</time>
      </trkpt>
      <trkpt lat="43.41897" lon="6.05183">
        <ele>236</ele>
        <time>2016-02-24T13:18:16Z</time>
      </trkpt>
      <trkpt lat="43.41895" lon="6.05175">
        <ele>236.19999694824</ele>
        <time>2016-02-24T13:18:17Z</time>
      </trkpt>
      <trkpt lat="43.41896" lon="6.05179">
        <ele>236.39999389648</ele>
        <time>2016-02-24T13:18:18Z</time>
      </trkpt>
      <trkpt lat="43.41898" lon="6.05175">
        <ele>236.39999389648</ele>
        <time>2016-02-24T13:18:19Z</time>
      </trkpt>
      <trkpt lat="43.4192" lon="6.05155">
        <ele>236.60000610352</ele>
        <time>2016-02-24T13:18:22Z</time>
      </trkpt>
      <trkpt lat="43.41927" lon="6.0515">
        <ele>236.80000305176</ele>
        <time>2016-02-24T13:18:24Z</time>
      </trkpt>
      <trkpt lat="43.41931" lon="6.05149">
        <ele>237</ele>
        <time>2016-02-24T13:18:25Z</time>
      </trkpt>
      <trkpt lat="43.41935" lon="6.05147">
        <ele>237</ele>
        <time>2016-02-24T13:18:26Z</time>
      </trkpt>
      <trkpt lat="43.41941" lon="6.05143">
        <ele>237</ele>
        <time>2016-02-24T13:18:28Z</time>
      </trkpt>
      <trkpt lat="43.41946" lon="6.0514">
        <ele>237.39999389648</ele>
        <time>2016-02-24T13:18:30Z</time>
      </trkpt>
      <trkpt lat="43.41951" lon="6.05137">
        <ele>237.60000610352</ele>
        <time>2016-02-24T13:18:32Z</time>
      </trkpt>
      <trkpt lat="43.41956" lon="6.05134">
        <ele>237.80000305176</ele>
        <time>2016-02-24T13:18:34Z</time>
      </trkpt>
      <trkpt lat="43.41958" lon="6.05133">
        <ele>238</ele>
        <time>2016-02-24T13:18:35Z</time>
      </trkpt>
      <trkpt lat="43.4196" lon="6.05132">
        <ele>238</ele>
        <time>2016-02-24T13:18:36Z</time>
      </trkpt>
      <trkpt lat="43.41962" lon="6.05131">
        <ele>238.19999694824</ele>
        <time>2016-02-24T13:18:37Z</time>
      </trkpt>
      <trkpt lat="43.41964" lon="6.05129">
        <ele>238.39999389648</ele>
        <time>2016-02-24T13:18:38Z</time>
      </trkpt>
      <trkpt lat="43.41969" lon="6.05127">
        <ele>238.60000610352</ele>
        <time>2016-02-24T13:18:40Z</time>
      </trkpt>
      <trkpt lat="43.41973" lon="6.05126">
        <ele>239</ele>
        <time>2016-02-24T13:18:42Z</time>
      </trkpt>
      <trkpt lat="43.41979" lon="6.05126">
        <ele>239.39999389648</ele>
        <time>2016-02-24T13:18:44Z</time>
      </trkpt>
      <trkpt lat="43.41985" lon="6.05126">
        <ele>239.39999389648</ele>
        <time>2016-02-24T13:18:46Z</time>
      </trkpt>
      <trkpt lat="43.41987" lon="6.05125">
        <ele>239.39999389648</ele>
        <time>2016-02-24T13:18:47Z</time>
      </trkpt>
      <trkpt lat="43.4199" lon="6.05125">
        <ele>239.60000610352</ele>
        <time>2016-02-24T13:18:48Z</time>
      </trkpt>
      <trkpt lat="43.41994" lon="6.05125">
        <ele>239.80000305176</ele>
        <time>2016-02-24T13:18:50Z</time>
      </trkpt>
      <trkpt lat="43.41999" lon="6.05126">
        <ele>240</ele>
        <time>2016-02-24T13:18:52Z</time>
      </trkpt>
      <trkpt lat="43.42002" lon="6.05126">
        <ele>240</ele>
        <time>2016-02-24T13:18:53Z</time>
      </trkpt>
      <trkpt lat="43.42005" lon="6.05125">
        <ele>240.19999694824</ele>
        <time>2016-02-24T13:18:54Z</time>
      </trkpt>
      <trkpt lat="43.4201" lon="6.05124">
        <ele>240.19999694824</ele>
        <time>2016-02-24T13:18:56Z</time>
      </trkpt>
      <trkpt lat="43.42016" lon="6.05124">
        <ele>240.39999389648</ele>
        <time>2016-02-24T13:18:58Z</time>
      </trkpt>
      <trkpt lat="43.42023" lon="6.05123">
        <ele>240.80000305176</ele>
        <time>2016-02-24T13:19:00Z</time>
      </trkpt>
      <trkpt lat="43.42028" lon="6.05121">
        <ele>240.80000305176</ele>
        <time>2016-02-24T13:19:02Z</time>
      </trkpt>
      <trkpt lat="43.42033" lon="6.0512">
        <ele>240.80000305176</ele>
        <time>2016-02-24T13:19:04Z</time>
      </trkpt>
      <trkpt lat="43.42038" lon="6.05119">
        <ele>241</ele>
        <time>2016-02-24T13:19:06Z</time>
      </trkpt>
      <trkpt lat="43.42041" lon="6.05119">
        <ele>241.19999694824</ele>
        <time>2016-02-24T13:19:07Z</time>
      </trkpt>
      <trkpt lat="43.42044" lon="6.05119">
        <ele>241.19999694824</ele>
        <time>2016-02-24T13:19:08Z</time>
      </trkpt>
      <trkpt lat="43.42049" lon="6.05117">
        <ele>241.19999694824</ele>
        <time>2016-02-24T13:19:10Z</time>
      </trkpt>
      <trkpt lat="43.42053" lon="6.05116">
        <ele>241.60000610352</ele>
        <time>2016-02-24T13:19:12Z</time>
      </trkpt>
      <trkpt lat="43.42057" lon="6.05116">
        <ele>241.80000305176</ele>
        <time>2016-02-24T13:19:14Z</time>
      </trkpt>
      <trkpt lat="43.4206" lon="6.05115">
        <ele>241.80000305176</ele>
        <time>2016-02-24T13:19:15Z</time>
      </trkpt>
      <trkpt lat="43.42062" lon="6.05115">
        <ele>241.80000305176</ele>
        <time>2016-02-24T13:19:16Z</time>
      </trkpt>
      <trkpt lat="43.42067" lon="6.05115">
        <ele>242</ele>
        <time>2016-02-24T13:19:18Z</time>
      </trkpt>
      <trkpt lat="43.42069" lon="6.05115">
        <ele>242.19999694824</ele>
        <time>2016-02-24T13:19:19Z</time>
      </trkpt>
      <trkpt lat="43.42071" lon="6.05114">
        <ele>242.19999694824</ele>
        <time>2016-02-24T13:19:20Z</time>
      </trkpt>
      <trkpt lat="43.42076" lon="6.05114">
        <ele>242</ele>
        <time>2016-02-24T13:19:22Z</time>
      </trkpt>
      <trkpt lat="43.4208" lon="6.05115">
        <ele>242.60000610352</ele>
        <time>2016-02-24T13:19:24Z</time>
      </trkpt>
      <trkpt lat="43.42085" lon="6.05116">
        <ele>242.60000610352</ele>
        <time>2016-02-24T13:19:26Z</time>
      </trkpt>
      <trkpt lat="43.42089" lon="6.05116">
        <ele>242.80000305176</ele>
        <time>2016-02-24T13:19:28Z</time>
      </trkpt>
      <trkpt lat="43.42091" lon="6.05116">
        <ele>243</ele>
        <time>2016-02-24T13:19:29Z</time>
      </trkpt>
      <trkpt lat="43.42093" lon="6.05116">
        <ele>243.19999694824</ele>
        <time>2016-02-24T13:19:30Z</time>
      </trkpt>
      <trkpt lat="43.42095" lon="6.05116">
        <ele>243.19999694824</ele>
        <time>2016-02-24T13:19:31Z</time>
      </trkpt>
      <trkpt lat="43.42097" lon="6.05115">
        <ele>243.60000610352</ele>
        <time>2016-02-24T13:19:32Z</time>
      </trkpt>
      <trkpt lat="43.42102" lon="6.05116">
        <ele>244</ele>
        <time>2016-02-24T13:19:34Z</time>
      </trkpt>
      <trkpt lat="43.42107" lon="6.05116">
        <ele>244</ele>
        <time>2016-02-24T13:19:36Z</time>
      </trkpt>
      <trkpt lat="43.4211" lon="6.05115">
        <ele>244</ele>
        <time>2016-02-24T13:19:37Z</time>
      </trkpt>
      <trkpt lat="43.42112" lon="6.05116">
        <ele>244.19999694824</ele>
        <time>2016-02-24T13:19:38Z</time>
      </trkpt>
      <trkpt lat="43.42118" lon="6.05117">
        <ele>244.80000305176</ele>
        <time>2016-02-24T13:19:40Z</time>
      </trkpt>
      <trkpt lat="43.42122" lon="6.05118">
        <ele>245.39999389648</ele>
        <time>2016-02-24T13:19:42Z</time>
      </trkpt>
      <trkpt lat="43.42124" lon="6.0512">
        <ele>245.80000305176</ele>
        <time>2016-02-24T13:19:43Z</time>
      </trkpt>
      <trkpt lat="43.42125" lon="6.05121">
        <ele>246</ele>
        <time>2016-02-24T13:19:44Z</time>
      </trkpt>
      <trkpt lat="43.42128" lon="6.05124">
        <ele>246</ele>
        <time>2016-02-24T13:19:46Z</time>
      </trkpt>
      <trkpt lat="43.4213" lon="6.05125">
        <ele>246.19999694824</ele>
        <time>2016-02-24T13:19:48Z</time>
      </trkpt>
      <trkpt lat="43.4213" lon="6.05124">
        <ele>246.39999389648</ele>
        <time>2016-02-24T13:19:49Z</time>
      </trkpt>
      <trkpt lat="43.42131" lon="6.05124">
        <ele>246.39999389648</ele>
        <time>2016-02-24T13:19:50Z</time>
      </trkpt>
      <trkpt lat="43.42132" lon="6.05125">
        <ele>246.39999389648</ele>
        <time>2016-02-24T13:19:51Z</time>
      </trkpt>
      <trkpt lat="43.42132" lon="6.05125">
        <ele>246.39999389648</ele>
        <time>2016-02-24T13:19:52Z</time>
      </trkpt>
      <trkpt lat="43.42132" lon="6.05126">
        <ele>246.39999389648</ele>
        <time>2016-02-24T13:19:54Z</time>
      </trkpt>
      <trkpt lat="43.42132" lon="6.05126">
        <ele>246.19999694824</ele>
        <time>2016-02-24T13:19:55Z</time>
      </trkpt>
      <trkpt lat="43.42132" lon="6.05126">
        <ele>246.19999694824</ele>
        <time>2016-02-24T13:19:56Z</time>
      </trkpt>
      <trkpt lat="43.42132" lon="6.05126">
        <ele>246</ele>
        <time>2016-02-24T13:19:58Z</time>
      </trkpt>
      <trkpt lat="43.42132" lon="6.05126">
        <ele>246.19999694824</ele>
        <time>2016-02-24T13:20:00Z</time>
      </trkpt>
      <trkpt lat="43.42132" lon="6.05126">
        <ele>246</ele>
        <time>2016-02-24T13:20:02Z</time>
      </trkpt>
      <trkpt lat="43.42132" lon="6.05126">
        <ele>246.19999694824</ele>
        <time>2016-02-24T13:20:04Z</time>
      </trkpt>
      <trkpt lat="43.42132" lon="6.05126">
        <ele>246.39999389648</ele>
        <time>2016-02-24T13:20:06Z</time>
      </trkpt>
      <trkpt lat="43.42132" lon="6.05126">
        <ele>246.19999694824</ele>
        <time>2016-02-24T13:20:07Z</time>
      </trkpt>
      <trkpt lat="43.42132" lon="6.05126">
        <ele>246.19999694824</ele>
        <time>2016-02-24T13:20:08Z</time>
      </trkpt>
      <trkpt lat="43.42132" lon="6.05126">
        <ele>246.19999694824</ele>
        <time>2016-02-24T13:20:10Z</time>
      </trkpt>
      <trkpt lat="43.42132" lon="6.05126">
        <ele>246.39999389648</ele>
        <time>2016-02-24T13:20:12Z</time>
      </trkpt>
      <trkpt lat="43.42132" lon="6.05126">
        <ele>246.39999389648</ele>
        <time>2016-02-24T13:20:14Z</time>
      </trkpt>
      <trkpt lat="43.42132" lon="6.05126">
        <ele>246.60000610352</ele>
        <time>2016-02-24T13:20:16Z</time>
      </trkpt>
      <trkpt lat="43.42132" lon="6.05126">
        <ele>246.39999389648</ele>
        <time>2016-02-24T13:20:18Z</time>
      </trkpt>
      <trkpt lat="43.42132" lon="6.05126">
        <ele>246.39999389648</ele>
        <time>2016-02-24T13:20:20Z</time>
      </trkpt>
      <trkpt lat="43.42132" lon="6.05126">
        <ele>246.39999389648</ele>
        <time>2016-02-24T13:20:22Z</time>
      </trkpt>
      <trkpt lat="43.42132" lon="6.05126">
        <ele>246.39999389648</ele>
        <time>2016-02-24T13:20:24Z</time>
      </trkpt>
      <trkpt lat="43.42132" lon="6.05126">
        <ele>246.39999389648</ele>
        <time>2016-02-24T13:20:26Z</time>
      </trkpt>
      <trkpt lat="43.42132" lon="6.05126">
        <ele>246.60000610352</ele>
        <time>2016-02-24T13:20:28Z</time>
      </trkpt>
      <trkpt lat="43.42132" lon="6.05126">
        <ele>246.39999389648</ele>
        <time>2016-02-24T13:20:30Z</time>
      </trkpt>
      <trkpt lat="43.42132" lon="6.05126">
        <ele>246.39999389648</ele>
        <time>2016-02-24T13:20:32Z</time>
      </trkpt>
      <trkpt lat="43.42132" lon="6.05126">
        <ele>246.19999694824</ele>
        <time>2016-02-24T13:20:34Z</time>
      </trkpt>
      <trkpt lat="43.42132" lon="6.05126">
        <ele>246.19999694824</ele>
        <time>2016-02-24T13:20:36Z</time>
      </trkpt>
      <trkpt lat="43.42132" lon="6.05126">
        <ele>246.19999694824</ele>
        <time>2016-02-24T13:20:38Z</time>
      </trkpt>
      <trkpt lat="43.42132" lon="6.05126">
        <ele>246</ele>
        <time>2016-02-24T13:20:39Z</time>
      </trkpt>
      <trkpt lat="43.42132" lon="6.05126">
        <ele>246</ele>
        <time>2016-02-24T13:20:40Z</time>
      </trkpt>
      <trkpt lat="43.42132" lon="6.05126">
        <ele>246</ele>
        <time>2016-02-24T13:20:42Z</time>
      </trkpt>
      <trkpt lat="43.42132" lon="6.05126">
        <ele>246.19999694824</ele>
        <time>2016-02-24T13:20:44Z</time>
      </trkpt>
      <trkpt lat="43.42132" lon="6.05126">
        <ele>246</ele>
        <time>2016-02-24T13:20:46Z</time>
      </trkpt>
      <trkpt lat="43.42132" lon="6.05126">
        <ele>246.19999694824</ele>
        <time>2016-02-24T13:20:48Z</time>
      </trkpt>
      <trkpt lat="43.42132" lon="6.05126">
        <ele>246</ele>
        <time>2016-02-24T13:20:50Z</time>
      </trkpt>
      <trkpt lat="43.42132" lon="6.05126">
        <ele>246</ele>
        <time>2016-02-24T13:20:52Z</time>
      </trkpt>
      <trkpt lat="43.42132" lon="6.05126">
        <ele>246.19999694824</ele>
        <time>2016-02-24T13:20:54Z</time>
      </trkpt>
      <trkpt lat="43.42132" lon="6.05126">
        <ele>246.19999694824</ele>
        <time>2016-02-24T13:20:56Z</time>
      </trkpt>
      <trkpt lat="43.42132" lon="6.05126">
        <ele>246.19999694824</ele>
        <time>2016-02-24T13:20:58Z</time>
      </trkpt>
      <trkpt lat="43.42132" lon="6.05126">
        <ele>246.19999694824</ele>
        <time>2016-02-24T13:21:00Z</time>
      </trkpt>
      <trkpt lat="43.42132" lon="6.05126">
        <ele>246.19999694824</ele>
        <time>2016-02-24T13:21:02Z</time>
      </trkpt>
      <trkpt lat="43.42132" lon="6.05126">
        <ele>246.19999694824</ele>
        <time>2016-02-24T13:21:04Z</time>
      </trkpt>
      <trkpt lat="43.42132" lon="6.05126">
        <ele>246</ele>
        <time>2016-02-24T13:21:06Z</time>
      </trkpt>
      <trkpt lat="43.42132" lon="6.05126">
        <ele>246.19999694824</ele>
        <time>2016-02-24T13:21:08Z</time>
      </trkpt>
      <trkpt lat="43.42133" lon="6.05127">
        <ele>246.39999389648</ele>
        <time>2016-02-24T13:21:10Z</time>
      </trkpt>
      <trkpt lat="43.42133" lon="6.05127">
        <ele>246.19999694824</ele>
        <time>2016-02-24T13:21:12Z</time>
      </trkpt>
      <trkpt lat="43.42133" lon="6.05127">
        <ele>246</ele>
        <time>2016-02-24T13:21:14Z</time>
      </trkpt>
      <trkpt lat="43.42133" lon="6.05127">
        <ele>246.19999694824</ele>
        <time>2016-02-24T13:21:15Z</time>
      </trkpt>
      <trkpt lat="43.42133" lon="6.05127">
        <ele>246.19999694824</ele>
        <time>2016-02-24T13:21:16Z</time>
      </trkpt>
      <trkpt lat="43.42133" lon="6.05127">
        <ele>246.19999694824</ele>
        <time>2016-02-24T13:21:18Z</time>
      </trkpt>
      <trkpt lat="43.42133" lon="6.05127">
        <ele>246.19999694824</ele>
        <time>2016-02-24T13:21:20Z</time>
      </trkpt>
      <trkpt lat="43.42133" lon="6.05127">
        <ele>246.19999694824</ele>
        <time>2016-02-24T13:21:22Z</time>
      </trkpt>
      <trkpt lat="43.42133" lon="6.05127">
        <ele>246.39999389648</ele>
        <time>2016-02-24T13:21:24Z</time>
      </trkpt>
      <trkpt lat="43.42133" lon="6.05127">
        <ele>246.39999389648</ele>
        <time>2016-02-24T13:21:26Z</time>
      </trkpt>
      <trkpt lat="43.42133" lon="6.05127">
        <ele>246.19999694824</ele>
        <time>2016-02-24T13:21:28Z</time>
      </trkpt>
      <trkpt lat="43.42133" lon="6.05127">
        <ele>246.60000610352</ele>
        <time>2016-02-24T13:21:30Z</time>
      </trkpt>
      <trkpt lat="43.42133" lon="6.05127">
        <ele>246.19999694824</ele>
        <time>2016-02-24T13:21:32Z</time>
      </trkpt>
      <trkpt lat="43.42133" lon="6.05127">
        <ele>246.19999694824</ele>
        <time>2016-02-24T13:21:34Z</time>
      </trkpt>
      <trkpt lat="43.42133" lon="6.05127">
        <ele>246.19999694824</ele>
        <time>2016-02-24T13:21:36Z</time>
      </trkpt>
      <trkpt lat="43.42133" lon="6.05127">
        <ele>246.19999694824</ele>
        <time>2016-02-24T13:21:38Z</time>
      </trkpt>
      <trkpt lat="43.42133" lon="6.05127">
        <ele>246.19999694824</ele>
        <time>2016-02-24T13:21:42Z</time>
      </trkpt>
      <trkpt lat="43.42133" lon="6.05127">
        <ele>246</ele>
        <time>2016-02-24T13:21:44Z</time>
      </trkpt>
      <trkpt lat="43.42133" lon="6.05127">
        <ele>245.80000305176</ele>
        <time>2016-02-24T13:21:46Z</time>
      </trkpt>
      <trkpt lat="43.42133" lon="6.05127">
        <ele>245.80000305176</ele>
        <time>2016-02-24T13:21:48Z</time>
      </trkpt>
      <trkpt lat="43.42133" lon="6.05127">
        <ele>245.80000305176</ele>
        <time>2016-02-24T13:21:50Z</time>
      </trkpt>
      <trkpt lat="43.42133" lon="6.05127">
        <ele>245.80000305176</ele>
        <time>2016-02-24T13:21:52Z</time>
      </trkpt>
      <trkpt lat="43.42133" lon="6.05127">
        <ele>246</ele>
        <time>2016-02-24T13:21:54Z</time>
      </trkpt>
      <trkpt lat="43.42133" lon="6.05127">
        <ele>245.80000305176</ele>
        <time>2016-02-24T13:21:56Z</time>
      </trkpt>
      <trkpt lat="43.42133" lon="6.05127">
        <ele>245.80000305176</ele>
        <time>2016-02-24T13:21:58Z</time>
      </trkpt>
      <trkpt lat="43.42133" lon="6.05127">
        <ele>246</ele>
        <time>2016-02-24T13:22:00Z</time>
      </trkpt>
      <trkpt lat="43.42133" lon="6.05127">
        <ele>246</ele>
        <time>2016-02-24T13:22:02Z</time>
      </trkpt>
      <trkpt lat="43.42133" lon="6.05127">
        <ele>246.19999694824</ele>
        <time>2016-02-24T13:22:03Z</time>
      </trkpt>
      <trkpt lat="43.42133" lon="6.05127">
        <ele>246.19999694824</ele>
        <time>2016-02-24T13:22:04Z</time>
      </trkpt>
      <trkpt lat="43.42133" lon="6.05127">
        <ele>246.19999694824</ele>
        <time>2016-02-24T13:22:06Z</time>
      </trkpt>
      <trkpt lat="43.42133" lon="6.05127">
        <ele>246.19999694824</ele>
        <time>2016-02-24T13:22:08Z</time>
      </trkpt>
      <trkpt lat="43.42133" lon="6.05127">
        <ele>246.19999694824</ele>
        <time>2016-02-24T13:22:10Z</time>
      </trkpt>
      <trkpt lat="43.42133" lon="6.05127">
        <ele>246.39999389648</ele>
        <time>2016-02-24T13:22:12Z</time>
      </trkpt>
      <trkpt lat="43.42133" lon="6.05127">
        <ele>246.19999694824</ele>
        <time>2016-02-24T13:22:14Z</time>
      </trkpt>
      <trkpt lat="43.42133" lon="6.05127">
        <ele>246.19999694824</ele>
        <time>2016-02-24T13:22:16Z</time>
      </trkpt>
      <trkpt lat="43.42133" lon="6.05127">
        <ele>246.19999694824</ele>
        <time>2016-02-24T13:22:18Z</time>
      </trkpt>
      <trkpt lat="43.42133" lon="6.05127">
        <ele>246.60000610352</ele>
        <time>2016-02-24T13:22:20Z</time>
      </trkpt>
      <trkpt lat="43.42133" lon="6.05127">
        <ele>246.39999389648</ele>
        <time>2016-02-24T13:22:22Z</time>
      </trkpt>
      <trkpt lat="43.42133" lon="6.05127">
        <ele>246.39999389648</ele>
        <time>2016-02-24T13:22:24Z</time>
      </trkpt>
      <trkpt lat="43.42133" lon="6.05128">
        <ele>246.39999389648</ele>
        <time>2016-02-24T13:22:26Z</time>
      </trkpt>
      <trkpt lat="43.42133" lon="6.05128">
        <ele>246.19999694824</ele>
        <time>2016-02-24T13:22:28Z</time>
      </trkpt>
      <trkpt lat="43.42133" lon="6.05128">
        <ele>246.19999694824</ele>
        <time>2016-02-24T13:22:29Z</time>
      </trkpt>
      <trkpt lat="43.42133" lon="6.05128">
        <ele>246.19999694824</ele>
        <time>2016-02-24T13:22:30Z</time>
      </trkpt>
      <trkpt lat="43.42133" lon="6.05128">
        <ele>246.19999694824</ele>
        <time>2016-02-24T13:22:32Z</time>
      </trkpt>
      <trkpt lat="43.42133" lon="6.05128">
        <ele>246</ele>
        <time>2016-02-24T13:22:34Z</time>
      </trkpt>
      <trkpt lat="43.42133" lon="6.05128">
        <ele>246</ele>
        <time>2016-02-24T13:22:36Z</time>
      </trkpt>
      <trkpt lat="43.42133" lon="6.05128">
        <ele>246.19999694824</ele>
        <time>2016-02-24T13:22:38Z</time>
      </trkpt>
      <trkpt lat="43.42133" lon="6.05128">
        <ele>246.39999389648</ele>
        <time>2016-02-24T13:22:40Z</time>
      </trkpt>
      <trkpt lat="43.42133" lon="6.05128">
        <ele>246.19999694824</ele>
        <time>2016-02-24T13:22:42Z</time>
      </trkpt>
      <trkpt lat="43.42133" lon="6.05128">
        <ele>246.19999694824</ele>
        <time>2016-02-24T13:22:44Z</time>
      </trkpt>
      <trkpt lat="43.42133" lon="6.05128">
        <ele>246.19999694824</ele>
        <time>2016-02-24T13:22:46Z</time>
      </trkpt>
      <trkpt lat="43.42133" lon="6.05128">
        <ele>246.19999694824</ele>
        <time>2016-02-24T13:22:48Z</time>
      </trkpt>
      <trkpt lat="43.42133" lon="6.05128">
        <ele>246</ele>
        <time>2016-02-24T13:22:50Z</time>
      </trkpt>
      <trkpt lat="43.42133" lon="6.05128">
        <ele>246</ele>
        <time>2016-02-24T13:22:52Z</time>
      </trkpt>
      <trkpt lat="43.42133" lon="6.05128">
        <ele>246</ele>
        <time>2016-02-24T13:22:54Z</time>
      </trkpt>
      <trkpt lat="43.42133" lon="6.05128">
        <ele>246</ele>
        <time>2016-02-24T13:22:56Z</time>
      </trkpt>
      <trkpt lat="43.42133" lon="6.05128">
        <ele>245.80000305176</ele>
        <time>2016-02-24T13:22:58Z</time>
      </trkpt>
      <trkpt lat="43.42133" lon="6.05128">
        <ele>245.60000610352</ele>
        <time>2016-02-24T13:23:00Z</time>
      </trkpt>
      <trkpt lat="43.42133" lon="6.05128">
        <ele>245.60000610352</ele>
        <time>2016-02-24T13:23:02Z</time>
      </trkpt>
      <trkpt lat="43.42133" lon="6.05128">
        <ele>245.60000610352</ele>
        <time>2016-02-24T13:23:04Z</time>
      </trkpt>
      <trkpt lat="43.42133" lon="6.05128">
        <ele>245.60000610352</ele>
        <time>2016-02-24T13:23:06Z</time>
      </trkpt>
      <trkpt lat="43.42134" lon="6.0513">
        <ele>245.80000305176</ele>
        <time>2016-02-24T13:23:08Z</time>
      </trkpt>
      <trkpt lat="43.42134" lon="6.05132">
        <ele>246</ele>
        <time>2016-02-24T13:23:09Z</time>
      </trkpt>
      <trkpt lat="43.42135" lon="6.05133">
        <ele>246.19999694824</ele>
        <time>2016-02-24T13:23:10Z</time>
      </trkpt>
      <trkpt lat="43.42136" lon="6.05133">
        <ele>246</ele>
        <time>2016-02-24T13:23:12Z</time>
      </trkpt>
      <trkpt lat="43.42136" lon="6.05133">
        <ele>245.60000610352</ele>
        <time>2016-02-24T13:23:14Z</time>
      </trkpt>
      <trkpt lat="43.42136" lon="6.05134">
        <ele>246</ele>
        <time>2016-02-24T13:23:16Z</time>
      </trkpt>
      <trkpt lat="43.42136" lon="6.05134">
        <ele>246</ele>
        <time>2016-02-24T13:23:17Z</time>
      </trkpt>
      <trkpt lat="43.42136" lon="6.05134">
        <ele>246</ele>
        <time>2016-02-24T13:23:20Z</time>
      </trkpt>
      <trkpt lat="43.42136" lon="6.05134">
        <ele>246.19999694824</ele>
        <time>2016-02-24T13:23:22Z</time>
      </trkpt>
      <trkpt lat="43.42136" lon="6.05134">
        <ele>246.39999389648</ele>
        <time>2016-02-24T13:23:24Z</time>
      </trkpt>
      <trkpt lat="43.42136" lon="6.05134">
        <ele>246.60000610352</ele>
        <time>2016-02-24T13:23:25Z</time>
      </trkpt>
      <trkpt lat="43.42136" lon="6.05134">
        <ele>246.39999389648</ele>
        <time>2016-02-24T13:23:26Z</time>
      </trkpt>
      <trkpt lat="43.42136" lon="6.05134">
        <ele>246.39999389648</ele>
        <time>2016-02-24T13:23:28Z</time>
      </trkpt>
      <trkpt lat="43.42136" lon="6.05134">
        <ele>246.39999389648</ele>
        <time>2016-02-24T13:23:30Z</time>
      </trkpt>
      <trkpt lat="43.42136" lon="6.05134">
        <ele>246.19999694824</ele>
        <time>2016-02-24T13:23:32Z</time>
      </trkpt>
      <trkpt lat="43.42136" lon="6.05134">
        <ele>246.19999694824</ele>
        <time>2016-02-24T13:23:34Z</time>
      </trkpt>
      <trkpt lat="43.42136" lon="6.05134">
        <ele>246.39999389648</ele>
        <time>2016-02-24T13:23:36Z</time>
      </trkpt>
      <trkpt lat="43.42136" lon="6.05134">
        <ele>246.60000610352</ele>
        <time>2016-02-24T13:23:38Z</time>
      </trkpt>
      <trkpt lat="43.42137" lon="6.05134">
        <ele>246.60000610352</ele>
        <time>2016-02-24T13:23:40Z</time>
      </trkpt>
      <trkpt lat="43.42137" lon="6.05134">
        <ele>246.60000610352</ele>
        <time>2016-02-24T13:23:42Z</time>
      </trkpt>
      <trkpt lat="43.42137" lon="6.05134">
        <ele>246.39999389648</ele>
        <time>2016-02-24T13:23:44Z</time>
      </trkpt>
      <trkpt lat="43.42137" lon="6.05135">
        <ele>246.39999389648</ele>
        <time>2016-02-24T13:23:46Z</time>
      </trkpt>
      <trkpt lat="43.42138" lon="6.05138">
        <ele>246.60000610352</ele>
        <time>2016-02-24T13:23:48Z</time>
      </trkpt>
      <trkpt lat="43.42142" lon="6.05142">
        <ele>246.80000305176</ele>
        <time>2016-02-24T13:23:50Z</time>
      </trkpt>
      <trkpt lat="43.42147" lon="6.05149">
        <ele>247.39999389648</ele>
        <time>2016-02-24T13:23:52Z</time>
      </trkpt>
      <trkpt lat="43.42152" lon="6.05154">
        <ele>247.60000610352</ele>
        <time>2016-02-24T13:23:54Z</time>
      </trkpt>
      <trkpt lat="43.42156" lon="6.05159">
        <ele>247.39999389648</ele>
        <time>2016-02-24T13:23:56Z</time>
      </trkpt>
      <trkpt lat="43.42159" lon="6.0516">
        <ele>247.19999694824</ele>
        <time>2016-02-24T13:23:57Z</time>
      </trkpt>
      <trkpt lat="43.42161" lon="6.05161">
        <ele>246.80000305176</ele>
        <time>2016-02-24T13:23:58Z</time>
      </trkpt>
      <trkpt lat="43.42166" lon="6.05164">
        <ele>247</ele>
        <time>2016-02-24T13:24:00Z</time>
      </trkpt>
      <trkpt lat="43.42171" lon="6.05167">
        <ele>247.19999694824</ele>
        <time>2016-02-24T13:24:02Z</time>
      </trkpt>
      <trkpt lat="43.42177" lon="6.0517">
        <ele>247.39999389648</ele>
        <time>2016-02-24T13:24:04Z</time>
      </trkpt>
      <trkpt lat="43.4218" lon="6.05171">
        <ele>247.60000610352</ele>
        <time>2016-02-24T13:24:05Z</time>
      </trkpt>
      <trkpt lat="43.42183" lon="6.05173">
        <ele>248.39999389648</ele>
        <time>2016-02-24T13:24:06Z</time>
      </trkpt>
      <trkpt lat="43.42185" lon="6.05175">
        <ele>249</ele>
        <time>2016-02-24T13:24:07Z</time>
      </trkpt>
      <trkpt lat="43.42188" lon="6.05177">
        <ele>249</ele>
        <time>2016-02-24T13:24:08Z</time>
      </trkpt>
      <trkpt lat="43.42194" lon="6.05181">
        <ele>248.80000305176</ele>
        <time>2016-02-24T13:24:10Z</time>
      </trkpt>
      <trkpt lat="43.42196" lon="6.05182">
        <ele>248.60000610352</ele>
        <time>2016-02-24T13:24:11Z</time>
      </trkpt>
      <trkpt lat="43.42199" lon="6.05184">
        <ele>248.60000610352</ele>
        <time>2016-02-24T13:24:12Z</time>
      </trkpt>
      <trkpt lat="43.42203" lon="6.05186">
        <ele>248.60000610352</ele>
        <time>2016-02-24T13:24:14Z</time>
      </trkpt>
      <trkpt lat="43.42208" lon="6.05187">
        <ele>248.60000610352</ele>
        <time>2016-02-24T13:24:16Z</time>
      </trkpt>
      <trkpt lat="43.42211" lon="6.05188">
        <ele>249</ele>
        <time>2016-02-24T13:24:17Z</time>
      </trkpt>
      <trkpt lat="43.42213" lon="6.0519">
        <ele>250</ele>
        <time>2016-02-24T13:24:18Z</time>
      </trkpt>
      <trkpt lat="43.42218" lon="6.05192">
        <ele>250.60000610352</ele>
        <time>2016-02-24T13:24:20Z</time>
      </trkpt>
      <trkpt lat="43.42223" lon="6.05196">
        <ele>250.19999694824</ele>
        <time>2016-02-24T13:24:22Z</time>
      </trkpt>
      <trkpt lat="43.42224" lon="6.05198">
        <ele>250.39999389648</ele>
        <time>2016-02-24T13:24:23Z</time>
      </trkpt>
      <trkpt lat="43.42226" lon="6.052">
        <ele>250.19999694824</ele>
        <time>2016-02-24T13:24:24Z</time>
      </trkpt>
      <trkpt lat="43.42228" lon="6.05205">
        <ele>250.39999389648</ele>
        <time>2016-02-24T13:24:26Z</time>
      </trkpt>
      <trkpt lat="43.42233" lon="6.05209">
        <ele>250.80000305176</ele>
        <time>2016-02-24T13:24:28Z</time>
      </trkpt>
      <trkpt lat="43.42238" lon="6.0521">
        <ele>251</ele>
        <time>2016-02-24T13:24:30Z</time>
      </trkpt>
      <trkpt lat="43.4224" lon="6.0521">
        <ele>251.19999694824</ele>
        <time>2016-02-24T13:24:31Z</time>
      </trkpt>
      <trkpt lat="43.42243" lon="6.0521">
        <ele>251.60000610352</ele>
        <time>2016-02-24T13:24:32Z</time>
      </trkpt>
      <trkpt lat="43.42245" lon="6.0521">
        <ele>251.60000610352</ele>
        <time>2016-02-24T13:24:33Z</time>
      </trkpt>
      <trkpt lat="43.42247" lon="6.0521">
        <ele>251.80000305176</ele>
        <time>2016-02-24T13:24:34Z</time>
      </trkpt>
      <trkpt lat="43.42252" lon="6.0521">
        <ele>251.60000610352</ele>
        <time>2016-02-24T13:24:36Z</time>
      </trkpt>
      <trkpt lat="43.42257" lon="6.05209">
        <ele>251.60000610352</ele>
        <time>2016-02-24T13:24:38Z</time>
      </trkpt>
      <trkpt lat="43.42262" lon="6.0521">
        <ele>251.80000305176</ele>
        <time>2016-02-24T13:24:40Z</time>
      </trkpt>
      <trkpt lat="43.42265" lon="6.0521">
        <ele>252</ele>
        <time>2016-02-24T13:24:41Z</time>
      </trkpt>
      <trkpt lat="43.42268" lon="6.0521">
        <ele>252.39999389648</ele>
        <time>2016-02-24T13:24:42Z</time>
      </trkpt>
      <trkpt lat="43.42273" lon="6.05211">
        <ele>252.60000610352</ele>
        <time>2016-02-24T13:24:44Z</time>
      </trkpt>
      <trkpt lat="43.42278" lon="6.05212">
        <ele>252.80000305176</ele>
        <time>2016-02-24T13:24:46Z</time>
      </trkpt>
      <trkpt lat="43.42283" lon="6.05212">
        <ele>253.39999389648</ele>
        <time>2016-02-24T13:24:48Z</time>
      </trkpt>
      <trkpt lat="43.42288" lon="6.05214">
        <ele>253.60000610352</ele>
        <time>2016-02-24T13:24:50Z</time>
      </trkpt>
      <trkpt lat="43.4229" lon="6.05215">
        <ele>253.60000610352</ele>
        <time>2016-02-24T13:24:51Z</time>
      </trkpt>
      <trkpt lat="43.42293" lon="6.05216">
        <ele>253.60000610352</ele>
        <time>2016-02-24T13:24:52Z</time>
      </trkpt>
      <trkpt lat="43.42296" lon="6.05217">
        <ele>253.39999389648</ele>
        <time>2016-02-24T13:24:53Z</time>
      </trkpt>
      <trkpt lat="43.42299" lon="6.05218">
        <ele>253.39999389648</ele>
        <time>2016-02-24T13:24:54Z</time>
      </trkpt>
      <trkpt lat="43.42302" lon="6.05219">
        <ele>253.39999389648</ele>
        <time>2016-02-24T13:24:56Z</time>
      </trkpt>
      <trkpt lat="43.42306" lon="6.05221">
        <ele>253.60000610352</ele>
        <time>2016-02-24T13:24:58Z</time>
      </trkpt>
      <trkpt lat="43.4231" lon="6.05221">
        <ele>254.19999694824</ele>
        <time>2016-02-24T13:25:00Z</time>
      </trkpt>
      <trkpt lat="43.42314" lon="6.05221">
        <ele>254.39999389648</ele>
        <time>2016-02-24T13:25:02Z</time>
      </trkpt>
      <trkpt lat="43.42316" lon="6.05221">
        <ele>254.60000610352</ele>
        <time>2016-02-24T13:25:03Z</time>
      </trkpt>
      <trkpt lat="43.42318" lon="6.05221">
        <ele>254.80000305176</ele>
        <time>2016-02-24T13:25:04Z</time>
      </trkpt>
      <trkpt lat="43.42321" lon="6.05222">
        <ele>255</ele>
        <time>2016-02-24T13:25:06Z</time>
      </trkpt>
      <trkpt lat="43.42325" lon="6.05222">
        <ele>255.19999694824</ele>
        <time>2016-02-24T13:25:08Z</time>
      </trkpt>
      <trkpt lat="43.42326" lon="6.05224">
        <ele>255.60000610352</ele>
        <time>2016-02-24T13:25:09Z</time>
      </trkpt>
      <trkpt lat="43.42327" lon="6.05224">
        <ele>255.80000305176</ele>
        <time>2016-02-24T13:25:10Z</time>
      </trkpt>
      <trkpt lat="43.42331" lon="6.05226">
        <ele>256</ele>
        <time>2016-02-24T13:25:12Z</time>
      </trkpt>
      <trkpt lat="43.42334" lon="6.05226">
        <ele>256.39999389648</ele>
        <time>2016-02-24T13:25:14Z</time>
      </trkpt>
      <trkpt lat="43.42336" lon="6.05228">
        <ele>256.79998779297</ele>
        <time>2016-02-24T13:25:15Z</time>
      </trkpt>
      <trkpt lat="43.42337" lon="6.05228">
        <ele>257.20001220703</ele>
        <time>2016-02-24T13:25:16Z</time>
      </trkpt>
      <trkpt lat="43.42339" lon="6.05229">
        <ele>257.20001220703</ele>
        <time>2016-02-24T13:25:17Z</time>
      </trkpt>
      <trkpt lat="43.4234" lon="6.05229">
        <ele>257.20001220703</ele>
        <time>2016-02-24T13:25:18Z</time>
      </trkpt>
      <trkpt lat="43.42343" lon="6.05229">
        <ele>257.60000610352</ele>
        <time>2016-02-24T13:25:20Z</time>
      </trkpt>
      <trkpt lat="43.42345" lon="6.05229">
        <ele>257.60000610352</ele>
        <time>2016-02-24T13:25:22Z</time>
      </trkpt>
      <trkpt lat="43.42348" lon="6.05228">
        <ele>257.60000610352</ele>
        <time>2016-02-24T13:25:24Z</time>
      </trkpt>
      <trkpt lat="43.4235" lon="6.05228">
        <ele>257.79998779297</ele>
        <time>2016-02-24T13:25:25Z</time>
      </trkpt>
      <trkpt lat="43.42352" lon="6.05229">
        <ele>258</ele>
        <time>2016-02-24T13:25:26Z</time>
      </trkpt>
      <trkpt lat="43.42356" lon="6.05227">
        <ele>258</ele>
        <time>2016-02-24T13:25:28Z</time>
      </trkpt>
      <trkpt lat="43.42358" lon="6.05227">
        <ele>258.20001220703</ele>
        <time>2016-02-24T13:25:29Z</time>
      </trkpt>
      <trkpt lat="43.4236" lon="6.05226">
        <ele>258.39999389648</ele>
        <time>2016-02-24T13:25:30Z</time>
      </trkpt>
      <trkpt lat="43.42363" lon="6.05225">
        <ele>258.20001220703</ele>
        <time>2016-02-24T13:25:32Z</time>
      </trkpt>
      <trkpt lat="43.42366" lon="6.05224">
        <ele>258.60000610352</ele>
        <time>2016-02-24T13:25:34Z</time>
      </trkpt>
      <trkpt lat="43.42369" lon="6.05224">
        <ele>259.20001220703</ele>
        <time>2016-02-24T13:25:36Z</time>
      </trkpt>
      <trkpt lat="43.42372" lon="6.05224">
        <ele>259.60000610352</ele>
        <time>2016-02-24T13:25:38Z</time>
      </trkpt>
      <trkpt lat="43.42375" lon="6.05223">
        <ele>259.79998779297</ele>
        <time>2016-02-24T13:25:40Z</time>
      </trkpt>
      <trkpt lat="43.42379" lon="6.05224">
        <ele>260</ele>
        <time>2016-02-24T13:25:42Z</time>
      </trkpt>
      <trkpt lat="43.42383" lon="6.05222">
        <ele>259.79998779297</ele>
        <time>2016-02-24T13:25:44Z</time>
      </trkpt>
      <trkpt lat="43.42387" lon="6.05222">
        <ele>260</ele>
        <time>2016-02-24T13:25:46Z</time>
      </trkpt>
      <trkpt lat="43.42391" lon="6.05221">
        <ele>260.20001220703</ele>
        <time>2016-02-24T13:25:48Z</time>
      </trkpt>
      <trkpt lat="43.42395" lon="6.0522">
        <ele>260.39999389648</ele>
        <time>2016-02-24T13:25:50Z</time>
      </trkpt>
      <trkpt lat="43.42399" lon="6.05219">
        <ele>260.60000610352</ele>
        <time>2016-02-24T13:25:52Z</time>
      </trkpt>
      <trkpt lat="43.42403" lon="6.05219">
        <ele>260.79998779297</ele>
        <time>2016-02-24T13:25:54Z</time>
      </trkpt>
      <trkpt lat="43.42407" lon="6.05218">
        <ele>261</ele>
        <time>2016-02-24T13:25:56Z</time>
      </trkpt>
      <trkpt lat="43.42412" lon="6.05219">
        <ele>261</ele>
        <time>2016-02-24T13:25:58Z</time>
      </trkpt>
      <trkpt lat="43.42416" lon="6.0522">
        <ele>261.20001220703</ele>
        <time>2016-02-24T13:26:00Z</time>
      </trkpt>
      <trkpt lat="43.4242" lon="6.0522">
        <ele>261.20001220703</ele>
        <time>2016-02-24T13:26:02Z</time>
      </trkpt>
      <trkpt lat="43.42424" lon="6.0522">
        <ele>261.39999389648</ele>
        <time>2016-02-24T13:26:04Z</time>
      </trkpt>
      <trkpt lat="43.42428" lon="6.0522">
        <ele>261.39999389648</ele>
        <time>2016-02-24T13:26:06Z</time>
      </trkpt>
      <trkpt lat="43.42432" lon="6.0522">
        <ele>261.39999389648</ele>
        <time>2016-02-24T13:26:08Z</time>
      </trkpt>
      <trkpt lat="43.42434" lon="6.0522">
        <ele>261.60000610352</ele>
        <time>2016-02-24T13:26:09Z</time>
      </trkpt>
      <trkpt lat="43.42436" lon="6.0522">
        <ele>261.39999389648</ele>
        <time>2016-02-24T13:26:10Z</time>
      </trkpt>
      <trkpt lat="43.4244" lon="6.05219">
        <ele>261.39999389648</ele>
        <time>2016-02-24T13:26:12Z</time>
      </trkpt>
      <trkpt lat="43.42444" lon="6.05218">
        <ele>261.60000610352</ele>
        <time>2016-02-24T13:26:14Z</time>
      </trkpt>
      <trkpt lat="43.42445" lon="6.05217">
        <ele>261.79998779297</ele>
        <time>2016-02-24T13:26:15Z</time>
      </trkpt>
      <trkpt lat="43.42448" lon="6.05215">
        <ele>262.20001220703</ele>
        <time>2016-02-24T13:26:16Z</time>
      </trkpt>
      <trkpt lat="43.4245" lon="6.05215">
        <ele>262.60000610352</ele>
        <time>2016-02-24T13:26:17Z</time>
      </trkpt>
      <trkpt lat="43.42452" lon="6.05214">
        <ele>263</ele>
        <time>2016-02-24T13:26:18Z</time>
      </trkpt>
      <trkpt lat="43.42453" lon="6.05215">
        <ele>263.79998779297</ele>
        <time>2016-02-24T13:26:19Z</time>
      </trkpt>
      <trkpt lat="43.42455" lon="6.05214">
        <ele>264</ele>
        <time>2016-02-24T13:26:20Z</time>
      </trkpt>
      <trkpt lat="43.42458" lon="6.05213">
        <ele>264.20001220703</ele>
        <time>2016-02-24T13:26:22Z</time>
      </trkpt>
      <trkpt lat="43.42461" lon="6.05213">
        <ele>265</ele>
        <time>2016-02-24T13:26:24Z</time>
      </trkpt>
      <trkpt lat="43.42462" lon="6.05213">
        <ele>265.20001220703</ele>
        <time>2016-02-24T13:26:25Z</time>
      </trkpt>
      <trkpt lat="43.42462" lon="6.05213">
        <ele>265.39999389648</ele>
        <time>2016-02-24T13:26:26Z</time>
      </trkpt>
      <trkpt lat="43.42464" lon="6.05212">
        <ele>265.39999389648</ele>
        <time>2016-02-24T13:26:28Z</time>
      </trkpt>
      <trkpt lat="43.42465" lon="6.05212">
        <ele>265.20001220703</ele>
        <time>2016-02-24T13:26:30Z</time>
      </trkpt>
      <trkpt lat="43.42466" lon="6.05212">
        <ele>265.39999389648</ele>
        <time>2016-02-24T13:26:32Z</time>
      </trkpt>
      <trkpt lat="43.42466" lon="6.05212">
        <ele>265.60000610352</ele>
        <time>2016-02-24T13:26:34Z</time>
      </trkpt>
      <trkpt lat="43.42466" lon="6.05212">
        <ele>265.39999389648</ele>
        <time>2016-02-24T13:26:36Z</time>
      </trkpt>
      <trkpt lat="43.42466" lon="6.05212">
        <ele>265.39999389648</ele>
        <time>2016-02-24T13:26:38Z</time>
      </trkpt>
      <trkpt lat="43.42466" lon="6.05212">
        <ele>265.79998779297</ele>
        <time>2016-02-24T13:26:40Z</time>
      </trkpt>
      <trkpt lat="43.42466" lon="6.05212">
        <ele>265.39999389648</ele>
        <time>2016-02-24T13:26:42Z</time>
      </trkpt>
      <trkpt lat="43.42466" lon="6.05212">
        <ele>265.60000610352</ele>
        <time>2016-02-24T13:26:44Z</time>
      </trkpt>
      <trkpt lat="43.42466" lon="6.05212">
        <ele>265.79998779297</ele>
        <time>2016-02-24T13:26:45Z</time>
      </trkpt>
      <trkpt lat="43.42466" lon="6.05212">
        <ele>266</ele>
        <time>2016-02-24T13:26:46Z</time>
      </trkpt>
      <trkpt lat="43.42466" lon="6.05212">
        <ele>266.20001220703</ele>
        <time>2016-02-24T13:26:48Z</time>
      </trkpt>
      <trkpt lat="43.42466" lon="6.05212">
        <ele>266.20001220703</ele>
        <time>2016-02-24T13:26:50Z</time>
      </trkpt>
      <trkpt lat="43.42467" lon="6.05212">
        <ele>266.20001220703</ele>
        <time>2016-02-24T13:26:52Z</time>
      </trkpt>
      <trkpt lat="43.4247" lon="6.05213">
        <ele>266.20001220703</ele>
        <time>2016-02-24T13:26:54Z</time>
      </trkpt>
      <trkpt lat="43.42474" lon="6.05214">
        <ele>266.20001220703</ele>
        <time>2016-02-24T13:26:56Z</time>
      </trkpt>
      <trkpt lat="43.42478" lon="6.05214">
        <ele>266</ele>
        <time>2016-02-24T13:26:58Z</time>
      </trkpt>
      <trkpt lat="43.42482" lon="6.05216">
        <ele>266</ele>
        <time>2016-02-24T13:27:00Z</time>
      </trkpt>
      <trkpt lat="43.42487" lon="6.0522">
        <ele>265.60000610352</ele>
        <time>2016-02-24T13:27:02Z</time>
      </trkpt>
      <trkpt lat="43.42493" lon="6.05223">
        <ele>265.20001220703</ele>
        <time>2016-02-24T13:27:04Z</time>
      </trkpt>
      <trkpt lat="43.42497" lon="6.05224">
        <ele>265</ele>
        <time>2016-02-24T13:27:06Z</time>
      </trkpt>
      <trkpt lat="43.425" lon="6.05224">
        <ele>265</ele>
        <time>2016-02-24T13:27:07Z</time>
      </trkpt>
      <trkpt lat="43.42502" lon="6.05224">
        <ele>265.39999389648</ele>
        <time>2016-02-24T13:27:08Z</time>
      </trkpt>
      <trkpt lat="43.42508" lon="6.05224">
        <ele>265.39999389648</ele>
        <time>2016-02-24T13:27:10Z</time>
      </trkpt>
      <trkpt lat="43.42513" lon="6.05224">
        <ele>265.79998779297</ele>
        <time>2016-02-24T13:27:12Z</time>
      </trkpt>
      <trkpt lat="43.42515" lon="6.05225">
        <ele>265.79998779297</ele>
        <time>2016-02-24T13:27:13Z</time>
      </trkpt>
      <trkpt lat="43.42518" lon="6.05225">
        <ele>265.79998779297</ele>
        <time>2016-02-24T13:27:14Z</time>
      </trkpt>
      <trkpt lat="43.42524" lon="6.05224">
        <ele>265.79998779297</ele>
        <time>2016-02-24T13:27:16Z</time>
      </trkpt>
      <trkpt lat="43.42528" lon="6.05225">
        <ele>266</ele>
        <time>2016-02-24T13:27:18Z</time>
      </trkpt>
      <trkpt lat="43.4253" lon="6.05224">
        <ele>266</ele>
        <time>2016-02-24T13:27:19Z</time>
      </trkpt>
      <trkpt lat="43.42532" lon="6.05224">
        <ele>266.39999389648</ele>
        <time>2016-02-24T13:27:20Z</time>
      </trkpt>
      <trkpt lat="43.42537" lon="6.05223">
        <ele>266.39999389648</ele>
        <time>2016-02-24T13:27:22Z</time>
      </trkpt>
      <trkpt lat="43.42539" lon="6.05222">
        <ele>266.60000610352</ele>
        <time>2016-02-24T13:27:24Z</time>
      </trkpt>
      <trkpt lat="43.42539" lon="6.05223">
        <ele>266.60000610352</ele>
        <time>2016-02-24T13:27:26Z</time>
      </trkpt>
      <trkpt lat="43.42541" lon="6.05223">
        <ele>266.60000610352</ele>
        <time>2016-02-24T13:27:28Z</time>
      </trkpt>
      <trkpt lat="43.42541" lon="6.05223">
        <ele>266.79998779297</ele>
        <time>2016-02-24T13:27:29Z</time>
      </trkpt>
      <trkpt lat="43.42542" lon="6.05222">
        <ele>267</ele>
        <time>2016-02-24T13:27:30Z</time>
      </trkpt>
      <trkpt lat="43.42542" lon="6.05222">
        <ele>267</ele>
        <time>2016-02-24T13:27:32Z</time>
      </trkpt>
      <trkpt lat="43.42543" lon="6.05222">
        <ele>267.20001220703</ele>
        <time>2016-02-24T13:27:34Z</time>
      </trkpt>
      <trkpt lat="43.42544" lon="6.05221">
        <ele>267.39999389648</ele>
        <time>2016-02-24T13:27:35Z</time>
      </trkpt>
      <trkpt lat="43.42545" lon="6.05221">
        <ele>267.39999389648</ele>
        <time>2016-02-24T13:27:36Z</time>
      </trkpt>
      <trkpt lat="43.42547" lon="6.0522">
        <ele>268</ele>
        <time>2016-02-24T13:27:38Z</time>
      </trkpt>
      <trkpt lat="43.42548" lon="6.0522">
        <ele>268.20001220703</ele>
        <time>2016-02-24T13:27:40Z</time>
      </trkpt>
      <trkpt lat="43.4255" lon="6.05219">
        <ele>268.39999389648</ele>
        <time>2016-02-24T13:27:42Z</time>
      </trkpt>
      <trkpt lat="43.42551" lon="6.05219">
        <ele>268.60000610352</ele>
        <time>2016-02-24T13:27:44Z</time>
      </trkpt>
      <trkpt lat="43.42551" lon="6.05219">
        <ele>268.60000610352</ele>
        <time>2016-02-24T13:27:46Z</time>
      </trkpt>
      <trkpt lat="43.42552" lon="6.05219">
        <ele>268.20001220703</ele>
        <time>2016-02-24T13:27:48Z</time>
      </trkpt>
      <trkpt lat="43.42554" lon="6.05218">
        <ele>268.20001220703</ele>
        <time>2016-02-24T13:27:50Z</time>
      </trkpt>
      <trkpt lat="43.42557" lon="6.05219">
        <ele>268.60000610352</ele>
        <time>2016-02-24T13:27:52Z</time>
      </trkpt>
      <trkpt lat="43.42562" lon="6.05219">
        <ele>268.39999389648</ele>
        <time>2016-02-24T13:27:54Z</time>
      </trkpt>
      <trkpt lat="43.42566" lon="6.0522">
        <ele>268.79998779297</ele>
        <time>2016-02-24T13:27:56Z</time>
      </trkpt>
      <trkpt lat="43.42572" lon="6.05222">
        <ele>268.79998779297</ele>
        <time>2016-02-24T13:27:58Z</time>
      </trkpt>
      <trkpt lat="43.42577" lon="6.05225">
        <ele>268.60000610352</ele>
        <time>2016-02-24T13:28:00Z</time>
      </trkpt>
      <trkpt lat="43.42583" lon="6.05229">
        <ele>268.60000610352</ele>
        <time>2016-02-24T13:28:02Z</time>
      </trkpt>
      <trkpt lat="43.42584" lon="6.05231">
        <ele>268.60000610352</ele>
        <time>2016-02-24T13:28:03Z</time>
      </trkpt>
      <trkpt lat="43.42587" lon="6.05233">
        <ele>268.60000610352</ele>
        <time>2016-02-24T13:28:04Z</time>
      </trkpt>
      <trkpt lat="43.42592" lon="6.05236">
        <ele>268.60000610352</ele>
        <time>2016-02-24T13:28:06Z</time>
      </trkpt>
      <trkpt lat="43.42596" lon="6.0524">
        <ele>268.60000610352</ele>
        <time>2016-02-24T13:28:08Z</time>
      </trkpt>
      <trkpt lat="43.42598" lon="6.05242">
        <ele>268.60000610352</ele>
        <time>2016-02-24T13:28:09Z</time>
      </trkpt>
      <trkpt lat="43.426" lon="6.05245">
        <ele>269.20001220703</ele>
        <time>2016-02-24T13:28:10Z</time>
      </trkpt>
      <trkpt lat="43.42605" lon="6.05247">
        <ele>269.39999389648</ele>
        <time>2016-02-24T13:28:12Z</time>
      </trkpt>
      <trkpt lat="43.42609" lon="6.05251">
        <ele>269.39999389648</ele>
        <time>2016-02-24T13:28:14Z</time>
      </trkpt>
      <trkpt lat="43.42614" lon="6.05255">
        <ele>269.79998779297</ele>
        <time>2016-02-24T13:28:16Z</time>
      </trkpt>
      <trkpt lat="43.42616" lon="6.05257">
        <ele>270.39999389648</ele>
        <time>2016-02-24T13:28:17Z</time>
      </trkpt>
      <trkpt lat="43.42618" lon="6.05259">
        <ele>270.79998779297</ele>
        <time>2016-02-24T13:28:18Z</time>
      </trkpt>
      <trkpt lat="43.42621" lon="6.05261">
        <ele>270.79998779297</ele>
        <time>2016-02-24T13:28:20Z</time>
      </trkpt>
      <trkpt lat="43.42623" lon="6.05262">
        <ele>271</ele>
        <time>2016-02-24T13:28:21Z</time>
      </trkpt>
      <trkpt lat="43.42624" lon="6.05263">
        <ele>270.79998779297</ele>
        <time>2016-02-24T13:28:22Z</time>
      </trkpt>
      <trkpt lat="43.42627" lon="6.05265">
        <ele>271</ele>
        <time>2016-02-24T13:28:24Z</time>
      </trkpt>
      <trkpt lat="43.42628" lon="6.05266">
        <ele>271</ele>
        <time>2016-02-24T13:28:26Z</time>
      </trkpt>
      <trkpt lat="43.42629" lon="6.05268">
        <ele>271</ele>
        <time>2016-02-24T13:28:27Z</time>
      </trkpt>
      <trkpt lat="43.42629" lon="6.05268">
        <ele>271</ele>
        <time>2016-02-24T13:28:28Z</time>
      </trkpt>
      <trkpt lat="43.42629" lon="6.05268">
        <ele>270.79998779297</ele>
        <time>2016-02-24T13:28:30Z</time>
      </trkpt>
      <trkpt lat="43.4263" lon="6.05268">
        <ele>271</ele>
        <time>2016-02-24T13:28:32Z</time>
      </trkpt>
      <trkpt lat="43.4263" lon="6.05268">
        <ele>271</ele>
        <time>2016-02-24T13:28:34Z</time>
      </trkpt>
      <trkpt lat="43.4263" lon="6.05268">
        <ele>271</ele>
        <time>2016-02-24T13:28:36Z</time>
      </trkpt>
      <trkpt lat="43.42629" lon="6.05268">
        <ele>270.60000610352</ele>
        <time>2016-02-24T13:28:38Z</time>
      </trkpt>
      <trkpt lat="43.42629" lon="6.05268">
        <ele>270.79998779297</ele>
        <time>2016-02-24T13:28:40Z</time>
      </trkpt>
      <trkpt lat="43.4263" lon="6.05268">
        <ele>270.60000610352</ele>
        <time>2016-02-24T13:28:42Z</time>
      </trkpt>
      <trkpt lat="43.4263" lon="6.05268">
        <ele>270.79998779297</ele>
        <time>2016-02-24T13:28:44Z</time>
      </trkpt>
      <trkpt lat="43.4263" lon="6.05268">
        <ele>270.79998779297</ele>
        <time>2016-02-24T13:28:46Z</time>
      </trkpt>
      <trkpt lat="43.4263" lon="6.05268">
        <ele>271</ele>
        <time>2016-02-24T13:28:47Z</time>
      </trkpt>
      <trkpt lat="43.42629" lon="6.05268">
        <ele>271</ele>
        <time>2016-02-24T13:28:50Z</time>
      </trkpt>
      <trkpt lat="43.42629" lon="6.05268">
        <ele>271</ele>
        <time>2016-02-24T13:28:52Z</time>
      </trkpt>
      <trkpt lat="43.42629" lon="6.05268">
        <ele>271</ele>
        <time>2016-02-24T13:28:54Z</time>
      </trkpt>
      <trkpt lat="43.42629" lon="6.05268">
        <ele>271</ele>
        <time>2016-02-24T13:28:55Z</time>
      </trkpt>
      <trkpt lat="43.42629" lon="6.05268">
        <ele>270.79998779297</ele>
        <time>2016-02-24T13:28:56Z</time>
      </trkpt>
      <trkpt lat="43.42629" lon="6.05268">
        <ele>271</ele>
        <time>2016-02-24T13:28:58Z</time>
      </trkpt>
      <trkpt lat="43.42629" lon="6.05268">
        <ele>270.79998779297</ele>
        <time>2016-02-24T13:29:00Z</time>
      </trkpt>
      <trkpt lat="43.42629" lon="6.05268">
        <ele>270.79998779297</ele>
        <time>2016-02-24T13:29:02Z</time>
      </trkpt>
      <trkpt lat="43.42629" lon="6.05268">
        <ele>270.79998779297</ele>
        <time>2016-02-24T13:29:04Z</time>
      </trkpt>
      <trkpt lat="43.42629" lon="6.05268">
        <ele>270.79998779297</ele>
        <time>2016-02-24T13:29:06Z</time>
      </trkpt>
      <trkpt lat="43.42629" lon="6.05268">
        <ele>270.79998779297</ele>
        <time>2016-02-24T13:29:08Z</time>
      </trkpt>
      <trkpt lat="43.4263" lon="6.05268">
        <ele>270.60000610352</ele>
        <time>2016-02-24T13:29:10Z</time>
      </trkpt>
      <trkpt lat="43.42629" lon="6.05268">
        <ele>270.79998779297</ele>
        <time>2016-02-24T13:29:12Z</time>
      </trkpt>
      <trkpt lat="43.42629" lon="6.05268">
        <ele>270.79998779297</ele>
        <time>2016-02-24T13:29:14Z</time>
      </trkpt>
      <trkpt lat="43.42629" lon="6.05268">
        <ele>270.79998779297</ele>
        <time>2016-02-24T13:29:16Z</time>
      </trkpt>
      <trkpt lat="43.42629" lon="6.05268">
        <ele>270.79998779297</ele>
        <time>2016-02-24T13:29:18Z</time>
      </trkpt>
      <trkpt lat="43.42629" lon="6.05268">
        <ele>270.79998779297</ele>
        <time>2016-02-24T13:29:20Z</time>
      </trkpt>
      <trkpt lat="43.4263" lon="6.05268">
        <ele>271</ele>
        <time>2016-02-24T13:29:22Z</time>
      </trkpt>
      <trkpt lat="43.42629" lon="6.05268">
        <ele>271</ele>
        <time>2016-02-24T13:29:24Z</time>
      </trkpt>
      <trkpt lat="43.42631" lon="6.05271">
        <ele>271</ele>
        <time>2016-02-24T13:29:26Z</time>
      </trkpt>
      <trkpt lat="43.42631" lon="6.05273">
        <ele>271.20001220703</ele>
        <time>2016-02-24T13:29:27Z</time>
      </trkpt>
      <trkpt lat="43.42633" lon="6.05274">
        <ele>271.20001220703</ele>
        <time>2016-02-24T13:29:28Z</time>
      </trkpt>
      <trkpt lat="43.42634" lon="6.05275">
        <ele>271.39999389648</ele>
        <time>2016-02-24T13:29:29Z</time>
      </trkpt>
      <trkpt lat="43.42636" lon="6.05277">
        <ele>271.79998779297</ele>
        <time>2016-02-24T13:29:30Z</time>
      </trkpt>
      <trkpt lat="43.42637" lon="6.05279">
        <ele>271.60000610352</ele>
        <time>2016-02-24T13:29:31Z</time>
      </trkpt>
      <trkpt lat="43.4264" lon="6.0528">
        <ele>271.60000610352</ele>
        <time>2016-02-24T13:29:32Z</time>
      </trkpt>
      <trkpt lat="43.42644" lon="6.05284">
        <ele>272</ele>
        <time>2016-02-24T13:29:34Z</time>
      </trkpt>
      <trkpt lat="43.42648" lon="6.05289">
        <ele>271.60000610352</ele>
        <time>2016-02-24T13:29:36Z</time>
      </trkpt>
      <trkpt lat="43.4265" lon="6.05291">
        <ele>271.60000610352</ele>
        <time>2016-02-24T13:29:37Z</time>
      </trkpt>
      <trkpt lat="43.42651" lon="6.05294">
        <ele>272</ele>
        <time>2016-02-24T13:29:38Z</time>
      </trkpt>
      <trkpt lat="43.42653" lon="6.053">
        <ele>272.39999389648</ele>
        <time>2016-02-24T13:29:40Z</time>
      </trkpt>
      <trkpt lat="43.42655" lon="6.05302">
        <ele>272.79998779297</ele>
        <time>2016-02-24T13:29:41Z</time>
      </trkpt>
      <trkpt lat="43.42656" lon="6.05304">
        <ele>272.79998779297</ele>
        <time>2016-02-24T13:29:42Z</time>
      </trkpt>
      <trkpt lat="43.42657" lon="6.05306">
        <ele>273</ele>
        <time>2016-02-24T13:29:43Z</time>
      </trkpt>
      <trkpt lat="43.42658" lon="6.05308">
        <ele>272.79998779297</ele>
        <time>2016-02-24T13:29:44Z</time>
      </trkpt>
      <trkpt lat="43.42659" lon="6.05312">
        <ele>273.20001220703</ele>
        <time>2016-02-24T13:29:46Z</time>
      </trkpt>
      <trkpt lat="43.42661" lon="6.05315">
        <ele>273.60000610352</ele>
        <time>2016-02-24T13:29:48Z</time>
      </trkpt>
      <trkpt lat="43.42664" lon="6.05317">
        <ele>273.79998779297</ele>
        <time>2016-02-24T13:29:50Z</time>
      </trkpt>
      <trkpt lat="43.42665" lon="6.05319">
        <ele>273.79998779297</ele>
        <time>2016-02-24T13:29:52Z</time>
      </trkpt>
      <trkpt lat="43.42666" lon="6.05322">
        <ele>273.79998779297</ele>
        <time>2016-02-24T13:29:54Z</time>
      </trkpt>
      <trkpt lat="43.42668" lon="6.05324">
        <ele>274.20001220703</ele>
        <time>2016-02-24T13:29:55Z</time>
      </trkpt>
      <trkpt lat="43.42669" lon="6.05325">
        <ele>274.79998779297</ele>
        <time>2016-02-24T13:29:56Z</time>
      </trkpt>
      <trkpt lat="43.42672" lon="6.05329">
        <ele>275.79998779297</ele>
        <time>2016-02-24T13:29:58Z</time>
      </trkpt>
      <trkpt lat="43.42675" lon="6.05331">
        <ele>276.39999389648</ele>
        <time>2016-02-24T13:30:00Z</time>
      </trkpt>
      <trkpt lat="43.42678" lon="6.05334">
        <ele>276.20001220703</ele>
        <time>2016-02-24T13:30:02Z</time>
      </trkpt>
      <trkpt lat="43.4268" lon="6.05338">
        <ele>276.60000610352</ele>
        <time>2016-02-24T13:30:04Z</time>
      </trkpt>
      <trkpt lat="43.42682" lon="6.05339">
        <ele>276.60000610352</ele>
        <time>2016-02-24T13:30:05Z</time>
      </trkpt>
      <trkpt lat="43.42683" lon="6.05339">
        <ele>276.60000610352</ele>
        <time>2016-02-24T13:30:06Z</time>
      </trkpt>
      <trkpt lat="43.42685" lon="6.05339">
        <ele>276.60000610352</ele>
        <time>2016-02-24T13:30:07Z</time>
      </trkpt>
      <trkpt lat="43.42687" lon="6.0534">
        <ele>276.60000610352</ele>
        <time>2016-02-24T13:30:08Z</time>
      </trkpt>
      <trkpt lat="43.42689" lon="6.0534">
        <ele>276.60000610352</ele>
        <time>2016-02-24T13:30:09Z</time>
      </trkpt>
      <trkpt lat="43.4269" lon="6.0534">
        <ele>276.79998779297</ele>
        <time>2016-02-24T13:30:10Z</time>
      </trkpt>
      <trkpt lat="43.42691" lon="6.0534">
        <ele>276.79998779297</ele>
        <time>2016-02-24T13:30:11Z</time>
      </trkpt>
      <trkpt lat="43.42694" lon="6.05341">
        <ele>276.60000610352</ele>
        <time>2016-02-24T13:30:12Z</time>
      </trkpt>
      <trkpt lat="43.42696" lon="6.05341">
        <ele>276.79998779297</ele>
        <time>2016-02-24T13:30:13Z</time>
      </trkpt>
      <trkpt lat="43.42698" lon="6.05341">
        <ele>276.79998779297</ele>
        <time>2016-02-24T13:30:14Z</time>
      </trkpt>
      <trkpt lat="43.42702" lon="6.0534">
        <ele>277.20001220703</ele>
        <time>2016-02-24T13:30:16Z</time>
      </trkpt>
      <trkpt lat="43.42706" lon="6.0534">
        <ele>277.60000610352</ele>
        <time>2016-02-24T13:30:18Z</time>
      </trkpt>
      <trkpt lat="43.4271" lon="6.0534">
        <ele>277.79998779297</ele>
        <time>2016-02-24T13:30:20Z</time>
      </trkpt>
      <trkpt lat="43.42712" lon="6.05341">
        <ele>277.79998779297</ele>
        <time>2016-02-24T13:30:22Z</time>
      </trkpt>
      <trkpt lat="43.42716" lon="6.05344">
        <ele>278</ele>
        <time>2016-02-24T13:30:24Z</time>
      </trkpt>
      <trkpt lat="43.42715" lon="6.05346">
        <ele>278.39999389648</ele>
        <time>2016-02-24T13:30:25Z</time>
      </trkpt>
      <trkpt lat="43.42716" lon="6.05348">
        <ele>278.79998779297</ele>
        <time>2016-02-24T13:30:26Z</time>
      </trkpt>
      <trkpt lat="43.42716" lon="6.05353">
        <ele>278.60000610352</ele>
        <time>2016-02-24T13:30:28Z</time>
      </trkpt>
      <trkpt lat="43.42716" lon="6.05358">
        <ele>279</ele>
        <time>2016-02-24T13:30:30Z</time>
      </trkpt>
      <trkpt lat="43.42716" lon="6.05363">
        <ele>279.20001220703</ele>
        <time>2016-02-24T13:30:32Z</time>
      </trkpt>
      <trkpt lat="43.42715" lon="6.05365">
        <ele>279.60000610352</ele>
        <time>2016-02-24T13:30:33Z</time>
      </trkpt>
      <trkpt lat="43.42714" lon="6.05368">
        <ele>279.60000610352</ele>
        <time>2016-02-24T13:30:34Z</time>
      </trkpt>
      <trkpt lat="43.42714" lon="6.05372">
        <ele>280</ele>
        <time>2016-02-24T13:30:36Z</time>
      </trkpt>
      <trkpt lat="43.42714" lon="6.05377">
        <ele>280.20001220703</ele>
        <time>2016-02-24T13:30:38Z</time>
      </trkpt>
      <trkpt lat="43.42714" lon="6.05378">
        <ele>280.39999389648</ele>
        <time>2016-02-24T13:30:39Z</time>
      </trkpt>
      <trkpt lat="43.42714" lon="6.0538">
        <ele>280.60000610352</ele>
        <time>2016-02-24T13:30:40Z</time>
      </trkpt>
      <trkpt lat="43.42714" lon="6.05382">
        <ele>280.79998779297</ele>
        <time>2016-02-24T13:30:41Z</time>
      </trkpt>
      <trkpt lat="43.42714" lon="6.05385">
        <ele>281</ele>
        <time>2016-02-24T13:30:42Z</time>
      </trkpt>
      <trkpt lat="43.42716" lon="6.05389">
        <ele>281.39999389648</ele>
        <time>2016-02-24T13:30:44Z</time>
      </trkpt>
      <trkpt lat="43.42717" lon="6.05394">
        <ele>281.39999389648</ele>
        <time>2016-02-24T13:30:46Z</time>
      </trkpt>
      <trkpt lat="43.42718" lon="6.05398">
        <ele>281.39999389648</ele>
        <time>2016-02-24T13:30:48Z</time>
      </trkpt>
      <trkpt lat="43.42719" lon="6.05401">
        <ele>281.79998779297</ele>
        <time>2016-02-24T13:30:50Z</time>
      </trkpt>
      <trkpt lat="43.42721" lon="6.05404">
        <ele>281.79998779297</ele>
        <time>2016-02-24T13:30:52Z</time>
      </trkpt>
      <trkpt lat="43.42723" lon="6.05408">
        <ele>282.20001220703</ele>
        <time>2016-02-24T13:30:54Z</time>
      </trkpt>
      <trkpt lat="43.42723" lon="6.05411">
        <ele>282.60000610352</ele>
        <time>2016-02-24T13:30:56Z</time>
      </trkpt>
      <trkpt lat="43.42723" lon="6.05413">
        <ele>282.60000610352</ele>
        <time>2016-02-24T13:30:57Z</time>
      </trkpt>
      <trkpt lat="43.42724" lon="6.05415">
        <ele>282.60000610352</ele>
        <time>2016-02-24T13:30:58Z</time>
      </trkpt>
      <trkpt lat="43.42724" lon="6.05419">
        <ele>282.79998779297</ele>
        <time>2016-02-24T13:31:00Z</time>
      </trkpt>
      <trkpt lat="43.42725" lon="6.05421">
        <ele>283</ele>
        <time>2016-02-24T13:31:01Z</time>
      </trkpt>
      <trkpt lat="43.42725" lon="6.05423">
        <ele>283</ele>
        <time>2016-02-24T13:31:02Z</time>
      </trkpt>
      <trkpt lat="43.42726" lon="6.05426">
        <ele>283</ele>
        <time>2016-02-24T13:31:03Z</time>
      </trkpt>
      <trkpt lat="43.42727" lon="6.05427">
        <ele>283.20001220703</ele>
        <time>2016-02-24T13:31:04Z</time>
      </trkpt>
      <trkpt lat="43.42728" lon="6.05431">
        <ele>283</ele>
        <time>2016-02-24T13:31:06Z</time>
      </trkpt>
      <trkpt lat="43.4273" lon="6.05436">
        <ele>283.39999389648</ele>
        <time>2016-02-24T13:31:08Z</time>
      </trkpt>
      <trkpt lat="43.4273" lon="6.0544">
        <ele>283.60000610352</ele>
        <time>2016-02-24T13:31:10Z</time>
      </trkpt>
      <trkpt lat="43.42729" lon="6.05442">
        <ele>283.79998779297</ele>
        <time>2016-02-24T13:31:11Z</time>
      </trkpt>
      <trkpt lat="43.42729" lon="6.05444">
        <ele>283.79998779297</ele>
        <time>2016-02-24T13:31:12Z</time>
      </trkpt>
      <trkpt lat="43.4273" lon="6.05447">
        <ele>283.79998779297</ele>
        <time>2016-02-24T13:31:13Z</time>
      </trkpt>
      <trkpt lat="43.4273" lon="6.05449">
        <ele>284.20001220703</ele>
        <time>2016-02-24T13:31:14Z</time>
      </trkpt>
      <trkpt lat="43.4273" lon="6.05453">
        <ele>284.39999389648</ele>
        <time>2016-02-24T13:31:16Z</time>
      </trkpt>
      <trkpt lat="43.42729" lon="6.05458">
        <ele>284.60000610352</ele>
        <time>2016-02-24T13:31:18Z</time>
      </trkpt>
      <trkpt lat="43.42728" lon="6.05459">
        <ele>285</ele>
        <time>2016-02-24T13:31:19Z</time>
      </trkpt>
      <trkpt lat="43.42727" lon="6.05461">
        <ele>285.20001220703</ele>
        <time>2016-02-24T13:31:20Z</time>
      </trkpt>
      <trkpt lat="43.42725" lon="6.05464">
        <ele>285.39999389648</ele>
        <time>2016-02-24T13:31:22Z</time>
      </trkpt>
      <trkpt lat="43.42724" lon="6.05468">
        <ele>285.60000610352</ele>
        <time>2016-02-24T13:31:24Z</time>
      </trkpt>
      <trkpt lat="43.42723" lon="6.05473">
        <ele>285.60000610352</ele>
        <time>2016-02-24T13:31:26Z</time>
      </trkpt>
      <trkpt lat="43.42723" lon="6.05477">
        <ele>286</ele>
        <time>2016-02-24T13:31:28Z</time>
      </trkpt>
      <trkpt lat="43.42723" lon="6.05482">
        <ele>286.20001220703</ele>
        <time>2016-02-24T13:31:30Z</time>
      </trkpt>
      <trkpt lat="43.42724" lon="6.05487">
        <ele>286.39999389648</ele>
        <time>2016-02-24T13:31:32Z</time>
      </trkpt>
      <trkpt lat="43.42724" lon="6.05491">
        <ele>286.60000610352</ele>
        <time>2016-02-24T13:31:34Z</time>
      </trkpt>
      <trkpt lat="43.42725" lon="6.05495">
        <ele>287.20001220703</ele>
        <time>2016-02-24T13:31:36Z</time>
      </trkpt>
      <trkpt lat="43.42725" lon="6.05499">
        <ele>287.39999389648</ele>
        <time>2016-02-24T13:31:38Z</time>
      </trkpt>
      <trkpt lat="43.42726" lon="6.05504">
        <ele>287.39999389648</ele>
        <time>2016-02-24T13:31:40Z</time>
      </trkpt>
      <trkpt lat="43.42726" lon="6.05508">
        <ele>287.79998779297</ele>
        <time>2016-02-24T13:31:42Z</time>
      </trkpt>
      <trkpt lat="43.42726" lon="6.0551">
        <ele>287.79998779297</ele>
        <time>2016-02-24T13:31:43Z</time>
      </trkpt>
      <trkpt lat="43.42726" lon="6.05512">
        <ele>287.79998779297</ele>
        <time>2016-02-24T13:31:44Z</time>
      </trkpt>
      <trkpt lat="43.42727" lon="6.05516">
        <ele>287.79998779297</ele>
        <time>2016-02-24T13:31:46Z</time>
      </trkpt>
      <trkpt lat="43.42727" lon="6.05521">
        <ele>288</ele>
        <time>2016-02-24T13:31:48Z</time>
      </trkpt>
      <trkpt lat="43.42727" lon="6.05524">
        <ele>288.39999389648</ele>
        <time>2016-02-24T13:31:49Z</time>
      </trkpt>
      <trkpt lat="43.42728" lon="6.05526">
        <ele>288.60000610352</ele>
        <time>2016-02-24T13:31:50Z</time>
      </trkpt>
      <trkpt lat="43.42727" lon="6.05531">
        <ele>289</ele>
        <time>2016-02-24T13:31:52Z</time>
      </trkpt>
      <trkpt lat="43.42728" lon="6.05536">
        <ele>289</ele>
        <time>2016-02-24T13:31:54Z</time>
      </trkpt>
      <trkpt lat="43.42729" lon="6.05539">
        <ele>289.20001220703</ele>
        <time>2016-02-24T13:31:56Z</time>
      </trkpt>
      <trkpt lat="43.4273" lon="6.05541">
        <ele>289.39999389648</ele>
        <time>2016-02-24T13:31:57Z</time>
      </trkpt>
      <trkpt lat="43.4273" lon="6.05543">
        <ele>289.39999389648</ele>
        <time>2016-02-24T13:31:58Z</time>
      </trkpt>
      <trkpt lat="43.42731" lon="6.05547">
        <ele>289.79998779297</ele>
        <time>2016-02-24T13:32:00Z</time>
      </trkpt>
      <trkpt lat="43.42733" lon="6.05551">
        <ele>290.39999389648</ele>
        <time>2016-02-24T13:32:02Z</time>
      </trkpt>
      <trkpt lat="43.42734" lon="6.05554">
        <ele>290.39999389648</ele>
        <time>2016-02-24T13:32:04Z</time>
      </trkpt>
      <trkpt lat="43.42735" lon="6.05559">
        <ele>290.79998779297</ele>
        <time>2016-02-24T13:32:06Z</time>
      </trkpt>
      <trkpt lat="43.42735" lon="6.05562">
        <ele>290.79998779297</ele>
        <time>2016-02-24T13:32:07Z</time>
      </trkpt>
      <trkpt lat="43.42735" lon="6.05564">
        <ele>290.79998779297</ele>
        <time>2016-02-24T13:32:08Z</time>
      </trkpt>
      <trkpt lat="43.42736" lon="6.05569">
        <ele>291.20001220703</ele>
        <time>2016-02-24T13:32:10Z</time>
      </trkpt>
      <trkpt lat="43.42739" lon="6.05573">
        <ele>291.39999389648</ele>
        <time>2016-02-24T13:32:12Z</time>
      </trkpt>
      <trkpt lat="43.42741" lon="6.05575">
        <ele>291.60000610352</ele>
        <time>2016-02-24T13:32:13Z</time>
      </trkpt>
      <trkpt lat="43.42742" lon="6.05576">
        <ele>292</ele>
        <time>2016-02-24T13:32:14Z</time>
      </trkpt>
      <trkpt lat="43.42745" lon="6.05579">
        <ele>292.60000610352</ele>
        <time>2016-02-24T13:32:16Z</time>
      </trkpt>
      <trkpt lat="43.42747" lon="6.05581">
        <ele>292.60000610352</ele>
        <time>2016-02-24T13:32:18Z</time>
      </trkpt>
      <trkpt lat="43.42749" lon="6.05582">
        <ele>292.60000610352</ele>
        <time>2016-02-24T13:32:19Z</time>
      </trkpt>
      <trkpt lat="43.42749" lon="6.05583">
        <ele>292.79998779297</ele>
        <time>2016-02-24T13:32:20Z</time>
      </trkpt>
      <trkpt lat="43.4275" lon="6.05587">
        <ele>293.39999389648</ele>
        <time>2016-02-24T13:32:22Z</time>
      </trkpt>
      <trkpt lat="43.42751" lon="6.05591">
        <ele>293.79998779297</ele>
        <time>2016-02-24T13:32:24Z</time>
      </trkpt>
      <trkpt lat="43.42752" lon="6.05595">
        <ele>294.39999389648</ele>
        <time>2016-02-24T13:32:26Z</time>
      </trkpt>
      <trkpt lat="43.42752" lon="6.05599">
        <ele>294.39999389648</ele>
        <time>2016-02-24T13:32:28Z</time>
      </trkpt>
      <trkpt lat="43.42753" lon="6.05603">
        <ele>294.60000610352</ele>
        <time>2016-02-24T13:32:30Z</time>
      </trkpt>
      <trkpt lat="43.42753" lon="6.05604">
        <ele>294.79998779297</ele>
        <time>2016-02-24T13:32:31Z</time>
      </trkpt>
      <trkpt lat="43.42752" lon="6.05606">
        <ele>294.79998779297</ele>
        <time>2016-02-24T13:32:32Z</time>
      </trkpt>
      <trkpt lat="43.42752" lon="6.0561">
        <ele>295.39999389648</ele>
        <time>2016-02-24T13:32:34Z</time>
      </trkpt>
      <trkpt lat="43.42751" lon="6.05611">
        <ele>295.60000610352</ele>
        <time>2016-02-24T13:32:35Z</time>
      </trkpt>
      <trkpt lat="43.42751" lon="6.05613">
        <ele>295.60000610352</ele>
        <time>2016-02-24T13:32:36Z</time>
      </trkpt>
      <trkpt lat="43.42751" lon="6.05615">
        <ele>295.79998779297</ele>
        <time>2016-02-24T13:32:37Z</time>
      </trkpt>
      <trkpt lat="43.4275" lon="6.05617">
        <ele>296</ele>
        <time>2016-02-24T13:32:38Z</time>
      </trkpt>
      <trkpt lat="43.42749" lon="6.0562">
        <ele>296.20001220703</ele>
        <time>2016-02-24T13:32:40Z</time>
      </trkpt>
      <trkpt lat="43.42747" lon="6.05624">
        <ele>296.79998779297</ele>
        <time>2016-02-24T13:32:42Z</time>
      </trkpt>
      <trkpt lat="43.42746" lon="6.05627">
        <ele>297</ele>
        <time>2016-02-24T13:32:44Z</time>
      </trkpt>
      <trkpt lat="43.42744" lon="6.05628">
        <ele>297.20001220703</ele>
        <time>2016-02-24T13:32:45Z</time>
      </trkpt>
      <trkpt lat="43.42744" lon="6.0563">
        <ele>297.60000610352</ele>
        <time>2016-02-24T13:32:46Z</time>
      </trkpt>
      <trkpt lat="43.42741" lon="6.05632">
        <ele>297.60000610352</ele>
        <time>2016-02-24T13:32:48Z</time>
      </trkpt>
      <trkpt lat="43.4274" lon="6.05635">
        <ele>298</ele>
        <time>2016-02-24T13:32:50Z</time>
      </trkpt>
      <trkpt lat="43.42737" lon="6.05638">
        <ele>297.60000610352</ele>
        <time>2016-02-24T13:32:52Z</time>
      </trkpt>
      <trkpt lat="43.42735" lon="6.05641">
        <ele>297.79998779297</ele>
        <time>2016-02-24T13:32:54Z</time>
      </trkpt>
      <trkpt lat="43.42732" lon="6.05644">
        <ele>297.79998779297</ele>
        <time>2016-02-24T13:32:56Z</time>
      </trkpt>
      <trkpt lat="43.42731" lon="6.05645">
        <ele>297.79998779297</ele>
        <time>2016-02-24T13:32:57Z</time>
      </trkpt>
      <trkpt lat="43.4273" lon="6.05647">
        <ele>297.79998779297</ele>
        <time>2016-02-24T13:32:58Z</time>
      </trkpt>
      <trkpt lat="43.42728" lon="6.05649">
        <ele>298.20001220703</ele>
        <time>2016-02-24T13:32:59Z</time>
      </trkpt>
      <trkpt lat="43.42728" lon="6.05651">
        <ele>298.39999389648</ele>
        <time>2016-02-24T13:33:00Z</time>
      </trkpt>
      <trkpt lat="43.42727" lon="6.05653">
        <ele>298.39999389648</ele>
        <time>2016-02-24T13:33:02Z</time>
      </trkpt>
      <trkpt lat="43.42725" lon="6.05657">
        <ele>298.79998779297</ele>
        <time>2016-02-24T13:33:04Z</time>
      </trkpt>
      <trkpt lat="43.42724" lon="6.05661">
        <ele>298.79998779297</ele>
        <time>2016-02-24T13:33:06Z</time>
      </trkpt>
      <trkpt lat="43.42724" lon="6.05664">
        <ele>299.39999389648</ele>
        <time>2016-02-24T13:33:08Z</time>
      </trkpt>
      <trkpt lat="43.42722" lon="6.05667">
        <ele>299.39999389648</ele>
        <time>2016-02-24T13:33:10Z</time>
      </trkpt>
      <trkpt lat="43.42721" lon="6.05669">
        <ele>299.60000610352</ele>
        <time>2016-02-24T13:33:11Z</time>
      </trkpt>
      <trkpt lat="43.4272" lon="6.0567">
        <ele>299.79998779297</ele>
        <time>2016-02-24T13:33:12Z</time>
      </trkpt>
      <trkpt lat="43.42719" lon="6.05674">
        <ele>300.20001220703</ele>
        <time>2016-02-24T13:33:14Z</time>
      </trkpt>
      <trkpt lat="43.42717" lon="6.05677">
        <ele>300</ele>
        <time>2016-02-24T13:33:16Z</time>
      </trkpt>
      <trkpt lat="43.42716" lon="6.05678">
        <ele>300.20001220703</ele>
        <time>2016-02-24T13:33:17Z</time>
      </trkpt>
      <trkpt lat="43.42714" lon="6.05678">
        <ele>300.39999389648</ele>
        <time>2016-02-24T13:33:18Z</time>
      </trkpt>
      <trkpt lat="43.42712" lon="6.0568">
        <ele>300.60000610352</ele>
        <time>2016-02-24T13:33:20Z</time>
      </trkpt>
      <trkpt lat="43.4271" lon="6.05682">
        <ele>300.79998779297</ele>
        <time>2016-02-24T13:33:22Z</time>
      </trkpt>
      <trkpt lat="43.42708" lon="6.05684">
        <ele>301.20001220703</ele>
        <time>2016-02-24T13:33:24Z</time>
      </trkpt>
      <trkpt lat="43.42707" lon="6.05686">
        <ele>301.20001220703</ele>
        <time>2016-02-24T13:33:25Z</time>
      </trkpt>
      <trkpt lat="43.42707" lon="6.05687">
        <ele>301.60000610352</ele>
        <time>2016-02-24T13:33:26Z</time>
      </trkpt>
      <trkpt lat="43.42706" lon="6.0569">
        <ele>302</ele>
        <time>2016-02-24T13:33:28Z</time>
      </trkpt>
      <trkpt lat="43.42706" lon="6.05693">
        <ele>302.20001220703</ele>
        <time>2016-02-24T13:33:30Z</time>
      </trkpt>
      <trkpt lat="43.42705" lon="6.05697">
        <ele>302.60000610352</ele>
        <time>2016-02-24T13:33:32Z</time>
      </trkpt>
      <trkpt lat="43.42704" lon="6.057">
        <ele>303.20001220703</ele>
        <time>2016-02-24T13:33:34Z</time>
      </trkpt>
      <trkpt lat="43.42704" lon="6.057">
        <ele>303.39999389648</ele>
        <time>2016-02-24T13:33:36Z</time>
      </trkpt>
      <trkpt lat="43.42704" lon="6.05701">
        <ele>303.39999389648</ele>
        <time>2016-02-24T13:33:37Z</time>
      </trkpt>
      <trkpt lat="43.42704" lon="6.05701">
        <ele>303.20001220703</ele>
        <time>2016-02-24T13:33:38Z</time>
      </trkpt>
      <trkpt lat="43.42704" lon="6.05701">
        <ele>303.39999389648</ele>
        <time>2016-02-24T13:33:40Z</time>
      </trkpt>
      <trkpt lat="43.42703" lon="6.05701">
        <ele>303.60000610352</ele>
        <time>2016-02-24T13:33:42Z</time>
      </trkpt>
      <trkpt lat="43.42703" lon="6.05701">
        <ele>303.39999389648</ele>
        <time>2016-02-24T13:33:44Z</time>
      </trkpt>
      <trkpt lat="43.42703" lon="6.05702">
        <ele>303.39999389648</ele>
        <time>2016-02-24T13:33:45Z</time>
      </trkpt>
      <trkpt lat="43.42703" lon="6.05702">
        <ele>303.39999389648</ele>
        <time>2016-02-24T13:33:46Z</time>
      </trkpt>
      <trkpt lat="43.42703" lon="6.05702">
        <ele>303.60000610352</ele>
        <time>2016-02-24T13:33:48Z</time>
      </trkpt>
      <trkpt lat="43.42703" lon="6.05703">
        <ele>303.79998779297</ele>
        <time>2016-02-24T13:33:50Z</time>
      </trkpt>
      <trkpt lat="43.42704" lon="6.05703">
        <ele>304</ele>
        <time>2016-02-24T13:33:52Z</time>
      </trkpt>
      <trkpt lat="43.42704" lon="6.05703">
        <ele>304</ele>
        <time>2016-02-24T13:33:53Z</time>
      </trkpt>
      <trkpt lat="43.42704" lon="6.05703">
        <ele>304</ele>
        <time>2016-02-24T13:33:54Z</time>
      </trkpt>
      <trkpt lat="43.42704" lon="6.05703">
        <ele>304</ele>
        <time>2016-02-24T13:33:56Z</time>
      </trkpt>
      <trkpt lat="43.42704" lon="6.05703">
        <ele>303.79998779297</ele>
        <time>2016-02-24T13:33:58Z</time>
      </trkpt>
      <trkpt lat="43.42704" lon="6.05703">
        <ele>304</ele>
        <time>2016-02-24T13:34:00Z</time>
      </trkpt>
      <trkpt lat="43.42704" lon="6.05703">
        <ele>304.20001220703</ele>
        <time>2016-02-24T13:34:02Z</time>
      </trkpt>
      <trkpt lat="43.42704" lon="6.05703">
        <ele>304.39999389648</ele>
        <time>2016-02-24T13:34:04Z</time>
      </trkpt>
      <trkpt lat="43.42704" lon="6.05703">
        <ele>304.39999389648</ele>
        <time>2016-02-24T13:34:06Z</time>
      </trkpt>
      <trkpt lat="43.42704" lon="6.05703">
        <ele>304.39999389648</ele>
        <time>2016-02-24T13:34:07Z</time>
      </trkpt>
      <trkpt lat="43.42704" lon="6.05703">
        <ele>304.20001220703</ele>
        <time>2016-02-24T13:34:08Z</time>
      </trkpt>
      <trkpt lat="43.42704" lon="6.05703">
        <ele>304.20001220703</ele>
        <time>2016-02-24T13:34:10Z</time>
      </trkpt>
      <trkpt lat="43.42704" lon="6.05703">
        <ele>304.20001220703</ele>
        <time>2016-02-24T13:34:12Z</time>
      </trkpt>
      <trkpt lat="43.42704" lon="6.05703">
        <ele>304.20001220703</ele>
        <time>2016-02-24T13:34:14Z</time>
      </trkpt>
      <trkpt lat="43.42704" lon="6.05705">
        <ele>304.20001220703</ele>
        <time>2016-02-24T13:34:16Z</time>
      </trkpt>
      <trkpt lat="43.42703" lon="6.05706">
        <ele>304.20001220703</ele>
        <time>2016-02-24T13:34:17Z</time>
      </trkpt>
      <trkpt lat="43.42703" lon="6.05707">
        <ele>304.39999389648</ele>
        <time>2016-02-24T13:34:18Z</time>
      </trkpt>
      <trkpt lat="43.42701" lon="6.05709">
        <ele>304.79998779297</ele>
        <time>2016-02-24T13:34:19Z</time>
      </trkpt>
      <trkpt lat="43.42702" lon="6.0571">
        <ele>304.79998779297</ele>
        <time>2016-02-24T13:34:20Z</time>
      </trkpt>
      <trkpt lat="43.42702" lon="6.0571">
        <ele>304.79998779297</ele>
        <time>2016-02-24T13:34:21Z</time>
      </trkpt>
      <trkpt lat="43.42702" lon="6.0571">
        <ele>304.79998779297</ele>
        <time>2016-02-24T13:34:22Z</time>
      </trkpt>
      <trkpt lat="43.42701" lon="6.05711">
        <ele>304.79998779297</ele>
        <time>2016-02-24T13:34:24Z</time>
      </trkpt>
      <trkpt lat="43.42702" lon="6.05711">
        <ele>305</ele>
        <time>2016-02-24T13:34:26Z</time>
      </trkpt>
      <trkpt lat="43.42702" lon="6.05712">
        <ele>305</ele>
        <time>2016-02-24T13:34:28Z</time>
      </trkpt>
      <trkpt lat="43.42702" lon="6.05712">
        <ele>304.79998779297</ele>
        <time>2016-02-24T13:34:30Z</time>
      </trkpt>
      <trkpt lat="43.42701" lon="6.05715">
        <ele>305</ele>
        <time>2016-02-24T13:34:32Z</time>
      </trkpt>
      <trkpt lat="43.42702" lon="6.05717">
        <ele>304.79998779297</ele>
        <time>2016-02-24T13:34:33Z</time>
      </trkpt>
      <trkpt lat="43.42701" lon="6.0572">
        <ele>305</ele>
        <time>2016-02-24T13:34:34Z</time>
      </trkpt>
      <trkpt lat="43.42701" lon="6.05721">
        <ele>305.79998779297</ele>
        <time>2016-02-24T13:34:35Z</time>
      </trkpt>
      <trkpt lat="43.42701" lon="6.05724">
        <ele>306</ele>
        <time>2016-02-24T13:34:36Z</time>
      </trkpt>
      <trkpt lat="43.427" lon="6.05726">
        <ele>306</ele>
        <time>2016-02-24T13:34:38Z</time>
      </trkpt>
      <trkpt lat="43.42699" lon="6.05731">
        <ele>306.20001220703</ele>
        <time>2016-02-24T13:34:40Z</time>
      </trkpt>
      <trkpt lat="43.42698" lon="6.05732">
        <ele>306.60000610352</ele>
        <time>2016-02-24T13:34:41Z</time>
      </trkpt>
      <trkpt lat="43.42699" lon="6.05734">
        <ele>306.60000610352</ele>
        <time>2016-02-24T13:34:42Z</time>
      </trkpt>
      <trkpt lat="43.427" lon="6.05738">
        <ele>307</ele>
        <time>2016-02-24T13:34:44Z</time>
      </trkpt>
      <trkpt lat="43.42702" lon="6.0574">
        <ele>307.39999389648</ele>
        <time>2016-02-24T13:34:46Z</time>
      </trkpt>
      <trkpt lat="43.42706" lon="6.05741">
        <ele>307.39999389648</ele>
        <time>2016-02-24T13:34:48Z</time>
      </trkpt>
      <trkpt lat="43.42708" lon="6.05741">
        <ele>307.20001220703</ele>
        <time>2016-02-24T13:34:49Z</time>
      </trkpt>
      <trkpt lat="43.4271" lon="6.05741">
        <ele>307.20001220703</ele>
        <time>2016-02-24T13:34:50Z</time>
      </trkpt>
      <trkpt lat="43.42714" lon="6.05741">
        <ele>307.60000610352</ele>
        <time>2016-02-24T13:34:52Z</time>
      </trkpt>
      <trkpt lat="43.42716" lon="6.05742">
        <ele>307.60000610352</ele>
        <time>2016-02-24T13:34:53Z</time>
      </trkpt>
      <trkpt lat="43.42719" lon="6.05742">
        <ele>307.60000610352</ele>
        <time>2016-02-24T13:34:54Z</time>
      </trkpt>
      <trkpt lat="43.42722" lon="6.05742">
        <ele>308</ele>
        <time>2016-02-24T13:34:56Z</time>
      </trkpt>
      <trkpt lat="43.42727" lon="6.05743">
        <ele>308.39999389648</ele>
        <time>2016-02-24T13:34:58Z</time>
      </trkpt>
      <trkpt lat="43.42731" lon="6.05744">
        <ele>308</ele>
        <time>2016-02-24T13:35:00Z</time>
      </trkpt>
      <trkpt lat="43.42734" lon="6.05744">
        <ele>308</ele>
        <time>2016-02-24T13:35:02Z</time>
      </trkpt>
      <trkpt lat="43.42738" lon="6.05745">
        <ele>308.60000610352</ele>
        <time>2016-02-24T13:35:04Z</time>
      </trkpt>
      <trkpt lat="43.42741" lon="6.05745">
        <ele>308.39999389648</ele>
        <time>2016-02-24T13:35:06Z</time>
      </trkpt>
      <trkpt lat="43.42744" lon="6.05746">
        <ele>308.79998779297</ele>
        <time>2016-02-24T13:35:08Z</time>
      </trkpt>
      <trkpt lat="43.42747" lon="6.05746">
        <ele>308.79998779297</ele>
        <time>2016-02-24T13:35:10Z</time>
      </trkpt>
      <trkpt lat="43.42751" lon="6.05747">
        <ele>309</ele>
        <time>2016-02-24T13:35:12Z</time>
      </trkpt>
      <trkpt lat="43.42753" lon="6.05746">
        <ele>309.20001220703</ele>
        <time>2016-02-24T13:35:14Z</time>
      </trkpt>
      <trkpt lat="43.42757" lon="6.05743">
        <ele>309</ele>
        <time>2016-02-24T13:35:16Z</time>
      </trkpt>
      <trkpt lat="43.42758" lon="6.05742">
        <ele>309</ele>
        <time>2016-02-24T13:35:17Z</time>
      </trkpt>
      <trkpt lat="43.4276" lon="6.0574">
        <ele>309.20001220703</ele>
        <time>2016-02-24T13:35:18Z</time>
      </trkpt>
      <trkpt lat="43.42763" lon="6.05738">
        <ele>309.20001220703</ele>
        <time>2016-02-24T13:35:20Z</time>
      </trkpt>
      <trkpt lat="43.42767" lon="6.05736">
        <ele>309</ele>
        <time>2016-02-24T13:35:22Z</time>
      </trkpt>
      <trkpt lat="43.42769" lon="6.05735">
        <ele>309.20001220703</ele>
        <time>2016-02-24T13:35:23Z</time>
      </trkpt>
      <trkpt lat="43.42771" lon="6.05735">
        <ele>309.20001220703</ele>
        <time>2016-02-24T13:35:24Z</time>
      </trkpt>
      <trkpt lat="43.42774" lon="6.05735">
        <ele>309.20001220703</ele>
        <time>2016-02-24T13:35:26Z</time>
      </trkpt>
      <trkpt lat="43.42778" lon="6.05736">
        <ele>309.39999389648</ele>
        <time>2016-02-24T13:35:28Z</time>
      </trkpt>
      <trkpt lat="43.42779" lon="6.05737">
        <ele>309.39999389648</ele>
        <time>2016-02-24T13:35:29Z</time>
      </trkpt>
      <trkpt lat="43.4278" lon="6.05738">
        <ele>309.60000610352</ele>
        <time>2016-02-24T13:35:30Z</time>
      </trkpt>
      <trkpt lat="43.42781" lon="6.05739">
        <ele>310.20001220703</ele>
        <time>2016-02-24T13:35:32Z</time>
      </trkpt>
      <trkpt lat="43.42785" lon="6.0574">
        <ele>310</ele>
        <time>2016-02-24T13:35:34Z</time>
      </trkpt>
      <trkpt lat="43.42787" lon="6.05741">
        <ele>309.79998779297</ele>
        <time>2016-02-24T13:35:36Z</time>
      </trkpt>
      <trkpt lat="43.42789" lon="6.05742">
        <ele>310</ele>
        <time>2016-02-24T13:35:38Z</time>
      </trkpt>
      <trkpt lat="43.4279" lon="6.05745">
        <ele>310.20001220703</ele>
        <time>2016-02-24T13:35:40Z</time>
      </trkpt>
      <trkpt lat="43.42793" lon="6.05747">
        <ele>310.60000610352</ele>
        <time>2016-02-24T13:35:42Z</time>
      </trkpt>
      <trkpt lat="43.42796" lon="6.05747">
        <ele>310.79998779297</ele>
        <time>2016-02-24T13:35:44Z</time>
      </trkpt>
      <trkpt lat="43.42798" lon="6.05747">
        <ele>311</ele>
        <time>2016-02-24T13:35:45Z</time>
      </trkpt>
      <trkpt lat="43.428" lon="6.05746">
        <ele>311</ele>
        <time>2016-02-24T13:35:46Z</time>
      </trkpt>
      <trkpt lat="43.42805" lon="6.05745">
        <ele>311</ele>
        <time>2016-02-24T13:35:48Z</time>
      </trkpt>
      <trkpt lat="43.42809" lon="6.05741">
        <ele>310.60000610352</ele>
        <time>2016-02-24T13:35:50Z</time>
      </trkpt>
      <trkpt lat="43.42814" lon="6.05739">
        <ele>310.79998779297</ele>
        <time>2016-02-24T13:35:52Z</time>
      </trkpt>
      <trkpt lat="43.42819" lon="6.05739">
        <ele>310.60000610352</ele>
        <time>2016-02-24T13:35:54Z</time>
      </trkpt>
      <trkpt lat="43.42823" lon="6.05736">
        <ele>310.39999389648</ele>
        <time>2016-02-24T13:35:56Z</time>
      </trkpt>
      <trkpt lat="43.42826" lon="6.05733">
        <ele>310.39999389648</ele>
        <time>2016-02-24T13:35:58Z</time>
      </trkpt>
      <trkpt lat="43.42827" lon="6.05731">
        <ele>310.39999389648</ele>
        <time>2016-02-24T13:35:59Z</time>
      </trkpt>
      <trkpt lat="43.42828" lon="6.05731">
        <ele>310.39999389648</ele>
        <time>2016-02-24T13:36:00Z</time>
      </trkpt>
      <trkpt lat="43.42828" lon="6.0573">
        <ele>310.60000610352</ele>
        <time>2016-02-24T13:36:02Z</time>
      </trkpt>
      <trkpt lat="43.42828" lon="6.0573">
        <ele>310.39999389648</ele>
        <time>2016-02-24T13:36:03Z</time>
      </trkpt>
      <trkpt lat="43.42828" lon="6.0573">
        <ele>310.39999389648</ele>
        <time>2016-02-24T13:36:06Z</time>
      </trkpt>
      <trkpt lat="43.42828" lon="6.0573">
        <ele>310.20001220703</ele>
        <time>2016-02-24T13:36:08Z</time>
      </trkpt>
      <trkpt lat="43.42828" lon="6.0573">
        <ele>310.20001220703</ele>
        <time>2016-02-24T13:36:10Z</time>
      </trkpt>
      <trkpt lat="43.42828" lon="6.0573">
        <ele>310.39999389648</ele>
        <time>2016-02-24T13:36:12Z</time>
      </trkpt>
      <trkpt lat="43.42828" lon="6.0573">
        <ele>310.39999389648</ele>
        <time>2016-02-24T13:36:14Z</time>
      </trkpt>
      <trkpt lat="43.42828" lon="6.0573">
        <ele>310.60000610352</ele>
        <time>2016-02-24T13:36:16Z</time>
      </trkpt>
      <trkpt lat="43.42829" lon="6.0573">
        <ele>310.39999389648</ele>
        <time>2016-02-24T13:36:18Z</time>
      </trkpt>
      <trkpt lat="43.42829" lon="6.0573">
        <ele>310.39999389648</ele>
        <time>2016-02-24T13:36:20Z</time>
      </trkpt>
      <trkpt lat="43.42829" lon="6.0573">
        <ele>310.39999389648</ele>
        <time>2016-02-24T13:36:22Z</time>
      </trkpt>
      <trkpt lat="43.42829" lon="6.0573">
        <ele>310.39999389648</ele>
        <time>2016-02-24T13:36:24Z</time>
      </trkpt>
      <trkpt lat="43.42829" lon="6.0573">
        <ele>310.39999389648</ele>
        <time>2016-02-24T13:36:26Z</time>
      </trkpt>
      <trkpt lat="43.42829" lon="6.0573">
        <ele>310.60000610352</ele>
        <time>2016-02-24T13:36:28Z</time>
      </trkpt>
      <trkpt lat="43.42829" lon="6.0573">
        <ele>310.60000610352</ele>
        <time>2016-02-24T13:36:30Z</time>
      </trkpt>
      <trkpt lat="43.42829" lon="6.0573">
        <ele>310.39999389648</ele>
        <time>2016-02-24T13:36:32Z</time>
      </trkpt>
      <trkpt lat="43.42829" lon="6.0573">
        <ele>310.60000610352</ele>
        <time>2016-02-24T13:36:34Z</time>
      </trkpt>
      <trkpt lat="43.42829" lon="6.0573">
        <ele>310.60000610352</ele>
        <time>2016-02-24T13:36:36Z</time>
      </trkpt>
      <trkpt lat="43.42829" lon="6.0573">
        <ele>310.60000610352</ele>
        <time>2016-02-24T13:36:38Z</time>
      </trkpt>
      <trkpt lat="43.42829" lon="6.0573">
        <ele>310.20001220703</ele>
        <time>2016-02-24T13:36:40Z</time>
      </trkpt>
      <trkpt lat="43.42829" lon="6.0573">
        <ele>310</ele>
        <time>2016-02-24T13:36:42Z</time>
      </trkpt>
      <trkpt lat="43.42829" lon="6.0573">
        <ele>310.20001220703</ele>
        <time>2016-02-24T13:36:44Z</time>
      </trkpt>
      <trkpt lat="43.42829" lon="6.0573">
        <ele>310.20001220703</ele>
        <time>2016-02-24T13:36:46Z</time>
      </trkpt>
      <trkpt lat="43.42829" lon="6.0573">
        <ele>310.39999389648</ele>
        <time>2016-02-24T13:36:48Z</time>
      </trkpt>
      <trkpt lat="43.42829" lon="6.0573">
        <ele>310.39999389648</ele>
        <time>2016-02-24T13:36:50Z</time>
      </trkpt>
      <trkpt lat="43.42829" lon="6.0573">
        <ele>310.20001220703</ele>
        <time>2016-02-24T13:36:52Z</time>
      </trkpt>
      <trkpt lat="43.42829" lon="6.0573">
        <ele>310.39999389648</ele>
        <time>2016-02-24T13:36:54Z</time>
      </trkpt>
      <trkpt lat="43.42829" lon="6.0573">
        <ele>310.39999389648</ele>
        <time>2016-02-24T13:36:56Z</time>
      </trkpt>
      <trkpt lat="43.42829" lon="6.0573">
        <ele>310.20001220703</ele>
        <time>2016-02-24T13:36:58Z</time>
      </trkpt>
      <trkpt lat="43.42829" lon="6.0573">
        <ele>310.20001220703</ele>
        <time>2016-02-24T13:37:00Z</time>
      </trkpt>
      <trkpt lat="43.42829" lon="6.0573">
        <ele>310.20001220703</ele>
        <time>2016-02-24T13:37:02Z</time>
      </trkpt>
      <trkpt lat="43.42829" lon="6.0573">
        <ele>310</ele>
        <time>2016-02-24T13:37:04Z</time>
      </trkpt>
      <trkpt lat="43.42829" lon="6.0573">
        <ele>310</ele>
        <time>2016-02-24T13:37:06Z</time>
      </trkpt>
      <trkpt lat="43.42829" lon="6.0573">
        <ele>310.39999389648</ele>
        <time>2016-02-24T13:37:08Z</time>
      </trkpt>
      <trkpt lat="43.42829" lon="6.0573">
        <ele>310.39999389648</ele>
        <time>2016-02-24T13:37:10Z</time>
      </trkpt>
      <trkpt lat="43.42829" lon="6.0573">
        <ele>310.39999389648</ele>
        <time>2016-02-24T13:37:12Z</time>
      </trkpt>
      <trkpt lat="43.42829" lon="6.0573">
        <ele>310.20001220703</ele>
        <time>2016-02-24T13:37:14Z</time>
      </trkpt>
      <trkpt lat="43.42829" lon="6.0573">
        <ele>310.20001220703</ele>
        <time>2016-02-24T13:37:16Z</time>
      </trkpt>
      <trkpt lat="43.42829" lon="6.0573">
        <ele>310.20001220703</ele>
        <time>2016-02-24T13:37:18Z</time>
      </trkpt>
      <trkpt lat="43.42829" lon="6.0573">
        <ele>310.20001220703</ele>
        <time>2016-02-24T13:37:20Z</time>
      </trkpt>
      <trkpt lat="43.42829" lon="6.0573">
        <ele>310.39999389648</ele>
        <time>2016-02-24T13:37:22Z</time>
      </trkpt>
      <trkpt lat="43.42829" lon="6.0573">
        <ele>310.60000610352</ele>
        <time>2016-02-24T13:37:24Z</time>
      </trkpt>
      <trkpt lat="43.42829" lon="6.0573">
        <ele>310.39999389648</ele>
        <time>2016-02-24T13:37:26Z</time>
      </trkpt>
      <trkpt lat="43.42829" lon="6.0573">
        <ele>310.20001220703</ele>
        <time>2016-02-24T13:37:27Z</time>
      </trkpt>
      <trkpt lat="43.42829" lon="6.0573">
        <ele>310.20001220703</ele>
        <time>2016-02-24T13:37:28Z</time>
      </trkpt>
      <trkpt lat="43.42829" lon="6.0573">
        <ele>310.20001220703</ele>
        <time>2016-02-24T13:37:30Z</time>
      </trkpt>
      <trkpt lat="43.42829" lon="6.0573">
        <ele>310.20001220703</ele>
        <time>2016-02-24T13:37:32Z</time>
      </trkpt>
      <trkpt lat="43.42829" lon="6.0573">
        <ele>310.20001220703</ele>
        <time>2016-02-24T13:37:34Z</time>
      </trkpt>
      <trkpt lat="43.42829" lon="6.0573">
        <ele>310.20001220703</ele>
        <time>2016-02-24T13:37:36Z</time>
      </trkpt>
      <trkpt lat="43.42829" lon="6.0573">
        <ele>310</ele>
        <time>2016-02-24T13:37:38Z</time>
      </trkpt>
      <trkpt lat="43.42829" lon="6.0573">
        <ele>310.20001220703</ele>
        <time>2016-02-24T13:37:40Z</time>
      </trkpt>
      <trkpt lat="43.42829" lon="6.0573">
        <ele>310.20001220703</ele>
        <time>2016-02-24T13:37:42Z</time>
      </trkpt>
      <trkpt lat="43.42829" lon="6.0573">
        <ele>310.60000610352</ele>
        <time>2016-02-24T13:37:44Z</time>
      </trkpt>
      <trkpt lat="43.42829" lon="6.0573">
        <ele>310.60000610352</ele>
        <time>2016-02-24T13:37:46Z</time>
      </trkpt>
      <trkpt lat="43.42829" lon="6.0573">
        <ele>310.60000610352</ele>
        <time>2016-02-24T13:37:47Z</time>
      </trkpt>
      <trkpt lat="43.42829" lon="6.0573">
        <ele>310.60000610352</ele>
        <time>2016-02-24T13:37:48Z</time>
      </trkpt>
      <trkpt lat="43.42829" lon="6.0573">
        <ele>310.20001220703</ele>
        <time>2016-02-24T13:37:50Z</time>
      </trkpt>
      <trkpt lat="43.42829" lon="6.0573">
        <ele>310</ele>
        <time>2016-02-24T13:37:52Z</time>
      </trkpt>
      <trkpt lat="43.42829" lon="6.0573">
        <ele>310</ele>
        <time>2016-02-24T13:37:54Z</time>
      </trkpt>
      <trkpt lat="43.42829" lon="6.0573">
        <ele>310.39999389648</ele>
        <time>2016-02-24T13:37:56Z</time>
      </trkpt>
      <trkpt lat="43.42829" lon="6.0573">
        <ele>310.39999389648</ele>
        <time>2016-02-24T13:37:58Z</time>
      </trkpt>
      <trkpt lat="43.42829" lon="6.0573">
        <ele>310.39999389648</ele>
        <time>2016-02-24T13:38:00Z</time>
      </trkpt>
      <trkpt lat="43.42829" lon="6.0573">
        <ele>310.20001220703</ele>
        <time>2016-02-24T13:38:02Z</time>
      </trkpt>
      <trkpt lat="43.42829" lon="6.0573">
        <ele>310.20001220703</ele>
        <time>2016-02-24T13:38:04Z</time>
      </trkpt>
      <trkpt lat="43.42829" lon="6.0573">
        <ele>310.39999389648</ele>
        <time>2016-02-24T13:38:06Z</time>
      </trkpt>
      <trkpt lat="43.42829" lon="6.0573">
        <ele>310.39999389648</ele>
        <time>2016-02-24T13:38:08Z</time>
      </trkpt>
      <trkpt lat="43.42829" lon="6.0573">
        <ele>310.39999389648</ele>
        <time>2016-02-24T13:38:10Z</time>
      </trkpt>
      <trkpt lat="43.42829" lon="6.0573">
        <ele>310.39999389648</ele>
        <time>2016-02-24T13:38:12Z</time>
      </trkpt>
      <trkpt lat="43.42829" lon="6.0573">
        <ele>310.20001220703</ele>
        <time>2016-02-24T13:38:14Z</time>
      </trkpt>
      <trkpt lat="43.42829" lon="6.0573">
        <ele>310.39999389648</ele>
        <time>2016-02-24T13:38:15Z</time>
      </trkpt>
      <trkpt lat="43.42829" lon="6.0573">
        <ele>310.20001220703</ele>
        <time>2016-02-24T13:38:16Z</time>
      </trkpt>
      <trkpt lat="43.42829" lon="6.0573">
        <ele>310</ele>
        <time>2016-02-24T13:38:18Z</time>
      </trkpt>
      <trkpt lat="43.42829" lon="6.0573">
        <ele>309.79998779297</ele>
        <time>2016-02-24T13:38:20Z</time>
      </trkpt>
      <trkpt lat="43.42829" lon="6.0573">
        <ele>309.79998779297</ele>
        <time>2016-02-24T13:38:22Z</time>
      </trkpt>
      <trkpt lat="43.42829" lon="6.0573">
        <ele>310</ele>
        <time>2016-02-24T13:38:24Z</time>
      </trkpt>
      <trkpt lat="43.42829" lon="6.0573">
        <ele>310</ele>
        <time>2016-02-24T13:38:26Z</time>
      </trkpt>
      <trkpt lat="43.42829" lon="6.0573">
        <ele>310</ele>
        <time>2016-02-24T13:38:28Z</time>
      </trkpt>
      <trkpt lat="43.42829" lon="6.0573">
        <ele>310</ele>
        <time>2016-02-24T13:38:30Z</time>
      </trkpt>
      <trkpt lat="43.42829" lon="6.0573">
        <ele>310</ele>
        <time>2016-02-24T13:38:32Z</time>
      </trkpt>
      <trkpt lat="43.42829" lon="6.0573">
        <ele>310</ele>
        <time>2016-02-24T13:38:34Z</time>
      </trkpt>
      <trkpt lat="43.42829" lon="6.0573">
        <ele>310.20001220703</ele>
        <time>2016-02-24T13:38:36Z</time>
      </trkpt>
      <trkpt lat="43.42829" lon="6.0573">
        <ele>310.20001220703</ele>
        <time>2016-02-24T13:38:38Z</time>
      </trkpt>
      <trkpt lat="43.42829" lon="6.0573">
        <ele>310.20001220703</ele>
        <time>2016-02-24T13:38:40Z</time>
      </trkpt>
      <trkpt lat="43.42829" lon="6.0573">
        <ele>310.20001220703</ele>
        <time>2016-02-24T13:38:42Z</time>
      </trkpt>
      <trkpt lat="43.42829" lon="6.0573">
        <ele>310.39999389648</ele>
        <time>2016-02-24T13:38:44Z</time>
      </trkpt>
      <trkpt lat="43.42829" lon="6.0573">
        <ele>310.20001220703</ele>
        <time>2016-02-24T13:38:46Z</time>
      </trkpt>
      <trkpt lat="43.42829" lon="6.0573">
        <ele>310</ele>
        <time>2016-02-24T13:38:48Z</time>
      </trkpt>
      <trkpt lat="43.42829" lon="6.0573">
        <ele>310.20001220703</ele>
        <time>2016-02-24T13:38:50Z</time>
      </trkpt>
      <trkpt lat="43.42829" lon="6.0573">
        <ele>310.20001220703</ele>
        <time>2016-02-24T13:38:52Z</time>
      </trkpt>
      <trkpt lat="43.42829" lon="6.0573">
        <ele>310.20001220703</ele>
        <time>2016-02-24T13:38:54Z</time>
      </trkpt>
      <trkpt lat="43.42829" lon="6.0573">
        <ele>310.20001220703</ele>
        <time>2016-02-24T13:38:56Z</time>
      </trkpt>
      <trkpt lat="43.42829" lon="6.0573">
        <ele>310.20001220703</ele>
        <time>2016-02-24T13:38:58Z</time>
      </trkpt>
      <trkpt lat="43.42829" lon="6.0573">
        <ele>310.20001220703</ele>
        <time>2016-02-24T13:38:59Z</time>
      </trkpt>
      <trkpt lat="43.42829" lon="6.0573">
        <ele>310</ele>
        <time>2016-02-24T13:39:00Z</time>
      </trkpt>
      <trkpt lat="43.42829" lon="6.0573">
        <ele>310</ele>
        <time>2016-02-24T13:39:02Z</time>
      </trkpt>
      <trkpt lat="43.42829" lon="6.0573">
        <ele>310.20001220703</ele>
        <time>2016-02-24T13:39:04Z</time>
      </trkpt>
      <trkpt lat="43.42829" lon="6.0573">
        <ele>310.20001220703</ele>
        <time>2016-02-24T13:39:06Z</time>
      </trkpt>
      <trkpt lat="43.42829" lon="6.0573">
        <ele>310</ele>
        <time>2016-02-24T13:39:08Z</time>
      </trkpt>
      <trkpt lat="43.42829" lon="6.0573">
        <ele>310.20001220703</ele>
        <time>2016-02-24T13:39:10Z</time>
      </trkpt>
      <trkpt lat="43.42829" lon="6.0573">
        <ele>310</ele>
        <time>2016-02-24T13:39:12Z</time>
      </trkpt>
      <trkpt lat="43.42829" lon="6.0573">
        <ele>310.20001220703</ele>
        <time>2016-02-24T13:39:14Z</time>
      </trkpt>
      <trkpt lat="43.42829" lon="6.0573">
        <ele>310.20001220703</ele>
        <time>2016-02-24T13:39:16Z</time>
      </trkpt>
      <trkpt lat="43.42829" lon="6.0573">
        <ele>310.39999389648</ele>
        <time>2016-02-24T13:39:18Z</time>
      </trkpt>
      <trkpt lat="43.42829" lon="6.0573">
        <ele>310.39999389648</ele>
        <time>2016-02-24T13:39:20Z</time>
      </trkpt>
      <trkpt lat="43.42829" lon="6.0573">
        <ele>310.60000610352</ele>
        <time>2016-02-24T13:39:22Z</time>
      </trkpt>
      <trkpt lat="43.42829" lon="6.0573">
        <ele>310.20001220703</ele>
        <time>2016-02-24T13:39:24Z</time>
      </trkpt>
      <trkpt lat="43.42829" lon="6.0573">
        <ele>310.20001220703</ele>
        <time>2016-02-24T13:39:26Z</time>
      </trkpt>
      <trkpt lat="43.42829" lon="6.0573">
        <ele>310</ele>
        <time>2016-02-24T13:39:27Z</time>
      </trkpt>
      <trkpt lat="43.42829" lon="6.0573">
        <ele>309.79998779297</ele>
        <time>2016-02-24T13:39:28Z</time>
      </trkpt>
      <trkpt lat="43.42829" lon="6.0573">
        <ele>310</ele>
        <time>2016-02-24T13:39:30Z</time>
      </trkpt>
      <trkpt lat="43.42829" lon="6.0573">
        <ele>309.79998779297</ele>
        <time>2016-02-24T13:39:32Z</time>
      </trkpt>
      <trkpt lat="43.42829" lon="6.0573">
        <ele>309.79998779297</ele>
        <time>2016-02-24T13:39:34Z</time>
      </trkpt>
      <trkpt lat="43.42829" lon="6.0573">
        <ele>309.79998779297</ele>
        <time>2016-02-24T13:39:36Z</time>
      </trkpt>
      <trkpt lat="43.42829" lon="6.0573">
        <ele>310.20001220703</ele>
        <time>2016-02-24T13:39:38Z</time>
      </trkpt>
      <trkpt lat="43.42829" lon="6.0573">
        <ele>310.39999389648</ele>
        <time>2016-02-24T13:39:40Z</time>
      </trkpt>
      <trkpt lat="43.42829" lon="6.0573">
        <ele>310</ele>
        <time>2016-02-24T13:39:42Z</time>
      </trkpt>
      <trkpt lat="43.42829" lon="6.0573">
        <ele>310.20001220703</ele>
        <time>2016-02-24T13:39:44Z</time>
      </trkpt>
      <trkpt lat="43.42829" lon="6.0573">
        <ele>310</ele>
        <time>2016-02-24T13:39:46Z</time>
      </trkpt>
      <trkpt lat="43.42829" lon="6.0573">
        <ele>310</ele>
        <time>2016-02-24T13:39:48Z</time>
      </trkpt>
      <trkpt lat="43.42829" lon="6.0573">
        <ele>310</ele>
        <time>2016-02-24T13:39:50Z</time>
      </trkpt>
      <trkpt lat="43.42829" lon="6.0573">
        <ele>310</ele>
        <time>2016-02-24T13:39:52Z</time>
      </trkpt>
      <trkpt lat="43.42829" lon="6.0573">
        <ele>310</ele>
        <time>2016-02-24T13:39:54Z</time>
      </trkpt>
      <trkpt lat="43.42829" lon="6.0573">
        <ele>310.20001220703</ele>
        <time>2016-02-24T13:39:56Z</time>
      </trkpt>
      <trkpt lat="43.42829" lon="6.0573">
        <ele>310.20001220703</ele>
        <time>2016-02-24T13:39:58Z</time>
      </trkpt>
      <trkpt lat="43.42829" lon="6.0573">
        <ele>310</ele>
        <time>2016-02-24T13:40:00Z</time>
      </trkpt>
      <trkpt lat="43.42829" lon="6.0573">
        <ele>310</ele>
        <time>2016-02-24T13:40:01Z</time>
      </trkpt>
      <trkpt lat="43.42829" lon="6.0573">
        <ele>310</ele>
        <time>2016-02-24T13:40:02Z</time>
      </trkpt>
      <trkpt lat="43.42829" lon="6.0573">
        <ele>310</ele>
        <time>2016-02-24T13:40:04Z</time>
      </trkpt>
      <trkpt lat="43.42829" lon="6.0573">
        <ele>310</ele>
        <time>2016-02-24T13:40:06Z</time>
      </trkpt>
      <trkpt lat="43.42829" lon="6.0573">
        <ele>310.39999389648</ele>
        <time>2016-02-24T13:40:08Z</time>
      </trkpt>
      <trkpt lat="43.42829" lon="6.0573">
        <ele>310.60000610352</ele>
        <time>2016-02-24T13:40:10Z</time>
      </trkpt>
      <trkpt lat="43.42829" lon="6.0573">
        <ele>310.20001220703</ele>
        <time>2016-02-24T13:40:12Z</time>
      </trkpt>
      <trkpt lat="43.42829" lon="6.0573">
        <ele>310</ele>
        <time>2016-02-24T13:40:14Z</time>
      </trkpt>
      <trkpt lat="43.42829" lon="6.0573">
        <ele>310</ele>
        <time>2016-02-24T13:40:16Z</time>
      </trkpt>
      <trkpt lat="43.42829" lon="6.0573">
        <ele>310.20001220703</ele>
        <time>2016-02-24T13:40:18Z</time>
      </trkpt>
      <trkpt lat="43.42829" lon="6.0573">
        <ele>310</ele>
        <time>2016-02-24T13:40:20Z</time>
      </trkpt>
      <trkpt lat="43.42829" lon="6.0573">
        <ele>310.20001220703</ele>
        <time>2016-02-24T13:40:22Z</time>
      </trkpt>
      <trkpt lat="43.42829" lon="6.0573">
        <ele>310.20001220703</ele>
        <time>2016-02-24T13:40:24Z</time>
      </trkpt>
      <trkpt lat="43.42829" lon="6.05731">
        <ele>310.39999389648</ele>
        <time>2016-02-24T13:40:26Z</time>
      </trkpt>
      <trkpt lat="43.42829" lon="6.05731">
        <ele>310.39999389648</ele>
        <time>2016-02-24T13:40:28Z</time>
      </trkpt>
      <trkpt lat="43.42829" lon="6.05731">
        <ele>310</ele>
        <time>2016-02-24T13:40:30Z</time>
      </trkpt>
      <trkpt lat="43.42829" lon="6.05731">
        <ele>309.79998779297</ele>
        <time>2016-02-24T13:40:32Z</time>
      </trkpt>
      <trkpt lat="43.42829" lon="6.05731">
        <ele>309.79998779297</ele>
        <time>2016-02-24T13:40:34Z</time>
      </trkpt>
      <trkpt lat="43.42829" lon="6.05731">
        <ele>310</ele>
        <time>2016-02-24T13:40:36Z</time>
      </trkpt>
      <trkpt lat="43.42829" lon="6.05731">
        <ele>310.20001220703</ele>
        <time>2016-02-24T13:40:38Z</time>
      </trkpt>
      <trkpt lat="43.42829" lon="6.05731">
        <ele>310</ele>
        <time>2016-02-24T13:40:40Z</time>
      </trkpt>
      <trkpt lat="43.42829" lon="6.05731">
        <ele>310</ele>
        <time>2016-02-24T13:40:42Z</time>
      </trkpt>
      <trkpt lat="43.42829" lon="6.05731">
        <ele>309.79998779297</ele>
        <time>2016-02-24T13:40:44Z</time>
      </trkpt>
      <trkpt lat="43.42829" lon="6.05731">
        <ele>309.79998779297</ele>
        <time>2016-02-24T13:40:46Z</time>
      </trkpt>
      <trkpt lat="43.42829" lon="6.05731">
        <ele>310</ele>
        <time>2016-02-24T13:40:47Z</time>
      </trkpt>
      <trkpt lat="43.42829" lon="6.05731">
        <ele>310</ele>
        <time>2016-02-24T13:40:48Z</time>
      </trkpt>
      <trkpt lat="43.42829" lon="6.05731">
        <ele>309.79998779297</ele>
        <time>2016-02-24T13:40:50Z</time>
      </trkpt>
      <trkpt lat="43.42829" lon="6.05731">
        <ele>310</ele>
        <time>2016-02-24T13:40:52Z</time>
      </trkpt>
      <trkpt lat="43.42829" lon="6.05731">
        <ele>310</ele>
        <time>2016-02-24T13:40:54Z</time>
      </trkpt>
      <trkpt lat="43.42829" lon="6.05731">
        <ele>309.79998779297</ele>
        <time>2016-02-24T13:40:56Z</time>
      </trkpt>
      <trkpt lat="43.42829" lon="6.05731">
        <ele>310</ele>
        <time>2016-02-24T13:40:58Z</time>
      </trkpt>
      <trkpt lat="43.42829" lon="6.05731">
        <ele>309.79998779297</ele>
        <time>2016-02-24T13:41:00Z</time>
      </trkpt>
      <trkpt lat="43.42829" lon="6.05731">
        <ele>309.79998779297</ele>
        <time>2016-02-24T13:41:02Z</time>
      </trkpt>
      <trkpt lat="43.42829" lon="6.05731">
        <ele>309.60000610352</ele>
        <time>2016-02-24T13:41:04Z</time>
      </trkpt>
      <trkpt lat="43.42829" lon="6.05731">
        <ele>309.60000610352</ele>
        <time>2016-02-24T13:41:06Z</time>
      </trkpt>
      <trkpt lat="43.42829" lon="6.05731">
        <ele>309.79998779297</ele>
        <time>2016-02-24T13:41:08Z</time>
      </trkpt>
      <trkpt lat="43.42829" lon="6.05731">
        <ele>309.60000610352</ele>
        <time>2016-02-24T13:41:10Z</time>
      </trkpt>
      <trkpt lat="43.42829" lon="6.05731">
        <ele>309.79998779297</ele>
        <time>2016-02-24T13:41:12Z</time>
      </trkpt>
      <trkpt lat="43.42829" lon="6.05731">
        <ele>309.60000610352</ele>
        <time>2016-02-24T13:41:14Z</time>
      </trkpt>
      <trkpt lat="43.42829" lon="6.05731">
        <ele>309.60000610352</ele>
        <time>2016-02-24T13:41:16Z</time>
      </trkpt>
      <trkpt lat="43.42829" lon="6.05731">
        <ele>309.60000610352</ele>
        <time>2016-02-24T13:41:18Z</time>
      </trkpt>
      <trkpt lat="43.42829" lon="6.05731">
        <ele>309.60000610352</ele>
        <time>2016-02-24T13:41:20Z</time>
      </trkpt>
      <trkpt lat="43.42829" lon="6.05731">
        <ele>309.20001220703</ele>
        <time>2016-02-24T13:41:22Z</time>
      </trkpt>
      <trkpt lat="43.42829" lon="6.05731">
        <ele>309.39999389648</ele>
        <time>2016-02-24T13:41:24Z</time>
      </trkpt>
      <trkpt lat="43.42829" lon="6.05731">
        <ele>309.79998779297</ele>
        <time>2016-02-24T13:41:26Z</time>
      </trkpt>
      <trkpt lat="43.42829" lon="6.05731">
        <ele>309.60000610352</ele>
        <time>2016-02-24T13:41:28Z</time>
      </trkpt>
      <trkpt lat="43.42829" lon="6.05731">
        <ele>309.60000610352</ele>
        <time>2016-02-24T13:41:29Z</time>
      </trkpt>
      <trkpt lat="43.42829" lon="6.05731">
        <ele>309.79998779297</ele>
        <time>2016-02-24T13:41:30Z</time>
      </trkpt>
      <trkpt lat="43.42829" lon="6.05731">
        <ele>309.79998779297</ele>
        <time>2016-02-24T13:41:32Z</time>
      </trkpt>
      <trkpt lat="43.42829" lon="6.05731">
        <ele>309.79998779297</ele>
        <time>2016-02-24T13:41:34Z</time>
      </trkpt>
      <trkpt lat="43.42829" lon="6.05731">
        <ele>310</ele>
        <time>2016-02-24T13:41:36Z</time>
      </trkpt>
      <trkpt lat="43.42829" lon="6.05731">
        <ele>310.39999389648</ele>
        <time>2016-02-24T13:41:38Z</time>
      </trkpt>
      <trkpt lat="43.42829" lon="6.05731">
        <ele>310.39999389648</ele>
        <time>2016-02-24T13:41:40Z</time>
      </trkpt>
      <trkpt lat="43.42829" lon="6.05731">
        <ele>310.20001220703</ele>
        <time>2016-02-24T13:41:42Z</time>
      </trkpt>
      <trkpt lat="43.42829" lon="6.05731">
        <ele>310.20001220703</ele>
        <time>2016-02-24T13:41:44Z</time>
      </trkpt>
      <trkpt lat="43.42829" lon="6.05731">
        <ele>310</ele>
        <time>2016-02-24T13:41:46Z</time>
      </trkpt>
      <trkpt lat="43.42829" lon="6.05731">
        <ele>310.20001220703</ele>
        <time>2016-02-24T13:41:48Z</time>
      </trkpt>
      <trkpt lat="43.42829" lon="6.05731">
        <ele>310</ele>
        <time>2016-02-24T13:41:50Z</time>
      </trkpt>
      <trkpt lat="43.42829" lon="6.05731">
        <ele>309.79998779297</ele>
        <time>2016-02-24T13:41:52Z</time>
      </trkpt>
      <trkpt lat="43.42828" lon="6.05731">
        <ele>310</ele>
        <time>2016-02-24T13:41:54Z</time>
      </trkpt>
      <trkpt lat="43.42828" lon="6.05731">
        <ele>310.20001220703</ele>
        <time>2016-02-24T13:41:56Z</time>
      </trkpt>
      <trkpt lat="43.42828" lon="6.05731">
        <ele>310.20001220703</ele>
        <time>2016-02-24T13:41:57Z</time>
      </trkpt>
      <trkpt lat="43.42829" lon="6.05731">
        <ele>310</ele>
        <time>2016-02-24T13:41:58Z</time>
      </trkpt>
      <trkpt lat="43.42829" lon="6.05731">
        <ele>310</ele>
        <time>2016-02-24T13:42:00Z</time>
      </trkpt>
      <trkpt lat="43.42829" lon="6.05731">
        <ele>309.79998779297</ele>
        <time>2016-02-24T13:42:02Z</time>
      </trkpt>
      <trkpt lat="43.42829" lon="6.05731">
        <ele>309.79998779297</ele>
        <time>2016-02-24T13:42:04Z</time>
      </trkpt>
      <trkpt lat="43.42829" lon="6.05731">
        <ele>309.79998779297</ele>
        <time>2016-02-24T13:42:06Z</time>
      </trkpt>
      <trkpt lat="43.42829" lon="6.05731">
        <ele>310</ele>
        <time>2016-02-24T13:42:08Z</time>
      </trkpt>
      <trkpt lat="43.42829" lon="6.05731">
        <ele>309.79998779297</ele>
        <time>2016-02-24T13:42:10Z</time>
      </trkpt>
      <trkpt lat="43.42829" lon="6.05731">
        <ele>309.79998779297</ele>
        <time>2016-02-24T13:42:12Z</time>
      </trkpt>
      <trkpt lat="43.42829" lon="6.05731">
        <ele>310</ele>
        <time>2016-02-24T13:42:14Z</time>
      </trkpt>
      <trkpt lat="43.42829" lon="6.05731">
        <ele>310</ele>
        <time>2016-02-24T13:42:18Z</time>
      </trkpt>
      <trkpt lat="43.42829" lon="6.05731">
        <ele>309.79998779297</ele>
        <time>2016-02-24T13:42:20Z</time>
      </trkpt>
      <trkpt lat="43.42829" lon="6.05731">
        <ele>310</ele>
        <time>2016-02-24T13:42:22Z</time>
      </trkpt>
      <trkpt lat="43.42829" lon="6.05731">
        <ele>310</ele>
        <time>2016-02-24T13:42:24Z</time>
      </trkpt>
      <trkpt lat="43.42829" lon="6.05731">
        <ele>310</ele>
        <time>2016-02-24T13:42:26Z</time>
      </trkpt>
      <trkpt lat="43.42829" lon="6.05731">
        <ele>310</ele>
        <time>2016-02-24T13:42:28Z</time>
      </trkpt>
      <trkpt lat="43.42829" lon="6.05731">
        <ele>310.20001220703</ele>
        <time>2016-02-24T13:42:30Z</time>
      </trkpt>
      <trkpt lat="43.42829" lon="6.05731">
        <ele>310.39999389648</ele>
        <time>2016-02-24T13:42:31Z</time>
      </trkpt>
      <trkpt lat="43.42829" lon="6.05731">
        <ele>310.39999389648</ele>
        <time>2016-02-24T13:42:32Z</time>
      </trkpt>
      <trkpt lat="43.42829" lon="6.05731">
        <ele>310.39999389648</ele>
        <time>2016-02-24T13:42:34Z</time>
      </trkpt>
      <trkpt lat="43.42829" lon="6.05731">
        <ele>310.20001220703</ele>
        <time>2016-02-24T13:42:36Z</time>
      </trkpt>
      <trkpt lat="43.42829" lon="6.05731">
        <ele>310</ele>
        <time>2016-02-24T13:42:38Z</time>
      </trkpt>
      <trkpt lat="43.42829" lon="6.05731">
        <ele>310</ele>
        <time>2016-02-24T13:42:40Z</time>
      </trkpt>
      <trkpt lat="43.42829" lon="6.05731">
        <ele>310</ele>
        <time>2016-02-24T13:42:42Z</time>
      </trkpt>
      <trkpt lat="43.42829" lon="6.05731">
        <ele>309.79998779297</ele>
        <time>2016-02-24T13:42:44Z</time>
      </trkpt>
      <trkpt lat="43.42829" lon="6.05731">
        <ele>309.79998779297</ele>
        <time>2016-02-24T13:42:46Z</time>
      </trkpt>
      <trkpt lat="43.42829" lon="6.05731">
        <ele>309.79998779297</ele>
        <time>2016-02-24T13:42:48Z</time>
      </trkpt>
      <trkpt lat="43.42829" lon="6.05731">
        <ele>309.79998779297</ele>
        <time>2016-02-24T13:42:49Z</time>
      </trkpt>
      <trkpt lat="43.42829" lon="6.05731">
        <ele>309.60000610352</ele>
        <time>2016-02-24T13:42:50Z</time>
      </trkpt>
      <trkpt lat="43.42829" lon="6.05731">
        <ele>309.60000610352</ele>
        <time>2016-02-24T13:42:52Z</time>
      </trkpt>
      <trkpt lat="43.42829" lon="6.05731">
        <ele>309.79998779297</ele>
        <time>2016-02-24T13:42:54Z</time>
      </trkpt>
      <trkpt lat="43.42829" lon="6.05731">
        <ele>310</ele>
        <time>2016-02-24T13:42:56Z</time>
      </trkpt>
      <trkpt lat="43.42829" lon="6.05731">
        <ele>309.79998779297</ele>
        <time>2016-02-24T13:42:58Z</time>
      </trkpt>
      <trkpt lat="43.42829" lon="6.05731">
        <ele>309.79998779297</ele>
        <time>2016-02-24T13:43:00Z</time>
      </trkpt>
      <trkpt lat="43.42829" lon="6.05731">
        <ele>309.79998779297</ele>
        <time>2016-02-24T13:43:02Z</time>
      </trkpt>
      <trkpt lat="43.42829" lon="6.05731">
        <ele>309.60000610352</ele>
        <time>2016-02-24T13:43:04Z</time>
      </trkpt>
      <trkpt lat="43.42829" lon="6.05731">
        <ele>309.60000610352</ele>
        <time>2016-02-24T13:43:06Z</time>
      </trkpt>
      <trkpt lat="43.42829" lon="6.05731">
        <ele>309.60000610352</ele>
        <time>2016-02-24T13:43:08Z</time>
      </trkpt>
      <trkpt lat="43.42829" lon="6.05731">
        <ele>310</ele>
        <time>2016-02-24T13:43:10Z</time>
      </trkpt>
      <trkpt lat="43.42829" lon="6.05731">
        <ele>310</ele>
        <time>2016-02-24T13:43:12Z</time>
      </trkpt>
      <trkpt lat="43.42829" lon="6.05731">
        <ele>310</ele>
        <time>2016-02-24T13:43:14Z</time>
      </trkpt>
      <trkpt lat="43.42829" lon="6.05731">
        <ele>310.20001220703</ele>
        <time>2016-02-24T13:43:16Z</time>
      </trkpt>
      <trkpt lat="43.42829" lon="6.05731">
        <ele>310.20001220703</ele>
        <time>2016-02-24T13:43:18Z</time>
      </trkpt>
      <trkpt lat="43.42829" lon="6.05731">
        <ele>310.20001220703</ele>
        <time>2016-02-24T13:43:19Z</time>
      </trkpt>
      <trkpt lat="43.42829" lon="6.05731">
        <ele>310</ele>
        <time>2016-02-24T13:43:20Z</time>
      </trkpt>
      <trkpt lat="43.42829" lon="6.05731">
        <ele>310</ele>
        <time>2016-02-24T13:43:22Z</time>
      </trkpt>
      <trkpt lat="43.4283" lon="6.05731">
        <ele>310</ele>
        <time>2016-02-24T13:43:24Z</time>
      </trkpt>
      <trkpt lat="43.42832" lon="6.0573">
        <ele>310.39999389648</ele>
        <time>2016-02-24T13:43:26Z</time>
      </trkpt>
      <trkpt lat="43.42834" lon="6.05727">
        <ele>310.20001220703</ele>
        <time>2016-02-24T13:43:28Z</time>
      </trkpt>
      <trkpt lat="43.42837" lon="6.05722">
        <ele>310</ele>
        <time>2016-02-24T13:43:30Z</time>
      </trkpt>
      <trkpt lat="43.42838" lon="6.05718">
        <ele>310.20001220703</ele>
        <time>2016-02-24T13:43:31Z</time>
      </trkpt>
      <trkpt lat="43.42838" lon="6.05714">
        <ele>310.39999389648</ele>
        <time>2016-02-24T13:43:32Z</time>
      </trkpt>
      <trkpt lat="43.42839" lon="6.05705">
        <ele>310.79998779297</ele>
        <time>2016-02-24T13:43:34Z</time>
      </trkpt>
      <trkpt lat="43.42841" lon="6.05694">
        <ele>311.60000610352</ele>
        <time>2016-02-24T13:43:36Z</time>
      </trkpt>
      <trkpt lat="43.42842" lon="6.05681">
        <ele>311.79998779297</ele>
        <time>2016-02-24T13:43:38Z</time>
      </trkpt>
      <trkpt lat="43.42844" lon="6.05668">
        <ele>311.20001220703</ele>
        <time>2016-02-24T13:43:40Z</time>
      </trkpt>
      <trkpt lat="43.42845" lon="6.05661">
        <ele>310.39999389648</ele>
        <time>2016-02-24T13:43:41Z</time>
      </trkpt>
      <trkpt lat="43.42846" lon="6.05654">
        <ele>309.79998779297</ele>
        <time>2016-02-24T13:43:42Z</time>
      </trkpt>
      <trkpt lat="43.42847" lon="6.05648">
        <ele>309.39999389648</ele>
        <time>2016-02-24T13:43:43Z</time>
      </trkpt>
      <trkpt lat="43.42847" lon="6.05641">
        <ele>309.79998779297</ele>
        <time>2016-02-24T13:43:44Z</time>
      </trkpt>
      <trkpt lat="43.42849" lon="6.05628">
        <ele>310</ele>
        <time>2016-02-24T13:43:46Z</time>
      </trkpt>
      <trkpt lat="43.4285" lon="6.05615">
        <ele>309.79998779297</ele>
        <time>2016-02-24T13:43:48Z</time>
      </trkpt>
      <trkpt lat="43.4285" lon="6.05609">
        <ele>309.39999389648</ele>
        <time>2016-02-24T13:43:49Z</time>
      </trkpt>
      <trkpt lat="43.42851" lon="6.05604">
        <ele>309.20001220703</ele>
        <time>2016-02-24T13:43:50Z</time>
      </trkpt>
      <trkpt lat="43.42852" lon="6.05592">
        <ele>309.79998779297</ele>
        <time>2016-02-24T13:43:52Z</time>
      </trkpt>
      <trkpt lat="43.42854" lon="6.0558">
        <ele>310</ele>
        <time>2016-02-24T13:43:54Z</time>
      </trkpt>
      <trkpt lat="43.42856" lon="6.05567">
        <ele>309.60000610352</ele>
        <time>2016-02-24T13:43:56Z</time>
      </trkpt>
      <trkpt lat="43.42857" lon="6.05555">
        <ele>309.39999389648</ele>
        <time>2016-02-24T13:43:58Z</time>
      </trkpt>
      <trkpt lat="43.42858" lon="6.05549">
        <ele>309.20001220703</ele>
        <time>2016-02-24T13:43:59Z</time>
      </trkpt>
      <trkpt lat="43.42861" lon="6.05544">
        <ele>309.20001220703</ele>
        <time>2016-02-24T13:44:00Z</time>
      </trkpt>
      <trkpt lat="43.42864" lon="6.05543">
        <ele>309.20001220703</ele>
        <time>2016-02-24T13:44:01Z</time>
      </trkpt>
      <trkpt lat="43.42867" lon="6.05543">
        <ele>309.39999389648</ele>
        <time>2016-02-24T13:44:02Z</time>
      </trkpt>
      <trkpt lat="43.42874" lon="6.05547">
        <ele>308.39999389648</ele>
        <time>2016-02-24T13:44:04Z</time>
      </trkpt>
      <trkpt lat="43.42882" lon="6.0555">
        <ele>307.60000610352</ele>
        <time>2016-02-24T13:44:06Z</time>
      </trkpt>
      <trkpt lat="43.42886" lon="6.05554">
        <ele>307.79998779297</ele>
        <time>2016-02-24T13:44:07Z</time>
      </trkpt>
      <trkpt lat="43.4289" lon="6.05557">
        <ele>307.79998779297</ele>
        <time>2016-02-24T13:44:08Z</time>
      </trkpt>
      <trkpt lat="43.42894" lon="6.05558">
        <ele>307.60000610352</ele>
        <time>2016-02-24T13:44:09Z</time>
      </trkpt>
      <trkpt lat="43.42899" lon="6.05559">
        <ele>307.39999389648</ele>
        <time>2016-02-24T13:44:10Z</time>
      </trkpt>
      <trkpt lat="43.42903" lon="6.05558">
        <ele>307.39999389648</ele>
        <time>2016-02-24T13:44:11Z</time>
      </trkpt>
      <trkpt lat="43.42908" lon="6.05556">
        <ele>307.39999389648</ele>
        <time>2016-02-24T13:44:12Z</time>
      </trkpt>
      <trkpt lat="43.42916" lon="6.05549">
        <ele>306.39999389648</ele>
        <time>2016-02-24T13:44:14Z</time>
      </trkpt>
      <trkpt lat="43.42926" lon="6.05544">
        <ele>306.60000610352</ele>
        <time>2016-02-24T13:44:16Z</time>
      </trkpt>
      <trkpt lat="43.42929" lon="6.0554">
        <ele>307</ele>
        <time>2016-02-24T13:44:17Z</time>
      </trkpt>
      <trkpt lat="43.42934" lon="6.05535">
        <ele>307</ele>
        <time>2016-02-24T13:44:18Z</time>
      </trkpt>
      <trkpt lat="43.42938" lon="6.05533">
        <ele>306.60000610352</ele>
        <time>2016-02-24T13:44:19Z</time>
      </trkpt>
      <trkpt lat="43.42942" lon="6.05531">
        <ele>306.60000610352</ele>
        <time>2016-02-24T13:44:20Z</time>
      </trkpt>
      <trkpt lat="43.42949" lon="6.05528">
        <ele>306.60000610352</ele>
        <time>2016-02-24T13:44:22Z</time>
      </trkpt>
      <trkpt lat="43.42953" lon="6.05526">
        <ele>306.20001220703</ele>
        <time>2016-02-24T13:44:23Z</time>
      </trkpt>
      <trkpt lat="43.42955" lon="6.05525">
        <ele>306</ele>
        <time>2016-02-24T13:44:24Z</time>
      </trkpt>
      <trkpt lat="43.42961" lon="6.05523">
        <ele>308.20001220703</ele>
        <time>2016-02-24T13:44:26Z</time>
      </trkpt>
      <trkpt lat="43.42963" lon="6.05522">
        <ele>308.60000610352</ele>
        <time>2016-02-24T13:44:27Z</time>
      </trkpt>
      <trkpt lat="43.42965" lon="6.05521">
        <ele>308.79998779297</ele>
        <time>2016-02-24T13:44:28Z</time>
      </trkpt>
      <trkpt lat="43.42969" lon="6.05519">
        <ele>309.39999389648</ele>
        <time>2016-02-24T13:44:30Z</time>
      </trkpt>
      <trkpt lat="43.42973" lon="6.05517">
        <ele>309.60000610352</ele>
        <time>2016-02-24T13:44:32Z</time>
      </trkpt>
      <trkpt lat="43.42974" lon="6.05515">
        <ele>309.79998779297</ele>
        <time>2016-02-24T13:44:33Z</time>
      </trkpt>
      <trkpt lat="43.42976" lon="6.05514">
        <ele>310.39999389648</ele>
        <time>2016-02-24T13:44:34Z</time>
      </trkpt>
      <trkpt lat="43.42978" lon="6.05513">
        <ele>311.20001220703</ele>
        <time>2016-02-24T13:44:35Z</time>
      </trkpt>
      <trkpt lat="43.42979" lon="6.05513">
        <ele>311.39999389648</ele>
        <time>2016-02-24T13:44:36Z</time>
      </trkpt>
      <trkpt lat="43.42983" lon="6.0551">
        <ele>311.39999389648</ele>
        <time>2016-02-24T13:44:38Z</time>
      </trkpt>
      <trkpt lat="43.42986" lon="6.05508">
        <ele>311.79998779297</ele>
        <time>2016-02-24T13:44:40Z</time>
      </trkpt>
      <trkpt lat="43.42987" lon="6.05507">
        <ele>312.20001220703</ele>
        <time>2016-02-24T13:44:42Z</time>
      </trkpt>
      <trkpt lat="43.42988" lon="6.05507">
        <ele>312.39999389648</ele>
        <time>2016-02-24T13:44:44Z</time>
      </trkpt>
      <trkpt lat="43.42989" lon="6.05507">
        <ele>313</ele>
        <time>2016-02-24T13:44:45Z</time>
      </trkpt>
      <trkpt lat="43.4299" lon="6.05507">
        <ele>313.20001220703</ele>
        <time>2016-02-24T13:44:46Z</time>
      </trkpt>
      <trkpt lat="43.42992" lon="6.05507">
        <ele>313.39999389648</ele>
        <time>2016-02-24T13:44:47Z</time>
      </trkpt>
      <trkpt lat="43.42992" lon="6.05507">
        <ele>313.39999389648</ele>
        <time>2016-02-24T13:44:48Z</time>
      </trkpt>
      <trkpt lat="43.42994" lon="6.05507">
        <ele>313.39999389648</ele>
        <time>2016-02-24T13:44:50Z</time>
      </trkpt>
      <trkpt lat="43.42996" lon="6.05506">
        <ele>313.39999389648</ele>
        <time>2016-02-24T13:44:52Z</time>
      </trkpt>
      <trkpt lat="43.42997" lon="6.05506">
        <ele>313.60000610352</ele>
        <time>2016-02-24T13:44:53Z</time>
      </trkpt>
      <trkpt lat="43.42998" lon="6.05506">
        <ele>313.60000610352</ele>
        <time>2016-02-24T13:44:54Z</time>
      </trkpt>
      <trkpt lat="43.42999" lon="6.05506">
        <ele>314</ele>
        <time>2016-02-24T13:44:56Z</time>
      </trkpt>
      <trkpt lat="43.43001" lon="6.05506">
        <ele>314.39999389648</ele>
        <time>2016-02-24T13:44:58Z</time>
      </trkpt>
      <trkpt lat="43.43003" lon="6.05505">
        <ele>314.79998779297</ele>
        <time>2016-02-24T13:45:00Z</time>
      </trkpt>
      <trkpt lat="43.43003" lon="6.05505">
        <ele>315</ele>
        <time>2016-02-24T13:45:01Z</time>
      </trkpt>
      <trkpt lat="43.43005" lon="6.05505">
        <ele>315</ele>
        <time>2016-02-24T13:45:02Z</time>
      </trkpt>
      <trkpt lat="43.43006" lon="6.05505">
        <ele>314.79998779297</ele>
        <time>2016-02-24T13:45:04Z</time>
      </trkpt>
      <trkpt lat="43.43007" lon="6.05506">
        <ele>314.79998779297</ele>
        <time>2016-02-24T13:45:06Z</time>
      </trkpt>
      <trkpt lat="43.43007" lon="6.05506">
        <ele>314.60000610352</ele>
        <time>2016-02-24T13:45:07Z</time>
      </trkpt>
      <trkpt lat="43.43007" lon="6.05506">
        <ele>314.60000610352</ele>
        <time>2016-02-24T13:45:08Z</time>
      </trkpt>
      <trkpt lat="43.43007" lon="6.05506">
        <ele>314.60000610352</ele>
        <time>2016-02-24T13:45:10Z</time>
      </trkpt>
      <trkpt lat="43.43008" lon="6.05506">
        <ele>314.60000610352</ele>
        <time>2016-02-24T13:45:12Z</time>
      </trkpt>
      <trkpt lat="43.43008" lon="6.05506">
        <ele>314.60000610352</ele>
        <time>2016-02-24T13:45:14Z</time>
      </trkpt>
      <trkpt lat="43.43008" lon="6.05506">
        <ele>314.79998779297</ele>
        <time>2016-02-24T13:45:15Z</time>
      </trkpt>
      <trkpt lat="43.43008" lon="6.05506">
        <ele>314.60000610352</ele>
        <time>2016-02-24T13:45:18Z</time>
      </trkpt>
      <trkpt lat="43.43008" lon="6.05506">
        <ele>314.60000610352</ele>
        <time>2016-02-24T13:45:20Z</time>
      </trkpt>
      <trkpt lat="43.43008" lon="6.05505">
        <ele>314.60000610352</ele>
        <time>2016-02-24T13:45:22Z</time>
      </trkpt>
      <trkpt lat="43.43008" lon="6.05505">
        <ele>314.39999389648</ele>
        <time>2016-02-24T13:45:24Z</time>
      </trkpt>
      <trkpt lat="43.43008" lon="6.05506">
        <ele>314.60000610352</ele>
        <time>2016-02-24T13:45:26Z</time>
      </trkpt>
      <trkpt lat="43.43008" lon="6.05506">
        <ele>314.60000610352</ele>
        <time>2016-02-24T13:45:28Z</time>
      </trkpt>
      <trkpt lat="43.43008" lon="6.05506">
        <ele>314.39999389648</ele>
        <time>2016-02-24T13:45:30Z</time>
      </trkpt>
      <trkpt lat="43.43008" lon="6.05506">
        <ele>314.60000610352</ele>
        <time>2016-02-24T13:45:32Z</time>
      </trkpt>
      <trkpt lat="43.43008" lon="6.05506">
        <ele>314.60000610352</ele>
        <time>2016-02-24T13:45:34Z</time>
      </trkpt>
      <trkpt lat="43.43008" lon="6.05506">
        <ele>314.79998779297</ele>
        <time>2016-02-24T13:45:36Z</time>
      </trkpt>
      <trkpt lat="43.43008" lon="6.05506">
        <ele>314.79998779297</ele>
        <time>2016-02-24T13:45:38Z</time>
      </trkpt>
      <trkpt lat="43.43008" lon="6.05506">
        <ele>315</ele>
        <time>2016-02-24T13:45:40Z</time>
      </trkpt>
      <trkpt lat="43.43008" lon="6.05506">
        <ele>314.79998779297</ele>
        <time>2016-02-24T13:45:42Z</time>
      </trkpt>
      <trkpt lat="43.43008" lon="6.05506">
        <ele>314.79998779297</ele>
        <time>2016-02-24T13:45:44Z</time>
      </trkpt>
      <trkpt lat="43.43008" lon="6.05506">
        <ele>314.79998779297</ele>
        <time>2016-02-24T13:45:46Z</time>
      </trkpt>
      <trkpt lat="43.43008" lon="6.05506">
        <ele>314.79998779297</ele>
        <time>2016-02-24T13:45:48Z</time>
      </trkpt>
      <trkpt lat="43.43008" lon="6.05506">
        <ele>314.79998779297</ele>
        <time>2016-02-24T13:45:50Z</time>
      </trkpt>
      <trkpt lat="43.43008" lon="6.05506">
        <ele>314.60000610352</ele>
        <time>2016-02-24T13:45:52Z</time>
      </trkpt>
      <trkpt lat="43.43008" lon="6.05506">
        <ele>314.60000610352</ele>
        <time>2016-02-24T13:45:54Z</time>
      </trkpt>
      <trkpt lat="43.43008" lon="6.05506">
        <ele>315</ele>
        <time>2016-02-24T13:45:56Z</time>
      </trkpt>
      <trkpt lat="43.43008" lon="6.05506">
        <ele>315</ele>
        <time>2016-02-24T13:45:58Z</time>
      </trkpt>
      <trkpt lat="43.43008" lon="6.05506">
        <ele>315</ele>
        <time>2016-02-24T13:45:59Z</time>
      </trkpt>
      <trkpt lat="43.43008" lon="6.05506">
        <ele>314.79998779297</ele>
        <time>2016-02-24T13:46:00Z</time>
      </trkpt>
      <trkpt lat="43.43008" lon="6.05506">
        <ele>314.79998779297</ele>
        <time>2016-02-24T13:46:02Z</time>
      </trkpt>
      <trkpt lat="43.43008" lon="6.05507">
        <ele>314.60000610352</ele>
        <time>2016-02-24T13:46:04Z</time>
      </trkpt>
      <trkpt lat="43.43011" lon="6.05512">
        <ele>314.60000610352</ele>
        <time>2016-02-24T13:46:06Z</time>
      </trkpt>
      <trkpt lat="43.43012" lon="6.05516">
        <ele>314.39999389648</ele>
        <time>2016-02-24T13:46:07Z</time>
      </trkpt>
      <trkpt lat="43.43013" lon="6.05521">
        <ele>314.60000610352</ele>
        <time>2016-02-24T13:46:08Z</time>
      </trkpt>
      <trkpt lat="43.43014" lon="6.05532">
        <ele>314.20001220703</ele>
        <time>2016-02-24T13:46:10Z</time>
      </trkpt>
      <trkpt lat="43.43015" lon="6.05538">
        <ele>313.60000610352</ele>
        <time>2016-02-24T13:46:11Z</time>
      </trkpt>
      <trkpt lat="43.43017" lon="6.05545">
        <ele>313.39999389648</ele>
        <time>2016-02-24T13:46:12Z</time>
      </trkpt>
      <trkpt lat="43.4302" lon="6.05556">
        <ele>313</ele>
        <time>2016-02-24T13:46:14Z</time>
      </trkpt>
      <trkpt lat="43.43021" lon="6.05562">
        <ele>312.60000610352</ele>
        <time>2016-02-24T13:46:15Z</time>
      </trkpt>
      <trkpt lat="43.43022" lon="6.05568">
        <ele>312.79998779297</ele>
        <time>2016-02-24T13:46:16Z</time>
      </trkpt>
      <trkpt lat="43.43023" lon="6.05573">
        <ele>313.20001220703</ele>
        <time>2016-02-24T13:46:17Z</time>
      </trkpt>
      <trkpt lat="43.43026" lon="6.05579">
        <ele>313.20001220703</ele>
        <time>2016-02-24T13:46:18Z</time>
      </trkpt>
      <trkpt lat="43.43026" lon="6.05586">
        <ele>312.20001220703</ele>
        <time>2016-02-24T13:46:20Z</time>
      </trkpt>
      <trkpt lat="43.43027" lon="6.05589">
        <ele>311.79998779297</ele>
        <time>2016-02-24T13:46:21Z</time>
      </trkpt>
      <trkpt lat="43.43029" lon="6.05595">
        <ele>311.79998779297</ele>
        <time>2016-02-24T13:46:22Z</time>
      </trkpt>
      <trkpt lat="43.43029" lon="6.05605">
        <ele>311.79998779297</ele>
        <time>2016-02-24T13:46:24Z</time>
      </trkpt>
      <trkpt lat="43.43028" lon="6.05617">
        <ele>311</ele>
        <time>2016-02-24T13:46:26Z</time>
      </trkpt>
      <trkpt lat="43.43027" lon="6.05622">
        <ele>311.20001220703</ele>
        <time>2016-02-24T13:46:27Z</time>
      </trkpt>
      <trkpt lat="43.43026" lon="6.05628">
        <ele>311</ele>
        <time>2016-02-24T13:46:28Z</time>
      </trkpt>
      <trkpt lat="43.43026" lon="6.05634">
        <ele>310.60000610352</ele>
        <time>2016-02-24T13:46:29Z</time>
      </trkpt>
      <trkpt lat="43.43025" lon="6.05641">
        <ele>309.79998779297</ele>
        <time>2016-02-24T13:46:30Z</time>
      </trkpt>
      <trkpt lat="43.43024" lon="6.05646">
        <ele>309.20001220703</ele>
        <time>2016-02-24T13:46:31Z</time>
      </trkpt>
      <trkpt lat="43.43023" lon="6.05653">
        <ele>308.79998779297</ele>
        <time>2016-02-24T13:46:32Z</time>
      </trkpt>
      <trkpt lat="43.43023" lon="6.05659">
        <ele>308.20001220703</ele>
        <time>2016-02-24T13:46:33Z</time>
      </trkpt>
      <trkpt lat="43.43023" lon="6.05666">
        <ele>308</ele>
        <time>2016-02-24T13:46:34Z</time>
      </trkpt>
      <trkpt lat="43.43026" lon="6.05676">
        <ele>307.79998779297</ele>
        <time>2016-02-24T13:46:36Z</time>
      </trkpt>
      <trkpt lat="43.43027" lon="6.0569">
        <ele>307</ele>
        <time>2016-02-24T13:46:38Z</time>
      </trkpt>
      <trkpt lat="43.43024" lon="6.05699">
        <ele>306.60000610352</ele>
        <time>2016-02-24T13:46:40Z</time>
      </trkpt>
      <trkpt lat="43.43023" lon="6.05702">
        <ele>306.39999389648</ele>
        <time>2016-02-24T13:46:41Z</time>
      </trkpt>
      <trkpt lat="43.43021" lon="6.05706">
        <ele>306.39999389648</ele>
        <time>2016-02-24T13:46:42Z</time>
      </trkpt>
      <trkpt lat="43.43019" lon="6.05717">
        <ele>306</ele>
        <time>2016-02-24T13:46:44Z</time>
      </trkpt>
      <trkpt lat="43.43018" lon="6.05722">
        <ele>305.39999389648</ele>
        <time>2016-02-24T13:46:45Z</time>
      </trkpt>
      <trkpt lat="43.43017" lon="6.05728">
        <ele>304.60000610352</ele>
        <time>2016-02-24T13:46:46Z</time>
      </trkpt>
      <trkpt lat="43.43015" lon="6.05732">
        <ele>304.20001220703</ele>
        <time>2016-02-24T13:46:47Z</time>
      </trkpt>
      <trkpt lat="43.43012" lon="6.05737">
        <ele>304</ele>
        <time>2016-02-24T13:46:48Z</time>
      </trkpt>
      <trkpt lat="43.43006" lon="6.05743">
        <ele>304</ele>
        <time>2016-02-24T13:46:50Z</time>
      </trkpt>
      <trkpt lat="43.43002" lon="6.05755">
        <ele>303.39999389648</ele>
        <time>2016-02-24T13:46:52Z</time>
      </trkpt>
      <trkpt lat="43.43001" lon="6.05766">
        <ele>303.20001220703</ele>
        <time>2016-02-24T13:46:54Z</time>
      </trkpt>
      <trkpt lat="43.43001" lon="6.05771">
        <ele>303</ele>
        <time>2016-02-24T13:46:55Z</time>
      </trkpt>
      <trkpt lat="43.43" lon="6.05774">
        <ele>303.20001220703</ele>
        <time>2016-02-24T13:46:56Z</time>
      </trkpt>
      <trkpt lat="43.42998" lon="6.05779">
        <ele>303.60000610352</ele>
        <time>2016-02-24T13:46:58Z</time>
      </trkpt>
      <trkpt lat="43.42998" lon="6.05789">
        <ele>303</ele>
        <time>2016-02-24T13:47:00Z</time>
      </trkpt>
      <trkpt lat="43.43" lon="6.05799">
        <ele>300.79998779297</ele>
        <time>2016-02-24T13:47:02Z</time>
      </trkpt>
      <trkpt lat="43.43002" lon="6.05805">
        <ele>300</ele>
        <time>2016-02-24T13:47:04Z</time>
      </trkpt>
      <trkpt lat="43.43001" lon="6.05815">
        <ele>299</ele>
        <time>2016-02-24T13:47:06Z</time>
      </trkpt>
      <trkpt lat="43.43001" lon="6.05824">
        <ele>298.39999389648</ele>
        <time>2016-02-24T13:47:08Z</time>
      </trkpt>
      <trkpt lat="43.43001" lon="6.05829">
        <ele>297.60000610352</ele>
        <time>2016-02-24T13:47:09Z</time>
      </trkpt>
      <trkpt lat="43.43002" lon="6.05835">
        <ele>297</ele>
        <time>2016-02-24T13:47:10Z</time>
      </trkpt>
      <trkpt lat="43.43002" lon="6.0584">
        <ele>296.60000610352</ele>
        <time>2016-02-24T13:47:11Z</time>
      </trkpt>
      <trkpt lat="43.43002" lon="6.05844">
        <ele>295.79998779297</ele>
        <time>2016-02-24T13:47:12Z</time>
      </trkpt>
      <trkpt lat="43.43005" lon="6.05851">
        <ele>294.20001220703</ele>
        <time>2016-02-24T13:47:14Z</time>
      </trkpt>
      <trkpt lat="43.43007" lon="6.05853">
        <ele>293.60000610352</ele>
        <time>2016-02-24T13:47:15Z</time>
      </trkpt>
      <trkpt lat="43.43009" lon="6.05856">
        <ele>292.39999389648</ele>
        <time>2016-02-24T13:47:16Z</time>
      </trkpt>
      <trkpt lat="43.43014" lon="6.05859">
        <ele>291</ele>
        <time>2016-02-24T13:47:18Z</time>
      </trkpt>
      <trkpt lat="43.43021" lon="6.05861">
        <ele>289.79998779297</ele>
        <time>2016-02-24T13:47:20Z</time>
      </trkpt>
      <trkpt lat="43.43024" lon="6.05861">
        <ele>288.79998779297</ele>
        <time>2016-02-24T13:47:21Z</time>
      </trkpt>
      <trkpt lat="43.43027" lon="6.05861">
        <ele>288.20001220703</ele>
        <time>2016-02-24T13:47:22Z</time>
      </trkpt>
      <trkpt lat="43.4303" lon="6.0586">
        <ele>287.39999389648</ele>
        <time>2016-02-24T13:47:23Z</time>
      </trkpt>
      <trkpt lat="43.43033" lon="6.05859">
        <ele>287</ele>
        <time>2016-02-24T13:47:24Z</time>
      </trkpt>
      <trkpt lat="43.43036" lon="6.05858">
        <ele>286.60000610352</ele>
        <time>2016-02-24T13:47:25Z</time>
      </trkpt>
      <trkpt lat="43.43039" lon="6.05856">
        <ele>286.20001220703</ele>
        <time>2016-02-24T13:47:26Z</time>
      </trkpt>
      <trkpt lat="43.43046" lon="6.05853">
        <ele>285.60000610352</ele>
        <time>2016-02-24T13:47:28Z</time>
      </trkpt>
      <trkpt lat="43.43051" lon="6.05853">
        <ele>285.20001220703</ele>
        <time>2016-02-24T13:47:29Z</time>
      </trkpt>
      <trkpt lat="43.43057" lon="6.05852">
        <ele>284</ele>
        <time>2016-02-24T13:47:30Z</time>
      </trkpt>
      <trkpt lat="43.43062" lon="6.05851">
        <ele>281.60000610352</ele>
        <time>2016-02-24T13:47:31Z</time>
      </trkpt>
      <trkpt lat="43.43067" lon="6.0585">
        <ele>280.60000610352</ele>
        <time>2016-02-24T13:47:32Z</time>
      </trkpt>
      <trkpt lat="43.43071" lon="6.0585">
        <ele>279.60000610352</ele>
        <time>2016-02-24T13:47:33Z</time>
      </trkpt>
      <trkpt lat="43.43076" lon="6.0585">
        <ele>278.39999389648</ele>
        <time>2016-02-24T13:47:34Z</time>
      </trkpt>
      <trkpt lat="43.43085" lon="6.05847">
        <ele>278.20001220703</ele>
        <time>2016-02-24T13:47:36Z</time>
      </trkpt>
      <trkpt lat="43.43092" lon="6.05845">
        <ele>277</ele>
        <time>2016-02-24T13:47:38Z</time>
      </trkpt>
      <trkpt lat="43.43097" lon="6.05845">
        <ele>275.39999389648</ele>
        <time>2016-02-24T13:47:40Z</time>
      </trkpt>
      <trkpt lat="43.43104" lon="6.05843">
        <ele>273.79998779297</ele>
        <time>2016-02-24T13:47:42Z</time>
      </trkpt>
      <trkpt lat="43.43112" lon="6.05845">
        <ele>272.60000610352</ele>
        <time>2016-02-24T13:47:44Z</time>
      </trkpt>
      <trkpt lat="43.43121" lon="6.05845">
        <ele>270.20001220703</ele>
        <time>2016-02-24T13:47:46Z</time>
      </trkpt>
      <trkpt lat="43.43125" lon="6.05845">
        <ele>269</ele>
        <time>2016-02-24T13:47:47Z</time>
      </trkpt>
      <trkpt lat="43.4313" lon="6.05844">
        <ele>268.39999389648</ele>
        <time>2016-02-24T13:47:48Z</time>
      </trkpt>
      <trkpt lat="43.43135" lon="6.05844">
        <ele>268</ele>
        <time>2016-02-24T13:47:49Z</time>
      </trkpt>
      <trkpt lat="43.43139" lon="6.05843">
        <ele>267.79998779297</ele>
        <time>2016-02-24T13:47:50Z</time>
      </trkpt>
      <trkpt lat="43.43148" lon="6.0584">
        <ele>266.39999389648</ele>
        <time>2016-02-24T13:47:52Z</time>
      </trkpt>
      <trkpt lat="43.43158" lon="6.05837">
        <ele>265</ele>
        <time>2016-02-24T13:47:54Z</time>
      </trkpt>
      <trkpt lat="43.43162" lon="6.05835">
        <ele>263.79998779297</ele>
        <time>2016-02-24T13:47:55Z</time>
      </trkpt>
      <trkpt lat="43.43168" lon="6.05834">
        <ele>263.39999389648</ele>
        <time>2016-02-24T13:47:56Z</time>
      </trkpt>
      <trkpt lat="43.43173" lon="6.05831">
        <ele>263.39999389648</ele>
        <time>2016-02-24T13:47:57Z</time>
      </trkpt>
      <trkpt lat="43.43178" lon="6.05829">
        <ele>262.39999389648</ele>
        <time>2016-02-24T13:47:58Z</time>
      </trkpt>
      <trkpt lat="43.43181" lon="6.05825">
        <ele>261</ele>
        <time>2016-02-24T13:47:59Z</time>
      </trkpt>
      <trkpt lat="43.43182" lon="6.05822">
        <ele>260.39999389648</ele>
        <time>2016-02-24T13:48:00Z</time>
      </trkpt>
      <trkpt lat="43.43181" lon="6.05823">
        <ele>260</ele>
        <time>2016-02-24T13:48:01Z</time>
      </trkpt>
      <trkpt lat="43.43181" lon="6.05823">
        <ele>259.79998779297</ele>
        <time>2016-02-24T13:48:02Z</time>
      </trkpt>
      <trkpt lat="43.43181" lon="6.05822">
        <ele>259.79998779297</ele>
        <time>2016-02-24T13:48:04Z</time>
      </trkpt>
      <trkpt lat="43.43181" lon="6.05822">
        <ele>260</ele>
        <time>2016-02-24T13:48:06Z</time>
      </trkpt>
      <trkpt lat="43.43181" lon="6.05822">
        <ele>260</ele>
        <time>2016-02-24T13:48:08Z</time>
      </trkpt>
      <trkpt lat="43.43181" lon="6.05822">
        <ele>260</ele>
        <time>2016-02-24T13:48:10Z</time>
      </trkpt>
      <trkpt lat="43.43181" lon="6.05822">
        <ele>259.79998779297</ele>
        <time>2016-02-24T13:48:12Z</time>
      </trkpt>
      <trkpt lat="43.43181" lon="6.05822">
        <ele>259.60000610352</ele>
        <time>2016-02-24T13:48:14Z</time>
      </trkpt>
      <trkpt lat="43.43181" lon="6.05822">
        <ele>259.79998779297</ele>
        <time>2016-02-24T13:48:16Z</time>
      </trkpt>
      <trkpt lat="43.43181" lon="6.05822">
        <ele>259.79998779297</ele>
        <time>2016-02-24T13:48:17Z</time>
      </trkpt>
      <trkpt lat="43.43181" lon="6.05822">
        <ele>259.79998779297</ele>
        <time>2016-02-24T13:48:18Z</time>
      </trkpt>
      <trkpt lat="43.43181" lon="6.05822">
        <ele>259.60000610352</ele>
        <time>2016-02-24T13:48:20Z</time>
      </trkpt>
      <trkpt lat="43.43181" lon="6.05822">
        <ele>259.60000610352</ele>
        <time>2016-02-24T13:48:22Z</time>
      </trkpt>
      <trkpt lat="43.43181" lon="6.05822">
        <ele>259.79998779297</ele>
        <time>2016-02-24T13:48:24Z</time>
      </trkpt>
      <trkpt lat="43.43181" lon="6.05821">
        <ele>259.60000610352</ele>
        <time>2016-02-24T13:48:25Z</time>
      </trkpt>
      <trkpt lat="43.43181" lon="6.0582">
        <ele>259.60000610352</ele>
        <time>2016-02-24T13:48:26Z</time>
      </trkpt>
      <trkpt lat="43.43182" lon="6.05818">
        <ele>259.60000610352</ele>
        <time>2016-02-24T13:48:28Z</time>
      </trkpt>
      <trkpt lat="43.43182" lon="6.05819">
        <ele>259.60000610352</ele>
        <time>2016-02-24T13:48:30Z</time>
      </trkpt>
      <trkpt lat="43.43182" lon="6.05819">
        <ele>259.60000610352</ele>
        <time>2016-02-24T13:48:32Z</time>
      </trkpt>
      <trkpt lat="43.43182" lon="6.05818">
        <ele>259.79998779297</ele>
        <time>2016-02-24T13:48:34Z</time>
      </trkpt>
      <trkpt lat="43.43182" lon="6.05818">
        <ele>259.79998779297</ele>
        <time>2016-02-24T13:48:36Z</time>
      </trkpt>
      <trkpt lat="43.43182" lon="6.05818">
        <ele>259.79998779297</ele>
        <time>2016-02-24T13:48:38Z</time>
      </trkpt>
      <trkpt lat="43.43182" lon="6.05818">
        <ele>259.60000610352</ele>
        <time>2016-02-24T13:48:40Z</time>
      </trkpt>
      <trkpt lat="43.43182" lon="6.05818">
        <ele>259.39999389648</ele>
        <time>2016-02-24T13:48:42Z</time>
      </trkpt>
      <trkpt lat="43.43182" lon="6.05818">
        <ele>259.39999389648</ele>
        <time>2016-02-24T13:48:44Z</time>
      </trkpt>
      <trkpt lat="43.43182" lon="6.05818">
        <ele>259.60000610352</ele>
        <time>2016-02-24T13:48:46Z</time>
      </trkpt>
      <trkpt lat="43.43182" lon="6.05818">
        <ele>259.60000610352</ele>
        <time>2016-02-24T13:48:48Z</time>
      </trkpt>
      <trkpt lat="43.43182" lon="6.05818">
        <ele>259.60000610352</ele>
        <time>2016-02-24T13:48:50Z</time>
      </trkpt>
      <trkpt lat="43.43182" lon="6.05818">
        <ele>259.60000610352</ele>
        <time>2016-02-24T13:48:52Z</time>
      </trkpt>
      <trkpt lat="43.43182" lon="6.05818">
        <ele>259.79998779297</ele>
        <time>2016-02-24T13:48:54Z</time>
      </trkpt>
      <trkpt lat="43.43182" lon="6.05818">
        <ele>259.79998779297</ele>
        <time>2016-02-24T13:48:56Z</time>
      </trkpt>
      <trkpt lat="43.43182" lon="6.05818">
        <ele>260</ele>
        <time>2016-02-24T13:48:58Z</time>
      </trkpt>
      <trkpt lat="43.43182" lon="6.05818">
        <ele>260</ele>
        <time>2016-02-24T13:49:00Z</time>
      </trkpt>
      <trkpt lat="43.43182" lon="6.05818">
        <ele>259.79998779297</ele>
        <time>2016-02-24T13:49:02Z</time>
      </trkpt>
      <trkpt lat="43.43182" lon="6.05818">
        <ele>259.60000610352</ele>
        <time>2016-02-24T13:49:04Z</time>
      </trkpt>
      <trkpt lat="43.43182" lon="6.05818">
        <ele>259.79998779297</ele>
        <time>2016-02-24T13:49:06Z</time>
      </trkpt>
      <trkpt lat="43.43182" lon="6.05818">
        <ele>259.79998779297</ele>
        <time>2016-02-24T13:49:08Z</time>
      </trkpt>
      <trkpt lat="43.43182" lon="6.05818">
        <ele>259.39999389648</ele>
        <time>2016-02-24T13:49:10Z</time>
      </trkpt>
      <trkpt lat="43.43182" lon="6.05818">
        <ele>259.39999389648</ele>
        <time>2016-02-24T13:49:12Z</time>
      </trkpt>
      <trkpt lat="43.43182" lon="6.05818">
        <ele>259.39999389648</ele>
        <time>2016-02-24T13:49:14Z</time>
      </trkpt>
      <trkpt lat="43.43182" lon="6.05818">
        <ele>259.60000610352</ele>
        <time>2016-02-24T13:49:16Z</time>
      </trkpt>
      <trkpt lat="43.43182" lon="6.05818">
        <ele>259.79998779297</ele>
        <time>2016-02-24T13:49:18Z</time>
      </trkpt>
      <trkpt lat="43.43182" lon="6.05818">
        <ele>259.79998779297</ele>
        <time>2016-02-24T13:49:20Z</time>
      </trkpt>
      <trkpt lat="43.43182" lon="6.05818">
        <ele>259.79998779297</ele>
        <time>2016-02-24T13:49:21Z</time>
      </trkpt>
      <trkpt lat="43.43182" lon="6.05818">
        <ele>259.79998779297</ele>
        <time>2016-02-24T13:49:24Z</time>
      </trkpt>
      <trkpt lat="43.43182" lon="6.05818">
        <ele>259.60000610352</ele>
        <time>2016-02-24T13:49:26Z</time>
      </trkpt>
      <trkpt lat="43.43182" lon="6.05818">
        <ele>259.60000610352</ele>
        <time>2016-02-24T13:49:28Z</time>
      </trkpt>
      <trkpt lat="43.43182" lon="6.05818">
        <ele>259.79998779297</ele>
        <time>2016-02-24T13:49:30Z</time>
      </trkpt>
      <trkpt lat="43.43182" lon="6.05818">
        <ele>259.79998779297</ele>
        <time>2016-02-24T13:49:32Z</time>
      </trkpt>
      <trkpt lat="43.43182" lon="6.05818">
        <ele>259.79998779297</ele>
        <time>2016-02-24T13:49:33Z</time>
      </trkpt>
      <trkpt lat="43.43182" lon="6.05818">
        <ele>259.79998779297</ele>
        <time>2016-02-24T13:49:34Z</time>
      </trkpt>
      <trkpt lat="43.43182" lon="6.05818">
        <ele>259.39999389648</ele>
        <time>2016-02-24T13:49:36Z</time>
      </trkpt>
      <trkpt lat="43.43182" lon="6.05818">
        <ele>259.60000610352</ele>
        <time>2016-02-24T13:49:38Z</time>
      </trkpt>
      <trkpt lat="43.43182" lon="6.05818">
        <ele>259.60000610352</ele>
        <time>2016-02-24T13:49:40Z</time>
      </trkpt>
      <trkpt lat="43.43182" lon="6.05818">
        <ele>259.79998779297</ele>
        <time>2016-02-24T13:49:42Z</time>
      </trkpt>
      <trkpt lat="43.43182" lon="6.05818">
        <ele>260</ele>
        <time>2016-02-24T13:49:44Z</time>
      </trkpt>
      <trkpt lat="43.43182" lon="6.05818">
        <ele>260</ele>
        <time>2016-02-24T13:49:46Z</time>
      </trkpt>
      <trkpt lat="43.43182" lon="6.05818">
        <ele>260</ele>
        <time>2016-02-24T13:49:48Z</time>
      </trkpt>
      <trkpt lat="43.43182" lon="6.05818">
        <ele>260</ele>
        <time>2016-02-24T13:49:50Z</time>
      </trkpt>
      <trkpt lat="43.43182" lon="6.05818">
        <ele>260</ele>
        <time>2016-02-24T13:49:52Z</time>
      </trkpt>
      <trkpt lat="43.43182" lon="6.05818">
        <ele>259.79998779297</ele>
        <time>2016-02-24T13:49:54Z</time>
      </trkpt>
      <trkpt lat="43.43182" lon="6.05818">
        <ele>259.79998779297</ele>
        <time>2016-02-24T13:49:56Z</time>
      </trkpt>
      <trkpt lat="43.43182" lon="6.05818">
        <ele>259.79998779297</ele>
        <time>2016-02-24T13:49:58Z</time>
      </trkpt>
      <trkpt lat="43.43182" lon="6.05818">
        <ele>259.79998779297</ele>
        <time>2016-02-24T13:50:00Z</time>
      </trkpt>
      <trkpt lat="43.43182" lon="6.05818">
        <ele>259.79998779297</ele>
        <time>2016-02-24T13:50:02Z</time>
      </trkpt>
      <trkpt lat="43.43182" lon="6.05819">
        <ele>259.79998779297</ele>
        <time>2016-02-24T13:50:04Z</time>
      </trkpt>
      <trkpt lat="43.43182" lon="6.05819">
        <ele>259.79998779297</ele>
        <time>2016-02-24T13:50:06Z</time>
      </trkpt>
      <trkpt lat="43.43182" lon="6.05819">
        <ele>259.79998779297</ele>
        <time>2016-02-24T13:50:07Z</time>
      </trkpt>
      <trkpt lat="43.43182" lon="6.05819">
        <ele>259.79998779297</ele>
        <time>2016-02-24T13:50:08Z</time>
      </trkpt>
      <trkpt lat="43.43182" lon="6.05819">
        <ele>259.79998779297</ele>
        <time>2016-02-24T13:50:10Z</time>
      </trkpt>
      <trkpt lat="43.43182" lon="6.05819">
        <ele>259.79998779297</ele>
        <time>2016-02-24T13:50:12Z</time>
      </trkpt>
      <trkpt lat="43.43182" lon="6.05819">
        <ele>259.79998779297</ele>
        <time>2016-02-24T13:50:14Z</time>
      </trkpt>
      <trkpt lat="43.43182" lon="6.05819">
        <ele>259.79998779297</ele>
        <time>2016-02-24T13:50:16Z</time>
      </trkpt>
      <trkpt lat="43.43182" lon="6.05819">
        <ele>259.79998779297</ele>
        <time>2016-02-24T13:50:18Z</time>
      </trkpt>
      <trkpt lat="43.43182" lon="6.05819">
        <ele>260</ele>
        <time>2016-02-24T13:50:20Z</time>
      </trkpt>
      <trkpt lat="43.43182" lon="6.05819">
        <ele>260</ele>
        <time>2016-02-24T13:50:22Z</time>
      </trkpt>
      <trkpt lat="43.43182" lon="6.05819">
        <ele>260</ele>
        <time>2016-02-24T13:50:24Z</time>
      </trkpt>
      <trkpt lat="43.43182" lon="6.05819">
        <ele>260</ele>
        <time>2016-02-24T13:50:26Z</time>
      </trkpt>
      <trkpt lat="43.43182" lon="6.05819">
        <ele>260</ele>
        <time>2016-02-24T13:50:27Z</time>
      </trkpt>
      <trkpt lat="43.43182" lon="6.05819">
        <ele>260</ele>
        <time>2016-02-24T13:50:28Z</time>
      </trkpt>
      <trkpt lat="43.43182" lon="6.05819">
        <ele>259.79998779297</ele>
        <time>2016-02-24T13:50:30Z</time>
      </trkpt>
      <trkpt lat="43.43182" lon="6.05819">
        <ele>260</ele>
        <time>2016-02-24T13:50:32Z</time>
      </trkpt>
      <trkpt lat="43.43182" lon="6.05819">
        <ele>260.20001220703</ele>
        <time>2016-02-24T13:50:34Z</time>
      </trkpt>
      <trkpt lat="43.43182" lon="6.05819">
        <ele>260</ele>
        <time>2016-02-24T13:50:36Z</time>
      </trkpt>
      <trkpt lat="43.43182" lon="6.05819">
        <ele>260.20001220703</ele>
        <time>2016-02-24T13:50:38Z</time>
      </trkpt>
      <trkpt lat="43.43182" lon="6.05819">
        <ele>260</ele>
        <time>2016-02-24T13:50:40Z</time>
      </trkpt>
      <trkpt lat="43.43182" lon="6.05819">
        <ele>259.79998779297</ele>
        <time>2016-02-24T13:50:42Z</time>
      </trkpt>
      <trkpt lat="43.43182" lon="6.05819">
        <ele>260</ele>
        <time>2016-02-24T13:50:44Z</time>
      </trkpt>
      <trkpt lat="43.43182" lon="6.05819">
        <ele>259.79998779297</ele>
        <time>2016-02-24T13:50:46Z</time>
      </trkpt>
      <trkpt lat="43.43182" lon="6.05819">
        <ele>259.79998779297</ele>
        <time>2016-02-24T13:50:47Z</time>
      </trkpt>
      <trkpt lat="43.43182" lon="6.05819">
        <ele>259.79998779297</ele>
        <time>2016-02-24T13:50:48Z</time>
      </trkpt>
      <trkpt lat="43.43182" lon="6.05819">
        <ele>259.79998779297</ele>
        <time>2016-02-24T13:50:50Z</time>
      </trkpt>
      <trkpt lat="43.43182" lon="6.05819">
        <ele>259.79998779297</ele>
        <time>2016-02-24T13:50:52Z</time>
      </trkpt>
      <trkpt lat="43.43182" lon="6.05819">
        <ele>259.79998779297</ele>
        <time>2016-02-24T13:50:54Z</time>
      </trkpt>
      <trkpt lat="43.43182" lon="6.05819">
        <ele>260</ele>
        <time>2016-02-24T13:50:56Z</time>
      </trkpt>
      <trkpt lat="43.43182" lon="6.05819">
        <ele>260</ele>
        <time>2016-02-24T13:50:58Z</time>
      </trkpt>
      <trkpt lat="43.43182" lon="6.05819">
        <ele>260</ele>
        <time>2016-02-24T13:51:00Z</time>
      </trkpt>
      <trkpt lat="43.43182" lon="6.05819">
        <ele>260</ele>
        <time>2016-02-24T13:51:02Z</time>
      </trkpt>
      <trkpt lat="43.43182" lon="6.05819">
        <ele>260.20001220703</ele>
        <time>2016-02-24T13:51:04Z</time>
      </trkpt>
      <trkpt lat="43.43182" lon="6.05819">
        <ele>260.20001220703</ele>
        <time>2016-02-24T13:51:05Z</time>
      </trkpt>
      <trkpt lat="43.43182" lon="6.05819">
        <ele>260.20001220703</ele>
        <time>2016-02-24T13:51:08Z</time>
      </trkpt>
      <trkpt lat="43.43182" lon="6.05819">
        <ele>260.20001220703</ele>
        <time>2016-02-24T13:51:10Z</time>
      </trkpt>
      <trkpt lat="43.43182" lon="6.05819">
        <ele>260</ele>
        <time>2016-02-24T13:51:12Z</time>
      </trkpt>
      <trkpt lat="43.43182" lon="6.05819">
        <ele>260</ele>
        <time>2016-02-24T13:51:14Z</time>
      </trkpt>
      <trkpt lat="43.43182" lon="6.05818">
        <ele>259.79998779297</ele>
        <time>2016-02-24T13:51:16Z</time>
      </trkpt>
      <trkpt lat="43.43182" lon="6.05818">
        <ele>260</ele>
        <time>2016-02-24T13:51:18Z</time>
      </trkpt>
      <trkpt lat="43.43182" lon="6.05818">
        <ele>259.79998779297</ele>
        <time>2016-02-24T13:51:19Z</time>
      </trkpt>
      <trkpt lat="43.43183" lon="6.05816">
        <ele>260</ele>
        <time>2016-02-24T13:51:20Z</time>
      </trkpt>
      <trkpt lat="43.43184" lon="6.05814">
        <ele>259.79998779297</ele>
        <time>2016-02-24T13:51:22Z</time>
      </trkpt>
      <trkpt lat="43.43185" lon="6.05809">
        <ele>259.60000610352</ele>
        <time>2016-02-24T13:51:24Z</time>
      </trkpt>
      <trkpt lat="43.43188" lon="6.05804">
        <ele>260</ele>
        <time>2016-02-24T13:51:26Z</time>
      </trkpt>
      <trkpt lat="43.4319" lon="6.058">
        <ele>260.20001220703</ele>
        <time>2016-02-24T13:51:28Z</time>
      </trkpt>
      <trkpt lat="43.43194" lon="6.05794">
        <ele>259.79998779297</ele>
        <time>2016-02-24T13:51:30Z</time>
      </trkpt>
      <trkpt lat="43.43198" lon="6.05788">
        <ele>259.39999389648</ele>
        <time>2016-02-24T13:51:32Z</time>
      </trkpt>
      <trkpt lat="43.43202" lon="6.05781">
        <ele>259.39999389648</ele>
        <time>2016-02-24T13:51:34Z</time>
      </trkpt>
      <trkpt lat="43.43204" lon="6.05773">
        <ele>259</ele>
        <time>2016-02-24T13:51:36Z</time>
      </trkpt>
      <trkpt lat="43.43205" lon="6.05769">
        <ele>258.79998779297</ele>
        <time>2016-02-24T13:51:37Z</time>
      </trkpt>
      <trkpt lat="43.43206" lon="6.05764">
        <ele>258.79998779297</ele>
        <time>2016-02-24T13:51:38Z</time>
      </trkpt>
      <trkpt lat="43.43209" lon="6.05758">
        <ele>258.79998779297</ele>
        <time>2016-02-24T13:51:40Z</time>
      </trkpt>
      <trkpt lat="43.4321" lon="6.05754">
        <ele>259</ele>
        <time>2016-02-24T13:51:41Z</time>
      </trkpt>
      <trkpt lat="43.43211" lon="6.05749">
        <ele>259</ele>
        <time>2016-02-24T13:51:42Z</time>
      </trkpt>
      <trkpt lat="43.43213" lon="6.05745">
        <ele>259</ele>
        <time>2016-02-24T13:51:43Z</time>
      </trkpt>
      <trkpt lat="43.43213" lon="6.05741">
        <ele>258.60000610352</ele>
        <time>2016-02-24T13:51:44Z</time>
      </trkpt>
      <trkpt lat="43.43213" lon="6.05736">
        <ele>258.39999389648</ele>
        <time>2016-02-24T13:51:46Z</time>
      </trkpt>
      <trkpt lat="43.43213" lon="6.05735">
        <ele>258.39999389648</ele>
        <time>2016-02-24T13:51:47Z</time>
      </trkpt>
      <trkpt lat="43.43214" lon="6.05733">
        <ele>258.39999389648</ele>
        <time>2016-02-24T13:51:48Z</time>
      </trkpt>
      <trkpt lat="43.43214" lon="6.05726">
        <ele>258.39999389648</ele>
        <time>2016-02-24T13:51:50Z</time>
      </trkpt>
      <trkpt lat="43.43215" lon="6.05718">
        <ele>259</ele>
        <time>2016-02-24T13:51:52Z</time>
      </trkpt>
      <trkpt lat="43.43216" lon="6.05709">
        <ele>258.60000610352</ele>
        <time>2016-02-24T13:51:54Z</time>
      </trkpt>
      <trkpt lat="43.43217" lon="6.05699">
        <ele>258.79998779297</ele>
        <time>2016-02-24T13:51:56Z</time>
      </trkpt>
      <trkpt lat="43.43219" lon="6.05688">
        <ele>258.39999389648</ele>
        <time>2016-02-24T13:51:58Z</time>
      </trkpt>
      <trkpt lat="43.43219" lon="6.05676">
        <ele>258</ele>
        <time>2016-02-24T13:52:00Z</time>
      </trkpt>
      <trkpt lat="43.4322" lon="6.05665">
        <ele>258.20001220703</ele>
        <time>2016-02-24T13:52:02Z</time>
      </trkpt>
      <trkpt lat="43.4322" lon="6.05654">
        <ele>258.39999389648</ele>
        <time>2016-02-24T13:52:04Z</time>
      </trkpt>
      <trkpt lat="43.43221" lon="6.0565">
        <ele>258.20001220703</ele>
        <time>2016-02-24T13:52:05Z</time>
      </trkpt>
      <trkpt lat="43.43221" lon="6.05645">
        <ele>258</ele>
        <time>2016-02-24T13:52:06Z</time>
      </trkpt>
      <trkpt lat="43.43222" lon="6.0564">
        <ele>257.79998779297</ele>
        <time>2016-02-24T13:52:07Z</time>
      </trkpt>
      <trkpt lat="43.43223" lon="6.05634">
        <ele>257.60000610352</ele>
        <time>2016-02-24T13:52:08Z</time>
      </trkpt>
      <trkpt lat="43.43224" lon="6.05622">
        <ele>257.60000610352</ele>
        <time>2016-02-24T13:52:10Z</time>
      </trkpt>
      <trkpt lat="43.43225" lon="6.05616">
        <ele>257.60000610352</ele>
        <time>2016-02-24T13:52:11Z</time>
      </trkpt>
      <trkpt lat="43.43225" lon="6.0561">
        <ele>257.60000610352</ele>
        <time>2016-02-24T13:52:12Z</time>
      </trkpt>
      <trkpt lat="43.43227" lon="6.05597">
        <ele>257.39999389648</ele>
        <time>2016-02-24T13:52:14Z</time>
      </trkpt>
      <trkpt lat="43.43228" lon="6.05584">
        <ele>257</ele>
        <time>2016-02-24T13:52:16Z</time>
      </trkpt>
      <trkpt lat="43.43229" lon="6.0557">
        <ele>257.60000610352</ele>
        <time>2016-02-24T13:52:18Z</time>
      </trkpt>
      <trkpt lat="43.4323" lon="6.05564">
        <ele>257.60000610352</ele>
        <time>2016-02-24T13:52:19Z</time>
      </trkpt>
      <trkpt lat="43.43232" lon="6.05557">
        <ele>257.60000610352</ele>
        <time>2016-02-24T13:52:20Z</time>
      </trkpt>
      <trkpt lat="43.43235" lon="6.05545">
        <ele>257.20001220703</ele>
        <time>2016-02-24T13:52:22Z</time>
      </trkpt>
      <trkpt lat="43.43239" lon="6.05531">
        <ele>257</ele>
        <time>2016-02-24T13:52:24Z</time>
      </trkpt>
      <trkpt lat="43.43241" lon="6.05524">
        <ele>257</ele>
        <time>2016-02-24T13:52:25Z</time>
      </trkpt>
      <trkpt lat="43.43243" lon="6.05516">
        <ele>256.79998779297</ele>
        <time>2016-02-24T13:52:26Z</time>
      </trkpt>
      <trkpt lat="43.43245" lon="6.05509">
        <ele>255.39999389648</ele>
        <time>2016-02-24T13:52:27Z</time>
      </trkpt>
      <trkpt lat="43.43248" lon="6.055">
        <ele>254.19999694824</ele>
        <time>2016-02-24T13:52:28Z</time>
      </trkpt>
      <trkpt lat="43.43253" lon="6.05482">
        <ele>253.80000305176</ele>
        <time>2016-02-24T13:52:30Z</time>
      </trkpt>
      <trkpt lat="43.43256" lon="6.05474">
        <ele>254.39999389648</ele>
        <time>2016-02-24T13:52:31Z</time>
      </trkpt>
      <trkpt lat="43.4326" lon="6.05465">
        <ele>254</ele>
        <time>2016-02-24T13:52:32Z</time>
      </trkpt>
      <trkpt lat="43.43267" lon="6.05445">
        <ele>253.60000610352</ele>
        <time>2016-02-24T13:52:34Z</time>
      </trkpt>
      <trkpt lat="43.43274" lon="6.05426">
        <ele>252.60000610352</ele>
        <time>2016-02-24T13:52:36Z</time>
      </trkpt>
      <trkpt lat="43.43281" lon="6.05408">
        <ele>251.39999389648</ele>
        <time>2016-02-24T13:52:38Z</time>
      </trkpt>
      <trkpt lat="43.43288" lon="6.05391">
        <ele>251.19999694824</ele>
        <time>2016-02-24T13:52:40Z</time>
      </trkpt>
      <trkpt lat="43.43291" lon="6.05384">
        <ele>251.39999389648</ele>
        <time>2016-02-24T13:52:41Z</time>
      </trkpt>
      <trkpt lat="43.43295" lon="6.05375">
        <ele>251.80000305176</ele>
        <time>2016-02-24T13:52:42Z</time>
      </trkpt>
      <trkpt lat="43.43297" lon="6.05368">
        <ele>251.60000610352</ele>
        <time>2016-02-24T13:52:43Z</time>
      </trkpt>
      <trkpt lat="43.43299" lon="6.05361">
        <ele>251.39999389648</ele>
        <time>2016-02-24T13:52:44Z</time>
      </trkpt>
      <trkpt lat="43.43303" lon="6.05355">
        <ele>251.19999694824</ele>
        <time>2016-02-24T13:52:45Z</time>
      </trkpt>
      <trkpt lat="43.43306" lon="6.05349">
        <ele>251.19999694824</ele>
        <time>2016-02-24T13:52:46Z</time>
      </trkpt>
      <trkpt lat="43.43312" lon="6.05338">
        <ele>251.80000305176</ele>
        <time>2016-02-24T13:52:48Z</time>
      </trkpt>
      <trkpt lat="43.43318" lon="6.05326">
        <ele>251</ele>
        <time>2016-02-24T13:52:50Z</time>
      </trkpt>
      <trkpt lat="43.43321" lon="6.0532">
        <ele>251</ele>
        <time>2016-02-24T13:52:51Z</time>
      </trkpt>
      <trkpt lat="43.43324" lon="6.05313">
        <ele>251</ele>
        <time>2016-02-24T13:52:52Z</time>
      </trkpt>
      <trkpt lat="43.43327" lon="6.05306">
        <ele>251.19999694824</ele>
        <time>2016-02-24T13:52:53Z</time>
      </trkpt>
      <trkpt lat="43.4333" lon="6.053">
        <ele>251.19999694824</ele>
        <time>2016-02-24T13:52:54Z</time>
      </trkpt>
      <trkpt lat="43.43336" lon="6.05285">
        <ele>251.19999694824</ele>
        <time>2016-02-24T13:52:56Z</time>
      </trkpt>
      <trkpt lat="43.43342" lon="6.0527">
        <ele>250.60000610352</ele>
        <time>2016-02-24T13:52:58Z</time>
      </trkpt>
      <trkpt lat="43.43345" lon="6.05263">
        <ele>250.60000610352</ele>
        <time>2016-02-24T13:52:59Z</time>
      </trkpt>
      <trkpt lat="43.43348" lon="6.05256">
        <ele>250.60000610352</ele>
        <time>2016-02-24T13:53:00Z</time>
      </trkpt>
      <trkpt lat="43.43351" lon="6.05249">
        <ele>250.60000610352</ele>
        <time>2016-02-24T13:53:01Z</time>
      </trkpt>
      <trkpt lat="43.43354" lon="6.05241">
        <ele>250.19999694824</ele>
        <time>2016-02-24T13:53:02Z</time>
      </trkpt>
      <trkpt lat="43.43357" lon="6.05234">
        <ele>250.19999694824</ele>
        <time>2016-02-24T13:53:03Z</time>
      </trkpt>
      <trkpt lat="43.43359" lon="6.05227">
        <ele>250.19999694824</ele>
        <time>2016-02-24T13:53:04Z</time>
      </trkpt>
      <trkpt lat="43.43364" lon="6.05212">
        <ele>249.60000610352</ele>
        <time>2016-02-24T13:53:06Z</time>
      </trkpt>
      <trkpt lat="43.43369" lon="6.052">
        <ele>249.60000610352</ele>
        <time>2016-02-24T13:53:08Z</time>
      </trkpt>
      <trkpt lat="43.43371" lon="6.05195">
        <ele>250.19999694824</ele>
        <time>2016-02-24T13:53:09Z</time>
      </trkpt>
      <trkpt lat="43.43373" lon="6.05189">
        <ele>250.39999389648</ele>
        <time>2016-02-24T13:53:10Z</time>
      </trkpt>
      <trkpt lat="43.43374" lon="6.05183">
        <ele>251</ele>
        <time>2016-02-24T13:53:11Z</time>
      </trkpt>
      <trkpt lat="43.43375" lon="6.05177">
        <ele>251.39999389648</ele>
        <time>2016-02-24T13:53:12Z</time>
      </trkpt>
      <trkpt lat="43.43378" lon="6.05167">
        <ele>251</ele>
        <time>2016-02-24T13:53:14Z</time>
      </trkpt>
      <trkpt lat="43.43382" lon="6.05157">
        <ele>251.39999389648</ele>
        <time>2016-02-24T13:53:16Z</time>
      </trkpt>
      <trkpt lat="43.43383" lon="6.05153">
        <ele>251.80000305176</ele>
        <time>2016-02-24T13:53:17Z</time>
      </trkpt>
      <trkpt lat="43.43385" lon="6.05149">
        <ele>252</ele>
        <time>2016-02-24T13:53:18Z</time>
      </trkpt>
      <trkpt lat="43.43385" lon="6.05144">
        <ele>252.19999694824</ele>
        <time>2016-02-24T13:53:19Z</time>
      </trkpt>
      <trkpt lat="43.43386" lon="6.0514">
        <ele>252.19999694824</ele>
        <time>2016-02-24T13:53:20Z</time>
      </trkpt>
      <trkpt lat="43.43388" lon="6.05132">
        <ele>252.80000305176</ele>
        <time>2016-02-24T13:53:22Z</time>
      </trkpt>
      <trkpt lat="43.4339" lon="6.05127">
        <ele>253</ele>
        <time>2016-02-24T13:53:24Z</time>
      </trkpt>
      <trkpt lat="43.4339" lon="6.05123">
        <ele>253.19999694824</ele>
        <time>2016-02-24T13:53:26Z</time>
      </trkpt>
      <trkpt lat="43.43391" lon="6.05123">
        <ele>253.19999694824</ele>
        <time>2016-02-24T13:53:27Z</time>
      </trkpt>
      <trkpt lat="43.43391" lon="6.05122">
        <ele>253.19999694824</ele>
        <time>2016-02-24T13:53:28Z</time>
      </trkpt>
      <trkpt lat="43.43391" lon="6.05122">
        <ele>253.19999694824</ele>
        <time>2016-02-24T13:53:29Z</time>
      </trkpt>
      <trkpt lat="43.4339" lon="6.05122">
        <ele>253</ele>
        <time>2016-02-24T13:53:30Z</time>
      </trkpt>
      <trkpt lat="43.43391" lon="6.05122">
        <ele>253.19999694824</ele>
        <time>2016-02-24T13:53:32Z</time>
      </trkpt>
      <trkpt lat="43.43391" lon="6.05122">
        <ele>253.19999694824</ele>
        <time>2016-02-24T13:53:33Z</time>
      </trkpt>
      <trkpt lat="43.43391" lon="6.05122">
        <ele>253.19999694824</ele>
        <time>2016-02-24T13:53:34Z</time>
      </trkpt>
      <trkpt lat="43.43391" lon="6.05122">
        <ele>253.19999694824</ele>
        <time>2016-02-24T13:53:36Z</time>
      </trkpt>
      <trkpt lat="43.43391" lon="6.05122">
        <ele>253.19999694824</ele>
        <time>2016-02-24T13:53:38Z</time>
      </trkpt>
      <trkpt lat="43.43391" lon="6.05122">
        <ele>253</ele>
        <time>2016-02-24T13:53:40Z</time>
      </trkpt>
      <trkpt lat="43.43391" lon="6.05121">
        <ele>253.19999694824</ele>
        <time>2016-02-24T13:53:42Z</time>
      </trkpt>
      <trkpt lat="43.43391" lon="6.05121">
        <ele>253</ele>
        <time>2016-02-24T13:53:44Z</time>
      </trkpt>
      <trkpt lat="43.43391" lon="6.05121">
        <ele>253</ele>
        <time>2016-02-24T13:53:45Z</time>
      </trkpt>
      <trkpt lat="43.43391" lon="6.05121">
        <ele>252.80000305176</ele>
        <time>2016-02-24T13:53:46Z</time>
      </trkpt>
      <trkpt lat="43.43391" lon="6.05121">
        <ele>252.80000305176</ele>
        <time>2016-02-24T13:53:48Z</time>
      </trkpt>
      <trkpt lat="43.43391" lon="6.05121">
        <ele>253</ele>
        <time>2016-02-24T13:53:49Z</time>
      </trkpt>
      <trkpt lat="43.43391" lon="6.05121">
        <ele>253</ele>
        <time>2016-02-24T13:53:50Z</time>
      </trkpt>
      <trkpt lat="43.43391" lon="6.05121">
        <ele>252.80000305176</ele>
        <time>2016-02-24T13:53:51Z</time>
      </trkpt>
      <trkpt lat="43.43391" lon="6.05121">
        <ele>253</ele>
        <time>2016-02-24T13:53:52Z</time>
      </trkpt>
      <trkpt lat="43.43391" lon="6.05121">
        <ele>253</ele>
        <time>2016-02-24T13:53:54Z</time>
      </trkpt>
      <trkpt lat="43.43391" lon="6.05121">
        <ele>253</ele>
        <time>2016-02-24T13:53:56Z</time>
      </trkpt>
      <trkpt lat="43.43391" lon="6.05121">
        <ele>253</ele>
        <time>2016-02-24T13:53:57Z</time>
      </trkpt>
      <trkpt lat="43.43391" lon="6.05121">
        <ele>252.80000305176</ele>
        <time>2016-02-24T13:53:59Z</time>
      </trkpt>
      <trkpt lat="43.43391" lon="6.05121">
        <ele>252.80000305176</ele>
        <time>2016-02-24T13:54:00Z</time>
      </trkpt>
      <trkpt lat="43.43391" lon="6.05121">
        <ele>253</ele>
        <time>2016-02-24T13:54:02Z</time>
      </trkpt>
      <trkpt lat="43.43391" lon="6.05121">
        <ele>253</ele>
        <time>2016-02-24T13:54:04Z</time>
      </trkpt>
      <trkpt lat="43.43391" lon="6.05121">
        <ele>252.80000305176</ele>
        <time>2016-02-24T13:54:06Z</time>
      </trkpt>
      <trkpt lat="43.43391" lon="6.05121">
        <ele>252.80000305176</ele>
        <time>2016-02-24T13:54:08Z</time>
      </trkpt>
      <trkpt lat="43.43391" lon="6.05121">
        <ele>252.60000610352</ele>
        <time>2016-02-24T13:54:10Z</time>
      </trkpt>
      <trkpt lat="43.43391" lon="6.05121">
        <ele>253</ele>
        <time>2016-02-24T13:54:12Z</time>
      </trkpt>
      <trkpt lat="43.43391" lon="6.05121">
        <ele>253.19999694824</ele>
        <time>2016-02-24T13:54:14Z</time>
      </trkpt>
      <trkpt lat="43.43391" lon="6.05121">
        <ele>253</ele>
        <time>2016-02-24T13:54:16Z</time>
      </trkpt>
      <trkpt lat="43.43391" lon="6.05121">
        <ele>253</ele>
        <time>2016-02-24T13:54:18Z</time>
      </trkpt>
      <trkpt lat="43.43391" lon="6.05122">
        <ele>253.19999694824</ele>
        <time>2016-02-24T13:54:20Z</time>
      </trkpt>
      <trkpt lat="43.43391" lon="6.05122">
        <ele>253.19999694824</ele>
        <time>2016-02-24T13:54:22Z</time>
      </trkpt>
      <trkpt lat="43.43391" lon="6.05121">
        <ele>253.19999694824</ele>
        <time>2016-02-24T13:54:24Z</time>
      </trkpt>
      <trkpt lat="43.43391" lon="6.05121">
        <ele>253.19999694824</ele>
        <time>2016-02-24T13:54:26Z</time>
      </trkpt>
      <trkpt lat="43.43391" lon="6.05121">
        <ele>253</ele>
        <time>2016-02-24T13:54:28Z</time>
      </trkpt>
      <trkpt lat="43.43391" lon="6.05121">
        <ele>253.19999694824</ele>
        <time>2016-02-24T13:54:30Z</time>
      </trkpt>
      <trkpt lat="43.43392" lon="6.05119">
        <ele>253.19999694824</ele>
        <time>2016-02-24T13:54:32Z</time>
      </trkpt>
      <trkpt lat="43.43393" lon="6.05117">
        <ele>253.19999694824</ele>
        <time>2016-02-24T13:54:33Z</time>
      </trkpt>
      <trkpt lat="43.43393" lon="6.05115">
        <ele>253.39999389648</ele>
        <time>2016-02-24T13:54:34Z</time>
      </trkpt>
      <trkpt lat="43.43394" lon="6.05112">
        <ele>253.60000610352</ele>
        <time>2016-02-24T13:54:36Z</time>
      </trkpt>
      <trkpt lat="43.43397" lon="6.05108">
        <ele>253.60000610352</ele>
        <time>2016-02-24T13:54:38Z</time>
      </trkpt>
      <trkpt lat="43.43399" lon="6.05103">
        <ele>253.39999389648</ele>
        <time>2016-02-24T13:54:40Z</time>
      </trkpt>
      <trkpt lat="43.43401" lon="6.05099">
        <ele>253.80000305176</ele>
        <time>2016-02-24T13:54:42Z</time>
      </trkpt>
      <trkpt lat="43.43404" lon="6.05094">
        <ele>253.39999389648</ele>
        <time>2016-02-24T13:54:44Z</time>
      </trkpt>
      <trkpt lat="43.43406" lon="6.05087">
        <ele>253.39999389648</ele>
        <time>2016-02-24T13:54:46Z</time>
      </trkpt>
      <trkpt lat="43.43407" lon="6.05083">
        <ele>253.39999389648</ele>
        <time>2016-02-24T13:54:47Z</time>
      </trkpt>
      <trkpt lat="43.43408" lon="6.05078">
        <ele>253.39999389648</ele>
        <time>2016-02-24T13:54:48Z</time>
      </trkpt>
      <trkpt lat="43.43409" lon="6.05067">
        <ele>252.19999694824</ele>
        <time>2016-02-24T13:54:50Z</time>
      </trkpt>
      <trkpt lat="43.43412" lon="6.05056">
        <ele>252.80000305176</ele>
        <time>2016-02-24T13:54:52Z</time>
      </trkpt>
      <trkpt lat="43.43415" lon="6.05042">
        <ele>251</ele>
        <time>2016-02-24T13:54:54Z</time>
      </trkpt>
      <trkpt lat="43.43417" lon="6.05028">
        <ele>252</ele>
        <time>2016-02-24T13:54:56Z</time>
      </trkpt>
      <trkpt lat="43.4342" lon="6.05013">
        <ele>251</ele>
        <time>2016-02-24T13:54:58Z</time>
      </trkpt>
      <trkpt lat="43.4342" lon="6.05005">
        <ele>251</ele>
        <time>2016-02-24T13:54:59Z</time>
      </trkpt>
      <trkpt lat="43.43422" lon="6.04996">
        <ele>251</ele>
        <time>2016-02-24T13:55:00Z</time>
      </trkpt>
      <trkpt lat="43.43426" lon="6.04979">
        <ele>250.19999694824</ele>
        <time>2016-02-24T13:55:02Z</time>
      </trkpt>
      <trkpt lat="43.43427" lon="6.04972">
        <ele>249.80000305176</ele>
        <time>2016-02-24T13:55:03Z</time>
      </trkpt>
      <trkpt lat="43.43428" lon="6.04962">
        <ele>249.80000305176</ele>
        <time>2016-02-24T13:55:04Z</time>
      </trkpt>
      <trkpt lat="43.43429" lon="6.04954">
        <ele>249.80000305176</ele>
        <time>2016-02-24T13:55:05Z</time>
      </trkpt>
      <trkpt lat="43.4343" lon="6.04944">
        <ele>250</ele>
        <time>2016-02-24T13:55:06Z</time>
      </trkpt>
      <trkpt lat="43.43431" lon="6.04926">
        <ele>250.19999694824</ele>
        <time>2016-02-24T13:55:08Z</time>
      </trkpt>
      <trkpt lat="43.43433" lon="6.04909">
        <ele>249</ele>
        <time>2016-02-24T13:55:10Z</time>
      </trkpt>
      <trkpt lat="43.43433" lon="6.04892">
        <ele>249.39999389648</ele>
        <time>2016-02-24T13:55:12Z</time>
      </trkpt>
      <trkpt lat="43.43434" lon="6.04884">
        <ele>249.60000610352</ele>
        <time>2016-02-24T13:55:13Z</time>
      </trkpt>
      <trkpt lat="43.43433" lon="6.04876">
        <ele>249.60000610352</ele>
        <time>2016-02-24T13:55:14Z</time>
      </trkpt>
      <trkpt lat="43.43431" lon="6.04861">
        <ele>249.80000305176</ele>
        <time>2016-02-24T13:55:16Z</time>
      </trkpt>
      <trkpt lat="43.43433" lon="6.04847">
        <ele>250</ele>
        <time>2016-02-24T13:55:18Z</time>
      </trkpt>
      <trkpt lat="43.43433" lon="6.04832">
        <ele>251</ele>
        <time>2016-02-24T13:55:20Z</time>
      </trkpt>
      <trkpt lat="43.43434" lon="6.04825">
        <ele>250.60000610352</ele>
        <time>2016-02-24T13:55:21Z</time>
      </trkpt>
      <trkpt lat="43.43434" lon="6.04817">
        <ele>250.60000610352</ele>
        <time>2016-02-24T13:55:22Z</time>
      </trkpt>
      <trkpt lat="43.43434" lon="6.0481">
        <ele>250.80000305176</ele>
        <time>2016-02-24T13:55:23Z</time>
      </trkpt>
      <trkpt lat="43.43435" lon="6.04802">
        <ele>251.19999694824</ele>
        <time>2016-02-24T13:55:24Z</time>
      </trkpt>
      <trkpt lat="43.43436" lon="6.04786">
        <ele>251.80000305176</ele>
        <time>2016-02-24T13:55:26Z</time>
      </trkpt>
      <trkpt lat="43.43437" lon="6.0478">
        <ele>251.60000610352</ele>
        <time>2016-02-24T13:55:27Z</time>
      </trkpt>
      <trkpt lat="43.43438" lon="6.04772">
        <ele>251.39999389648</ele>
        <time>2016-02-24T13:55:28Z</time>
      </trkpt>
      <trkpt lat="43.43438" lon="6.04765">
        <ele>251.19999694824</ele>
        <time>2016-02-24T13:55:29Z</time>
      </trkpt>
      <trkpt lat="43.43439" lon="6.04757">
        <ele>251</ele>
        <time>2016-02-24T13:55:30Z</time>
      </trkpt>
      <trkpt lat="43.4344" lon="6.04744">
        <ele>252</ele>
        <time>2016-02-24T13:55:32Z</time>
      </trkpt>
      <trkpt lat="43.43441" lon="6.04732">
        <ele>252.39999389648</ele>
        <time>2016-02-24T13:55:34Z</time>
      </trkpt>
      <trkpt lat="43.43442" lon="6.04728">
        <ele>252.60000610352</ele>
        <time>2016-02-24T13:55:35Z</time>
      </trkpt>
      <trkpt lat="43.43443" lon="6.04723">
        <ele>252.80000305176</ele>
        <time>2016-02-24T13:55:36Z</time>
      </trkpt>
      <trkpt lat="43.43443" lon="6.04713">
        <ele>252.60000610352</ele>
        <time>2016-02-24T13:55:38Z</time>
      </trkpt>
      <trkpt lat="43.43443" lon="6.04704">
        <ele>252</ele>
        <time>2016-02-24T13:55:40Z</time>
      </trkpt>
      <trkpt lat="43.43443" lon="6.04699">
        <ele>252.19999694824</ele>
        <time>2016-02-24T13:55:41Z</time>
      </trkpt>
      <trkpt lat="43.43443" lon="6.04694">
        <ele>252.39999389648</ele>
        <time>2016-02-24T13:55:42Z</time>
      </trkpt>
      <trkpt lat="43.43444" lon="6.04684">
        <ele>252.60000610352</ele>
        <time>2016-02-24T13:55:44Z</time>
      </trkpt>
      <trkpt lat="43.43446" lon="6.04676">
        <ele>252.60000610352</ele>
        <time>2016-02-24T13:55:46Z</time>
      </trkpt>
      <trkpt lat="43.43447" lon="6.04672">
        <ele>252.60000610352</ele>
        <time>2016-02-24T13:55:47Z</time>
      </trkpt>
      <trkpt lat="43.43448" lon="6.04668">
        <ele>252.60000610352</ele>
        <time>2016-02-24T13:55:48Z</time>
      </trkpt>
      <trkpt lat="43.43451" lon="6.0466">
        <ele>252.39999389648</ele>
        <time>2016-02-24T13:55:50Z</time>
      </trkpt>
      <trkpt lat="43.43453" lon="6.04653">
        <ele>252.60000610352</ele>
        <time>2016-02-24T13:55:52Z</time>
      </trkpt>
      <trkpt lat="43.43455" lon="6.04646">
        <ele>252.60000610352</ele>
        <time>2016-02-24T13:55:54Z</time>
      </trkpt>
      <trkpt lat="43.43455" lon="6.04642">
        <ele>253.19999694824</ele>
        <time>2016-02-24T13:55:55Z</time>
      </trkpt>
      <trkpt lat="43.43456" lon="6.04638">
        <ele>253.39999389648</ele>
        <time>2016-02-24T13:55:56Z</time>
      </trkpt>
      <trkpt lat="43.43457" lon="6.04631">
        <ele>252.80000305176</ele>
        <time>2016-02-24T13:55:58Z</time>
      </trkpt>
      <trkpt lat="43.43458" lon="6.04628">
        <ele>253</ele>
        <time>2016-02-24T13:55:59Z</time>
      </trkpt>
      <trkpt lat="43.43458" lon="6.04624">
        <ele>253</ele>
        <time>2016-02-24T13:56:00Z</time>
      </trkpt>
      <trkpt lat="43.43459" lon="6.04617">
        <ele>253.19999694824</ele>
        <time>2016-02-24T13:56:02Z</time>
      </trkpt>
      <trkpt lat="43.43459" lon="6.0461">
        <ele>253</ele>
        <time>2016-02-24T13:56:04Z</time>
      </trkpt>
      <trkpt lat="43.43461" lon="6.04602">
        <ele>253.19999694824</ele>
        <time>2016-02-24T13:56:06Z</time>
      </trkpt>
      <trkpt lat="43.43463" lon="6.04594">
        <ele>253.60000610352</ele>
        <time>2016-02-24T13:56:08Z</time>
      </trkpt>
      <trkpt lat="43.43464" lon="6.04586">
        <ele>253.80000305176</ele>
        <time>2016-02-24T13:56:10Z</time>
      </trkpt>
      <trkpt lat="43.43465" lon="6.04578">
        <ele>253.80000305176</ele>
        <time>2016-02-24T13:56:12Z</time>
      </trkpt>
      <trkpt lat="43.43465" lon="6.04574">
        <ele>254</ele>
        <time>2016-02-24T13:56:13Z</time>
      </trkpt>
      <trkpt lat="43.43465" lon="6.0457">
        <ele>254</ele>
        <time>2016-02-24T13:56:14Z</time>
      </trkpt>
      <trkpt lat="43.43465" lon="6.04566">
        <ele>254.19999694824</ele>
        <time>2016-02-24T13:56:15Z</time>
      </trkpt>
      <trkpt lat="43.43466" lon="6.04561">
        <ele>254.19999694824</ele>
        <time>2016-02-24T13:56:16Z</time>
      </trkpt>
      <trkpt lat="43.4347" lon="6.04554">
        <ele>253.80000305176</ele>
        <time>2016-02-24T13:56:18Z</time>
      </trkpt>
      <trkpt lat="43.43472" lon="6.04551">
        <ele>253.80000305176</ele>
        <time>2016-02-24T13:56:19Z</time>
      </trkpt>
      <trkpt lat="43.43474" lon="6.04547">
        <ele>253.60000610352</ele>
        <time>2016-02-24T13:56:20Z</time>
      </trkpt>
      <trkpt lat="43.43477" lon="6.04544">
        <ele>253.60000610352</ele>
        <time>2016-02-24T13:56:22Z</time>
      </trkpt>
      <trkpt lat="43.43478" lon="6.0454">
        <ele>253.60000610352</ele>
        <time>2016-02-24T13:56:23Z</time>
      </trkpt>
      <trkpt lat="43.43479" lon="6.04536">
        <ele>253.60000610352</ele>
        <time>2016-02-24T13:56:24Z</time>
      </trkpt>
      <trkpt lat="43.43482" lon="6.0453">
        <ele>254</ele>
        <time>2016-02-24T13:56:26Z</time>
      </trkpt>
      <trkpt lat="43.43484" lon="6.04522">
        <ele>254.39999389648</ele>
        <time>2016-02-24T13:56:28Z</time>
      </trkpt>
      <trkpt lat="43.43486" lon="6.04519">
        <ele>254.39999389648</ele>
        <time>2016-02-24T13:56:29Z</time>
      </trkpt>
      <trkpt lat="43.43487" lon="6.04515">
        <ele>254.39999389648</ele>
        <time>2016-02-24T13:56:30Z</time>
      </trkpt>
      <trkpt lat="43.43489" lon="6.04506">
        <ele>254.19999694824</ele>
        <time>2016-02-24T13:56:32Z</time>
      </trkpt>
      <trkpt lat="43.43491" lon="6.04498">
        <ele>254</ele>
        <time>2016-02-24T13:56:34Z</time>
      </trkpt>
      <trkpt lat="43.43491" lon="6.04489">
        <ele>253.80000305176</ele>
        <time>2016-02-24T13:56:36Z</time>
      </trkpt>
      <trkpt lat="43.43491" lon="6.04485">
        <ele>254</ele>
        <time>2016-02-24T13:56:37Z</time>
      </trkpt>
      <trkpt lat="43.43491" lon="6.0448">
        <ele>254.19999694824</ele>
        <time>2016-02-24T13:56:38Z</time>
      </trkpt>
      <trkpt lat="43.43491" lon="6.04471">
        <ele>254</ele>
        <time>2016-02-24T13:56:40Z</time>
      </trkpt>
      <trkpt lat="43.43491" lon="6.04462">
        <ele>254.19999694824</ele>
        <time>2016-02-24T13:56:42Z</time>
      </trkpt>
      <trkpt lat="43.4349" lon="6.04453">
        <ele>254</ele>
        <time>2016-02-24T13:56:44Z</time>
      </trkpt>
      <trkpt lat="43.43491" lon="6.04449">
        <ele>254</ele>
        <time>2016-02-24T13:56:45Z</time>
      </trkpt>
      <trkpt lat="43.43492" lon="6.04445">
        <ele>254</ele>
        <time>2016-02-24T13:56:46Z</time>
      </trkpt>
      <trkpt lat="43.43491" lon="6.04437">
        <ele>254</ele>
        <time>2016-02-24T13:56:48Z</time>
      </trkpt>
      <trkpt lat="43.43491" lon="6.04427">
        <ele>254</ele>
        <time>2016-02-24T13:56:50Z</time>
      </trkpt>
      <trkpt lat="43.43489" lon="6.04418">
        <ele>254.39999389648</ele>
        <time>2016-02-24T13:56:52Z</time>
      </trkpt>
      <trkpt lat="43.43488" lon="6.04409">
        <ele>254.39999389648</ele>
        <time>2016-02-24T13:56:54Z</time>
      </trkpt>
      <trkpt lat="43.43487" lon="6.04401">
        <ele>254.39999389648</ele>
        <time>2016-02-24T13:56:56Z</time>
      </trkpt>
      <trkpt lat="43.43488" lon="6.04393">
        <ele>254.60000610352</ele>
        <time>2016-02-24T13:56:58Z</time>
      </trkpt>
      <trkpt lat="43.43489" lon="6.04385">
        <ele>254.39999389648</ele>
        <time>2016-02-24T13:57:00Z</time>
      </trkpt>
      <trkpt lat="43.43489" lon="6.04377">
        <ele>254.39999389648</ele>
        <time>2016-02-24T13:57:02Z</time>
      </trkpt>
      <trkpt lat="43.43489" lon="6.04374">
        <ele>254.80000305176</ele>
        <time>2016-02-24T13:57:03Z</time>
      </trkpt>
      <trkpt lat="43.4349" lon="6.0437">
        <ele>255</ele>
        <time>2016-02-24T13:57:04Z</time>
      </trkpt>
      <trkpt lat="43.43491" lon="6.04366">
        <ele>255</ele>
        <time>2016-02-24T13:57:05Z</time>
      </trkpt>
      <trkpt lat="43.43491" lon="6.04362">
        <ele>254.80000305176</ele>
        <time>2016-02-24T13:57:06Z</time>
      </trkpt>
      <trkpt lat="43.43491" lon="6.04354">
        <ele>255</ele>
        <time>2016-02-24T13:57:08Z</time>
      </trkpt>
      <trkpt lat="43.43491" lon="6.04348">
        <ele>254.80000305176</ele>
        <time>2016-02-24T13:57:10Z</time>
      </trkpt>
      <trkpt lat="43.43492" lon="6.04341">
        <ele>254.60000610352</ele>
        <time>2016-02-24T13:57:12Z</time>
      </trkpt>
      <trkpt lat="43.43493" lon="6.04334">
        <ele>254.60000610352</ele>
        <time>2016-02-24T13:57:14Z</time>
      </trkpt>
      <trkpt lat="43.43493" lon="6.04326">
        <ele>254.39999389648</ele>
        <time>2016-02-24T13:57:16Z</time>
      </trkpt>
      <trkpt lat="43.43494" lon="6.04317">
        <ele>254.60000610352</ele>
        <time>2016-02-24T13:57:18Z</time>
      </trkpt>
      <trkpt lat="43.43494" lon="6.04308">
        <ele>254.60000610352</ele>
        <time>2016-02-24T13:57:20Z</time>
      </trkpt>
      <trkpt lat="43.43496" lon="6.043">
        <ele>253.60000610352</ele>
        <time>2016-02-24T13:57:22Z</time>
      </trkpt>
      <trkpt lat="43.43497" lon="6.04292">
        <ele>253.60000610352</ele>
        <time>2016-02-24T13:57:24Z</time>
      </trkpt>
      <trkpt lat="43.43499" lon="6.04283">
        <ele>253.80000305176</ele>
        <time>2016-02-24T13:57:26Z</time>
      </trkpt>
      <trkpt lat="43.43502" lon="6.04274">
        <ele>253.39999389648</ele>
        <time>2016-02-24T13:57:28Z</time>
      </trkpt>
      <trkpt lat="43.43505" lon="6.04267">
        <ele>253.19999694824</ele>
        <time>2016-02-24T13:57:30Z</time>
      </trkpt>
      <trkpt lat="43.43509" lon="6.04259">
        <ele>253</ele>
        <time>2016-02-24T13:57:32Z</time>
      </trkpt>
      <trkpt lat="43.43514" lon="6.04252">
        <ele>252.60000610352</ele>
        <time>2016-02-24T13:57:34Z</time>
      </trkpt>
      <trkpt lat="43.43517" lon="6.04249">
        <ele>252.39999389648</ele>
        <time>2016-02-24T13:57:35Z</time>
      </trkpt>
      <trkpt lat="43.4352" lon="6.04246">
        <ele>252.39999389648</ele>
        <time>2016-02-24T13:57:36Z</time>
      </trkpt>
      <trkpt lat="43.43524" lon="6.04244">
        <ele>252.39999389648</ele>
        <time>2016-02-24T13:57:37Z</time>
      </trkpt>
      <trkpt lat="43.43528" lon="6.04241">
        <ele>252.19999694824</ele>
        <time>2016-02-24T13:57:38Z</time>
      </trkpt>
      <trkpt lat="43.43533" lon="6.04232">
        <ele>252.39999389648</ele>
        <time>2016-02-24T13:57:40Z</time>
      </trkpt>
      <trkpt lat="43.43535" lon="6.04228">
        <ele>252</ele>
        <time>2016-02-24T13:57:41Z</time>
      </trkpt>
      <trkpt lat="43.43538" lon="6.04224">
        <ele>251.80000305176</ele>
        <time>2016-02-24T13:57:42Z</time>
      </trkpt>
      <trkpt lat="43.43542" lon="6.04217">
        <ele>252.19999694824</ele>
        <time>2016-02-24T13:57:44Z</time>
      </trkpt>
      <trkpt lat="43.43542" lon="6.04212">
        <ele>252.39999389648</ele>
        <time>2016-02-24T13:57:45Z</time>
      </trkpt>
      <trkpt lat="43.43543" lon="6.04208">
        <ele>252.60000610352</ele>
        <time>2016-02-24T13:57:46Z</time>
      </trkpt>
      <trkpt lat="43.43543" lon="6.04199">
        <ele>252.60000610352</ele>
        <time>2016-02-24T13:57:48Z</time>
      </trkpt>
      <trkpt lat="43.43541" lon="6.0419">
        <ele>252.39999389648</ele>
        <time>2016-02-24T13:57:50Z</time>
      </trkpt>
      <trkpt lat="43.43539" lon="6.04183">
        <ele>253</ele>
        <time>2016-02-24T13:57:52Z</time>
      </trkpt>
      <trkpt lat="43.43538" lon="6.0418">
        <ele>253.80000305176</ele>
        <time>2016-02-24T13:57:53Z</time>
      </trkpt>
      <trkpt lat="43.43536" lon="6.04176">
        <ele>254.19999694824</ele>
        <time>2016-02-24T13:57:54Z</time>
      </trkpt>
      <trkpt lat="43.43536" lon="6.04169">
        <ele>254.39999389648</ele>
        <time>2016-02-24T13:57:56Z</time>
      </trkpt>
      <trkpt lat="43.43536" lon="6.04162">
        <ele>255</ele>
        <time>2016-02-24T13:57:58Z</time>
      </trkpt>
      <trkpt lat="43.43537" lon="6.04155">
        <ele>254.80000305176</ele>
        <time>2016-02-24T13:58:00Z</time>
      </trkpt>
      <trkpt lat="43.43538" lon="6.04153">
        <ele>254.80000305176</ele>
        <time>2016-02-24T13:58:01Z</time>
      </trkpt>
      <trkpt lat="43.43539" lon="6.0415">
        <ele>255</ele>
        <time>2016-02-24T13:58:02Z</time>
      </trkpt>
      <trkpt lat="43.43542" lon="6.04146">
        <ele>255.19999694824</ele>
        <time>2016-02-24T13:58:04Z</time>
      </trkpt>
      <trkpt lat="43.43545" lon="6.04141">
        <ele>255.39999389648</ele>
        <time>2016-02-24T13:58:06Z</time>
      </trkpt>
      <trkpt lat="43.43546" lon="6.04138">
        <ele>255.60000610352</ele>
        <time>2016-02-24T13:58:07Z</time>
      </trkpt>
      <trkpt lat="43.43548" lon="6.04135">
        <ele>255.60000610352</ele>
        <time>2016-02-24T13:58:08Z</time>
      </trkpt>
      <trkpt lat="43.43551" lon="6.04129">
        <ele>255.60000610352</ele>
        <time>2016-02-24T13:58:10Z</time>
      </trkpt>
      <trkpt lat="43.43554" lon="6.04121">
        <ele>255.19999694824</ele>
        <time>2016-02-24T13:58:12Z</time>
      </trkpt>
      <trkpt lat="43.43556" lon="6.04113">
        <ele>255</ele>
        <time>2016-02-24T13:58:14Z</time>
      </trkpt>
      <trkpt lat="43.4356" lon="6.04107">
        <ele>255.19999694824</ele>
        <time>2016-02-24T13:58:16Z</time>
      </trkpt>
      <trkpt lat="43.43561" lon="6.04099">
        <ele>255.39999389648</ele>
        <time>2016-02-24T13:58:18Z</time>
      </trkpt>
      <trkpt lat="43.43563" lon="6.04093">
        <ele>255.19999694824</ele>
        <time>2016-02-24T13:58:20Z</time>
      </trkpt>
      <trkpt lat="43.43565" lon="6.04086">
        <ele>255.60000610352</ele>
        <time>2016-02-24T13:58:22Z</time>
      </trkpt>
      <trkpt lat="43.43567" lon="6.04079">
        <ele>255.60000610352</ele>
        <time>2016-02-24T13:58:24Z</time>
      </trkpt>
      <trkpt lat="43.43569" lon="6.04072">
        <ele>255.39999389648</ele>
        <time>2016-02-24T13:58:26Z</time>
      </trkpt>
      <trkpt lat="43.43573" lon="6.04067">
        <ele>255.60000610352</ele>
        <time>2016-02-24T13:58:28Z</time>
      </trkpt>
      <trkpt lat="43.43576" lon="6.04061">
        <ele>255.60000610352</ele>
        <time>2016-02-24T13:58:30Z</time>
      </trkpt>
      <trkpt lat="43.43577" lon="6.04058">
        <ele>255.80000305176</ele>
        <time>2016-02-24T13:58:31Z</time>
      </trkpt>
      <trkpt lat="43.43578" lon="6.04055">
        <ele>256</ele>
        <time>2016-02-24T13:58:32Z</time>
      </trkpt>
      <trkpt lat="43.43581" lon="6.0405">
        <ele>256.39999389648</ele>
        <time>2016-02-24T13:58:34Z</time>
      </trkpt>
      <trkpt lat="43.43584" lon="6.04044">
        <ele>256.79998779297</ele>
        <time>2016-02-24T13:58:36Z</time>
      </trkpt>
      <trkpt lat="43.43586" lon="6.04041">
        <ele>257.20001220703</ele>
        <time>2016-02-24T13:58:37Z</time>
      </trkpt>
      <trkpt lat="43.43588" lon="6.04039">
        <ele>257.39999389648</ele>
        <time>2016-02-24T13:58:38Z</time>
      </trkpt>
      <trkpt lat="43.43591" lon="6.04033">
        <ele>258</ele>
        <time>2016-02-24T13:58:40Z</time>
      </trkpt>
      <trkpt lat="43.43592" lon="6.04031">
        <ele>258.20001220703</ele>
        <time>2016-02-24T13:58:41Z</time>
      </trkpt>
      <trkpt lat="43.43594" lon="6.04028">
        <ele>258.20001220703</ele>
        <time>2016-02-24T13:58:42Z</time>
      </trkpt>
      <trkpt lat="43.43597" lon="6.04022">
        <ele>258.60000610352</ele>
        <time>2016-02-24T13:58:44Z</time>
      </trkpt>
      <trkpt lat="43.436" lon="6.04016">
        <ele>258.79998779297</ele>
        <time>2016-02-24T13:58:46Z</time>
      </trkpt>
      <trkpt lat="43.43601" lon="6.0401">
        <ele>258.60000610352</ele>
        <time>2016-02-24T13:58:48Z</time>
      </trkpt>
      <trkpt lat="43.43602" lon="6.04004">
        <ele>259.20001220703</ele>
        <time>2016-02-24T13:58:50Z</time>
      </trkpt>
      <trkpt lat="43.43604" lon="6.04">
        <ele>259.60000610352</ele>
        <time>2016-02-24T13:58:52Z</time>
      </trkpt>
      <trkpt lat="43.43605" lon="6.03997">
        <ele>259.60000610352</ele>
        <time>2016-02-24T13:58:54Z</time>
      </trkpt>
      <trkpt lat="43.43606" lon="6.03992">
        <ele>259.39999389648</ele>
        <time>2016-02-24T13:58:56Z</time>
      </trkpt>
      <trkpt lat="43.43607" lon="6.03984">
        <ele>259.20001220703</ele>
        <time>2016-02-24T13:58:58Z</time>
      </trkpt>
      <trkpt lat="43.43606" lon="6.03974">
        <ele>258.60000610352</ele>
        <time>2016-02-24T13:59:00Z</time>
      </trkpt>
      <trkpt lat="43.43607" lon="6.03967">
        <ele>257.79998779297</ele>
        <time>2016-02-24T13:59:01Z</time>
      </trkpt>
      <trkpt lat="43.43606" lon="6.03958">
        <ele>257.20001220703</ele>
        <time>2016-02-24T13:59:02Z</time>
      </trkpt>
      <trkpt lat="43.43602" lon="6.03942">
        <ele>256.79998779297</ele>
        <time>2016-02-24T13:59:04Z</time>
      </trkpt>
      <trkpt lat="43.436" lon="6.03935">
        <ele>256.60000610352</ele>
        <time>2016-02-24T13:59:05Z</time>
      </trkpt>
      <trkpt lat="43.43597" lon="6.03929">
        <ele>256.20001220703</ele>
        <time>2016-02-24T13:59:06Z</time>
      </trkpt>
      <trkpt lat="43.43595" lon="6.03918">
        <ele>255.39999389648</ele>
        <time>2016-02-24T13:59:08Z</time>
      </trkpt>
      <trkpt lat="43.43593" lon="6.03909">
        <ele>256.39999389648</ele>
        <time>2016-02-24T13:59:10Z</time>
      </trkpt>
      <trkpt lat="43.43591" lon="6.039">
        <ele>257</ele>
        <time>2016-02-24T13:59:12Z</time>
      </trkpt>
      <trkpt lat="43.43591" lon="6.03891">
        <ele>256.79998779297</ele>
        <time>2016-02-24T13:59:14Z</time>
      </trkpt>
      <trkpt lat="43.43591" lon="6.03883">
        <ele>257</ele>
        <time>2016-02-24T13:59:16Z</time>
      </trkpt>
      <trkpt lat="43.43591" lon="6.03879">
        <ele>257.20001220703</ele>
        <time>2016-02-24T13:59:17Z</time>
      </trkpt>
      <trkpt lat="43.43591" lon="6.03875">
        <ele>257.60000610352</ele>
        <time>2016-02-24T13:59:18Z</time>
      </trkpt>
      <trkpt lat="43.43591" lon="6.03867">
        <ele>258</ele>
        <time>2016-02-24T13:59:20Z</time>
      </trkpt>
      <trkpt lat="43.43591" lon="6.03863">
        <ele>258.20001220703</ele>
        <time>2016-02-24T13:59:21Z</time>
      </trkpt>
      <trkpt lat="43.43591" lon="6.03859">
        <ele>258.60000610352</ele>
        <time>2016-02-24T13:59:22Z</time>
      </trkpt>
      <trkpt lat="43.43591" lon="6.03853">
        <ele>258.79998779297</ele>
        <time>2016-02-24T13:59:24Z</time>
      </trkpt>
      <trkpt lat="43.4359" lon="6.03846">
        <ele>259.20001220703</ele>
        <time>2016-02-24T13:59:26Z</time>
      </trkpt>
      <trkpt lat="43.43589" lon="6.03837">
        <ele>259.20001220703</ele>
        <time>2016-02-24T13:59:28Z</time>
      </trkpt>
      <trkpt lat="43.43588" lon="6.03833">
        <ele>259.39999389648</ele>
        <time>2016-02-24T13:59:29Z</time>
      </trkpt>
      <trkpt lat="43.43587" lon="6.03829">
        <ele>259.39999389648</ele>
        <time>2016-02-24T13:59:30Z</time>
      </trkpt>
      <trkpt lat="43.43586" lon="6.0382">
        <ele>259.79998779297</ele>
        <time>2016-02-24T13:59:32Z</time>
      </trkpt>
      <trkpt lat="43.43583" lon="6.03813">
        <ele>259.79998779297</ele>
        <time>2016-02-24T13:59:34Z</time>
      </trkpt>
      <trkpt lat="43.43581" lon="6.03807">
        <ele>260.60000610352</ele>
        <time>2016-02-24T13:59:36Z</time>
      </trkpt>
      <trkpt lat="43.43578" lon="6.03801">
        <ele>260.79998779297</ele>
        <time>2016-02-24T13:59:38Z</time>
      </trkpt>
      <trkpt lat="43.43577" lon="6.03798">
        <ele>261</ele>
        <time>2016-02-24T13:59:40Z</time>
      </trkpt>
      <trkpt lat="43.43576" lon="6.03795">
        <ele>261</ele>
        <time>2016-02-24T13:59:42Z</time>
      </trkpt>
      <trkpt lat="43.43576" lon="6.03795">
        <ele>261.20001220703</ele>
        <time>2016-02-24T13:59:43Z</time>
      </trkpt>
      <trkpt lat="43.43575" lon="6.03795">
        <ele>261.39999389648</ele>
        <time>2016-02-24T13:59:44Z</time>
      </trkpt>
      <trkpt lat="43.43571" lon="6.03792">
        <ele>260.79998779297</ele>
        <time>2016-02-24T13:59:46Z</time>
      </trkpt>
      <trkpt lat="43.4357" lon="6.03792">
        <ele>260.60000610352</ele>
        <time>2016-02-24T13:59:47Z</time>
      </trkpt>
      <trkpt lat="43.43568" lon="6.03791">
        <ele>261</ele>
        <time>2016-02-24T13:59:48Z</time>
      </trkpt>
      <trkpt lat="43.43567" lon="6.0379">
        <ele>261.39999389648</ele>
        <time>2016-02-24T13:59:49Z</time>
      </trkpt>
      <trkpt lat="43.43565" lon="6.03788">
        <ele>261.39999389648</ele>
        <time>2016-02-24T13:59:50Z</time>
      </trkpt>
      <trkpt lat="43.43563" lon="6.03786">
        <ele>261.60000610352</ele>
        <time>2016-02-24T13:59:52Z</time>
      </trkpt>
      <trkpt lat="43.43562" lon="6.03785">
        <ele>261.60000610352</ele>
        <time>2016-02-24T13:59:53Z</time>
      </trkpt>
      <trkpt lat="43.4356" lon="6.03784">
        <ele>261.60000610352</ele>
        <time>2016-02-24T13:59:54Z</time>
      </trkpt>
      <trkpt lat="43.43558" lon="6.03783">
        <ele>261.60000610352</ele>
        <time>2016-02-24T13:59:56Z</time>
      </trkpt>
      <trkpt lat="43.43557" lon="6.03784">
        <ele>261.60000610352</ele>
        <time>2016-02-24T13:59:57Z</time>
      </trkpt>
      <trkpt lat="43.43555" lon="6.03784">
        <ele>262</ele>
        <time>2016-02-24T13:59:58Z</time>
      </trkpt>
      <trkpt lat="43.43554" lon="6.03783">
        <ele>262.60000610352</ele>
        <time>2016-02-24T13:59:59Z</time>
      </trkpt>
      <trkpt lat="43.43552" lon="6.03782">
        <ele>262.39999389648</ele>
        <time>2016-02-24T14:00:00Z</time>
      </trkpt>
      <trkpt lat="43.4355" lon="6.03782">
        <ele>262.20001220703</ele>
        <time>2016-02-24T14:00:01Z</time>
      </trkpt>
      <trkpt lat="43.43549" lon="6.03781">
        <ele>262.39999389648</ele>
        <time>2016-02-24T14:00:02Z</time>
      </trkpt>
      <trkpt lat="43.43547" lon="6.0378">
        <ele>262.39999389648</ele>
        <time>2016-02-24T14:00:04Z</time>
      </trkpt>
      <trkpt lat="43.43546" lon="6.0378">
        <ele>262.60000610352</ele>
        <time>2016-02-24T14:00:05Z</time>
      </trkpt>
      <trkpt lat="43.43545" lon="6.03781">
        <ele>262.79998779297</ele>
        <time>2016-02-24T14:00:06Z</time>
      </trkpt>
      <trkpt lat="43.43546" lon="6.03781">
        <ele>262.60000610352</ele>
        <time>2016-02-24T14:00:08Z</time>
      </trkpt>
      <trkpt lat="43.43545" lon="6.03781">
        <ele>262.79998779297</ele>
        <time>2016-02-24T14:00:10Z</time>
      </trkpt>
      <trkpt lat="43.43545" lon="6.03781">
        <ele>263</ele>
        <time>2016-02-24T14:00:12Z</time>
      </trkpt>
      <trkpt lat="43.43546" lon="6.03782">
        <ele>262.79998779297</ele>
        <time>2016-02-24T14:00:14Z</time>
      </trkpt>
      <trkpt lat="43.43545" lon="6.03782">
        <ele>262.79998779297</ele>
        <time>2016-02-24T14:00:16Z</time>
      </trkpt>
      <trkpt lat="43.43546" lon="6.03782">
        <ele>262.39999389648</ele>
        <time>2016-02-24T14:00:18Z</time>
      </trkpt>
      <trkpt lat="43.43546" lon="6.03782">
        <ele>262.39999389648</ele>
        <time>2016-02-24T14:00:20Z</time>
      </trkpt>
      <trkpt lat="43.43546" lon="6.03782">
        <ele>262.39999389648</ele>
        <time>2016-02-24T14:00:22Z</time>
      </trkpt>
      <trkpt lat="43.43546" lon="6.03782">
        <ele>262.60000610352</ele>
        <time>2016-02-24T14:00:24Z</time>
      </trkpt>
      <trkpt lat="43.43546" lon="6.03782">
        <ele>262.60000610352</ele>
        <time>2016-02-24T14:00:26Z</time>
      </trkpt>
      <trkpt lat="43.43546" lon="6.03782">
        <ele>262.39999389648</ele>
        <time>2016-02-24T14:00:28Z</time>
      </trkpt>
      <trkpt lat="43.43546" lon="6.03782">
        <ele>262.39999389648</ele>
        <time>2016-02-24T14:00:29Z</time>
      </trkpt>
      <trkpt lat="43.43546" lon="6.03783">
        <ele>262</ele>
        <time>2016-02-24T14:00:30Z</time>
      </trkpt>
      <trkpt lat="43.43546" lon="6.03782">
        <ele>262.20001220703</ele>
        <time>2016-02-24T14:00:32Z</time>
      </trkpt>
      <trkpt lat="43.43546" lon="6.03782">
        <ele>262.20001220703</ele>
        <time>2016-02-24T14:00:33Z</time>
      </trkpt>
      <trkpt lat="43.43546" lon="6.03782">
        <ele>262.20001220703</ele>
        <time>2016-02-24T14:00:34Z</time>
      </trkpt>
      <trkpt lat="43.43546" lon="6.03782">
        <ele>262.39999389648</ele>
        <time>2016-02-24T14:00:36Z</time>
      </trkpt>
      <trkpt lat="43.43546" lon="6.03782">
        <ele>262.60000610352</ele>
        <time>2016-02-24T14:00:38Z</time>
      </trkpt>
      <trkpt lat="43.43547" lon="6.03782">
        <ele>262.60000610352</ele>
        <time>2016-02-24T14:00:40Z</time>
      </trkpt>
      <trkpt lat="43.43547" lon="6.03782">
        <ele>262.39999389648</ele>
        <time>2016-02-24T14:00:42Z</time>
      </trkpt>
      <trkpt lat="43.43549" lon="6.03785">
        <ele>262.60000610352</ele>
        <time>2016-02-24T14:00:43Z</time>
      </trkpt>
      <trkpt lat="43.4355" lon="6.03785">
        <ele>262.60000610352</ele>
        <time>2016-02-24T14:00:44Z</time>
      </trkpt>
      <trkpt lat="43.43553" lon="6.03786">
        <ele>262.79998779297</ele>
        <time>2016-02-24T14:00:46Z</time>
      </trkpt>
      <trkpt lat="43.43556" lon="6.03789">
        <ele>262.60000610352</ele>
        <time>2016-02-24T14:00:48Z</time>
      </trkpt>
      <trkpt lat="43.43558" lon="6.03791">
        <ele>262</ele>
        <time>2016-02-24T14:00:50Z</time>
      </trkpt>
      <trkpt lat="43.4356" lon="6.03791">
        <ele>262</ele>
        <time>2016-02-24T14:00:51Z</time>
      </trkpt>
      <trkpt lat="43.43561" lon="6.03791">
        <ele>262.20001220703</ele>
        <time>2016-02-24T14:00:52Z</time>
      </trkpt>
      <trkpt lat="43.43563" lon="6.03792">
        <ele>262.20001220703</ele>
        <time>2016-02-24T14:00:54Z</time>
      </trkpt>
      <trkpt lat="43.43565" lon="6.0379">
        <ele>261.79998779297</ele>
        <time>2016-02-24T14:00:56Z</time>
      </trkpt>
      <trkpt lat="43.43566" lon="6.03789">
        <ele>261.60000610352</ele>
        <time>2016-02-24T14:00:57Z</time>
      </trkpt>
      <trkpt lat="43.43567" lon="6.03788">
        <ele>261.39999389648</ele>
        <time>2016-02-24T14:00:58Z</time>
      </trkpt>
      <trkpt lat="43.43569" lon="6.03784">
        <ele>261.20001220703</ele>
        <time>2016-02-24T14:01:00Z</time>
      </trkpt>
      <trkpt lat="43.43571" lon="6.03779">
        <ele>260.39999389648</ele>
        <time>2016-02-24T14:01:02Z</time>
      </trkpt>
      <trkpt lat="43.43573" lon="6.03776">
        <ele>260.20001220703</ele>
        <time>2016-02-24T14:01:04Z</time>
      </trkpt>
      <trkpt lat="43.43573" lon="6.03775">
        <ele>260.20001220703</ele>
        <time>2016-02-24T14:01:05Z</time>
      </trkpt>
      <trkpt lat="43.43572" lon="6.03773">
        <ele>260.39999389648</ele>
        <time>2016-02-24T14:01:06Z</time>
      </trkpt>
      <trkpt lat="43.43571" lon="6.03766">
        <ele>260.39999389648</ele>
        <time>2016-02-24T14:01:08Z</time>
      </trkpt>
      <trkpt lat="43.43572" lon="6.03762">
        <ele>260.20001220703</ele>
        <time>2016-02-24T14:01:09Z</time>
      </trkpt>
      <trkpt lat="43.43572" lon="6.03757">
        <ele>259.60000610352</ele>
        <time>2016-02-24T14:01:10Z</time>
      </trkpt>
      <trkpt lat="43.43572" lon="6.03747">
        <ele>259.60000610352</ele>
        <time>2016-02-24T14:01:12Z</time>
      </trkpt>
      <trkpt lat="43.43571" lon="6.03737">
        <ele>259.60000610352</ele>
        <time>2016-02-24T14:01:14Z</time>
      </trkpt>
      <trkpt lat="43.43571" lon="6.03726">
        <ele>259.39999389648</ele>
        <time>2016-02-24T14:01:16Z</time>
      </trkpt>
      <trkpt lat="43.4357" lon="6.03717">
        <ele>259.20001220703</ele>
        <time>2016-02-24T14:01:18Z</time>
      </trkpt>
      <trkpt lat="43.43571" lon="6.03714">
        <ele>258.79998779297</ele>
        <time>2016-02-24T14:01:19Z</time>
      </trkpt>
      <trkpt lat="43.43571" lon="6.0371">
        <ele>258.60000610352</ele>
        <time>2016-02-24T14:01:20Z</time>
      </trkpt>
      <trkpt lat="43.43571" lon="6.03705">
        <ele>258.79998779297</ele>
        <time>2016-02-24T14:01:22Z</time>
      </trkpt>
      <trkpt lat="43.43572" lon="6.03698">
        <ele>258.60000610352</ele>
        <time>2016-02-24T14:01:24Z</time>
      </trkpt>
      <trkpt lat="43.43573" lon="6.03694">
        <ele>258.60000610352</ele>
        <time>2016-02-24T14:01:25Z</time>
      </trkpt>
      <trkpt lat="43.43575" lon="6.0369">
        <ele>258.60000610352</ele>
        <time>2016-02-24T14:01:26Z</time>
      </trkpt>
      <trkpt lat="43.43576" lon="6.03682">
        <ele>258.60000610352</ele>
        <time>2016-02-24T14:01:28Z</time>
      </trkpt>
      <trkpt lat="43.43575" lon="6.03679">
        <ele>258.79998779297</ele>
        <time>2016-02-24T14:01:29Z</time>
      </trkpt>
      <trkpt lat="43.43573" lon="6.03676">
        <ele>259</ele>
        <time>2016-02-24T14:01:30Z</time>
      </trkpt>
      <trkpt lat="43.43573" lon="6.0367">
        <ele>259</ele>
        <time>2016-02-24T14:01:32Z</time>
      </trkpt>
      <trkpt lat="43.43576" lon="6.03666">
        <ele>259.39999389648</ele>
        <time>2016-02-24T14:01:34Z</time>
      </trkpt>
      <trkpt lat="43.43579" lon="6.03659">
        <ele>259.39999389648</ele>
        <time>2016-02-24T14:01:36Z</time>
      </trkpt>
      <trkpt lat="43.4358" lon="6.03656">
        <ele>259.39999389648</ele>
        <time>2016-02-24T14:01:37Z</time>
      </trkpt>
      <trkpt lat="43.43581" lon="6.03652">
        <ele>259.20001220703</ele>
        <time>2016-02-24T14:01:38Z</time>
      </trkpt>
      <trkpt lat="43.43583" lon="6.03644">
        <ele>258.79998779297</ele>
        <time>2016-02-24T14:01:40Z</time>
      </trkpt>
      <trkpt lat="43.43584" lon="6.03635">
        <ele>258.79998779297</ele>
        <time>2016-02-24T14:01:42Z</time>
      </trkpt>
      <trkpt lat="43.43583" lon="6.03625">
        <ele>258.60000610352</ele>
        <time>2016-02-24T14:01:44Z</time>
      </trkpt>
      <trkpt lat="43.43583" lon="6.03621">
        <ele>258.39999389648</ele>
        <time>2016-02-24T14:01:45Z</time>
      </trkpt>
      <trkpt lat="43.43583" lon="6.03616">
        <ele>258.60000610352</ele>
        <time>2016-02-24T14:01:46Z</time>
      </trkpt>
      <trkpt lat="43.43583" lon="6.03607">
        <ele>258.79998779297</ele>
        <time>2016-02-24T14:01:48Z</time>
      </trkpt>
      <trkpt lat="43.43584" lon="6.03596">
        <ele>258.60000610352</ele>
        <time>2016-02-24T14:01:50Z</time>
      </trkpt>
      <trkpt lat="43.43584" lon="6.03587">
        <ele>258.60000610352</ele>
        <time>2016-02-24T14:01:52Z</time>
      </trkpt>
      <trkpt lat="43.43586" lon="6.03579">
        <ele>258.20001220703</ele>
        <time>2016-02-24T14:01:54Z</time>
      </trkpt>
      <trkpt lat="43.43587" lon="6.03575">
        <ele>258.60000610352</ele>
        <time>2016-02-24T14:01:55Z</time>
      </trkpt>
      <trkpt lat="43.43589" lon="6.0357">
        <ele>259</ele>
        <time>2016-02-24T14:01:56Z</time>
      </trkpt>
      <trkpt lat="43.43592" lon="6.03565">
        <ele>259</ele>
        <time>2016-02-24T14:01:58Z</time>
      </trkpt>
      <trkpt lat="43.43597" lon="6.03558">
        <ele>259</ele>
        <time>2016-02-24T14:02:00Z</time>
      </trkpt>
      <trkpt lat="43.43599" lon="6.03555">
        <ele>259.20001220703</ele>
        <time>2016-02-24T14:02:01Z</time>
      </trkpt>
      <trkpt lat="43.436" lon="6.03551">
        <ele>259.39999389648</ele>
        <time>2016-02-24T14:02:02Z</time>
      </trkpt>
      <trkpt lat="43.43604" lon="6.03543">
        <ele>259.60000610352</ele>
        <time>2016-02-24T14:02:04Z</time>
      </trkpt>
      <trkpt lat="43.43606" lon="6.03535">
        <ele>259</ele>
        <time>2016-02-24T14:02:06Z</time>
      </trkpt>
      <trkpt lat="43.4361" lon="6.03527">
        <ele>258.60000610352</ele>
        <time>2016-02-24T14:02:08Z</time>
      </trkpt>
      <trkpt lat="43.43611" lon="6.03519">
        <ele>259.39999389648</ele>
        <time>2016-02-24T14:02:10Z</time>
      </trkpt>
      <trkpt lat="43.43612" lon="6.03516">
        <ele>260</ele>
        <time>2016-02-24T14:02:11Z</time>
      </trkpt>
      <trkpt lat="43.43612" lon="6.03513">
        <ele>260</ele>
        <time>2016-02-24T14:02:12Z</time>
      </trkpt>
      <trkpt lat="43.43613" lon="6.03505">
        <ele>260.39999389648</ele>
        <time>2016-02-24T14:02:14Z</time>
      </trkpt>
      <trkpt lat="43.43614" lon="6.03495">
        <ele>259.39999389648</ele>
        <time>2016-02-24T14:02:16Z</time>
      </trkpt>
      <trkpt lat="43.43615" lon="6.03489">
        <ele>259.20001220703</ele>
        <time>2016-02-24T14:02:17Z</time>
      </trkpt>
      <trkpt lat="43.43618" lon="6.03483">
        <ele>259.79998779297</ele>
        <time>2016-02-24T14:02:18Z</time>
      </trkpt>
      <trkpt lat="43.43621" lon="6.03475">
        <ele>261</ele>
        <time>2016-02-24T14:02:20Z</time>
      </trkpt>
      <trkpt lat="43.43625" lon="6.03466">
        <ele>261.20001220703</ele>
        <time>2016-02-24T14:02:22Z</time>
      </trkpt>
      <trkpt lat="43.43626" lon="6.03461">
        <ele>261</ele>
        <time>2016-02-24T14:02:23Z</time>
      </trkpt>
      <trkpt lat="43.43628" lon="6.03455">
        <ele>261</ele>
        <time>2016-02-24T14:02:24Z</time>
      </trkpt>
      <trkpt lat="43.43628" lon="6.03449">
        <ele>261</ele>
        <time>2016-02-24T14:02:25Z</time>
      </trkpt>
      <trkpt lat="43.43629" lon="6.03443">
        <ele>261</ele>
        <time>2016-02-24T14:02:26Z</time>
      </trkpt>
      <trkpt lat="43.43629" lon="6.03433">
        <ele>261.79998779297</ele>
        <time>2016-02-24T14:02:28Z</time>
      </trkpt>
      <trkpt lat="43.43628" lon="6.03429">
        <ele>262.20001220703</ele>
        <time>2016-02-24T14:02:29Z</time>
      </trkpt>
      <trkpt lat="43.43628" lon="6.03424">
        <ele>262.20001220703</ele>
        <time>2016-02-24T14:02:30Z</time>
      </trkpt>
      <trkpt lat="43.43628" lon="6.03419">
        <ele>262.20001220703</ele>
        <time>2016-02-24T14:02:31Z</time>
      </trkpt>
      <trkpt lat="43.43627" lon="6.03413">
        <ele>261.79998779297</ele>
        <time>2016-02-24T14:02:32Z</time>
      </trkpt>
      <trkpt lat="43.43626" lon="6.03401">
        <ele>261</ele>
        <time>2016-02-24T14:02:34Z</time>
      </trkpt>
      <trkpt lat="43.43632" lon="6.03393">
        <ele>261.20001220703</ele>
        <time>2016-02-24T14:02:36Z</time>
      </trkpt>
      <trkpt lat="43.43637" lon="6.03385">
        <ele>261.20001220703</ele>
        <time>2016-02-24T14:02:38Z</time>
      </trkpt>
      <trkpt lat="43.43642" lon="6.03379">
        <ele>261.20001220703</ele>
        <time>2016-02-24T14:02:40Z</time>
      </trkpt>
      <trkpt lat="43.43645" lon="6.03372">
        <ele>261.39999389648</ele>
        <time>2016-02-24T14:02:42Z</time>
      </trkpt>
      <trkpt lat="43.43648" lon="6.03365">
        <ele>261</ele>
        <time>2016-02-24T14:02:44Z</time>
      </trkpt>
      <trkpt lat="43.4365" lon="6.03362">
        <ele>261</ele>
        <time>2016-02-24T14:02:45Z</time>
      </trkpt>
      <trkpt lat="43.43652" lon="6.03358">
        <ele>261</ele>
        <time>2016-02-24T14:02:46Z</time>
      </trkpt>
      <trkpt lat="43.43655" lon="6.03352">
        <ele>261.39999389648</ele>
        <time>2016-02-24T14:02:48Z</time>
      </trkpt>
      <trkpt lat="43.43657" lon="6.03348">
        <ele>261.39999389648</ele>
        <time>2016-02-24T14:02:50Z</time>
      </trkpt>
      <trkpt lat="43.4366" lon="6.03342">
        <ele>260.79998779297</ele>
        <time>2016-02-24T14:02:52Z</time>
      </trkpt>
      <trkpt lat="43.43665" lon="6.03335">
        <ele>260.39999389648</ele>
        <time>2016-02-24T14:02:54Z</time>
      </trkpt>
      <trkpt lat="43.43666" lon="6.03327">
        <ele>260.20001220703</ele>
        <time>2016-02-24T14:02:56Z</time>
      </trkpt>
      <trkpt lat="43.43667" lon="6.03322">
        <ele>260.20001220703</ele>
        <time>2016-02-24T14:02:58Z</time>
      </trkpt>
      <trkpt lat="43.43667" lon="6.03322">
        <ele>260</ele>
        <time>2016-02-24T14:02:59Z</time>
      </trkpt>
      <trkpt lat="43.43667" lon="6.03322">
        <ele>260</ele>
        <time>2016-02-24T14:03:00Z</time>
      </trkpt>
      <trkpt lat="43.43667" lon="6.03321">
        <ele>260</ele>
        <time>2016-02-24T14:03:02Z</time>
      </trkpt>
      <trkpt lat="43.43667" lon="6.03321">
        <ele>260</ele>
        <time>2016-02-24T14:03:04Z</time>
      </trkpt>
      <trkpt lat="43.43667" lon="6.0332">
        <ele>259.79998779297</ele>
        <time>2016-02-24T14:03:06Z</time>
      </trkpt>
      <trkpt lat="43.43668" lon="6.03319">
        <ele>260</ele>
        <time>2016-02-24T14:03:08Z</time>
      </trkpt>
      <trkpt lat="43.43667" lon="6.03317">
        <ele>260</ele>
        <time>2016-02-24T14:03:10Z</time>
      </trkpt>
      <trkpt lat="43.43667" lon="6.03317">
        <ele>260</ele>
        <time>2016-02-24T14:03:12Z</time>
      </trkpt>
      <trkpt lat="43.43667" lon="6.03316">
        <ele>260</ele>
        <time>2016-02-24T14:03:14Z</time>
      </trkpt>
      <trkpt lat="43.43668" lon="6.03314">
        <ele>260</ele>
        <time>2016-02-24T14:03:16Z</time>
      </trkpt>
      <trkpt lat="43.43668" lon="6.03314">
        <ele>260</ele>
        <time>2016-02-24T14:03:18Z</time>
      </trkpt>
      <trkpt lat="43.43668" lon="6.03314">
        <ele>260.20001220703</ele>
        <time>2016-02-24T14:03:20Z</time>
      </trkpt>
      <trkpt lat="43.43668" lon="6.03314">
        <ele>260.20001220703</ele>
        <time>2016-02-24T14:03:22Z</time>
      </trkpt>
      <trkpt lat="43.43668" lon="6.03314">
        <ele>260</ele>
        <time>2016-02-24T14:03:24Z</time>
      </trkpt>
      <trkpt lat="43.43668" lon="6.03313">
        <ele>260.20001220703</ele>
        <time>2016-02-24T14:03:26Z</time>
      </trkpt>
      <trkpt lat="43.43669" lon="6.03312">
        <ele>260</ele>
        <time>2016-02-24T14:03:28Z</time>
      </trkpt>
      <trkpt lat="43.4367" lon="6.0331">
        <ele>259.79998779297</ele>
        <time>2016-02-24T14:03:30Z</time>
      </trkpt>
      <trkpt lat="43.43671" lon="6.03309">
        <ele>259.79998779297</ele>
        <time>2016-02-24T14:03:32Z</time>
      </trkpt>
      <trkpt lat="43.43672" lon="6.03307">
        <ele>259.60000610352</ele>
        <time>2016-02-24T14:03:34Z</time>
      </trkpt>
      <trkpt lat="43.43672" lon="6.03306">
        <ele>259.60000610352</ele>
        <time>2016-02-24T14:03:36Z</time>
      </trkpt>
      <trkpt lat="43.43672" lon="6.03306">
        <ele>259.79998779297</ele>
        <time>2016-02-24T14:03:38Z</time>
      </trkpt>
      <trkpt lat="43.43672" lon="6.03306">
        <ele>259.79998779297</ele>
        <time>2016-02-24T14:03:40Z</time>
      </trkpt>
      <trkpt lat="43.43672" lon="6.03306">
        <ele>260</ele>
        <time>2016-02-24T14:03:42Z</time>
      </trkpt>
      <trkpt lat="43.43672" lon="6.03306">
        <ele>260</ele>
        <time>2016-02-24T14:03:44Z</time>
      </trkpt>
      <trkpt lat="43.43672" lon="6.03306">
        <ele>260</ele>
        <time>2016-02-24T14:03:46Z</time>
      </trkpt>
      <trkpt lat="43.43672" lon="6.03306">
        <ele>260</ele>
        <time>2016-02-24T14:03:48Z</time>
      </trkpt>
      <trkpt lat="43.43672" lon="6.03306">
        <ele>260</ele>
        <time>2016-02-24T14:03:50Z</time>
      </trkpt>
      <trkpt lat="43.43672" lon="6.03306">
        <ele>259.79998779297</ele>
        <time>2016-02-24T14:03:52Z</time>
      </trkpt>
      <trkpt lat="43.43672" lon="6.03306">
        <ele>260.20001220703</ele>
        <time>2016-02-24T14:03:54Z</time>
      </trkpt>
      <trkpt lat="43.43672" lon="6.03306">
        <ele>260</ele>
        <time>2016-02-24T14:03:56Z</time>
      </trkpt>
      <trkpt lat="43.43672" lon="6.03306">
        <ele>260</ele>
        <time>2016-02-24T14:04:00Z</time>
      </trkpt>
      <trkpt lat="43.43672" lon="6.03306">
        <ele>260</ele>
        <time>2016-02-24T14:04:02Z</time>
      </trkpt>
      <trkpt lat="43.43673" lon="6.03305">
        <ele>260.20001220703</ele>
        <time>2016-02-24T14:04:04Z</time>
      </trkpt>
      <trkpt lat="43.43675" lon="6.03302">
        <ele>260.39999389648</ele>
        <time>2016-02-24T14:04:06Z</time>
      </trkpt>
      <trkpt lat="43.43676" lon="6.03301">
        <ele>260.60000610352</ele>
        <time>2016-02-24T14:04:07Z</time>
      </trkpt>
      <trkpt lat="43.43678" lon="6.03299">
        <ele>260.60000610352</ele>
        <time>2016-02-24T14:04:08Z</time>
      </trkpt>
      <trkpt lat="43.4368" lon="6.03295">
        <ele>260.79998779297</ele>
        <time>2016-02-24T14:04:10Z</time>
      </trkpt>
      <trkpt lat="43.43681" lon="6.0329">
        <ele>260.60000610352</ele>
        <time>2016-02-24T14:04:12Z</time>
      </trkpt>
      <trkpt lat="43.43682" lon="6.03288">
        <ele>260.60000610352</ele>
        <time>2016-02-24T14:04:13Z</time>
      </trkpt>
      <trkpt lat="43.43683" lon="6.03285">
        <ele>260.79998779297</ele>
        <time>2016-02-24T14:04:14Z</time>
      </trkpt>
      <trkpt lat="43.43685" lon="6.03281">
        <ele>260.60000610352</ele>
        <time>2016-02-24T14:04:16Z</time>
      </trkpt>
      <trkpt lat="43.43687" lon="6.03276">
        <ele>261</ele>
        <time>2016-02-24T14:04:18Z</time>
      </trkpt>
      <trkpt lat="43.43688" lon="6.03274">
        <ele>261.20001220703</ele>
        <time>2016-02-24T14:04:19Z</time>
      </trkpt>
      <trkpt lat="43.43689" lon="6.03271">
        <ele>261.20001220703</ele>
        <time>2016-02-24T14:04:20Z</time>
      </trkpt>
      <trkpt lat="43.43689" lon="6.03266">
        <ele>261.20001220703</ele>
        <time>2016-02-24T14:04:22Z</time>
      </trkpt>
      <trkpt lat="43.43689" lon="6.0326">
        <ele>261.20001220703</ele>
        <time>2016-02-24T14:04:24Z</time>
      </trkpt>
      <trkpt lat="43.43689" lon="6.03255">
        <ele>261.60000610352</ele>
        <time>2016-02-24T14:04:26Z</time>
      </trkpt>
      <trkpt lat="43.43689" lon="6.03249">
        <ele>261.39999389648</ele>
        <time>2016-02-24T14:04:28Z</time>
      </trkpt>
      <trkpt lat="43.43688" lon="6.03244">
        <ele>261.39999389648</ele>
        <time>2016-02-24T14:04:30Z</time>
      </trkpt>
      <trkpt lat="43.43687" lon="6.03239">
        <ele>261.79998779297</ele>
        <time>2016-02-24T14:04:32Z</time>
      </trkpt>
      <trkpt lat="43.43687" lon="6.03238">
        <ele>261.60000610352</ele>
        <time>2016-02-24T14:04:33Z</time>
      </trkpt>
      <trkpt lat="43.43687" lon="6.03236">
        <ele>261.60000610352</ele>
        <time>2016-02-24T14:04:34Z</time>
      </trkpt>
      <trkpt lat="43.43688" lon="6.03231">
        <ele>261.60000610352</ele>
        <time>2016-02-24T14:04:36Z</time>
      </trkpt>
      <trkpt lat="43.43688" lon="6.03227">
        <ele>261.79998779297</ele>
        <time>2016-02-24T14:04:38Z</time>
      </trkpt>
      <trkpt lat="43.43688" lon="6.03224">
        <ele>261.60000610352</ele>
        <time>2016-02-24T14:04:39Z</time>
      </trkpt>
      <trkpt lat="43.43689" lon="6.0322">
        <ele>261.39999389648</ele>
        <time>2016-02-24T14:04:40Z</time>
      </trkpt>
      <trkpt lat="43.4369" lon="6.03214">
        <ele>261.20001220703</ele>
        <time>2016-02-24T14:04:42Z</time>
      </trkpt>
      <trkpt lat="43.43692" lon="6.03208">
        <ele>261.79998779297</ele>
        <time>2016-02-24T14:04:44Z</time>
      </trkpt>
      <trkpt lat="43.43693" lon="6.03205">
        <ele>262</ele>
        <time>2016-02-24T14:04:45Z</time>
      </trkpt>
      <trkpt lat="43.43693" lon="6.03202">
        <ele>262</ele>
        <time>2016-02-24T14:04:46Z</time>
      </trkpt>
      <trkpt lat="43.43695" lon="6.03201">
        <ele>262.20001220703</ele>
        <time>2016-02-24T14:04:47Z</time>
      </trkpt>
      <trkpt lat="43.43696" lon="6.03198">
        <ele>262.39999389648</ele>
        <time>2016-02-24T14:04:48Z</time>
      </trkpt>
      <trkpt lat="43.43696" lon="6.03195">
        <ele>262.60000610352</ele>
        <time>2016-02-24T14:04:49Z</time>
      </trkpt>
      <trkpt lat="43.43695" lon="6.03192">
        <ele>262.60000610352</ele>
        <time>2016-02-24T14:04:50Z</time>
      </trkpt>
      <trkpt lat="43.43693" lon="6.03186">
        <ele>262.20001220703</ele>
        <time>2016-02-24T14:04:52Z</time>
      </trkpt>
      <trkpt lat="43.43693" lon="6.03179">
        <ele>262.39999389648</ele>
        <time>2016-02-24T14:04:54Z</time>
      </trkpt>
      <trkpt lat="43.43694" lon="6.03176">
        <ele>262.39999389648</ele>
        <time>2016-02-24T14:04:55Z</time>
      </trkpt>
      <trkpt lat="43.43694" lon="6.03174">
        <ele>262.39999389648</ele>
        <time>2016-02-24T14:04:56Z</time>
      </trkpt>
      <trkpt lat="43.43694" lon="6.03168">
        <ele>262.60000610352</ele>
        <time>2016-02-24T14:04:58Z</time>
      </trkpt>
      <trkpt lat="43.43692" lon="6.03163">
        <ele>262.39999389648</ele>
        <time>2016-02-24T14:05:00Z</time>
      </trkpt>
      <trkpt lat="43.43692" lon="6.0316">
        <ele>262.39999389648</ele>
        <time>2016-02-24T14:05:01Z</time>
      </trkpt>
      <trkpt lat="43.43691" lon="6.03157">
        <ele>262.39999389648</ele>
        <time>2016-02-24T14:05:02Z</time>
      </trkpt>
      <trkpt lat="43.43689" lon="6.03152">
        <ele>262.60000610352</ele>
        <time>2016-02-24T14:05:04Z</time>
      </trkpt>
      <trkpt lat="43.43689" lon="6.03149">
        <ele>262.60000610352</ele>
        <time>2016-02-24T14:05:05Z</time>
      </trkpt>
      <trkpt lat="43.43691" lon="6.03147">
        <ele>262.39999389648</ele>
        <time>2016-02-24T14:05:06Z</time>
      </trkpt>
      <trkpt lat="43.43693" lon="6.03143">
        <ele>262.39999389648</ele>
        <time>2016-02-24T14:05:08Z</time>
      </trkpt>
      <trkpt lat="43.43694" lon="6.03137">
        <ele>262</ele>
        <time>2016-02-24T14:05:10Z</time>
      </trkpt>
      <trkpt lat="43.43693" lon="6.03134">
        <ele>262.20001220703</ele>
        <time>2016-02-24T14:05:11Z</time>
      </trkpt>
      <trkpt lat="43.43692" lon="6.03131">
        <ele>262.39999389648</ele>
        <time>2016-02-24T14:05:12Z</time>
      </trkpt>
      <trkpt lat="43.43692" lon="6.03125">
        <ele>262.60000610352</ele>
        <time>2016-02-24T14:05:14Z</time>
      </trkpt>
      <trkpt lat="43.43693" lon="6.03119">
        <ele>262.39999389648</ele>
        <time>2016-02-24T14:05:16Z</time>
      </trkpt>
      <trkpt lat="43.43694" lon="6.03113">
        <ele>262.20001220703</ele>
        <time>2016-02-24T14:05:18Z</time>
      </trkpt>
      <trkpt lat="43.43697" lon="6.03105">
        <ele>262.20001220703</ele>
        <time>2016-02-24T14:05:20Z</time>
      </trkpt>
      <trkpt lat="43.43699" lon="6.03094">
        <ele>262.39999389648</ele>
        <time>2016-02-24T14:05:22Z</time>
      </trkpt>
      <trkpt lat="43.437" lon="6.03089">
        <ele>262.60000610352</ele>
        <time>2016-02-24T14:05:23Z</time>
      </trkpt>
      <trkpt lat="43.43703" lon="6.03083">
        <ele>262.79998779297</ele>
        <time>2016-02-24T14:05:24Z</time>
      </trkpt>
      <trkpt lat="43.4371" lon="6.03072">
        <ele>263</ele>
        <time>2016-02-24T14:05:26Z</time>
      </trkpt>
      <trkpt lat="43.43715" lon="6.03068">
        <ele>262.79998779297</ele>
        <time>2016-02-24T14:05:27Z</time>
      </trkpt>
      <trkpt lat="43.4372" lon="6.03065">
        <ele>262.79998779297</ele>
        <time>2016-02-24T14:05:28Z</time>
      </trkpt>
      <trkpt lat="43.43729" lon="6.03058">
        <ele>262.20001220703</ele>
        <time>2016-02-24T14:05:30Z</time>
      </trkpt>
      <trkpt lat="43.43734" lon="6.03055">
        <ele>262</ele>
        <time>2016-02-24T14:05:31Z</time>
      </trkpt>
      <trkpt lat="43.43739" lon="6.03052">
        <ele>262.20001220703</ele>
        <time>2016-02-24T14:05:32Z</time>
      </trkpt>
      <trkpt lat="43.43744" lon="6.03049">
        <ele>262</ele>
        <time>2016-02-24T14:05:33Z</time>
      </trkpt>
      <trkpt lat="43.4375" lon="6.03046">
        <ele>261</ele>
        <time>2016-02-24T14:05:34Z</time>
      </trkpt>
      <trkpt lat="43.43756" lon="6.03045">
        <ele>260.60000610352</ele>
        <time>2016-02-24T14:05:35Z</time>
      </trkpt>
      <trkpt lat="43.43761" lon="6.03043">
        <ele>260.39999389648</ele>
        <time>2016-02-24T14:05:36Z</time>
      </trkpt>
      <trkpt lat="43.43764" lon="6.03039">
        <ele>260</ele>
        <time>2016-02-24T14:05:37Z</time>
      </trkpt>
      <trkpt lat="43.43766" lon="6.03032">
        <ele>259.79998779297</ele>
        <time>2016-02-24T14:05:38Z</time>
      </trkpt>
      <trkpt lat="43.4377" lon="6.03022">
        <ele>259.39999389648</ele>
        <time>2016-02-24T14:05:40Z</time>
      </trkpt>
      <trkpt lat="43.43776" lon="6.03014">
        <ele>259.60000610352</ele>
        <time>2016-02-24T14:05:42Z</time>
      </trkpt>
      <trkpt lat="43.43778" lon="6.03009">
        <ele>259.39999389648</ele>
        <time>2016-02-24T14:05:43Z</time>
      </trkpt>
      <trkpt lat="43.43781" lon="6.03005">
        <ele>259.20001220703</ele>
        <time>2016-02-24T14:05:44Z</time>
      </trkpt>
      <trkpt lat="43.43783" lon="6.03002">
        <ele>259.20001220703</ele>
        <time>2016-02-24T14:05:45Z</time>
      </trkpt>
      <trkpt lat="43.43784" lon="6.02998">
        <ele>259.39999389648</ele>
        <time>2016-02-24T14:05:46Z</time>
      </trkpt>
      <trkpt lat="43.43785" lon="6.02995">
        <ele>259.20001220703</ele>
        <time>2016-02-24T14:05:47Z</time>
      </trkpt>
      <trkpt lat="43.43785" lon="6.02992">
        <ele>259.20001220703</ele>
        <time>2016-02-24T14:05:48Z</time>
      </trkpt>
      <trkpt lat="43.43786" lon="6.0299">
        <ele>259.20001220703</ele>
        <time>2016-02-24T14:05:50Z</time>
      </trkpt>
      <trkpt lat="43.43786" lon="6.02989">
        <ele>259.20001220703</ele>
        <time>2016-02-24T14:05:52Z</time>
      </trkpt>
      <trkpt lat="43.43785" lon="6.02989">
        <ele>259.39999389648</ele>
        <time>2016-02-24T14:05:54Z</time>
      </trkpt>
      <trkpt lat="43.43786" lon="6.02989">
        <ele>259.20001220703</ele>
        <time>2016-02-24T14:05:56Z</time>
      </trkpt>
      <trkpt lat="43.43786" lon="6.02989">
        <ele>259.20001220703</ele>
        <time>2016-02-24T14:05:58Z</time>
      </trkpt>
      <trkpt lat="43.43786" lon="6.02989">
        <ele>259.20001220703</ele>
        <time>2016-02-24T14:06:00Z</time>
      </trkpt>
      <trkpt lat="43.43786" lon="6.02989">
        <ele>259</ele>
        <time>2016-02-24T14:06:02Z</time>
      </trkpt>
      <trkpt lat="43.43786" lon="6.02989">
        <ele>259.20001220703</ele>
        <time>2016-02-24T14:06:04Z</time>
      </trkpt>
      <trkpt lat="43.43786" lon="6.02989">
        <ele>259.20001220703</ele>
        <time>2016-02-24T14:06:06Z</time>
      </trkpt>
      <trkpt lat="43.43786" lon="6.02989">
        <ele>259.20001220703</ele>
        <time>2016-02-24T14:06:08Z</time>
      </trkpt>
      <trkpt lat="43.43786" lon="6.02989">
        <ele>259.39999389648</ele>
        <time>2016-02-24T14:06:10Z</time>
      </trkpt>
      <trkpt lat="43.43786" lon="6.02989">
        <ele>259.39999389648</ele>
        <time>2016-02-24T14:06:12Z</time>
      </trkpt>
      <trkpt lat="43.43786" lon="6.02989">
        <ele>259.39999389648</ele>
        <time>2016-02-24T14:06:14Z</time>
      </trkpt>
      <trkpt lat="43.43786" lon="6.02989">
        <ele>259.39999389648</ele>
        <time>2016-02-24T14:06:16Z</time>
      </trkpt>
      <trkpt lat="43.43786" lon="6.02989">
        <ele>259.20001220703</ele>
        <time>2016-02-24T14:06:18Z</time>
      </trkpt>
      <trkpt lat="43.43786" lon="6.02989">
        <ele>259.20001220703</ele>
        <time>2016-02-24T14:06:20Z</time>
      </trkpt>
      <trkpt lat="43.43786" lon="6.02989">
        <ele>259.20001220703</ele>
        <time>2016-02-24T14:06:22Z</time>
      </trkpt>
      <trkpt lat="43.43786" lon="6.02989">
        <ele>259</ele>
        <time>2016-02-24T14:06:24Z</time>
      </trkpt>
      <trkpt lat="43.43786" lon="6.02989">
        <ele>259</ele>
        <time>2016-02-24T14:06:26Z</time>
      </trkpt>
      <trkpt lat="43.43786" lon="6.02989">
        <ele>259.20001220703</ele>
        <time>2016-02-24T14:06:28Z</time>
      </trkpt>
      <trkpt lat="43.43786" lon="6.02989">
        <ele>259</ele>
        <time>2016-02-24T14:06:30Z</time>
      </trkpt>
      <trkpt lat="43.43786" lon="6.02989">
        <ele>259.20001220703</ele>
        <time>2016-02-24T14:06:32Z</time>
      </trkpt>
      <trkpt lat="43.43786" lon="6.02989">
        <ele>259.20001220703</ele>
        <time>2016-02-24T14:06:34Z</time>
      </trkpt>
      <trkpt lat="43.43786" lon="6.02989">
        <ele>259.20001220703</ele>
        <time>2016-02-24T14:06:36Z</time>
      </trkpt>
      <trkpt lat="43.43786" lon="6.02989">
        <ele>259</ele>
        <time>2016-02-24T14:06:38Z</time>
      </trkpt>
      <trkpt lat="43.43786" lon="6.02989">
        <ele>259</ele>
        <time>2016-02-24T14:06:40Z</time>
      </trkpt>
      <trkpt lat="43.43786" lon="6.02989">
        <ele>259.20001220703</ele>
        <time>2016-02-24T14:06:42Z</time>
      </trkpt>
      <trkpt lat="43.43786" lon="6.02989">
        <ele>259.20001220703</ele>
        <time>2016-02-24T14:06:44Z</time>
      </trkpt>
      <trkpt lat="43.43786" lon="6.02989">
        <ele>259.20001220703</ele>
        <time>2016-02-24T14:06:46Z</time>
      </trkpt>
      <trkpt lat="43.43786" lon="6.02989">
        <ele>259.20001220703</ele>
        <time>2016-02-24T14:06:48Z</time>
      </trkpt>
      <trkpt lat="43.43786" lon="6.02989">
        <ele>259.20001220703</ele>
        <time>2016-02-24T14:06:50Z</time>
      </trkpt>
      <trkpt lat="43.43786" lon="6.02989">
        <ele>259.20001220703</ele>
        <time>2016-02-24T14:06:52Z</time>
      </trkpt>
      <trkpt lat="43.43786" lon="6.02989">
        <ele>259.20001220703</ele>
        <time>2016-02-24T14:06:54Z</time>
      </trkpt>
      <trkpt lat="43.43786" lon="6.02988">
        <ele>259.20001220703</ele>
        <time>2016-02-24T14:06:56Z</time>
      </trkpt>
      <trkpt lat="43.43786" lon="6.02988">
        <ele>259</ele>
        <time>2016-02-24T14:06:58Z</time>
      </trkpt>
      <trkpt lat="43.43786" lon="6.02988">
        <ele>259</ele>
        <time>2016-02-24T14:07:00Z</time>
      </trkpt>
      <trkpt lat="43.43786" lon="6.02988">
        <ele>259</ele>
        <time>2016-02-24T14:07:02Z</time>
      </trkpt>
      <trkpt lat="43.43786" lon="6.02988">
        <ele>259</ele>
        <time>2016-02-24T14:07:04Z</time>
      </trkpt>
      <trkpt lat="43.43786" lon="6.02988">
        <ele>259</ele>
        <time>2016-02-24T14:07:06Z</time>
      </trkpt>
      <trkpt lat="43.43786" lon="6.02988">
        <ele>259</ele>
        <time>2016-02-24T14:07:08Z</time>
      </trkpt>
      <trkpt lat="43.43786" lon="6.02988">
        <ele>259</ele>
        <time>2016-02-24T14:07:10Z</time>
      </trkpt>
      <trkpt lat="43.43786" lon="6.02988">
        <ele>259</ele>
        <time>2016-02-24T14:07:12Z</time>
      </trkpt>
      <trkpt lat="43.43786" lon="6.02988">
        <ele>259</ele>
        <time>2016-02-24T14:07:14Z</time>
      </trkpt>
      <trkpt lat="43.43786" lon="6.02988">
        <ele>259</ele>
        <time>2016-02-24T14:07:16Z</time>
      </trkpt>
      <trkpt lat="43.43786" lon="6.02988">
        <ele>259</ele>
        <time>2016-02-24T14:07:18Z</time>
      </trkpt>
      <trkpt lat="43.43786" lon="6.02988">
        <ele>259.20001220703</ele>
        <time>2016-02-24T14:07:20Z</time>
      </trkpt>
      <trkpt lat="43.43786" lon="6.02988">
        <ele>259.20001220703</ele>
        <time>2016-02-24T14:07:22Z</time>
      </trkpt>
      <trkpt lat="43.43786" lon="6.02988">
        <ele>259</ele>
        <time>2016-02-24T14:07:24Z</time>
      </trkpt>
      <trkpt lat="43.43786" lon="6.02988">
        <ele>259.20001220703</ele>
        <time>2016-02-24T14:07:26Z</time>
      </trkpt>
      <trkpt lat="43.43786" lon="6.02988">
        <ele>259.20001220703</ele>
        <time>2016-02-24T14:07:28Z</time>
      </trkpt>
      <trkpt lat="43.43786" lon="6.02988">
        <ele>259.20001220703</ele>
        <time>2016-02-24T14:07:30Z</time>
      </trkpt>
      <trkpt lat="43.43786" lon="6.02988">
        <ele>259.20001220703</ele>
        <time>2016-02-24T14:07:32Z</time>
      </trkpt>
      <trkpt lat="43.43786" lon="6.02988">
        <ele>259</ele>
        <time>2016-02-24T14:07:34Z</time>
      </trkpt>
      <trkpt lat="43.43786" lon="6.02988">
        <ele>259</ele>
        <time>2016-02-24T14:07:36Z</time>
      </trkpt>
      <trkpt lat="43.43786" lon="6.02988">
        <ele>259</ele>
        <time>2016-02-24T14:07:38Z</time>
      </trkpt>
      <trkpt lat="43.43786" lon="6.02988">
        <ele>258.79998779297</ele>
        <time>2016-02-24T14:07:40Z</time>
      </trkpt>
      <trkpt lat="43.43787" lon="6.02987">
        <ele>259</ele>
        <time>2016-02-24T14:07:42Z</time>
      </trkpt>
      <trkpt lat="43.43787" lon="6.02985">
        <ele>259</ele>
        <time>2016-02-24T14:07:43Z</time>
      </trkpt>
      <trkpt lat="43.43787" lon="6.02985">
        <ele>259.20001220703</ele>
        <time>2016-02-24T14:07:44Z</time>
      </trkpt>
      <trkpt lat="43.43787" lon="6.02984">
        <ele>259.39999389648</ele>
        <time>2016-02-24T14:07:46Z</time>
      </trkpt>
      <trkpt lat="43.43787" lon="6.02983">
        <ele>259.20001220703</ele>
        <time>2016-02-24T14:07:48Z</time>
      </trkpt>
      <trkpt lat="43.43787" lon="6.02982">
        <ele>259.39999389648</ele>
        <time>2016-02-24T14:07:50Z</time>
      </trkpt>
      <trkpt lat="43.43786" lon="6.02981">
        <ele>259.20001220703</ele>
        <time>2016-02-24T14:07:52Z</time>
      </trkpt>
      <trkpt lat="43.43786" lon="6.02979">
        <ele>259.20001220703</ele>
        <time>2016-02-24T14:07:54Z</time>
      </trkpt>
      <trkpt lat="43.43786" lon="6.02978">
        <ele>259</ele>
        <time>2016-02-24T14:07:55Z</time>
      </trkpt>
      <trkpt lat="43.43786" lon="6.02978">
        <ele>259</ele>
        <time>2016-02-24T14:07:56Z</time>
      </trkpt>
      <trkpt lat="43.43786" lon="6.02977">
        <ele>259.20001220703</ele>
        <time>2016-02-24T14:07:58Z</time>
      </trkpt>
      <trkpt lat="43.43787" lon="6.02975">
        <ele>259.60000610352</ele>
        <time>2016-02-24T14:08:00Z</time>
      </trkpt>
      <trkpt lat="43.43786" lon="6.02975">
        <ele>259.60000610352</ele>
        <time>2016-02-24T14:08:02Z</time>
      </trkpt>
      <trkpt lat="43.43786" lon="6.02974">
        <ele>259.60000610352</ele>
        <time>2016-02-24T14:08:04Z</time>
      </trkpt>
      <trkpt lat="43.43786" lon="6.02973">
        <ele>259.39999389648</ele>
        <time>2016-02-24T14:08:06Z</time>
      </trkpt>
      <trkpt lat="43.43786" lon="6.02973">
        <ele>259.39999389648</ele>
        <time>2016-02-24T14:08:07Z</time>
      </trkpt>
      <trkpt lat="43.43786" lon="6.02973">
        <ele>259.39999389648</ele>
        <time>2016-02-24T14:08:08Z</time>
      </trkpt>
      <trkpt lat="43.43786" lon="6.02972">
        <ele>259.39999389648</ele>
        <time>2016-02-24T14:08:09Z</time>
      </trkpt>
      <trkpt lat="43.43786" lon="6.02972">
        <ele>259.39999389648</ele>
        <time>2016-02-24T14:08:10Z</time>
      </trkpt>
      <trkpt lat="43.43787" lon="6.02972">
        <ele>259.39999389648</ele>
        <time>2016-02-24T14:08:12Z</time>
      </trkpt>
      <trkpt lat="43.43788" lon="6.02969">
        <ele>259.39999389648</ele>
        <time>2016-02-24T14:08:14Z</time>
      </trkpt>
      <trkpt lat="43.43789" lon="6.02965">
        <ele>259.39999389648</ele>
        <time>2016-02-24T14:08:16Z</time>
      </trkpt>
      <trkpt lat="43.43792" lon="6.0296">
        <ele>259.79998779297</ele>
        <time>2016-02-24T14:08:18Z</time>
      </trkpt>
      <trkpt lat="43.43792" lon="6.02958">
        <ele>259.79998779297</ele>
        <time>2016-02-24T14:08:19Z</time>
      </trkpt>
      <trkpt lat="43.43794" lon="6.02955">
        <ele>259.79998779297</ele>
        <time>2016-02-24T14:08:20Z</time>
      </trkpt>
      <trkpt lat="43.43795" lon="6.02952">
        <ele>260</ele>
        <time>2016-02-24T14:08:21Z</time>
      </trkpt>
      <trkpt lat="43.43796" lon="6.02949">
        <ele>260.20001220703</ele>
        <time>2016-02-24T14:08:22Z</time>
      </trkpt>
      <trkpt lat="43.43797" lon="6.02945">
        <ele>260.20001220703</ele>
        <time>2016-02-24T14:08:23Z</time>
      </trkpt>
      <trkpt lat="43.43798" lon="6.02941">
        <ele>260.20001220703</ele>
        <time>2016-02-24T14:08:24Z</time>
      </trkpt>
      <trkpt lat="43.43798" lon="6.02933">
        <ele>260.20001220703</ele>
        <time>2016-02-24T14:08:26Z</time>
      </trkpt>
      <trkpt lat="43.43797" lon="6.02925">
        <ele>260.39999389648</ele>
        <time>2016-02-24T14:08:28Z</time>
      </trkpt>
      <trkpt lat="43.43795" lon="6.02917">
        <ele>260.60000610352</ele>
        <time>2016-02-24T14:08:30Z</time>
      </trkpt>
      <trkpt lat="43.43795" lon="6.02913">
        <ele>260.60000610352</ele>
        <time>2016-02-24T14:08:31Z</time>
      </trkpt>
      <trkpt lat="43.43795" lon="6.02909">
        <ele>261.20001220703</ele>
        <time>2016-02-24T14:08:32Z</time>
      </trkpt>
      <trkpt lat="43.43796" lon="6.02906">
        <ele>261.39999389648</ele>
        <time>2016-02-24T14:08:33Z</time>
      </trkpt>
      <trkpt lat="43.43797" lon="6.02901">
        <ele>261.39999389648</ele>
        <time>2016-02-24T14:08:34Z</time>
      </trkpt>
      <trkpt lat="43.43798" lon="6.02892">
        <ele>261.39999389648</ele>
        <time>2016-02-24T14:08:36Z</time>
      </trkpt>
      <trkpt lat="43.43799" lon="6.02884">
        <ele>261.60000610352</ele>
        <time>2016-02-24T14:08:38Z</time>
      </trkpt>
      <trkpt lat="43.43801" lon="6.02876">
        <ele>261.60000610352</ele>
        <time>2016-02-24T14:08:40Z</time>
      </trkpt>
      <trkpt lat="43.43804" lon="6.02867">
        <ele>261.79998779297</ele>
        <time>2016-02-24T14:08:42Z</time>
      </trkpt>
      <trkpt lat="43.43805" lon="6.02863">
        <ele>261.60000610352</ele>
        <time>2016-02-24T14:08:43Z</time>
      </trkpt>
      <trkpt lat="43.43806" lon="6.02861">
        <ele>261.60000610352</ele>
        <time>2016-02-24T14:08:44Z</time>
      </trkpt>
      <trkpt lat="43.43806" lon="6.02859">
        <ele>261.60000610352</ele>
        <time>2016-02-24T14:08:45Z</time>
      </trkpt>
      <trkpt lat="43.43808" lon="6.02855">
        <ele>261.60000610352</ele>
        <time>2016-02-24T14:08:46Z</time>
      </trkpt>
      <trkpt lat="43.43811" lon="6.02846">
        <ele>261.20001220703</ele>
        <time>2016-02-24T14:08:48Z</time>
      </trkpt>
      <trkpt lat="43.43812" lon="6.02842">
        <ele>261</ele>
        <time>2016-02-24T14:08:49Z</time>
      </trkpt>
      <trkpt lat="43.43811" lon="6.02837">
        <ele>261.20001220703</ele>
        <time>2016-02-24T14:08:50Z</time>
      </trkpt>
      <trkpt lat="43.4381" lon="6.02827">
        <ele>261.79998779297</ele>
        <time>2016-02-24T14:08:52Z</time>
      </trkpt>
      <trkpt lat="43.43809" lon="6.02823">
        <ele>262.60000610352</ele>
        <time>2016-02-24T14:08:53Z</time>
      </trkpt>
      <trkpt lat="43.43808" lon="6.0282">
        <ele>262.79998779297</ele>
        <time>2016-02-24T14:08:54Z</time>
      </trkpt>
      <trkpt lat="43.43806" lon="6.02817">
        <ele>263.20001220703</ele>
        <time>2016-02-24T14:08:55Z</time>
      </trkpt>
      <trkpt lat="43.43805" lon="6.02815">
        <ele>263.20001220703</ele>
        <time>2016-02-24T14:08:56Z</time>
      </trkpt>
      <trkpt lat="43.438" lon="6.02809">
        <ele>263.39999389648</ele>
        <time>2016-02-24T14:08:58Z</time>
      </trkpt>
      <trkpt lat="43.438" lon="6.02808">
        <ele>264</ele>
        <time>2016-02-24T14:08:59Z</time>
      </trkpt>
      <trkpt lat="43.43798" lon="6.02807">
        <ele>264</ele>
        <time>2016-02-24T14:09:00Z</time>
      </trkpt>
      <trkpt lat="43.43797" lon="6.02804">
        <ele>264.20001220703</ele>
        <time>2016-02-24T14:09:01Z</time>
      </trkpt>
      <trkpt lat="43.43797" lon="6.02802">
        <ele>264.39999389648</ele>
        <time>2016-02-24T14:09:02Z</time>
      </trkpt>
      <trkpt lat="43.43794" lon="6.02796">
        <ele>264</ele>
        <time>2016-02-24T14:09:04Z</time>
      </trkpt>
      <trkpt lat="43.43793" lon="6.02795">
        <ele>264</ele>
        <time>2016-02-24T14:09:05Z</time>
      </trkpt>
      <trkpt lat="43.43792" lon="6.02793">
        <ele>264</ele>
        <time>2016-02-24T14:09:06Z</time>
      </trkpt>
      <trkpt lat="43.4379" lon="6.02787">
        <ele>264</ele>
        <time>2016-02-24T14:09:08Z</time>
      </trkpt>
      <trkpt lat="43.43788" lon="6.02785">
        <ele>264.20001220703</ele>
        <time>2016-02-24T14:09:09Z</time>
      </trkpt>
      <trkpt lat="43.43787" lon="6.02783">
        <ele>264.20001220703</ele>
        <time>2016-02-24T14:09:10Z</time>
      </trkpt>
      <trkpt lat="43.43786" lon="6.02776">
        <ele>264.39999389648</ele>
        <time>2016-02-24T14:09:12Z</time>
      </trkpt>
      <trkpt lat="43.43787" lon="6.02772">
        <ele>264.20001220703</ele>
        <time>2016-02-24T14:09:14Z</time>
      </trkpt>
      <trkpt lat="43.43787" lon="6.0277">
        <ele>264.20001220703</ele>
        <time>2016-02-24T14:09:15Z</time>
      </trkpt>
      <trkpt lat="43.43787" lon="6.02767">
        <ele>264.39999389648</ele>
        <time>2016-02-24T14:09:16Z</time>
      </trkpt>
      <trkpt lat="43.43788" lon="6.02764">
        <ele>264.60000610352</ele>
        <time>2016-02-24T14:09:17Z</time>
      </trkpt>
      <trkpt lat="43.4379" lon="6.02761">
        <ele>264.60000610352</ele>
        <time>2016-02-24T14:09:18Z</time>
      </trkpt>
      <trkpt lat="43.4379" lon="6.02755">
        <ele>264.79998779297</ele>
        <time>2016-02-24T14:09:20Z</time>
      </trkpt>
      <trkpt lat="43.43789" lon="6.02748">
        <ele>264.79998779297</ele>
        <time>2016-02-24T14:09:22Z</time>
      </trkpt>
      <trkpt lat="43.43788" lon="6.02744">
        <ele>265</ele>
        <time>2016-02-24T14:09:23Z</time>
      </trkpt>
      <trkpt lat="43.43788" lon="6.02741">
        <ele>265</ele>
        <time>2016-02-24T14:09:24Z</time>
      </trkpt>
      <trkpt lat="43.43785" lon="6.02734">
        <ele>264.60000610352</ele>
        <time>2016-02-24T14:09:26Z</time>
      </trkpt>
      <trkpt lat="43.43783" lon="6.02728">
        <ele>265</ele>
        <time>2016-02-24T14:09:28Z</time>
      </trkpt>
      <trkpt lat="43.43778" lon="6.02728">
        <ele>264.79998779297</ele>
        <time>2016-02-24T14:09:30Z</time>
      </trkpt>
      <trkpt lat="43.43774" lon="6.02725">
        <ele>264.79998779297</ele>
        <time>2016-02-24T14:09:32Z</time>
      </trkpt>
      <trkpt lat="43.43771" lon="6.02723">
        <ele>265.39999389648</ele>
        <time>2016-02-24T14:09:34Z</time>
      </trkpt>
      <trkpt lat="43.43769" lon="6.0272">
        <ele>265.39999389648</ele>
        <time>2016-02-24T14:09:35Z</time>
      </trkpt>
      <trkpt lat="43.43768" lon="6.02718">
        <ele>265.39999389648</ele>
        <time>2016-02-24T14:09:36Z</time>
      </trkpt>
      <trkpt lat="43.43766" lon="6.02715">
        <ele>266</ele>
        <time>2016-02-24T14:09:38Z</time>
      </trkpt>
      <trkpt lat="43.43765" lon="6.02713">
        <ele>266.20001220703</ele>
        <time>2016-02-24T14:09:39Z</time>
      </trkpt>
      <trkpt lat="43.43764" lon="6.02711">
        <ele>266.39999389648</ele>
        <time>2016-02-24T14:09:40Z</time>
      </trkpt>
      <trkpt lat="43.43766" lon="6.02709">
        <ele>266.39999389648</ele>
        <time>2016-02-24T14:09:41Z</time>
      </trkpt>
      <trkpt lat="43.43767" lon="6.02707">
        <ele>266.60000610352</ele>
        <time>2016-02-24T14:09:42Z</time>
      </trkpt>
      <trkpt lat="43.43768" lon="6.02707">
        <ele>266.60000610352</ele>
        <time>2016-02-24T14:09:43Z</time>
      </trkpt>
      <trkpt lat="43.4377" lon="6.02706">
        <ele>266.39999389648</ele>
        <time>2016-02-24T14:09:44Z</time>
      </trkpt>
      <trkpt lat="43.43773" lon="6.02705">
        <ele>266.60000610352</ele>
        <time>2016-02-24T14:09:46Z</time>
      </trkpt>
      <trkpt lat="43.43776" lon="6.02704">
        <ele>266.60000610352</ele>
        <time>2016-02-24T14:09:48Z</time>
      </trkpt>
      <trkpt lat="43.43777" lon="6.02701">
        <ele>266.60000610352</ele>
        <time>2016-02-24T14:09:49Z</time>
      </trkpt>
      <trkpt lat="43.43779" lon="6.02699">
        <ele>266.39999389648</ele>
        <time>2016-02-24T14:09:50Z</time>
      </trkpt>
      <trkpt lat="43.4378" lon="6.02697">
        <ele>266.20001220703</ele>
        <time>2016-02-24T14:09:51Z</time>
      </trkpt>
      <trkpt lat="43.43781" lon="6.02695">
        <ele>266</ele>
        <time>2016-02-24T14:09:52Z</time>
      </trkpt>
      <trkpt lat="43.43783" lon="6.02693">
        <ele>266</ele>
        <time>2016-02-24T14:09:53Z</time>
      </trkpt>
      <trkpt lat="43.43784" lon="6.02692">
        <ele>265.79998779297</ele>
        <time>2016-02-24T14:09:54Z</time>
      </trkpt>
      <trkpt lat="43.43785" lon="6.02691">
        <ele>265.60000610352</ele>
        <time>2016-02-24T14:09:55Z</time>
      </trkpt>
      <trkpt lat="43.43786" lon="6.0269">
        <ele>265.60000610352</ele>
        <time>2016-02-24T14:09:56Z</time>
      </trkpt>
      <trkpt lat="43.43787" lon="6.02685">
        <ele>265.39999389648</ele>
        <time>2016-02-24T14:09:58Z</time>
      </trkpt>
      <trkpt lat="43.43786" lon="6.02685">
        <ele>265.79998779297</ele>
        <time>2016-02-24T14:10:00Z</time>
      </trkpt>
      <trkpt lat="43.43787" lon="6.02684">
        <ele>266</ele>
        <time>2016-02-24T14:10:02Z</time>
      </trkpt>
      <trkpt lat="43.43787" lon="6.02684">
        <ele>266</ele>
        <time>2016-02-24T14:10:04Z</time>
      </trkpt>
      <trkpt lat="43.43786" lon="6.02684">
        <ele>266</ele>
        <time>2016-02-24T14:10:06Z</time>
      </trkpt>
      <trkpt lat="43.43786" lon="6.02684">
        <ele>266.20001220703</ele>
        <time>2016-02-24T14:10:08Z</time>
      </trkpt>
      <trkpt lat="43.43786" lon="6.02683">
        <ele>266.20001220703</ele>
        <time>2016-02-24T14:10:10Z</time>
      </trkpt>
      <trkpt lat="43.43785" lon="6.02681">
        <ele>266.20001220703</ele>
        <time>2016-02-24T14:10:12Z</time>
      </trkpt>
      <trkpt lat="43.43785" lon="6.0268">
        <ele>266.39999389648</ele>
        <time>2016-02-24T14:10:13Z</time>
      </trkpt>
      <trkpt lat="43.43785" lon="6.02678">
        <ele>266.39999389648</ele>
        <time>2016-02-24T14:10:14Z</time>
      </trkpt>
      <trkpt lat="43.43785" lon="6.02676">
        <ele>266.39999389648</ele>
        <time>2016-02-24T14:10:15Z</time>
      </trkpt>
      <trkpt lat="43.43786" lon="6.02674">
        <ele>266.39999389648</ele>
        <time>2016-02-24T14:10:16Z</time>
      </trkpt>
      <trkpt lat="43.43787" lon="6.02671">
        <ele>266.60000610352</ele>
        <time>2016-02-24T14:10:18Z</time>
      </trkpt>
      <trkpt lat="43.43787" lon="6.02669">
        <ele>266.60000610352</ele>
        <time>2016-02-24T14:10:19Z</time>
      </trkpt>
      <trkpt lat="43.43787" lon="6.02667">
        <ele>266.39999389648</ele>
        <time>2016-02-24T14:10:20Z</time>
      </trkpt>
      <trkpt lat="43.43786" lon="6.02664">
        <ele>266.39999389648</ele>
        <time>2016-02-24T14:10:21Z</time>
      </trkpt>
      <trkpt lat="43.43785" lon="6.02662">
        <ele>266.20001220703</ele>
        <time>2016-02-24T14:10:22Z</time>
      </trkpt>
      <trkpt lat="43.43785" lon="6.02659">
        <ele>266.39999389648</ele>
        <time>2016-02-24T14:10:23Z</time>
      </trkpt>
      <trkpt lat="43.43785" lon="6.02657">
        <ele>266.60000610352</ele>
        <time>2016-02-24T14:10:24Z</time>
      </trkpt>
      <trkpt lat="43.43784" lon="6.02651">
        <ele>266.60000610352</ele>
        <time>2016-02-24T14:10:26Z</time>
      </trkpt>
      <trkpt lat="43.43785" lon="6.02646">
        <ele>267.20001220703</ele>
        <time>2016-02-24T14:10:28Z</time>
      </trkpt>
      <trkpt lat="43.43786" lon="6.0264">
        <ele>267.39999389648</ele>
        <time>2016-02-24T14:10:30Z</time>
      </trkpt>
      <trkpt lat="43.43787" lon="6.02637">
        <ele>267.39999389648</ele>
        <time>2016-02-24T14:10:31Z</time>
      </trkpt>
      <trkpt lat="43.43788" lon="6.02635">
        <ele>267.39999389648</ele>
        <time>2016-02-24T14:10:32Z</time>
      </trkpt>
      <trkpt lat="43.4379" lon="6.0263">
        <ele>267.39999389648</ele>
        <time>2016-02-24T14:10:34Z</time>
      </trkpt>
      <trkpt lat="43.43791" lon="6.02624">
        <ele>267.20001220703</ele>
        <time>2016-02-24T14:10:36Z</time>
      </trkpt>
      <trkpt lat="43.43793" lon="6.02618">
        <ele>267.39999389648</ele>
        <time>2016-02-24T14:10:38Z</time>
      </trkpt>
      <trkpt lat="43.43794" lon="6.02613">
        <ele>267.39999389648</ele>
        <time>2016-02-24T14:10:40Z</time>
      </trkpt>
      <trkpt lat="43.43795" lon="6.02606">
        <ele>267.20001220703</ele>
        <time>2016-02-24T14:10:42Z</time>
      </trkpt>
      <trkpt lat="43.43795" lon="6.026">
        <ele>267.20001220703</ele>
        <time>2016-02-24T14:10:44Z</time>
      </trkpt>
      <trkpt lat="43.43794" lon="6.02592">
        <ele>267.39999389648</ele>
        <time>2016-02-24T14:10:46Z</time>
      </trkpt>
      <trkpt lat="43.43794" lon="6.02586">
        <ele>267.20001220703</ele>
        <time>2016-02-24T14:10:48Z</time>
      </trkpt>
      <trkpt lat="43.43793" lon="6.02582">
        <ele>267.20001220703</ele>
        <time>2016-02-24T14:10:49Z</time>
      </trkpt>
      <trkpt lat="43.43793" lon="6.02579">
        <ele>267.20001220703</ele>
        <time>2016-02-24T14:10:50Z</time>
      </trkpt>
      <trkpt lat="43.43791" lon="6.02573">
        <ele>267.39999389648</ele>
        <time>2016-02-24T14:10:52Z</time>
      </trkpt>
      <trkpt lat="43.43791" lon="6.0257">
        <ele>267.20001220703</ele>
        <time>2016-02-24T14:10:53Z</time>
      </trkpt>
      <trkpt lat="43.43791" lon="6.02566">
        <ele>267.20001220703</ele>
        <time>2016-02-24T14:10:54Z</time>
      </trkpt>
      <trkpt lat="43.43791" lon="6.02559">
        <ele>267.20001220703</ele>
        <time>2016-02-24T14:10:56Z</time>
      </trkpt>
      <trkpt lat="43.43792" lon="6.02553">
        <ele>267</ele>
        <time>2016-02-24T14:10:58Z</time>
      </trkpt>
      <trkpt lat="43.4379" lon="6.02547">
        <ele>267.20001220703</ele>
        <time>2016-02-24T14:11:00Z</time>
      </trkpt>
      <trkpt lat="43.43791" lon="6.02542">
        <ele>267.39999389648</ele>
        <time>2016-02-24T14:11:02Z</time>
      </trkpt>
      <trkpt lat="43.43792" lon="6.02539">
        <ele>267.60000610352</ele>
        <time>2016-02-24T14:11:03Z</time>
      </trkpt>
      <trkpt lat="43.43793" lon="6.02537">
        <ele>267.79998779297</ele>
        <time>2016-02-24T14:11:04Z</time>
      </trkpt>
      <trkpt lat="43.43796" lon="6.0253">
        <ele>267.60000610352</ele>
        <time>2016-02-24T14:11:06Z</time>
      </trkpt>
      <trkpt lat="43.43798" lon="6.02523">
        <ele>267.20001220703</ele>
        <time>2016-02-24T14:11:08Z</time>
      </trkpt>
      <trkpt lat="43.43798" lon="6.02519">
        <ele>267</ele>
        <time>2016-02-24T14:11:09Z</time>
      </trkpt>
      <trkpt lat="43.43797" lon="6.02516">
        <ele>266.79998779297</ele>
        <time>2016-02-24T14:11:10Z</time>
      </trkpt>
      <trkpt lat="43.43797" lon="6.02513">
        <ele>266.60000610352</ele>
        <time>2016-02-24T14:11:11Z</time>
      </trkpt>
      <trkpt lat="43.43797" lon="6.0251">
        <ele>266.60000610352</ele>
        <time>2016-02-24T14:11:12Z</time>
      </trkpt>
      <trkpt lat="43.43798" lon="6.02501">
        <ele>266.20001220703</ele>
        <time>2016-02-24T14:11:14Z</time>
      </trkpt>
      <trkpt lat="43.43798" lon="6.02496">
        <ele>265.79998779297</ele>
        <time>2016-02-24T14:11:16Z</time>
      </trkpt>
      <trkpt lat="43.43797" lon="6.02494">
        <ele>265.79998779297</ele>
        <time>2016-02-24T14:11:17Z</time>
      </trkpt>
      <trkpt lat="43.43796" lon="6.02492">
        <ele>266</ele>
        <time>2016-02-24T14:11:18Z</time>
      </trkpt>
      <trkpt lat="43.43796" lon="6.02489">
        <ele>266.20001220703</ele>
        <time>2016-02-24T14:11:19Z</time>
      </trkpt>
      <trkpt lat="43.43796" lon="6.02487">
        <ele>266.20001220703</ele>
        <time>2016-02-24T14:11:20Z</time>
      </trkpt>
      <trkpt lat="43.43795" lon="6.02485">
        <ele>266.60000610352</ele>
        <time>2016-02-24T14:11:21Z</time>
      </trkpt>
      <trkpt lat="43.43794" lon="6.02484">
        <ele>267</ele>
        <time>2016-02-24T14:11:22Z</time>
      </trkpt>
      <trkpt lat="43.43794" lon="6.02484">
        <ele>267</ele>
        <time>2016-02-24T14:11:23Z</time>
      </trkpt>
      <trkpt lat="43.43793" lon="6.02485">
        <ele>267.20001220703</ele>
        <time>2016-02-24T14:11:24Z</time>
      </trkpt>
      <trkpt lat="43.43792" lon="6.02485">
        <ele>268</ele>
        <time>2016-02-24T14:11:26Z</time>
      </trkpt>
      <trkpt lat="43.43792" lon="6.02484">
        <ele>268</ele>
        <time>2016-02-24T14:11:27Z</time>
      </trkpt>
      <trkpt lat="43.43792" lon="6.02484">
        <ele>267.79998779297</ele>
        <time>2016-02-24T14:11:28Z</time>
      </trkpt>
      <trkpt lat="43.43792" lon="6.02485">
        <ele>267.79998779297</ele>
        <time>2016-02-24T14:11:29Z</time>
      </trkpt>
      <trkpt lat="43.43792" lon="6.02485">
        <ele>267.79998779297</ele>
        <time>2016-02-24T14:11:30Z</time>
      </trkpt>
      <trkpt lat="43.43792" lon="6.02484">
        <ele>267.79998779297</ele>
        <time>2016-02-24T14:11:31Z</time>
      </trkpt>
      <trkpt lat="43.43792" lon="6.02484">
        <ele>267.79998779297</ele>
        <time>2016-02-24T14:11:32Z</time>
      </trkpt>
      <trkpt lat="43.43792" lon="6.02484">
        <ele>267.79998779297</ele>
        <time>2016-02-24T14:11:33Z</time>
      </trkpt>
      <trkpt lat="43.43792" lon="6.02484">
        <ele>267.60000610352</ele>
        <time>2016-02-24T14:11:34Z</time>
      </trkpt>
      <trkpt lat="43.43793" lon="6.02484">
        <ele>267.60000610352</ele>
        <time>2016-02-24T14:11:36Z</time>
      </trkpt>
      <trkpt lat="43.43794" lon="6.02483">
        <ele>267.20001220703</ele>
        <time>2016-02-24T14:11:38Z</time>
      </trkpt>
      <trkpt lat="43.43795" lon="6.02484">
        <ele>267</ele>
        <time>2016-02-24T14:11:40Z</time>
      </trkpt>
      <trkpt lat="43.43795" lon="6.02484">
        <ele>266.79998779297</ele>
        <time>2016-02-24T14:11:41Z</time>
      </trkpt>
      <trkpt lat="43.43796" lon="6.02484">
        <ele>266.60000610352</ele>
        <time>2016-02-24T14:11:42Z</time>
      </trkpt>
      <trkpt lat="43.43796" lon="6.02485">
        <ele>266.60000610352</ele>
        <time>2016-02-24T14:11:43Z</time>
      </trkpt>
      <trkpt lat="43.43796" lon="6.02486">
        <ele>266.39999389648</ele>
        <time>2016-02-24T14:11:44Z</time>
      </trkpt>
      <trkpt lat="43.43796" lon="6.02487">
        <ele>266.39999389648</ele>
        <time>2016-02-24T14:11:45Z</time>
      </trkpt>
      <trkpt lat="43.43797" lon="6.02488">
        <ele>266</ele>
        <time>2016-02-24T14:11:46Z</time>
      </trkpt>
      <trkpt lat="43.43797" lon="6.02491">
        <ele>265.60000610352</ele>
        <time>2016-02-24T14:11:48Z</time>
      </trkpt>
      <trkpt lat="43.43797" lon="6.02492">
        <ele>265.79998779297</ele>
        <time>2016-02-24T14:11:49Z</time>
      </trkpt>
      <trkpt lat="43.43797" lon="6.02493">
        <ele>266</ele>
        <time>2016-02-24T14:11:50Z</time>
      </trkpt>
      <trkpt lat="43.43798" lon="6.02494">
        <ele>266</ele>
        <time>2016-02-24T14:11:51Z</time>
      </trkpt>
      <trkpt lat="43.43798" lon="6.02494">
        <ele>265.79998779297</ele>
        <time>2016-02-24T14:11:52Z</time>
      </trkpt>
      <trkpt lat="43.43798" lon="6.02494">
        <ele>265.79998779297</ele>
        <time>2016-02-24T14:11:54Z</time>
      </trkpt>
      <trkpt lat="43.43798" lon="6.02495">
        <ele>266</ele>
        <time>2016-02-24T14:11:56Z</time>
      </trkpt>
      <trkpt lat="43.43798" lon="6.02495">
        <ele>266</ele>
        <time>2016-02-24T14:11:57Z</time>
      </trkpt>
      <trkpt lat="43.43798" lon="6.02495">
        <ele>266</ele>
        <time>2016-02-24T14:11:58Z</time>
      </trkpt>
      <trkpt lat="43.43798" lon="6.02495">
        <ele>266</ele>
        <time>2016-02-24T14:12:00Z</time>
      </trkpt>
      <trkpt lat="43.43798" lon="6.02495">
        <ele>266</ele>
        <time>2016-02-24T14:12:02Z</time>
      </trkpt>
      <trkpt lat="43.43798" lon="6.02492">
        <ele>266</ele>
        <time>2016-02-24T14:12:04Z</time>
      </trkpt>
      <trkpt lat="43.43798" lon="6.02491">
        <ele>266</ele>
        <time>2016-02-24T14:12:05Z</time>
      </trkpt>
      <trkpt lat="43.43797" lon="6.0249">
        <ele>266</ele>
        <time>2016-02-24T14:12:06Z</time>
      </trkpt>
      <trkpt lat="43.43797" lon="6.02488">
        <ele>265.79998779297</ele>
        <time>2016-02-24T14:12:07Z</time>
      </trkpt>
      <trkpt lat="43.43797" lon="6.02486">
        <ele>266</ele>
        <time>2016-02-24T14:12:08Z</time>
      </trkpt>
      <trkpt lat="43.43797" lon="6.02484">
        <ele>266.20001220703</ele>
        <time>2016-02-24T14:12:09Z</time>
      </trkpt>
      <trkpt lat="43.43796" lon="6.02483">
        <ele>266.39999389648</ele>
        <time>2016-02-24T14:12:10Z</time>
      </trkpt>
      <trkpt lat="43.43794" lon="6.02482">
        <ele>267</ele>
        <time>2016-02-24T14:12:12Z</time>
      </trkpt>
      <trkpt lat="43.43794" lon="6.02483">
        <ele>267</ele>
        <time>2016-02-24T14:12:13Z</time>
      </trkpt>
      <trkpt lat="43.43793" lon="6.02484">
        <ele>267.20001220703</ele>
        <time>2016-02-24T14:12:14Z</time>
      </trkpt>
      <trkpt lat="43.43792" lon="6.02483">
        <ele>267.60000610352</ele>
        <time>2016-02-24T14:12:15Z</time>
      </trkpt>
      <trkpt lat="43.43791" lon="6.02483">
        <ele>268.20001220703</ele>
        <time>2016-02-24T14:12:16Z</time>
      </trkpt>
      <trkpt lat="43.4379" lon="6.02483">
        <ele>268.39999389648</ele>
        <time>2016-02-24T14:12:18Z</time>
      </trkpt>
      <trkpt lat="43.43789" lon="6.02482">
        <ele>268.60000610352</ele>
        <time>2016-02-24T14:12:19Z</time>
      </trkpt>
      <trkpt lat="43.43789" lon="6.02482">
        <ele>268.60000610352</ele>
        <time>2016-02-24T14:12:20Z</time>
      </trkpt>
      <trkpt lat="43.43789" lon="6.02482">
        <ele>268.60000610352</ele>
        <time>2016-02-24T14:12:21Z</time>
      </trkpt>
      <trkpt lat="43.43789" lon="6.02482">
        <ele>268.60000610352</ele>
        <time>2016-02-24T14:12:22Z</time>
      </trkpt>
      <trkpt lat="43.43789" lon="6.02482">
        <ele>268.60000610352</ele>
        <time>2016-02-24T14:12:24Z</time>
      </trkpt>
      <trkpt lat="43.43789" lon="6.02482">
        <ele>268.60000610352</ele>
        <time>2016-02-24T14:12:26Z</time>
      </trkpt>
      <trkpt lat="43.43789" lon="6.02482">
        <ele>268.60000610352</ele>
        <time>2016-02-24T14:12:27Z</time>
      </trkpt>
      <trkpt lat="43.43789" lon="6.02482">
        <ele>268.60000610352</ele>
        <time>2016-02-24T14:12:28Z</time>
      </trkpt>
      <trkpt lat="43.43789" lon="6.02482">
        <ele>268.60000610352</ele>
        <time>2016-02-24T14:12:29Z</time>
      </trkpt>
      <trkpt lat="43.43789" lon="6.02482">
        <ele>268.60000610352</ele>
        <time>2016-02-24T14:12:30Z</time>
      </trkpt>
      <trkpt lat="43.43789" lon="6.02482">
        <ele>268.60000610352</ele>
        <time>2016-02-24T14:12:31Z</time>
      </trkpt>
      <trkpt lat="43.43789" lon="6.02482">
        <ele>268.60000610352</ele>
        <time>2016-02-24T14:12:32Z</time>
      </trkpt>
      <trkpt lat="43.43789" lon="6.02482">
        <ele>268.79998779297</ele>
        <time>2016-02-24T14:12:33Z</time>
      </trkpt>
      <trkpt lat="43.43789" lon="6.02482">
        <ele>268.79998779297</ele>
        <time>2016-02-24T14:12:34Z</time>
      </trkpt>
      <trkpt lat="43.43789" lon="6.02482">
        <ele>268.79998779297</ele>
        <time>2016-02-24T14:12:35Z</time>
      </trkpt>
      <trkpt lat="43.43789" lon="6.02482">
        <ele>268.79998779297</ele>
        <time>2016-02-24T14:12:36Z</time>
      </trkpt>
      <trkpt lat="43.43789" lon="6.02482">
        <ele>268.60000610352</ele>
        <time>2016-02-24T14:12:38Z</time>
      </trkpt>
      <trkpt lat="43.4379" lon="6.02482">
        <ele>268.60000610352</ele>
        <time>2016-02-24T14:12:40Z</time>
      </trkpt>
      <trkpt lat="43.4379" lon="6.02482">
        <ele>268.60000610352</ele>
        <time>2016-02-24T14:12:42Z</time>
      </trkpt>
      <trkpt lat="43.4379" lon="6.02483">
        <ele>268.60000610352</ele>
        <time>2016-02-24T14:12:44Z</time>
      </trkpt>
      <trkpt lat="43.4379" lon="6.02483">
        <ele>268.20001220703</ele>
        <time>2016-02-24T14:12:46Z</time>
      </trkpt>
      <trkpt lat="43.4379" lon="6.02482">
        <ele>268</ele>
        <time>2016-02-24T14:12:47Z</time>
      </trkpt>
      <trkpt lat="43.4379" lon="6.02482">
        <ele>267.79998779297</ele>
        <time>2016-02-24T14:12:48Z</time>
      </trkpt>
      <trkpt lat="43.4379" lon="6.02482">
        <ele>268</ele>
        <time>2016-02-24T14:12:50Z</time>
      </trkpt>
      <trkpt lat="43.4379" lon="6.02482">
        <ele>268</ele>
        <time>2016-02-24T14:12:52Z</time>
      </trkpt>
      <trkpt lat="43.4379" lon="6.02482">
        <ele>268</ele>
        <time>2016-02-24T14:12:54Z</time>
      </trkpt>
      <trkpt lat="43.4379" lon="6.02482">
        <ele>267.79998779297</ele>
        <time>2016-02-24T14:12:55Z</time>
      </trkpt>
      <trkpt lat="43.4379" lon="6.02482">
        <ele>267.79998779297</ele>
        <time>2016-02-24T14:12:56Z</time>
      </trkpt>
      <trkpt lat="43.4379" lon="6.02482">
        <ele>268</ele>
        <time>2016-02-24T14:12:58Z</time>
      </trkpt>
      <trkpt lat="43.4379" lon="6.02482">
        <ele>268</ele>
        <time>2016-02-24T14:13:00Z</time>
      </trkpt>
      <trkpt lat="43.4379" lon="6.02482">
        <ele>268.20001220703</ele>
        <time>2016-02-24T14:13:02Z</time>
      </trkpt>
      <trkpt lat="43.4379" lon="6.02482">
        <ele>268.20001220703</ele>
        <time>2016-02-24T14:13:04Z</time>
      </trkpt>
      <trkpt lat="43.4379" lon="6.02482">
        <ele>268.20001220703</ele>
        <time>2016-02-24T14:13:06Z</time>
      </trkpt>
      <trkpt lat="43.4379" lon="6.02482">
        <ele>268.20001220703</ele>
        <time>2016-02-24T14:13:08Z</time>
      </trkpt>
      <trkpt lat="43.4379" lon="6.02482">
        <ele>268.39999389648</ele>
        <time>2016-02-24T14:13:10Z</time>
      </trkpt>
      <trkpt lat="43.4379" lon="6.02482">
        <ele>268.39999389648</ele>
        <time>2016-02-24T14:13:12Z</time>
      </trkpt>
      <trkpt lat="43.4379" lon="6.02482">
        <ele>268.20001220703</ele>
        <time>2016-02-24T14:13:14Z</time>
      </trkpt>
      <trkpt lat="43.4379" lon="6.02482">
        <ele>268.20001220703</ele>
        <time>2016-02-24T14:13:16Z</time>
      </trkpt>
      <trkpt lat="43.43789" lon="6.02482">
        <ele>268.20001220703</ele>
        <time>2016-02-24T14:13:17Z</time>
      </trkpt>
      <trkpt lat="43.43789" lon="6.02482">
        <ele>268.39999389648</ele>
        <time>2016-02-24T14:13:18Z</time>
      </trkpt>
      <trkpt lat="43.43789" lon="6.02482">
        <ele>268.39999389648</ele>
        <time>2016-02-24T14:13:20Z</time>
      </trkpt>
      <trkpt lat="43.43789" lon="6.02482">
        <ele>268.60000610352</ele>
        <time>2016-02-24T14:13:22Z</time>
      </trkpt>
      <trkpt lat="43.43789" lon="6.02482">
        <ele>268.39999389648</ele>
        <time>2016-02-24T14:13:24Z</time>
      </trkpt>
      <trkpt lat="43.43789" lon="6.02482">
        <ele>268.39999389648</ele>
        <time>2016-02-24T14:13:26Z</time>
      </trkpt>
      <trkpt lat="43.43789" lon="6.02482">
        <ele>268.39999389648</ele>
        <time>2016-02-24T14:13:28Z</time>
      </trkpt>
      <trkpt lat="43.4379" lon="6.02482">
        <ele>268.20001220703</ele>
        <time>2016-02-24T14:13:30Z</time>
      </trkpt>
      <trkpt lat="43.4379" lon="6.02482">
        <ele>268.20001220703</ele>
        <time>2016-02-24T14:13:32Z</time>
      </trkpt>
      <trkpt lat="43.4379" lon="6.02482">
        <ele>268.39999389648</ele>
        <time>2016-02-24T14:13:34Z</time>
      </trkpt>
      <trkpt lat="43.43789" lon="6.02481">
        <ele>268.60000610352</ele>
        <time>2016-02-24T14:13:35Z</time>
      </trkpt>
      <trkpt lat="43.43788" lon="6.0248">
        <ele>268.39999389648</ele>
        <time>2016-02-24T14:13:36Z</time>
      </trkpt>
      <trkpt lat="43.43786" lon="6.0248">
        <ele>268.20001220703</ele>
        <time>2016-02-24T14:13:38Z</time>
      </trkpt>
      <trkpt lat="43.43785" lon="6.02479">
        <ele>268.20001220703</ele>
        <time>2016-02-24T14:13:39Z</time>
      </trkpt>
      <trkpt lat="43.43783" lon="6.02477">
        <ele>268</ele>
        <time>2016-02-24T14:13:40Z</time>
      </trkpt>
      <trkpt lat="43.43782" lon="6.02475">
        <ele>268</ele>
        <time>2016-02-24T14:13:41Z</time>
      </trkpt>
      <trkpt lat="43.43782" lon="6.02472">
        <ele>267.79998779297</ele>
        <time>2016-02-24T14:13:42Z</time>
      </trkpt>
      <trkpt lat="43.43783" lon="6.0247">
        <ele>267.79998779297</ele>
        <time>2016-02-24T14:13:43Z</time>
      </trkpt>
      <trkpt lat="43.43783" lon="6.02469">
        <ele>268</ele>
        <time>2016-02-24T14:13:44Z</time>
      </trkpt>
      <trkpt lat="43.43782" lon="6.02467">
        <ele>268.20001220703</ele>
        <time>2016-02-24T14:13:45Z</time>
      </trkpt>
      <trkpt lat="43.43782" lon="6.02466">
        <ele>268.39999389648</ele>
        <time>2016-02-24T14:13:46Z</time>
      </trkpt>
      <trkpt lat="43.43781" lon="6.02465">
        <ele>268.60000610352</ele>
        <time>2016-02-24T14:13:47Z</time>
      </trkpt>
      <trkpt lat="43.43779" lon="6.02464">
        <ele>268.79998779297</ele>
        <time>2016-02-24T14:13:48Z</time>
      </trkpt>
      <trkpt lat="43.43779" lon="6.02462">
        <ele>269</ele>
        <time>2016-02-24T14:13:49Z</time>
      </trkpt>
      <trkpt lat="43.43779" lon="6.02461">
        <ele>269.20001220703</ele>
        <time>2016-02-24T14:13:50Z</time>
      </trkpt>
      <trkpt lat="43.43778" lon="6.02458">
        <ele>270</ele>
        <time>2016-02-24T14:13:52Z</time>
      </trkpt>
      <trkpt lat="43.43777" lon="6.02459">
        <ele>270.20001220703</ele>
        <time>2016-02-24T14:13:53Z</time>
      </trkpt>
      <trkpt lat="43.43777" lon="6.02459">
        <ele>270.20001220703</ele>
        <time>2016-02-24T14:13:54Z</time>
      </trkpt>
      <trkpt lat="43.43777" lon="6.02459">
        <ele>270.20001220703</ele>
        <time>2016-02-24T14:13:55Z</time>
      </trkpt>
      <trkpt lat="43.43777" lon="6.02459">
        <ele>270.39999389648</ele>
        <time>2016-02-24T14:13:56Z</time>
      </trkpt>
      <trkpt lat="43.43777" lon="6.02456">
        <ele>270.39999389648</ele>
        <time>2016-02-24T14:13:58Z</time>
      </trkpt>
      <trkpt lat="43.43777" lon="6.02455">
        <ele>270.60000610352</ele>
        <time>2016-02-24T14:14:00Z</time>
      </trkpt>
      <trkpt lat="43.43777" lon="6.02455">
        <ele>270.60000610352</ele>
        <time>2016-02-24T14:14:02Z</time>
      </trkpt>
      <trkpt lat="43.43778" lon="6.02454">
        <ele>270.60000610352</ele>
        <time>2016-02-24T14:14:03Z</time>
      </trkpt>
      <trkpt lat="43.43778" lon="6.02453">
        <ele>270.60000610352</ele>
        <time>2016-02-24T14:14:04Z</time>
      </trkpt>
      <trkpt lat="43.43779" lon="6.0245">
        <ele>270.60000610352</ele>
        <time>2016-02-24T14:14:06Z</time>
      </trkpt>
      <trkpt lat="43.43778" lon="6.02448">
        <ele>270.39999389648</ele>
        <time>2016-02-24T14:14:08Z</time>
      </trkpt>
      <trkpt lat="43.43777" lon="6.02445">
        <ele>270.60000610352</ele>
        <time>2016-02-24T14:14:10Z</time>
      </trkpt>
      <trkpt lat="43.43776" lon="6.02443">
        <ele>270.60000610352</ele>
        <time>2016-02-24T14:14:11Z</time>
      </trkpt>
      <trkpt lat="43.43776" lon="6.02441">
        <ele>270.60000610352</ele>
        <time>2016-02-24T14:14:12Z</time>
      </trkpt>
      <trkpt lat="43.43774" lon="6.02439">
        <ele>270.79998779297</ele>
        <time>2016-02-24T14:14:14Z</time>
      </trkpt>
      <trkpt lat="43.43773" lon="6.02436">
        <ele>271.20001220703</ele>
        <time>2016-02-24T14:14:15Z</time>
      </trkpt>
      <trkpt lat="43.43771" lon="6.02435">
        <ele>271.39999389648</ele>
        <time>2016-02-24T14:14:16Z</time>
      </trkpt>
      <trkpt lat="43.4377" lon="6.02433">
        <ele>271</ele>
        <time>2016-02-24T14:14:17Z</time>
      </trkpt>
      <trkpt lat="43.4377" lon="6.02431">
        <ele>271</ele>
        <time>2016-02-24T14:14:18Z</time>
      </trkpt>
      <trkpt lat="43.43767" lon="6.02429">
        <ele>270.79998779297</ele>
        <time>2016-02-24T14:14:20Z</time>
      </trkpt>
      <trkpt lat="43.43764" lon="6.02426">
        <ele>271</ele>
        <time>2016-02-24T14:14:22Z</time>
      </trkpt>
      <trkpt lat="43.43764" lon="6.02424">
        <ele>271</ele>
        <time>2016-02-24T14:14:23Z</time>
      </trkpt>
      <trkpt lat="43.43763" lon="6.02421">
        <ele>271</ele>
        <time>2016-02-24T14:14:24Z</time>
      </trkpt>
      <trkpt lat="43.43762" lon="6.02417">
        <ele>271</ele>
        <time>2016-02-24T14:14:26Z</time>
      </trkpt>
      <trkpt lat="43.4376" lon="6.02415">
        <ele>271.39999389648</ele>
        <time>2016-02-24T14:14:27Z</time>
      </trkpt>
      <trkpt lat="43.43759" lon="6.02414">
        <ele>271.60000610352</ele>
        <time>2016-02-24T14:14:28Z</time>
      </trkpt>
      <trkpt lat="43.43755" lon="6.02412">
        <ele>272.20001220703</ele>
        <time>2016-02-24T14:14:30Z</time>
      </trkpt>
      <trkpt lat="43.43753" lon="6.02411">
        <ele>272.39999389648</ele>
        <time>2016-02-24T14:14:31Z</time>
      </trkpt>
      <trkpt lat="43.43752" lon="6.02409">
        <ele>272.60000610352</ele>
        <time>2016-02-24T14:14:32Z</time>
      </trkpt>
      <trkpt lat="43.4375" lon="6.02408">
        <ele>272.79998779297</ele>
        <time>2016-02-24T14:14:33Z</time>
      </trkpt>
      <trkpt lat="43.43749" lon="6.02407">
        <ele>273.39999389648</ele>
        <time>2016-02-24T14:14:34Z</time>
      </trkpt>
      <trkpt lat="43.43747" lon="6.02406">
        <ele>273.60000610352</ele>
        <time>2016-02-24T14:14:35Z</time>
      </trkpt>
      <trkpt lat="43.43746" lon="6.02404">
        <ele>274</ele>
        <time>2016-02-24T14:14:36Z</time>
      </trkpt>
      <trkpt lat="43.43744" lon="6.02399">
        <ele>274</ele>
        <time>2016-02-24T14:14:38Z</time>
      </trkpt>
      <trkpt lat="43.43742" lon="6.02393">
        <ele>274.20001220703</ele>
        <time>2016-02-24T14:14:40Z</time>
      </trkpt>
      <trkpt lat="43.4374" lon="6.02387">
        <ele>274.39999389648</ele>
        <time>2016-02-24T14:14:42Z</time>
      </trkpt>
      <trkpt lat="43.43739" lon="6.02382">
        <ele>274.60000610352</ele>
        <time>2016-02-24T14:14:44Z</time>
      </trkpt>
      <trkpt lat="43.43738" lon="6.02379">
        <ele>274.60000610352</ele>
        <time>2016-02-24T14:14:45Z</time>
      </trkpt>
      <trkpt lat="43.43737" lon="6.02377">
        <ele>274.60000610352</ele>
        <time>2016-02-24T14:14:46Z</time>
      </trkpt>
      <trkpt lat="43.43737" lon="6.02373">
        <ele>275</ele>
        <time>2016-02-24T14:14:48Z</time>
      </trkpt>
      <trkpt lat="43.43735" lon="6.0237">
        <ele>275</ele>
        <time>2016-02-24T14:14:50Z</time>
      </trkpt>
      <trkpt lat="43.43734" lon="6.02369">
        <ele>275</ele>
        <time>2016-02-24T14:14:51Z</time>
      </trkpt>
      <trkpt lat="43.43732" lon="6.02369">
        <ele>275</ele>
        <time>2016-02-24T14:14:52Z</time>
      </trkpt>
      <trkpt lat="43.43729" lon="6.02369">
        <ele>275.60000610352</ele>
        <time>2016-02-24T14:14:54Z</time>
      </trkpt>
      <trkpt lat="43.43725" lon="6.02368">
        <ele>275.60000610352</ele>
        <time>2016-02-24T14:14:56Z</time>
      </trkpt>
      <trkpt lat="43.43722" lon="6.02365">
        <ele>275.79998779297</ele>
        <time>2016-02-24T14:14:58Z</time>
      </trkpt>
      <trkpt lat="43.43719" lon="6.02361">
        <ele>275.79998779297</ele>
        <time>2016-02-24T14:15:00Z</time>
      </trkpt>
      <trkpt lat="43.43718" lon="6.02355">
        <ele>276</ele>
        <time>2016-02-24T14:15:02Z</time>
      </trkpt>
      <trkpt lat="43.43716" lon="6.02353">
        <ele>276</ele>
        <time>2016-02-24T14:15:03Z</time>
      </trkpt>
      <trkpt lat="43.43716" lon="6.0235">
        <ele>276</ele>
        <time>2016-02-24T14:15:04Z</time>
      </trkpt>
      <trkpt lat="43.43716" lon="6.02347">
        <ele>276</ele>
        <time>2016-02-24T14:15:05Z</time>
      </trkpt>
      <trkpt lat="43.43717" lon="6.02345">
        <ele>275.79998779297</ele>
        <time>2016-02-24T14:15:06Z</time>
      </trkpt>
      <trkpt lat="43.43719" lon="6.02343">
        <ele>275.39999389648</ele>
        <time>2016-02-24T14:15:07Z</time>
      </trkpt>
      <trkpt lat="43.43722" lon="6.0234">
        <ele>275.20001220703</ele>
        <time>2016-02-24T14:15:08Z</time>
      </trkpt>
      <trkpt lat="43.43725" lon="6.02338">
        <ele>275</ele>
        <time>2016-02-24T14:15:09Z</time>
      </trkpt>
      <trkpt lat="43.43727" lon="6.02336">
        <ele>273.60000610352</ele>
        <time>2016-02-24T14:15:10Z</time>
      </trkpt>
      <trkpt lat="43.43729" lon="6.02326">
        <ele>272.20001220703</ele>
        <time>2016-02-24T14:15:12Z</time>
      </trkpt>
      <trkpt lat="43.43735" lon="6.02314">
        <ele>272</ele>
        <time>2016-02-24T14:15:14Z</time>
      </trkpt>
      <trkpt lat="43.43739" lon="6.02308">
        <ele>271.79998779297</ele>
        <time>2016-02-24T14:15:15Z</time>
      </trkpt>
      <trkpt lat="43.43743" lon="6.02303">
        <ele>271.39999389648</ele>
        <time>2016-02-24T14:15:16Z</time>
      </trkpt>
      <trkpt lat="43.43745" lon="6.02297">
        <ele>270.79998779297</ele>
        <time>2016-02-24T14:15:17Z</time>
      </trkpt>
      <trkpt lat="43.43748" lon="6.02292">
        <ele>270</ele>
        <time>2016-02-24T14:15:18Z</time>
      </trkpt>
      <trkpt lat="43.43753" lon="6.02282">
        <ele>270</ele>
        <time>2016-02-24T14:15:20Z</time>
      </trkpt>
      <trkpt lat="43.43756" lon="6.02279">
        <ele>269.39999389648</ele>
        <time>2016-02-24T14:15:21Z</time>
      </trkpt>
      <trkpt lat="43.43759" lon="6.02275">
        <ele>269.20001220703</ele>
        <time>2016-02-24T14:15:22Z</time>
      </trkpt>
      <trkpt lat="43.43764" lon="6.02263">
        <ele>267.60000610352</ele>
        <time>2016-02-24T14:15:24Z</time>
      </trkpt>
      <trkpt lat="43.43766" lon="6.02257">
        <ele>267.20001220703</ele>
        <time>2016-02-24T14:15:25Z</time>
      </trkpt>
      <trkpt lat="43.43767" lon="6.02252">
        <ele>267</ele>
        <time>2016-02-24T14:15:26Z</time>
      </trkpt>
      <trkpt lat="43.43768" lon="6.02243">
        <ele>266.39999389648</ele>
        <time>2016-02-24T14:15:28Z</time>
      </trkpt>
      <trkpt lat="43.4377" lon="6.02236">
        <ele>266.60000610352</ele>
        <time>2016-02-24T14:15:30Z</time>
      </trkpt>
      <trkpt lat="43.4377" lon="6.0223">
        <ele>266.79998779297</ele>
        <time>2016-02-24T14:15:31Z</time>
      </trkpt>
      <trkpt lat="43.4377" lon="6.02226">
        <ele>267.20001220703</ele>
        <time>2016-02-24T14:15:32Z</time>
      </trkpt>
      <trkpt lat="43.43769" lon="6.0222">
        <ele>267.60000610352</ele>
        <time>2016-02-24T14:15:33Z</time>
      </trkpt>
      <trkpt lat="43.43769" lon="6.02214">
        <ele>268</ele>
        <time>2016-02-24T14:15:34Z</time>
      </trkpt>
      <trkpt lat="43.43769" lon="6.022">
        <ele>268</ele>
        <time>2016-02-24T14:15:36Z</time>
      </trkpt>
      <trkpt lat="43.43771" lon="6.02195">
        <ele>268</ele>
        <time>2016-02-24T14:15:37Z</time>
      </trkpt>
      <trkpt lat="43.43774" lon="6.0219">
        <ele>268.39999389648</ele>
        <time>2016-02-24T14:15:38Z</time>
      </trkpt>
      <trkpt lat="43.43777" lon="6.02185">
        <ele>268.60000610352</ele>
        <time>2016-02-24T14:15:39Z</time>
      </trkpt>
      <trkpt lat="43.43779" lon="6.0218">
        <ele>268.79998779297</ele>
        <time>2016-02-24T14:15:40Z</time>
      </trkpt>
      <trkpt lat="43.43781" lon="6.02173">
        <ele>268.79998779297</ele>
        <time>2016-02-24T14:15:41Z</time>
      </trkpt>
      <trkpt lat="43.43782" lon="6.02168">
        <ele>268.20001220703</ele>
        <time>2016-02-24T14:15:42Z</time>
      </trkpt>
      <trkpt lat="43.43785" lon="6.02162">
        <ele>268</ele>
        <time>2016-02-24T14:15:43Z</time>
      </trkpt>
      <trkpt lat="43.43789" lon="6.02158">
        <ele>268</ele>
        <time>2016-02-24T14:15:44Z</time>
      </trkpt>
      <trkpt lat="43.43797" lon="6.02151">
        <ele>268</ele>
        <time>2016-02-24T14:15:46Z</time>
      </trkpt>
      <trkpt lat="43.43801" lon="6.02146">
        <ele>268.20001220703</ele>
        <time>2016-02-24T14:15:47Z</time>
      </trkpt>
      <trkpt lat="43.43805" lon="6.02142">
        <ele>268.20001220703</ele>
        <time>2016-02-24T14:15:48Z</time>
      </trkpt>
      <trkpt lat="43.43811" lon="6.02133">
        <ele>268.20001220703</ele>
        <time>2016-02-24T14:15:50Z</time>
      </trkpt>
      <trkpt lat="43.43814" lon="6.02126">
        <ele>268.39999389648</ele>
        <time>2016-02-24T14:15:52Z</time>
      </trkpt>
      <trkpt lat="43.43815" lon="6.0212">
        <ele>268.39999389648</ele>
        <time>2016-02-24T14:15:54Z</time>
      </trkpt>
      <trkpt lat="43.43815" lon="6.02114">
        <ele>269.20001220703</ele>
        <time>2016-02-24T14:15:56Z</time>
      </trkpt>
      <trkpt lat="43.43815" lon="6.02111">
        <ele>269.20001220703</ele>
        <time>2016-02-24T14:15:57Z</time>
      </trkpt>
      <trkpt lat="43.43816" lon="6.02108">
        <ele>269.20001220703</ele>
        <time>2016-02-24T14:15:58Z</time>
      </trkpt>
      <trkpt lat="43.43817" lon="6.02102">
        <ele>269.20001220703</ele>
        <time>2016-02-24T14:16:00Z</time>
      </trkpt>
      <trkpt lat="43.43818" lon="6.02095">
        <ele>269.39999389648</ele>
        <time>2016-02-24T14:16:02Z</time>
      </trkpt>
      <trkpt lat="43.43821" lon="6.02086">
        <ele>269.39999389648</ele>
        <time>2016-02-24T14:16:04Z</time>
      </trkpt>
      <trkpt lat="43.43826" lon="6.02078">
        <ele>269</ele>
        <time>2016-02-24T14:16:06Z</time>
      </trkpt>
      <trkpt lat="43.43831" lon="6.02071">
        <ele>269</ele>
        <time>2016-02-24T14:16:08Z</time>
      </trkpt>
      <trkpt lat="43.43832" lon="6.02066">
        <ele>269</ele>
        <time>2016-02-24T14:16:09Z</time>
      </trkpt>
      <trkpt lat="43.43834" lon="6.02062">
        <ele>268.79998779297</ele>
        <time>2016-02-24T14:16:10Z</time>
      </trkpt>
      <trkpt lat="43.43834" lon="6.02052">
        <ele>269.20001220703</ele>
        <time>2016-02-24T14:16:12Z</time>
      </trkpt>
      <trkpt lat="43.43835" lon="6.02042">
        <ele>269.20001220703</ele>
        <time>2016-02-24T14:16:14Z</time>
      </trkpt>
      <trkpt lat="43.43836" lon="6.02037">
        <ele>269</ele>
        <time>2016-02-24T14:16:15Z</time>
      </trkpt>
      <trkpt lat="43.43837" lon="6.02033">
        <ele>269</ele>
        <time>2016-02-24T14:16:16Z</time>
      </trkpt>
      <trkpt lat="43.43838" lon="6.02025">
        <ele>269.20001220703</ele>
        <time>2016-02-24T14:16:18Z</time>
      </trkpt>
      <trkpt lat="43.43838" lon="6.02018">
        <ele>269.60000610352</ele>
        <time>2016-02-24T14:16:20Z</time>
      </trkpt>
      <trkpt lat="43.43839" lon="6.0201">
        <ele>269.60000610352</ele>
        <time>2016-02-24T14:16:22Z</time>
      </trkpt>
      <trkpt lat="43.4384" lon="6.02003">
        <ele>269.60000610352</ele>
        <time>2016-02-24T14:16:24Z</time>
      </trkpt>
      <trkpt lat="43.43839" lon="6.01995">
        <ele>269.39999389648</ele>
        <time>2016-02-24T14:16:26Z</time>
      </trkpt>
      <trkpt lat="43.4384" lon="6.01989">
        <ele>269.79998779297</ele>
        <time>2016-02-24T14:16:28Z</time>
      </trkpt>
      <trkpt lat="43.43842" lon="6.01985">
        <ele>269.79998779297</ele>
        <time>2016-02-24T14:16:30Z</time>
      </trkpt>
      <trkpt lat="43.43844" lon="6.0198">
        <ele>269.39999389648</ele>
        <time>2016-02-24T14:16:32Z</time>
      </trkpt>
      <trkpt lat="43.43846" lon="6.01974">
        <ele>269.60000610352</ele>
        <time>2016-02-24T14:16:34Z</time>
      </trkpt>
      <trkpt lat="43.43847" lon="6.01969">
        <ele>270</ele>
        <time>2016-02-24T14:16:35Z</time>
      </trkpt>
      <trkpt lat="43.43848" lon="6.01967">
        <ele>269.79998779297</ele>
        <time>2016-02-24T14:16:36Z</time>
      </trkpt>
      <trkpt lat="43.43851" lon="6.0196">
        <ele>269.79998779297</ele>
        <time>2016-02-24T14:16:38Z</time>
      </trkpt>
      <trkpt lat="43.43854" lon="6.01952">
        <ele>269.79998779297</ele>
        <time>2016-02-24T14:16:40Z</time>
      </trkpt>
      <trkpt lat="43.43856" lon="6.01947">
        <ele>269.60000610352</ele>
        <time>2016-02-24T14:16:42Z</time>
      </trkpt>
      <trkpt lat="43.43858" lon="6.01943">
        <ele>269.39999389648</ele>
        <time>2016-02-24T14:16:44Z</time>
      </trkpt>
      <trkpt lat="43.43859" lon="6.01938">
        <ele>269.20001220703</ele>
        <time>2016-02-24T14:16:46Z</time>
      </trkpt>
      <trkpt lat="43.43859" lon="6.01937">
        <ele>269.39999389648</ele>
        <time>2016-02-24T14:16:47Z</time>
      </trkpt>
      <trkpt lat="43.43859" lon="6.01936">
        <ele>269.39999389648</ele>
        <time>2016-02-24T14:16:48Z</time>
      </trkpt>
      <trkpt lat="43.43859" lon="6.01936">
        <ele>269.60000610352</ele>
        <time>2016-02-24T14:16:49Z</time>
      </trkpt>
      <trkpt lat="43.43859" lon="6.01936">
        <ele>269.39999389648</ele>
        <time>2016-02-24T14:16:50Z</time>
      </trkpt>
      <trkpt lat="43.43859" lon="6.01935">
        <ele>269.20001220703</ele>
        <time>2016-02-24T14:16:52Z</time>
      </trkpt>
      <trkpt lat="43.43859" lon="6.01935">
        <ele>269.20001220703</ele>
        <time>2016-02-24T14:16:54Z</time>
      </trkpt>
      <trkpt lat="43.43859" lon="6.01935">
        <ele>269</ele>
        <time>2016-02-24T14:16:56Z</time>
      </trkpt>
      <trkpt lat="43.43859" lon="6.01935">
        <ele>269</ele>
        <time>2016-02-24T14:16:58Z</time>
      </trkpt>
      <trkpt lat="43.43859" lon="6.01935">
        <ele>268.79998779297</ele>
        <time>2016-02-24T14:17:00Z</time>
      </trkpt>
      <trkpt lat="43.43858" lon="6.01935">
        <ele>269</ele>
        <time>2016-02-24T14:17:02Z</time>
      </trkpt>
      <trkpt lat="43.43858" lon="6.01935">
        <ele>269.20001220703</ele>
        <time>2016-02-24T14:17:04Z</time>
      </trkpt>
      <trkpt lat="43.43858" lon="6.01935">
        <ele>269.39999389648</ele>
        <time>2016-02-24T14:17:06Z</time>
      </trkpt>
      <trkpt lat="43.43858" lon="6.01935">
        <ele>269.39999389648</ele>
        <time>2016-02-24T14:17:08Z</time>
      </trkpt>
      <trkpt lat="43.43858" lon="6.01935">
        <ele>269.39999389648</ele>
        <time>2016-02-24T14:17:10Z</time>
      </trkpt>
      <trkpt lat="43.43858" lon="6.01935">
        <ele>269</ele>
        <time>2016-02-24T14:17:12Z</time>
      </trkpt>
      <trkpt lat="43.43858" lon="6.01935">
        <ele>269</ele>
        <time>2016-02-24T14:17:14Z</time>
      </trkpt>
      <trkpt lat="43.43858" lon="6.01935">
        <ele>269</ele>
        <time>2016-02-24T14:17:16Z</time>
      </trkpt>
      <trkpt lat="43.43858" lon="6.01935">
        <ele>269</ele>
        <time>2016-02-24T14:17:18Z</time>
      </trkpt>
      <trkpt lat="43.43858" lon="6.01935">
        <ele>269.20001220703</ele>
        <time>2016-02-24T14:17:20Z</time>
      </trkpt>
      <trkpt lat="43.43858" lon="6.01935">
        <ele>269.20001220703</ele>
        <time>2016-02-24T14:17:22Z</time>
      </trkpt>
      <trkpt lat="43.43858" lon="6.01935">
        <ele>269.60000610352</ele>
        <time>2016-02-24T14:17:24Z</time>
      </trkpt>
      <trkpt lat="43.43858" lon="6.01935">
        <ele>269.39999389648</ele>
        <time>2016-02-24T14:17:26Z</time>
      </trkpt>
      <trkpt lat="43.43858" lon="6.01935">
        <ele>269.39999389648</ele>
        <time>2016-02-24T14:17:28Z</time>
      </trkpt>
      <trkpt lat="43.43858" lon="6.01935">
        <ele>269.39999389648</ele>
        <time>2016-02-24T14:17:30Z</time>
      </trkpt>
      <trkpt lat="43.43858" lon="6.01935">
        <ele>269.20001220703</ele>
        <time>2016-02-24T14:17:32Z</time>
      </trkpt>
      <trkpt lat="43.43858" lon="6.01935">
        <ele>269</ele>
        <time>2016-02-24T14:17:34Z</time>
      </trkpt>
      <trkpt lat="43.43858" lon="6.01935">
        <ele>269</ele>
        <time>2016-02-24T14:17:36Z</time>
      </trkpt>
      <trkpt lat="43.43858" lon="6.01935">
        <ele>269.20001220703</ele>
        <time>2016-02-24T14:17:38Z</time>
      </trkpt>
      <trkpt lat="43.43858" lon="6.01935">
        <ele>269.39999389648</ele>
        <time>2016-02-24T14:17:40Z</time>
      </trkpt>
      <trkpt lat="43.43858" lon="6.01935">
        <ele>269.39999389648</ele>
        <time>2016-02-24T14:17:42Z</time>
      </trkpt>
      <trkpt lat="43.43859" lon="6.01935">
        <ele>269.39999389648</ele>
        <time>2016-02-24T14:17:44Z</time>
      </trkpt>
      <trkpt lat="43.43859" lon="6.01935">
        <ele>269.20001220703</ele>
        <time>2016-02-24T14:17:46Z</time>
      </trkpt>
      <trkpt lat="43.43859" lon="6.01935">
        <ele>269.20001220703</ele>
        <time>2016-02-24T14:17:48Z</time>
      </trkpt>
      <trkpt lat="43.43859" lon="6.01935">
        <ele>269</ele>
        <time>2016-02-24T14:17:50Z</time>
      </trkpt>
      <trkpt lat="43.43859" lon="6.01935">
        <ele>269</ele>
        <time>2016-02-24T14:17:52Z</time>
      </trkpt>
      <trkpt lat="43.43859" lon="6.01935">
        <ele>269</ele>
        <time>2016-02-24T14:17:54Z</time>
      </trkpt>
      <trkpt lat="43.43859" lon="6.01935">
        <ele>269</ele>
        <time>2016-02-24T14:17:56Z</time>
      </trkpt>
      <trkpt lat="43.43859" lon="6.01935">
        <ele>269.20001220703</ele>
        <time>2016-02-24T14:17:58Z</time>
      </trkpt>
      <trkpt lat="43.43859" lon="6.01935">
        <ele>269.20001220703</ele>
        <time>2016-02-24T14:18:00Z</time>
      </trkpt>
      <trkpt lat="43.43859" lon="6.01935">
        <ele>269.39999389648</ele>
        <time>2016-02-24T14:18:02Z</time>
      </trkpt>
      <trkpt lat="43.43859" lon="6.01935">
        <ele>269</ele>
        <time>2016-02-24T14:18:04Z</time>
      </trkpt>
      <trkpt lat="43.43859" lon="6.01935">
        <ele>269.20001220703</ele>
        <time>2016-02-24T14:18:06Z</time>
      </trkpt>
      <trkpt lat="43.43859" lon="6.01935">
        <ele>269.20001220703</ele>
        <time>2016-02-24T14:18:08Z</time>
      </trkpt>
      <trkpt lat="43.43859" lon="6.01935">
        <ele>269.39999389648</ele>
        <time>2016-02-24T14:18:10Z</time>
      </trkpt>
      <trkpt lat="43.43859" lon="6.01935">
        <ele>269.39999389648</ele>
        <time>2016-02-24T14:18:12Z</time>
      </trkpt>
      <trkpt lat="43.43859" lon="6.01935">
        <ele>269.39999389648</ele>
        <time>2016-02-24T14:18:14Z</time>
      </trkpt>
      <trkpt lat="43.43859" lon="6.01935">
        <ele>269.39999389648</ele>
        <time>2016-02-24T14:18:16Z</time>
      </trkpt>
      <trkpt lat="43.43859" lon="6.01935">
        <ele>269.39999389648</ele>
        <time>2016-02-24T14:18:18Z</time>
      </trkpt>
      <trkpt lat="43.43859" lon="6.01935">
        <ele>269.39999389648</ele>
        <time>2016-02-24T14:18:20Z</time>
      </trkpt>
      <trkpt lat="43.43859" lon="6.01935">
        <ele>269.39999389648</ele>
        <time>2016-02-24T14:18:22Z</time>
      </trkpt>
      <trkpt lat="43.43859" lon="6.01935">
        <ele>269.60000610352</ele>
        <time>2016-02-24T14:18:24Z</time>
      </trkpt>
      <trkpt lat="43.43859" lon="6.01935">
        <ele>269.60000610352</ele>
        <time>2016-02-24T14:18:26Z</time>
      </trkpt>
      <trkpt lat="43.43859" lon="6.01935">
        <ele>269.39999389648</ele>
        <time>2016-02-24T14:18:28Z</time>
      </trkpt>
      <trkpt lat="43.43859" lon="6.01935">
        <ele>269.20001220703</ele>
        <time>2016-02-24T14:18:30Z</time>
      </trkpt>
      <trkpt lat="43.43859" lon="6.01936">
        <ele>269.20001220703</ele>
        <time>2016-02-24T14:18:31Z</time>
      </trkpt>
      <trkpt lat="43.43859" lon="6.01936">
        <ele>269</ele>
        <time>2016-02-24T14:18:32Z</time>
      </trkpt>
      <trkpt lat="43.43859" lon="6.01936">
        <ele>269.20001220703</ele>
        <time>2016-02-24T14:18:34Z</time>
      </trkpt>
      <trkpt lat="43.43859" lon="6.01936">
        <ele>269.39999389648</ele>
        <time>2016-02-24T14:18:36Z</time>
      </trkpt>
      <trkpt lat="43.43859" lon="6.01936">
        <ele>269.39999389648</ele>
        <time>2016-02-24T14:18:38Z</time>
      </trkpt>
      <trkpt lat="43.43859" lon="6.01936">
        <ele>269.20001220703</ele>
        <time>2016-02-24T14:18:40Z</time>
      </trkpt>
      <trkpt lat="43.43859" lon="6.01936">
        <ele>269.20001220703</ele>
        <time>2016-02-24T14:18:42Z</time>
      </trkpt>
      <trkpt lat="43.43859" lon="6.01936">
        <ele>269</ele>
        <time>2016-02-24T14:18:44Z</time>
      </trkpt>
      <trkpt lat="43.43859" lon="6.01936">
        <ele>269</ele>
        <time>2016-02-24T14:18:46Z</time>
      </trkpt>
      <trkpt lat="43.43859" lon="6.01936">
        <ele>269.20001220703</ele>
        <time>2016-02-24T14:18:48Z</time>
      </trkpt>
      <trkpt lat="43.43859" lon="6.01936">
        <ele>269.39999389648</ele>
        <time>2016-02-24T14:18:50Z</time>
      </trkpt>
      <trkpt lat="43.43859" lon="6.01936">
        <ele>269.39999389648</ele>
        <time>2016-02-24T14:18:52Z</time>
      </trkpt>
      <trkpt lat="43.43859" lon="6.01936">
        <ele>269.60000610352</ele>
        <time>2016-02-24T14:18:54Z</time>
      </trkpt>
      <trkpt lat="43.43859" lon="6.01936">
        <ele>269.39999389648</ele>
        <time>2016-02-24T14:18:56Z</time>
      </trkpt>
      <trkpt lat="43.43859" lon="6.01936">
        <ele>269.20001220703</ele>
        <time>2016-02-24T14:18:58Z</time>
      </trkpt>
      <trkpt lat="43.43859" lon="6.01936">
        <ele>269.20001220703</ele>
        <time>2016-02-24T14:19:00Z</time>
      </trkpt>
      <trkpt lat="43.43859" lon="6.01936">
        <ele>269</ele>
        <time>2016-02-24T14:19:02Z</time>
      </trkpt>
      <trkpt lat="43.43859" lon="6.01936">
        <ele>269</ele>
        <time>2016-02-24T14:19:04Z</time>
      </trkpt>
      <trkpt lat="43.43859" lon="6.01936">
        <ele>269.20001220703</ele>
        <time>2016-02-24T14:19:06Z</time>
      </trkpt>
      <trkpt lat="43.43859" lon="6.01936">
        <ele>269.39999389648</ele>
        <time>2016-02-24T14:19:08Z</time>
      </trkpt>
      <trkpt lat="43.43859" lon="6.01936">
        <ele>269.60000610352</ele>
        <time>2016-02-24T14:19:10Z</time>
      </trkpt>
      <trkpt lat="43.43859" lon="6.01935">
        <ele>269.60000610352</ele>
        <time>2016-02-24T14:19:12Z</time>
      </trkpt>
      <trkpt lat="43.43859" lon="6.01935">
        <ele>269.39999389648</ele>
        <time>2016-02-24T14:19:14Z</time>
      </trkpt>
      <trkpt lat="43.43859" lon="6.01935">
        <ele>269.60000610352</ele>
        <time>2016-02-24T14:19:16Z</time>
      </trkpt>
      <trkpt lat="43.43859" lon="6.01935">
        <ele>269.39999389648</ele>
        <time>2016-02-24T14:19:18Z</time>
      </trkpt>
      <trkpt lat="43.43859" lon="6.01935">
        <ele>269.39999389648</ele>
        <time>2016-02-24T14:19:20Z</time>
      </trkpt>
      <trkpt lat="43.43859" lon="6.01935">
        <ele>269.20001220703</ele>
        <time>2016-02-24T14:19:22Z</time>
      </trkpt>
      <trkpt lat="43.43859" lon="6.01935">
        <ele>269.20001220703</ele>
        <time>2016-02-24T14:19:24Z</time>
      </trkpt>
      <trkpt lat="43.43859" lon="6.01935">
        <ele>269.39999389648</ele>
        <time>2016-02-24T14:19:26Z</time>
      </trkpt>
      <trkpt lat="43.43859" lon="6.01935">
        <ele>269.39999389648</ele>
        <time>2016-02-24T14:19:28Z</time>
      </trkpt>
      <trkpt lat="43.43859" lon="6.01935">
        <ele>269.39999389648</ele>
        <time>2016-02-24T14:19:30Z</time>
      </trkpt>
      <trkpt lat="43.43859" lon="6.01935">
        <ele>269.39999389648</ele>
        <time>2016-02-24T14:19:32Z</time>
      </trkpt>
      <trkpt lat="43.43859" lon="6.01935">
        <ele>269.60000610352</ele>
        <time>2016-02-24T14:19:34Z</time>
      </trkpt>
      <trkpt lat="43.43859" lon="6.01935">
        <ele>269.79998779297</ele>
        <time>2016-02-24T14:19:36Z</time>
      </trkpt>
      <trkpt lat="43.43859" lon="6.01935">
        <ele>269.60000610352</ele>
        <time>2016-02-24T14:19:38Z</time>
      </trkpt>
      <trkpt lat="43.43859" lon="6.01935">
        <ele>269.60000610352</ele>
        <time>2016-02-24T14:19:40Z</time>
      </trkpt>
      <trkpt lat="43.43859" lon="6.01935">
        <ele>269.60000610352</ele>
        <time>2016-02-24T14:19:42Z</time>
      </trkpt>
      <trkpt lat="43.43859" lon="6.01935">
        <ele>269.60000610352</ele>
        <time>2016-02-24T14:19:44Z</time>
      </trkpt>
      <trkpt lat="43.43859" lon="6.01935">
        <ele>269.39999389648</ele>
        <time>2016-02-24T14:19:46Z</time>
      </trkpt>
      <trkpt lat="43.43859" lon="6.01935">
        <ele>269.39999389648</ele>
        <time>2016-02-24T14:19:48Z</time>
      </trkpt>
      <trkpt lat="43.43859" lon="6.01935">
        <ele>269.39999389648</ele>
        <time>2016-02-24T14:19:50Z</time>
      </trkpt>
      <trkpt lat="43.43859" lon="6.01935">
        <ele>269.39999389648</ele>
        <time>2016-02-24T14:19:52Z</time>
      </trkpt>
      <trkpt lat="43.43859" lon="6.01935">
        <ele>269.39999389648</ele>
        <time>2016-02-24T14:19:54Z</time>
      </trkpt>
      <trkpt lat="43.43859" lon="6.01935">
        <ele>269.60000610352</ele>
        <time>2016-02-24T14:19:56Z</time>
      </trkpt>
      <trkpt lat="43.43859" lon="6.01935">
        <ele>269.39999389648</ele>
        <time>2016-02-24T14:19:58Z</time>
      </trkpt>
      <trkpt lat="43.43859" lon="6.01935">
        <ele>269.39999389648</ele>
        <time>2016-02-24T14:20:00Z</time>
      </trkpt>
      <trkpt lat="43.43859" lon="6.01935">
        <ele>269.60000610352</ele>
        <time>2016-02-24T14:20:02Z</time>
      </trkpt>
      <trkpt lat="43.43859" lon="6.01935">
        <ele>269.60000610352</ele>
        <time>2016-02-24T14:20:04Z</time>
      </trkpt>
      <trkpt lat="43.43859" lon="6.01935">
        <ele>269.39999389648</ele>
        <time>2016-02-24T14:20:06Z</time>
      </trkpt>
      <trkpt lat="43.43859" lon="6.01935">
        <ele>269.39999389648</ele>
        <time>2016-02-24T14:20:08Z</time>
      </trkpt>
      <trkpt lat="43.43859" lon="6.01935">
        <ele>269.60000610352</ele>
        <time>2016-02-24T14:20:10Z</time>
      </trkpt>
      <trkpt lat="43.43859" lon="6.01935">
        <ele>269.39999389648</ele>
        <time>2016-02-24T14:20:12Z</time>
      </trkpt>
      <trkpt lat="43.43859" lon="6.01935">
        <ele>269.60000610352</ele>
        <time>2016-02-24T14:20:14Z</time>
      </trkpt>
      <trkpt lat="43.43859" lon="6.01935">
        <ele>269.60000610352</ele>
        <time>2016-02-24T14:20:16Z</time>
      </trkpt>
      <trkpt lat="43.43859" lon="6.01935">
        <ele>269.79998779297</ele>
        <time>2016-02-24T14:20:18Z</time>
      </trkpt>
      <trkpt lat="43.43859" lon="6.01935">
        <ele>269.79998779297</ele>
        <time>2016-02-24T14:20:20Z</time>
      </trkpt>
      <trkpt lat="43.43859" lon="6.01935">
        <ele>269.60000610352</ele>
        <time>2016-02-24T14:20:22Z</time>
      </trkpt>
      <trkpt lat="43.43859" lon="6.01935">
        <ele>269.39999389648</ele>
        <time>2016-02-24T14:20:24Z</time>
      </trkpt>
      <trkpt lat="43.43859" lon="6.01935">
        <ele>269.60000610352</ele>
        <time>2016-02-24T14:20:26Z</time>
      </trkpt>
      <trkpt lat="43.43859" lon="6.01935">
        <ele>269.79998779297</ele>
        <time>2016-02-24T14:20:28Z</time>
      </trkpt>
      <trkpt lat="43.43859" lon="6.01935">
        <ele>269.60000610352</ele>
        <time>2016-02-24T14:20:29Z</time>
      </trkpt>
      <trkpt lat="43.43859" lon="6.01935">
        <ele>269.60000610352</ele>
        <time>2016-02-24T14:20:30Z</time>
      </trkpt>
      <trkpt lat="43.43859" lon="6.01935">
        <ele>269.60000610352</ele>
        <time>2016-02-24T14:20:32Z</time>
      </trkpt>
      <trkpt lat="43.43859" lon="6.01935">
        <ele>269.39999389648</ele>
        <time>2016-02-24T14:20:34Z</time>
      </trkpt>
      <trkpt lat="43.43859" lon="6.01935">
        <ele>269.60000610352</ele>
        <time>2016-02-24T14:20:36Z</time>
      </trkpt>
      <trkpt lat="43.43859" lon="6.01935">
        <ele>269.60000610352</ele>
        <time>2016-02-24T14:20:38Z</time>
      </trkpt>
      <trkpt lat="43.43859" lon="6.01935">
        <ele>269.60000610352</ele>
        <time>2016-02-24T14:20:40Z</time>
      </trkpt>
      <trkpt lat="43.43859" lon="6.01935">
        <ele>269.60000610352</ele>
        <time>2016-02-24T14:20:42Z</time>
      </trkpt>
      <trkpt lat="43.43859" lon="6.01935">
        <ele>269.79998779297</ele>
        <time>2016-02-24T14:20:44Z</time>
      </trkpt>
      <trkpt lat="43.43859" lon="6.01935">
        <ele>269.79998779297</ele>
        <time>2016-02-24T14:20:46Z</time>
      </trkpt>
      <trkpt lat="43.43859" lon="6.01935">
        <ele>270</ele>
        <time>2016-02-24T14:20:48Z</time>
      </trkpt>
      <trkpt lat="43.43859" lon="6.01935">
        <ele>269.79998779297</ele>
        <time>2016-02-24T14:20:50Z</time>
      </trkpt>
      <trkpt lat="43.43859" lon="6.01935">
        <ele>269.60000610352</ele>
        <time>2016-02-24T14:20:52Z</time>
      </trkpt>
      <trkpt lat="43.43859" lon="6.01935">
        <ele>269.60000610352</ele>
        <time>2016-02-24T14:20:54Z</time>
      </trkpt>
      <trkpt lat="43.43859" lon="6.01935">
        <ele>269.39999389648</ele>
        <time>2016-02-24T14:20:56Z</time>
      </trkpt>
      <trkpt lat="43.43859" lon="6.01935">
        <ele>269.60000610352</ele>
        <time>2016-02-24T14:20:58Z</time>
      </trkpt>
      <trkpt lat="43.43859" lon="6.01935">
        <ele>269.60000610352</ele>
        <time>2016-02-24T14:21:00Z</time>
      </trkpt>
      <trkpt lat="43.43859" lon="6.01935">
        <ele>269.60000610352</ele>
        <time>2016-02-24T14:21:02Z</time>
      </trkpt>
      <trkpt lat="43.43859" lon="6.01935">
        <ele>269.60000610352</ele>
        <time>2016-02-24T14:21:04Z</time>
      </trkpt>
      <trkpt lat="43.43859" lon="6.01935">
        <ele>269.60000610352</ele>
        <time>2016-02-24T14:21:06Z</time>
      </trkpt>
      <trkpt lat="43.43859" lon="6.01935">
        <ele>269.60000610352</ele>
        <time>2016-02-24T14:21:08Z</time>
      </trkpt>
      <trkpt lat="43.43859" lon="6.01935">
        <ele>269.39999389648</ele>
        <time>2016-02-24T14:21:10Z</time>
      </trkpt>
      <trkpt lat="43.43859" lon="6.01935">
        <ele>269.60000610352</ele>
        <time>2016-02-24T14:21:12Z</time>
      </trkpt>
      <trkpt lat="43.43859" lon="6.01935">
        <ele>269.60000610352</ele>
        <time>2016-02-24T14:21:14Z</time>
      </trkpt>
      <trkpt lat="43.43859" lon="6.01935">
        <ele>269.79998779297</ele>
        <time>2016-02-24T14:21:16Z</time>
      </trkpt>
      <trkpt lat="43.43859" lon="6.01935">
        <ele>269.79998779297</ele>
        <time>2016-02-24T14:21:18Z</time>
      </trkpt>
      <trkpt lat="43.43859" lon="6.01935">
        <ele>269.79998779297</ele>
        <time>2016-02-24T14:21:20Z</time>
      </trkpt>
      <trkpt lat="43.43859" lon="6.01935">
        <ele>269.79998779297</ele>
        <time>2016-02-24T14:21:22Z</time>
      </trkpt>
      <trkpt lat="43.43859" lon="6.01935">
        <ele>269.79998779297</ele>
        <time>2016-02-24T14:21:24Z</time>
      </trkpt>
      <trkpt lat="43.43859" lon="6.01934">
        <ele>269.60000610352</ele>
        <time>2016-02-24T14:21:26Z</time>
      </trkpt>
      <trkpt lat="43.43859" lon="6.01934">
        <ele>269.60000610352</ele>
        <time>2016-02-24T14:21:28Z</time>
      </trkpt>
      <trkpt lat="43.43859" lon="6.01934">
        <ele>269.79998779297</ele>
        <time>2016-02-24T14:21:30Z</time>
      </trkpt>
      <trkpt lat="43.43859" lon="6.01934">
        <ele>269.79998779297</ele>
        <time>2016-02-24T14:21:32Z</time>
      </trkpt>
      <trkpt lat="43.43859" lon="6.01934">
        <ele>269.79998779297</ele>
        <time>2016-02-24T14:21:34Z</time>
      </trkpt>
      <trkpt lat="43.43859" lon="6.01934">
        <ele>269.60000610352</ele>
        <time>2016-02-24T14:21:36Z</time>
      </trkpt>
      <trkpt lat="43.43859" lon="6.01934">
        <ele>269.79998779297</ele>
        <time>2016-02-24T14:21:38Z</time>
      </trkpt>
      <trkpt lat="43.43859" lon="6.01934">
        <ele>270</ele>
        <time>2016-02-24T14:21:40Z</time>
      </trkpt>
      <trkpt lat="43.43859" lon="6.01934">
        <ele>269.79998779297</ele>
        <time>2016-02-24T14:21:42Z</time>
      </trkpt>
      <trkpt lat="43.43859" lon="6.01934">
        <ele>269.79998779297</ele>
        <time>2016-02-24T14:21:44Z</time>
      </trkpt>
      <trkpt lat="43.43859" lon="6.01934">
        <ele>269.79998779297</ele>
        <time>2016-02-24T14:21:46Z</time>
      </trkpt>
      <trkpt lat="43.43859" lon="6.01934">
        <ele>269.60000610352</ele>
        <time>2016-02-24T14:21:48Z</time>
      </trkpt>
      <trkpt lat="43.43859" lon="6.01934">
        <ele>269.60000610352</ele>
        <time>2016-02-24T14:21:50Z</time>
      </trkpt>
      <trkpt lat="43.43859" lon="6.01934">
        <ele>269.60000610352</ele>
        <time>2016-02-24T14:21:52Z</time>
      </trkpt>
      <trkpt lat="43.43859" lon="6.01934">
        <ele>269.60000610352</ele>
        <time>2016-02-24T14:21:54Z</time>
      </trkpt>
      <trkpt lat="43.43859" lon="6.01934">
        <ele>269.60000610352</ele>
        <time>2016-02-24T14:21:56Z</time>
      </trkpt>
      <trkpt lat="43.43859" lon="6.01934">
        <ele>269.60000610352</ele>
        <time>2016-02-24T14:21:58Z</time>
      </trkpt>
      <trkpt lat="43.43859" lon="6.01934">
        <ele>269.39999389648</ele>
        <time>2016-02-24T14:22:00Z</time>
      </trkpt>
      <trkpt lat="43.43859" lon="6.01934">
        <ele>269.60000610352</ele>
        <time>2016-02-24T14:22:02Z</time>
      </trkpt>
      <trkpt lat="43.43859" lon="6.01934">
        <ele>269.60000610352</ele>
        <time>2016-02-24T14:22:04Z</time>
      </trkpt>
      <trkpt lat="43.43859" lon="6.01934">
        <ele>269.39999389648</ele>
        <time>2016-02-24T14:22:06Z</time>
      </trkpt>
      <trkpt lat="43.43859" lon="6.01934">
        <ele>269.39999389648</ele>
        <time>2016-02-24T14:22:08Z</time>
      </trkpt>
      <trkpt lat="43.43859" lon="6.01934">
        <ele>269.39999389648</ele>
        <time>2016-02-24T14:22:10Z</time>
      </trkpt>
      <trkpt lat="43.43859" lon="6.01934">
        <ele>269.39999389648</ele>
        <time>2016-02-24T14:22:12Z</time>
      </trkpt>
      <trkpt lat="43.43859" lon="6.01934">
        <ele>269.39999389648</ele>
        <time>2016-02-24T14:22:14Z</time>
      </trkpt>
      <trkpt lat="43.43859" lon="6.01934">
        <ele>269.39999389648</ele>
        <time>2016-02-24T14:22:16Z</time>
      </trkpt>
      <trkpt lat="43.43859" lon="6.01934">
        <ele>269.39999389648</ele>
        <time>2016-02-24T14:22:18Z</time>
      </trkpt>
      <trkpt lat="43.43859" lon="6.01934">
        <ele>269.39999389648</ele>
        <time>2016-02-24T14:22:20Z</time>
      </trkpt>
      <trkpt lat="43.43859" lon="6.01934">
        <ele>269.39999389648</ele>
        <time>2016-02-24T14:22:22Z</time>
      </trkpt>
      <trkpt lat="43.43859" lon="6.01934">
        <ele>269.39999389648</ele>
        <time>2016-02-24T14:22:24Z</time>
      </trkpt>
      <trkpt lat="43.43859" lon="6.01934">
        <ele>269.39999389648</ele>
        <time>2016-02-24T14:22:26Z</time>
      </trkpt>
      <trkpt lat="43.43859" lon="6.01934">
        <ele>269.20001220703</ele>
        <time>2016-02-24T14:22:28Z</time>
      </trkpt>
      <trkpt lat="43.43859" lon="6.01934">
        <ele>269.20001220703</ele>
        <time>2016-02-24T14:22:30Z</time>
      </trkpt>
      <trkpt lat="43.43859" lon="6.01934">
        <ele>269</ele>
        <time>2016-02-24T14:22:32Z</time>
      </trkpt>
      <trkpt lat="43.43859" lon="6.01934">
        <ele>269.20001220703</ele>
        <time>2016-02-24T14:22:34Z</time>
      </trkpt>
      <trkpt lat="43.43859" lon="6.01934">
        <ele>269.20001220703</ele>
        <time>2016-02-24T14:22:35Z</time>
      </trkpt>
      <trkpt lat="43.43859" lon="6.01934">
        <ele>269.39999389648</ele>
        <time>2016-02-24T14:22:36Z</time>
      </trkpt>
      <trkpt lat="43.43859" lon="6.01934">
        <ele>269.39999389648</ele>
        <time>2016-02-24T14:22:38Z</time>
      </trkpt>
      <trkpt lat="43.43859" lon="6.01934">
        <ele>269.39999389648</ele>
        <time>2016-02-24T14:22:40Z</time>
      </trkpt>
      <trkpt lat="43.43859" lon="6.01934">
        <ele>269.60000610352</ele>
        <time>2016-02-24T14:22:42Z</time>
      </trkpt>
      <trkpt lat="43.43859" lon="6.01934">
        <ele>269.60000610352</ele>
        <time>2016-02-24T14:22:44Z</time>
      </trkpt>
      <trkpt lat="43.43859" lon="6.01934">
        <ele>269.60000610352</ele>
        <time>2016-02-24T14:22:46Z</time>
      </trkpt>
      <trkpt lat="43.43859" lon="6.01934">
        <ele>269.60000610352</ele>
        <time>2016-02-24T14:22:48Z</time>
      </trkpt>
      <trkpt lat="43.43859" lon="6.01934">
        <ele>269.60000610352</ele>
        <time>2016-02-24T14:22:50Z</time>
      </trkpt>
      <trkpt lat="43.43859" lon="6.01934">
        <ele>269.39999389648</ele>
        <time>2016-02-24T14:22:52Z</time>
      </trkpt>
      <trkpt lat="43.43859" lon="6.01934">
        <ele>269.39999389648</ele>
        <time>2016-02-24T14:22:54Z</time>
      </trkpt>
      <trkpt lat="43.43859" lon="6.01934">
        <ele>269.39999389648</ele>
        <time>2016-02-24T14:22:56Z</time>
      </trkpt>
      <trkpt lat="43.43859" lon="6.01934">
        <ele>269.60000610352</ele>
        <time>2016-02-24T14:22:58Z</time>
      </trkpt>
      <trkpt lat="43.43859" lon="6.01934">
        <ele>269.60000610352</ele>
        <time>2016-02-24T14:23:00Z</time>
      </trkpt>
      <trkpt lat="43.43859" lon="6.01934">
        <ele>269.60000610352</ele>
        <time>2016-02-24T14:23:02Z</time>
      </trkpt>
      <trkpt lat="43.43859" lon="6.01934">
        <ele>269.39999389648</ele>
        <time>2016-02-24T14:23:04Z</time>
      </trkpt>
      <trkpt lat="43.43859" lon="6.01934">
        <ele>269.60000610352</ele>
        <time>2016-02-24T14:23:06Z</time>
      </trkpt>
      <trkpt lat="43.43859" lon="6.01934">
        <ele>269.79998779297</ele>
        <time>2016-02-24T14:23:08Z</time>
      </trkpt>
      <trkpt lat="43.43859" lon="6.01934">
        <ele>269.79998779297</ele>
        <time>2016-02-24T14:23:09Z</time>
      </trkpt>
      <trkpt lat="43.43859" lon="6.01934">
        <ele>269.79998779297</ele>
        <time>2016-02-24T14:23:10Z</time>
      </trkpt>
      <trkpt lat="43.43859" lon="6.01934">
        <ele>269.79998779297</ele>
        <time>2016-02-24T14:23:12Z</time>
      </trkpt>
      <trkpt lat="43.43859" lon="6.01934">
        <ele>269.60000610352</ele>
        <time>2016-02-24T14:23:14Z</time>
      </trkpt>
      <trkpt lat="43.43859" lon="6.01934">
        <ele>269.60000610352</ele>
        <time>2016-02-24T14:23:16Z</time>
      </trkpt>
      <trkpt lat="43.43859" lon="6.01933">
        <ele>269.60000610352</ele>
        <time>2016-02-24T14:23:18Z</time>
      </trkpt>
      <trkpt lat="43.43859" lon="6.01933">
        <ele>269.39999389648</ele>
        <time>2016-02-24T14:23:20Z</time>
      </trkpt>
      <trkpt lat="43.43859" lon="6.01933">
        <ele>269.39999389648</ele>
        <time>2016-02-24T14:23:22Z</time>
      </trkpt>
      <trkpt lat="43.43859" lon="6.01933">
        <ele>269.20001220703</ele>
        <time>2016-02-24T14:23:24Z</time>
      </trkpt>
      <trkpt lat="43.43859" lon="6.01933">
        <ele>269.20001220703</ele>
        <time>2016-02-24T14:23:26Z</time>
      </trkpt>
      <trkpt lat="43.43859" lon="6.01933">
        <ele>269.20001220703</ele>
        <time>2016-02-24T14:23:28Z</time>
      </trkpt>
      <trkpt lat="43.43859" lon="6.01933">
        <ele>269.20001220703</ele>
        <time>2016-02-24T14:23:30Z</time>
      </trkpt>
      <trkpt lat="43.43859" lon="6.01933">
        <ele>269.39999389648</ele>
        <time>2016-02-24T14:23:32Z</time>
      </trkpt>
      <trkpt lat="43.43859" lon="6.01933">
        <ele>269.60000610352</ele>
        <time>2016-02-24T14:23:34Z</time>
      </trkpt>
      <trkpt lat="43.43859" lon="6.01933">
        <ele>269.60000610352</ele>
        <time>2016-02-24T14:23:36Z</time>
      </trkpt>
      <trkpt lat="43.43859" lon="6.01934">
        <ele>269.60000610352</ele>
        <time>2016-02-24T14:23:38Z</time>
      </trkpt>
      <trkpt lat="43.43859" lon="6.01933">
        <ele>269.79998779297</ele>
        <time>2016-02-24T14:23:40Z</time>
      </trkpt>
      <trkpt lat="43.43859" lon="6.01933">
        <ele>270</ele>
        <time>2016-02-24T14:23:42Z</time>
      </trkpt>
      <trkpt lat="43.43859" lon="6.01933">
        <ele>270</ele>
        <time>2016-02-24T14:23:44Z</time>
      </trkpt>
      <trkpt lat="43.43859" lon="6.01933">
        <ele>269.79998779297</ele>
        <time>2016-02-24T14:23:46Z</time>
      </trkpt>
      <trkpt lat="43.43859" lon="6.01934">
        <ele>269.79998779297</ele>
        <time>2016-02-24T14:23:48Z</time>
      </trkpt>
      <trkpt lat="43.43859" lon="6.01934">
        <ele>269.79998779297</ele>
        <time>2016-02-24T14:23:49Z</time>
      </trkpt>
      <trkpt lat="43.43859" lon="6.01934">
        <ele>269.79998779297</ele>
        <time>2016-02-24T14:23:50Z</time>
      </trkpt>
      <trkpt lat="43.43859" lon="6.01934">
        <ele>269.60000610352</ele>
        <time>2016-02-24T14:23:52Z</time>
      </trkpt>
      <trkpt lat="43.43859" lon="6.01934">
        <ele>269.60000610352</ele>
        <time>2016-02-24T14:23:54Z</time>
      </trkpt>
      <trkpt lat="43.43859" lon="6.01934">
        <ele>269.39999389648</ele>
        <time>2016-02-24T14:23:56Z</time>
      </trkpt>
      <trkpt lat="43.43859" lon="6.01934">
        <ele>269.79998779297</ele>
        <time>2016-02-24T14:23:58Z</time>
      </trkpt>
      <trkpt lat="43.43859" lon="6.01934">
        <ele>269.79998779297</ele>
        <time>2016-02-24T14:24:00Z</time>
      </trkpt>
      <trkpt lat="43.43859" lon="6.01934">
        <ele>269.79998779297</ele>
        <time>2016-02-24T14:24:02Z</time>
      </trkpt>
      <trkpt lat="43.43859" lon="6.01934">
        <ele>269.79998779297</ele>
        <time>2016-02-24T14:24:04Z</time>
      </trkpt>
      <trkpt lat="43.43859" lon="6.01933">
        <ele>269.79998779297</ele>
        <time>2016-02-24T14:24:06Z</time>
      </trkpt>
      <trkpt lat="43.43859" lon="6.01933">
        <ele>269.60000610352</ele>
        <time>2016-02-24T14:24:08Z</time>
      </trkpt>
      <trkpt lat="43.43859" lon="6.01933">
        <ele>269.60000610352</ele>
        <time>2016-02-24T14:24:09Z</time>
      </trkpt>
      <trkpt lat="43.43859" lon="6.01933">
        <ele>269.79998779297</ele>
        <time>2016-02-24T14:24:10Z</time>
      </trkpt>
      <trkpt lat="43.43859" lon="6.01933">
        <ele>269.79998779297</ele>
        <time>2016-02-24T14:24:12Z</time>
      </trkpt>
      <trkpt lat="43.43859" lon="6.01933">
        <ele>269.60000610352</ele>
        <time>2016-02-24T14:24:14Z</time>
      </trkpt>
      <trkpt lat="43.43859" lon="6.01933">
        <ele>269.39999389648</ele>
        <time>2016-02-24T14:24:16Z</time>
      </trkpt>
      <trkpt lat="43.43859" lon="6.01933">
        <ele>269.39999389648</ele>
        <time>2016-02-24T14:24:18Z</time>
      </trkpt>
      <trkpt lat="43.43859" lon="6.01933">
        <ele>269.60000610352</ele>
        <time>2016-02-24T14:24:20Z</time>
      </trkpt>
      <trkpt lat="43.4386" lon="6.01933">
        <ele>269.60000610352</ele>
        <time>2016-02-24T14:24:22Z</time>
      </trkpt>
      <trkpt lat="43.4386" lon="6.01933">
        <ele>269.39999389648</ele>
        <time>2016-02-24T14:24:24Z</time>
      </trkpt>
      <trkpt lat="43.4386" lon="6.01933">
        <ele>269.60000610352</ele>
        <time>2016-02-24T14:24:25Z</time>
      </trkpt>
      <trkpt lat="43.4386" lon="6.01933">
        <ele>269.39999389648</ele>
        <time>2016-02-24T14:24:28Z</time>
      </trkpt>
      <trkpt lat="43.4386" lon="6.01933">
        <ele>269.60000610352</ele>
        <time>2016-02-24T14:24:30Z</time>
      </trkpt>
      <trkpt lat="43.43861" lon="6.01933">
        <ele>269.39999389648</ele>
        <time>2016-02-24T14:24:32Z</time>
      </trkpt>
      <trkpt lat="43.43861" lon="6.01933">
        <ele>269.39999389648</ele>
        <time>2016-02-24T14:24:34Z</time>
      </trkpt>
      <trkpt lat="43.43861" lon="6.01932">
        <ele>269.60000610352</ele>
        <time>2016-02-24T14:24:36Z</time>
      </trkpt>
      <trkpt lat="43.43861" lon="6.01932">
        <ele>269.60000610352</ele>
        <time>2016-02-24T14:24:38Z</time>
      </trkpt>
      <trkpt lat="43.43862" lon="6.01931">
        <ele>269.79998779297</ele>
        <time>2016-02-24T14:24:40Z</time>
      </trkpt>
      <trkpt lat="43.43862" lon="6.01931">
        <ele>269.60000610352</ele>
        <time>2016-02-24T14:24:42Z</time>
      </trkpt>
      <trkpt lat="43.43863" lon="6.0193">
        <ele>269.79998779297</ele>
        <time>2016-02-24T14:24:44Z</time>
      </trkpt>
      <trkpt lat="43.43864" lon="6.01929">
        <ele>269.79998779297</ele>
        <time>2016-02-24T14:24:46Z</time>
      </trkpt>
      <trkpt lat="43.43865" lon="6.01926">
        <ele>269.79998779297</ele>
        <time>2016-02-24T14:24:48Z</time>
      </trkpt>
      <trkpt lat="43.43866" lon="6.01925">
        <ele>269.79998779297</ele>
        <time>2016-02-24T14:24:49Z</time>
      </trkpt>
      <trkpt lat="43.43866" lon="6.01924">
        <ele>269.79998779297</ele>
        <time>2016-02-24T14:24:50Z</time>
      </trkpt>
      <trkpt lat="43.43866" lon="6.01922">
        <ele>269.79998779297</ele>
        <time>2016-02-24T14:24:52Z</time>
      </trkpt>
      <trkpt lat="43.43867" lon="6.01918">
        <ele>269.79998779297</ele>
        <time>2016-02-24T14:24:54Z</time>
      </trkpt>
      <trkpt lat="43.43869" lon="6.01916">
        <ele>269.79998779297</ele>
        <time>2016-02-24T14:24:55Z</time>
      </trkpt>
      <trkpt lat="43.43869" lon="6.01913">
        <ele>270</ele>
        <time>2016-02-24T14:24:56Z</time>
      </trkpt>
      <trkpt lat="43.4387" lon="6.01907">
        <ele>270</ele>
        <time>2016-02-24T14:24:58Z</time>
      </trkpt>
      <trkpt lat="43.43871" lon="6.01904">
        <ele>270</ele>
        <time>2016-02-24T14:24:59Z</time>
      </trkpt>
      <trkpt lat="43.43872" lon="6.019">
        <ele>270</ele>
        <time>2016-02-24T14:25:00Z</time>
      </trkpt>
      <trkpt lat="43.43874" lon="6.01893">
        <ele>270</ele>
        <time>2016-02-24T14:25:02Z</time>
      </trkpt>
      <trkpt lat="43.43875" lon="6.01887">
        <ele>270</ele>
        <time>2016-02-24T14:25:04Z</time>
      </trkpt>
      <trkpt lat="43.43875" lon="6.01884">
        <ele>270.20001220703</ele>
        <time>2016-02-24T14:25:05Z</time>
      </trkpt>
      <trkpt lat="43.43876" lon="6.0188">
        <ele>270.79998779297</ele>
        <time>2016-02-24T14:25:06Z</time>
      </trkpt>
      <trkpt lat="43.43876" lon="6.01877">
        <ele>271.20001220703</ele>
        <time>2016-02-24T14:25:07Z</time>
      </trkpt>
      <trkpt lat="43.43877" lon="6.01874">
        <ele>271.39999389648</ele>
        <time>2016-02-24T14:25:08Z</time>
      </trkpt>
      <trkpt lat="43.43878" lon="6.01867">
        <ele>271.39999389648</ele>
        <time>2016-02-24T14:25:10Z</time>
      </trkpt>
      <trkpt lat="43.43879" lon="6.01859">
        <ele>271.20001220703</ele>
        <time>2016-02-24T14:25:12Z</time>
      </trkpt>
      <trkpt lat="43.4388" lon="6.01851">
        <ele>271.39999389648</ele>
        <time>2016-02-24T14:25:14Z</time>
      </trkpt>
      <trkpt lat="43.4388" lon="6.01847">
        <ele>271.20001220703</ele>
        <time>2016-02-24T14:25:15Z</time>
      </trkpt>
      <trkpt lat="43.43881" lon="6.01843">
        <ele>271.20001220703</ele>
        <time>2016-02-24T14:25:16Z</time>
      </trkpt>
      <trkpt lat="43.4388" lon="6.0184">
        <ele>271.39999389648</ele>
        <time>2016-02-24T14:25:17Z</time>
      </trkpt>
      <trkpt lat="43.43881" lon="6.01836">
        <ele>271.60000610352</ele>
        <time>2016-02-24T14:25:18Z</time>
      </trkpt>
      <trkpt lat="43.43882" lon="6.0183">
        <ele>272</ele>
        <time>2016-02-24T14:25:20Z</time>
      </trkpt>
      <trkpt lat="43.43882" lon="6.01826">
        <ele>272.39999389648</ele>
        <time>2016-02-24T14:25:21Z</time>
      </trkpt>
      <trkpt lat="43.43881" lon="6.01822">
        <ele>272.79998779297</ele>
        <time>2016-02-24T14:25:22Z</time>
      </trkpt>
      <trkpt lat="43.43882" lon="6.01819">
        <ele>272.79998779297</ele>
        <time>2016-02-24T14:25:23Z</time>
      </trkpt>
      <trkpt lat="43.43883" lon="6.01816">
        <ele>272.60000610352</ele>
        <time>2016-02-24T14:25:24Z</time>
      </trkpt>
      <trkpt lat="43.43884" lon="6.01809">
        <ele>272.79998779297</ele>
        <time>2016-02-24T14:25:26Z</time>
      </trkpt>
      <trkpt lat="43.43885" lon="6.01803">
        <ele>273.60000610352</ele>
        <time>2016-02-24T14:25:28Z</time>
      </trkpt>
      <trkpt lat="43.43888" lon="6.01798">
        <ele>274.20001220703</ele>
        <time>2016-02-24T14:25:30Z</time>
      </trkpt>
      <trkpt lat="43.4389" lon="6.01793">
        <ele>274.60000610352</ele>
        <time>2016-02-24T14:25:32Z</time>
      </trkpt>
      <trkpt lat="43.43891" lon="6.01787">
        <ele>274.60000610352</ele>
        <time>2016-02-24T14:25:34Z</time>
      </trkpt>
      <trkpt lat="43.43891" lon="6.01785">
        <ele>274.79998779297</ele>
        <time>2016-02-24T14:25:35Z</time>
      </trkpt>
      <trkpt lat="43.43891" lon="6.01783">
        <ele>274.79998779297</ele>
        <time>2016-02-24T14:25:36Z</time>
      </trkpt>
      <trkpt lat="43.43892" lon="6.01778">
        <ele>275</ele>
        <time>2016-02-24T14:25:38Z</time>
      </trkpt>
      <trkpt lat="43.43892" lon="6.01776">
        <ele>275.20001220703</ele>
        <time>2016-02-24T14:25:39Z</time>
      </trkpt>
      <trkpt lat="43.43892" lon="6.01773">
        <ele>275.39999389648</ele>
        <time>2016-02-24T14:25:40Z</time>
      </trkpt>
      <trkpt lat="43.4389" lon="6.01768">
        <ele>275.60000610352</ele>
        <time>2016-02-24T14:25:42Z</time>
      </trkpt>
      <trkpt lat="43.4389" lon="6.01762">
        <ele>276</ele>
        <time>2016-02-24T14:25:44Z</time>
      </trkpt>
      <trkpt lat="43.43888" lon="6.01756">
        <ele>276.39999389648</ele>
        <time>2016-02-24T14:25:46Z</time>
      </trkpt>
      <trkpt lat="43.43888" lon="6.01752">
        <ele>276.39999389648</ele>
        <time>2016-02-24T14:25:47Z</time>
      </trkpt>
      <trkpt lat="43.43887" lon="6.01749">
        <ele>276.60000610352</ele>
        <time>2016-02-24T14:25:48Z</time>
      </trkpt>
      <trkpt lat="43.43885" lon="6.01744">
        <ele>276.79998779297</ele>
        <time>2016-02-24T14:25:50Z</time>
      </trkpt>
      <trkpt lat="43.43883" lon="6.01738">
        <ele>276.79998779297</ele>
        <time>2016-02-24T14:25:52Z</time>
      </trkpt>
      <trkpt lat="43.43882" lon="6.01733">
        <ele>277</ele>
        <time>2016-02-24T14:25:54Z</time>
      </trkpt>
      <trkpt lat="43.43881" lon="6.01731">
        <ele>277.20001220703</ele>
        <time>2016-02-24T14:25:55Z</time>
      </trkpt>
      <trkpt lat="43.4388" lon="6.01728">
        <ele>277.20001220703</ele>
        <time>2016-02-24T14:25:56Z</time>
      </trkpt>
      <trkpt lat="43.43877" lon="6.01724">
        <ele>277.20001220703</ele>
        <time>2016-02-24T14:25:58Z</time>
      </trkpt>
      <trkpt lat="43.43876" lon="6.01719">
        <ele>277.60000610352</ele>
        <time>2016-02-24T14:26:00Z</time>
      </trkpt>
      <trkpt lat="43.43875" lon="6.01715">
        <ele>278</ele>
        <time>2016-02-24T14:26:02Z</time>
      </trkpt>
      <trkpt lat="43.43874" lon="6.01711">
        <ele>278.20001220703</ele>
        <time>2016-02-24T14:26:04Z</time>
      </trkpt>
      <trkpt lat="43.43874" lon="6.01706">
        <ele>278.20001220703</ele>
        <time>2016-02-24T14:26:06Z</time>
      </trkpt>
      <trkpt lat="43.43873" lon="6.01703">
        <ele>278.39999389648</ele>
        <time>2016-02-24T14:26:07Z</time>
      </trkpt>
      <trkpt lat="43.43873" lon="6.017">
        <ele>278.60000610352</ele>
        <time>2016-02-24T14:26:08Z</time>
      </trkpt>
      <trkpt lat="43.43873" lon="6.01695">
        <ele>278.79998779297</ele>
        <time>2016-02-24T14:26:10Z</time>
      </trkpt>
      <trkpt lat="43.43874" lon="6.0169">
        <ele>278.60000610352</ele>
        <time>2016-02-24T14:26:12Z</time>
      </trkpt>
      <trkpt lat="43.43874" lon="6.01687">
        <ele>278.60000610352</ele>
        <time>2016-02-24T14:26:13Z</time>
      </trkpt>
      <trkpt lat="43.43874" lon="6.01684">
        <ele>278.79998779297</ele>
        <time>2016-02-24T14:26:14Z</time>
      </trkpt>
      <trkpt lat="43.43873" lon="6.01678">
        <ele>278.79998779297</ele>
        <time>2016-02-24T14:26:16Z</time>
      </trkpt>
      <trkpt lat="43.43871" lon="6.01672">
        <ele>279.20001220703</ele>
        <time>2016-02-24T14:26:18Z</time>
      </trkpt>
      <trkpt lat="43.43867" lon="6.01669">
        <ele>279</ele>
        <time>2016-02-24T14:26:20Z</time>
      </trkpt>
      <trkpt lat="43.43863" lon="6.01669">
        <ele>278.79998779297</ele>
        <time>2016-02-24T14:26:22Z</time>
      </trkpt>
      <trkpt lat="43.43859" lon="6.01671">
        <ele>279</ele>
        <time>2016-02-24T14:26:24Z</time>
      </trkpt>
      <trkpt lat="43.43858" lon="6.01672">
        <ele>279</ele>
        <time>2016-02-24T14:26:25Z</time>
      </trkpt>
      <trkpt lat="43.43856" lon="6.01674">
        <ele>279.20001220703</ele>
        <time>2016-02-24T14:26:26Z</time>
      </trkpt>
      <trkpt lat="43.43853" lon="6.01678">
        <ele>279.39999389648</ele>
        <time>2016-02-24T14:26:28Z</time>
      </trkpt>
      <trkpt lat="43.43851" lon="6.0168">
        <ele>279.60000610352</ele>
        <time>2016-02-24T14:26:29Z</time>
      </trkpt>
      <trkpt lat="43.4385" lon="6.01681">
        <ele>279.60000610352</ele>
        <time>2016-02-24T14:26:30Z</time>
      </trkpt>
      <trkpt lat="43.43847" lon="6.01684">
        <ele>279.79998779297</ele>
        <time>2016-02-24T14:26:32Z</time>
      </trkpt>
      <trkpt lat="43.43843" lon="6.01687">
        <ele>279.79998779297</ele>
        <time>2016-02-24T14:26:34Z</time>
      </trkpt>
      <trkpt lat="43.43839" lon="6.01689">
        <ele>280.20001220703</ele>
        <time>2016-02-24T14:26:36Z</time>
      </trkpt>
      <trkpt lat="43.43835" lon="6.01691">
        <ele>280.20001220703</ele>
        <time>2016-02-24T14:26:38Z</time>
      </trkpt>
      <trkpt lat="43.43833" lon="6.01693">
        <ele>280</ele>
        <time>2016-02-24T14:26:39Z</time>
      </trkpt>
      <trkpt lat="43.4383" lon="6.01694">
        <ele>280</ele>
        <time>2016-02-24T14:26:40Z</time>
      </trkpt>
      <trkpt lat="43.43829" lon="6.01695">
        <ele>280</ele>
        <time>2016-02-24T14:26:41Z</time>
      </trkpt>
      <trkpt lat="43.43827" lon="6.01696">
        <ele>280.20001220703</ele>
        <time>2016-02-24T14:26:42Z</time>
      </trkpt>
      <trkpt lat="43.43821" lon="6.01697">
        <ele>280.39999389648</ele>
        <time>2016-02-24T14:26:44Z</time>
      </trkpt>
      <trkpt lat="43.43819" lon="6.01698">
        <ele>280.39999389648</ele>
        <time>2016-02-24T14:26:45Z</time>
      </trkpt>
      <trkpt lat="43.43816" lon="6.01699">
        <ele>280.60000610352</ele>
        <time>2016-02-24T14:26:46Z</time>
      </trkpt>
      <trkpt lat="43.43811" lon="6.01701">
        <ele>280.60000610352</ele>
        <time>2016-02-24T14:26:48Z</time>
      </trkpt>
      <trkpt lat="43.43806" lon="6.01702">
        <ele>280.60000610352</ele>
        <time>2016-02-24T14:26:50Z</time>
      </trkpt>
      <trkpt lat="43.43801" lon="6.01704">
        <ele>280.60000610352</ele>
        <time>2016-02-24T14:26:52Z</time>
      </trkpt>
      <trkpt lat="43.43799" lon="6.01705">
        <ele>280.60000610352</ele>
        <time>2016-02-24T14:26:53Z</time>
      </trkpt>
      <trkpt lat="43.43797" lon="6.01705">
        <ele>280.79998779297</ele>
        <time>2016-02-24T14:26:54Z</time>
      </trkpt>
      <trkpt lat="43.43792" lon="6.01705">
        <ele>281.20001220703</ele>
        <time>2016-02-24T14:26:56Z</time>
      </trkpt>
      <trkpt lat="43.43787" lon="6.01705">
        <ele>281.20001220703</ele>
        <time>2016-02-24T14:26:58Z</time>
      </trkpt>
      <trkpt lat="43.43783" lon="6.01704">
        <ele>281.39999389648</ele>
        <time>2016-02-24T14:27:00Z</time>
      </trkpt>
      <trkpt lat="43.43781" lon="6.01704">
        <ele>281.79998779297</ele>
        <time>2016-02-24T14:27:01Z</time>
      </trkpt>
      <trkpt lat="43.43779" lon="6.01703">
        <ele>282</ele>
        <time>2016-02-24T14:27:02Z</time>
      </trkpt>
      <trkpt lat="43.43775" lon="6.01702">
        <ele>282</ele>
        <time>2016-02-24T14:27:04Z</time>
      </trkpt>
      <trkpt lat="43.43772" lon="6.017">
        <ele>282.20001220703</ele>
        <time>2016-02-24T14:27:06Z</time>
      </trkpt>
      <trkpt lat="43.4377" lon="6.017">
        <ele>282.60000610352</ele>
        <time>2016-02-24T14:27:07Z</time>
      </trkpt>
      <trkpt lat="43.43768" lon="6.01699">
        <ele>282.79998779297</ele>
        <time>2016-02-24T14:27:08Z</time>
      </trkpt>
      <trkpt lat="43.43764" lon="6.01697">
        <ele>283</ele>
        <time>2016-02-24T14:27:10Z</time>
      </trkpt>
      <trkpt lat="43.43761" lon="6.01696">
        <ele>283.39999389648</ele>
        <time>2016-02-24T14:27:12Z</time>
      </trkpt>
      <trkpt lat="43.43757" lon="6.01693">
        <ele>283.79998779297</ele>
        <time>2016-02-24T14:27:14Z</time>
      </trkpt>
      <trkpt lat="43.43755" lon="6.01693">
        <ele>283.60000610352</ele>
        <time>2016-02-24T14:27:15Z</time>
      </trkpt>
      <trkpt lat="43.43753" lon="6.01692">
        <ele>283.60000610352</ele>
        <time>2016-02-24T14:27:16Z</time>
      </trkpt>
      <trkpt lat="43.4375" lon="6.01691">
        <ele>283.79998779297</ele>
        <time>2016-02-24T14:27:18Z</time>
      </trkpt>
      <trkpt lat="43.43749" lon="6.0169">
        <ele>284</ele>
        <time>2016-02-24T14:27:19Z</time>
      </trkpt>
      <trkpt lat="43.43748" lon="6.01688">
        <ele>284</ele>
        <time>2016-02-24T14:27:20Z</time>
      </trkpt>
      <trkpt lat="43.43746" lon="6.01687">
        <ele>284</ele>
        <time>2016-02-24T14:27:22Z</time>
      </trkpt>
      <trkpt lat="43.43745" lon="6.01687">
        <ele>284.20001220703</ele>
        <time>2016-02-24T14:27:24Z</time>
      </trkpt>
      <trkpt lat="43.43745" lon="6.01687">
        <ele>284.20001220703</ele>
        <time>2016-02-24T14:27:26Z</time>
      </trkpt>
      <trkpt lat="43.43745" lon="6.01687">
        <ele>284.20001220703</ele>
        <time>2016-02-24T14:27:27Z</time>
      </trkpt>
      <trkpt lat="43.43745" lon="6.01687">
        <ele>284.20001220703</ele>
        <time>2016-02-24T14:27:28Z</time>
      </trkpt>
      <trkpt lat="43.43745" lon="6.01687">
        <ele>284.39999389648</ele>
        <time>2016-02-24T14:27:30Z</time>
      </trkpt>
      <trkpt lat="43.43745" lon="6.01687">
        <ele>284.39999389648</ele>
        <time>2016-02-24T14:27:32Z</time>
      </trkpt>
      <trkpt lat="43.43745" lon="6.01687">
        <ele>284.20001220703</ele>
        <time>2016-02-24T14:27:34Z</time>
      </trkpt>
      <trkpt lat="43.43745" lon="6.01687">
        <ele>284.20001220703</ele>
        <time>2016-02-24T14:27:35Z</time>
      </trkpt>
      <trkpt lat="43.43745" lon="6.01687">
        <ele>284.39999389648</ele>
        <time>2016-02-24T14:27:38Z</time>
      </trkpt>
      <trkpt lat="43.43745" lon="6.01687">
        <ele>284.20001220703</ele>
        <time>2016-02-24T14:27:40Z</time>
      </trkpt>
      <trkpt lat="43.43745" lon="6.01687">
        <ele>284.39999389648</ele>
        <time>2016-02-24T14:27:42Z</time>
      </trkpt>
      <trkpt lat="43.43745" lon="6.01687">
        <ele>284.20001220703</ele>
        <time>2016-02-24T14:27:44Z</time>
      </trkpt>
      <trkpt lat="43.43745" lon="6.01687">
        <ele>284</ele>
        <time>2016-02-24T14:27:46Z</time>
      </trkpt>
      <trkpt lat="43.43745" lon="6.01687">
        <ele>284.20001220703</ele>
        <time>2016-02-24T14:27:48Z</time>
      </trkpt>
      <trkpt lat="43.43745" lon="6.01687">
        <ele>284.20001220703</ele>
        <time>2016-02-24T14:27:50Z</time>
      </trkpt>
      <trkpt lat="43.43745" lon="6.01687">
        <ele>284.39999389648</ele>
        <time>2016-02-24T14:27:52Z</time>
      </trkpt>
      <trkpt lat="43.43745" lon="6.01687">
        <ele>284.20001220703</ele>
        <time>2016-02-24T14:27:54Z</time>
      </trkpt>
      <trkpt lat="43.43745" lon="6.01687">
        <ele>284.20001220703</ele>
        <time>2016-02-24T14:27:56Z</time>
      </trkpt>
      <trkpt lat="43.43745" lon="6.01687">
        <ele>284</ele>
        <time>2016-02-24T14:27:58Z</time>
      </trkpt>
      <trkpt lat="43.43745" lon="6.01687">
        <ele>284.20001220703</ele>
        <time>2016-02-24T14:28:00Z</time>
      </trkpt>
      <trkpt lat="43.43745" lon="6.01687">
        <ele>284.20001220703</ele>
        <time>2016-02-24T14:28:02Z</time>
      </trkpt>
      <trkpt lat="43.43745" lon="6.01687">
        <ele>284.20001220703</ele>
        <time>2016-02-24T14:28:04Z</time>
      </trkpt>
      <trkpt lat="43.43745" lon="6.01687">
        <ele>284.39999389648</ele>
        <time>2016-02-24T14:28:06Z</time>
      </trkpt>
      <trkpt lat="43.43745" lon="6.01687">
        <ele>284.39999389648</ele>
        <time>2016-02-24T14:28:08Z</time>
      </trkpt>
      <trkpt lat="43.43745" lon="6.01687">
        <ele>284.39999389648</ele>
        <time>2016-02-24T14:28:10Z</time>
      </trkpt>
      <trkpt lat="43.43745" lon="6.01687">
        <ele>284.20001220703</ele>
        <time>2016-02-24T14:28:12Z</time>
      </trkpt>
      <trkpt lat="43.43745" lon="6.01687">
        <ele>284.20001220703</ele>
        <time>2016-02-24T14:28:14Z</time>
      </trkpt>
      <trkpt lat="43.43745" lon="6.01687">
        <ele>284.20001220703</ele>
        <time>2016-02-24T14:28:16Z</time>
      </trkpt>
      <trkpt lat="43.43745" lon="6.01687">
        <ele>284.39999389648</ele>
        <time>2016-02-24T14:28:18Z</time>
      </trkpt>
      <trkpt lat="43.43745" lon="6.01687">
        <ele>284.20001220703</ele>
        <time>2016-02-24T14:28:20Z</time>
      </trkpt>
      <trkpt lat="43.43745" lon="6.01687">
        <ele>284.20001220703</ele>
        <time>2016-02-24T14:28:22Z</time>
      </trkpt>
      <trkpt lat="43.43745" lon="6.01687">
        <ele>284.20001220703</ele>
        <time>2016-02-24T14:28:24Z</time>
      </trkpt>
      <trkpt lat="43.43745" lon="6.01687">
        <ele>284.20001220703</ele>
        <time>2016-02-24T14:28:26Z</time>
      </trkpt>
      <trkpt lat="43.43745" lon="6.01687">
        <ele>284.20001220703</ele>
        <time>2016-02-24T14:28:28Z</time>
      </trkpt>
      <trkpt lat="43.43745" lon="6.01687">
        <ele>284.20001220703</ele>
        <time>2016-02-24T14:28:30Z</time>
      </trkpt>
      <trkpt lat="43.43745" lon="6.01687">
        <ele>284.20001220703</ele>
        <time>2016-02-24T14:28:32Z</time>
      </trkpt>
      <trkpt lat="43.43745" lon="6.01687">
        <ele>284.20001220703</ele>
        <time>2016-02-24T14:28:33Z</time>
      </trkpt>
      <trkpt lat="43.43745" lon="6.01687">
        <ele>284.20001220703</ele>
        <time>2016-02-24T14:28:34Z</time>
      </trkpt>
      <trkpt lat="43.43745" lon="6.01687">
        <ele>284.39999389648</ele>
        <time>2016-02-24T14:28:36Z</time>
      </trkpt>
      <trkpt lat="43.43745" lon="6.01687">
        <ele>284.39999389648</ele>
        <time>2016-02-24T14:28:38Z</time>
      </trkpt>
      <trkpt lat="43.43745" lon="6.01687">
        <ele>284.60000610352</ele>
        <time>2016-02-24T14:28:40Z</time>
      </trkpt>
      <trkpt lat="43.43745" lon="6.01687">
        <ele>284.60000610352</ele>
        <time>2016-02-24T14:28:42Z</time>
      </trkpt>
      <trkpt lat="43.43745" lon="6.01687">
        <ele>284.39999389648</ele>
        <time>2016-02-24T14:28:44Z</time>
      </trkpt>
      <trkpt lat="43.43745" lon="6.01687">
        <ele>284.20001220703</ele>
        <time>2016-02-24T14:28:46Z</time>
      </trkpt>
      <trkpt lat="43.43745" lon="6.01687">
        <ele>284.60000610352</ele>
        <time>2016-02-24T14:28:48Z</time>
      </trkpt>
      <trkpt lat="43.43745" lon="6.01687">
        <ele>284.60000610352</ele>
        <time>2016-02-24T14:28:50Z</time>
      </trkpt>
      <trkpt lat="43.43745" lon="6.01687">
        <ele>284.20001220703</ele>
        <time>2016-02-24T14:28:52Z</time>
      </trkpt>
      <trkpt lat="43.43744" lon="6.01687">
        <ele>284.20001220703</ele>
        <time>2016-02-24T14:28:54Z</time>
      </trkpt>
      <trkpt lat="43.43744" lon="6.01687">
        <ele>284.20001220703</ele>
        <time>2016-02-24T14:28:56Z</time>
      </trkpt>
      <trkpt lat="43.43744" lon="6.01687">
        <ele>284.20001220703</ele>
        <time>2016-02-24T14:28:58Z</time>
      </trkpt>
      <trkpt lat="43.43744" lon="6.01687">
        <ele>284.20001220703</ele>
        <time>2016-02-24T14:29:00Z</time>
      </trkpt>
      <trkpt lat="43.43744" lon="6.01687">
        <ele>284</ele>
        <time>2016-02-24T14:29:02Z</time>
      </trkpt>
      <trkpt lat="43.43744" lon="6.01687">
        <ele>284</ele>
        <time>2016-02-24T14:29:04Z</time>
      </trkpt>
      <trkpt lat="43.43744" lon="6.01687">
        <ele>284.20001220703</ele>
        <time>2016-02-24T14:29:06Z</time>
      </trkpt>
      <trkpt lat="43.43745" lon="6.01687">
        <ele>284.20001220703</ele>
        <time>2016-02-24T14:29:08Z</time>
      </trkpt>
      <trkpt lat="43.43745" lon="6.01687">
        <ele>284.20001220703</ele>
        <time>2016-02-24T14:29:10Z</time>
      </trkpt>
      <trkpt lat="43.43745" lon="6.01687">
        <ele>284.20001220703</ele>
        <time>2016-02-24T14:29:12Z</time>
      </trkpt>
      <trkpt lat="43.43745" lon="6.01687">
        <ele>284.20001220703</ele>
        <time>2016-02-24T14:29:14Z</time>
      </trkpt>
      <trkpt lat="43.43745" lon="6.01687">
        <ele>284.20001220703</ele>
        <time>2016-02-24T14:29:16Z</time>
      </trkpt>
      <trkpt lat="43.43745" lon="6.01687">
        <ele>284</ele>
        <time>2016-02-24T14:29:17Z</time>
      </trkpt>
      <trkpt lat="43.43745" lon="6.01687">
        <ele>284.20001220703</ele>
        <time>2016-02-24T14:29:18Z</time>
      </trkpt>
      <trkpt lat="43.43745" lon="6.01687">
        <ele>284.20001220703</ele>
        <time>2016-02-24T14:29:20Z</time>
      </trkpt>
      <trkpt lat="43.43745" lon="6.01687">
        <ele>284.39999389648</ele>
        <time>2016-02-24T14:29:22Z</time>
      </trkpt>
      <trkpt lat="43.43745" lon="6.01687">
        <ele>284.39999389648</ele>
        <time>2016-02-24T14:29:24Z</time>
      </trkpt>
      <trkpt lat="43.43745" lon="6.01687">
        <ele>284.20001220703</ele>
        <time>2016-02-24T14:29:26Z</time>
      </trkpt>
      <trkpt lat="43.43745" lon="6.01687">
        <ele>284.20001220703</ele>
        <time>2016-02-24T14:29:28Z</time>
      </trkpt>
      <trkpt lat="43.43745" lon="6.01687">
        <ele>284.39999389648</ele>
        <time>2016-02-24T14:29:30Z</time>
      </trkpt>
      <trkpt lat="43.43745" lon="6.01687">
        <ele>284.39999389648</ele>
        <time>2016-02-24T14:29:32Z</time>
      </trkpt>
      <trkpt lat="43.43745" lon="6.01687">
        <ele>284.39999389648</ele>
        <time>2016-02-24T14:29:34Z</time>
      </trkpt>
      <trkpt lat="43.43745" lon="6.01687">
        <ele>284.60000610352</ele>
        <time>2016-02-24T14:29:36Z</time>
      </trkpt>
      <trkpt lat="43.43744" lon="6.01687">
        <ele>284.39999389648</ele>
        <time>2016-02-24T14:29:38Z</time>
      </trkpt>
      <trkpt lat="43.43744" lon="6.01687">
        <ele>284.39999389648</ele>
        <time>2016-02-24T14:29:39Z</time>
      </trkpt>
      <trkpt lat="43.43744" lon="6.01687">
        <ele>284.39999389648</ele>
        <time>2016-02-24T14:29:40Z</time>
      </trkpt>
      <trkpt lat="43.43744" lon="6.01687">
        <ele>284.60000610352</ele>
        <time>2016-02-24T14:29:42Z</time>
      </trkpt>
      <trkpt lat="43.43744" lon="6.01686">
        <ele>284.60000610352</ele>
        <time>2016-02-24T14:29:44Z</time>
      </trkpt>
      <trkpt lat="43.43742" lon="6.01682">
        <ele>284.60000610352</ele>
        <time>2016-02-24T14:29:46Z</time>
      </trkpt>
      <trkpt lat="43.43743" lon="6.0168">
        <ele>284.39999389648</ele>
        <time>2016-02-24T14:29:47Z</time>
      </trkpt>
      <trkpt lat="43.43743" lon="6.01677">
        <ele>284.20001220703</ele>
        <time>2016-02-24T14:29:48Z</time>
      </trkpt>
      <trkpt lat="43.43745" lon="6.0167">
        <ele>284.20001220703</ele>
        <time>2016-02-24T14:29:50Z</time>
      </trkpt>
      <trkpt lat="43.43748" lon="6.01661">
        <ele>284.60000610352</ele>
        <time>2016-02-24T14:29:52Z</time>
      </trkpt>
      <trkpt lat="43.43751" lon="6.01652">
        <ele>284.79998779297</ele>
        <time>2016-02-24T14:29:54Z</time>
      </trkpt>
      <trkpt lat="43.43754" lon="6.01643">
        <ele>284.39999389648</ele>
        <time>2016-02-24T14:29:56Z</time>
      </trkpt>
      <trkpt lat="43.43756" lon="6.01632">
        <ele>284.20001220703</ele>
        <time>2016-02-24T14:29:58Z</time>
      </trkpt>
      <trkpt lat="43.4376" lon="6.01621">
        <ele>284.20001220703</ele>
        <time>2016-02-24T14:30:00Z</time>
      </trkpt>
      <trkpt lat="43.43763" lon="6.01609">
        <ele>284.39999389648</ele>
        <time>2016-02-24T14:30:02Z</time>
      </trkpt>
      <trkpt lat="43.43766" lon="6.01598">
        <ele>283.79998779297</ele>
        <time>2016-02-24T14:30:04Z</time>
      </trkpt>
      <trkpt lat="43.43768" lon="6.01588">
        <ele>284.20001220703</ele>
        <time>2016-02-24T14:30:06Z</time>
      </trkpt>
      <trkpt lat="43.43771" lon="6.01579">
        <ele>284.39999389648</ele>
        <time>2016-02-24T14:30:08Z</time>
      </trkpt>
      <trkpt lat="43.43772" lon="6.01574">
        <ele>284.20001220703</ele>
        <time>2016-02-24T14:30:09Z</time>
      </trkpt>
      <trkpt lat="43.43773" lon="6.0157">
        <ele>284</ele>
        <time>2016-02-24T14:30:10Z</time>
      </trkpt>
      <trkpt lat="43.43776" lon="6.0156">
        <ele>283.79998779297</ele>
        <time>2016-02-24T14:30:12Z</time>
      </trkpt>
      <trkpt lat="43.43778" lon="6.01549">
        <ele>283.39999389648</ele>
        <time>2016-02-24T14:30:14Z</time>
      </trkpt>
      <trkpt lat="43.43781" lon="6.01538">
        <ele>283.79998779297</ele>
        <time>2016-02-24T14:30:16Z</time>
      </trkpt>
      <trkpt lat="43.43782" lon="6.01527">
        <ele>283.60000610352</ele>
        <time>2016-02-24T14:30:18Z</time>
      </trkpt>
      <trkpt lat="43.43784" lon="6.01515">
        <ele>283.20001220703</ele>
        <time>2016-02-24T14:30:20Z</time>
      </trkpt>
      <trkpt lat="43.43786" lon="6.01503">
        <ele>283.20001220703</ele>
        <time>2016-02-24T14:30:22Z</time>
      </trkpt>
      <trkpt lat="43.43787" lon="6.01492">
        <ele>283.39999389648</ele>
        <time>2016-02-24T14:30:24Z</time>
      </trkpt>
      <trkpt lat="43.43788" lon="6.01488">
        <ele>283.39999389648</ele>
        <time>2016-02-24T14:30:25Z</time>
      </trkpt>
      <trkpt lat="43.43788" lon="6.01484">
        <ele>284.20001220703</ele>
        <time>2016-02-24T14:30:26Z</time>
      </trkpt>
      <trkpt lat="43.43788" lon="6.01476">
        <ele>284.39999389648</ele>
        <time>2016-02-24T14:30:28Z</time>
      </trkpt>
      <trkpt lat="43.43788" lon="6.01469">
        <ele>284.39999389648</ele>
        <time>2016-02-24T14:30:30Z</time>
      </trkpt>
      <trkpt lat="43.43788" lon="6.01465">
        <ele>284.60000610352</ele>
        <time>2016-02-24T14:30:31Z</time>
      </trkpt>
      <trkpt lat="43.43788" lon="6.01461">
        <ele>284.60000610352</ele>
        <time>2016-02-24T14:30:32Z</time>
      </trkpt>
      <trkpt lat="43.43788" lon="6.01458">
        <ele>284.79998779297</ele>
        <time>2016-02-24T14:30:33Z</time>
      </trkpt>
      <trkpt lat="43.43787" lon="6.01453">
        <ele>285</ele>
        <time>2016-02-24T14:30:34Z</time>
      </trkpt>
      <trkpt lat="43.43787" lon="6.01444">
        <ele>285.20001220703</ele>
        <time>2016-02-24T14:30:36Z</time>
      </trkpt>
      <trkpt lat="43.43786" lon="6.01435">
        <ele>285.20001220703</ele>
        <time>2016-02-24T14:30:38Z</time>
      </trkpt>
      <trkpt lat="43.43785" lon="6.01424">
        <ele>284.79998779297</ele>
        <time>2016-02-24T14:30:40Z</time>
      </trkpt>
      <trkpt lat="43.43785" lon="6.01418">
        <ele>284.39999389648</ele>
        <time>2016-02-24T14:30:41Z</time>
      </trkpt>
      <trkpt lat="43.43785" lon="6.01412">
        <ele>283.60000610352</ele>
        <time>2016-02-24T14:30:42Z</time>
      </trkpt>
      <trkpt lat="43.43785" lon="6.01406">
        <ele>283.39999389648</ele>
        <time>2016-02-24T14:30:43Z</time>
      </trkpt>
      <trkpt lat="43.43785" lon="6.01401">
        <ele>283.39999389648</ele>
        <time>2016-02-24T14:30:44Z</time>
      </trkpt>
      <trkpt lat="43.43785" lon="6.01392">
        <ele>284</ele>
        <time>2016-02-24T14:30:46Z</time>
      </trkpt>
      <trkpt lat="43.43784" lon="6.01383">
        <ele>284.39999389648</ele>
        <time>2016-02-24T14:30:48Z</time>
      </trkpt>
      <trkpt lat="43.43784" lon="6.01379">
        <ele>285</ele>
        <time>2016-02-24T14:30:49Z</time>
      </trkpt>
      <trkpt lat="43.43784" lon="6.01375">
        <ele>284.79998779297</ele>
        <time>2016-02-24T14:30:50Z</time>
      </trkpt>
      <trkpt lat="43.43784" lon="6.01372">
        <ele>284.39999389648</ele>
        <time>2016-02-24T14:30:51Z</time>
      </trkpt>
      <trkpt lat="43.43784" lon="6.01368">
        <ele>284.60000610352</ele>
        <time>2016-02-24T14:30:52Z</time>
      </trkpt>
      <trkpt lat="43.43784" lon="6.01361">
        <ele>285</ele>
        <time>2016-02-24T14:30:54Z</time>
      </trkpt>
      <trkpt lat="43.43784" lon="6.01358">
        <ele>285.20001220703</ele>
        <time>2016-02-24T14:30:55Z</time>
      </trkpt>
      <trkpt lat="43.43785" lon="6.01355">
        <ele>285.60000610352</ele>
        <time>2016-02-24T14:30:56Z</time>
      </trkpt>
      <trkpt lat="43.43784" lon="6.01352">
        <ele>285.60000610352</ele>
        <time>2016-02-24T14:30:57Z</time>
      </trkpt>
      <trkpt lat="43.43784" lon="6.01348">
        <ele>285.79998779297</ele>
        <time>2016-02-24T14:30:58Z</time>
      </trkpt>
      <trkpt lat="43.43784" lon="6.01344">
        <ele>285.60000610352</ele>
        <time>2016-02-24T14:30:59Z</time>
      </trkpt>
      <trkpt lat="43.43784" lon="6.0134">
        <ele>285.39999389648</ele>
        <time>2016-02-24T14:31:00Z</time>
      </trkpt>
      <trkpt lat="43.43783" lon="6.01336">
        <ele>285</ele>
        <time>2016-02-24T14:31:01Z</time>
      </trkpt>
      <trkpt lat="43.43782" lon="6.01332">
        <ele>285.20001220703</ele>
        <time>2016-02-24T14:31:02Z</time>
      </trkpt>
      <trkpt lat="43.43781" lon="6.01325">
        <ele>285.39999389648</ele>
        <time>2016-02-24T14:31:04Z</time>
      </trkpt>
      <trkpt lat="43.43781" lon="6.01319">
        <ele>284.79998779297</ele>
        <time>2016-02-24T14:31:06Z</time>
      </trkpt>
      <trkpt lat="43.4378" lon="6.01316">
        <ele>284.79998779297</ele>
        <time>2016-02-24T14:31:07Z</time>
      </trkpt>
      <trkpt lat="43.4378" lon="6.01312">
        <ele>285</ele>
        <time>2016-02-24T14:31:08Z</time>
      </trkpt>
      <trkpt lat="43.43779" lon="6.01309">
        <ele>285</ele>
        <time>2016-02-24T14:31:09Z</time>
      </trkpt>
      <trkpt lat="43.43779" lon="6.01306">
        <ele>285</ele>
        <time>2016-02-24T14:31:10Z</time>
      </trkpt>
      <trkpt lat="43.43778" lon="6.01303">
        <ele>285.20001220703</ele>
        <time>2016-02-24T14:31:11Z</time>
      </trkpt>
      <trkpt lat="43.43778" lon="6.01299">
        <ele>285.20001220703</ele>
        <time>2016-02-24T14:31:12Z</time>
      </trkpt>
      <trkpt lat="43.43777" lon="6.01297">
        <ele>285.39999389648</ele>
        <time>2016-02-24T14:31:13Z</time>
      </trkpt>
      <trkpt lat="43.43777" lon="6.01294">
        <ele>285.60000610352</ele>
        <time>2016-02-24T14:31:14Z</time>
      </trkpt>
      <trkpt lat="43.43775" lon="6.01287">
        <ele>285.79998779297</ele>
        <time>2016-02-24T14:31:16Z</time>
      </trkpt>
      <trkpt lat="43.43774" lon="6.01284">
        <ele>286.39999389648</ele>
        <time>2016-02-24T14:31:17Z</time>
      </trkpt>
      <trkpt lat="43.43774" lon="6.0128">
        <ele>286.60000610352</ele>
        <time>2016-02-24T14:31:18Z</time>
      </trkpt>
      <trkpt lat="43.43773" lon="6.01274">
        <ele>287.20001220703</ele>
        <time>2016-02-24T14:31:20Z</time>
      </trkpt>
      <trkpt lat="43.43772" lon="6.01271">
        <ele>287.39999389648</ele>
        <time>2016-02-24T14:31:21Z</time>
      </trkpt>
      <trkpt lat="43.43771" lon="6.01268">
        <ele>287.39999389648</ele>
        <time>2016-02-24T14:31:22Z</time>
      </trkpt>
      <trkpt lat="43.43769" lon="6.01261">
        <ele>287.39999389648</ele>
        <time>2016-02-24T14:31:24Z</time>
      </trkpt>
      <trkpt lat="43.43768" lon="6.01254">
        <ele>287.79998779297</ele>
        <time>2016-02-24T14:31:26Z</time>
      </trkpt>
      <trkpt lat="43.43768" lon="6.01251">
        <ele>287.79998779297</ele>
        <time>2016-02-24T14:31:27Z</time>
      </trkpt>
      <trkpt lat="43.43767" lon="6.01247">
        <ele>287.79998779297</ele>
        <time>2016-02-24T14:31:28Z</time>
      </trkpt>
      <trkpt lat="43.43768" lon="6.01239">
        <ele>288.20001220703</ele>
        <time>2016-02-24T14:31:30Z</time>
      </trkpt>
      <trkpt lat="43.43767" lon="6.01235">
        <ele>288.39999389648</ele>
        <time>2016-02-24T14:31:31Z</time>
      </trkpt>
      <trkpt lat="43.43767" lon="6.01231">
        <ele>288.60000610352</ele>
        <time>2016-02-24T14:31:32Z</time>
      </trkpt>
      <trkpt lat="43.43767" lon="6.01224">
        <ele>289</ele>
        <time>2016-02-24T14:31:34Z</time>
      </trkpt>
      <trkpt lat="43.43767" lon="6.01217">
        <ele>289.60000610352</ele>
        <time>2016-02-24T14:31:36Z</time>
      </trkpt>
      <trkpt lat="43.43766" lon="6.0121">
        <ele>290.20001220703</ele>
        <time>2016-02-24T14:31:38Z</time>
      </trkpt>
      <trkpt lat="43.43765" lon="6.01204">
        <ele>290.20001220703</ele>
        <time>2016-02-24T14:31:40Z</time>
      </trkpt>
      <trkpt lat="43.43766" lon="6.01201">
        <ele>290.60000610352</ele>
        <time>2016-02-24T14:31:41Z</time>
      </trkpt>
      <trkpt lat="43.43766" lon="6.01198">
        <ele>291</ele>
        <time>2016-02-24T14:31:42Z</time>
      </trkpt>
      <trkpt lat="43.43766" lon="6.01193">
        <ele>291.20001220703</ele>
        <time>2016-02-24T14:31:44Z</time>
      </trkpt>
      <trkpt lat="43.43766" lon="6.01189">
        <ele>291.60000610352</ele>
        <time>2016-02-24T14:31:46Z</time>
      </trkpt>
      <trkpt lat="43.43767" lon="6.01183">
        <ele>292.20001220703</ele>
        <time>2016-02-24T14:31:48Z</time>
      </trkpt>
      <trkpt lat="43.43768" lon="6.0118">
        <ele>292.39999389648</ele>
        <time>2016-02-24T14:31:49Z</time>
      </trkpt>
      <trkpt lat="43.43769" lon="6.01176">
        <ele>292.20001220703</ele>
        <time>2016-02-24T14:31:50Z</time>
      </trkpt>
      <trkpt lat="43.43771" lon="6.0117">
        <ele>292</ele>
        <time>2016-02-24T14:31:52Z</time>
      </trkpt>
      <trkpt lat="43.43773" lon="6.01163">
        <ele>292.20001220703</ele>
        <time>2016-02-24T14:31:54Z</time>
      </trkpt>
      <trkpt lat="43.43775" lon="6.01157">
        <ele>292</ele>
        <time>2016-02-24T14:31:56Z</time>
      </trkpt>
      <trkpt lat="43.43777" lon="6.01151">
        <ele>292</ele>
        <time>2016-02-24T14:31:58Z</time>
      </trkpt>
      <trkpt lat="43.43779" lon="6.01145">
        <ele>292.60000610352</ele>
        <time>2016-02-24T14:32:00Z</time>
      </trkpt>
      <trkpt lat="43.4378" lon="6.01142">
        <ele>292.79998779297</ele>
        <time>2016-02-24T14:32:01Z</time>
      </trkpt>
      <trkpt lat="43.43781" lon="6.01139">
        <ele>292.60000610352</ele>
        <time>2016-02-24T14:32:02Z</time>
      </trkpt>
      <trkpt lat="43.43784" lon="6.01134">
        <ele>292.20001220703</ele>
        <time>2016-02-24T14:32:04Z</time>
      </trkpt>
      <trkpt lat="43.43786" lon="6.01128">
        <ele>292.39999389648</ele>
        <time>2016-02-24T14:32:06Z</time>
      </trkpt>
      <trkpt lat="43.43789" lon="6.01122">
        <ele>292.79998779297</ele>
        <time>2016-02-24T14:32:08Z</time>
      </trkpt>
      <trkpt lat="43.43791" lon="6.01116">
        <ele>292.60000610352</ele>
        <time>2016-02-24T14:32:10Z</time>
      </trkpt>
      <trkpt lat="43.43792" lon="6.01112">
        <ele>292.79998779297</ele>
        <time>2016-02-24T14:32:11Z</time>
      </trkpt>
      <trkpt lat="43.43793" lon="6.01108">
        <ele>292.79998779297</ele>
        <time>2016-02-24T14:32:12Z</time>
      </trkpt>
      <trkpt lat="43.43795" lon="6.01102">
        <ele>292.79998779297</ele>
        <time>2016-02-24T14:32:14Z</time>
      </trkpt>
      <trkpt lat="43.43798" lon="6.01096">
        <ele>292.79998779297</ele>
        <time>2016-02-24T14:32:16Z</time>
      </trkpt>
      <trkpt lat="43.43801" lon="6.01089">
        <ele>293</ele>
        <time>2016-02-24T14:32:18Z</time>
      </trkpt>
      <trkpt lat="43.43804" lon="6.01082">
        <ele>293</ele>
        <time>2016-02-24T14:32:20Z</time>
      </trkpt>
      <trkpt lat="43.43806" lon="6.01076">
        <ele>292.39999389648</ele>
        <time>2016-02-24T14:32:22Z</time>
      </trkpt>
      <trkpt lat="43.43809" lon="6.01068">
        <ele>292.79998779297</ele>
        <time>2016-02-24T14:32:24Z</time>
      </trkpt>
      <trkpt lat="43.43811" lon="6.01062">
        <ele>293</ele>
        <time>2016-02-24T14:32:26Z</time>
      </trkpt>
      <trkpt lat="43.43814" lon="6.01054">
        <ele>292.79998779297</ele>
        <time>2016-02-24T14:32:28Z</time>
      </trkpt>
      <trkpt lat="43.43815" lon="6.0105">
        <ele>292.60000610352</ele>
        <time>2016-02-24T14:32:29Z</time>
      </trkpt>
      <trkpt lat="43.43816" lon="6.01046">
        <ele>292.60000610352</ele>
        <time>2016-02-24T14:32:30Z</time>
      </trkpt>
      <trkpt lat="43.43819" lon="6.01039">
        <ele>292.39999389648</ele>
        <time>2016-02-24T14:32:32Z</time>
      </trkpt>
      <trkpt lat="43.43822" lon="6.01031">
        <ele>292.39999389648</ele>
        <time>2016-02-24T14:32:34Z</time>
      </trkpt>
      <trkpt lat="43.43824" lon="6.01024">
        <ele>292</ele>
        <time>2016-02-24T14:32:36Z</time>
      </trkpt>
      <trkpt lat="43.43827" lon="6.01016">
        <ele>291.79998779297</ele>
        <time>2016-02-24T14:32:38Z</time>
      </trkpt>
      <trkpt lat="43.43829" lon="6.01008">
        <ele>291.79998779297</ele>
        <time>2016-02-24T14:32:40Z</time>
      </trkpt>
      <trkpt lat="43.43829" lon="6.01004">
        <ele>291.60000610352</ele>
        <time>2016-02-24T14:32:41Z</time>
      </trkpt>
      <trkpt lat="43.4383" lon="6.01001">
        <ele>291.60000610352</ele>
        <time>2016-02-24T14:32:42Z</time>
      </trkpt>
      <trkpt lat="43.43831" lon="6.00993">
        <ele>292</ele>
        <time>2016-02-24T14:32:44Z</time>
      </trkpt>
      <trkpt lat="43.43831" lon="6.00986">
        <ele>292.20001220703</ele>
        <time>2016-02-24T14:32:46Z</time>
      </trkpt>
      <trkpt lat="43.43831" lon="6.00977">
        <ele>292.60000610352</ele>
        <time>2016-02-24T14:32:48Z</time>
      </trkpt>
      <trkpt lat="43.43831" lon="6.00972">
        <ele>292.39999389648</ele>
        <time>2016-02-24T14:32:49Z</time>
      </trkpt>
      <trkpt lat="43.43831" lon="6.00967">
        <ele>292.39999389648</ele>
        <time>2016-02-24T14:32:50Z</time>
      </trkpt>
      <trkpt lat="43.4383" lon="6.00962">
        <ele>292.60000610352</ele>
        <time>2016-02-24T14:32:51Z</time>
      </trkpt>
      <trkpt lat="43.43828" lon="6.00958">
        <ele>293</ele>
        <time>2016-02-24T14:32:52Z</time>
      </trkpt>
      <trkpt lat="43.43825" lon="6.00951">
        <ele>293.79998779297</ele>
        <time>2016-02-24T14:32:54Z</time>
      </trkpt>
      <trkpt lat="43.43824" lon="6.00947">
        <ele>294</ele>
        <time>2016-02-24T14:32:55Z</time>
      </trkpt>
      <trkpt lat="43.43823" lon="6.00943">
        <ele>294.20001220703</ele>
        <time>2016-02-24T14:32:56Z</time>
      </trkpt>
      <trkpt lat="43.4382" lon="6.00935">
        <ele>295.39999389648</ele>
        <time>2016-02-24T14:32:58Z</time>
      </trkpt>
      <trkpt lat="43.43818" lon="6.00927">
        <ele>296</ele>
        <time>2016-02-24T14:33:00Z</time>
      </trkpt>
      <trkpt lat="43.43817" lon="6.00923">
        <ele>296.39999389648</ele>
        <time>2016-02-24T14:33:01Z</time>
      </trkpt>
      <trkpt lat="43.43816" lon="6.00919">
        <ele>296.79998779297</ele>
        <time>2016-02-24T14:33:02Z</time>
      </trkpt>
      <trkpt lat="43.43815" lon="6.00915">
        <ele>297.20001220703</ele>
        <time>2016-02-24T14:33:03Z</time>
      </trkpt>
      <trkpt lat="43.43815" lon="6.00911">
        <ele>297.39999389648</ele>
        <time>2016-02-24T14:33:04Z</time>
      </trkpt>
      <trkpt lat="43.43813" lon="6.00902">
        <ele>297.79998779297</ele>
        <time>2016-02-24T14:33:06Z</time>
      </trkpt>
      <trkpt lat="43.43813" lon="6.00899">
        <ele>297.79998779297</ele>
        <time>2016-02-24T14:33:07Z</time>
      </trkpt>
      <trkpt lat="43.43812" lon="6.00896">
        <ele>298</ele>
        <time>2016-02-24T14:33:08Z</time>
      </trkpt>
      <trkpt lat="43.43812" lon="6.00893">
        <ele>298.20001220703</ele>
        <time>2016-02-24T14:33:09Z</time>
      </trkpt>
      <trkpt lat="43.43812" lon="6.0089">
        <ele>298.39999389648</ele>
        <time>2016-02-24T14:33:10Z</time>
      </trkpt>
      <trkpt lat="43.43811" lon="6.00886">
        <ele>298.60000610352</ele>
        <time>2016-02-24T14:33:12Z</time>
      </trkpt>
      <trkpt lat="43.43811" lon="6.00881">
        <ele>299</ele>
        <time>2016-02-24T14:33:14Z</time>
      </trkpt>
      <trkpt lat="43.43811" lon="6.00876">
        <ele>299.20001220703</ele>
        <time>2016-02-24T14:33:16Z</time>
      </trkpt>
      <trkpt lat="43.43811" lon="6.00872">
        <ele>299.39999389648</ele>
        <time>2016-02-24T14:33:18Z</time>
      </trkpt>
      <trkpt lat="43.43812" lon="6.00868">
        <ele>299.60000610352</ele>
        <time>2016-02-24T14:33:20Z</time>
      </trkpt>
      <trkpt lat="43.43812" lon="6.00866">
        <ele>299.79998779297</ele>
        <time>2016-02-24T14:33:21Z</time>
      </trkpt>
      <trkpt lat="43.43812" lon="6.00863">
        <ele>299.79998779297</ele>
        <time>2016-02-24T14:33:22Z</time>
      </trkpt>
      <trkpt lat="43.43813" lon="6.00858">
        <ele>299.60000610352</ele>
        <time>2016-02-24T14:33:24Z</time>
      </trkpt>
      <trkpt lat="43.43813" lon="6.00855">
        <ele>299.79998779297</ele>
        <time>2016-02-24T14:33:25Z</time>
      </trkpt>
      <trkpt lat="43.43813" lon="6.00852">
        <ele>300</ele>
        <time>2016-02-24T14:33:26Z</time>
      </trkpt>
      <trkpt lat="43.43813" lon="6.0085">
        <ele>300</ele>
        <time>2016-02-24T14:33:27Z</time>
      </trkpt>
      <trkpt lat="43.43814" lon="6.00848">
        <ele>299.60000610352</ele>
        <time>2016-02-24T14:33:28Z</time>
      </trkpt>
      <trkpt lat="43.43816" lon="6.00842">
        <ele>299.60000610352</ele>
        <time>2016-02-24T14:33:30Z</time>
      </trkpt>
      <trkpt lat="43.43818" lon="6.00835">
        <ele>299.39999389648</ele>
        <time>2016-02-24T14:33:32Z</time>
      </trkpt>
      <trkpt lat="43.43821" lon="6.00827">
        <ele>299.20001220703</ele>
        <time>2016-02-24T14:33:34Z</time>
      </trkpt>
      <trkpt lat="43.43823" lon="6.00819">
        <ele>299.39999389648</ele>
        <time>2016-02-24T14:33:36Z</time>
      </trkpt>
      <trkpt lat="43.43824" lon="6.00815">
        <ele>299.39999389648</ele>
        <time>2016-02-24T14:33:37Z</time>
      </trkpt>
      <trkpt lat="43.43825" lon="6.00811">
        <ele>299.39999389648</ele>
        <time>2016-02-24T14:33:38Z</time>
      </trkpt>
      <trkpt lat="43.43827" lon="6.00805">
        <ele>299.20001220703</ele>
        <time>2016-02-24T14:33:40Z</time>
      </trkpt>
      <trkpt lat="43.43829" lon="6.00798">
        <ele>299</ele>
        <time>2016-02-24T14:33:42Z</time>
      </trkpt>
      <trkpt lat="43.4383" lon="6.00792">
        <ele>299</ele>
        <time>2016-02-24T14:33:44Z</time>
      </trkpt>
      <trkpt lat="43.4383" lon="6.00789">
        <ele>299</ele>
        <time>2016-02-24T14:33:45Z</time>
      </trkpt>
      <trkpt lat="43.4383" lon="6.00786">
        <ele>299.39999389648</ele>
        <time>2016-02-24T14:33:46Z</time>
      </trkpt>
      <trkpt lat="43.4383" lon="6.00779">
        <ele>299.60000610352</ele>
        <time>2016-02-24T14:33:48Z</time>
      </trkpt>
      <trkpt lat="43.4383" lon="6.00773">
        <ele>299.60000610352</ele>
        <time>2016-02-24T14:33:50Z</time>
      </trkpt>
      <trkpt lat="43.4383" lon="6.0077">
        <ele>299.79998779297</ele>
        <time>2016-02-24T14:33:51Z</time>
      </trkpt>
      <trkpt lat="43.4383" lon="6.00767">
        <ele>300</ele>
        <time>2016-02-24T14:33:52Z</time>
      </trkpt>
      <trkpt lat="43.4383" lon="6.00761">
        <ele>300.60000610352</ele>
        <time>2016-02-24T14:33:54Z</time>
      </trkpt>
      <trkpt lat="43.4383" lon="6.00755">
        <ele>300.79998779297</ele>
        <time>2016-02-24T14:33:56Z</time>
      </trkpt>
      <trkpt lat="43.4383" lon="6.00752">
        <ele>301.20001220703</ele>
        <time>2016-02-24T14:33:57Z</time>
      </trkpt>
      <trkpt lat="43.4383" lon="6.00749">
        <ele>301.39999389648</ele>
        <time>2016-02-24T14:33:58Z</time>
      </trkpt>
      <trkpt lat="43.4383" lon="6.00742">
        <ele>301.79998779297</ele>
        <time>2016-02-24T14:34:00Z</time>
      </trkpt>
      <trkpt lat="43.4383" lon="6.00739">
        <ele>302</ele>
        <time>2016-02-24T14:34:01Z</time>
      </trkpt>
      <trkpt lat="43.4383" lon="6.00736">
        <ele>302</ele>
        <time>2016-02-24T14:34:02Z</time>
      </trkpt>
      <trkpt lat="43.4383" lon="6.0073">
        <ele>302.20001220703</ele>
        <time>2016-02-24T14:34:04Z</time>
      </trkpt>
      <trkpt lat="43.4383" lon="6.00723">
        <ele>302.39999389648</ele>
        <time>2016-02-24T14:34:06Z</time>
      </trkpt>
      <trkpt lat="43.4383" lon="6.0072">
        <ele>302.39999389648</ele>
        <time>2016-02-24T14:34:07Z</time>
      </trkpt>
      <trkpt lat="43.4383" lon="6.00716">
        <ele>302.60000610352</ele>
        <time>2016-02-24T14:34:08Z</time>
      </trkpt>
      <trkpt lat="43.4383" lon="6.00711">
        <ele>303</ele>
        <time>2016-02-24T14:34:10Z</time>
      </trkpt>
      <trkpt lat="43.4383" lon="6.00705">
        <ele>303.39999389648</ele>
        <time>2016-02-24T14:34:12Z</time>
      </trkpt>
      <trkpt lat="43.43831" lon="6.00699">
        <ele>303.79998779297</ele>
        <time>2016-02-24T14:34:14Z</time>
      </trkpt>
      <trkpt lat="43.43832" lon="6.00694">
        <ele>304</ele>
        <time>2016-02-24T14:34:16Z</time>
      </trkpt>
      <trkpt lat="43.43832" lon="6.00692">
        <ele>304.39999389648</ele>
        <time>2016-02-24T14:34:17Z</time>
      </trkpt>
      <trkpt lat="43.43832" lon="6.00689">
        <ele>305.20001220703</ele>
        <time>2016-02-24T14:34:18Z</time>
      </trkpt>
      <trkpt lat="43.43832" lon="6.00687">
        <ele>305.39999389648</ele>
        <time>2016-02-24T14:34:19Z</time>
      </trkpt>
      <trkpt lat="43.43832" lon="6.00686">
        <ele>305.39999389648</ele>
        <time>2016-02-24T14:34:20Z</time>
      </trkpt>
      <trkpt lat="43.43833" lon="6.00682">
        <ele>305.20001220703</ele>
        <time>2016-02-24T14:34:22Z</time>
      </trkpt>
      <trkpt lat="43.43834" lon="6.00679">
        <ele>305.39999389648</ele>
        <time>2016-02-24T14:34:24Z</time>
      </trkpt>
      <trkpt lat="43.43834" lon="6.00678">
        <ele>305.20001220703</ele>
        <time>2016-02-24T14:34:25Z</time>
      </trkpt>
      <trkpt lat="43.43833" lon="6.00676">
        <ele>305.39999389648</ele>
        <time>2016-02-24T14:34:26Z</time>
      </trkpt>
      <trkpt lat="43.43834" lon="6.00675">
        <ele>305.60000610352</ele>
        <time>2016-02-24T14:34:27Z</time>
      </trkpt>
      <trkpt lat="43.43834" lon="6.00673">
        <ele>305.60000610352</ele>
        <time>2016-02-24T14:34:28Z</time>
      </trkpt>
      <trkpt lat="43.43835" lon="6.00671">
        <ele>305.79998779297</ele>
        <time>2016-02-24T14:34:30Z</time>
      </trkpt>
      <trkpt lat="43.43836" lon="6.00669">
        <ele>305.79998779297</ele>
        <time>2016-02-24T14:34:32Z</time>
      </trkpt>
      <trkpt lat="43.43837" lon="6.00668">
        <ele>305.79998779297</ele>
        <time>2016-02-24T14:34:33Z</time>
      </trkpt>
      <trkpt lat="43.43838" lon="6.00667">
        <ele>305.60000610352</ele>
        <time>2016-02-24T14:34:34Z</time>
      </trkpt>
      <trkpt lat="43.43839" lon="6.00665">
        <ele>305.60000610352</ele>
        <time>2016-02-24T14:34:35Z</time>
      </trkpt>
      <trkpt lat="43.43839" lon="6.00663">
        <ele>305.60000610352</ele>
        <time>2016-02-24T14:34:36Z</time>
      </trkpt>
      <trkpt lat="43.4384" lon="6.00658">
        <ele>305.60000610352</ele>
        <time>2016-02-24T14:34:38Z</time>
      </trkpt>
      <trkpt lat="43.43841" lon="6.00654">
        <ele>305.20001220703</ele>
        <time>2016-02-24T14:34:40Z</time>
      </trkpt>
      <trkpt lat="43.43842" lon="6.0065">
        <ele>305</ele>
        <time>2016-02-24T14:34:42Z</time>
      </trkpt>
      <trkpt lat="43.43843" lon="6.00645">
        <ele>304.39999389648</ele>
        <time>2016-02-24T14:34:44Z</time>
      </trkpt>
      <trkpt lat="43.43844" lon="6.00643">
        <ele>304.20001220703</ele>
        <time>2016-02-24T14:34:45Z</time>
      </trkpt>
      <trkpt lat="43.43845" lon="6.0064">
        <ele>303.79998779297</ele>
        <time>2016-02-24T14:34:46Z</time>
      </trkpt>
      <trkpt lat="43.43847" lon="6.00634">
        <ele>303</ele>
        <time>2016-02-24T14:34:48Z</time>
      </trkpt>
      <trkpt lat="43.43848" lon="6.00629">
        <ele>301.79998779297</ele>
        <time>2016-02-24T14:34:50Z</time>
      </trkpt>
      <trkpt lat="43.43847" lon="6.00626">
        <ele>301.60000610352</ele>
        <time>2016-02-24T14:34:51Z</time>
      </trkpt>
      <trkpt lat="43.43847" lon="6.00624">
        <ele>301.60000610352</ele>
        <time>2016-02-24T14:34:52Z</time>
      </trkpt>
      <trkpt lat="43.43846" lon="6.00624">
        <ele>301.60000610352</ele>
        <time>2016-02-24T14:34:53Z</time>
      </trkpt>
      <trkpt lat="43.43845" lon="6.00623">
        <ele>301.39999389648</ele>
        <time>2016-02-24T14:34:54Z</time>
      </trkpt>
      <trkpt lat="43.43845" lon="6.00623">
        <ele>301.20001220703</ele>
        <time>2016-02-24T14:34:56Z</time>
      </trkpt>
      <trkpt lat="43.43845" lon="6.00623">
        <ele>301</ele>
        <time>2016-02-24T14:34:58Z</time>
      </trkpt>
      <trkpt lat="43.43845" lon="6.00623">
        <ele>301</ele>
        <time>2016-02-24T14:35:00Z</time>
      </trkpt>
      <trkpt lat="43.43845" lon="6.00623">
        <ele>301</ele>
        <time>2016-02-24T14:35:01Z</time>
      </trkpt>
      <trkpt lat="43.43845" lon="6.00623">
        <ele>301</ele>
        <time>2016-02-24T14:35:02Z</time>
      </trkpt>
      <trkpt lat="43.43845" lon="6.00623">
        <ele>301</ele>
        <time>2016-02-24T14:35:04Z</time>
      </trkpt>
      <trkpt lat="43.43845" lon="6.00623">
        <ele>301</ele>
        <time>2016-02-24T14:35:06Z</time>
      </trkpt>
      <trkpt lat="43.43845" lon="6.00623">
        <ele>301</ele>
        <time>2016-02-24T14:35:08Z</time>
      </trkpt>
      <trkpt lat="43.43845" lon="6.00623">
        <ele>300.79998779297</ele>
        <time>2016-02-24T14:35:10Z</time>
      </trkpt>
      <trkpt lat="43.43845" lon="6.00623">
        <ele>300.79998779297</ele>
        <time>2016-02-24T14:35:11Z</time>
      </trkpt>
      <trkpt lat="43.43845" lon="6.00623">
        <ele>300.79998779297</ele>
        <time>2016-02-24T14:35:12Z</time>
      </trkpt>
      <trkpt lat="43.43845" lon="6.00623">
        <ele>301</ele>
        <time>2016-02-24T14:35:14Z</time>
      </trkpt>
      <trkpt lat="43.43845" lon="6.00623">
        <ele>301</ele>
        <time>2016-02-24T14:35:16Z</time>
      </trkpt>
      <trkpt lat="43.43845" lon="6.00623">
        <ele>301</ele>
        <time>2016-02-24T14:35:18Z</time>
      </trkpt>
      <trkpt lat="43.43845" lon="6.00623">
        <ele>301</ele>
        <time>2016-02-24T14:35:20Z</time>
      </trkpt>
      <trkpt lat="43.43845" lon="6.00623">
        <ele>301.20001220703</ele>
        <time>2016-02-24T14:35:22Z</time>
      </trkpt>
      <trkpt lat="43.43845" lon="6.00623">
        <ele>301.20001220703</ele>
        <time>2016-02-24T14:35:24Z</time>
      </trkpt>
      <trkpt lat="43.43845" lon="6.00623">
        <ele>301.20001220703</ele>
        <time>2016-02-24T14:35:26Z</time>
      </trkpt>
      <trkpt lat="43.43845" lon="6.00623">
        <ele>301.20001220703</ele>
        <time>2016-02-24T14:35:28Z</time>
      </trkpt>
      <trkpt lat="43.43845" lon="6.00624">
        <ele>301.20001220703</ele>
        <time>2016-02-24T14:35:30Z</time>
      </trkpt>
      <trkpt lat="43.43845" lon="6.00624">
        <ele>301.39999389648</ele>
        <time>2016-02-24T14:35:32Z</time>
      </trkpt>
      <trkpt lat="43.43845" lon="6.00624">
        <ele>301.39999389648</ele>
        <time>2016-02-24T14:35:34Z</time>
      </trkpt>
      <trkpt lat="43.43845" lon="6.00624">
        <ele>301.20001220703</ele>
        <time>2016-02-24T14:35:36Z</time>
      </trkpt>
      <trkpt lat="43.43845" lon="6.00624">
        <ele>301.20001220703</ele>
        <time>2016-02-24T14:35:38Z</time>
      </trkpt>
      <trkpt lat="43.43845" lon="6.00624">
        <ele>301.39999389648</ele>
        <time>2016-02-24T14:35:40Z</time>
      </trkpt>
      <trkpt lat="43.43845" lon="6.00624">
        <ele>301</ele>
        <time>2016-02-24T14:35:42Z</time>
      </trkpt>
      <trkpt lat="43.43845" lon="6.00624">
        <ele>301</ele>
        <time>2016-02-24T14:35:44Z</time>
      </trkpt>
      <trkpt lat="43.43845" lon="6.00624">
        <ele>301</ele>
        <time>2016-02-24T14:35:46Z</time>
      </trkpt>
      <trkpt lat="43.43845" lon="6.00624">
        <ele>301</ele>
        <time>2016-02-24T14:35:48Z</time>
      </trkpt>
      <trkpt lat="43.43845" lon="6.00624">
        <ele>301</ele>
        <time>2016-02-24T14:35:50Z</time>
      </trkpt>
      <trkpt lat="43.43845" lon="6.00624">
        <ele>301.39999389648</ele>
        <time>2016-02-24T14:35:52Z</time>
      </trkpt>
      <trkpt lat="43.43845" lon="6.00624">
        <ele>301.20001220703</ele>
        <time>2016-02-24T14:35:54Z</time>
      </trkpt>
      <trkpt lat="43.43845" lon="6.00624">
        <ele>301.20001220703</ele>
        <time>2016-02-24T14:35:55Z</time>
      </trkpt>
      <trkpt lat="43.43845" lon="6.00624">
        <ele>301.20001220703</ele>
        <time>2016-02-24T14:35:56Z</time>
      </trkpt>
      <trkpt lat="43.43845" lon="6.00624">
        <ele>301.20001220703</ele>
        <time>2016-02-24T14:35:58Z</time>
      </trkpt>
      <trkpt lat="43.43845" lon="6.00624">
        <ele>301.20001220703</ele>
        <time>2016-02-24T14:36:00Z</time>
      </trkpt>
      <trkpt lat="43.43845" lon="6.00624">
        <ele>301.20001220703</ele>
        <time>2016-02-24T14:36:02Z</time>
      </trkpt>
      <trkpt lat="43.43845" lon="6.00624">
        <ele>301.20001220703</ele>
        <time>2016-02-24T14:36:04Z</time>
      </trkpt>
      <trkpt lat="43.43845" lon="6.00624">
        <ele>301.20001220703</ele>
        <time>2016-02-24T14:36:06Z</time>
      </trkpt>
      <trkpt lat="43.43845" lon="6.00624">
        <ele>301.20001220703</ele>
        <time>2016-02-24T14:36:08Z</time>
      </trkpt>
      <trkpt lat="43.43845" lon="6.00624">
        <ele>301.20001220703</ele>
        <time>2016-02-24T14:36:10Z</time>
      </trkpt>
      <trkpt lat="43.43845" lon="6.00624">
        <ele>301</ele>
        <time>2016-02-24T14:36:12Z</time>
      </trkpt>
      <trkpt lat="43.43845" lon="6.00624">
        <ele>301</ele>
        <time>2016-02-24T14:36:14Z</time>
      </trkpt>
      <trkpt lat="43.43845" lon="6.00624">
        <ele>301.20001220703</ele>
        <time>2016-02-24T14:36:16Z</time>
      </trkpt>
      <trkpt lat="43.43845" lon="6.00624">
        <ele>301</ele>
        <time>2016-02-24T14:36:18Z</time>
      </trkpt>
      <trkpt lat="43.43845" lon="6.00624">
        <ele>301</ele>
        <time>2016-02-24T14:36:20Z</time>
      </trkpt>
      <trkpt lat="43.43845" lon="6.00624">
        <ele>301</ele>
        <time>2016-02-24T14:36:22Z</time>
      </trkpt>
      <trkpt lat="43.43845" lon="6.00624">
        <ele>301.20001220703</ele>
        <time>2016-02-24T14:36:24Z</time>
      </trkpt>
      <trkpt lat="43.43845" lon="6.00624">
        <ele>301</ele>
        <time>2016-02-24T14:36:26Z</time>
      </trkpt>
      <trkpt lat="43.43845" lon="6.00624">
        <ele>301.20001220703</ele>
        <time>2016-02-24T14:36:28Z</time>
      </trkpt>
      <trkpt lat="43.43845" lon="6.00624">
        <ele>301</ele>
        <time>2016-02-24T14:36:30Z</time>
      </trkpt>
      <trkpt lat="43.43845" lon="6.00624">
        <ele>301</ele>
        <time>2016-02-24T14:36:32Z</time>
      </trkpt>
      <trkpt lat="43.43845" lon="6.00624">
        <ele>301</ele>
        <time>2016-02-24T14:36:34Z</time>
      </trkpt>
      <trkpt lat="43.43845" lon="6.00624">
        <ele>301.20001220703</ele>
        <time>2016-02-24T14:36:36Z</time>
      </trkpt>
      <trkpt lat="43.43845" lon="6.00624">
        <ele>301.20001220703</ele>
        <time>2016-02-24T14:36:38Z</time>
      </trkpt>
      <trkpt lat="43.43845" lon="6.00624">
        <ele>301.39999389648</ele>
        <time>2016-02-24T14:36:40Z</time>
      </trkpt>
      <trkpt lat="43.43845" lon="6.00624">
        <ele>301.20001220703</ele>
        <time>2016-02-24T14:36:42Z</time>
      </trkpt>
      <trkpt lat="43.43845" lon="6.00624">
        <ele>301.20001220703</ele>
        <time>2016-02-24T14:36:44Z</time>
      </trkpt>
      <trkpt lat="43.43845" lon="6.00624">
        <ele>301.39999389648</ele>
        <time>2016-02-24T14:36:46Z</time>
      </trkpt>
      <trkpt lat="43.43845" lon="6.00624">
        <ele>301.39999389648</ele>
        <time>2016-02-24T14:36:48Z</time>
      </trkpt>
      <trkpt lat="43.43845" lon="6.00624">
        <ele>301.39999389648</ele>
        <time>2016-02-24T14:36:50Z</time>
      </trkpt>
      <trkpt lat="43.43845" lon="6.00624">
        <ele>301.39999389648</ele>
        <time>2016-02-24T14:36:52Z</time>
      </trkpt>
      <trkpt lat="43.43845" lon="6.00624">
        <ele>301.20001220703</ele>
        <time>2016-02-24T14:36:54Z</time>
      </trkpt>
      <trkpt lat="43.43845" lon="6.00624">
        <ele>301.39999389648</ele>
        <time>2016-02-24T14:36:56Z</time>
      </trkpt>
      <trkpt lat="43.43845" lon="6.00624">
        <ele>301.39999389648</ele>
        <time>2016-02-24T14:36:58Z</time>
      </trkpt>
      <trkpt lat="43.43845" lon="6.00623">
        <ele>301.39999389648</ele>
        <time>2016-02-24T14:37:00Z</time>
      </trkpt>
      <trkpt lat="43.43845" lon="6.00623">
        <ele>301.39999389648</ele>
        <time>2016-02-24T14:37:02Z</time>
      </trkpt>
      <trkpt lat="43.43845" lon="6.00623">
        <ele>301.20001220703</ele>
        <time>2016-02-24T14:37:04Z</time>
      </trkpt>
      <trkpt lat="43.43845" lon="6.00623">
        <ele>301.60000610352</ele>
        <time>2016-02-24T14:37:06Z</time>
      </trkpt>
      <trkpt lat="43.43845" lon="6.00623">
        <ele>301.39999389648</ele>
        <time>2016-02-24T14:37:08Z</time>
      </trkpt>
      <trkpt lat="43.43845" lon="6.00623">
        <ele>301.39999389648</ele>
        <time>2016-02-24T14:37:10Z</time>
      </trkpt>
      <trkpt lat="43.43845" lon="6.00623">
        <ele>301.39999389648</ele>
        <time>2016-02-24T14:37:11Z</time>
      </trkpt>
      <trkpt lat="43.43845" lon="6.00623">
        <ele>301.39999389648</ele>
        <time>2016-02-24T14:37:12Z</time>
      </trkpt>
      <trkpt lat="43.43845" lon="6.00623">
        <ele>301.39999389648</ele>
        <time>2016-02-24T14:37:14Z</time>
      </trkpt>
      <trkpt lat="43.43845" lon="6.00623">
        <ele>301.39999389648</ele>
        <time>2016-02-24T14:37:16Z</time>
      </trkpt>
      <trkpt lat="43.43842" lon="6.00621">
        <ele>301.39999389648</ele>
        <time>2016-02-24T14:37:18Z</time>
      </trkpt>
      <trkpt lat="43.43841" lon="6.00619">
        <ele>301.39999389648</ele>
        <time>2016-02-24T14:37:19Z</time>
      </trkpt>
      <trkpt lat="43.4384" lon="6.00617">
        <ele>301.39999389648</ele>
        <time>2016-02-24T14:37:20Z</time>
      </trkpt>
      <trkpt lat="43.43837" lon="6.00614">
        <ele>301.60000610352</ele>
        <time>2016-02-24T14:37:22Z</time>
      </trkpt>
      <trkpt lat="43.43835" lon="6.00611">
        <ele>302</ele>
        <time>2016-02-24T14:37:23Z</time>
      </trkpt>
      <trkpt lat="43.43834" lon="6.00609">
        <ele>302.20001220703</ele>
        <time>2016-02-24T14:37:24Z</time>
      </trkpt>
      <trkpt lat="43.43831" lon="6.00603">
        <ele>302</ele>
        <time>2016-02-24T14:37:26Z</time>
      </trkpt>
      <trkpt lat="43.4383" lon="6.00601">
        <ele>301.79998779297</ele>
        <time>2016-02-24T14:37:27Z</time>
      </trkpt>
      <trkpt lat="43.43829" lon="6.00598">
        <ele>302</ele>
        <time>2016-02-24T14:37:28Z</time>
      </trkpt>
      <trkpt lat="43.43826" lon="6.00591">
        <ele>302</ele>
        <time>2016-02-24T14:37:30Z</time>
      </trkpt>
      <trkpt lat="43.43822" lon="6.00585">
        <ele>302</ele>
        <time>2016-02-24T14:37:32Z</time>
      </trkpt>
      <trkpt lat="43.43821" lon="6.00578">
        <ele>302</ele>
        <time>2016-02-24T14:37:34Z</time>
      </trkpt>
      <trkpt lat="43.43819" lon="6.00572">
        <ele>302.20001220703</ele>
        <time>2016-02-24T14:37:36Z</time>
      </trkpt>
      <trkpt lat="43.43818" lon="6.00566">
        <ele>302.20001220703</ele>
        <time>2016-02-24T14:37:38Z</time>
      </trkpt>
      <trkpt lat="43.43818" lon="6.00559">
        <ele>302.39999389648</ele>
        <time>2016-02-24T14:37:40Z</time>
      </trkpt>
      <trkpt lat="43.43818" lon="6.00553">
        <ele>302.60000610352</ele>
        <time>2016-02-24T14:37:42Z</time>
      </trkpt>
      <trkpt lat="43.43816" lon="6.00546">
        <ele>302.79998779297</ele>
        <time>2016-02-24T14:37:44Z</time>
      </trkpt>
      <trkpt lat="43.43815" lon="6.00543">
        <ele>303</ele>
        <time>2016-02-24T14:37:45Z</time>
      </trkpt>
      <trkpt lat="43.43814" lon="6.0054">
        <ele>303</ele>
        <time>2016-02-24T14:37:46Z</time>
      </trkpt>
      <trkpt lat="43.43811" lon="6.00535">
        <ele>303.20001220703</ele>
        <time>2016-02-24T14:37:48Z</time>
      </trkpt>
      <trkpt lat="43.43808" lon="6.00531">
        <ele>303</ele>
        <time>2016-02-24T14:37:50Z</time>
      </trkpt>
      <trkpt lat="43.43804" lon="6.00528">
        <ele>303.60000610352</ele>
        <time>2016-02-24T14:37:52Z</time>
      </trkpt>
      <trkpt lat="43.438" lon="6.00525">
        <ele>304</ele>
        <time>2016-02-24T14:37:54Z</time>
      </trkpt>
      <trkpt lat="43.43798" lon="6.00523">
        <ele>304</ele>
        <time>2016-02-24T14:37:55Z</time>
      </trkpt>
      <trkpt lat="43.43797" lon="6.00522">
        <ele>304.20001220703</ele>
        <time>2016-02-24T14:37:56Z</time>
      </trkpt>
      <trkpt lat="43.43793" lon="6.0052">
        <ele>304.60000610352</ele>
        <time>2016-02-24T14:37:58Z</time>
      </trkpt>
      <trkpt lat="43.43788" lon="6.00518">
        <ele>305</ele>
        <time>2016-02-24T14:38:00Z</time>
      </trkpt>
      <trkpt lat="43.43786" lon="6.00516">
        <ele>304.79998779297</ele>
        <time>2016-02-24T14:38:01Z</time>
      </trkpt>
      <trkpt lat="43.43784" lon="6.00515">
        <ele>304.79998779297</ele>
        <time>2016-02-24T14:38:02Z</time>
      </trkpt>
      <trkpt lat="43.43782" lon="6.00511">
        <ele>305</ele>
        <time>2016-02-24T14:38:04Z</time>
      </trkpt>
      <trkpt lat="43.43781" lon="6.00508">
        <ele>305</ele>
        <time>2016-02-24T14:38:05Z</time>
      </trkpt>
      <trkpt lat="43.43781" lon="6.00505">
        <ele>305.20001220703</ele>
        <time>2016-02-24T14:38:06Z</time>
      </trkpt>
      <trkpt lat="43.4378" lon="6.00502">
        <ele>305.39999389648</ele>
        <time>2016-02-24T14:38:07Z</time>
      </trkpt>
      <trkpt lat="43.4378" lon="6.005">
        <ele>305.60000610352</ele>
        <time>2016-02-24T14:38:08Z</time>
      </trkpt>
      <trkpt lat="43.43779" lon="6.00494">
        <ele>305.79998779297</ele>
        <time>2016-02-24T14:38:10Z</time>
      </trkpt>
      <trkpt lat="43.43777" lon="6.00489">
        <ele>306.20001220703</ele>
        <time>2016-02-24T14:38:12Z</time>
      </trkpt>
      <trkpt lat="43.43776" lon="6.00486">
        <ele>306.39999389648</ele>
        <time>2016-02-24T14:38:13Z</time>
      </trkpt>
      <trkpt lat="43.43776" lon="6.00484">
        <ele>306.60000610352</ele>
        <time>2016-02-24T14:38:14Z</time>
      </trkpt>
      <trkpt lat="43.43774" lon="6.00479">
        <ele>306.60000610352</ele>
        <time>2016-02-24T14:38:16Z</time>
      </trkpt>
      <trkpt lat="43.43772" lon="6.00474">
        <ele>306.79998779297</ele>
        <time>2016-02-24T14:38:18Z</time>
      </trkpt>
      <trkpt lat="43.43771" lon="6.00469">
        <ele>307.20001220703</ele>
        <time>2016-02-24T14:38:20Z</time>
      </trkpt>
      <trkpt lat="43.43769" lon="6.00463">
        <ele>307.20001220703</ele>
        <time>2016-02-24T14:38:22Z</time>
      </trkpt>
      <trkpt lat="43.43768" lon="6.0046">
        <ele>307.20001220703</ele>
        <time>2016-02-24T14:38:23Z</time>
      </trkpt>
      <trkpt lat="43.43767" lon="6.00457">
        <ele>307.20001220703</ele>
        <time>2016-02-24T14:38:24Z</time>
      </trkpt>
      <trkpt lat="43.43765" lon="6.00452">
        <ele>307</ele>
        <time>2016-02-24T14:38:26Z</time>
      </trkpt>
      <trkpt lat="43.43763" lon="6.00446">
        <ele>307</ele>
        <time>2016-02-24T14:38:28Z</time>
      </trkpt>
      <trkpt lat="43.43761" lon="6.00439">
        <ele>306.79998779297</ele>
        <time>2016-02-24T14:38:30Z</time>
      </trkpt>
      <trkpt lat="43.4376" lon="6.00433">
        <ele>306.79998779297</ele>
        <time>2016-02-24T14:38:32Z</time>
      </trkpt>
      <trkpt lat="43.4376" lon="6.00426">
        <ele>307.20001220703</ele>
        <time>2016-02-24T14:38:34Z</time>
      </trkpt>
      <trkpt lat="43.4376" lon="6.0042">
        <ele>307.39999389648</ele>
        <time>2016-02-24T14:38:36Z</time>
      </trkpt>
      <trkpt lat="43.4376" lon="6.00414">
        <ele>308.20001220703</ele>
        <time>2016-02-24T14:38:38Z</time>
      </trkpt>
      <trkpt lat="43.43759" lon="6.00407">
        <ele>308.20001220703</ele>
        <time>2016-02-24T14:38:40Z</time>
      </trkpt>
      <trkpt lat="43.43758" lon="6.00403">
        <ele>308.39999389648</ele>
        <time>2016-02-24T14:38:41Z</time>
      </trkpt>
      <trkpt lat="43.43757" lon="6.00401">
        <ele>308.60000610352</ele>
        <time>2016-02-24T14:38:42Z</time>
      </trkpt>
      <trkpt lat="43.43756" lon="6.00398">
        <ele>308.79998779297</ele>
        <time>2016-02-24T14:38:43Z</time>
      </trkpt>
      <trkpt lat="43.43756" lon="6.00395">
        <ele>309</ele>
        <time>2016-02-24T14:38:44Z</time>
      </trkpt>
      <trkpt lat="43.43755" lon="6.00392">
        <ele>309</ele>
        <time>2016-02-24T14:38:45Z</time>
      </trkpt>
      <trkpt lat="43.43753" lon="6.00389">
        <ele>309</ele>
        <time>2016-02-24T14:38:46Z</time>
      </trkpt>
      <trkpt lat="43.43753" lon="6.00386">
        <ele>309</ele>
        <time>2016-02-24T14:38:47Z</time>
      </trkpt>
      <trkpt lat="43.43753" lon="6.00383">
        <ele>308.79998779297</ele>
        <time>2016-02-24T14:38:48Z</time>
      </trkpt>
      <trkpt lat="43.43753" lon="6.0038">
        <ele>309</ele>
        <time>2016-02-24T14:38:49Z</time>
      </trkpt>
      <trkpt lat="43.43753" lon="6.00377">
        <ele>309</ele>
        <time>2016-02-24T14:38:50Z</time>
      </trkpt>
      <trkpt lat="43.43752" lon="6.00373">
        <ele>309.20001220703</ele>
        <time>2016-02-24T14:38:51Z</time>
      </trkpt>
      <trkpt lat="43.43752" lon="6.0037">
        <ele>309.20001220703</ele>
        <time>2016-02-24T14:38:52Z</time>
      </trkpt>
      <trkpt lat="43.43753" lon="6.00364">
        <ele>309.39999389648</ele>
        <time>2016-02-24T14:38:54Z</time>
      </trkpt>
      <trkpt lat="43.43753" lon="6.00361">
        <ele>309.39999389648</ele>
        <time>2016-02-24T14:38:55Z</time>
      </trkpt>
      <trkpt lat="43.43754" lon="6.00358">
        <ele>309.60000610352</ele>
        <time>2016-02-24T14:38:56Z</time>
      </trkpt>
      <trkpt lat="43.43755" lon="6.00352">
        <ele>309.60000610352</ele>
        <time>2016-02-24T14:38:58Z</time>
      </trkpt>
      <trkpt lat="43.43756" lon="6.00346">
        <ele>309.60000610352</ele>
        <time>2016-02-24T14:39:00Z</time>
      </trkpt>
      <trkpt lat="43.43757" lon="6.00341">
        <ele>310</ele>
        <time>2016-02-24T14:39:02Z</time>
      </trkpt>
      <trkpt lat="43.43757" lon="6.00337">
        <ele>310.39999389648</ele>
        <time>2016-02-24T14:39:04Z</time>
      </trkpt>
      <trkpt lat="43.43756" lon="6.00335">
        <ele>310.60000610352</ele>
        <time>2016-02-24T14:39:05Z</time>
      </trkpt>
      <trkpt lat="43.43756" lon="6.00333">
        <ele>310.60000610352</ele>
        <time>2016-02-24T14:39:06Z</time>
      </trkpt>
      <trkpt lat="43.43756" lon="6.00331">
        <ele>310.39999389648</ele>
        <time>2016-02-24T14:39:07Z</time>
      </trkpt>
      <trkpt lat="43.43755" lon="6.00328">
        <ele>310.39999389648</ele>
        <time>2016-02-24T14:39:08Z</time>
      </trkpt>
      <trkpt lat="43.43755" lon="6.00322">
        <ele>310.79998779297</ele>
        <time>2016-02-24T14:39:10Z</time>
      </trkpt>
      <trkpt lat="43.43755" lon="6.00316">
        <ele>310.79998779297</ele>
        <time>2016-02-24T14:39:12Z</time>
      </trkpt>
      <trkpt lat="43.43754" lon="6.0031">
        <ele>311</ele>
        <time>2016-02-24T14:39:14Z</time>
      </trkpt>
      <trkpt lat="43.43754" lon="6.00307">
        <ele>311</ele>
        <time>2016-02-24T14:39:15Z</time>
      </trkpt>
      <trkpt lat="43.43754" lon="6.00305">
        <ele>311</ele>
        <time>2016-02-24T14:39:16Z</time>
      </trkpt>
      <trkpt lat="43.43753" lon="6.00301">
        <ele>311</ele>
        <time>2016-02-24T14:39:17Z</time>
      </trkpt>
      <trkpt lat="43.43753" lon="6.00298">
        <ele>311.20001220703</ele>
        <time>2016-02-24T14:39:18Z</time>
      </trkpt>
      <trkpt lat="43.43753" lon="6.00295">
        <ele>311.39999389648</ele>
        <time>2016-02-24T14:39:19Z</time>
      </trkpt>
      <trkpt lat="43.43753" lon="6.00293">
        <ele>311.39999389648</ele>
        <time>2016-02-24T14:39:20Z</time>
      </trkpt>
      <trkpt lat="43.43753" lon="6.00287">
        <ele>311.39999389648</ele>
        <time>2016-02-24T14:39:22Z</time>
      </trkpt>
      <trkpt lat="43.43752" lon="6.00282">
        <ele>311.39999389648</ele>
        <time>2016-02-24T14:39:24Z</time>
      </trkpt>
      <trkpt lat="43.43751" lon="6.00279">
        <ele>311.39999389648</ele>
        <time>2016-02-24T14:39:25Z</time>
      </trkpt>
      <trkpt lat="43.43751" lon="6.00277">
        <ele>311.60000610352</ele>
        <time>2016-02-24T14:39:26Z</time>
      </trkpt>
      <trkpt lat="43.43748" lon="6.00272">
        <ele>311.39999389648</ele>
        <time>2016-02-24T14:39:28Z</time>
      </trkpt>
      <trkpt lat="43.43746" lon="6.00269">
        <ele>311.39999389648</ele>
        <time>2016-02-24T14:39:30Z</time>
      </trkpt>
      <trkpt lat="43.43744" lon="6.00266">
        <ele>311.79998779297</ele>
        <time>2016-02-24T14:39:32Z</time>
      </trkpt>
      <trkpt lat="43.43742" lon="6.00266">
        <ele>312</ele>
        <time>2016-02-24T14:39:33Z</time>
      </trkpt>
      <trkpt lat="43.43742" lon="6.00265">
        <ele>312</ele>
        <time>2016-02-24T14:39:34Z</time>
      </trkpt>
      <trkpt lat="43.4374" lon="6.00266">
        <ele>312</ele>
        <time>2016-02-24T14:39:36Z</time>
      </trkpt>
      <trkpt lat="43.4374" lon="6.00266">
        <ele>312</ele>
        <time>2016-02-24T14:39:38Z</time>
      </trkpt>
      <trkpt lat="43.4374" lon="6.00266">
        <ele>312</ele>
        <time>2016-02-24T14:39:40Z</time>
      </trkpt>
      <trkpt lat="43.4374" lon="6.00266">
        <ele>312</ele>
        <time>2016-02-24T14:39:42Z</time>
      </trkpt>
      <trkpt lat="43.4374" lon="6.00266">
        <ele>312</ele>
        <time>2016-02-24T14:39:44Z</time>
      </trkpt>
      <trkpt lat="43.4374" lon="6.00266">
        <ele>312.20001220703</ele>
        <time>2016-02-24T14:39:46Z</time>
      </trkpt>
      <trkpt lat="43.4374" lon="6.00266">
        <ele>312</ele>
        <time>2016-02-24T14:39:48Z</time>
      </trkpt>
      <trkpt lat="43.4374" lon="6.00266">
        <ele>312</ele>
        <time>2016-02-24T14:39:50Z</time>
      </trkpt>
      <trkpt lat="43.4374" lon="6.00266">
        <ele>312.20001220703</ele>
        <time>2016-02-24T14:39:52Z</time>
      </trkpt>
      <trkpt lat="43.4374" lon="6.00266">
        <ele>312.20001220703</ele>
        <time>2016-02-24T14:39:54Z</time>
      </trkpt>
      <trkpt lat="43.4374" lon="6.00266">
        <ele>312.20001220703</ele>
        <time>2016-02-24T14:39:56Z</time>
      </trkpt>
      <trkpt lat="43.4374" lon="6.00266">
        <ele>312.20001220703</ele>
        <time>2016-02-24T14:39:57Z</time>
      </trkpt>
      <trkpt lat="43.4374" lon="6.00266">
        <ele>312.20001220703</ele>
        <time>2016-02-24T14:39:58Z</time>
      </trkpt>
      <trkpt lat="43.4374" lon="6.00266">
        <ele>312.20001220703</ele>
        <time>2016-02-24T14:40:00Z</time>
      </trkpt>
      <trkpt lat="43.4374" lon="6.00266">
        <ele>312</ele>
        <time>2016-02-24T14:40:02Z</time>
      </trkpt>
      <trkpt lat="43.4374" lon="6.00266">
        <ele>312.20001220703</ele>
        <time>2016-02-24T14:40:04Z</time>
      </trkpt>
      <trkpt lat="43.4374" lon="6.00266">
        <ele>312.20001220703</ele>
        <time>2016-02-24T14:40:06Z</time>
      </trkpt>
      <trkpt lat="43.4374" lon="6.00266">
        <ele>312.20001220703</ele>
        <time>2016-02-24T14:40:08Z</time>
      </trkpt>
      <trkpt lat="43.4374" lon="6.00266">
        <ele>312.20001220703</ele>
        <time>2016-02-24T14:40:10Z</time>
      </trkpt>
      <trkpt lat="43.4374" lon="6.00266">
        <ele>312</ele>
        <time>2016-02-24T14:40:12Z</time>
      </trkpt>
      <trkpt lat="43.4374" lon="6.00266">
        <ele>312</ele>
        <time>2016-02-24T14:40:14Z</time>
      </trkpt>
      <trkpt lat="43.4374" lon="6.00266">
        <ele>312</ele>
        <time>2016-02-24T14:40:16Z</time>
      </trkpt>
      <trkpt lat="43.4374" lon="6.00266">
        <ele>312.20001220703</ele>
        <time>2016-02-24T14:40:18Z</time>
      </trkpt>
      <trkpt lat="43.4374" lon="6.00266">
        <ele>312</ele>
        <time>2016-02-24T14:40:20Z</time>
      </trkpt>
      <trkpt lat="43.4374" lon="6.00266">
        <ele>312</ele>
        <time>2016-02-24T14:40:22Z</time>
      </trkpt>
      <trkpt lat="43.4374" lon="6.00266">
        <ele>312</ele>
        <time>2016-02-24T14:40:24Z</time>
      </trkpt>
      <trkpt lat="43.4374" lon="6.00266">
        <ele>311.79998779297</ele>
        <time>2016-02-24T14:40:26Z</time>
      </trkpt>
      <trkpt lat="43.4374" lon="6.00266">
        <ele>311.79998779297</ele>
        <time>2016-02-24T14:40:28Z</time>
      </trkpt>
      <trkpt lat="43.4374" lon="6.00266">
        <ele>311.79998779297</ele>
        <time>2016-02-24T14:40:30Z</time>
      </trkpt>
      <trkpt lat="43.4374" lon="6.00266">
        <ele>311.79998779297</ele>
        <time>2016-02-24T14:40:32Z</time>
      </trkpt>
      <trkpt lat="43.4374" lon="6.00266">
        <ele>311.79998779297</ele>
        <time>2016-02-24T14:40:34Z</time>
      </trkpt>
      <trkpt lat="43.4374" lon="6.00266">
        <ele>311.60000610352</ele>
        <time>2016-02-24T14:40:36Z</time>
      </trkpt>
      <trkpt lat="43.4374" lon="6.00266">
        <ele>311.79998779297</ele>
        <time>2016-02-24T14:40:38Z</time>
      </trkpt>
      <trkpt lat="43.4374" lon="6.00266">
        <ele>311.60000610352</ele>
        <time>2016-02-24T14:40:40Z</time>
      </trkpt>
      <trkpt lat="43.4374" lon="6.00266">
        <ele>311.60000610352</ele>
        <time>2016-02-24T14:40:42Z</time>
      </trkpt>
      <trkpt lat="43.4374" lon="6.00266">
        <ele>311.79998779297</ele>
        <time>2016-02-24T14:40:44Z</time>
      </trkpt>
      <trkpt lat="43.4374" lon="6.00266">
        <ele>311.79998779297</ele>
        <time>2016-02-24T14:40:46Z</time>
      </trkpt>
      <trkpt lat="43.4374" lon="6.00266">
        <ele>311.79998779297</ele>
        <time>2016-02-24T14:40:48Z</time>
      </trkpt>
      <trkpt lat="43.4374" lon="6.00266">
        <ele>312</ele>
        <time>2016-02-24T14:40:50Z</time>
      </trkpt>
      <trkpt lat="43.4374" lon="6.00266">
        <ele>311.79998779297</ele>
        <time>2016-02-24T14:40:52Z</time>
      </trkpt>
      <trkpt lat="43.4374" lon="6.00266">
        <ele>312</ele>
        <time>2016-02-24T14:40:54Z</time>
      </trkpt>
      <trkpt lat="43.4374" lon="6.00266">
        <ele>312</ele>
        <time>2016-02-24T14:40:56Z</time>
      </trkpt>
      <trkpt lat="43.4374" lon="6.00266">
        <ele>311.79998779297</ele>
        <time>2016-02-24T14:40:58Z</time>
      </trkpt>
      <trkpt lat="43.4374" lon="6.00266">
        <ele>311.79998779297</ele>
        <time>2016-02-24T14:40:59Z</time>
      </trkpt>
      <trkpt lat="43.4374" lon="6.00266">
        <ele>311.79998779297</ele>
        <time>2016-02-24T14:41:00Z</time>
      </trkpt>
      <trkpt lat="43.4374" lon="6.00266">
        <ele>311.79998779297</ele>
        <time>2016-02-24T14:41:02Z</time>
      </trkpt>
      <trkpt lat="43.4374" lon="6.00266">
        <ele>311.79998779297</ele>
        <time>2016-02-24T14:41:04Z</time>
      </trkpt>
      <trkpt lat="43.4374" lon="6.00266">
        <ele>311.79998779297</ele>
        <time>2016-02-24T14:41:06Z</time>
      </trkpt>
      <trkpt lat="43.4374" lon="6.00266">
        <ele>312</ele>
        <time>2016-02-24T14:41:08Z</time>
      </trkpt>
      <trkpt lat="43.4374" lon="6.00266">
        <ele>312</ele>
        <time>2016-02-24T14:41:10Z</time>
      </trkpt>
      <trkpt lat="43.4374" lon="6.00266">
        <ele>311.79998779297</ele>
        <time>2016-02-24T14:41:12Z</time>
      </trkpt>
      <trkpt lat="43.4374" lon="6.00266">
        <ele>312</ele>
        <time>2016-02-24T14:41:14Z</time>
      </trkpt>
      <trkpt lat="43.4374" lon="6.00266">
        <ele>312</ele>
        <time>2016-02-24T14:41:16Z</time>
      </trkpt>
      <trkpt lat="43.4374" lon="6.00266">
        <ele>311.79998779297</ele>
        <time>2016-02-24T14:41:18Z</time>
      </trkpt>
      <trkpt lat="43.4374" lon="6.00266">
        <ele>312</ele>
        <time>2016-02-24T14:41:20Z</time>
      </trkpt>
      <trkpt lat="43.4374" lon="6.00266">
        <ele>311.79998779297</ele>
        <time>2016-02-24T14:41:22Z</time>
      </trkpt>
      <trkpt lat="43.4374" lon="6.00266">
        <ele>311.79998779297</ele>
        <time>2016-02-24T14:41:24Z</time>
      </trkpt>
      <trkpt lat="43.4374" lon="6.00266">
        <ele>312</ele>
        <time>2016-02-24T14:41:26Z</time>
      </trkpt>
      <trkpt lat="43.4374" lon="6.00266">
        <ele>312</ele>
        <time>2016-02-24T14:41:28Z</time>
      </trkpt>
      <trkpt lat="43.4374" lon="6.00266">
        <ele>312</ele>
        <time>2016-02-24T14:41:30Z</time>
      </trkpt>
      <trkpt lat="43.4374" lon="6.00266">
        <ele>311.79998779297</ele>
        <time>2016-02-24T14:41:32Z</time>
      </trkpt>
      <trkpt lat="43.4374" lon="6.00266">
        <ele>311.79998779297</ele>
        <time>2016-02-24T14:41:33Z</time>
      </trkpt>
      <trkpt lat="43.4374" lon="6.00266">
        <ele>311.79998779297</ele>
        <time>2016-02-24T14:41:34Z</time>
      </trkpt>
      <trkpt lat="43.4374" lon="6.00266">
        <ele>311.79998779297</ele>
        <time>2016-02-24T14:41:36Z</time>
      </trkpt>
      <trkpt lat="43.4374" lon="6.00266">
        <ele>312</ele>
        <time>2016-02-24T14:41:38Z</time>
      </trkpt>
      <trkpt lat="43.4374" lon="6.00266">
        <ele>312</ele>
        <time>2016-02-24T14:41:40Z</time>
      </trkpt>
      <trkpt lat="43.4374" lon="6.00266">
        <ele>312</ele>
        <time>2016-02-24T14:41:42Z</time>
      </trkpt>
      <trkpt lat="43.4374" lon="6.00266">
        <ele>312</ele>
        <time>2016-02-24T14:41:44Z</time>
      </trkpt>
      <trkpt lat="43.4374" lon="6.00266">
        <ele>312</ele>
        <time>2016-02-24T14:41:46Z</time>
      </trkpt>
      <trkpt lat="43.4374" lon="6.00266">
        <ele>312</ele>
        <time>2016-02-24T14:41:48Z</time>
      </trkpt>
      <trkpt lat="43.4374" lon="6.00266">
        <ele>312.20001220703</ele>
        <time>2016-02-24T14:41:50Z</time>
      </trkpt>
      <trkpt lat="43.4374" lon="6.00266">
        <ele>312.20001220703</ele>
        <time>2016-02-24T14:41:52Z</time>
      </trkpt>
      <trkpt lat="43.4374" lon="6.00266">
        <ele>311.79998779297</ele>
        <time>2016-02-24T14:41:54Z</time>
      </trkpt>
      <trkpt lat="43.4374" lon="6.00266">
        <ele>311.79998779297</ele>
        <time>2016-02-24T14:41:56Z</time>
      </trkpt>
      <trkpt lat="43.4374" lon="6.00266">
        <ele>312</ele>
        <time>2016-02-24T14:41:58Z</time>
      </trkpt>
      <trkpt lat="43.4374" lon="6.00266">
        <ele>312</ele>
        <time>2016-02-24T14:42:00Z</time>
      </trkpt>
      <trkpt lat="43.4374" lon="6.00266">
        <ele>312</ele>
        <time>2016-02-24T14:42:02Z</time>
      </trkpt>
      <trkpt lat="43.4374" lon="6.00266">
        <ele>312</ele>
        <time>2016-02-24T14:42:04Z</time>
      </trkpt>
      <trkpt lat="43.4374" lon="6.00266">
        <ele>312</ele>
        <time>2016-02-24T14:42:06Z</time>
      </trkpt>
      <trkpt lat="43.4374" lon="6.00266">
        <ele>312</ele>
        <time>2016-02-24T14:42:08Z</time>
      </trkpt>
      <trkpt lat="43.4374" lon="6.00266">
        <ele>312</ele>
        <time>2016-02-24T14:42:10Z</time>
      </trkpt>
      <trkpt lat="43.4374" lon="6.00266">
        <ele>312</ele>
        <time>2016-02-24T14:42:12Z</time>
      </trkpt>
      <trkpt lat="43.4374" lon="6.00266">
        <ele>312</ele>
        <time>2016-02-24T14:42:14Z</time>
      </trkpt>
      <trkpt lat="43.4374" lon="6.00266">
        <ele>312</ele>
        <time>2016-02-24T14:42:16Z</time>
      </trkpt>
      <trkpt lat="43.4374" lon="6.00266">
        <ele>312</ele>
        <time>2016-02-24T14:42:18Z</time>
      </trkpt>
      <trkpt lat="43.4374" lon="6.00266">
        <ele>312</ele>
        <time>2016-02-24T14:42:20Z</time>
      </trkpt>
      <trkpt lat="43.4374" lon="6.00266">
        <ele>312</ele>
        <time>2016-02-24T14:42:22Z</time>
      </trkpt>
      <trkpt lat="43.4374" lon="6.00266">
        <ele>312</ele>
        <time>2016-02-24T14:42:24Z</time>
      </trkpt>
      <trkpt lat="43.4374" lon="6.00266">
        <ele>312</ele>
        <time>2016-02-24T14:42:26Z</time>
      </trkpt>
      <trkpt lat="43.4374" lon="6.00266">
        <ele>312</ele>
        <time>2016-02-24T14:42:28Z</time>
      </trkpt>
      <trkpt lat="43.4374" lon="6.00266">
        <ele>312</ele>
        <time>2016-02-24T14:42:30Z</time>
      </trkpt>
      <trkpt lat="43.4374" lon="6.00266">
        <ele>312</ele>
        <time>2016-02-24T14:42:32Z</time>
      </trkpt>
      <trkpt lat="43.4374" lon="6.00266">
        <ele>312</ele>
        <time>2016-02-24T14:42:34Z</time>
      </trkpt>
      <trkpt lat="43.4374" lon="6.00266">
        <ele>311.79998779297</ele>
        <time>2016-02-24T14:42:36Z</time>
      </trkpt>
      <trkpt lat="43.4374" lon="6.00266">
        <ele>311.79998779297</ele>
        <time>2016-02-24T14:42:38Z</time>
      </trkpt>
      <trkpt lat="43.4374" lon="6.00266">
        <ele>311.79998779297</ele>
        <time>2016-02-24T14:42:40Z</time>
      </trkpt>
      <trkpt lat="43.4374" lon="6.00266">
        <ele>312</ele>
        <time>2016-02-24T14:42:42Z</time>
      </trkpt>
      <trkpt lat="43.4374" lon="6.00266">
        <ele>312</ele>
        <time>2016-02-24T14:42:44Z</time>
      </trkpt>
      <trkpt lat="43.4374" lon="6.00266">
        <ele>312.20001220703</ele>
        <time>2016-02-24T14:42:46Z</time>
      </trkpt>
      <trkpt lat="43.4374" lon="6.00266">
        <ele>312</ele>
        <time>2016-02-24T14:42:48Z</time>
      </trkpt>
      <trkpt lat="43.4374" lon="6.00266">
        <ele>312</ele>
        <time>2016-02-24T14:42:50Z</time>
      </trkpt>
      <trkpt lat="43.4374" lon="6.00266">
        <ele>312</ele>
        <time>2016-02-24T14:42:52Z</time>
      </trkpt>
      <trkpt lat="43.4374" lon="6.00266">
        <ele>312</ele>
        <time>2016-02-24T14:42:54Z</time>
      </trkpt>
      <trkpt lat="43.4374" lon="6.00266">
        <ele>312</ele>
        <time>2016-02-24T14:42:56Z</time>
      </trkpt>
      <trkpt lat="43.4374" lon="6.00266">
        <ele>311.60000610352</ele>
        <time>2016-02-24T14:42:58Z</time>
      </trkpt>
      <trkpt lat="43.4374" lon="6.00266">
        <ele>311.39999389648</ele>
        <time>2016-02-24T14:43:00Z</time>
      </trkpt>
      <trkpt lat="43.4374" lon="6.00266">
        <ele>311.79998779297</ele>
        <time>2016-02-24T14:43:02Z</time>
      </trkpt>
      <trkpt lat="43.4374" lon="6.00266">
        <ele>312</ele>
        <time>2016-02-24T14:43:04Z</time>
      </trkpt>
      <trkpt lat="43.4374" lon="6.00266">
        <ele>312</ele>
        <time>2016-02-24T14:43:06Z</time>
      </trkpt>
      <trkpt lat="43.4374" lon="6.00266">
        <ele>311.79998779297</ele>
        <time>2016-02-24T14:43:08Z</time>
      </trkpt>
      <trkpt lat="43.4374" lon="6.00266">
        <ele>312</ele>
        <time>2016-02-24T14:43:10Z</time>
      </trkpt>
      <trkpt lat="43.4374" lon="6.00266">
        <ele>312</ele>
        <time>2016-02-24T14:43:12Z</time>
      </trkpt>
      <trkpt lat="43.4374" lon="6.00266">
        <ele>312</ele>
        <time>2016-02-24T14:43:14Z</time>
      </trkpt>
      <trkpt lat="43.4374" lon="6.00266">
        <ele>312</ele>
        <time>2016-02-24T14:43:16Z</time>
      </trkpt>
      <trkpt lat="43.4374" lon="6.00266">
        <ele>312</ele>
        <time>2016-02-24T14:43:18Z</time>
      </trkpt>
      <trkpt lat="43.4374" lon="6.00266">
        <ele>312</ele>
        <time>2016-02-24T14:43:20Z</time>
      </trkpt>
      <trkpt lat="43.4374" lon="6.00266">
        <ele>312</ele>
        <time>2016-02-24T14:43:22Z</time>
      </trkpt>
      <trkpt lat="43.4374" lon="6.00266">
        <ele>311.79998779297</ele>
        <time>2016-02-24T14:43:24Z</time>
      </trkpt>
      <trkpt lat="43.4374" lon="6.00266">
        <ele>311.79998779297</ele>
        <time>2016-02-24T14:43:26Z</time>
      </trkpt>
      <trkpt lat="43.4374" lon="6.00266">
        <ele>311.60000610352</ele>
        <time>2016-02-24T14:43:28Z</time>
      </trkpt>
      <trkpt lat="43.4374" lon="6.00266">
        <ele>311.60000610352</ele>
        <time>2016-02-24T14:43:30Z</time>
      </trkpt>
      <trkpt lat="43.4374" lon="6.00266">
        <ele>311.79998779297</ele>
        <time>2016-02-24T14:43:32Z</time>
      </trkpt>
      <trkpt lat="43.4374" lon="6.00266">
        <ele>311.79998779297</ele>
        <time>2016-02-24T14:43:34Z</time>
      </trkpt>
      <trkpt lat="43.4374" lon="6.00266">
        <ele>311.79998779297</ele>
        <time>2016-02-24T14:43:36Z</time>
      </trkpt>
      <trkpt lat="43.4374" lon="6.00266">
        <ele>311.79998779297</ele>
        <time>2016-02-24T14:43:38Z</time>
      </trkpt>
      <trkpt lat="43.4374" lon="6.00266">
        <ele>311.60000610352</ele>
        <time>2016-02-24T14:43:40Z</time>
      </trkpt>
      <trkpt lat="43.4374" lon="6.00266">
        <ele>311.60000610352</ele>
        <time>2016-02-24T14:43:42Z</time>
      </trkpt>
      <trkpt lat="43.4374" lon="6.00266">
        <ele>311.60000610352</ele>
        <time>2016-02-24T14:43:43Z</time>
      </trkpt>
      <trkpt lat="43.4374" lon="6.00266">
        <ele>311.60000610352</ele>
        <time>2016-02-24T14:43:44Z</time>
      </trkpt>
      <trkpt lat="43.4374" lon="6.00266">
        <ele>311.60000610352</ele>
        <time>2016-02-24T14:43:46Z</time>
      </trkpt>
      <trkpt lat="43.4374" lon="6.00266">
        <ele>311.60000610352</ele>
        <time>2016-02-24T14:43:48Z</time>
      </trkpt>
      <trkpt lat="43.4374" lon="6.00266">
        <ele>311.60000610352</ele>
        <time>2016-02-24T14:43:50Z</time>
      </trkpt>
      <trkpt lat="43.4374" lon="6.00266">
        <ele>311.60000610352</ele>
        <time>2016-02-24T14:43:52Z</time>
      </trkpt>
      <trkpt lat="43.4374" lon="6.00267">
        <ele>311.60000610352</ele>
        <time>2016-02-24T14:43:54Z</time>
      </trkpt>
      <trkpt lat="43.4374" lon="6.00267">
        <ele>311.60000610352</ele>
        <time>2016-02-24T14:43:56Z</time>
      </trkpt>
      <trkpt lat="43.4374" lon="6.00267">
        <ele>311.60000610352</ele>
        <time>2016-02-24T14:43:58Z</time>
      </trkpt>
      <trkpt lat="43.4374" lon="6.00267">
        <ele>311.79998779297</ele>
        <time>2016-02-24T14:44:00Z</time>
      </trkpt>
      <trkpt lat="43.4374" lon="6.00267">
        <ele>311.60000610352</ele>
        <time>2016-02-24T14:44:02Z</time>
      </trkpt>
      <trkpt lat="43.4374" lon="6.00267">
        <ele>311.60000610352</ele>
        <time>2016-02-24T14:44:04Z</time>
      </trkpt>
      <trkpt lat="43.4374" lon="6.00267">
        <ele>311.60000610352</ele>
        <time>2016-02-24T14:44:06Z</time>
      </trkpt>
      <trkpt lat="43.4374" lon="6.00267">
        <ele>311.79998779297</ele>
        <time>2016-02-24T14:44:08Z</time>
      </trkpt>
      <trkpt lat="43.4374" lon="6.00267">
        <ele>311.79998779297</ele>
        <time>2016-02-24T14:44:10Z</time>
      </trkpt>
      <trkpt lat="43.4374" lon="6.00267">
        <ele>311.60000610352</ele>
        <time>2016-02-24T14:44:12Z</time>
      </trkpt>
      <trkpt lat="43.4374" lon="6.00267">
        <ele>311.60000610352</ele>
        <time>2016-02-24T14:44:14Z</time>
      </trkpt>
      <trkpt lat="43.4374" lon="6.00267">
        <ele>311.60000610352</ele>
        <time>2016-02-24T14:44:16Z</time>
      </trkpt>
      <trkpt lat="43.4374" lon="6.00267">
        <ele>311.39999389648</ele>
        <time>2016-02-24T14:44:18Z</time>
      </trkpt>
      <trkpt lat="43.4374" lon="6.00267">
        <ele>311.39999389648</ele>
        <time>2016-02-24T14:44:20Z</time>
      </trkpt>
      <trkpt lat="43.4374" lon="6.00267">
        <ele>311.39999389648</ele>
        <time>2016-02-24T14:44:22Z</time>
      </trkpt>
      <trkpt lat="43.4374" lon="6.00267">
        <ele>311.60000610352</ele>
        <time>2016-02-24T14:44:24Z</time>
      </trkpt>
      <trkpt lat="43.4374" lon="6.00267">
        <ele>311.60000610352</ele>
        <time>2016-02-24T14:44:26Z</time>
      </trkpt>
      <trkpt lat="43.4374" lon="6.00267">
        <ele>311.39999389648</ele>
        <time>2016-02-24T14:44:28Z</time>
      </trkpt>
      <trkpt lat="43.4374" lon="6.00267">
        <ele>311.39999389648</ele>
        <time>2016-02-24T14:44:30Z</time>
      </trkpt>
      <trkpt lat="43.4374" lon="6.00267">
        <ele>311.39999389648</ele>
        <time>2016-02-24T14:44:32Z</time>
      </trkpt>
      <trkpt lat="43.4374" lon="6.00267">
        <ele>311.60000610352</ele>
        <time>2016-02-24T14:44:34Z</time>
      </trkpt>
      <trkpt lat="43.4374" lon="6.00267">
        <ele>311.39999389648</ele>
        <time>2016-02-24T14:44:36Z</time>
      </trkpt>
      <trkpt lat="43.4374" lon="6.00267">
        <ele>311.60000610352</ele>
        <time>2016-02-24T14:44:38Z</time>
      </trkpt>
      <trkpt lat="43.4374" lon="6.00267">
        <ele>311.39999389648</ele>
        <time>2016-02-24T14:44:40Z</time>
      </trkpt>
      <trkpt lat="43.4374" lon="6.00267">
        <ele>311.60000610352</ele>
        <time>2016-02-24T14:44:42Z</time>
      </trkpt>
      <trkpt lat="43.4374" lon="6.00266">
        <ele>311.60000610352</ele>
        <time>2016-02-24T14:44:44Z</time>
      </trkpt>
      <trkpt lat="43.4374" lon="6.00266">
        <ele>311.60000610352</ele>
        <time>2016-02-24T14:44:46Z</time>
      </trkpt>
      <trkpt lat="43.4374" lon="6.00267">
        <ele>311.60000610352</ele>
        <time>2016-02-24T14:44:48Z</time>
      </trkpt>
      <trkpt lat="43.4374" lon="6.00267">
        <ele>311.60000610352</ele>
        <time>2016-02-24T14:44:50Z</time>
      </trkpt>
      <trkpt lat="43.4374" lon="6.00267">
        <ele>311.39999389648</ele>
        <time>2016-02-24T14:44:52Z</time>
      </trkpt>
      <trkpt lat="43.43738" lon="6.00267">
        <ele>311.60000610352</ele>
        <time>2016-02-24T14:44:54Z</time>
      </trkpt>
      <trkpt lat="43.43737" lon="6.00267">
        <ele>311.60000610352</ele>
        <time>2016-02-24T14:44:55Z</time>
      </trkpt>
      <trkpt lat="43.43737" lon="6.00268">
        <ele>311.39999389648</ele>
        <time>2016-02-24T14:44:56Z</time>
      </trkpt>
      <trkpt lat="43.43736" lon="6.00268">
        <ele>311.39999389648</ele>
        <time>2016-02-24T14:44:58Z</time>
      </trkpt>
      <trkpt lat="43.43735" lon="6.00268">
        <ele>311.39999389648</ele>
        <time>2016-02-24T14:45:00Z</time>
      </trkpt>
      <trkpt lat="43.43732" lon="6.00268">
        <ele>311.79998779297</ele>
        <time>2016-02-24T14:45:02Z</time>
      </trkpt>
      <trkpt lat="43.43727" lon="6.0027">
        <ele>311.60000610352</ele>
        <time>2016-02-24T14:45:04Z</time>
      </trkpt>
      <trkpt lat="43.43721" lon="6.00271">
        <ele>311.60000610352</ele>
        <time>2016-02-24T14:45:06Z</time>
      </trkpt>
      <trkpt lat="43.43718" lon="6.00271">
        <ele>311.60000610352</ele>
        <time>2016-02-24T14:45:07Z</time>
      </trkpt>
      <trkpt lat="43.43715" lon="6.00271">
        <ele>311.60000610352</ele>
        <time>2016-02-24T14:45:08Z</time>
      </trkpt>
      <trkpt lat="43.43708" lon="6.00272">
        <ele>312</ele>
        <time>2016-02-24T14:45:10Z</time>
      </trkpt>
      <trkpt lat="43.43705" lon="6.00272">
        <ele>312</ele>
        <time>2016-02-24T14:45:11Z</time>
      </trkpt>
      <trkpt lat="43.43702" lon="6.00271">
        <ele>312</ele>
        <time>2016-02-24T14:45:12Z</time>
      </trkpt>
      <trkpt lat="43.43695" lon="6.0027">
        <ele>312</ele>
        <time>2016-02-24T14:45:14Z</time>
      </trkpt>
      <trkpt lat="43.4369" lon="6.00266">
        <ele>312</ele>
        <time>2016-02-24T14:45:16Z</time>
      </trkpt>
      <trkpt lat="43.43685" lon="6.00263">
        <ele>312.60000610352</ele>
        <time>2016-02-24T14:45:18Z</time>
      </trkpt>
      <trkpt lat="43.43682" lon="6.00262">
        <ele>312.60000610352</ele>
        <time>2016-02-24T14:45:19Z</time>
      </trkpt>
      <trkpt lat="43.43679" lon="6.00263">
        <ele>312.39999389648</ele>
        <time>2016-02-24T14:45:20Z</time>
      </trkpt>
      <trkpt lat="43.43677" lon="6.00264">
        <ele>312.39999389648</ele>
        <time>2016-02-24T14:45:21Z</time>
      </trkpt>
      <trkpt lat="43.43675" lon="6.00265">
        <ele>312.20001220703</ele>
        <time>2016-02-24T14:45:22Z</time>
      </trkpt>
      <trkpt lat="43.43673" lon="6.00267">
        <ele>312</ele>
        <time>2016-02-24T14:45:23Z</time>
      </trkpt>
      <trkpt lat="43.43671" lon="6.0027">
        <ele>312.20001220703</ele>
        <time>2016-02-24T14:45:24Z</time>
      </trkpt>
      <trkpt lat="43.43667" lon="6.00276">
        <ele>313</ele>
        <time>2016-02-24T14:45:26Z</time>
      </trkpt>
      <trkpt lat="43.43665" lon="6.00278">
        <ele>313.20001220703</ele>
        <time>2016-02-24T14:45:27Z</time>
      </trkpt>
      <trkpt lat="43.43662" lon="6.00281">
        <ele>313.20001220703</ele>
        <time>2016-02-24T14:45:28Z</time>
      </trkpt>
      <trkpt lat="43.43659" lon="6.00288">
        <ele>313.60000610352</ele>
        <time>2016-02-24T14:45:30Z</time>
      </trkpt>
      <trkpt lat="43.43658" lon="6.00291">
        <ele>313.79998779297</ele>
        <time>2016-02-24T14:45:31Z</time>
      </trkpt>
      <trkpt lat="43.43656" lon="6.00294">
        <ele>313.39999389648</ele>
        <time>2016-02-24T14:45:32Z</time>
      </trkpt>
      <trkpt lat="43.43651" lon="6.003">
        <ele>313.39999389648</ele>
        <time>2016-02-24T14:45:34Z</time>
      </trkpt>
      <trkpt lat="43.43646" lon="6.00306">
        <ele>313.60000610352</ele>
        <time>2016-02-24T14:45:36Z</time>
      </trkpt>
      <trkpt lat="43.43642" lon="6.00313">
        <ele>313.79998779297</ele>
        <time>2016-02-24T14:45:38Z</time>
      </trkpt>
      <trkpt lat="43.43639" lon="6.00316">
        <ele>314</ele>
        <time>2016-02-24T14:45:39Z</time>
      </trkpt>
      <trkpt lat="43.43637" lon="6.00318">
        <ele>314.60000610352</ele>
        <time>2016-02-24T14:45:40Z</time>
      </trkpt>
      <trkpt lat="43.43633" lon="6.00325">
        <ele>314.60000610352</ele>
        <time>2016-02-24T14:45:42Z</time>
      </trkpt>
      <trkpt lat="43.4363" lon="6.00328">
        <ele>315.20001220703</ele>
        <time>2016-02-24T14:45:43Z</time>
      </trkpt>
      <trkpt lat="43.43628" lon="6.00331">
        <ele>315.79998779297</ele>
        <time>2016-02-24T14:45:44Z</time>
      </trkpt>
      <trkpt lat="43.43624" lon="6.00338">
        <ele>316.20001220703</ele>
        <time>2016-02-24T14:45:46Z</time>
      </trkpt>
      <trkpt lat="43.43623" lon="6.00341">
        <ele>316.39999389648</ele>
        <time>2016-02-24T14:45:47Z</time>
      </trkpt>
      <trkpt lat="43.43621" lon="6.00345">
        <ele>316.60000610352</ele>
        <time>2016-02-24T14:45:48Z</time>
      </trkpt>
      <trkpt lat="43.43618" lon="6.00352">
        <ele>316.79998779297</ele>
        <time>2016-02-24T14:45:50Z</time>
      </trkpt>
      <trkpt lat="43.43616" lon="6.00356">
        <ele>316.79998779297</ele>
        <time>2016-02-24T14:45:51Z</time>
      </trkpt>
      <trkpt lat="43.43615" lon="6.0036">
        <ele>316.79998779297</ele>
        <time>2016-02-24T14:45:52Z</time>
      </trkpt>
      <trkpt lat="43.43613" lon="6.00367">
        <ele>317.60000610352</ele>
        <time>2016-02-24T14:45:54Z</time>
      </trkpt>
      <trkpt lat="43.43612" lon="6.0037">
        <ele>317.79998779297</ele>
        <time>2016-02-24T14:45:55Z</time>
      </trkpt>
      <trkpt lat="43.43612" lon="6.00374">
        <ele>317.79998779297</ele>
        <time>2016-02-24T14:45:56Z</time>
      </trkpt>
      <trkpt lat="43.43612" lon="6.00378">
        <ele>317.79998779297</ele>
        <time>2016-02-24T14:45:57Z</time>
      </trkpt>
      <trkpt lat="43.43612" lon="6.00382">
        <ele>317.79998779297</ele>
        <time>2016-02-24T14:45:58Z</time>
      </trkpt>
      <trkpt lat="43.43612" lon="6.00388">
        <ele>318</ele>
        <time>2016-02-24T14:46:00Z</time>
      </trkpt>
      <trkpt lat="43.43612" lon="6.00391">
        <ele>318</ele>
        <time>2016-02-24T14:46:01Z</time>
      </trkpt>
      <trkpt lat="43.43612" lon="6.00393">
        <ele>318.20001220703</ele>
        <time>2016-02-24T14:46:02Z</time>
      </trkpt>
      <trkpt lat="43.43613" lon="6.00398">
        <ele>318.39999389648</ele>
        <time>2016-02-24T14:46:04Z</time>
      </trkpt>
      <trkpt lat="43.43613" lon="6.004">
        <ele>318.60000610352</ele>
        <time>2016-02-24T14:46:05Z</time>
      </trkpt>
      <trkpt lat="43.43613" lon="6.00402">
        <ele>318.79998779297</ele>
        <time>2016-02-24T14:46:06Z</time>
      </trkpt>
      <trkpt lat="43.43615" lon="6.00406">
        <ele>319</ele>
        <time>2016-02-24T14:46:08Z</time>
      </trkpt>
      <trkpt lat="43.43616" lon="6.0041">
        <ele>319.79998779297</ele>
        <time>2016-02-24T14:46:10Z</time>
      </trkpt>
      <trkpt lat="43.43617" lon="6.00412">
        <ele>319.79998779297</ele>
        <time>2016-02-24T14:46:11Z</time>
      </trkpt>
      <trkpt lat="43.43618" lon="6.00414">
        <ele>319.79998779297</ele>
        <time>2016-02-24T14:46:12Z</time>
      </trkpt>
      <trkpt lat="43.43619" lon="6.00418">
        <ele>319.79998779297</ele>
        <time>2016-02-24T14:46:14Z</time>
      </trkpt>
      <trkpt lat="43.4362" lon="6.00419">
        <ele>320</ele>
        <time>2016-02-24T14:46:15Z</time>
      </trkpt>
      <trkpt lat="43.43621" lon="6.00421">
        <ele>320.20001220703</ele>
        <time>2016-02-24T14:46:16Z</time>
      </trkpt>
      <trkpt lat="43.43621" lon="6.00423">
        <ele>320.39999389648</ele>
        <time>2016-02-24T14:46:17Z</time>
      </trkpt>
      <trkpt lat="43.43622" lon="6.00425">
        <ele>320.39999389648</ele>
        <time>2016-02-24T14:46:18Z</time>
      </trkpt>
      <trkpt lat="43.43622" lon="6.00427">
        <ele>320.39999389648</ele>
        <time>2016-02-24T14:46:19Z</time>
      </trkpt>
      <trkpt lat="43.43623" lon="6.0043">
        <ele>320.60000610352</ele>
        <time>2016-02-24T14:46:20Z</time>
      </trkpt>
      <trkpt lat="43.43623" lon="6.00434">
        <ele>320.79998779297</ele>
        <time>2016-02-24T14:46:22Z</time>
      </trkpt>
      <trkpt lat="43.43622" lon="6.00437">
        <ele>321</ele>
        <time>2016-02-24T14:46:23Z</time>
      </trkpt>
      <trkpt lat="43.43622" lon="6.00439">
        <ele>321.20001220703</ele>
        <time>2016-02-24T14:46:24Z</time>
      </trkpt>
      <trkpt lat="43.43621" lon="6.00443">
        <ele>321.20001220703</ele>
        <time>2016-02-24T14:46:26Z</time>
      </trkpt>
      <trkpt lat="43.43621" lon="6.00448">
        <ele>321.20001220703</ele>
        <time>2016-02-24T14:46:28Z</time>
      </trkpt>
      <trkpt lat="43.43621" lon="6.00451">
        <ele>321.39999389648</ele>
        <time>2016-02-24T14:46:30Z</time>
      </trkpt>
      <trkpt lat="43.43621" lon="6.00455">
        <ele>321.39999389648</ele>
        <time>2016-02-24T14:46:32Z</time>
      </trkpt>
      <trkpt lat="43.43621" lon="6.00457">
        <ele>321.60000610352</ele>
        <time>2016-02-24T14:46:33Z</time>
      </trkpt>
      <trkpt lat="43.43621" lon="6.00459">
        <ele>321.79998779297</ele>
        <time>2016-02-24T14:46:34Z</time>
      </trkpt>
      <trkpt lat="43.43621" lon="6.00462">
        <ele>322</ele>
        <time>2016-02-24T14:46:35Z</time>
      </trkpt>
      <trkpt lat="43.43621" lon="6.00464">
        <ele>322.20001220703</ele>
        <time>2016-02-24T14:46:36Z</time>
      </trkpt>
      <trkpt lat="43.43621" lon="6.00467">
        <ele>322</ele>
        <time>2016-02-24T14:46:38Z</time>
      </trkpt>
      <trkpt lat="43.43621" lon="6.00472">
        <ele>322</ele>
        <time>2016-02-24T14:46:40Z</time>
      </trkpt>
      <trkpt lat="43.4362" lon="6.00477">
        <ele>322.20001220703</ele>
        <time>2016-02-24T14:46:42Z</time>
      </trkpt>
      <trkpt lat="43.4362" lon="6.0048">
        <ele>322.39999389648</ele>
        <time>2016-02-24T14:46:43Z</time>
      </trkpt>
      <trkpt lat="43.4362" lon="6.00482">
        <ele>322.60000610352</ele>
        <time>2016-02-24T14:46:44Z</time>
      </trkpt>
      <trkpt lat="43.4362" lon="6.00486">
        <ele>322.60000610352</ele>
        <time>2016-02-24T14:46:46Z</time>
      </trkpt>
      <trkpt lat="43.43619" lon="6.0049">
        <ele>322.79998779297</ele>
        <time>2016-02-24T14:46:48Z</time>
      </trkpt>
      <trkpt lat="43.43618" lon="6.00494">
        <ele>323</ele>
        <time>2016-02-24T14:46:50Z</time>
      </trkpt>
      <trkpt lat="43.43618" lon="6.00495">
        <ele>323.20001220703</ele>
        <time>2016-02-24T14:46:51Z</time>
      </trkpt>
      <trkpt lat="43.43617" lon="6.00497">
        <ele>323.20001220703</ele>
        <time>2016-02-24T14:46:52Z</time>
      </trkpt>
      <trkpt lat="43.43616" lon="6.00501">
        <ele>323.39999389648</ele>
        <time>2016-02-24T14:46:54Z</time>
      </trkpt>
      <trkpt lat="43.43615" lon="6.00506">
        <ele>323.79998779297</ele>
        <time>2016-02-24T14:46:56Z</time>
      </trkpt>
      <trkpt lat="43.43613" lon="6.0051">
        <ele>323.79998779297</ele>
        <time>2016-02-24T14:46:58Z</time>
      </trkpt>
      <trkpt lat="43.43612" lon="6.00515">
        <ele>324</ele>
        <time>2016-02-24T14:47:00Z</time>
      </trkpt>
      <trkpt lat="43.4361" lon="6.00519">
        <ele>324.20001220703</ele>
        <time>2016-02-24T14:47:02Z</time>
      </trkpt>
      <trkpt lat="43.43608" lon="6.00523">
        <ele>324.39999389648</ele>
        <time>2016-02-24T14:47:04Z</time>
      </trkpt>
      <trkpt lat="43.43607" lon="6.00527">
        <ele>324.60000610352</ele>
        <time>2016-02-24T14:47:06Z</time>
      </trkpt>
      <trkpt lat="43.43605" lon="6.00531">
        <ele>325</ele>
        <time>2016-02-24T14:47:08Z</time>
      </trkpt>
      <trkpt lat="43.43602" lon="6.00534">
        <ele>325.20001220703</ele>
        <time>2016-02-24T14:47:10Z</time>
      </trkpt>
      <trkpt lat="43.436" lon="6.00538">
        <ele>325.20001220703</ele>
        <time>2016-02-24T14:47:12Z</time>
      </trkpt>
      <trkpt lat="43.43597" lon="6.00541">
        <ele>325.39999389648</ele>
        <time>2016-02-24T14:47:14Z</time>
      </trkpt>
      <trkpt lat="43.43595" lon="6.00543">
        <ele>325.79998779297</ele>
        <time>2016-02-24T14:47:16Z</time>
      </trkpt>
      <trkpt lat="43.43592" lon="6.00547">
        <ele>326.39999389648</ele>
        <time>2016-02-24T14:47:18Z</time>
      </trkpt>
      <trkpt lat="43.43589" lon="6.00549">
        <ele>326.39999389648</ele>
        <time>2016-02-24T14:47:20Z</time>
      </trkpt>
      <trkpt lat="43.43588" lon="6.00551">
        <ele>326.60000610352</ele>
        <time>2016-02-24T14:47:21Z</time>
      </trkpt>
      <trkpt lat="43.43587" lon="6.00553">
        <ele>326.79998779297</ele>
        <time>2016-02-24T14:47:22Z</time>
      </trkpt>
      <trkpt lat="43.43586" lon="6.00554">
        <ele>326.79998779297</ele>
        <time>2016-02-24T14:47:23Z</time>
      </trkpt>
      <trkpt lat="43.43585" lon="6.00556">
        <ele>326.79998779297</ele>
        <time>2016-02-24T14:47:24Z</time>
      </trkpt>
      <trkpt lat="43.43582" lon="6.00559">
        <ele>327</ele>
        <time>2016-02-24T14:47:26Z</time>
      </trkpt>
      <trkpt lat="43.43581" lon="6.00561">
        <ele>327.20001220703</ele>
        <time>2016-02-24T14:47:27Z</time>
      </trkpt>
      <trkpt lat="43.43581" lon="6.00563">
        <ele>327.20001220703</ele>
        <time>2016-02-24T14:47:28Z</time>
      </trkpt>
      <trkpt lat="43.4358" lon="6.00565">
        <ele>327.39999389648</ele>
        <time>2016-02-24T14:47:29Z</time>
      </trkpt>
      <trkpt lat="43.43579" lon="6.00567">
        <ele>327.39999389648</ele>
        <time>2016-02-24T14:47:30Z</time>
      </trkpt>
      <trkpt lat="43.43578" lon="6.0057">
        <ele>327.60000610352</ele>
        <time>2016-02-24T14:47:31Z</time>
      </trkpt>
      <trkpt lat="43.43577" lon="6.00572">
        <ele>328</ele>
        <time>2016-02-24T14:47:32Z</time>
      </trkpt>
      <trkpt lat="43.43575" lon="6.00576">
        <ele>328.20001220703</ele>
        <time>2016-02-24T14:47:34Z</time>
      </trkpt>
      <trkpt lat="43.43573" lon="6.0058">
        <ele>328.39999389648</ele>
        <time>2016-02-24T14:47:36Z</time>
      </trkpt>
      <trkpt lat="43.43571" lon="6.00584">
        <ele>328.60000610352</ele>
        <time>2016-02-24T14:47:38Z</time>
      </trkpt>
      <trkpt lat="43.43568" lon="6.00587">
        <ele>328.60000610352</ele>
        <time>2016-02-24T14:47:40Z</time>
      </trkpt>
      <trkpt lat="43.43567" lon="6.00591">
        <ele>329.39999389648</ele>
        <time>2016-02-24T14:47:42Z</time>
      </trkpt>
      <trkpt lat="43.43564" lon="6.00593">
        <ele>329.60000610352</ele>
        <time>2016-02-24T14:47:44Z</time>
      </trkpt>
      <trkpt lat="43.43563" lon="6.00594">
        <ele>329.79998779297</ele>
        <time>2016-02-24T14:47:45Z</time>
      </trkpt>
      <trkpt lat="43.43562" lon="6.00595">
        <ele>329.79998779297</ele>
        <time>2016-02-24T14:47:46Z</time>
      </trkpt>
      <trkpt lat="43.4356" lon="6.00599">
        <ele>329.79998779297</ele>
        <time>2016-02-24T14:47:48Z</time>
      </trkpt>
      <trkpt lat="43.43559" lon="6.00604">
        <ele>330</ele>
        <time>2016-02-24T14:47:50Z</time>
      </trkpt>
      <trkpt lat="43.43558" lon="6.00608">
        <ele>330.20001220703</ele>
        <time>2016-02-24T14:47:52Z</time>
      </trkpt>
      <trkpt lat="43.43557" lon="6.00612">
        <ele>330.60000610352</ele>
        <time>2016-02-24T14:47:54Z</time>
      </trkpt>
      <trkpt lat="43.43557" lon="6.00615">
        <ele>330.79998779297</ele>
        <time>2016-02-24T14:47:56Z</time>
      </trkpt>
      <trkpt lat="43.43557" lon="6.00619">
        <ele>330.79998779297</ele>
        <time>2016-02-24T14:47:58Z</time>
      </trkpt>
      <trkpt lat="43.43557" lon="6.00621">
        <ele>330.79998779297</ele>
        <time>2016-02-24T14:47:59Z</time>
      </trkpt>
      <trkpt lat="43.43556" lon="6.00623">
        <ele>331</ele>
        <time>2016-02-24T14:48:00Z</time>
      </trkpt>
      <trkpt lat="43.43555" lon="6.00627">
        <ele>331.60000610352</ele>
        <time>2016-02-24T14:48:02Z</time>
      </trkpt>
      <trkpt lat="43.43555" lon="6.00632">
        <ele>331.60000610352</ele>
        <time>2016-02-24T14:48:04Z</time>
      </trkpt>
      <trkpt lat="43.43555" lon="6.00634">
        <ele>331.60000610352</ele>
        <time>2016-02-24T14:48:05Z</time>
      </trkpt>
      <trkpt lat="43.43556" lon="6.00635">
        <ele>331.79998779297</ele>
        <time>2016-02-24T14:48:06Z</time>
      </trkpt>
      <trkpt lat="43.43557" lon="6.00637">
        <ele>332</ele>
        <time>2016-02-24T14:48:07Z</time>
      </trkpt>
      <trkpt lat="43.43558" lon="6.00638">
        <ele>332</ele>
        <time>2016-02-24T14:48:08Z</time>
      </trkpt>
      <trkpt lat="43.43561" lon="6.0064">
        <ele>332.60000610352</ele>
        <time>2016-02-24T14:48:10Z</time>
      </trkpt>
      <trkpt lat="43.43563" lon="6.00643">
        <ele>332.60000610352</ele>
        <time>2016-02-24T14:48:12Z</time>
      </trkpt>
      <trkpt lat="43.43565" lon="6.00647">
        <ele>332.79998779297</ele>
        <time>2016-02-24T14:48:14Z</time>
      </trkpt>
      <trkpt lat="43.43568" lon="6.00649">
        <ele>333.20001220703</ele>
        <time>2016-02-24T14:48:16Z</time>
      </trkpt>
      <trkpt lat="43.43569" lon="6.00652">
        <ele>333.79998779297</ele>
        <time>2016-02-24T14:48:18Z</time>
      </trkpt>
      <trkpt lat="43.4357" lon="6.00655">
        <ele>334.20001220703</ele>
        <time>2016-02-24T14:48:20Z</time>
      </trkpt>
      <trkpt lat="43.43572" lon="6.00658">
        <ele>334.60000610352</ele>
        <time>2016-02-24T14:48:22Z</time>
      </trkpt>
      <trkpt lat="43.43574" lon="6.0066">
        <ele>335</ele>
        <time>2016-02-24T14:48:24Z</time>
      </trkpt>
      <trkpt lat="43.43575" lon="6.00664">
        <ele>335.39999389648</ele>
        <time>2016-02-24T14:48:26Z</time>
      </trkpt>
      <trkpt lat="43.43576" lon="6.00668">
        <ele>335.79998779297</ele>
        <time>2016-02-24T14:48:28Z</time>
      </trkpt>
      <trkpt lat="43.43577" lon="6.00672">
        <ele>336.20001220703</ele>
        <time>2016-02-24T14:48:30Z</time>
      </trkpt>
      <trkpt lat="43.43578" lon="6.00674">
        <ele>336.39999389648</ele>
        <time>2016-02-24T14:48:31Z</time>
      </trkpt>
      <trkpt lat="43.43578" lon="6.00676">
        <ele>336.39999389648</ele>
        <time>2016-02-24T14:48:32Z</time>
      </trkpt>
      <trkpt lat="43.43578" lon="6.00678">
        <ele>336.39999389648</ele>
        <time>2016-02-24T14:48:33Z</time>
      </trkpt>
      <trkpt lat="43.43578" lon="6.0068">
        <ele>336.39999389648</ele>
        <time>2016-02-24T14:48:34Z</time>
      </trkpt>
      <trkpt lat="43.43577" lon="6.00684">
        <ele>336.60000610352</ele>
        <time>2016-02-24T14:48:36Z</time>
      </trkpt>
      <trkpt lat="43.43576" lon="6.00688">
        <ele>337</ele>
        <time>2016-02-24T14:48:38Z</time>
      </trkpt>
      <trkpt lat="43.43575" lon="6.00691">
        <ele>337</ele>
        <time>2016-02-24T14:48:40Z</time>
      </trkpt>
      <trkpt lat="43.43574" lon="6.00695">
        <ele>337.39999389648</ele>
        <time>2016-02-24T14:48:42Z</time>
      </trkpt>
      <trkpt lat="43.43572" lon="6.00699">
        <ele>337.79998779297</ele>
        <time>2016-02-24T14:48:44Z</time>
      </trkpt>
      <trkpt lat="43.43571" lon="6.00704">
        <ele>338</ele>
        <time>2016-02-24T14:48:46Z</time>
      </trkpt>
      <trkpt lat="43.43569" lon="6.00706">
        <ele>338.20001220703</ele>
        <time>2016-02-24T14:48:47Z</time>
      </trkpt>
      <trkpt lat="43.43568" lon="6.00708">
        <ele>338.60000610352</ele>
        <time>2016-02-24T14:48:48Z</time>
      </trkpt>
      <trkpt lat="43.43567" lon="6.00711">
        <ele>338.79998779297</ele>
        <time>2016-02-24T14:48:49Z</time>
      </trkpt>
      <trkpt lat="43.43567" lon="6.00713">
        <ele>339</ele>
        <time>2016-02-24T14:48:50Z</time>
      </trkpt>
      <trkpt lat="43.43565" lon="6.00715">
        <ele>339.39999389648</ele>
        <time>2016-02-24T14:48:51Z</time>
      </trkpt>
      <trkpt lat="43.43564" lon="6.00717">
        <ele>340</ele>
        <time>2016-02-24T14:48:52Z</time>
      </trkpt>
      <trkpt lat="43.43563" lon="6.00719">
        <ele>340.60000610352</ele>
        <time>2016-02-24T14:48:53Z</time>
      </trkpt>
      <trkpt lat="43.43563" lon="6.00721">
        <ele>340.60000610352</ele>
        <time>2016-02-24T14:48:54Z</time>
      </trkpt>
      <trkpt lat="43.43561" lon="6.00725">
        <ele>340.79998779297</ele>
        <time>2016-02-24T14:48:56Z</time>
      </trkpt>
      <trkpt lat="43.43559" lon="6.00729">
        <ele>341</ele>
        <time>2016-02-24T14:48:58Z</time>
      </trkpt>
      <trkpt lat="43.43558" lon="6.00732">
        <ele>341.79998779297</ele>
        <time>2016-02-24T14:49:00Z</time>
      </trkpt>
      <trkpt lat="43.43557" lon="6.00736">
        <ele>342.20001220703</ele>
        <time>2016-02-24T14:49:02Z</time>
      </trkpt>
      <trkpt lat="43.43555" lon="6.0074">
        <ele>342.60000610352</ele>
        <time>2016-02-24T14:49:04Z</time>
      </trkpt>
      <trkpt lat="43.43553" lon="6.00744">
        <ele>343</ele>
        <time>2016-02-24T14:49:06Z</time>
      </trkpt>
      <trkpt lat="43.43552" lon="6.00748">
        <ele>343.60000610352</ele>
        <time>2016-02-24T14:49:08Z</time>
      </trkpt>
      <trkpt lat="43.4355" lon="6.00753">
        <ele>343.79998779297</ele>
        <time>2016-02-24T14:49:10Z</time>
      </trkpt>
      <trkpt lat="43.43549" lon="6.00755">
        <ele>344</ele>
        <time>2016-02-24T14:49:11Z</time>
      </trkpt>
      <trkpt lat="43.43548" lon="6.00758">
        <ele>344</ele>
        <time>2016-02-24T14:49:12Z</time>
      </trkpt>
      <trkpt lat="43.43547" lon="6.00763">
        <ele>343.79998779297</ele>
        <time>2016-02-24T14:49:14Z</time>
      </trkpt>
      <trkpt lat="43.43545" lon="6.00768">
        <ele>344.20001220703</ele>
        <time>2016-02-24T14:49:16Z</time>
      </trkpt>
      <trkpt lat="43.43544" lon="6.00775">
        <ele>344.60000610352</ele>
        <time>2016-02-24T14:49:18Z</time>
      </trkpt>
      <trkpt lat="43.43544" lon="6.00778">
        <ele>345</ele>
        <time>2016-02-24T14:49:19Z</time>
      </trkpt>
      <trkpt lat="43.43543" lon="6.00781">
        <ele>345</ele>
        <time>2016-02-24T14:49:20Z</time>
      </trkpt>
      <trkpt lat="43.43541" lon="6.00787">
        <ele>345</ele>
        <time>2016-02-24T14:49:22Z</time>
      </trkpt>
      <trkpt lat="43.4354" lon="6.00793">
        <ele>345</ele>
        <time>2016-02-24T14:49:24Z</time>
      </trkpt>
      <trkpt lat="43.43538" lon="6.008">
        <ele>344.60000610352</ele>
        <time>2016-02-24T14:49:26Z</time>
      </trkpt>
      <trkpt lat="43.43536" lon="6.00806">
        <ele>344.60000610352</ele>
        <time>2016-02-24T14:49:28Z</time>
      </trkpt>
      <trkpt lat="43.43535" lon="6.0081">
        <ele>345.20001220703</ele>
        <time>2016-02-24T14:49:30Z</time>
      </trkpt>
      <trkpt lat="43.43534" lon="6.00813">
        <ele>345.39999389648</ele>
        <time>2016-02-24T14:49:32Z</time>
      </trkpt>
      <trkpt lat="43.43533" lon="6.00815">
        <ele>345</ele>
        <time>2016-02-24T14:49:34Z</time>
      </trkpt>
      <trkpt lat="43.43532" lon="6.00817">
        <ele>345.20001220703</ele>
        <time>2016-02-24T14:49:36Z</time>
      </trkpt>
      <trkpt lat="43.43531" lon="6.00819">
        <ele>345.39999389648</ele>
        <time>2016-02-24T14:49:38Z</time>
      </trkpt>
      <trkpt lat="43.43531" lon="6.0082">
        <ele>345.39999389648</ele>
        <time>2016-02-24T14:49:39Z</time>
      </trkpt>
      <trkpt lat="43.4353" lon="6.0082">
        <ele>345.20001220703</ele>
        <time>2016-02-24T14:49:40Z</time>
      </trkpt>
      <trkpt lat="43.43531" lon="6.0082">
        <ele>345.20001220703</ele>
        <time>2016-02-24T14:49:42Z</time>
      </trkpt>
      <trkpt lat="43.43531" lon="6.0082">
        <ele>345.20001220703</ele>
        <time>2016-02-24T14:49:44Z</time>
      </trkpt>
      <trkpt lat="43.43531" lon="6.0082">
        <ele>345.20001220703</ele>
        <time>2016-02-24T14:49:46Z</time>
      </trkpt>
      <trkpt lat="43.43531" lon="6.0082">
        <ele>345.20001220703</ele>
        <time>2016-02-24T14:49:47Z</time>
      </trkpt>
      <trkpt lat="43.43531" lon="6.0082">
        <ele>345.20001220703</ele>
        <time>2016-02-24T14:49:48Z</time>
      </trkpt>
      <trkpt lat="43.43531" lon="6.0082">
        <ele>345.20001220703</ele>
        <time>2016-02-24T14:49:50Z</time>
      </trkpt>
      <trkpt lat="43.43531" lon="6.0082">
        <ele>345.20001220703</ele>
        <time>2016-02-24T14:49:52Z</time>
      </trkpt>
      <trkpt lat="43.43531" lon="6.0082">
        <ele>345.39999389648</ele>
        <time>2016-02-24T14:49:54Z</time>
      </trkpt>
      <trkpt lat="43.43531" lon="6.0082">
        <ele>345.20001220703</ele>
        <time>2016-02-24T14:49:56Z</time>
      </trkpt>
      <trkpt lat="43.43531" lon="6.0082">
        <ele>345.20001220703</ele>
        <time>2016-02-24T14:49:58Z</time>
      </trkpt>
      <trkpt lat="43.43531" lon="6.0082">
        <ele>345</ele>
        <time>2016-02-24T14:50:00Z</time>
      </trkpt>
      <trkpt lat="43.43531" lon="6.0082">
        <ele>345.39999389648</ele>
        <time>2016-02-24T14:50:02Z</time>
      </trkpt>
      <trkpt lat="43.43531" lon="6.0082">
        <ele>345</ele>
        <time>2016-02-24T14:50:04Z</time>
      </trkpt>
      <trkpt lat="43.43531" lon="6.0082">
        <ele>345</ele>
        <time>2016-02-24T14:50:06Z</time>
      </trkpt>
      <trkpt lat="43.43531" lon="6.0082">
        <ele>345</ele>
        <time>2016-02-24T14:50:07Z</time>
      </trkpt>
      <trkpt lat="43.43531" lon="6.0082">
        <ele>345.20001220703</ele>
        <time>2016-02-24T14:50:08Z</time>
      </trkpt>
      <trkpt lat="43.43531" lon="6.0082">
        <ele>345.20001220703</ele>
        <time>2016-02-24T14:50:10Z</time>
      </trkpt>
      <trkpt lat="43.43531" lon="6.0082">
        <ele>345</ele>
        <time>2016-02-24T14:50:12Z</time>
      </trkpt>
      <trkpt lat="43.43531" lon="6.0082">
        <ele>344.79998779297</ele>
        <time>2016-02-24T14:50:14Z</time>
      </trkpt>
      <trkpt lat="43.43531" lon="6.0082">
        <ele>344.79998779297</ele>
        <time>2016-02-24T14:50:16Z</time>
      </trkpt>
      <trkpt lat="43.43531" lon="6.0082">
        <ele>345.39999389648</ele>
        <time>2016-02-24T14:50:18Z</time>
      </trkpt>
      <trkpt lat="43.43531" lon="6.0082">
        <ele>345.39999389648</ele>
        <time>2016-02-24T14:50:20Z</time>
      </trkpt>
      <trkpt lat="43.43531" lon="6.0082">
        <ele>344.79998779297</ele>
        <time>2016-02-24T14:50:22Z</time>
      </trkpt>
      <trkpt lat="43.43531" lon="6.0082">
        <ele>345</ele>
        <time>2016-02-24T14:50:24Z</time>
      </trkpt>
      <trkpt lat="43.43531" lon="6.0082">
        <ele>345.20001220703</ele>
        <time>2016-02-24T14:50:26Z</time>
      </trkpt>
      <trkpt lat="43.43531" lon="6.0082">
        <ele>345.20001220703</ele>
        <time>2016-02-24T14:50:28Z</time>
      </trkpt>
      <trkpt lat="43.43531" lon="6.0082">
        <ele>345.20001220703</ele>
        <time>2016-02-24T14:50:30Z</time>
      </trkpt>
      <trkpt lat="43.43531" lon="6.0082">
        <ele>345.20001220703</ele>
        <time>2016-02-24T14:50:32Z</time>
      </trkpt>
      <trkpt lat="43.43531" lon="6.0082">
        <ele>345.20001220703</ele>
        <time>2016-02-24T14:50:34Z</time>
      </trkpt>
      <trkpt lat="43.43531" lon="6.0082">
        <ele>345.20001220703</ele>
        <time>2016-02-24T14:50:36Z</time>
      </trkpt>
      <trkpt lat="43.43531" lon="6.0082">
        <ele>345.39999389648</ele>
        <time>2016-02-24T14:50:38Z</time>
      </trkpt>
      <trkpt lat="43.43531" lon="6.0082">
        <ele>345.39999389648</ele>
        <time>2016-02-24T14:50:40Z</time>
      </trkpt>
      <trkpt lat="43.43531" lon="6.0082">
        <ele>345.39999389648</ele>
        <time>2016-02-24T14:50:42Z</time>
      </trkpt>
      <trkpt lat="43.43531" lon="6.0082">
        <ele>345.39999389648</ele>
        <time>2016-02-24T14:50:44Z</time>
      </trkpt>
      <trkpt lat="43.43531" lon="6.0082">
        <ele>345.39999389648</ele>
        <time>2016-02-24T14:50:46Z</time>
      </trkpt>
      <trkpt lat="43.43531" lon="6.0082">
        <ele>345.20001220703</ele>
        <time>2016-02-24T14:50:48Z</time>
      </trkpt>
      <trkpt lat="43.43531" lon="6.0082">
        <ele>345.20001220703</ele>
        <time>2016-02-24T14:50:50Z</time>
      </trkpt>
      <trkpt lat="43.43531" lon="6.0082">
        <ele>345.20001220703</ele>
        <time>2016-02-24T14:50:52Z</time>
      </trkpt>
      <trkpt lat="43.43531" lon="6.0082">
        <ele>345.20001220703</ele>
        <time>2016-02-24T14:50:53Z</time>
      </trkpt>
      <trkpt lat="43.43531" lon="6.0082">
        <ele>345.20001220703</ele>
        <time>2016-02-24T14:50:54Z</time>
      </trkpt>
      <trkpt lat="43.43531" lon="6.0082">
        <ele>345.39999389648</ele>
        <time>2016-02-24T14:50:56Z</time>
      </trkpt>
      <trkpt lat="43.43531" lon="6.0082">
        <ele>345.39999389648</ele>
        <time>2016-02-24T14:50:58Z</time>
      </trkpt>
      <trkpt lat="43.43531" lon="6.0082">
        <ele>345.20001220703</ele>
        <time>2016-02-24T14:51:00Z</time>
      </trkpt>
      <trkpt lat="43.43531" lon="6.0082">
        <ele>345.20001220703</ele>
        <time>2016-02-24T14:51:02Z</time>
      </trkpt>
      <trkpt lat="43.43531" lon="6.0082">
        <ele>345.20001220703</ele>
        <time>2016-02-24T14:51:04Z</time>
      </trkpt>
      <trkpt lat="43.43531" lon="6.0082">
        <ele>345.20001220703</ele>
        <time>2016-02-24T14:51:06Z</time>
      </trkpt>
      <trkpt lat="43.43531" lon="6.00821">
        <ele>345.20001220703</ele>
        <time>2016-02-24T14:51:08Z</time>
      </trkpt>
      <trkpt lat="43.43531" lon="6.00821">
        <ele>345.20001220703</ele>
        <time>2016-02-24T14:51:10Z</time>
      </trkpt>
      <trkpt lat="43.43531" lon="6.00821">
        <ele>345.39999389648</ele>
        <time>2016-02-24T14:51:12Z</time>
      </trkpt>
      <trkpt lat="43.43531" lon="6.00821">
        <ele>345.39999389648</ele>
        <time>2016-02-24T14:51:14Z</time>
      </trkpt>
      <trkpt lat="43.43531" lon="6.00821">
        <ele>345.20001220703</ele>
        <time>2016-02-24T14:51:16Z</time>
      </trkpt>
      <trkpt lat="43.43531" lon="6.00821">
        <ele>345.39999389648</ele>
        <time>2016-02-24T14:51:18Z</time>
      </trkpt>
      <trkpt lat="43.43531" lon="6.00821">
        <ele>345.20001220703</ele>
        <time>2016-02-24T14:51:20Z</time>
      </trkpt>
      <trkpt lat="43.43531" lon="6.00821">
        <ele>345.39999389648</ele>
        <time>2016-02-24T14:51:22Z</time>
      </trkpt>
      <trkpt lat="43.43531" lon="6.00821">
        <ele>345.39999389648</ele>
        <time>2016-02-24T14:51:24Z</time>
      </trkpt>
      <trkpt lat="43.43531" lon="6.00821">
        <ele>345.39999389648</ele>
        <time>2016-02-24T14:51:26Z</time>
      </trkpt>
      <trkpt lat="43.43531" lon="6.00821">
        <ele>345.20001220703</ele>
        <time>2016-02-24T14:51:28Z</time>
      </trkpt>
      <trkpt lat="43.43531" lon="6.00821">
        <ele>345.20001220703</ele>
        <time>2016-02-24T14:51:30Z</time>
      </trkpt>
      <trkpt lat="43.43531" lon="6.00821">
        <ele>345.20001220703</ele>
        <time>2016-02-24T14:51:32Z</time>
      </trkpt>
      <trkpt lat="43.43531" lon="6.00821">
        <ele>345.39999389648</ele>
        <time>2016-02-24T14:51:34Z</time>
      </trkpt>
      <trkpt lat="43.43531" lon="6.00821">
        <ele>345.20001220703</ele>
        <time>2016-02-24T14:51:36Z</time>
      </trkpt>
      <trkpt lat="43.43531" lon="6.00821">
        <ele>345.20001220703</ele>
        <time>2016-02-24T14:51:38Z</time>
      </trkpt>
      <trkpt lat="43.43531" lon="6.0082">
        <ele>345.39999389648</ele>
        <time>2016-02-24T14:51:40Z</time>
      </trkpt>
      <trkpt lat="43.43531" lon="6.0082">
        <ele>345.20001220703</ele>
        <time>2016-02-24T14:51:42Z</time>
      </trkpt>
      <trkpt lat="43.43531" lon="6.0082">
        <ele>345.39999389648</ele>
        <time>2016-02-24T14:51:44Z</time>
      </trkpt>
      <trkpt lat="43.43531" lon="6.0082">
        <ele>345.39999389648</ele>
        <time>2016-02-24T14:51:46Z</time>
      </trkpt>
      <trkpt lat="43.43531" lon="6.0082">
        <ele>345.39999389648</ele>
        <time>2016-02-24T14:51:48Z</time>
      </trkpt>
      <trkpt lat="43.43531" lon="6.0082">
        <ele>345.39999389648</ele>
        <time>2016-02-24T14:51:50Z</time>
      </trkpt>
      <trkpt lat="43.43531" lon="6.0082">
        <ele>345.39999389648</ele>
        <time>2016-02-24T14:51:51Z</time>
      </trkpt>
      <trkpt lat="43.43531" lon="6.0082">
        <ele>345.39999389648</ele>
        <time>2016-02-24T14:51:52Z</time>
      </trkpt>
      <trkpt lat="43.43531" lon="6.0082">
        <ele>345.39999389648</ele>
        <time>2016-02-24T14:51:54Z</time>
      </trkpt>
      <trkpt lat="43.43531" lon="6.0082">
        <ele>345.20001220703</ele>
        <time>2016-02-24T14:51:56Z</time>
      </trkpt>
      <trkpt lat="43.43531" lon="6.0082">
        <ele>345.39999389648</ele>
        <time>2016-02-24T14:51:58Z</time>
      </trkpt>
      <trkpt lat="43.43531" lon="6.00821">
        <ele>345.20001220703</ele>
        <time>2016-02-24T14:52:00Z</time>
      </trkpt>
      <trkpt lat="43.43531" lon="6.00821">
        <ele>345.20001220703</ele>
        <time>2016-02-24T14:52:02Z</time>
      </trkpt>
      <trkpt lat="43.43531" lon="6.00821">
        <ele>345.39999389648</ele>
        <time>2016-02-24T14:52:04Z</time>
      </trkpt>
      <trkpt lat="43.43531" lon="6.00821">
        <ele>345.39999389648</ele>
        <time>2016-02-24T14:52:06Z</time>
      </trkpt>
      <trkpt lat="43.43531" lon="6.00821">
        <ele>345.39999389648</ele>
        <time>2016-02-24T14:52:08Z</time>
      </trkpt>
      <trkpt lat="43.43531" lon="6.00821">
        <ele>345.79998779297</ele>
        <time>2016-02-24T14:52:10Z</time>
      </trkpt>
      <trkpt lat="43.43531" lon="6.00821">
        <ele>345.39999389648</ele>
        <time>2016-02-24T14:52:12Z</time>
      </trkpt>
      <trkpt lat="43.43531" lon="6.00821">
        <ele>345.20001220703</ele>
        <time>2016-02-24T14:52:14Z</time>
      </trkpt>
      <trkpt lat="43.43531" lon="6.00821">
        <ele>345.20001220703</ele>
        <time>2016-02-24T14:52:16Z</time>
      </trkpt>
      <trkpt lat="43.43531" lon="6.00821">
        <ele>345.39999389648</ele>
        <time>2016-02-24T14:52:18Z</time>
      </trkpt>
      <trkpt lat="43.43531" lon="6.00821">
        <ele>345.39999389648</ele>
        <time>2016-02-24T14:52:20Z</time>
      </trkpt>
      <trkpt lat="43.43531" lon="6.00821">
        <ele>345.60000610352</ele>
        <time>2016-02-24T14:52:22Z</time>
      </trkpt>
      <trkpt lat="43.43531" lon="6.00821">
        <ele>345.60000610352</ele>
        <time>2016-02-24T14:52:24Z</time>
      </trkpt>
      <trkpt lat="43.43531" lon="6.00821">
        <ele>345.60000610352</ele>
        <time>2016-02-24T14:52:26Z</time>
      </trkpt>
      <trkpt lat="43.43531" lon="6.00821">
        <ele>345.60000610352</ele>
        <time>2016-02-24T14:52:28Z</time>
      </trkpt>
      <trkpt lat="43.43531" lon="6.00821">
        <ele>345.60000610352</ele>
        <time>2016-02-24T14:52:30Z</time>
      </trkpt>
      <trkpt lat="43.43531" lon="6.00821">
        <ele>345.79998779297</ele>
        <time>2016-02-24T14:52:32Z</time>
      </trkpt>
      <trkpt lat="43.43531" lon="6.00821">
        <ele>345.60000610352</ele>
        <time>2016-02-24T14:52:34Z</time>
      </trkpt>
      <trkpt lat="43.43531" lon="6.00821">
        <ele>345.79998779297</ele>
        <time>2016-02-24T14:52:36Z</time>
      </trkpt>
      <trkpt lat="43.43531" lon="6.00821">
        <ele>345.60000610352</ele>
        <time>2016-02-24T14:52:38Z</time>
      </trkpt>
      <trkpt lat="43.43531" lon="6.00821">
        <ele>345.39999389648</ele>
        <time>2016-02-24T14:52:40Z</time>
      </trkpt>
      <trkpt lat="43.43531" lon="6.00821">
        <ele>345.60000610352</ele>
        <time>2016-02-24T14:52:42Z</time>
      </trkpt>
      <trkpt lat="43.43531" lon="6.00821">
        <ele>345.60000610352</ele>
        <time>2016-02-24T14:52:44Z</time>
      </trkpt>
      <trkpt lat="43.43531" lon="6.00821">
        <ele>345.60000610352</ele>
        <time>2016-02-24T14:52:46Z</time>
      </trkpt>
      <trkpt lat="43.43531" lon="6.00821">
        <ele>345.60000610352</ele>
        <time>2016-02-24T14:52:48Z</time>
      </trkpt>
      <trkpt lat="43.43531" lon="6.00821">
        <ele>345.39999389648</ele>
        <time>2016-02-24T14:52:50Z</time>
      </trkpt>
      <trkpt lat="43.43531" lon="6.00821">
        <ele>345</ele>
        <time>2016-02-24T14:52:52Z</time>
      </trkpt>
      <trkpt lat="43.43531" lon="6.00821">
        <ele>345</ele>
        <time>2016-02-24T14:52:54Z</time>
      </trkpt>
      <trkpt lat="43.43531" lon="6.00821">
        <ele>345</ele>
        <time>2016-02-24T14:52:56Z</time>
      </trkpt>
      <trkpt lat="43.43531" lon="6.00821">
        <ele>345.39999389648</ele>
        <time>2016-02-24T14:52:58Z</time>
      </trkpt>
      <trkpt lat="43.43531" lon="6.00821">
        <ele>345.20001220703</ele>
        <time>2016-02-24T14:53:00Z</time>
      </trkpt>
      <trkpt lat="43.43531" lon="6.00821">
        <ele>345.39999389648</ele>
        <time>2016-02-24T14:53:02Z</time>
      </trkpt>
      <trkpt lat="43.43531" lon="6.00821">
        <ele>345.60000610352</ele>
        <time>2016-02-24T14:53:03Z</time>
      </trkpt>
      <trkpt lat="43.43531" lon="6.00821">
        <ele>345.39999389648</ele>
        <time>2016-02-24T14:53:04Z</time>
      </trkpt>
      <trkpt lat="43.43531" lon="6.00821">
        <ele>345.20001220703</ele>
        <time>2016-02-24T14:53:06Z</time>
      </trkpt>
      <trkpt lat="43.43531" lon="6.00821">
        <ele>345.20001220703</ele>
        <time>2016-02-24T14:53:08Z</time>
      </trkpt>
      <trkpt lat="43.43531" lon="6.00821">
        <ele>345.20001220703</ele>
        <time>2016-02-24T14:53:10Z</time>
      </trkpt>
      <trkpt lat="43.43531" lon="6.00821">
        <ele>345.20001220703</ele>
        <time>2016-02-24T14:53:12Z</time>
      </trkpt>
      <trkpt lat="43.43531" lon="6.00821">
        <ele>345.39999389648</ele>
        <time>2016-02-24T14:53:14Z</time>
      </trkpt>
      <trkpt lat="43.43531" lon="6.00821">
        <ele>345.39999389648</ele>
        <time>2016-02-24T14:53:16Z</time>
      </trkpt>
      <trkpt lat="43.43531" lon="6.00821">
        <ele>345.39999389648</ele>
        <time>2016-02-24T14:53:18Z</time>
      </trkpt>
      <trkpt lat="43.43531" lon="6.00821">
        <ele>345.39999389648</ele>
        <time>2016-02-24T14:53:20Z</time>
      </trkpt>
      <trkpt lat="43.43531" lon="6.00821">
        <ele>345.60000610352</ele>
        <time>2016-02-24T14:53:22Z</time>
      </trkpt>
      <trkpt lat="43.43531" lon="6.00821">
        <ele>345.60000610352</ele>
        <time>2016-02-24T14:53:24Z</time>
      </trkpt>
      <trkpt lat="43.43531" lon="6.00821">
        <ele>345.60000610352</ele>
        <time>2016-02-24T14:53:26Z</time>
      </trkpt>
      <trkpt lat="43.43531" lon="6.00821">
        <ele>345.39999389648</ele>
        <time>2016-02-24T14:53:28Z</time>
      </trkpt>
      <trkpt lat="43.4353" lon="6.00822">
        <ele>345.39999389648</ele>
        <time>2016-02-24T14:53:30Z</time>
      </trkpt>
      <trkpt lat="43.4353" lon="6.00823">
        <ele>345.39999389648</ele>
        <time>2016-02-24T14:53:31Z</time>
      </trkpt>
      <trkpt lat="43.4353" lon="6.00825">
        <ele>345.39999389648</ele>
        <time>2016-02-24T14:53:32Z</time>
      </trkpt>
      <trkpt lat="43.43529" lon="6.0083">
        <ele>345.20001220703</ele>
        <time>2016-02-24T14:53:34Z</time>
      </trkpt>
      <trkpt lat="43.43528" lon="6.00837">
        <ele>344.60000610352</ele>
        <time>2016-02-24T14:53:36Z</time>
      </trkpt>
      <trkpt lat="43.43526" lon="6.00841">
        <ele>344.60000610352</ele>
        <time>2016-02-24T14:53:37Z</time>
      </trkpt>
      <trkpt lat="43.43525" lon="6.00846">
        <ele>344.60000610352</ele>
        <time>2016-02-24T14:53:38Z</time>
      </trkpt>
      <trkpt lat="43.43523" lon="6.00857">
        <ele>344.79998779297</ele>
        <time>2016-02-24T14:53:40Z</time>
      </trkpt>
      <trkpt lat="43.4352" lon="6.00871">
        <ele>344.20001220703</ele>
        <time>2016-02-24T14:53:42Z</time>
      </trkpt>
      <trkpt lat="43.43518" lon="6.00878">
        <ele>343.39999389648</ele>
        <time>2016-02-24T14:53:43Z</time>
      </trkpt>
      <trkpt lat="43.43516" lon="6.00885">
        <ele>343.20001220703</ele>
        <time>2016-02-24T14:53:44Z</time>
      </trkpt>
      <trkpt lat="43.43513" lon="6.00899">
        <ele>342.20001220703</ele>
        <time>2016-02-24T14:53:46Z</time>
      </trkpt>
      <trkpt lat="43.43511" lon="6.0091">
        <ele>341.20001220703</ele>
        <time>2016-02-24T14:53:48Z</time>
      </trkpt>
      <trkpt lat="43.4351" lon="6.00916">
        <ele>340.60000610352</ele>
        <time>2016-02-24T14:53:49Z</time>
      </trkpt>
      <trkpt lat="43.43509" lon="6.00921">
        <ele>340</ele>
        <time>2016-02-24T14:53:50Z</time>
      </trkpt>
      <trkpt lat="43.43507" lon="6.00929">
        <ele>339</ele>
        <time>2016-02-24T14:53:52Z</time>
      </trkpt>
      <trkpt lat="43.43505" lon="6.00939">
        <ele>339</ele>
        <time>2016-02-24T14:53:54Z</time>
      </trkpt>
      <trkpt lat="43.43504" lon="6.00943">
        <ele>338.20001220703</ele>
        <time>2016-02-24T14:53:55Z</time>
      </trkpt>
      <trkpt lat="43.43504" lon="6.00946">
        <ele>337.60000610352</ele>
        <time>2016-02-24T14:53:56Z</time>
      </trkpt>
      <trkpt lat="43.43504" lon="6.00945">
        <ele>337.20001220703</ele>
        <time>2016-02-24T14:53:58Z</time>
      </trkpt>
      <trkpt lat="43.43503" lon="6.00946">
        <ele>337.20001220703</ele>
        <time>2016-02-24T14:53:59Z</time>
      </trkpt>
      <trkpt lat="43.43503" lon="6.00947">
        <ele>337.20001220703</ele>
        <time>2016-02-24T14:54:00Z</time>
      </trkpt>
      <trkpt lat="43.43503" lon="6.00947">
        <ele>336.39999389648</ele>
        <time>2016-02-24T14:54:02Z</time>
      </trkpt>
      <trkpt lat="43.43503" lon="6.00947">
        <ele>336.20001220703</ele>
        <time>2016-02-24T14:54:04Z</time>
      </trkpt>
      <trkpt lat="43.43503" lon="6.00947">
        <ele>336.20001220703</ele>
        <time>2016-02-24T14:54:05Z</time>
      </trkpt>
      <trkpt lat="43.43503" lon="6.00947">
        <ele>336.20001220703</ele>
        <time>2016-02-24T14:54:06Z</time>
      </trkpt>
      <trkpt lat="43.43503" lon="6.00947">
        <ele>336</ele>
        <time>2016-02-24T14:54:08Z</time>
      </trkpt>
      <trkpt lat="43.43503" lon="6.00947">
        <ele>336</ele>
        <time>2016-02-24T14:54:10Z</time>
      </trkpt>
      <trkpt lat="43.43503" lon="6.00947">
        <ele>336</ele>
        <time>2016-02-24T14:54:12Z</time>
      </trkpt>
      <trkpt lat="43.43503" lon="6.00947">
        <ele>336.20001220703</ele>
        <time>2016-02-24T14:54:14Z</time>
      </trkpt>
      <trkpt lat="43.43503" lon="6.00947">
        <ele>336.20001220703</ele>
        <time>2016-02-24T14:54:16Z</time>
      </trkpt>
      <trkpt lat="43.43503" lon="6.00947">
        <ele>336.20001220703</ele>
        <time>2016-02-24T14:54:18Z</time>
      </trkpt>
      <trkpt lat="43.43503" lon="6.00947">
        <ele>336.20001220703</ele>
        <time>2016-02-24T14:54:20Z</time>
      </trkpt>
      <trkpt lat="43.43503" lon="6.00947">
        <ele>336.20001220703</ele>
        <time>2016-02-24T14:54:22Z</time>
      </trkpt>
      <trkpt lat="43.43503" lon="6.00947">
        <ele>336.20001220703</ele>
        <time>2016-02-24T14:54:24Z</time>
      </trkpt>
      <trkpt lat="43.43503" lon="6.00947">
        <ele>336.20001220703</ele>
        <time>2016-02-24T14:54:26Z</time>
      </trkpt>
      <trkpt lat="43.43503" lon="6.00947">
        <ele>336.20001220703</ele>
        <time>2016-02-24T14:54:28Z</time>
      </trkpt>
      <trkpt lat="43.43503" lon="6.00947">
        <ele>336.20001220703</ele>
        <time>2016-02-24T14:54:30Z</time>
      </trkpt>
      <trkpt lat="43.43503" lon="6.00947">
        <ele>336.20001220703</ele>
        <time>2016-02-24T14:54:32Z</time>
      </trkpt>
      <trkpt lat="43.43503" lon="6.00947">
        <ele>336.20001220703</ele>
        <time>2016-02-24T14:54:34Z</time>
      </trkpt>
      <trkpt lat="43.43503" lon="6.00947">
        <ele>336.60000610352</ele>
        <time>2016-02-24T14:54:36Z</time>
      </trkpt>
      <trkpt lat="43.43503" lon="6.00947">
        <ele>336.60000610352</ele>
        <time>2016-02-24T14:54:38Z</time>
      </trkpt>
      <trkpt lat="43.43503" lon="6.00947">
        <ele>336.39999389648</ele>
        <time>2016-02-24T14:54:40Z</time>
      </trkpt>
      <trkpt lat="43.43503" lon="6.00947">
        <ele>336.20001220703</ele>
        <time>2016-02-24T14:54:42Z</time>
      </trkpt>
      <trkpt lat="43.43503" lon="6.00947">
        <ele>336.20001220703</ele>
        <time>2016-02-24T14:54:44Z</time>
      </trkpt>
      <trkpt lat="43.43503" lon="6.00947">
        <ele>336.20001220703</ele>
        <time>2016-02-24T14:54:46Z</time>
      </trkpt>
      <trkpt lat="43.43503" lon="6.00947">
        <ele>336.20001220703</ele>
        <time>2016-02-24T14:54:48Z</time>
      </trkpt>
      <trkpt lat="43.43503" lon="6.00947">
        <ele>336.20001220703</ele>
        <time>2016-02-24T14:54:50Z</time>
      </trkpt>
      <trkpt lat="43.43503" lon="6.00947">
        <ele>336.20001220703</ele>
        <time>2016-02-24T14:54:52Z</time>
      </trkpt>
      <trkpt lat="43.43503" lon="6.00947">
        <ele>336.20001220703</ele>
        <time>2016-02-24T14:54:54Z</time>
      </trkpt>
      <trkpt lat="43.43503" lon="6.00947">
        <ele>336.39999389648</ele>
        <time>2016-02-24T14:54:56Z</time>
      </trkpt>
      <trkpt lat="43.43503" lon="6.00947">
        <ele>336.39999389648</ele>
        <time>2016-02-24T14:54:57Z</time>
      </trkpt>
      <trkpt lat="43.43503" lon="6.00947">
        <ele>336.20001220703</ele>
        <time>2016-02-24T14:54:58Z</time>
      </trkpt>
      <trkpt lat="43.43503" lon="6.00947">
        <ele>336.39999389648</ele>
        <time>2016-02-24T14:55:00Z</time>
      </trkpt>
      <trkpt lat="43.43503" lon="6.00947">
        <ele>336.39999389648</ele>
        <time>2016-02-24T14:55:02Z</time>
      </trkpt>
      <trkpt lat="43.43503" lon="6.00947">
        <ele>336.39999389648</ele>
        <time>2016-02-24T14:55:04Z</time>
      </trkpt>
      <trkpt lat="43.43503" lon="6.00947">
        <ele>336.39999389648</ele>
        <time>2016-02-24T14:55:06Z</time>
      </trkpt>
      <trkpt lat="43.43503" lon="6.00947">
        <ele>336.60000610352</ele>
        <time>2016-02-24T14:55:08Z</time>
      </trkpt>
      <trkpt lat="43.43503" lon="6.00947">
        <ele>336.60000610352</ele>
        <time>2016-02-24T14:55:10Z</time>
      </trkpt>
      <trkpt lat="43.43503" lon="6.00947">
        <ele>336.20001220703</ele>
        <time>2016-02-24T14:55:12Z</time>
      </trkpt>
      <trkpt lat="43.43503" lon="6.00947">
        <ele>336.39999389648</ele>
        <time>2016-02-24T14:55:14Z</time>
      </trkpt>
      <trkpt lat="43.43503" lon="6.00947">
        <ele>336.20001220703</ele>
        <time>2016-02-24T14:55:16Z</time>
      </trkpt>
      <trkpt lat="43.43503" lon="6.00947">
        <ele>336</ele>
        <time>2016-02-24T14:55:18Z</time>
      </trkpt>
      <trkpt lat="43.43503" lon="6.00947">
        <ele>336</ele>
        <time>2016-02-24T14:55:20Z</time>
      </trkpt>
      <trkpt lat="43.43503" lon="6.00947">
        <ele>336</ele>
        <time>2016-02-24T14:55:22Z</time>
      </trkpt>
      <trkpt lat="43.43503" lon="6.00947">
        <ele>336</ele>
        <time>2016-02-24T14:55:24Z</time>
      </trkpt>
      <trkpt lat="43.43503" lon="6.00947">
        <ele>336</ele>
        <time>2016-02-24T14:55:26Z</time>
      </trkpt>
      <trkpt lat="43.43503" lon="6.00947">
        <ele>336</ele>
        <time>2016-02-24T14:55:28Z</time>
      </trkpt>
      <trkpt lat="43.43503" lon="6.00947">
        <ele>336</ele>
        <time>2016-02-24T14:55:30Z</time>
      </trkpt>
      <trkpt lat="43.43503" lon="6.00947">
        <ele>336</ele>
        <time>2016-02-24T14:55:32Z</time>
      </trkpt>
      <trkpt lat="43.43503" lon="6.00947">
        <ele>336</ele>
        <time>2016-02-24T14:55:34Z</time>
      </trkpt>
      <trkpt lat="43.43503" lon="6.00947">
        <ele>335.79998779297</ele>
        <time>2016-02-24T14:55:36Z</time>
      </trkpt>
      <trkpt lat="43.43503" lon="6.00947">
        <ele>336</ele>
        <time>2016-02-24T14:55:38Z</time>
      </trkpt>
      <trkpt lat="43.43503" lon="6.00947">
        <ele>336</ele>
        <time>2016-02-24T14:55:40Z</time>
      </trkpt>
      <trkpt lat="43.43503" lon="6.00948">
        <ele>336</ele>
        <time>2016-02-24T14:55:42Z</time>
      </trkpt>
      <trkpt lat="43.43503" lon="6.00948">
        <ele>336.20001220703</ele>
        <time>2016-02-24T14:55:44Z</time>
      </trkpt>
      <trkpt lat="43.43503" lon="6.00948">
        <ele>336</ele>
        <time>2016-02-24T14:55:46Z</time>
      </trkpt>
      <trkpt lat="43.43503" lon="6.00948">
        <ele>336</ele>
        <time>2016-02-24T14:55:48Z</time>
      </trkpt>
      <trkpt lat="43.43503" lon="6.00948">
        <ele>336</ele>
        <time>2016-02-24T14:55:50Z</time>
      </trkpt>
      <trkpt lat="43.43503" lon="6.00948">
        <ele>336</ele>
        <time>2016-02-24T14:55:52Z</time>
      </trkpt>
      <trkpt lat="43.43503" lon="6.00948">
        <ele>336.20001220703</ele>
        <time>2016-02-24T14:55:54Z</time>
      </trkpt>
      <trkpt lat="43.43503" lon="6.00948">
        <ele>336.20001220703</ele>
        <time>2016-02-24T14:55:56Z</time>
      </trkpt>
      <trkpt lat="43.43503" lon="6.00948">
        <ele>336</ele>
        <time>2016-02-24T14:55:58Z</time>
      </trkpt>
      <trkpt lat="43.43503" lon="6.00948">
        <ele>336</ele>
        <time>2016-02-24T14:56:00Z</time>
      </trkpt>
      <trkpt lat="43.43503" lon="6.00948">
        <ele>335.79998779297</ele>
        <time>2016-02-24T14:56:02Z</time>
      </trkpt>
      <trkpt lat="43.43503" lon="6.00948">
        <ele>335.79998779297</ele>
        <time>2016-02-24T14:56:04Z</time>
      </trkpt>
      <trkpt lat="43.43503" lon="6.00948">
        <ele>335.79998779297</ele>
        <time>2016-02-24T14:56:06Z</time>
      </trkpt>
      <trkpt lat="43.43503" lon="6.00948">
        <ele>335.60000610352</ele>
        <time>2016-02-24T14:56:08Z</time>
      </trkpt>
      <trkpt lat="43.43503" lon="6.00948">
        <ele>335.79998779297</ele>
        <time>2016-02-24T14:56:10Z</time>
      </trkpt>
      <trkpt lat="43.43503" lon="6.00948">
        <ele>336</ele>
        <time>2016-02-24T14:56:12Z</time>
      </trkpt>
      <trkpt lat="43.43503" lon="6.00948">
        <ele>336</ele>
        <time>2016-02-24T14:56:14Z</time>
      </trkpt>
      <trkpt lat="43.43503" lon="6.00948">
        <ele>336.20001220703</ele>
        <time>2016-02-24T14:56:16Z</time>
      </trkpt>
      <trkpt lat="43.43503" lon="6.00948">
        <ele>336.20001220703</ele>
        <time>2016-02-24T14:56:18Z</time>
      </trkpt>
      <trkpt lat="43.43503" lon="6.00948">
        <ele>336.20001220703</ele>
        <time>2016-02-24T14:56:20Z</time>
      </trkpt>
      <trkpt lat="43.43503" lon="6.00948">
        <ele>336</ele>
        <time>2016-02-24T14:56:22Z</time>
      </trkpt>
      <trkpt lat="43.43503" lon="6.00948">
        <ele>336.20001220703</ele>
        <time>2016-02-24T14:56:24Z</time>
      </trkpt>
      <trkpt lat="43.43503" lon="6.00948">
        <ele>336.20001220703</ele>
        <time>2016-02-24T14:56:26Z</time>
      </trkpt>
      <trkpt lat="43.43503" lon="6.00948">
        <ele>336</ele>
        <time>2016-02-24T14:56:28Z</time>
      </trkpt>
      <trkpt lat="43.43503" lon="6.00948">
        <ele>336</ele>
        <time>2016-02-24T14:56:30Z</time>
      </trkpt>
      <trkpt lat="43.43503" lon="6.00948">
        <ele>335.79998779297</ele>
        <time>2016-02-24T14:56:32Z</time>
      </trkpt>
      <trkpt lat="43.43503" lon="6.00948">
        <ele>336</ele>
        <time>2016-02-24T14:56:34Z</time>
      </trkpt>
      <trkpt lat="43.43503" lon="6.00948">
        <ele>336</ele>
        <time>2016-02-24T14:56:36Z</time>
      </trkpt>
      <trkpt lat="43.43503" lon="6.00948">
        <ele>336.20001220703</ele>
        <time>2016-02-24T14:56:38Z</time>
      </trkpt>
      <trkpt lat="43.43503" lon="6.00948">
        <ele>336.20001220703</ele>
        <time>2016-02-24T14:56:40Z</time>
      </trkpt>
      <trkpt lat="43.43503" lon="6.00948">
        <ele>336.20001220703</ele>
        <time>2016-02-24T14:56:42Z</time>
      </trkpt>
      <trkpt lat="43.43503" lon="6.00948">
        <ele>336.20001220703</ele>
        <time>2016-02-24T14:56:44Z</time>
      </trkpt>
      <trkpt lat="43.43503" lon="6.00948">
        <ele>336.39999389648</ele>
        <time>2016-02-24T14:56:46Z</time>
      </trkpt>
      <trkpt lat="43.43503" lon="6.00948">
        <ele>336.20001220703</ele>
        <time>2016-02-24T14:56:48Z</time>
      </trkpt>
      <trkpt lat="43.43503" lon="6.00948">
        <ele>336.20001220703</ele>
        <time>2016-02-24T14:56:50Z</time>
      </trkpt>
      <trkpt lat="43.43503" lon="6.00948">
        <ele>336.20001220703</ele>
        <time>2016-02-24T14:56:52Z</time>
      </trkpt>
      <trkpt lat="43.43503" lon="6.00948">
        <ele>336.20001220703</ele>
        <time>2016-02-24T14:56:54Z</time>
      </trkpt>
      <trkpt lat="43.43503" lon="6.00948">
        <ele>336.20001220703</ele>
        <time>2016-02-24T14:56:56Z</time>
      </trkpt>
      <trkpt lat="43.43503" lon="6.00948">
        <ele>336.20001220703</ele>
        <time>2016-02-24T14:56:58Z</time>
      </trkpt>
      <trkpt lat="43.43503" lon="6.00948">
        <ele>336.20001220703</ele>
        <time>2016-02-24T14:57:00Z</time>
      </trkpt>
      <trkpt lat="43.43503" lon="6.00948">
        <ele>336.20001220703</ele>
        <time>2016-02-24T14:57:02Z</time>
      </trkpt>
      <trkpt lat="43.43503" lon="6.00948">
        <ele>336.20001220703</ele>
        <time>2016-02-24T14:57:04Z</time>
      </trkpt>
      <trkpt lat="43.43503" lon="6.00948">
        <ele>336</ele>
        <time>2016-02-24T14:57:06Z</time>
      </trkpt>
      <trkpt lat="43.43503" lon="6.00948">
        <ele>336</ele>
        <time>2016-02-24T14:57:08Z</time>
      </trkpt>
      <trkpt lat="43.43503" lon="6.00948">
        <ele>336</ele>
        <time>2016-02-24T14:57:10Z</time>
      </trkpt>
      <trkpt lat="43.43503" lon="6.00948">
        <ele>336</ele>
        <time>2016-02-24T14:57:12Z</time>
      </trkpt>
      <trkpt lat="43.43503" lon="6.00948">
        <ele>336</ele>
        <time>2016-02-24T14:57:14Z</time>
      </trkpt>
      <trkpt lat="43.43503" lon="6.00948">
        <ele>336</ele>
        <time>2016-02-24T14:57:16Z</time>
      </trkpt>
      <trkpt lat="43.43503" lon="6.00948">
        <ele>336.20001220703</ele>
        <time>2016-02-24T14:57:18Z</time>
      </trkpt>
      <trkpt lat="43.43503" lon="6.00948">
        <ele>336.39999389648</ele>
        <time>2016-02-24T14:57:20Z</time>
      </trkpt>
      <trkpt lat="43.43503" lon="6.00948">
        <ele>336.20001220703</ele>
        <time>2016-02-24T14:57:22Z</time>
      </trkpt>
      <trkpt lat="43.43503" lon="6.00948">
        <ele>336.20001220703</ele>
        <time>2016-02-24T14:57:24Z</time>
      </trkpt>
      <trkpt lat="43.43503" lon="6.00948">
        <ele>336.39999389648</ele>
        <time>2016-02-24T14:57:26Z</time>
      </trkpt>
      <trkpt lat="43.43503" lon="6.00948">
        <ele>336.20001220703</ele>
        <time>2016-02-24T14:57:28Z</time>
      </trkpt>
      <trkpt lat="43.43503" lon="6.00948">
        <ele>336.20001220703</ele>
        <time>2016-02-24T14:57:30Z</time>
      </trkpt>
      <trkpt lat="43.43503" lon="6.00948">
        <ele>336.20001220703</ele>
        <time>2016-02-24T14:57:32Z</time>
      </trkpt>
      <trkpt lat="43.43503" lon="6.00948">
        <ele>336.20001220703</ele>
        <time>2016-02-24T14:57:34Z</time>
      </trkpt>
      <trkpt lat="43.43503" lon="6.00948">
        <ele>336.20001220703</ele>
        <time>2016-02-24T14:57:36Z</time>
      </trkpt>
      <trkpt lat="43.43503" lon="6.00948">
        <ele>336.20001220703</ele>
        <time>2016-02-24T14:57:38Z</time>
      </trkpt>
      <trkpt lat="43.43503" lon="6.00948">
        <ele>336.39999389648</ele>
        <time>2016-02-24T14:57:40Z</time>
      </trkpt>
      <trkpt lat="43.43503" lon="6.00948">
        <ele>336</ele>
        <time>2016-02-24T14:57:42Z</time>
      </trkpt>
      <trkpt lat="43.43503" lon="6.00948">
        <ele>336.20001220703</ele>
        <time>2016-02-24T14:57:44Z</time>
      </trkpt>
      <trkpt lat="43.43503" lon="6.00948">
        <ele>336</ele>
        <time>2016-02-24T14:57:46Z</time>
      </trkpt>
      <trkpt lat="43.43503" lon="6.00948">
        <ele>335.79998779297</ele>
        <time>2016-02-24T14:57:48Z</time>
      </trkpt>
      <trkpt lat="43.43503" lon="6.00948">
        <ele>335.79998779297</ele>
        <time>2016-02-24T14:57:50Z</time>
      </trkpt>
      <trkpt lat="43.43503" lon="6.00948">
        <ele>335.79998779297</ele>
        <time>2016-02-24T14:57:52Z</time>
      </trkpt>
      <trkpt lat="43.43503" lon="6.00948">
        <ele>335.79998779297</ele>
        <time>2016-02-24T14:57:54Z</time>
      </trkpt>
      <trkpt lat="43.43503" lon="6.00948">
        <ele>335.79998779297</ele>
        <time>2016-02-24T14:57:56Z</time>
      </trkpt>
      <trkpt lat="43.43503" lon="6.00948">
        <ele>335.79998779297</ele>
        <time>2016-02-24T14:57:58Z</time>
      </trkpt>
      <trkpt lat="43.43503" lon="6.00948">
        <ele>335.79998779297</ele>
        <time>2016-02-24T14:58:00Z</time>
      </trkpt>
      <trkpt lat="43.43503" lon="6.00948">
        <ele>335.79998779297</ele>
        <time>2016-02-24T14:58:02Z</time>
      </trkpt>
      <trkpt lat="43.43503" lon="6.00948">
        <ele>335.79998779297</ele>
        <time>2016-02-24T14:58:04Z</time>
      </trkpt>
      <trkpt lat="43.43503" lon="6.00948">
        <ele>336</ele>
        <time>2016-02-24T14:58:06Z</time>
      </trkpt>
      <trkpt lat="43.43503" lon="6.00948">
        <ele>336</ele>
        <time>2016-02-24T14:58:08Z</time>
      </trkpt>
      <trkpt lat="43.43503" lon="6.00948">
        <ele>336.39999389648</ele>
        <time>2016-02-24T14:58:10Z</time>
      </trkpt>
      <trkpt lat="43.43503" lon="6.00948">
        <ele>336.39999389648</ele>
        <time>2016-02-24T14:58:12Z</time>
      </trkpt>
      <trkpt lat="43.43503" lon="6.00948">
        <ele>336.39999389648</ele>
        <time>2016-02-24T14:58:14Z</time>
      </trkpt>
      <trkpt lat="43.43503" lon="6.00948">
        <ele>336.20001220703</ele>
        <time>2016-02-24T14:58:16Z</time>
      </trkpt>
      <trkpt lat="43.43503" lon="6.00948">
        <ele>336.20001220703</ele>
        <time>2016-02-24T14:58:18Z</time>
      </trkpt>
      <trkpt lat="43.43503" lon="6.00948">
        <ele>336.20001220703</ele>
        <time>2016-02-24T14:58:20Z</time>
      </trkpt>
      <trkpt lat="43.43503" lon="6.00948">
        <ele>336.39999389648</ele>
        <time>2016-02-24T14:58:22Z</time>
      </trkpt>
      <trkpt lat="43.43503" lon="6.00948">
        <ele>336.20001220703</ele>
        <time>2016-02-24T14:58:24Z</time>
      </trkpt>
      <trkpt lat="43.43503" lon="6.00948">
        <ele>336.20001220703</ele>
        <time>2016-02-24T14:58:26Z</time>
      </trkpt>
      <trkpt lat="43.43503" lon="6.00948">
        <ele>336</ele>
        <time>2016-02-24T14:58:28Z</time>
      </trkpt>
      <trkpt lat="43.43503" lon="6.00948">
        <ele>336</ele>
        <time>2016-02-24T14:58:30Z</time>
      </trkpt>
      <trkpt lat="43.43503" lon="6.00948">
        <ele>336</ele>
        <time>2016-02-24T14:58:32Z</time>
      </trkpt>
      <trkpt lat="43.43503" lon="6.00948">
        <ele>336.20001220703</ele>
        <time>2016-02-24T14:58:34Z</time>
      </trkpt>
      <trkpt lat="43.43503" lon="6.00948">
        <ele>336</ele>
        <time>2016-02-24T14:58:36Z</time>
      </trkpt>
      <trkpt lat="43.43503" lon="6.00948">
        <ele>335.79998779297</ele>
        <time>2016-02-24T14:58:38Z</time>
      </trkpt>
      <trkpt lat="43.43503" lon="6.00948">
        <ele>336</ele>
        <time>2016-02-24T14:58:40Z</time>
      </trkpt>
      <trkpt lat="43.43503" lon="6.00948">
        <ele>336.20001220703</ele>
        <time>2016-02-24T14:58:42Z</time>
      </trkpt>
      <trkpt lat="43.43503" lon="6.00948">
        <ele>336</ele>
        <time>2016-02-24T14:58:44Z</time>
      </trkpt>
      <trkpt lat="43.43503" lon="6.00948">
        <ele>336</ele>
        <time>2016-02-24T14:58:46Z</time>
      </trkpt>
      <trkpt lat="43.43503" lon="6.00948">
        <ele>336</ele>
        <time>2016-02-24T14:58:48Z</time>
      </trkpt>
      <trkpt lat="43.43503" lon="6.00948">
        <ele>336</ele>
        <time>2016-02-24T14:58:50Z</time>
      </trkpt>
      <trkpt lat="43.43503" lon="6.00948">
        <ele>336.20001220703</ele>
        <time>2016-02-24T14:58:52Z</time>
      </trkpt>
      <trkpt lat="43.43503" lon="6.00948">
        <ele>336</ele>
        <time>2016-02-24T14:58:54Z</time>
      </trkpt>
      <trkpt lat="43.43503" lon="6.00948">
        <ele>336</ele>
        <time>2016-02-24T14:58:56Z</time>
      </trkpt>
      <trkpt lat="43.43503" lon="6.00948">
        <ele>336.20001220703</ele>
        <time>2016-02-24T14:58:58Z</time>
      </trkpt>
      <trkpt lat="43.43503" lon="6.00948">
        <ele>336</ele>
        <time>2016-02-24T14:59:00Z</time>
      </trkpt>
      <trkpt lat="43.43503" lon="6.00948">
        <ele>335.79998779297</ele>
        <time>2016-02-24T14:59:02Z</time>
      </trkpt>
      <trkpt lat="43.43503" lon="6.00948">
        <ele>335.79998779297</ele>
        <time>2016-02-24T14:59:04Z</time>
      </trkpt>
      <trkpt lat="43.43503" lon="6.00948">
        <ele>336</ele>
        <time>2016-02-24T14:59:06Z</time>
      </trkpt>
      <trkpt lat="43.43503" lon="6.00948">
        <ele>336</ele>
        <time>2016-02-24T14:59:08Z</time>
      </trkpt>
      <trkpt lat="43.43503" lon="6.00948">
        <ele>336</ele>
        <time>2016-02-24T14:59:10Z</time>
      </trkpt>
      <trkpt lat="43.43503" lon="6.00948">
        <ele>335.79998779297</ele>
        <time>2016-02-24T14:59:12Z</time>
      </trkpt>
      <trkpt lat="43.43503" lon="6.00948">
        <ele>335.60000610352</ele>
        <time>2016-02-24T14:59:14Z</time>
      </trkpt>
      <trkpt lat="43.43503" lon="6.00948">
        <ele>335.79998779297</ele>
        <time>2016-02-24T14:59:16Z</time>
      </trkpt>
      <trkpt lat="43.43503" lon="6.00948">
        <ele>335.79998779297</ele>
        <time>2016-02-24T14:59:18Z</time>
      </trkpt>
      <trkpt lat="43.43503" lon="6.00948">
        <ele>336</ele>
        <time>2016-02-24T14:59:20Z</time>
      </trkpt>
      <trkpt lat="43.43503" lon="6.00948">
        <ele>335.79998779297</ele>
        <time>2016-02-24T14:59:22Z</time>
      </trkpt>
      <trkpt lat="43.43503" lon="6.00948">
        <ele>335.79998779297</ele>
        <time>2016-02-24T14:59:24Z</time>
      </trkpt>
      <trkpt lat="43.43503" lon="6.00948">
        <ele>335.79998779297</ele>
        <time>2016-02-24T14:59:26Z</time>
      </trkpt>
      <trkpt lat="43.43503" lon="6.00948">
        <ele>336</ele>
        <time>2016-02-24T14:59:28Z</time>
      </trkpt>
      <trkpt lat="43.43503" lon="6.00948">
        <ele>336</ele>
        <time>2016-02-24T14:59:30Z</time>
      </trkpt>
      <trkpt lat="43.43503" lon="6.00948">
        <ele>335.79998779297</ele>
        <time>2016-02-24T14:59:32Z</time>
      </trkpt>
      <trkpt lat="43.43503" lon="6.00948">
        <ele>336</ele>
        <time>2016-02-24T14:59:34Z</time>
      </trkpt>
      <trkpt lat="43.43503" lon="6.00948">
        <ele>336</ele>
        <time>2016-02-24T14:59:36Z</time>
      </trkpt>
      <trkpt lat="43.43503" lon="6.00948">
        <ele>336.20001220703</ele>
        <time>2016-02-24T14:59:38Z</time>
      </trkpt>
      <trkpt lat="43.43503" lon="6.00948">
        <ele>336</ele>
        <time>2016-02-24T14:59:40Z</time>
      </trkpt>
      <trkpt lat="43.43503" lon="6.00948">
        <ele>336</ele>
        <time>2016-02-24T14:59:42Z</time>
      </trkpt>
      <trkpt lat="43.43503" lon="6.00948">
        <ele>336</ele>
        <time>2016-02-24T14:59:44Z</time>
      </trkpt>
      <trkpt lat="43.43503" lon="6.00948">
        <ele>336</ele>
        <time>2016-02-24T14:59:46Z</time>
      </trkpt>
      <trkpt lat="43.43503" lon="6.00948">
        <ele>336</ele>
        <time>2016-02-24T14:59:48Z</time>
      </trkpt>
      <trkpt lat="43.43503" lon="6.00948">
        <ele>336</ele>
        <time>2016-02-24T14:59:50Z</time>
      </trkpt>
      <trkpt lat="43.43503" lon="6.00948">
        <ele>335.79998779297</ele>
        <time>2016-02-24T14:59:52Z</time>
      </trkpt>
      <trkpt lat="43.43503" lon="6.00948">
        <ele>336</ele>
        <time>2016-02-24T14:59:54Z</time>
      </trkpt>
      <trkpt lat="43.43503" lon="6.00948">
        <ele>336</ele>
        <time>2016-02-24T14:59:56Z</time>
      </trkpt>
      <trkpt lat="43.43503" lon="6.00948">
        <ele>336</ele>
        <time>2016-02-24T14:59:58Z</time>
      </trkpt>
      <trkpt lat="43.43503" lon="6.00948">
        <ele>336</ele>
        <time>2016-02-24T15:00:00Z</time>
      </trkpt>
      <trkpt lat="43.43503" lon="6.00948">
        <ele>336</ele>
        <time>2016-02-24T15:00:02Z</time>
      </trkpt>
      <trkpt lat="43.43503" lon="6.00948">
        <ele>336.20001220703</ele>
        <time>2016-02-24T15:00:04Z</time>
      </trkpt>
      <trkpt lat="43.43503" lon="6.00948">
        <ele>336.79998779297</ele>
        <time>2016-02-24T15:00:06Z</time>
      </trkpt>
      <trkpt lat="43.43503" lon="6.00949">
        <ele>336.79998779297</ele>
        <time>2016-02-24T15:00:08Z</time>
      </trkpt>
      <trkpt lat="43.43503" lon="6.00949">
        <ele>336.79998779297</ele>
        <time>2016-02-24T15:00:10Z</time>
      </trkpt>
      <trkpt lat="43.43503" lon="6.00949">
        <ele>336.79998779297</ele>
        <time>2016-02-24T15:00:12Z</time>
      </trkpt>
      <trkpt lat="43.43503" lon="6.00949">
        <ele>336.39999389648</ele>
        <time>2016-02-24T15:00:14Z</time>
      </trkpt>
      <trkpt lat="43.43503" lon="6.00949">
        <ele>336.60000610352</ele>
        <time>2016-02-24T15:00:16Z</time>
      </trkpt>
      <trkpt lat="43.43502" lon="6.00949">
        <ele>336.39999389648</ele>
        <time>2016-02-24T15:00:18Z</time>
      </trkpt>
      <trkpt lat="43.43502" lon="6.00949">
        <ele>336.39999389648</ele>
        <time>2016-02-24T15:00:20Z</time>
      </trkpt>
      <trkpt lat="43.43502" lon="6.00949">
        <ele>336.39999389648</ele>
        <time>2016-02-24T15:00:22Z</time>
      </trkpt>
      <trkpt lat="43.43502" lon="6.0095">
        <ele>336.39999389648</ele>
        <time>2016-02-24T15:00:23Z</time>
      </trkpt>
      <trkpt lat="43.43502" lon="6.00951">
        <ele>336.39999389648</ele>
        <time>2016-02-24T15:00:24Z</time>
      </trkpt>
      <trkpt lat="43.43502" lon="6.00951">
        <ele>336.20001220703</ele>
        <time>2016-02-24T15:00:26Z</time>
      </trkpt>
      <trkpt lat="43.43502" lon="6.00952">
        <ele>336.20001220703</ele>
        <time>2016-02-24T15:00:28Z</time>
      </trkpt>
      <trkpt lat="43.43502" lon="6.00954">
        <ele>336</ele>
        <time>2016-02-24T15:00:30Z</time>
      </trkpt>
      <trkpt lat="43.43502" lon="6.00955">
        <ele>336</ele>
        <time>2016-02-24T15:00:32Z</time>
      </trkpt>
      <trkpt lat="43.43502" lon="6.00955">
        <ele>335.79998779297</ele>
        <time>2016-02-24T15:00:34Z</time>
      </trkpt>
      <trkpt lat="43.43502" lon="6.00957">
        <ele>335.39999389648</ele>
        <time>2016-02-24T15:00:36Z</time>
      </trkpt>
      <trkpt lat="43.43501" lon="6.00959">
        <ele>335.39999389648</ele>
        <time>2016-02-24T15:00:38Z</time>
      </trkpt>
      <trkpt lat="43.43501" lon="6.0096">
        <ele>335.20001220703</ele>
        <time>2016-02-24T15:00:40Z</time>
      </trkpt>
      <trkpt lat="43.43501" lon="6.0096">
        <ele>335.20001220703</ele>
        <time>2016-02-24T15:00:42Z</time>
      </trkpt>
      <trkpt lat="43.43501" lon="6.0096">
        <ele>335.20001220703</ele>
        <time>2016-02-24T15:00:44Z</time>
      </trkpt>
      <trkpt lat="43.43501" lon="6.0096">
        <ele>335.60000610352</ele>
        <time>2016-02-24T15:00:46Z</time>
      </trkpt>
      <trkpt lat="43.43501" lon="6.00961">
        <ele>335.60000610352</ele>
        <time>2016-02-24T15:00:48Z</time>
      </trkpt>
      <trkpt lat="43.43501" lon="6.00961">
        <ele>335.39999389648</ele>
        <time>2016-02-24T15:00:50Z</time>
      </trkpt>
      <trkpt lat="43.43501" lon="6.00961">
        <ele>335.39999389648</ele>
        <time>2016-02-24T15:00:52Z</time>
      </trkpt>
      <trkpt lat="43.43501" lon="6.00961">
        <ele>335.20001220703</ele>
        <time>2016-02-24T15:00:54Z</time>
      </trkpt>
      <trkpt lat="43.43501" lon="6.00961">
        <ele>335</ele>
        <time>2016-02-24T15:00:56Z</time>
      </trkpt>
      <trkpt lat="43.43501" lon="6.00963">
        <ele>335</ele>
        <time>2016-02-24T15:00:57Z</time>
      </trkpt>
      <trkpt lat="43.43501" lon="6.00964">
        <ele>335</ele>
        <time>2016-02-24T15:00:58Z</time>
      </trkpt>
      <trkpt lat="43.435" lon="6.00965">
        <ele>334.79998779297</ele>
        <time>2016-02-24T15:01:00Z</time>
      </trkpt>
      <trkpt lat="43.435" lon="6.00966">
        <ele>334.79998779297</ele>
        <time>2016-02-24T15:01:02Z</time>
      </trkpt>
      <trkpt lat="43.435" lon="6.00967">
        <ele>334.79998779297</ele>
        <time>2016-02-24T15:01:04Z</time>
      </trkpt>
      <trkpt lat="43.435" lon="6.00969">
        <ele>334.39999389648</ele>
        <time>2016-02-24T15:01:06Z</time>
      </trkpt>
      <trkpt lat="43.435" lon="6.00969">
        <ele>334</ele>
        <time>2016-02-24T15:01:08Z</time>
      </trkpt>
      <trkpt lat="43.435" lon="6.0097">
        <ele>334</ele>
        <time>2016-02-24T15:01:10Z</time>
      </trkpt>
      <trkpt lat="43.435" lon="6.00971">
        <ele>334</ele>
        <time>2016-02-24T15:01:12Z</time>
      </trkpt>
      <trkpt lat="43.43499" lon="6.00973">
        <ele>334.20001220703</ele>
        <time>2016-02-24T15:01:14Z</time>
      </trkpt>
      <trkpt lat="43.43499" lon="6.00974">
        <ele>334</ele>
        <time>2016-02-24T15:01:16Z</time>
      </trkpt>
      <trkpt lat="43.43499" lon="6.00975">
        <ele>334</ele>
        <time>2016-02-24T15:01:18Z</time>
      </trkpt>
      <trkpt lat="43.43499" lon="6.00977">
        <ele>334</ele>
        <time>2016-02-24T15:01:20Z</time>
      </trkpt>
      <trkpt lat="43.43498" lon="6.00978">
        <ele>333.79998779297</ele>
        <time>2016-02-24T15:01:21Z</time>
      </trkpt>
      <trkpt lat="43.43498" lon="6.00979">
        <ele>333.39999389648</ele>
        <time>2016-02-24T15:01:22Z</time>
      </trkpt>
      <trkpt lat="43.43498" lon="6.00981">
        <ele>333.20001220703</ele>
        <time>2016-02-24T15:01:24Z</time>
      </trkpt>
      <trkpt lat="43.43497" lon="6.00981">
        <ele>333</ele>
        <time>2016-02-24T15:01:25Z</time>
      </trkpt>
      <trkpt lat="43.43497" lon="6.00982">
        <ele>333</ele>
        <time>2016-02-24T15:01:26Z</time>
      </trkpt>
      <trkpt lat="43.43497" lon="6.00983">
        <ele>332.79998779297</ele>
        <time>2016-02-24T15:01:27Z</time>
      </trkpt>
      <trkpt lat="43.43497" lon="6.00984">
        <ele>332.60000610352</ele>
        <time>2016-02-24T15:01:28Z</time>
      </trkpt>
      <trkpt lat="43.43496" lon="6.00986">
        <ele>332.39999389648</ele>
        <time>2016-02-24T15:01:30Z</time>
      </trkpt>
      <trkpt lat="43.43496" lon="6.00987">
        <ele>332.60000610352</ele>
        <time>2016-02-24T15:01:32Z</time>
      </trkpt>
      <trkpt lat="43.43496" lon="6.00988">
        <ele>332.60000610352</ele>
        <time>2016-02-24T15:01:33Z</time>
      </trkpt>
      <trkpt lat="43.43496" lon="6.00989">
        <ele>332.60000610352</ele>
        <time>2016-02-24T15:01:34Z</time>
      </trkpt>
      <trkpt lat="43.43495" lon="6.00991">
        <ele>332.20001220703</ele>
        <time>2016-02-24T15:01:36Z</time>
      </trkpt>
      <trkpt lat="43.43494" lon="6.00992">
        <ele>331.79998779297</ele>
        <time>2016-02-24T15:01:38Z</time>
      </trkpt>
      <trkpt lat="43.43494" lon="6.00993">
        <ele>331.60000610352</ele>
        <time>2016-02-24T15:01:39Z</time>
      </trkpt>
      <trkpt lat="43.43494" lon="6.00994">
        <ele>331.39999389648</ele>
        <time>2016-02-24T15:01:40Z</time>
      </trkpt>
      <trkpt lat="43.43494" lon="6.00996">
        <ele>331.20001220703</ele>
        <time>2016-02-24T15:01:42Z</time>
      </trkpt>
      <trkpt lat="43.43493" lon="6.00999">
        <ele>331.20001220703</ele>
        <time>2016-02-24T15:01:44Z</time>
      </trkpt>
      <trkpt lat="43.43493" lon="6.01001">
        <ele>331</ele>
        <time>2016-02-24T15:01:46Z</time>
      </trkpt>
      <trkpt lat="43.43492" lon="6.01003">
        <ele>330.79998779297</ele>
        <time>2016-02-24T15:01:48Z</time>
      </trkpt>
      <trkpt lat="43.43492" lon="6.01006">
        <ele>330.60000610352</ele>
        <time>2016-02-24T15:01:50Z</time>
      </trkpt>
      <trkpt lat="43.43492" lon="6.01007">
        <ele>330.39999389648</ele>
        <time>2016-02-24T15:01:51Z</time>
      </trkpt>
      <trkpt lat="43.43491" lon="6.01008">
        <ele>330.39999389648</ele>
        <time>2016-02-24T15:01:52Z</time>
      </trkpt>
      <trkpt lat="43.43492" lon="6.01009">
        <ele>330.60000610352</ele>
        <time>2016-02-24T15:01:53Z</time>
      </trkpt>
      <trkpt lat="43.43492" lon="6.0101">
        <ele>330.39999389648</ele>
        <time>2016-02-24T15:01:54Z</time>
      </trkpt>
      <trkpt lat="43.43492" lon="6.01012">
        <ele>330.39999389648</ele>
        <time>2016-02-24T15:01:56Z</time>
      </trkpt>
      <trkpt lat="43.43493" lon="6.01015">
        <ele>330</ele>
        <time>2016-02-24T15:01:58Z</time>
      </trkpt>
      <trkpt lat="43.43492" lon="6.01016">
        <ele>330</ele>
        <time>2016-02-24T15:02:00Z</time>
      </trkpt>
      <trkpt lat="43.43493" lon="6.01018">
        <ele>329.60000610352</ele>
        <time>2016-02-24T15:02:02Z</time>
      </trkpt>
      <trkpt lat="43.43493" lon="6.01021">
        <ele>329.60000610352</ele>
        <time>2016-02-24T15:02:04Z</time>
      </trkpt>
      <trkpt lat="43.43493" lon="6.01022">
        <ele>329.60000610352</ele>
        <time>2016-02-24T15:02:05Z</time>
      </trkpt>
      <trkpt lat="43.43493" lon="6.01023">
        <ele>329.39999389648</ele>
        <time>2016-02-24T15:02:06Z</time>
      </trkpt>
      <trkpt lat="43.43493" lon="6.01025">
        <ele>329</ele>
        <time>2016-02-24T15:02:08Z</time>
      </trkpt>
      <trkpt lat="43.43493" lon="6.01027">
        <ele>329</ele>
        <time>2016-02-24T15:02:10Z</time>
      </trkpt>
      <trkpt lat="43.43493" lon="6.0103">
        <ele>329</ele>
        <time>2016-02-24T15:02:12Z</time>
      </trkpt>
      <trkpt lat="43.43493" lon="6.01032">
        <ele>329</ele>
        <time>2016-02-24T15:02:14Z</time>
      </trkpt>
      <trkpt lat="43.43493" lon="6.01034">
        <ele>328.79998779297</ele>
        <time>2016-02-24T15:02:16Z</time>
      </trkpt>
      <trkpt lat="43.43493" lon="6.01036">
        <ele>328.79998779297</ele>
        <time>2016-02-24T15:02:17Z</time>
      </trkpt>
      <trkpt lat="43.43493" lon="6.01037">
        <ele>328.79998779297</ele>
        <time>2016-02-24T15:02:18Z</time>
      </trkpt>
      <trkpt lat="43.43493" lon="6.01039">
        <ele>328.60000610352</ele>
        <time>2016-02-24T15:02:20Z</time>
      </trkpt>
      <trkpt lat="43.43493" lon="6.01041">
        <ele>328.39999389648</ele>
        <time>2016-02-24T15:02:21Z</time>
      </trkpt>
      <trkpt lat="43.43493" lon="6.01042">
        <ele>328.39999389648</ele>
        <time>2016-02-24T15:02:22Z</time>
      </trkpt>
      <trkpt lat="43.43494" lon="6.01045">
        <ele>328.39999389648</ele>
        <time>2016-02-24T15:02:24Z</time>
      </trkpt>
      <trkpt lat="43.43494" lon="6.01047">
        <ele>328.20001220703</ele>
        <time>2016-02-24T15:02:26Z</time>
      </trkpt>
      <trkpt lat="43.43495" lon="6.0105">
        <ele>328</ele>
        <time>2016-02-24T15:02:28Z</time>
      </trkpt>
      <trkpt lat="43.43495" lon="6.01051">
        <ele>327.79998779297</ele>
        <time>2016-02-24T15:02:29Z</time>
      </trkpt>
      <trkpt lat="43.43496" lon="6.01053">
        <ele>327.79998779297</ele>
        <time>2016-02-24T15:02:30Z</time>
      </trkpt>
      <trkpt lat="43.43496" lon="6.01055">
        <ele>327.60000610352</ele>
        <time>2016-02-24T15:02:32Z</time>
      </trkpt>
      <trkpt lat="43.43497" lon="6.01058">
        <ele>327.60000610352</ele>
        <time>2016-02-24T15:02:34Z</time>
      </trkpt>
      <trkpt lat="43.43497" lon="6.0106">
        <ele>327.20001220703</ele>
        <time>2016-02-24T15:02:36Z</time>
      </trkpt>
      <trkpt lat="43.43497" lon="6.01062">
        <ele>327.20001220703</ele>
        <time>2016-02-24T15:02:37Z</time>
      </trkpt>
      <trkpt lat="43.43498" lon="6.01063">
        <ele>327.20001220703</ele>
        <time>2016-02-24T15:02:38Z</time>
      </trkpt>
      <trkpt lat="43.43498" lon="6.01064">
        <ele>327</ele>
        <time>2016-02-24T15:02:39Z</time>
      </trkpt>
      <trkpt lat="43.43498" lon="6.01065">
        <ele>326.79998779297</ele>
        <time>2016-02-24T15:02:40Z</time>
      </trkpt>
      <trkpt lat="43.43499" lon="6.01067">
        <ele>326.79998779297</ele>
        <time>2016-02-24T15:02:42Z</time>
      </trkpt>
      <trkpt lat="43.43499" lon="6.01069">
        <ele>326.79998779297</ele>
        <time>2016-02-24T15:02:44Z</time>
      </trkpt>
      <trkpt lat="43.43499" lon="6.01069">
        <ele>326.60000610352</ele>
        <time>2016-02-24T15:02:46Z</time>
      </trkpt>
      <trkpt lat="43.43499" lon="6.01069">
        <ele>326.60000610352</ele>
        <time>2016-02-24T15:02:48Z</time>
      </trkpt>
      <trkpt lat="43.43499" lon="6.01069">
        <ele>326.79998779297</ele>
        <time>2016-02-24T15:02:50Z</time>
      </trkpt>
      <trkpt lat="43.43499" lon="6.01069">
        <ele>326.79998779297</ele>
        <time>2016-02-24T15:02:52Z</time>
      </trkpt>
      <trkpt lat="43.43499" lon="6.01069">
        <ele>326.79998779297</ele>
        <time>2016-02-24T15:02:54Z</time>
      </trkpt>
      <trkpt lat="43.43499" lon="6.01069">
        <ele>326.79998779297</ele>
        <time>2016-02-24T15:02:56Z</time>
      </trkpt>
      <trkpt lat="43.43499" lon="6.01069">
        <ele>326.79998779297</ele>
        <time>2016-02-24T15:02:58Z</time>
      </trkpt>
      <trkpt lat="43.43499" lon="6.01069">
        <ele>327</ele>
        <time>2016-02-24T15:03:00Z</time>
      </trkpt>
      <trkpt lat="43.43499" lon="6.0107">
        <ele>327</ele>
        <time>2016-02-24T15:03:02Z</time>
      </trkpt>
      <trkpt lat="43.43499" lon="6.01071">
        <ele>327</ele>
        <time>2016-02-24T15:03:04Z</time>
      </trkpt>
      <trkpt lat="43.435" lon="6.01073">
        <ele>326.79998779297</ele>
        <time>2016-02-24T15:03:05Z</time>
      </trkpt>
      <trkpt lat="43.435" lon="6.01074">
        <ele>326.79998779297</ele>
        <time>2016-02-24T15:03:06Z</time>
      </trkpt>
      <trkpt lat="43.435" lon="6.01076">
        <ele>326.79998779297</ele>
        <time>2016-02-24T15:03:08Z</time>
      </trkpt>
      <trkpt lat="43.43501" lon="6.01078">
        <ele>326.60000610352</ele>
        <time>2016-02-24T15:03:10Z</time>
      </trkpt>
      <trkpt lat="43.43501" lon="6.0108">
        <ele>326.60000610352</ele>
        <time>2016-02-24T15:03:12Z</time>
      </trkpt>
      <trkpt lat="43.43501" lon="6.01082">
        <ele>326.79998779297</ele>
        <time>2016-02-24T15:03:14Z</time>
      </trkpt>
      <trkpt lat="43.43501" lon="6.01085">
        <ele>327</ele>
        <time>2016-02-24T15:03:16Z</time>
      </trkpt>
      <trkpt lat="43.43501" lon="6.01087">
        <ele>327</ele>
        <time>2016-02-24T15:03:17Z</time>
      </trkpt>
      <trkpt lat="43.43501" lon="6.01088">
        <ele>326.60000610352</ele>
        <time>2016-02-24T15:03:18Z</time>
      </trkpt>
      <trkpt lat="43.43501" lon="6.01091">
        <ele>326.20001220703</ele>
        <time>2016-02-24T15:03:20Z</time>
      </trkpt>
      <trkpt lat="43.435" lon="6.01093">
        <ele>326.60000610352</ele>
        <time>2016-02-24T15:03:22Z</time>
      </trkpt>
      <trkpt lat="43.43499" lon="6.01095">
        <ele>326.60000610352</ele>
        <time>2016-02-24T15:03:24Z</time>
      </trkpt>
      <trkpt lat="43.43499" lon="6.01098">
        <ele>326.39999389648</ele>
        <time>2016-02-24T15:03:26Z</time>
      </trkpt>
      <trkpt lat="43.43498" lon="6.011">
        <ele>326.39999389648</ele>
        <time>2016-02-24T15:03:28Z</time>
      </trkpt>
      <trkpt lat="43.43497" lon="6.01103">
        <ele>326</ele>
        <time>2016-02-24T15:03:30Z</time>
      </trkpt>
      <trkpt lat="43.43496" lon="6.01105">
        <ele>326</ele>
        <time>2016-02-24T15:03:32Z</time>
      </trkpt>
      <trkpt lat="43.43494" lon="6.01108">
        <ele>325.79998779297</ele>
        <time>2016-02-24T15:03:34Z</time>
      </trkpt>
      <trkpt lat="43.43494" lon="6.0111">
        <ele>325.79998779297</ele>
        <time>2016-02-24T15:03:36Z</time>
      </trkpt>
      <trkpt lat="43.43493" lon="6.01112">
        <ele>325.39999389648</ele>
        <time>2016-02-24T15:03:38Z</time>
      </trkpt>
      <trkpt lat="43.43492" lon="6.01114">
        <ele>325.20001220703</ele>
        <time>2016-02-24T15:03:40Z</time>
      </trkpt>
      <trkpt lat="43.43492" lon="6.01115">
        <ele>325</ele>
        <time>2016-02-24T15:03:41Z</time>
      </trkpt>
      <trkpt lat="43.43491" lon="6.01116">
        <ele>324.79998779297</ele>
        <time>2016-02-24T15:03:42Z</time>
      </trkpt>
      <trkpt lat="43.43491" lon="6.01118">
        <ele>324.79998779297</ele>
        <time>2016-02-24T15:03:44Z</time>
      </trkpt>
      <trkpt lat="43.4349" lon="6.01119">
        <ele>324.79998779297</ele>
        <time>2016-02-24T15:03:45Z</time>
      </trkpt>
      <trkpt lat="43.4349" lon="6.0112">
        <ele>325</ele>
        <time>2016-02-24T15:03:46Z</time>
      </trkpt>
      <trkpt lat="43.43489" lon="6.01122">
        <ele>325</ele>
        <time>2016-02-24T15:03:48Z</time>
      </trkpt>
      <trkpt lat="43.43488" lon="6.01124">
        <ele>324.79998779297</ele>
        <time>2016-02-24T15:03:50Z</time>
      </trkpt>
      <trkpt lat="43.43487" lon="6.01127">
        <ele>325</ele>
        <time>2016-02-24T15:03:52Z</time>
      </trkpt>
      <trkpt lat="43.43486" lon="6.01129">
        <ele>324.79998779297</ele>
        <time>2016-02-24T15:03:54Z</time>
      </trkpt>
      <trkpt lat="43.43485" lon="6.01131">
        <ele>324.60000610352</ele>
        <time>2016-02-24T15:03:56Z</time>
      </trkpt>
      <trkpt lat="43.43483" lon="6.01132">
        <ele>324.79998779297</ele>
        <time>2016-02-24T15:03:58Z</time>
      </trkpt>
      <trkpt lat="43.43483" lon="6.01134">
        <ele>324.79998779297</ele>
        <time>2016-02-24T15:03:59Z</time>
      </trkpt>
      <trkpt lat="43.43482" lon="6.01135">
        <ele>324.60000610352</ele>
        <time>2016-02-24T15:04:00Z</time>
      </trkpt>
      <trkpt lat="43.43481" lon="6.01137">
        <ele>324.39999389648</ele>
        <time>2016-02-24T15:04:02Z</time>
      </trkpt>
      <trkpt lat="43.4348" lon="6.01138">
        <ele>324.60000610352</ele>
        <time>2016-02-24T15:04:03Z</time>
      </trkpt>
      <trkpt lat="43.4348" lon="6.01139">
        <ele>324.60000610352</ele>
        <time>2016-02-24T15:04:04Z</time>
      </trkpt>
      <trkpt lat="43.43479" lon="6.01142">
        <ele>324</ele>
        <time>2016-02-24T15:04:06Z</time>
      </trkpt>
      <trkpt lat="43.43478" lon="6.01144">
        <ele>323.79998779297</ele>
        <time>2016-02-24T15:04:08Z</time>
      </trkpt>
      <trkpt lat="43.43478" lon="6.01144">
        <ele>323.79998779297</ele>
        <time>2016-02-24T15:04:09Z</time>
      </trkpt>
      <trkpt lat="43.43478" lon="6.01145">
        <ele>323.60000610352</ele>
        <time>2016-02-24T15:04:10Z</time>
      </trkpt>
      <trkpt lat="43.43476" lon="6.01149">
        <ele>323.39999389648</ele>
        <time>2016-02-24T15:04:12Z</time>
      </trkpt>
      <trkpt lat="43.43475" lon="6.01152">
        <ele>323.39999389648</ele>
        <time>2016-02-24T15:04:14Z</time>
      </trkpt>
      <trkpt lat="43.43475" lon="6.01155">
        <ele>323.20001220703</ele>
        <time>2016-02-24T15:04:16Z</time>
      </trkpt>
      <trkpt lat="43.43474" lon="6.01158">
        <ele>323</ele>
        <time>2016-02-24T15:04:18Z</time>
      </trkpt>
      <trkpt lat="43.43474" lon="6.0116">
        <ele>322.79998779297</ele>
        <time>2016-02-24T15:04:20Z</time>
      </trkpt>
      <trkpt lat="43.43474" lon="6.0116">
        <ele>322.79998779297</ele>
        <time>2016-02-24T15:04:22Z</time>
      </trkpt>
      <trkpt lat="43.43474" lon="6.01161">
        <ele>322.60000610352</ele>
        <time>2016-02-24T15:04:24Z</time>
      </trkpt>
      <trkpt lat="43.43475" lon="6.01162">
        <ele>322.60000610352</ele>
        <time>2016-02-24T15:04:26Z</time>
      </trkpt>
      <trkpt lat="43.43475" lon="6.01162">
        <ele>322.60000610352</ele>
        <time>2016-02-24T15:04:28Z</time>
      </trkpt>
      <trkpt lat="43.43475" lon="6.01162">
        <ele>322.39999389648</ele>
        <time>2016-02-24T15:04:30Z</time>
      </trkpt>
      <trkpt lat="43.43475" lon="6.01162">
        <ele>322.60000610352</ele>
        <time>2016-02-24T15:04:32Z</time>
      </trkpt>
      <trkpt lat="43.43475" lon="6.01162">
        <ele>322.60000610352</ele>
        <time>2016-02-24T15:04:34Z</time>
      </trkpt>
      <trkpt lat="43.43475" lon="6.01164">
        <ele>322.39999389648</ele>
        <time>2016-02-24T15:04:36Z</time>
      </trkpt>
      <trkpt lat="43.43476" lon="6.01166">
        <ele>322.39999389648</ele>
        <time>2016-02-24T15:04:38Z</time>
      </trkpt>
      <trkpt lat="43.43476" lon="6.01168">
        <ele>322.20001220703</ele>
        <time>2016-02-24T15:04:39Z</time>
      </trkpt>
      <trkpt lat="43.43476" lon="6.0117">
        <ele>322.20001220703</ele>
        <time>2016-02-24T15:04:40Z</time>
      </trkpt>
      <trkpt lat="43.43476" lon="6.01172">
        <ele>322.20001220703</ele>
        <time>2016-02-24T15:04:42Z</time>
      </trkpt>
      <trkpt lat="43.43476" lon="6.01174">
        <ele>322.39999389648</ele>
        <time>2016-02-24T15:04:44Z</time>
      </trkpt>
      <trkpt lat="43.43476" lon="6.01176">
        <ele>322.39999389648</ele>
        <time>2016-02-24T15:04:45Z</time>
      </trkpt>
      <trkpt lat="43.43477" lon="6.01178">
        <ele>322.39999389648</ele>
        <time>2016-02-24T15:04:46Z</time>
      </trkpt>
      <trkpt lat="43.43477" lon="6.01183">
        <ele>322.20001220703</ele>
        <time>2016-02-24T15:04:48Z</time>
      </trkpt>
      <trkpt lat="43.43477" lon="6.01188">
        <ele>321.79998779297</ele>
        <time>2016-02-24T15:04:50Z</time>
      </trkpt>
      <trkpt lat="43.43477" lon="6.01192">
        <ele>321.60000610352</ele>
        <time>2016-02-24T15:04:51Z</time>
      </trkpt>
      <trkpt lat="43.43476" lon="6.01195">
        <ele>321.39999389648</ele>
        <time>2016-02-24T15:04:52Z</time>
      </trkpt>
      <trkpt lat="43.43477" lon="6.01201">
        <ele>321.39999389648</ele>
        <time>2016-02-24T15:04:54Z</time>
      </trkpt>
      <trkpt lat="43.43476" lon="6.01204">
        <ele>321</ele>
        <time>2016-02-24T15:04:56Z</time>
      </trkpt>
      <trkpt lat="43.43476" lon="6.01206">
        <ele>320.79998779297</ele>
        <time>2016-02-24T15:04:57Z</time>
      </trkpt>
      <trkpt lat="43.43476" lon="6.01208">
        <ele>320.79998779297</ele>
        <time>2016-02-24T15:04:58Z</time>
      </trkpt>
      <trkpt lat="43.43476" lon="6.01212">
        <ele>320.60000610352</ele>
        <time>2016-02-24T15:05:00Z</time>
      </trkpt>
      <trkpt lat="43.43476" lon="6.01216">
        <ele>320.79998779297</ele>
        <time>2016-02-24T15:05:02Z</time>
      </trkpt>
      <trkpt lat="43.43475" lon="6.01217">
        <ele>320.79998779297</ele>
        <time>2016-02-24T15:05:03Z</time>
      </trkpt>
      <trkpt lat="43.43475" lon="6.01218">
        <ele>320.79998779297</ele>
        <time>2016-02-24T15:05:04Z</time>
      </trkpt>
      <trkpt lat="43.43475" lon="6.01221">
        <ele>320.60000610352</ele>
        <time>2016-02-24T15:05:06Z</time>
      </trkpt>
      <trkpt lat="43.43475" lon="6.01224">
        <ele>320.39999389648</ele>
        <time>2016-02-24T15:05:08Z</time>
      </trkpt>
      <trkpt lat="43.43474" lon="6.01227">
        <ele>320</ele>
        <time>2016-02-24T15:05:10Z</time>
      </trkpt>
      <trkpt lat="43.43474" lon="6.01229">
        <ele>319.79998779297</ele>
        <time>2016-02-24T15:05:11Z</time>
      </trkpt>
      <trkpt lat="43.43474" lon="6.0123">
        <ele>319.79998779297</ele>
        <time>2016-02-24T15:05:12Z</time>
      </trkpt>
      <trkpt lat="43.43473" lon="6.01233">
        <ele>319.60000610352</ele>
        <time>2016-02-24T15:05:14Z</time>
      </trkpt>
      <trkpt lat="43.43473" lon="6.01235">
        <ele>319.39999389648</ele>
        <time>2016-02-24T15:05:15Z</time>
      </trkpt>
      <trkpt lat="43.43472" lon="6.01236">
        <ele>319.39999389648</ele>
        <time>2016-02-24T15:05:16Z</time>
      </trkpt>
      <trkpt lat="43.43471" lon="6.01237">
        <ele>319.39999389648</ele>
        <time>2016-02-24T15:05:17Z</time>
      </trkpt>
      <trkpt lat="43.43471" lon="6.01238">
        <ele>319.39999389648</ele>
        <time>2016-02-24T15:05:18Z</time>
      </trkpt>
      <trkpt lat="43.4347" lon="6.0124">
        <ele>319.39999389648</ele>
        <time>2016-02-24T15:05:20Z</time>
      </trkpt>
      <trkpt lat="43.43468" lon="6.01242">
        <ele>319.20001220703</ele>
        <time>2016-02-24T15:05:22Z</time>
      </trkpt>
      <trkpt lat="43.43466" lon="6.01244">
        <ele>319</ele>
        <time>2016-02-24T15:05:24Z</time>
      </trkpt>
      <trkpt lat="43.43465" lon="6.01246">
        <ele>318.79998779297</ele>
        <time>2016-02-24T15:05:26Z</time>
      </trkpt>
      <trkpt lat="43.43463" lon="6.01248">
        <ele>318.39999389648</ele>
        <time>2016-02-24T15:05:28Z</time>
      </trkpt>
      <trkpt lat="43.43461" lon="6.0125">
        <ele>318.39999389648</ele>
        <time>2016-02-24T15:05:30Z</time>
      </trkpt>
      <trkpt lat="43.4346" lon="6.01251">
        <ele>318.20001220703</ele>
        <time>2016-02-24T15:05:31Z</time>
      </trkpt>
      <trkpt lat="43.4346" lon="6.01252">
        <ele>318.20001220703</ele>
        <time>2016-02-24T15:05:32Z</time>
      </trkpt>
      <trkpt lat="43.43458" lon="6.01255">
        <ele>318.20001220703</ele>
        <time>2016-02-24T15:05:34Z</time>
      </trkpt>
      <trkpt lat="43.43457" lon="6.01258">
        <ele>318.39999389648</ele>
        <time>2016-02-24T15:05:36Z</time>
      </trkpt>
      <trkpt lat="43.43456" lon="6.01262">
        <ele>318.20001220703</ele>
        <time>2016-02-24T15:05:38Z</time>
      </trkpt>
      <trkpt lat="43.43454" lon="6.01265">
        <ele>318.20001220703</ele>
        <time>2016-02-24T15:05:40Z</time>
      </trkpt>
      <trkpt lat="43.43454" lon="6.01267">
        <ele>317.79998779297</ele>
        <time>2016-02-24T15:05:42Z</time>
      </trkpt>
      <trkpt lat="43.43454" lon="6.01269">
        <ele>317.60000610352</ele>
        <time>2016-02-24T15:05:44Z</time>
      </trkpt>
      <trkpt lat="43.43454" lon="6.01269">
        <ele>317.39999389648</ele>
        <time>2016-02-24T15:05:46Z</time>
      </trkpt>
      <trkpt lat="43.43454" lon="6.0127">
        <ele>317.39999389648</ele>
        <time>2016-02-24T15:05:48Z</time>
      </trkpt>
      <trkpt lat="43.43454" lon="6.01271">
        <ele>317.39999389648</ele>
        <time>2016-02-24T15:05:50Z</time>
      </trkpt>
      <trkpt lat="43.43454" lon="6.01271">
        <ele>317.39999389648</ele>
        <time>2016-02-24T15:05:52Z</time>
      </trkpt>
      <trkpt lat="43.43454" lon="6.01272">
        <ele>317.39999389648</ele>
        <time>2016-02-24T15:05:54Z</time>
      </trkpt>
      <trkpt lat="43.43454" lon="6.01275">
        <ele>317.39999389648</ele>
        <time>2016-02-24T15:05:56Z</time>
      </trkpt>
      <trkpt lat="43.43454" lon="6.01276">
        <ele>317</ele>
        <time>2016-02-24T15:05:58Z</time>
      </trkpt>
      <trkpt lat="43.43454" lon="6.01279">
        <ele>316.79998779297</ele>
        <time>2016-02-24T15:06:00Z</time>
      </trkpt>
      <trkpt lat="43.43453" lon="6.01281">
        <ele>316.60000610352</ele>
        <time>2016-02-24T15:06:02Z</time>
      </trkpt>
      <trkpt lat="43.43452" lon="6.01285">
        <ele>316</ele>
        <time>2016-02-24T15:06:04Z</time>
      </trkpt>
      <trkpt lat="43.43452" lon="6.01288">
        <ele>315.60000610352</ele>
        <time>2016-02-24T15:06:06Z</time>
      </trkpt>
      <trkpt lat="43.43452" lon="6.0129">
        <ele>315.60000610352</ele>
        <time>2016-02-24T15:06:07Z</time>
      </trkpt>
      <trkpt lat="43.43451" lon="6.01291">
        <ele>315.60000610352</ele>
        <time>2016-02-24T15:06:08Z</time>
      </trkpt>
      <trkpt lat="43.43451" lon="6.01292">
        <ele>315.39999389648</ele>
        <time>2016-02-24T15:06:09Z</time>
      </trkpt>
      <trkpt lat="43.43451" lon="6.01293">
        <ele>315</ele>
        <time>2016-02-24T15:06:10Z</time>
      </trkpt>
      <trkpt lat="43.43451" lon="6.01294">
        <ele>314.79998779297</ele>
        <time>2016-02-24T15:06:12Z</time>
      </trkpt>
      <trkpt lat="43.4345" lon="6.01295">
        <ele>315</ele>
        <time>2016-02-24T15:06:14Z</time>
      </trkpt>
      <trkpt lat="43.4345" lon="6.01296">
        <ele>315</ele>
        <time>2016-02-24T15:06:15Z</time>
      </trkpt>
      <trkpt lat="43.4345" lon="6.01297">
        <ele>315</ele>
        <time>2016-02-24T15:06:16Z</time>
      </trkpt>
      <trkpt lat="43.43449" lon="6.01298">
        <ele>314.79998779297</ele>
        <time>2016-02-24T15:06:18Z</time>
      </trkpt>
      <trkpt lat="43.43447" lon="6.01301">
        <ele>314.60000610352</ele>
        <time>2016-02-24T15:06:20Z</time>
      </trkpt>
      <trkpt lat="43.43447" lon="6.01302">
        <ele>314.39999389648</ele>
        <time>2016-02-24T15:06:21Z</time>
      </trkpt>
      <trkpt lat="43.43446" lon="6.01302">
        <ele>314.20001220703</ele>
        <time>2016-02-24T15:06:22Z</time>
      </trkpt>
      <trkpt lat="43.43446" lon="6.01302">
        <ele>314</ele>
        <time>2016-02-24T15:06:24Z</time>
      </trkpt>
      <trkpt lat="43.43446" lon="6.01302">
        <ele>313.79998779297</ele>
        <time>2016-02-24T15:06:26Z</time>
      </trkpt>
      <trkpt lat="43.43446" lon="6.01303">
        <ele>314.20001220703</ele>
        <time>2016-02-24T15:06:28Z</time>
      </trkpt>
      <trkpt lat="43.43446" lon="6.01303">
        <ele>314</ele>
        <time>2016-02-24T15:06:30Z</time>
      </trkpt>
      <trkpt lat="43.43446" lon="6.01303">
        <ele>314</ele>
        <time>2016-02-24T15:06:32Z</time>
      </trkpt>
      <trkpt lat="43.43445" lon="6.01304">
        <ele>314</ele>
        <time>2016-02-24T15:06:34Z</time>
      </trkpt>
      <trkpt lat="43.43444" lon="6.01306">
        <ele>314</ele>
        <time>2016-02-24T15:06:36Z</time>
      </trkpt>
      <trkpt lat="43.43443" lon="6.01309">
        <ele>313.79998779297</ele>
        <time>2016-02-24T15:06:38Z</time>
      </trkpt>
      <trkpt lat="43.43442" lon="6.01314">
        <ele>313.60000610352</ele>
        <time>2016-02-24T15:06:40Z</time>
      </trkpt>
      <trkpt lat="43.43441" lon="6.01317">
        <ele>313.39999389648</ele>
        <time>2016-02-24T15:06:41Z</time>
      </trkpt>
      <trkpt lat="43.4344" lon="6.0132">
        <ele>312.60000610352</ele>
        <time>2016-02-24T15:06:42Z</time>
      </trkpt>
      <trkpt lat="43.43435" lon="6.01327">
        <ele>312.79998779297</ele>
        <time>2016-02-24T15:06:44Z</time>
      </trkpt>
      <trkpt lat="43.43431" lon="6.0133">
        <ele>312.39999389648</ele>
        <time>2016-02-24T15:06:45Z</time>
      </trkpt>
      <trkpt lat="43.43428" lon="6.01334">
        <ele>312</ele>
        <time>2016-02-24T15:06:46Z</time>
      </trkpt>
      <trkpt lat="43.43425" lon="6.01338">
        <ele>311.39999389648</ele>
        <time>2016-02-24T15:06:47Z</time>
      </trkpt>
      <trkpt lat="43.43423" lon="6.01342">
        <ele>311.39999389648</ele>
        <time>2016-02-24T15:06:48Z</time>
      </trkpt>
      <trkpt lat="43.43422" lon="6.01348">
        <ele>311.20001220703</ele>
        <time>2016-02-24T15:06:49Z</time>
      </trkpt>
      <trkpt lat="43.43423" lon="6.01354">
        <ele>310.60000610352</ele>
        <time>2016-02-24T15:06:50Z</time>
      </trkpt>
      <trkpt lat="43.43424" lon="6.01361">
        <ele>310.39999389648</ele>
        <time>2016-02-24T15:06:51Z</time>
      </trkpt>
      <trkpt lat="43.43426" lon="6.01367">
        <ele>310</ele>
        <time>2016-02-24T15:06:52Z</time>
      </trkpt>
      <trkpt lat="43.43427" lon="6.01374">
        <ele>309.39999389648</ele>
        <time>2016-02-24T15:06:53Z</time>
      </trkpt>
      <trkpt lat="43.43428" lon="6.01381">
        <ele>308.79998779297</ele>
        <time>2016-02-24T15:06:54Z</time>
      </trkpt>
      <trkpt lat="43.4343" lon="6.01395">
        <ele>308.60000610352</ele>
        <time>2016-02-24T15:06:56Z</time>
      </trkpt>
      <trkpt lat="43.4343" lon="6.01403">
        <ele>307.60000610352</ele>
        <time>2016-02-24T15:06:57Z</time>
      </trkpt>
      <trkpt lat="43.4343" lon="6.0141">
        <ele>306.79998779297</ele>
        <time>2016-02-24T15:06:58Z</time>
      </trkpt>
      <trkpt lat="43.43431" lon="6.01427">
        <ele>306.39999389648</ele>
        <time>2016-02-24T15:07:00Z</time>
      </trkpt>
      <trkpt lat="43.43431" lon="6.01443">
        <ele>306</ele>
        <time>2016-02-24T15:07:02Z</time>
      </trkpt>
      <trkpt lat="43.43431" lon="6.01452">
        <ele>304.79998779297</ele>
        <time>2016-02-24T15:07:03Z</time>
      </trkpt>
      <trkpt lat="43.43431" lon="6.01459">
        <ele>304.39999389648</ele>
        <time>2016-02-24T15:07:04Z</time>
      </trkpt>
      <trkpt lat="43.43433" lon="6.01468">
        <ele>303.39999389648</ele>
        <time>2016-02-24T15:07:05Z</time>
      </trkpt>
      <trkpt lat="43.43435" lon="6.01475">
        <ele>303.39999389648</ele>
        <time>2016-02-24T15:07:06Z</time>
      </trkpt>
      <trkpt lat="43.43438" lon="6.0149">
        <ele>304</ele>
        <time>2016-02-24T15:07:08Z</time>
      </trkpt>
      <trkpt lat="43.43439" lon="6.01499">
        <ele>303</ele>
        <time>2016-02-24T15:07:09Z</time>
      </trkpt>
      <trkpt lat="43.43441" lon="6.01506">
        <ele>301</ele>
        <time>2016-02-24T15:07:10Z</time>
      </trkpt>
      <trkpt lat="43.43446" lon="6.0152">
        <ele>301.60000610352</ele>
        <time>2016-02-24T15:07:12Z</time>
      </trkpt>
      <trkpt lat="43.4345" lon="6.01526">
        <ele>302</ele>
        <time>2016-02-24T15:07:13Z</time>
      </trkpt>
      <trkpt lat="43.43453" lon="6.0153">
        <ele>301.20001220703</ele>
        <time>2016-02-24T15:07:14Z</time>
      </trkpt>
      <trkpt lat="43.43458" lon="6.01531">
        <ele>300.79998779297</ele>
        <time>2016-02-24T15:07:15Z</time>
      </trkpt>
      <trkpt lat="43.43462" lon="6.01531">
        <ele>300.39999389648</ele>
        <time>2016-02-24T15:07:16Z</time>
      </trkpt>
      <trkpt lat="43.43473" lon="6.01532">
        <ele>300.20001220703</ele>
        <time>2016-02-24T15:07:18Z</time>
      </trkpt>
      <trkpt lat="43.43477" lon="6.01534">
        <ele>299.60000610352</ele>
        <time>2016-02-24T15:07:19Z</time>
      </trkpt>
      <trkpt lat="43.43481" lon="6.01536">
        <ele>298.79998779297</ele>
        <time>2016-02-24T15:07:20Z</time>
      </trkpt>
      <trkpt lat="43.43486" lon="6.01537">
        <ele>298</ele>
        <time>2016-02-24T15:07:21Z</time>
      </trkpt>
      <trkpt lat="43.43491" lon="6.01537">
        <ele>297.60000610352</ele>
        <time>2016-02-24T15:07:22Z</time>
      </trkpt>
      <trkpt lat="43.43497" lon="6.01535">
        <ele>297.79998779297</ele>
        <time>2016-02-24T15:07:23Z</time>
      </trkpt>
      <trkpt lat="43.43504" lon="6.01534">
        <ele>298</ele>
        <time>2016-02-24T15:07:24Z</time>
      </trkpt>
      <trkpt lat="43.43515" lon="6.01537">
        <ele>297.39999389648</ele>
        <time>2016-02-24T15:07:26Z</time>
      </trkpt>
      <trkpt lat="43.4352" lon="6.0154">
        <ele>296.60000610352</ele>
        <time>2016-02-24T15:07:27Z</time>
      </trkpt>
      <trkpt lat="43.43525" lon="6.01542">
        <ele>295.79998779297</ele>
        <time>2016-02-24T15:07:28Z</time>
      </trkpt>
      <trkpt lat="43.43529" lon="6.01544">
        <ele>295.60000610352</ele>
        <time>2016-02-24T15:07:29Z</time>
      </trkpt>
      <trkpt lat="43.43532" lon="6.01545">
        <ele>295.39999389648</ele>
        <time>2016-02-24T15:07:30Z</time>
      </trkpt>
      <trkpt lat="43.43534" lon="6.01546">
        <ele>295.39999389648</ele>
        <time>2016-02-24T15:07:32Z</time>
      </trkpt>
      <trkpt lat="43.43534" lon="6.01546">
        <ele>295.39999389648</ele>
        <time>2016-02-24T15:07:34Z</time>
      </trkpt>
      <trkpt lat="43.43534" lon="6.01546">
        <ele>295.39999389648</ele>
        <time>2016-02-24T15:07:36Z</time>
      </trkpt>
      <trkpt lat="43.43534" lon="6.01546">
        <ele>295.20001220703</ele>
        <time>2016-02-24T15:07:38Z</time>
      </trkpt>
      <trkpt lat="43.43534" lon="6.01546">
        <ele>295</ele>
        <time>2016-02-24T15:07:40Z</time>
      </trkpt>
      <trkpt lat="43.43534" lon="6.01546">
        <ele>295</ele>
        <time>2016-02-24T15:07:42Z</time>
      </trkpt>
      <trkpt lat="43.43534" lon="6.01546">
        <ele>295.20001220703</ele>
        <time>2016-02-24T15:07:44Z</time>
      </trkpt>
      <trkpt lat="43.43534" lon="6.01546">
        <ele>295.20001220703</ele>
        <time>2016-02-24T15:07:46Z</time>
      </trkpt>
      <trkpt lat="43.43534" lon="6.01546">
        <ele>295.20001220703</ele>
        <time>2016-02-24T15:07:48Z</time>
      </trkpt>
      <trkpt lat="43.43534" lon="6.01546">
        <ele>295.20001220703</ele>
        <time>2016-02-24T15:07:50Z</time>
      </trkpt>
      <trkpt lat="43.43534" lon="6.01546">
        <ele>295</ele>
        <time>2016-02-24T15:07:52Z</time>
      </trkpt>
      <trkpt lat="43.43534" lon="6.01546">
        <ele>295</ele>
        <time>2016-02-24T15:07:54Z</time>
      </trkpt>
      <trkpt lat="43.43535" lon="6.01546">
        <ele>295.20001220703</ele>
        <time>2016-02-24T15:07:56Z</time>
      </trkpt>
      <trkpt lat="43.43535" lon="6.01546">
        <ele>295.20001220703</ele>
        <time>2016-02-24T15:07:58Z</time>
      </trkpt>
      <trkpt lat="43.43534" lon="6.01546">
        <ele>295.20001220703</ele>
        <time>2016-02-24T15:08:00Z</time>
      </trkpt>
      <trkpt lat="43.43534" lon="6.01546">
        <ele>295.39999389648</ele>
        <time>2016-02-24T15:08:02Z</time>
      </trkpt>
      <trkpt lat="43.43535" lon="6.01546">
        <ele>295.20001220703</ele>
        <time>2016-02-24T15:08:04Z</time>
      </trkpt>
      <trkpt lat="43.43535" lon="6.01546">
        <ele>295.39999389648</ele>
        <time>2016-02-24T15:08:06Z</time>
      </trkpt>
      <trkpt lat="43.43535" lon="6.01546">
        <ele>295.39999389648</ele>
        <time>2016-02-24T15:08:07Z</time>
      </trkpt>
      <trkpt lat="43.43535" lon="6.01546">
        <ele>295.39999389648</ele>
        <time>2016-02-24T15:08:08Z</time>
      </trkpt>
      <trkpt lat="43.43535" lon="6.01546">
        <ele>295.39999389648</ele>
        <time>2016-02-24T15:08:10Z</time>
      </trkpt>
      <trkpt lat="43.43534" lon="6.01546">
        <ele>295.39999389648</ele>
        <time>2016-02-24T15:08:12Z</time>
      </trkpt>
      <trkpt lat="43.43534" lon="6.01546">
        <ele>295.20001220703</ele>
        <time>2016-02-24T15:08:14Z</time>
      </trkpt>
      <trkpt lat="43.43534" lon="6.01546">
        <ele>295.39999389648</ele>
        <time>2016-02-24T15:08:16Z</time>
      </trkpt>
      <trkpt lat="43.43534" lon="6.01546">
        <ele>295.39999389648</ele>
        <time>2016-02-24T15:08:18Z</time>
      </trkpt>
      <trkpt lat="43.43534" lon="6.01546">
        <ele>295.20001220703</ele>
        <time>2016-02-24T15:08:20Z</time>
      </trkpt>
      <trkpt lat="43.43534" lon="6.01546">
        <ele>295.39999389648</ele>
        <time>2016-02-24T15:08:22Z</time>
      </trkpt>
      <trkpt lat="43.43535" lon="6.01546">
        <ele>295.20001220703</ele>
        <time>2016-02-24T15:08:24Z</time>
      </trkpt>
      <trkpt lat="43.43534" lon="6.01546">
        <ele>295.39999389648</ele>
        <time>2016-02-24T15:08:26Z</time>
      </trkpt>
      <trkpt lat="43.43534" lon="6.01546">
        <ele>295.20001220703</ele>
        <time>2016-02-24T15:08:28Z</time>
      </trkpt>
      <trkpt lat="43.43534" lon="6.01546">
        <ele>295.20001220703</ele>
        <time>2016-02-24T15:08:30Z</time>
      </trkpt>
      <trkpt lat="43.43534" lon="6.01546">
        <ele>295.20001220703</ele>
        <time>2016-02-24T15:08:32Z</time>
      </trkpt>
      <trkpt lat="43.43534" lon="6.01546">
        <ele>295.20001220703</ele>
        <time>2016-02-24T15:08:34Z</time>
      </trkpt>
      <trkpt lat="43.43535" lon="6.01546">
        <ele>295.39999389648</ele>
        <time>2016-02-24T15:08:36Z</time>
      </trkpt>
      <trkpt lat="43.43535" lon="6.01546">
        <ele>295.20001220703</ele>
        <time>2016-02-24T15:08:38Z</time>
      </trkpt>
      <trkpt lat="43.43535" lon="6.01546">
        <ele>295.39999389648</ele>
        <time>2016-02-24T15:08:40Z</time>
      </trkpt>
      <trkpt lat="43.43535" lon="6.01546">
        <ele>295.39999389648</ele>
        <time>2016-02-24T15:08:42Z</time>
      </trkpt>
      <trkpt lat="43.43535" lon="6.01547">
        <ele>295.20001220703</ele>
        <time>2016-02-24T15:08:44Z</time>
      </trkpt>
      <trkpt lat="43.43535" lon="6.01546">
        <ele>295.20001220703</ele>
        <time>2016-02-24T15:08:46Z</time>
      </trkpt>
      <trkpt lat="43.43535" lon="6.01547">
        <ele>295.39999389648</ele>
        <time>2016-02-24T15:08:48Z</time>
      </trkpt>
      <trkpt lat="43.43535" lon="6.01547">
        <ele>295.39999389648</ele>
        <time>2016-02-24T15:08:50Z</time>
      </trkpt>
      <trkpt lat="43.43535" lon="6.01547">
        <ele>295.39999389648</ele>
        <time>2016-02-24T15:08:52Z</time>
      </trkpt>
      <trkpt lat="43.43535" lon="6.01547">
        <ele>295.20001220703</ele>
        <time>2016-02-24T15:08:54Z</time>
      </trkpt>
      <trkpt lat="43.43535" lon="6.01547">
        <ele>295.20001220703</ele>
        <time>2016-02-24T15:08:56Z</time>
      </trkpt>
      <trkpt lat="43.43535" lon="6.01547">
        <ele>295.20001220703</ele>
        <time>2016-02-24T15:08:58Z</time>
      </trkpt>
      <trkpt lat="43.43535" lon="6.01547">
        <ele>295.20001220703</ele>
        <time>2016-02-24T15:09:00Z</time>
      </trkpt>
      <trkpt lat="43.43535" lon="6.01547">
        <ele>295.20001220703</ele>
        <time>2016-02-24T15:09:02Z</time>
      </trkpt>
      <trkpt lat="43.43535" lon="6.01547">
        <ele>295.20001220703</ele>
        <time>2016-02-24T15:09:04Z</time>
      </trkpt>
      <trkpt lat="43.43535" lon="6.01547">
        <ele>295.39999389648</ele>
        <time>2016-02-24T15:09:06Z</time>
      </trkpt>
      <trkpt lat="43.43535" lon="6.01547">
        <ele>295.20001220703</ele>
        <time>2016-02-24T15:09:08Z</time>
      </trkpt>
      <trkpt lat="43.43535" lon="6.01547">
        <ele>295</ele>
        <time>2016-02-24T15:09:10Z</time>
      </trkpt>
      <trkpt lat="43.43535" lon="6.01547">
        <ele>295</ele>
        <time>2016-02-24T15:09:12Z</time>
      </trkpt>
      <trkpt lat="43.43535" lon="6.01547">
        <ele>295.20001220703</ele>
        <time>2016-02-24T15:09:14Z</time>
      </trkpt>
      <trkpt lat="43.43535" lon="6.01547">
        <ele>295</ele>
        <time>2016-02-24T15:09:16Z</time>
      </trkpt>
      <trkpt lat="43.43535" lon="6.01547">
        <ele>295.20001220703</ele>
        <time>2016-02-24T15:09:18Z</time>
      </trkpt>
      <trkpt lat="43.43535" lon="6.01547">
        <ele>295</ele>
        <time>2016-02-24T15:09:20Z</time>
      </trkpt>
      <trkpt lat="43.43535" lon="6.01547">
        <ele>295.20001220703</ele>
        <time>2016-02-24T15:09:22Z</time>
      </trkpt>
      <trkpt lat="43.43535" lon="6.01547">
        <ele>295</ele>
        <time>2016-02-24T15:09:24Z</time>
      </trkpt>
      <trkpt lat="43.43535" lon="6.01547">
        <ele>295</ele>
        <time>2016-02-24T15:09:26Z</time>
      </trkpt>
      <trkpt lat="43.43535" lon="6.01547">
        <ele>295.20001220703</ele>
        <time>2016-02-24T15:09:28Z</time>
      </trkpt>
      <trkpt lat="43.43535" lon="6.01547">
        <ele>295.20001220703</ele>
        <time>2016-02-24T15:09:30Z</time>
      </trkpt>
      <trkpt lat="43.43535" lon="6.01547">
        <ele>295.39999389648</ele>
        <time>2016-02-24T15:09:32Z</time>
      </trkpt>
      <trkpt lat="43.43535" lon="6.01547">
        <ele>295.20001220703</ele>
        <time>2016-02-24T15:09:34Z</time>
      </trkpt>
      <trkpt lat="43.43535" lon="6.01547">
        <ele>295.39999389648</ele>
        <time>2016-02-24T15:09:36Z</time>
      </trkpt>
      <trkpt lat="43.43535" lon="6.01547">
        <ele>295.39999389648</ele>
        <time>2016-02-24T15:09:37Z</time>
      </trkpt>
      <trkpt lat="43.43535" lon="6.01547">
        <ele>295.39999389648</ele>
        <time>2016-02-24T15:09:38Z</time>
      </trkpt>
      <trkpt lat="43.43535" lon="6.01547">
        <ele>295.39999389648</ele>
        <time>2016-02-24T15:09:40Z</time>
      </trkpt>
      <trkpt lat="43.43536" lon="6.01546">
        <ele>295.39999389648</ele>
        <time>2016-02-24T15:09:42Z</time>
      </trkpt>
      <trkpt lat="43.43537" lon="6.01546">
        <ele>295.39999389648</ele>
        <time>2016-02-24T15:09:43Z</time>
      </trkpt>
      <trkpt lat="43.43538" lon="6.01547">
        <ele>295.39999389648</ele>
        <time>2016-02-24T15:09:44Z</time>
      </trkpt>
      <trkpt lat="43.4354" lon="6.01547">
        <ele>295.79998779297</ele>
        <time>2016-02-24T15:09:45Z</time>
      </trkpt>
      <trkpt lat="43.43541" lon="6.01548">
        <ele>295.79998779297</ele>
        <time>2016-02-24T15:09:46Z</time>
      </trkpt>
      <trkpt lat="43.43544" lon="6.0155">
        <ele>295.39999389648</ele>
        <time>2016-02-24T15:09:48Z</time>
      </trkpt>
      <trkpt lat="43.43547" lon="6.01549">
        <ele>295</ele>
        <time>2016-02-24T15:09:50Z</time>
      </trkpt>
      <trkpt lat="43.43549" lon="6.01549">
        <ele>294.79998779297</ele>
        <time>2016-02-24T15:09:51Z</time>
      </trkpt>
      <trkpt lat="43.4355" lon="6.01549">
        <ele>294.60000610352</ele>
        <time>2016-02-24T15:09:52Z</time>
      </trkpt>
      <trkpt lat="43.43554" lon="6.01549">
        <ele>295.20001220703</ele>
        <time>2016-02-24T15:09:54Z</time>
      </trkpt>
      <trkpt lat="43.43559" lon="6.0155">
        <ele>294.60000610352</ele>
        <time>2016-02-24T15:09:56Z</time>
      </trkpt>
      <trkpt lat="43.43562" lon="6.0155">
        <ele>294.39999389648</ele>
        <time>2016-02-24T15:09:57Z</time>
      </trkpt>
      <trkpt lat="43.43565" lon="6.01551">
        <ele>294.60000610352</ele>
        <time>2016-02-24T15:09:58Z</time>
      </trkpt>
      <trkpt lat="43.43573" lon="6.01553">
        <ele>294.20001220703</ele>
        <time>2016-02-24T15:10:00Z</time>
      </trkpt>
      <trkpt lat="43.4358" lon="6.01554">
        <ele>293.39999389648</ele>
        <time>2016-02-24T15:10:02Z</time>
      </trkpt>
      <trkpt lat="43.43588" lon="6.01557">
        <ele>292.39999389648</ele>
        <time>2016-02-24T15:10:04Z</time>
      </trkpt>
      <trkpt lat="43.43592" lon="6.0156">
        <ele>292.20001220703</ele>
        <time>2016-02-24T15:10:05Z</time>
      </trkpt>
      <trkpt lat="43.43596" lon="6.01563">
        <ele>291.60000610352</ele>
        <time>2016-02-24T15:10:06Z</time>
      </trkpt>
      <trkpt lat="43.436" lon="6.01565">
        <ele>291.20001220703</ele>
        <time>2016-02-24T15:10:07Z</time>
      </trkpt>
      <trkpt lat="43.43604" lon="6.01568">
        <ele>291</ele>
        <time>2016-02-24T15:10:08Z</time>
      </trkpt>
      <trkpt lat="43.43612" lon="6.01575">
        <ele>291.79998779297</ele>
        <time>2016-02-24T15:10:10Z</time>
      </trkpt>
      <trkpt lat="43.4362" lon="6.01583">
        <ele>292.20001220703</ele>
        <time>2016-02-24T15:10:12Z</time>
      </trkpt>
      <trkpt lat="43.43624" lon="6.01588">
        <ele>292</ele>
        <time>2016-02-24T15:10:13Z</time>
      </trkpt>
      <trkpt lat="43.43627" lon="6.01592">
        <ele>291.20001220703</ele>
        <time>2016-02-24T15:10:14Z</time>
      </trkpt>
      <trkpt lat="43.43632" lon="6.01605">
        <ele>291</ele>
        <time>2016-02-24T15:10:16Z</time>
      </trkpt>
      <trkpt lat="43.43634" lon="6.01612">
        <ele>290.60000610352</ele>
        <time>2016-02-24T15:10:17Z</time>
      </trkpt>
      <trkpt lat="43.43636" lon="6.01618">
        <ele>291</ele>
        <time>2016-02-24T15:10:18Z</time>
      </trkpt>
      <trkpt lat="43.43642" lon="6.0163">
        <ele>290.39999389648</ele>
        <time>2016-02-24T15:10:20Z</time>
      </trkpt>
      <trkpt lat="43.43647" lon="6.01636">
        <ele>290</ele>
        <time>2016-02-24T15:10:21Z</time>
      </trkpt>
      <trkpt lat="43.4365" lon="6.0164">
        <ele>290</ele>
        <time>2016-02-24T15:10:22Z</time>
      </trkpt>
      <trkpt lat="43.43662" lon="6.01645">
        <ele>290</ele>
        <time>2016-02-24T15:10:24Z</time>
      </trkpt>
      <trkpt lat="43.43673" lon="6.01649">
        <ele>288.79998779297</ele>
        <time>2016-02-24T15:10:26Z</time>
      </trkpt>
      <trkpt lat="43.43683" lon="6.01651">
        <ele>288.20001220703</ele>
        <time>2016-02-24T15:10:28Z</time>
      </trkpt>
      <trkpt lat="43.43688" lon="6.01652">
        <ele>288</ele>
        <time>2016-02-24T15:10:29Z</time>
      </trkpt>
      <trkpt lat="43.43692" lon="6.01654">
        <ele>288.20001220703</ele>
        <time>2016-02-24T15:10:30Z</time>
      </trkpt>
      <trkpt lat="43.437" lon="6.01662">
        <ele>287.39999389648</ele>
        <time>2016-02-24T15:10:32Z</time>
      </trkpt>
      <trkpt lat="43.43708" lon="6.01671">
        <ele>287.20001220703</ele>
        <time>2016-02-24T15:10:34Z</time>
      </trkpt>
      <trkpt lat="43.43713" lon="6.01675">
        <ele>286.60000610352</ele>
        <time>2016-02-24T15:10:35Z</time>
      </trkpt>
      <trkpt lat="43.43718" lon="6.01679">
        <ele>286.39999389648</ele>
        <time>2016-02-24T15:10:36Z</time>
      </trkpt>
      <trkpt lat="43.43723" lon="6.01682">
        <ele>286</ele>
        <time>2016-02-24T15:10:37Z</time>
      </trkpt>
      <trkpt lat="43.43729" lon="6.01685">
        <ele>285.60000610352</ele>
        <time>2016-02-24T15:10:38Z</time>
      </trkpt>
      <trkpt lat="43.43734" lon="6.01687">
        <ele>285.39999389648</ele>
        <time>2016-02-24T15:10:39Z</time>
      </trkpt>
      <trkpt lat="43.43739" lon="6.01689">
        <ele>285</ele>
        <time>2016-02-24T15:10:40Z</time>
      </trkpt>
      <trkpt lat="43.43746" lon="6.0169">
        <ele>284.39999389648</ele>
        <time>2016-02-24T15:10:42Z</time>
      </trkpt>
      <trkpt lat="43.43747" lon="6.01691">
        <ele>284.20001220703</ele>
        <time>2016-02-24T15:10:43Z</time>
      </trkpt>
      <trkpt lat="43.43748" lon="6.0169">
        <ele>284.20001220703</ele>
        <time>2016-02-24T15:10:44Z</time>
      </trkpt>
      <trkpt lat="43.43748" lon="6.01691">
        <ele>284</ele>
        <time>2016-02-24T15:10:45Z</time>
      </trkpt>
      <trkpt lat="43.43748" lon="6.01691">
        <ele>284</ele>
        <time>2016-02-24T15:10:46Z</time>
      </trkpt>
      <trkpt lat="43.43748" lon="6.01691">
        <ele>283.79998779297</ele>
        <time>2016-02-24T15:10:48Z</time>
      </trkpt>
      <trkpt lat="43.43748" lon="6.01691">
        <ele>283.79998779297</ele>
        <time>2016-02-24T15:10:50Z</time>
      </trkpt>
      <trkpt lat="43.43748" lon="6.01691">
        <ele>283.79998779297</ele>
        <time>2016-02-24T15:10:52Z</time>
      </trkpt>
      <trkpt lat="43.43748" lon="6.01691">
        <ele>283.79998779297</ele>
        <time>2016-02-24T15:10:54Z</time>
      </trkpt>
      <trkpt lat="43.43748" lon="6.01691">
        <ele>283.79998779297</ele>
        <time>2016-02-24T15:10:56Z</time>
      </trkpt>
      <trkpt lat="43.43748" lon="6.01691">
        <ele>283.79998779297</ele>
        <time>2016-02-24T15:10:58Z</time>
      </trkpt>
      <trkpt lat="43.43748" lon="6.01691">
        <ele>283.79998779297</ele>
        <time>2016-02-24T15:11:00Z</time>
      </trkpt>
      <trkpt lat="43.43748" lon="6.01691">
        <ele>283.79998779297</ele>
        <time>2016-02-24T15:11:02Z</time>
      </trkpt>
      <trkpt lat="43.43748" lon="6.01691">
        <ele>283.79998779297</ele>
        <time>2016-02-24T15:11:04Z</time>
      </trkpt>
      <trkpt lat="43.43748" lon="6.01691">
        <ele>284</ele>
        <time>2016-02-24T15:11:06Z</time>
      </trkpt>
      <trkpt lat="43.43748" lon="6.01691">
        <ele>284</ele>
        <time>2016-02-24T15:11:08Z</time>
      </trkpt>
      <trkpt lat="43.43748" lon="6.01691">
        <ele>284</ele>
        <time>2016-02-24T15:11:10Z</time>
      </trkpt>
      <trkpt lat="43.43748" lon="6.01691">
        <ele>284.20001220703</ele>
        <time>2016-02-24T15:11:12Z</time>
      </trkpt>
      <trkpt lat="43.43748" lon="6.01691">
        <ele>284.20001220703</ele>
        <time>2016-02-24T15:11:14Z</time>
      </trkpt>
      <trkpt lat="43.43748" lon="6.01691">
        <ele>284</ele>
        <time>2016-02-24T15:11:16Z</time>
      </trkpt>
      <trkpt lat="43.43748" lon="6.01691">
        <ele>284.39999389648</ele>
        <time>2016-02-24T15:11:18Z</time>
      </trkpt>
      <trkpt lat="43.43748" lon="6.01691">
        <ele>284.39999389648</ele>
        <time>2016-02-24T15:11:20Z</time>
      </trkpt>
      <trkpt lat="43.43748" lon="6.01691">
        <ele>284.20001220703</ele>
        <time>2016-02-24T15:11:22Z</time>
      </trkpt>
      <trkpt lat="43.43751" lon="6.01691">
        <ele>284</ele>
        <time>2016-02-24T15:11:24Z</time>
      </trkpt>
      <trkpt lat="43.43753" lon="6.01692">
        <ele>284.20001220703</ele>
        <time>2016-02-24T15:11:25Z</time>
      </trkpt>
      <trkpt lat="43.43755" lon="6.01693">
        <ele>284.20001220703</ele>
        <time>2016-02-24T15:11:26Z</time>
      </trkpt>
      <trkpt lat="43.43761" lon="6.01696">
        <ele>283.60000610352</ele>
        <time>2016-02-24T15:11:28Z</time>
      </trkpt>
      <trkpt lat="43.4377" lon="6.01699">
        <ele>282.79998779297</ele>
        <time>2016-02-24T15:11:30Z</time>
      </trkpt>
      <trkpt lat="43.43779" lon="6.01702">
        <ele>283</ele>
        <time>2016-02-24T15:11:32Z</time>
      </trkpt>
      <trkpt lat="43.43787" lon="6.01703">
        <ele>282.60000610352</ele>
        <time>2016-02-24T15:11:34Z</time>
      </trkpt>
      <trkpt lat="43.4379" lon="6.01703">
        <ele>282.20001220703</ele>
        <time>2016-02-24T15:11:35Z</time>
      </trkpt>
      <trkpt lat="43.43793" lon="6.01703">
        <ele>282</ele>
        <time>2016-02-24T15:11:36Z</time>
      </trkpt>
      <trkpt lat="43.43797" lon="6.01702">
        <ele>281.79998779297</ele>
        <time>2016-02-24T15:11:37Z</time>
      </trkpt>
      <trkpt lat="43.438" lon="6.01701">
        <ele>281.79998779297</ele>
        <time>2016-02-24T15:11:38Z</time>
      </trkpt>
      <trkpt lat="43.43809" lon="6.01699">
        <ele>281.60000610352</ele>
        <time>2016-02-24T15:11:40Z</time>
      </trkpt>
      <trkpt lat="43.43818" lon="6.01696">
        <ele>281.60000610352</ele>
        <time>2016-02-24T15:11:42Z</time>
      </trkpt>
      <trkpt lat="43.43826" lon="6.01691">
        <ele>281.39999389648</ele>
        <time>2016-02-24T15:11:44Z</time>
      </trkpt>
      <trkpt lat="43.43833" lon="6.01687">
        <ele>280.79998779297</ele>
        <time>2016-02-24T15:11:46Z</time>
      </trkpt>
      <trkpt lat="43.4384" lon="6.01681">
        <ele>280.39999389648</ele>
        <time>2016-02-24T15:11:48Z</time>
      </trkpt>
      <trkpt lat="43.43847" lon="6.01675">
        <ele>280.39999389648</ele>
        <time>2016-02-24T15:11:50Z</time>
      </trkpt>
      <trkpt lat="43.43851" lon="6.01671">
        <ele>280.39999389648</ele>
        <time>2016-02-24T15:11:51Z</time>
      </trkpt>
      <trkpt lat="43.43855" lon="6.01668">
        <ele>281</ele>
        <time>2016-02-24T15:11:52Z</time>
      </trkpt>
      <trkpt lat="43.43859" lon="6.01665">
        <ele>281.20001220703</ele>
        <time>2016-02-24T15:11:53Z</time>
      </trkpt>
      <trkpt lat="43.43862" lon="6.01666">
        <ele>280</ele>
        <time>2016-02-24T15:11:54Z</time>
      </trkpt>
      <trkpt lat="43.43864" lon="6.0167">
        <ele>279.39999389648</ele>
        <time>2016-02-24T15:11:55Z</time>
      </trkpt>
      <trkpt lat="43.43865" lon="6.01675">
        <ele>279.20001220703</ele>
        <time>2016-02-24T15:11:56Z</time>
      </trkpt>
      <trkpt lat="43.43866" lon="6.01686">
        <ele>279.20001220703</ele>
        <time>2016-02-24T15:11:58Z</time>
      </trkpt>
      <trkpt lat="43.43867" lon="6.01698">
        <ele>278.60000610352</ele>
        <time>2016-02-24T15:12:00Z</time>
      </trkpt>
      <trkpt lat="43.43867" lon="6.01703">
        <ele>278.79998779297</ele>
        <time>2016-02-24T15:12:01Z</time>
      </trkpt>
      <trkpt lat="43.43868" lon="6.01708">
        <ele>279.20001220703</ele>
        <time>2016-02-24T15:12:02Z</time>
      </trkpt>
      <trkpt lat="43.43872" lon="6.01717">
        <ele>279</ele>
        <time>2016-02-24T15:12:04Z</time>
      </trkpt>
      <trkpt lat="43.43874" lon="6.01722">
        <ele>278.60000610352</ele>
        <time>2016-02-24T15:12:05Z</time>
      </trkpt>
      <trkpt lat="43.43876" lon="6.01728">
        <ele>278</ele>
        <time>2016-02-24T15:12:06Z</time>
      </trkpt>
      <trkpt lat="43.4388" lon="6.01739">
        <ele>277.79998779297</ele>
        <time>2016-02-24T15:12:08Z</time>
      </trkpt>
      <trkpt lat="43.43882" lon="6.01745">
        <ele>278.20001220703</ele>
        <time>2016-02-24T15:12:09Z</time>
      </trkpt>
      <trkpt lat="43.43883" lon="6.01751">
        <ele>277.79998779297</ele>
        <time>2016-02-24T15:12:10Z</time>
      </trkpt>
      <trkpt lat="43.43884" lon="6.01758">
        <ele>277.39999389648</ele>
        <time>2016-02-24T15:12:11Z</time>
      </trkpt>
      <trkpt lat="43.43885" lon="6.01765">
        <ele>276.79998779297</ele>
        <time>2016-02-24T15:12:12Z</time>
      </trkpt>
      <trkpt lat="43.43885" lon="6.01772">
        <ele>276.39999389648</ele>
        <time>2016-02-24T15:12:13Z</time>
      </trkpt>
      <trkpt lat="43.43884" lon="6.01779">
        <ele>276.20001220703</ele>
        <time>2016-02-24T15:12:14Z</time>
      </trkpt>
      <trkpt lat="43.43882" lon="6.01787">
        <ele>276.20001220703</ele>
        <time>2016-02-24T15:12:15Z</time>
      </trkpt>
      <trkpt lat="43.4388" lon="6.01794">
        <ele>276.39999389648</ele>
        <time>2016-02-24T15:12:16Z</time>
      </trkpt>
      <trkpt lat="43.43878" lon="6.01804">
        <ele>275.20001220703</ele>
        <time>2016-02-24T15:12:17Z</time>
      </trkpt>
      <trkpt lat="43.43877" lon="6.01813">
        <ele>273</ele>
        <time>2016-02-24T15:12:18Z</time>
      </trkpt>
      <trkpt lat="43.43876" lon="6.01823">
        <ele>272</ele>
        <time>2016-02-24T15:12:19Z</time>
      </trkpt>
      <trkpt lat="43.43876" lon="6.01833">
        <ele>272.20001220703</ele>
        <time>2016-02-24T15:12:20Z</time>
      </trkpt>
      <trkpt lat="43.43874" lon="6.01852">
        <ele>272.39999389648</ele>
        <time>2016-02-24T15:12:22Z</time>
      </trkpt>
      <trkpt lat="43.43871" lon="6.01871">
        <ele>272</ele>
        <time>2016-02-24T15:12:24Z</time>
      </trkpt>
      <trkpt lat="43.4387" lon="6.01881">
        <ele>272</ele>
        <time>2016-02-24T15:12:25Z</time>
      </trkpt>
      <trkpt lat="43.43868" lon="6.01889">
        <ele>271.79998779297</ele>
        <time>2016-02-24T15:12:26Z</time>
      </trkpt>
      <trkpt lat="43.43865" lon="6.01907">
        <ele>271.39999389648</ele>
        <time>2016-02-24T15:12:28Z</time>
      </trkpt>
      <trkpt lat="43.43863" lon="6.01916">
        <ele>271.20001220703</ele>
        <time>2016-02-24T15:12:29Z</time>
      </trkpt>
      <trkpt lat="43.43861" lon="6.01924">
        <ele>271.39999389648</ele>
        <time>2016-02-24T15:12:30Z</time>
      </trkpt>
      <trkpt lat="43.43855" lon="6.01937">
        <ele>271.79998779297</ele>
        <time>2016-02-24T15:12:32Z</time>
      </trkpt>
      <trkpt lat="43.4385" lon="6.01943">
        <ele>271.79998779297</ele>
        <time>2016-02-24T15:12:33Z</time>
      </trkpt>
      <trkpt lat="43.43847" lon="6.01949">
        <ele>271.60000610352</ele>
        <time>2016-02-24T15:12:34Z</time>
      </trkpt>
      <trkpt lat="43.43842" lon="6.01961">
        <ele>271.79998779297</ele>
        <time>2016-02-24T15:12:36Z</time>
      </trkpt>
      <trkpt lat="43.43839" lon="6.01972">
        <ele>271.60000610352</ele>
        <time>2016-02-24T15:12:38Z</time>
      </trkpt>
      <trkpt lat="43.43837" lon="6.01986">
        <ele>271.20001220703</ele>
        <time>2016-02-24T15:12:40Z</time>
      </trkpt>
      <trkpt lat="43.43837" lon="6.02001">
        <ele>270.79998779297</ele>
        <time>2016-02-24T15:12:42Z</time>
      </trkpt>
      <trkpt lat="43.43836" lon="6.02009">
        <ele>270.79998779297</ele>
        <time>2016-02-24T15:12:43Z</time>
      </trkpt>
      <trkpt lat="43.43835" lon="6.02016">
        <ele>270.60000610352</ele>
        <time>2016-02-24T15:12:44Z</time>
      </trkpt>
      <trkpt lat="43.43833" lon="6.02032">
        <ele>270.39999389648</ele>
        <time>2016-02-24T15:12:46Z</time>
      </trkpt>
      <trkpt lat="43.43833" lon="6.0204">
        <ele>270.60000610352</ele>
        <time>2016-02-24T15:12:47Z</time>
      </trkpt>
      <trkpt lat="43.43831" lon="6.02047">
        <ele>270.60000610352</ele>
        <time>2016-02-24T15:12:48Z</time>
      </trkpt>
      <trkpt lat="43.43826" lon="6.02059">
        <ele>270.60000610352</ele>
        <time>2016-02-24T15:12:50Z</time>
      </trkpt>
      <trkpt lat="43.43819" lon="6.0207">
        <ele>270.60000610352</ele>
        <time>2016-02-24T15:12:52Z</time>
      </trkpt>
      <trkpt lat="43.43814" lon="6.02084">
        <ele>270.39999389648</ele>
        <time>2016-02-24T15:12:54Z</time>
      </trkpt>
      <trkpt lat="43.43813" lon="6.02097">
        <ele>270.60000610352</ele>
        <time>2016-02-24T15:12:56Z</time>
      </trkpt>
      <trkpt lat="43.4381" lon="6.02112">
        <ele>271</ele>
        <time>2016-02-24T15:12:58Z</time>
      </trkpt>
      <trkpt lat="43.43802" lon="6.02123">
        <ele>270.39999389648</ele>
        <time>2016-02-24T15:13:00Z</time>
      </trkpt>
      <trkpt lat="43.43798" lon="6.02128">
        <ele>269.79998779297</ele>
        <time>2016-02-24T15:13:01Z</time>
      </trkpt>
      <trkpt lat="43.43794" lon="6.02133">
        <ele>269.60000610352</ele>
        <time>2016-02-24T15:13:02Z</time>
      </trkpt>
      <trkpt lat="43.43789" lon="6.02137">
        <ele>269.39999389648</ele>
        <time>2016-02-24T15:13:03Z</time>
      </trkpt>
      <trkpt lat="43.43785" lon="6.02142">
        <ele>269.39999389648</ele>
        <time>2016-02-24T15:13:04Z</time>
      </trkpt>
      <trkpt lat="43.4378" lon="6.02153">
        <ele>269.60000610352</ele>
        <time>2016-02-24T15:13:06Z</time>
      </trkpt>
      <trkpt lat="43.43775" lon="6.02165">
        <ele>269.60000610352</ele>
        <time>2016-02-24T15:13:08Z</time>
      </trkpt>
      <trkpt lat="43.43771" lon="6.0217">
        <ele>269.20001220703</ele>
        <time>2016-02-24T15:13:09Z</time>
      </trkpt>
      <trkpt lat="43.43769" lon="6.02175">
        <ele>269.39999389648</ele>
        <time>2016-02-24T15:13:10Z</time>
      </trkpt>
      <trkpt lat="43.43767" lon="6.02181">
        <ele>269.60000610352</ele>
        <time>2016-02-24T15:13:11Z</time>
      </trkpt>
      <trkpt lat="43.43766" lon="6.02189">
        <ele>269.60000610352</ele>
        <time>2016-02-24T15:13:12Z</time>
      </trkpt>
      <trkpt lat="43.43766" lon="6.02204">
        <ele>269.60000610352</ele>
        <time>2016-02-24T15:13:14Z</time>
      </trkpt>
      <trkpt lat="43.43764" lon="6.02213">
        <ele>269.39999389648</ele>
        <time>2016-02-24T15:13:15Z</time>
      </trkpt>
      <trkpt lat="43.43764" lon="6.02221">
        <ele>269.20001220703</ele>
        <time>2016-02-24T15:13:16Z</time>
      </trkpt>
      <trkpt lat="43.4376" lon="6.02235">
        <ele>268.60000610352</ele>
        <time>2016-02-24T15:13:18Z</time>
      </trkpt>
      <trkpt lat="43.43758" lon="6.0224">
        <ele>268.60000610352</ele>
        <time>2016-02-24T15:13:19Z</time>
      </trkpt>
      <trkpt lat="43.43756" lon="6.02244">
        <ele>268.60000610352</ele>
        <time>2016-02-24T15:13:20Z</time>
      </trkpt>
      <trkpt lat="43.43754" lon="6.02249">
        <ele>269</ele>
        <time>2016-02-24T15:13:21Z</time>
      </trkpt>
      <trkpt lat="43.43752" lon="6.02252">
        <ele>269</ele>
        <time>2016-02-24T15:13:22Z</time>
      </trkpt>
      <trkpt lat="43.43751" lon="6.02255">
        <ele>269.20001220703</ele>
        <time>2016-02-24T15:13:23Z</time>
      </trkpt>
      <trkpt lat="43.43749" lon="6.02257">
        <ele>269.39999389648</ele>
        <time>2016-02-24T15:13:24Z</time>
      </trkpt>
      <trkpt lat="43.43746" lon="6.02263">
        <ele>270</ele>
        <time>2016-02-24T15:13:26Z</time>
      </trkpt>
      <trkpt lat="43.43744" lon="6.02267">
        <ele>270.20001220703</ele>
        <time>2016-02-24T15:13:27Z</time>
      </trkpt>
      <trkpt lat="43.43743" lon="6.02269">
        <ele>270.39999389648</ele>
        <time>2016-02-24T15:13:28Z</time>
      </trkpt>
      <trkpt lat="43.43741" lon="6.02271">
        <ele>270.60000610352</ele>
        <time>2016-02-24T15:13:29Z</time>
      </trkpt>
      <trkpt lat="43.4374" lon="6.02274">
        <ele>270.60000610352</ele>
        <time>2016-02-24T15:13:30Z</time>
      </trkpt>
      <trkpt lat="43.43739" lon="6.02276">
        <ele>270.79998779297</ele>
        <time>2016-02-24T15:13:31Z</time>
      </trkpt>
      <trkpt lat="43.43738" lon="6.02278">
        <ele>271</ele>
        <time>2016-02-24T15:13:32Z</time>
      </trkpt>
      <trkpt lat="43.43735" lon="6.02283">
        <ele>271.39999389648</ele>
        <time>2016-02-24T15:13:34Z</time>
      </trkpt>
      <trkpt lat="43.43732" lon="6.02287">
        <ele>272</ele>
        <time>2016-02-24T15:13:36Z</time>
      </trkpt>
      <trkpt lat="43.43731" lon="6.02289">
        <ele>272.20001220703</ele>
        <time>2016-02-24T15:13:37Z</time>
      </trkpt>
      <trkpt lat="43.43729" lon="6.02291">
        <ele>272.20001220703</ele>
        <time>2016-02-24T15:13:38Z</time>
      </trkpt>
      <trkpt lat="43.43728" lon="6.02293">
        <ele>272.20001220703</ele>
        <time>2016-02-24T15:13:39Z</time>
      </trkpt>
      <trkpt lat="43.43727" lon="6.02296">
        <ele>272.20001220703</ele>
        <time>2016-02-24T15:13:40Z</time>
      </trkpt>
      <trkpt lat="43.43726" lon="6.02298">
        <ele>272.60000610352</ele>
        <time>2016-02-24T15:13:41Z</time>
      </trkpt>
      <trkpt lat="43.43726" lon="6.023">
        <ele>273</ele>
        <time>2016-02-24T15:13:42Z</time>
      </trkpt>
      <trkpt lat="43.43725" lon="6.02303">
        <ele>273.20001220703</ele>
        <time>2016-02-24T15:13:44Z</time>
      </trkpt>
      <trkpt lat="43.43725" lon="6.02306">
        <ele>273.39999389648</ele>
        <time>2016-02-24T15:13:45Z</time>
      </trkpt>
      <trkpt lat="43.43724" lon="6.02308">
        <ele>274</ele>
        <time>2016-02-24T15:13:46Z</time>
      </trkpt>
      <trkpt lat="43.43724" lon="6.0231">
        <ele>274</ele>
        <time>2016-02-24T15:13:47Z</time>
      </trkpt>
      <trkpt lat="43.43723" lon="6.02312">
        <ele>274</ele>
        <time>2016-02-24T15:13:48Z</time>
      </trkpt>
      <trkpt lat="43.43723" lon="6.02313">
        <ele>273.79998779297</ele>
        <time>2016-02-24T15:13:49Z</time>
      </trkpt>
      <trkpt lat="43.43723" lon="6.02315">
        <ele>274</ele>
        <time>2016-02-24T15:13:50Z</time>
      </trkpt>
      <trkpt lat="43.43723" lon="6.02317">
        <ele>274.20001220703</ele>
        <time>2016-02-24T15:13:52Z</time>
      </trkpt>
      <trkpt lat="43.43723" lon="6.02317">
        <ele>274.39999389648</ele>
        <time>2016-02-24T15:13:54Z</time>
      </trkpt>
      <trkpt lat="43.43723" lon="6.02318">
        <ele>274.39999389648</ele>
        <time>2016-02-24T15:13:56Z</time>
      </trkpt>
      <trkpt lat="43.43723" lon="6.02318">
        <ele>274.39999389648</ele>
        <time>2016-02-24T15:13:58Z</time>
      </trkpt>
      <trkpt lat="43.43723" lon="6.02318">
        <ele>274.39999389648</ele>
        <time>2016-02-24T15:14:00Z</time>
      </trkpt>
      <trkpt lat="43.43723" lon="6.02318">
        <ele>274.39999389648</ele>
        <time>2016-02-24T15:14:01Z</time>
      </trkpt>
      <trkpt lat="43.43723" lon="6.02318">
        <ele>274.60000610352</ele>
        <time>2016-02-24T15:14:02Z</time>
      </trkpt>
      <trkpt lat="43.43723" lon="6.02318">
        <ele>274.60000610352</ele>
        <time>2016-02-24T15:14:04Z</time>
      </trkpt>
      <trkpt lat="43.43723" lon="6.02318">
        <ele>274.39999389648</ele>
        <time>2016-02-24T15:14:06Z</time>
      </trkpt>
      <trkpt lat="43.43723" lon="6.02318">
        <ele>274.39999389648</ele>
        <time>2016-02-24T15:14:08Z</time>
      </trkpt>
      <trkpt lat="43.43723" lon="6.02318">
        <ele>274.39999389648</ele>
        <time>2016-02-24T15:14:10Z</time>
      </trkpt>
      <trkpt lat="43.43723" lon="6.02318">
        <ele>274.39999389648</ele>
        <time>2016-02-24T15:14:12Z</time>
      </trkpt>
      <trkpt lat="43.43723" lon="6.02318">
        <ele>274.39999389648</ele>
        <time>2016-02-24T15:14:13Z</time>
      </trkpt>
      <trkpt lat="43.43723" lon="6.02319">
        <ele>274.39999389648</ele>
        <time>2016-02-24T15:14:14Z</time>
      </trkpt>
      <trkpt lat="43.43721" lon="6.0232">
        <ele>274.39999389648</ele>
        <time>2016-02-24T15:14:16Z</time>
      </trkpt>
      <trkpt lat="43.43719" lon="6.02321">
        <ele>275</ele>
        <time>2016-02-24T15:14:18Z</time>
      </trkpt>
      <trkpt lat="43.43716" lon="6.02322">
        <ele>275.20001220703</ele>
        <time>2016-02-24T15:14:20Z</time>
      </trkpt>
      <trkpt lat="43.43715" lon="6.02323">
        <ele>275.39999389648</ele>
        <time>2016-02-24T15:14:21Z</time>
      </trkpt>
      <trkpt lat="43.43715" lon="6.02324">
        <ele>275.79998779297</ele>
        <time>2016-02-24T15:14:22Z</time>
      </trkpt>
      <trkpt lat="43.43713" lon="6.02328">
        <ele>276.39999389648</ele>
        <time>2016-02-24T15:14:24Z</time>
      </trkpt>
      <trkpt lat="43.43713" lon="6.0233">
        <ele>276.39999389648</ele>
        <time>2016-02-24T15:14:25Z</time>
      </trkpt>
      <trkpt lat="43.43712" lon="6.02332">
        <ele>276.39999389648</ele>
        <time>2016-02-24T15:14:26Z</time>
      </trkpt>
      <trkpt lat="43.43712" lon="6.02334">
        <ele>276.39999389648</ele>
        <time>2016-02-24T15:14:27Z</time>
      </trkpt>
      <trkpt lat="43.43712" lon="6.02335">
        <ele>276.39999389648</ele>
        <time>2016-02-24T15:14:28Z</time>
      </trkpt>
      <trkpt lat="43.43713" lon="6.0234">
        <ele>276.79998779297</ele>
        <time>2016-02-24T15:14:30Z</time>
      </trkpt>
      <trkpt lat="43.43713" lon="6.02343">
        <ele>277</ele>
        <time>2016-02-24T15:14:31Z</time>
      </trkpt>
      <trkpt lat="43.43713" lon="6.02346">
        <ele>277.20001220703</ele>
        <time>2016-02-24T15:14:32Z</time>
      </trkpt>
      <trkpt lat="43.43713" lon="6.0235">
        <ele>277</ele>
        <time>2016-02-24T15:14:33Z</time>
      </trkpt>
      <trkpt lat="43.43715" lon="6.02353">
        <ele>276.79998779297</ele>
        <time>2016-02-24T15:14:34Z</time>
      </trkpt>
      <trkpt lat="43.43716" lon="6.02355">
        <ele>277</ele>
        <time>2016-02-24T15:14:35Z</time>
      </trkpt>
      <trkpt lat="43.43718" lon="6.02356">
        <ele>277</ele>
        <time>2016-02-24T15:14:36Z</time>
      </trkpt>
      <trkpt lat="43.4372" lon="6.02356">
        <ele>277.20001220703</ele>
        <time>2016-02-24T15:14:37Z</time>
      </trkpt>
      <trkpt lat="43.43721" lon="6.02356">
        <ele>277</ele>
        <time>2016-02-24T15:14:38Z</time>
      </trkpt>
      <trkpt lat="43.43726" lon="6.02357">
        <ele>276.60000610352</ele>
        <time>2016-02-24T15:14:40Z</time>
      </trkpt>
      <trkpt lat="43.43728" lon="6.0236">
        <ele>276.39999389648</ele>
        <time>2016-02-24T15:14:41Z</time>
      </trkpt>
      <trkpt lat="43.43729" lon="6.02363">
        <ele>276</ele>
        <time>2016-02-24T15:14:42Z</time>
      </trkpt>
      <trkpt lat="43.43731" lon="6.0237">
        <ele>275.79998779297</ele>
        <time>2016-02-24T15:14:44Z</time>
      </trkpt>
      <trkpt lat="43.43732" lon="6.02377">
        <ele>275.39999389648</ele>
        <time>2016-02-24T15:14:46Z</time>
      </trkpt>
      <trkpt lat="43.43733" lon="6.02381">
        <ele>275.20001220703</ele>
        <time>2016-02-24T15:14:47Z</time>
      </trkpt>
      <trkpt lat="43.43734" lon="6.02384">
        <ele>275.20001220703</ele>
        <time>2016-02-24T15:14:48Z</time>
      </trkpt>
      <trkpt lat="43.43736" lon="6.02387">
        <ele>275</ele>
        <time>2016-02-24T15:14:49Z</time>
      </trkpt>
      <trkpt lat="43.43737" lon="6.0239">
        <ele>274.60000610352</ele>
        <time>2016-02-24T15:14:50Z</time>
      </trkpt>
      <trkpt lat="43.43739" lon="6.02392">
        <ele>274.39999389648</ele>
        <time>2016-02-24T15:14:51Z</time>
      </trkpt>
      <trkpt lat="43.4374" lon="6.02393">
        <ele>274</ele>
        <time>2016-02-24T15:14:52Z</time>
      </trkpt>
      <trkpt lat="43.43743" lon="6.02396">
        <ele>273.79998779297</ele>
        <time>2016-02-24T15:14:53Z</time>
      </trkpt>
      <trkpt lat="43.43745" lon="6.02399">
        <ele>273.39999389648</ele>
        <time>2016-02-24T15:14:54Z</time>
      </trkpt>
      <trkpt lat="43.43747" lon="6.02404">
        <ele>272.79998779297</ele>
        <time>2016-02-24T15:14:55Z</time>
      </trkpt>
      <trkpt lat="43.43748" lon="6.02408">
        <ele>272.20001220703</ele>
        <time>2016-02-24T15:14:56Z</time>
      </trkpt>
      <trkpt lat="43.4375" lon="6.02411">
        <ele>272.20001220703</ele>
        <time>2016-02-24T15:14:57Z</time>
      </trkpt>
      <trkpt lat="43.43752" lon="6.02413">
        <ele>271.79998779297</ele>
        <time>2016-02-24T15:14:58Z</time>
      </trkpt>
      <trkpt lat="43.43755" lon="6.02415">
        <ele>271.60000610352</ele>
        <time>2016-02-24T15:15:00Z</time>
      </trkpt>
      <trkpt lat="43.43757" lon="6.02419">
        <ele>271.60000610352</ele>
        <time>2016-02-24T15:15:02Z</time>
      </trkpt>
      <trkpt lat="43.4376" lon="6.02422">
        <ele>271.60000610352</ele>
        <time>2016-02-24T15:15:04Z</time>
      </trkpt>
      <trkpt lat="43.43762" lon="6.02428">
        <ele>271.60000610352</ele>
        <time>2016-02-24T15:15:06Z</time>
      </trkpt>
      <trkpt lat="43.43762" lon="6.02432">
        <ele>271.60000610352</ele>
        <time>2016-02-24T15:15:07Z</time>
      </trkpt>
      <trkpt lat="43.43761" lon="6.02434">
        <ele>271.60000610352</ele>
        <time>2016-02-24T15:15:08Z</time>
      </trkpt>
      <trkpt lat="43.43761" lon="6.0244">
        <ele>271.79998779297</ele>
        <time>2016-02-24T15:15:10Z</time>
      </trkpt>
      <trkpt lat="43.43761" lon="6.02442">
        <ele>271.39999389648</ele>
        <time>2016-02-24T15:15:11Z</time>
      </trkpt>
      <trkpt lat="43.43763" lon="6.02445">
        <ele>271</ele>
        <time>2016-02-24T15:15:12Z</time>
      </trkpt>
      <trkpt lat="43.43764" lon="6.02447">
        <ele>270.39999389648</ele>
        <time>2016-02-24T15:15:13Z</time>
      </trkpt>
      <trkpt lat="43.43764" lon="6.02449">
        <ele>270</ele>
        <time>2016-02-24T15:15:14Z</time>
      </trkpt>
      <trkpt lat="43.43764" lon="6.02452">
        <ele>269.60000610352</ele>
        <time>2016-02-24T15:15:15Z</time>
      </trkpt>
      <trkpt lat="43.43764" lon="6.02456">
        <ele>269.20001220703</ele>
        <time>2016-02-24T15:15:16Z</time>
      </trkpt>
      <trkpt lat="43.43766" lon="6.02461">
        <ele>269</ele>
        <time>2016-02-24T15:15:18Z</time>
      </trkpt>
      <trkpt lat="43.43769" lon="6.02462">
        <ele>269</ele>
        <time>2016-02-24T15:15:19Z</time>
      </trkpt>
      <trkpt lat="43.4377" lon="6.02463">
        <ele>269</ele>
        <time>2016-02-24T15:15:20Z</time>
      </trkpt>
      <trkpt lat="43.43772" lon="6.02465">
        <ele>269.39999389648</ele>
        <time>2016-02-24T15:15:21Z</time>
      </trkpt>
      <trkpt lat="43.43773" lon="6.02467">
        <ele>269.39999389648</ele>
        <time>2016-02-24T15:15:22Z</time>
      </trkpt>
      <trkpt lat="43.43776" lon="6.0247">
        <ele>269.20001220703</ele>
        <time>2016-02-24T15:15:24Z</time>
      </trkpt>
      <trkpt lat="43.43779" lon="6.02474">
        <ele>268.79998779297</ele>
        <time>2016-02-24T15:15:26Z</time>
      </trkpt>
      <trkpt lat="43.43781" lon="6.02477">
        <ele>268</ele>
        <time>2016-02-24T15:15:27Z</time>
      </trkpt>
      <trkpt lat="43.43782" lon="6.02479">
        <ele>267.39999389648</ele>
        <time>2016-02-24T15:15:28Z</time>
      </trkpt>
      <trkpt lat="43.43784" lon="6.0248">
        <ele>266.79998779297</ele>
        <time>2016-02-24T15:15:30Z</time>
      </trkpt>
      <trkpt lat="43.43786" lon="6.0248">
        <ele>267</ele>
        <time>2016-02-24T15:15:32Z</time>
      </trkpt>
      <trkpt lat="43.43787" lon="6.0248">
        <ele>267</ele>
        <time>2016-02-24T15:15:33Z</time>
      </trkpt>
      <trkpt lat="43.43786" lon="6.0248">
        <ele>266.79998779297</ele>
        <time>2016-02-24T15:15:34Z</time>
      </trkpt>
      <trkpt lat="43.43786" lon="6.0248">
        <ele>266.60000610352</ele>
        <time>2016-02-24T15:15:36Z</time>
      </trkpt>
      <trkpt lat="43.43786" lon="6.0248">
        <ele>266.60000610352</ele>
        <time>2016-02-24T15:15:38Z</time>
      </trkpt>
      <trkpt lat="43.43786" lon="6.0248">
        <ele>266.60000610352</ele>
        <time>2016-02-24T15:15:40Z</time>
      </trkpt>
      <trkpt lat="43.43786" lon="6.0248">
        <ele>266.60000610352</ele>
        <time>2016-02-24T15:15:42Z</time>
      </trkpt>
      <trkpt lat="43.43786" lon="6.0248">
        <ele>266.60000610352</ele>
        <time>2016-02-24T15:15:44Z</time>
      </trkpt>
      <trkpt lat="43.43787" lon="6.0248">
        <ele>266.60000610352</ele>
        <time>2016-02-24T15:15:46Z</time>
      </trkpt>
      <trkpt lat="43.43787" lon="6.0248">
        <ele>266.60000610352</ele>
        <time>2016-02-24T15:15:48Z</time>
      </trkpt>
      <trkpt lat="43.43787" lon="6.0248">
        <ele>266.60000610352</ele>
        <time>2016-02-24T15:15:50Z</time>
      </trkpt>
      <trkpt lat="43.43787" lon="6.0248">
        <ele>266.60000610352</ele>
        <time>2016-02-24T15:15:52Z</time>
      </trkpt>
      <trkpt lat="43.43787" lon="6.0248">
        <ele>266.79998779297</ele>
        <time>2016-02-24T15:15:54Z</time>
      </trkpt>
      <trkpt lat="43.43787" lon="6.02481">
        <ele>267</ele>
        <time>2016-02-24T15:15:56Z</time>
      </trkpt>
      <trkpt lat="43.43787" lon="6.02482">
        <ele>266.79998779297</ele>
        <time>2016-02-24T15:15:58Z</time>
      </trkpt>
      <trkpt lat="43.43787" lon="6.02483">
        <ele>266.60000610352</ele>
        <time>2016-02-24T15:16:00Z</time>
      </trkpt>
      <trkpt lat="43.43787" lon="6.02483">
        <ele>266.60000610352</ele>
        <time>2016-02-24T15:16:02Z</time>
      </trkpt>
      <trkpt lat="43.43787" lon="6.02483">
        <ele>266.79998779297</ele>
        <time>2016-02-24T15:16:04Z</time>
      </trkpt>
      <trkpt lat="43.43787" lon="6.02483">
        <ele>266.79998779297</ele>
        <time>2016-02-24T15:16:06Z</time>
      </trkpt>
      <trkpt lat="43.43787" lon="6.02483">
        <ele>267</ele>
        <time>2016-02-24T15:16:08Z</time>
      </trkpt>
      <trkpt lat="43.43787" lon="6.02483">
        <ele>266.79998779297</ele>
        <time>2016-02-24T15:16:10Z</time>
      </trkpt>
      <trkpt lat="43.43787" lon="6.02483">
        <ele>266.79998779297</ele>
        <time>2016-02-24T15:16:12Z</time>
      </trkpt>
      <trkpt lat="43.43787" lon="6.02483">
        <ele>266.79998779297</ele>
        <time>2016-02-24T15:16:14Z</time>
      </trkpt>
      <trkpt lat="43.43787" lon="6.02483">
        <ele>267</ele>
        <time>2016-02-24T15:16:16Z</time>
      </trkpt>
      <trkpt lat="43.43787" lon="6.02483">
        <ele>267</ele>
        <time>2016-02-24T15:16:18Z</time>
      </trkpt>
      <trkpt lat="43.43787" lon="6.02483">
        <ele>266.79998779297</ele>
        <time>2016-02-24T15:16:20Z</time>
      </trkpt>
      <trkpt lat="43.43787" lon="6.02483">
        <ele>266.79998779297</ele>
        <time>2016-02-24T15:16:22Z</time>
      </trkpt>
      <trkpt lat="43.43787" lon="6.02483">
        <ele>266.60000610352</ele>
        <time>2016-02-24T15:16:24Z</time>
      </trkpt>
      <trkpt lat="43.43787" lon="6.02483">
        <ele>266.60000610352</ele>
        <time>2016-02-24T15:16:26Z</time>
      </trkpt>
      <trkpt lat="43.43787" lon="6.02483">
        <ele>266.39999389648</ele>
        <time>2016-02-24T15:16:28Z</time>
      </trkpt>
      <trkpt lat="43.43787" lon="6.02483">
        <ele>266.60000610352</ele>
        <time>2016-02-24T15:16:30Z</time>
      </trkpt>
      <trkpt lat="43.43787" lon="6.02483">
        <ele>266.60000610352</ele>
        <time>2016-02-24T15:16:32Z</time>
      </trkpt>
      <trkpt lat="43.43787" lon="6.02483">
        <ele>266.79998779297</ele>
        <time>2016-02-24T15:16:34Z</time>
      </trkpt>
      <trkpt lat="43.43787" lon="6.02483">
        <ele>266.79998779297</ele>
        <time>2016-02-24T15:16:36Z</time>
      </trkpt>
      <trkpt lat="43.43787" lon="6.02483">
        <ele>266.79998779297</ele>
        <time>2016-02-24T15:16:37Z</time>
      </trkpt>
      <trkpt lat="43.43787" lon="6.02483">
        <ele>267</ele>
        <time>2016-02-24T15:16:38Z</time>
      </trkpt>
      <trkpt lat="43.43787" lon="6.02483">
        <ele>266.79998779297</ele>
        <time>2016-02-24T15:16:40Z</time>
      </trkpt>
      <trkpt lat="43.43787" lon="6.02483">
        <ele>266.60000610352</ele>
        <time>2016-02-24T15:16:42Z</time>
      </trkpt>
      <trkpt lat="43.43787" lon="6.02483">
        <ele>266.60000610352</ele>
        <time>2016-02-24T15:16:44Z</time>
      </trkpt>
      <trkpt lat="43.43787" lon="6.02483">
        <ele>266.60000610352</ele>
        <time>2016-02-24T15:16:46Z</time>
      </trkpt>
      <trkpt lat="43.43787" lon="6.02483">
        <ele>266.60000610352</ele>
        <time>2016-02-24T15:16:48Z</time>
      </trkpt>
      <trkpt lat="43.43787" lon="6.02483">
        <ele>266.79998779297</ele>
        <time>2016-02-24T15:16:50Z</time>
      </trkpt>
      <trkpt lat="43.43787" lon="6.02483">
        <ele>266.60000610352</ele>
        <time>2016-02-24T15:16:52Z</time>
      </trkpt>
      <trkpt lat="43.43787" lon="6.02483">
        <ele>266.60000610352</ele>
        <time>2016-02-24T15:16:54Z</time>
      </trkpt>
      <trkpt lat="43.43787" lon="6.02483">
        <ele>266.60000610352</ele>
        <time>2016-02-24T15:16:56Z</time>
      </trkpt>
      <trkpt lat="43.43787" lon="6.02483">
        <ele>266.60000610352</ele>
        <time>2016-02-24T15:16:58Z</time>
      </trkpt>
      <trkpt lat="43.43787" lon="6.02483">
        <ele>266.79998779297</ele>
        <time>2016-02-24T15:17:00Z</time>
      </trkpt>
      <trkpt lat="43.43787" lon="6.02483">
        <ele>266.60000610352</ele>
        <time>2016-02-24T15:17:02Z</time>
      </trkpt>
      <trkpt lat="43.43787" lon="6.02483">
        <ele>266.60000610352</ele>
        <time>2016-02-24T15:17:04Z</time>
      </trkpt>
      <trkpt lat="43.43787" lon="6.02483">
        <ele>266.60000610352</ele>
        <time>2016-02-24T15:17:06Z</time>
      </trkpt>
      <trkpt lat="43.43787" lon="6.02483">
        <ele>266.60000610352</ele>
        <time>2016-02-24T15:17:08Z</time>
      </trkpt>
      <trkpt lat="43.43787" lon="6.02483">
        <ele>266.39999389648</ele>
        <time>2016-02-24T15:17:10Z</time>
      </trkpt>
      <trkpt lat="43.43787" lon="6.02483">
        <ele>266.39999389648</ele>
        <time>2016-02-24T15:17:11Z</time>
      </trkpt>
      <trkpt lat="43.43787" lon="6.02483">
        <ele>266.60000610352</ele>
        <time>2016-02-24T15:17:14Z</time>
      </trkpt>
      <trkpt lat="43.43787" lon="6.02483">
        <ele>266.79998779297</ele>
        <time>2016-02-24T15:17:16Z</time>
      </trkpt>
      <trkpt lat="43.43787" lon="6.02483">
        <ele>266.60000610352</ele>
        <time>2016-02-24T15:17:18Z</time>
      </trkpt>
      <trkpt lat="43.43787" lon="6.02483">
        <ele>266.79998779297</ele>
        <time>2016-02-24T15:17:20Z</time>
      </trkpt>
      <trkpt lat="43.43787" lon="6.02483">
        <ele>266.60000610352</ele>
        <time>2016-02-24T15:17:22Z</time>
      </trkpt>
      <trkpt lat="43.43787" lon="6.02483">
        <ele>266.60000610352</ele>
        <time>2016-02-24T15:17:24Z</time>
      </trkpt>
      <trkpt lat="43.43787" lon="6.02483">
        <ele>266.60000610352</ele>
        <time>2016-02-24T15:17:26Z</time>
      </trkpt>
      <trkpt lat="43.43787" lon="6.02483">
        <ele>266.79998779297</ele>
        <time>2016-02-24T15:17:28Z</time>
      </trkpt>
      <trkpt lat="43.43787" lon="6.02483">
        <ele>266.60000610352</ele>
        <time>2016-02-24T15:17:30Z</time>
      </trkpt>
      <trkpt lat="43.43787" lon="6.02483">
        <ele>266.60000610352</ele>
        <time>2016-02-24T15:17:32Z</time>
      </trkpt>
      <trkpt lat="43.43787" lon="6.02483">
        <ele>266.60000610352</ele>
        <time>2016-02-24T15:17:34Z</time>
      </trkpt>
      <trkpt lat="43.43787" lon="6.02483">
        <ele>266.60000610352</ele>
        <time>2016-02-24T15:17:36Z</time>
      </trkpt>
      <trkpt lat="43.43787" lon="6.02483">
        <ele>266.79998779297</ele>
        <time>2016-02-24T15:17:38Z</time>
      </trkpt>
      <trkpt lat="43.43787" lon="6.02483">
        <ele>267</ele>
        <time>2016-02-24T15:17:39Z</time>
      </trkpt>
      <trkpt lat="43.43787" lon="6.02483">
        <ele>267.20001220703</ele>
        <time>2016-02-24T15:17:40Z</time>
      </trkpt>
      <trkpt lat="43.43787" lon="6.02483">
        <ele>267</ele>
        <time>2016-02-24T15:17:42Z</time>
      </trkpt>
      <trkpt lat="43.43787" lon="6.02483">
        <ele>267</ele>
        <time>2016-02-24T15:17:44Z</time>
      </trkpt>
      <trkpt lat="43.43787" lon="6.02483">
        <ele>267</ele>
        <time>2016-02-24T15:17:46Z</time>
      </trkpt>
      <trkpt lat="43.43787" lon="6.02483">
        <ele>266.60000610352</ele>
        <time>2016-02-24T15:17:48Z</time>
      </trkpt>
      <trkpt lat="43.43787" lon="6.02483">
        <ele>266.60000610352</ele>
        <time>2016-02-24T15:17:50Z</time>
      </trkpt>
      <trkpt lat="43.43787" lon="6.02482">
        <ele>266.79998779297</ele>
        <time>2016-02-24T15:17:51Z</time>
      </trkpt>
      <trkpt lat="43.43787" lon="6.02481">
        <ele>267</ele>
        <time>2016-02-24T15:17:52Z</time>
      </trkpt>
      <trkpt lat="43.43788" lon="6.0248">
        <ele>266.79998779297</ele>
        <time>2016-02-24T15:17:53Z</time>
      </trkpt>
      <trkpt lat="43.43788" lon="6.02479">
        <ele>267</ele>
        <time>2016-02-24T15:17:54Z</time>
      </trkpt>
      <trkpt lat="43.43787" lon="6.02477">
        <ele>267</ele>
        <time>2016-02-24T15:17:56Z</time>
      </trkpt>
      <trkpt lat="43.43787" lon="6.02475">
        <ele>266.79998779297</ele>
        <time>2016-02-24T15:17:58Z</time>
      </trkpt>
      <trkpt lat="43.43786" lon="6.02474">
        <ele>267.20001220703</ele>
        <time>2016-02-24T15:18:00Z</time>
      </trkpt>
      <trkpt lat="43.43784" lon="6.02474">
        <ele>267.79998779297</ele>
        <time>2016-02-24T15:18:02Z</time>
      </trkpt>
      <trkpt lat="43.43784" lon="6.02475">
        <ele>268</ele>
        <time>2016-02-24T15:18:03Z</time>
      </trkpt>
      <trkpt lat="43.43783" lon="6.02475">
        <ele>268.20001220703</ele>
        <time>2016-02-24T15:18:04Z</time>
      </trkpt>
      <trkpt lat="43.43782" lon="6.02475">
        <ele>268.79998779297</ele>
        <time>2016-02-24T15:18:06Z</time>
      </trkpt>
      <trkpt lat="43.43781" lon="6.02475">
        <ele>269</ele>
        <time>2016-02-24T15:18:08Z</time>
      </trkpt>
      <trkpt lat="43.43781" lon="6.02474">
        <ele>269.39999389648</ele>
        <time>2016-02-24T15:18:10Z</time>
      </trkpt>
      <trkpt lat="43.43781" lon="6.02473">
        <ele>269.39999389648</ele>
        <time>2016-02-24T15:18:12Z</time>
      </trkpt>
      <trkpt lat="43.43781" lon="6.02474">
        <ele>269.39999389648</ele>
        <time>2016-02-24T15:18:14Z</time>
      </trkpt>
      <trkpt lat="43.43781" lon="6.02474">
        <ele>269.39999389648</ele>
        <time>2016-02-24T15:18:16Z</time>
      </trkpt>
      <trkpt lat="43.4378" lon="6.02473">
        <ele>269.20001220703</ele>
        <time>2016-02-24T15:18:18Z</time>
      </trkpt>
      <trkpt lat="43.43779" lon="6.02472">
        <ele>269.39999389648</ele>
        <time>2016-02-24T15:18:20Z</time>
      </trkpt>
      <trkpt lat="43.43777" lon="6.02471">
        <ele>269.20001220703</ele>
        <time>2016-02-24T15:18:22Z</time>
      </trkpt>
      <trkpt lat="43.43776" lon="6.0247">
        <ele>269</ele>
        <time>2016-02-24T15:18:23Z</time>
      </trkpt>
      <trkpt lat="43.43776" lon="6.02469">
        <ele>268.79998779297</ele>
        <time>2016-02-24T15:18:24Z</time>
      </trkpt>
      <trkpt lat="43.43777" lon="6.02464">
        <ele>269.20001220703</ele>
        <time>2016-02-24T15:18:26Z</time>
      </trkpt>
      <trkpt lat="43.43778" lon="6.02462">
        <ele>269</ele>
        <time>2016-02-24T15:18:27Z</time>
      </trkpt>
      <trkpt lat="43.43777" lon="6.02461">
        <ele>269</ele>
        <time>2016-02-24T15:18:28Z</time>
      </trkpt>
      <trkpt lat="43.43776" lon="6.02458">
        <ele>269.39999389648</ele>
        <time>2016-02-24T15:18:30Z</time>
      </trkpt>
      <trkpt lat="43.43776" lon="6.02457">
        <ele>270.20001220703</ele>
        <time>2016-02-24T15:18:31Z</time>
      </trkpt>
      <trkpt lat="43.43776" lon="6.02455">
        <ele>270.60000610352</ele>
        <time>2016-02-24T15:18:32Z</time>
      </trkpt>
      <trkpt lat="43.43777" lon="6.02453">
        <ele>270.79998779297</ele>
        <time>2016-02-24T15:18:33Z</time>
      </trkpt>
      <trkpt lat="43.43777" lon="6.02452">
        <ele>271.20001220703</ele>
        <time>2016-02-24T15:18:34Z</time>
      </trkpt>
      <trkpt lat="43.43778" lon="6.02449">
        <ele>271.39999389648</ele>
        <time>2016-02-24T15:18:36Z</time>
      </trkpt>
      <trkpt lat="43.4378" lon="6.02445">
        <ele>271.39999389648</ele>
        <time>2016-02-24T15:18:38Z</time>
      </trkpt>
      <trkpt lat="43.43779" lon="6.02442">
        <ele>271.60000610352</ele>
        <time>2016-02-24T15:18:39Z</time>
      </trkpt>
      <trkpt lat="43.43779" lon="6.02441">
        <ele>271.60000610352</ele>
        <time>2016-02-24T15:18:40Z</time>
      </trkpt>
      <trkpt lat="43.43779" lon="6.02439">
        <ele>271.79998779297</ele>
        <time>2016-02-24T15:18:41Z</time>
      </trkpt>
      <trkpt lat="43.43778" lon="6.02437">
        <ele>271.79998779297</ele>
        <time>2016-02-24T15:18:42Z</time>
      </trkpt>
      <trkpt lat="43.43776" lon="6.02433">
        <ele>272.20001220703</ele>
        <time>2016-02-24T15:18:44Z</time>
      </trkpt>
      <trkpt lat="43.43774" lon="6.0243">
        <ele>272</ele>
        <time>2016-02-24T15:18:46Z</time>
      </trkpt>
      <trkpt lat="43.43773" lon="6.02428">
        <ele>272</ele>
        <time>2016-02-24T15:18:47Z</time>
      </trkpt>
      <trkpt lat="43.43773" lon="6.02427">
        <ele>272</ele>
        <time>2016-02-24T15:18:48Z</time>
      </trkpt>
      <trkpt lat="43.4377" lon="6.02424">
        <ele>272</ele>
        <time>2016-02-24T15:18:50Z</time>
      </trkpt>
      <trkpt lat="43.43769" lon="6.0242">
        <ele>272.20001220703</ele>
        <time>2016-02-24T15:18:52Z</time>
      </trkpt>
      <trkpt lat="43.43768" lon="6.02415">
        <ele>272</ele>
        <time>2016-02-24T15:18:54Z</time>
      </trkpt>
      <trkpt lat="43.43765" lon="6.02411">
        <ele>272.20001220703</ele>
        <time>2016-02-24T15:18:56Z</time>
      </trkpt>
      <trkpt lat="43.43763" lon="6.02409">
        <ele>273</ele>
        <time>2016-02-24T15:18:58Z</time>
      </trkpt>
      <trkpt lat="43.43761" lon="6.02407">
        <ele>273.39999389648</ele>
        <time>2016-02-24T15:18:59Z</time>
      </trkpt>
      <trkpt lat="43.4376" lon="6.02407">
        <ele>273.79998779297</ele>
        <time>2016-02-24T15:19:00Z</time>
      </trkpt>
      <trkpt lat="43.43758" lon="6.02405">
        <ele>274.39999389648</ele>
        <time>2016-02-24T15:19:02Z</time>
      </trkpt>
      <trkpt lat="43.43755" lon="6.02402">
        <ele>274.20001220703</ele>
        <time>2016-02-24T15:19:04Z</time>
      </trkpt>
      <trkpt lat="43.43754" lon="6.024">
        <ele>274.79998779297</ele>
        <time>2016-02-24T15:19:06Z</time>
      </trkpt>
      <trkpt lat="43.43752" lon="6.02397">
        <ele>274.60000610352</ele>
        <time>2016-02-24T15:19:08Z</time>
      </trkpt>
      <trkpt lat="43.43752" lon="6.02395">
        <ele>274.60000610352</ele>
        <time>2016-02-24T15:19:09Z</time>
      </trkpt>
      <trkpt lat="43.43751" lon="6.02391">
        <ele>274.60000610352</ele>
        <time>2016-02-24T15:19:10Z</time>
      </trkpt>
      <trkpt lat="43.43751" lon="6.02389">
        <ele>274.60000610352</ele>
        <time>2016-02-24T15:19:11Z</time>
      </trkpt>
      <trkpt lat="43.4375" lon="6.02387">
        <ele>274.79998779297</ele>
        <time>2016-02-24T15:19:12Z</time>
      </trkpt>
      <trkpt lat="43.4375" lon="6.02382">
        <ele>275</ele>
        <time>2016-02-24T15:19:14Z</time>
      </trkpt>
      <trkpt lat="43.43749" lon="6.0238">
        <ele>275.20001220703</ele>
        <time>2016-02-24T15:19:15Z</time>
      </trkpt>
      <trkpt lat="43.43748" lon="6.02377">
        <ele>275.39999389648</ele>
        <time>2016-02-24T15:19:16Z</time>
      </trkpt>
      <trkpt lat="43.43747" lon="6.02374">
        <ele>275.39999389648</ele>
        <time>2016-02-24T15:19:17Z</time>
      </trkpt>
      <trkpt lat="43.43745" lon="6.02373">
        <ele>275.60000610352</ele>
        <time>2016-02-24T15:19:18Z</time>
      </trkpt>
      <trkpt lat="43.43741" lon="6.0237">
        <ele>276</ele>
        <time>2016-02-24T15:19:20Z</time>
      </trkpt>
      <trkpt lat="43.43736" lon="6.02369">
        <ele>276</ele>
        <time>2016-02-24T15:19:22Z</time>
      </trkpt>
      <trkpt lat="43.43734" lon="6.02369">
        <ele>276</ele>
        <time>2016-02-24T15:19:23Z</time>
      </trkpt>
      <trkpt lat="43.43732" lon="6.02369">
        <ele>276.20001220703</ele>
        <time>2016-02-24T15:19:24Z</time>
      </trkpt>
      <trkpt lat="43.4373" lon="6.02368">
        <ele>276.60000610352</ele>
        <time>2016-02-24T15:19:26Z</time>
      </trkpt>
      <trkpt lat="43.43726" lon="6.02364">
        <ele>276.79998779297</ele>
        <time>2016-02-24T15:19:28Z</time>
      </trkpt>
      <trkpt lat="43.43724" lon="6.02361">
        <ele>276.79998779297</ele>
        <time>2016-02-24T15:19:30Z</time>
      </trkpt>
      <trkpt lat="43.43721" lon="6.02356">
        <ele>276.79998779297</ele>
        <time>2016-02-24T15:19:32Z</time>
      </trkpt>
      <trkpt lat="43.43722" lon="6.02354">
        <ele>276.79998779297</ele>
        <time>2016-02-24T15:19:33Z</time>
      </trkpt>
      <trkpt lat="43.43721" lon="6.02351">
        <ele>276.79998779297</ele>
        <time>2016-02-24T15:19:34Z</time>
      </trkpt>
      <trkpt lat="43.4372" lon="6.02346">
        <ele>276.39999389648</ele>
        <time>2016-02-24T15:19:36Z</time>
      </trkpt>
      <trkpt lat="43.43721" lon="6.02343">
        <ele>276.20001220703</ele>
        <time>2016-02-24T15:19:38Z</time>
      </trkpt>
      <trkpt lat="43.43726" lon="6.02339">
        <ele>276.20001220703</ele>
        <time>2016-02-24T15:19:40Z</time>
      </trkpt>
      <trkpt lat="43.43727" lon="6.02336">
        <ele>275</ele>
        <time>2016-02-24T15:19:41Z</time>
      </trkpt>
      <trkpt lat="43.43729" lon="6.02334">
        <ele>274.20001220703</ele>
        <time>2016-02-24T15:19:42Z</time>
      </trkpt>
      <trkpt lat="43.43729" lon="6.0233">
        <ele>273.20001220703</ele>
        <time>2016-02-24T15:19:43Z</time>
      </trkpt>
      <trkpt lat="43.43731" lon="6.02327">
        <ele>272.20001220703</ele>
        <time>2016-02-24T15:19:44Z</time>
      </trkpt>
      <trkpt lat="43.43734" lon="6.02321">
        <ele>272</ele>
        <time>2016-02-24T15:19:45Z</time>
      </trkpt>
      <trkpt lat="43.43736" lon="6.02317">
        <ele>271.79998779297</ele>
        <time>2016-02-24T15:19:46Z</time>
      </trkpt>
      <trkpt lat="43.43742" lon="6.02307">
        <ele>271.39999389648</ele>
        <time>2016-02-24T15:19:48Z</time>
      </trkpt>
      <trkpt lat="43.43745" lon="6.02302">
        <ele>271.39999389648</ele>
        <time>2016-02-24T15:19:49Z</time>
      </trkpt>
      <trkpt lat="43.43747" lon="6.02298">
        <ele>271.20001220703</ele>
        <time>2016-02-24T15:19:50Z</time>
      </trkpt>
      <trkpt lat="43.43752" lon="6.02288">
        <ele>270.39999389648</ele>
        <time>2016-02-24T15:19:52Z</time>
      </trkpt>
      <trkpt lat="43.43755" lon="6.02283">
        <ele>269.60000610352</ele>
        <time>2016-02-24T15:19:53Z</time>
      </trkpt>
      <trkpt lat="43.43758" lon="6.02278">
        <ele>269</ele>
        <time>2016-02-24T15:19:54Z</time>
      </trkpt>
      <trkpt lat="43.43761" lon="6.02272">
        <ele>268.79998779297</ele>
        <time>2016-02-24T15:19:55Z</time>
      </trkpt>
      <trkpt lat="43.43764" lon="6.02267">
        <ele>268.79998779297</ele>
        <time>2016-02-24T15:19:56Z</time>
      </trkpt>
      <trkpt lat="43.43766" lon="6.02261">
        <ele>268.60000610352</ele>
        <time>2016-02-24T15:19:57Z</time>
      </trkpt>
      <trkpt lat="43.43768" lon="6.02255">
        <ele>268.20001220703</ele>
        <time>2016-02-24T15:19:58Z</time>
      </trkpt>
      <trkpt lat="43.4377" lon="6.02245">
        <ele>267.79998779297</ele>
        <time>2016-02-24T15:20:00Z</time>
      </trkpt>
      <trkpt lat="43.43771" lon="6.02241">
        <ele>267.60000610352</ele>
        <time>2016-02-24T15:20:01Z</time>
      </trkpt>
      <trkpt lat="43.43773" lon="6.02237">
        <ele>267.60000610352</ele>
        <time>2016-02-24T15:20:02Z</time>
      </trkpt>
      <trkpt lat="43.43774" lon="6.02228">
        <ele>268</ele>
        <time>2016-02-24T15:20:04Z</time>
      </trkpt>
      <trkpt lat="43.43773" lon="6.02219">
        <ele>268.20001220703</ele>
        <time>2016-02-24T15:20:06Z</time>
      </trkpt>
      <trkpt lat="43.43773" lon="6.02211">
        <ele>268.79998779297</ele>
        <time>2016-02-24T15:20:08Z</time>
      </trkpt>
      <trkpt lat="43.43774" lon="6.02203">
        <ele>268.79998779297</ele>
        <time>2016-02-24T15:20:10Z</time>
      </trkpt>
      <trkpt lat="43.43776" lon="6.02196">
        <ele>269</ele>
        <time>2016-02-24T15:20:12Z</time>
      </trkpt>
      <trkpt lat="43.4378" lon="6.02189">
        <ele>269</ele>
        <time>2016-02-24T15:20:14Z</time>
      </trkpt>
      <trkpt lat="43.43783" lon="6.02181">
        <ele>268.79998779297</ele>
        <time>2016-02-24T15:20:16Z</time>
      </trkpt>
      <trkpt lat="43.43784" lon="6.02176">
        <ele>268.79998779297</ele>
        <time>2016-02-24T15:20:17Z</time>
      </trkpt>
      <trkpt lat="43.43785" lon="6.02172">
        <ele>268.79998779297</ele>
        <time>2016-02-24T15:20:18Z</time>
      </trkpt>
      <trkpt lat="43.43788" lon="6.02165">
        <ele>268.79998779297</ele>
        <time>2016-02-24T15:20:20Z</time>
      </trkpt>
      <trkpt lat="43.4379" lon="6.02162">
        <ele>268.79998779297</ele>
        <time>2016-02-24T15:20:21Z</time>
      </trkpt>
      <trkpt lat="43.43793" lon="6.02159">
        <ele>268.79998779297</ele>
        <time>2016-02-24T15:20:22Z</time>
      </trkpt>
      <trkpt lat="43.43798" lon="6.02153">
        <ele>268.79998779297</ele>
        <time>2016-02-24T15:20:24Z</time>
      </trkpt>
      <trkpt lat="43.43802" lon="6.02147">
        <ele>268.79998779297</ele>
        <time>2016-02-24T15:20:26Z</time>
      </trkpt>
      <trkpt lat="43.43807" lon="6.02141">
        <ele>268.79998779297</ele>
        <time>2016-02-24T15:20:28Z</time>
      </trkpt>
      <trkpt lat="43.43812" lon="6.02134">
        <ele>268.60000610352</ele>
        <time>2016-02-24T15:20:30Z</time>
      </trkpt>
      <trkpt lat="43.43815" lon="6.02128">
        <ele>269</ele>
        <time>2016-02-24T15:20:32Z</time>
      </trkpt>
      <trkpt lat="43.43816" lon="6.02121">
        <ele>269.60000610352</ele>
        <time>2016-02-24T15:20:34Z</time>
      </trkpt>
      <trkpt lat="43.43817" lon="6.02112">
        <ele>270</ele>
        <time>2016-02-24T15:20:36Z</time>
      </trkpt>
      <trkpt lat="43.43818" lon="6.02108">
        <ele>270</ele>
        <time>2016-02-24T15:20:37Z</time>
      </trkpt>
      <trkpt lat="43.43818" lon="6.02104">
        <ele>269.79998779297</ele>
        <time>2016-02-24T15:20:38Z</time>
      </trkpt>
      <trkpt lat="43.4382" lon="6.02096">
        <ele>269.79998779297</ele>
        <time>2016-02-24T15:20:40Z</time>
      </trkpt>
      <trkpt lat="43.43822" lon="6.02087">
        <ele>270</ele>
        <time>2016-02-24T15:20:42Z</time>
      </trkpt>
      <trkpt lat="43.43824" lon="6.02083">
        <ele>270</ele>
        <time>2016-02-24T15:20:43Z</time>
      </trkpt>
      <trkpt lat="43.43826" lon="6.02078">
        <ele>270</ele>
        <time>2016-02-24T15:20:44Z</time>
      </trkpt>
      <trkpt lat="43.43832" lon="6.02071">
        <ele>269.79998779297</ele>
        <time>2016-02-24T15:20:46Z</time>
      </trkpt>
      <trkpt lat="43.43836" lon="6.02063">
        <ele>269.60000610352</ele>
        <time>2016-02-24T15:20:48Z</time>
      </trkpt>
      <trkpt lat="43.43838" lon="6.02053">
        <ele>269.60000610352</ele>
        <time>2016-02-24T15:20:50Z</time>
      </trkpt>
      <trkpt lat="43.43839" lon="6.02042">
        <ele>269.79998779297</ele>
        <time>2016-02-24T15:20:52Z</time>
      </trkpt>
      <trkpt lat="43.43839" lon="6.02037">
        <ele>269.79998779297</ele>
        <time>2016-02-24T15:20:53Z</time>
      </trkpt>
      <trkpt lat="43.4384" lon="6.02032">
        <ele>270</ele>
        <time>2016-02-24T15:20:54Z</time>
      </trkpt>
      <trkpt lat="43.43842" lon="6.02023">
        <ele>270.20001220703</ele>
        <time>2016-02-24T15:20:56Z</time>
      </trkpt>
      <trkpt lat="43.43842" lon="6.02015">
        <ele>270.39999389648</ele>
        <time>2016-02-24T15:20:58Z</time>
      </trkpt>
      <trkpt lat="43.43842" lon="6.02011">
        <ele>270.39999389648</ele>
        <time>2016-02-24T15:20:59Z</time>
      </trkpt>
      <trkpt lat="43.43842" lon="6.02007">
        <ele>270.39999389648</ele>
        <time>2016-02-24T15:21:00Z</time>
      </trkpt>
      <trkpt lat="43.43842" lon="6.01998">
        <ele>270.39999389648</ele>
        <time>2016-02-24T15:21:02Z</time>
      </trkpt>
      <trkpt lat="43.43842" lon="6.01991">
        <ele>270.60000610352</ele>
        <time>2016-02-24T15:21:04Z</time>
      </trkpt>
      <trkpt lat="43.43843" lon="6.01985">
        <ele>270.79998779297</ele>
        <time>2016-02-24T15:21:06Z</time>
      </trkpt>
      <trkpt lat="43.43843" lon="6.01982">
        <ele>270.39999389648</ele>
        <time>2016-02-24T15:21:08Z</time>
      </trkpt>
      <trkpt lat="43.43843" lon="6.0198">
        <ele>270.20001220703</ele>
        <time>2016-02-24T15:21:09Z</time>
      </trkpt>
      <trkpt lat="43.43843" lon="6.01978">
        <ele>270.20001220703</ele>
        <time>2016-02-24T15:21:10Z</time>
      </trkpt>
      <trkpt lat="43.43842" lon="6.01977">
        <ele>270.20001220703</ele>
        <time>2016-02-24T15:21:11Z</time>
      </trkpt>
      <trkpt lat="43.43842" lon="6.01977">
        <ele>270.20001220703</ele>
        <time>2016-02-24T15:21:12Z</time>
      </trkpt>
      <trkpt lat="43.4384" lon="6.0198">
        <ele>270.39999389648</ele>
        <time>2016-02-24T15:21:14Z</time>
      </trkpt>
      <trkpt lat="43.4384" lon="6.01984">
        <ele>270.79998779297</ele>
        <time>2016-02-24T15:21:16Z</time>
      </trkpt>
      <trkpt lat="43.4384" lon="6.0199">
        <ele>270.20001220703</ele>
        <time>2016-02-24T15:21:18Z</time>
      </trkpt>
      <trkpt lat="43.43839" lon="6.01996">
        <ele>270.39999389648</ele>
        <time>2016-02-24T15:21:20Z</time>
      </trkpt>
      <trkpt lat="43.43839" lon="6.02">
        <ele>270.39999389648</ele>
        <time>2016-02-24T15:21:21Z</time>
      </trkpt>
      <trkpt lat="43.43838" lon="6.02004">
        <ele>270.20001220703</ele>
        <time>2016-02-24T15:21:22Z</time>
      </trkpt>
      <trkpt lat="43.43837" lon="6.02012">
        <ele>270</ele>
        <time>2016-02-24T15:21:24Z</time>
      </trkpt>
      <trkpt lat="43.43835" lon="6.0202">
        <ele>270</ele>
        <time>2016-02-24T15:21:26Z</time>
      </trkpt>
      <trkpt lat="43.43833" lon="6.0203">
        <ele>270</ele>
        <time>2016-02-24T15:21:28Z</time>
      </trkpt>
      <trkpt lat="43.43832" lon="6.02039">
        <ele>269.79998779297</ele>
        <time>2016-02-24T15:21:30Z</time>
      </trkpt>
      <trkpt lat="43.43829" lon="6.02048">
        <ele>269.60000610352</ele>
        <time>2016-02-24T15:21:32Z</time>
      </trkpt>
      <trkpt lat="43.43824" lon="6.02055">
        <ele>269.60000610352</ele>
        <time>2016-02-24T15:21:34Z</time>
      </trkpt>
      <trkpt lat="43.43819" lon="6.02063">
        <ele>269.79998779297</ele>
        <time>2016-02-24T15:21:36Z</time>
      </trkpt>
      <trkpt lat="43.43816" lon="6.02068">
        <ele>269.79998779297</ele>
        <time>2016-02-24T15:21:37Z</time>
      </trkpt>
      <trkpt lat="43.43815" lon="6.02073">
        <ele>270</ele>
        <time>2016-02-24T15:21:38Z</time>
      </trkpt>
      <trkpt lat="43.43812" lon="6.02082">
        <ele>270.20001220703</ele>
        <time>2016-02-24T15:21:40Z</time>
      </trkpt>
      <trkpt lat="43.4381" lon="6.02091">
        <ele>270.20001220703</ele>
        <time>2016-02-24T15:21:42Z</time>
      </trkpt>
      <trkpt lat="43.4381" lon="6.02096">
        <ele>270</ele>
        <time>2016-02-24T15:21:43Z</time>
      </trkpt>
      <trkpt lat="43.43808" lon="6.02101">
        <ele>269.60000610352</ele>
        <time>2016-02-24T15:21:44Z</time>
      </trkpt>
      <trkpt lat="43.43803" lon="6.02111">
        <ele>269.79998779297</ele>
        <time>2016-02-24T15:21:46Z</time>
      </trkpt>
      <trkpt lat="43.43796" lon="6.02119">
        <ele>269</ele>
        <time>2016-02-24T15:21:48Z</time>
      </trkpt>
      <trkpt lat="43.43793" lon="6.02123">
        <ele>268.79998779297</ele>
        <time>2016-02-24T15:21:49Z</time>
      </trkpt>
      <trkpt lat="43.43789" lon="6.02127">
        <ele>268.79998779297</ele>
        <time>2016-02-24T15:21:50Z</time>
      </trkpt>
      <trkpt lat="43.43782" lon="6.02135">
        <ele>268.60000610352</ele>
        <time>2016-02-24T15:21:52Z</time>
      </trkpt>
      <trkpt lat="43.43779" lon="6.0214">
        <ele>268.60000610352</ele>
        <time>2016-02-24T15:21:53Z</time>
      </trkpt>
      <trkpt lat="43.43777" lon="6.02145">
        <ele>268.39999389648</ele>
        <time>2016-02-24T15:21:54Z</time>
      </trkpt>
      <trkpt lat="43.43774" lon="6.02155">
        <ele>268.60000610352</ele>
        <time>2016-02-24T15:21:56Z</time>
      </trkpt>
      <trkpt lat="43.43772" lon="6.02161">
        <ele>268.39999389648</ele>
        <time>2016-02-24T15:21:57Z</time>
      </trkpt>
      <trkpt lat="43.43769" lon="6.02164">
        <ele>268.20001220703</ele>
        <time>2016-02-24T15:21:58Z</time>
      </trkpt>
      <trkpt lat="43.43766" lon="6.02173">
        <ele>268.79998779297</ele>
        <time>2016-02-24T15:22:00Z</time>
      </trkpt>
      <trkpt lat="43.43764" lon="6.02178">
        <ele>268.60000610352</ele>
        <time>2016-02-24T15:22:01Z</time>
      </trkpt>
      <trkpt lat="43.43764" lon="6.02183">
        <ele>268.39999389648</ele>
        <time>2016-02-24T15:22:02Z</time>
      </trkpt>
      <trkpt lat="43.43764" lon="6.02193">
        <ele>268.79998779297</ele>
        <time>2016-02-24T15:22:04Z</time>
      </trkpt>
      <trkpt lat="43.43764" lon="6.022">
        <ele>268.60000610352</ele>
        <time>2016-02-24T15:22:05Z</time>
      </trkpt>
      <trkpt lat="43.43763" lon="6.02206">
        <ele>268.20001220703</ele>
        <time>2016-02-24T15:22:06Z</time>
      </trkpt>
      <trkpt lat="43.43761" lon="6.02217">
        <ele>268</ele>
        <time>2016-02-24T15:22:08Z</time>
      </trkpt>
      <trkpt lat="43.4376" lon="6.02223">
        <ele>268</ele>
        <time>2016-02-24T15:22:09Z</time>
      </trkpt>
      <trkpt lat="43.43759" lon="6.02228">
        <ele>267.60000610352</ele>
        <time>2016-02-24T15:22:10Z</time>
      </trkpt>
      <trkpt lat="43.43755" lon="6.02237">
        <ele>267.60000610352</ele>
        <time>2016-02-24T15:22:12Z</time>
      </trkpt>
      <trkpt lat="43.43754" lon="6.02242">
        <ele>267.79998779297</ele>
        <time>2016-02-24T15:22:13Z</time>
      </trkpt>
      <trkpt lat="43.43752" lon="6.02246">
        <ele>267.79998779297</ele>
        <time>2016-02-24T15:22:14Z</time>
      </trkpt>
      <trkpt lat="43.43749" lon="6.02251">
        <ele>268.39999389648</ele>
        <time>2016-02-24T15:22:16Z</time>
      </trkpt>
      <trkpt lat="43.43746" lon="6.02256">
        <ele>268.60000610352</ele>
        <time>2016-02-24T15:22:18Z</time>
      </trkpt>
      <trkpt lat="43.43743" lon="6.02262">
        <ele>269</ele>
        <time>2016-02-24T15:22:20Z</time>
      </trkpt>
      <trkpt lat="43.43742" lon="6.02265">
        <ele>269.60000610352</ele>
        <time>2016-02-24T15:22:21Z</time>
      </trkpt>
      <trkpt lat="43.43741" lon="6.02267">
        <ele>269.79998779297</ele>
        <time>2016-02-24T15:22:22Z</time>
      </trkpt>
      <trkpt lat="43.43739" lon="6.02269">
        <ele>270</ele>
        <time>2016-02-24T15:22:23Z</time>
      </trkpt>
      <trkpt lat="43.43737" lon="6.02271">
        <ele>270.39999389648</ele>
        <time>2016-02-24T15:22:24Z</time>
      </trkpt>
      <trkpt lat="43.43735" lon="6.02277">
        <ele>270.60000610352</ele>
        <time>2016-02-24T15:22:26Z</time>
      </trkpt>
      <trkpt lat="43.43733" lon="6.0228">
        <ele>270.60000610352</ele>
        <time>2016-02-24T15:22:27Z</time>
      </trkpt>
      <trkpt lat="43.43732" lon="6.02283">
        <ele>270.79998779297</ele>
        <time>2016-02-24T15:22:28Z</time>
      </trkpt>
      <trkpt lat="43.43729" lon="6.02287">
        <ele>271.39999389648</ele>
        <time>2016-02-24T15:22:30Z</time>
      </trkpt>
      <trkpt lat="43.43726" lon="6.02292">
        <ele>271.79998779297</ele>
        <time>2016-02-24T15:22:32Z</time>
      </trkpt>
      <trkpt lat="43.43724" lon="6.02294">
        <ele>272.20001220703</ele>
        <time>2016-02-24T15:22:33Z</time>
      </trkpt>
      <trkpt lat="43.43723" lon="6.02296">
        <ele>272.60000610352</ele>
        <time>2016-02-24T15:22:34Z</time>
      </trkpt>
      <trkpt lat="43.43723" lon="6.02304">
        <ele>273.20001220703</ele>
        <time>2016-02-24T15:22:36Z</time>
      </trkpt>
      <trkpt lat="43.43721" lon="6.02308">
        <ele>273.60000610352</ele>
        <time>2016-02-24T15:22:37Z</time>
      </trkpt>
      <trkpt lat="43.43721" lon="6.02312">
        <ele>273.79998779297</ele>
        <time>2016-02-24T15:22:38Z</time>
      </trkpt>
      <trkpt lat="43.43719" lon="6.02316">
        <ele>274.20001220703</ele>
        <time>2016-02-24T15:22:40Z</time>
      </trkpt>
      <trkpt lat="43.43716" lon="6.0232">
        <ele>274.79998779297</ele>
        <time>2016-02-24T15:22:42Z</time>
      </trkpt>
      <trkpt lat="43.43715" lon="6.02322">
        <ele>274.79998779297</ele>
        <time>2016-02-24T15:22:43Z</time>
      </trkpt>
      <trkpt lat="43.43714" lon="6.02323">
        <ele>274.79998779297</ele>
        <time>2016-02-24T15:22:44Z</time>
      </trkpt>
      <trkpt lat="43.43712" lon="6.02325">
        <ele>275.20001220703</ele>
        <time>2016-02-24T15:22:46Z</time>
      </trkpt>
      <trkpt lat="43.4371" lon="6.0233">
        <ele>276</ele>
        <time>2016-02-24T15:22:48Z</time>
      </trkpt>
      <trkpt lat="43.43709" lon="6.02332">
        <ele>276.20001220703</ele>
        <time>2016-02-24T15:22:49Z</time>
      </trkpt>
      <trkpt lat="43.43709" lon="6.02334">
        <ele>276.39999389648</ele>
        <time>2016-02-24T15:22:50Z</time>
      </trkpt>
      <trkpt lat="43.43708" lon="6.02338">
        <ele>276.39999389648</ele>
        <time>2016-02-24T15:22:52Z</time>
      </trkpt>
      <trkpt lat="43.43709" lon="6.02343">
        <ele>276.79998779297</ele>
        <time>2016-02-24T15:22:54Z</time>
      </trkpt>
      <trkpt lat="43.43711" lon="6.02348">
        <ele>277</ele>
        <time>2016-02-24T15:22:56Z</time>
      </trkpt>
      <trkpt lat="43.43713" lon="6.02354">
        <ele>276.60000610352</ele>
        <time>2016-02-24T15:22:58Z</time>
      </trkpt>
      <trkpt lat="43.43715" lon="6.02356">
        <ele>276.60000610352</ele>
        <time>2016-02-24T15:22:59Z</time>
      </trkpt>
      <trkpt lat="43.43717" lon="6.02357">
        <ele>276.79998779297</ele>
        <time>2016-02-24T15:23:00Z</time>
      </trkpt>
      <trkpt lat="43.43719" lon="6.02358">
        <ele>276.79998779297</ele>
        <time>2016-02-24T15:23:01Z</time>
      </trkpt>
      <trkpt lat="43.43721" lon="6.02358">
        <ele>276.39999389648</ele>
        <time>2016-02-24T15:23:02Z</time>
      </trkpt>
      <trkpt lat="43.43724" lon="6.02358">
        <ele>276</ele>
        <time>2016-02-24T15:23:03Z</time>
      </trkpt>
      <trkpt lat="43.43727" lon="6.02359">
        <ele>275.60000610352</ele>
        <time>2016-02-24T15:23:04Z</time>
      </trkpt>
      <trkpt lat="43.43729" lon="6.02363">
        <ele>275.39999389648</ele>
        <time>2016-02-24T15:23:05Z</time>
      </trkpt>
      <trkpt lat="43.4373" lon="6.02366">
        <ele>275.39999389648</ele>
        <time>2016-02-24T15:23:06Z</time>
      </trkpt>
      <trkpt lat="43.43731" lon="6.0237">
        <ele>275.39999389648</ele>
        <time>2016-02-24T15:23:07Z</time>
      </trkpt>
      <trkpt lat="43.43733" lon="6.02373">
        <ele>275.20001220703</ele>
        <time>2016-02-24T15:23:08Z</time>
      </trkpt>
      <trkpt lat="43.43736" lon="6.02382">
        <ele>275</ele>
        <time>2016-02-24T15:23:10Z</time>
      </trkpt>
      <trkpt lat="43.43738" lon="6.02386">
        <ele>275</ele>
        <time>2016-02-24T15:23:11Z</time>
      </trkpt>
      <trkpt lat="43.4374" lon="6.02388">
        <ele>274.60000610352</ele>
        <time>2016-02-24T15:23:12Z</time>
      </trkpt>
      <trkpt lat="43.43743" lon="6.02393">
        <ele>274.39999389648</ele>
        <time>2016-02-24T15:23:14Z</time>
      </trkpt>
      <trkpt lat="43.43745" lon="6.02394">
        <ele>274</ele>
        <time>2016-02-24T15:23:15Z</time>
      </trkpt>
      <trkpt lat="43.43747" lon="6.02395">
        <ele>273.60000610352</ele>
        <time>2016-02-24T15:23:16Z</time>
      </trkpt>
      <trkpt lat="43.43751" lon="6.024">
        <ele>272.39999389648</ele>
        <time>2016-02-24T15:23:18Z</time>
      </trkpt>
      <trkpt lat="43.43752" lon="6.02404">
        <ele>272.20001220703</ele>
        <time>2016-02-24T15:23:19Z</time>
      </trkpt>
      <trkpt lat="43.43754" lon="6.02408">
        <ele>272</ele>
        <time>2016-02-24T15:23:20Z</time>
      </trkpt>
      <trkpt lat="43.43758" lon="6.02414">
        <ele>271.79998779297</ele>
        <time>2016-02-24T15:23:22Z</time>
      </trkpt>
      <trkpt lat="43.4376" lon="6.02416">
        <ele>272.20001220703</ele>
        <time>2016-02-24T15:23:23Z</time>
      </trkpt>
      <trkpt lat="43.43762" lon="6.02419">
        <ele>272.39999389648</ele>
        <time>2016-02-24T15:23:24Z</time>
      </trkpt>
      <trkpt lat="43.43766" lon="6.02423">
        <ele>272</ele>
        <time>2016-02-24T15:23:26Z</time>
      </trkpt>
      <trkpt lat="43.43768" lon="6.02427">
        <ele>271.79998779297</ele>
        <time>2016-02-24T15:23:27Z</time>
      </trkpt>
      <trkpt lat="43.43769" lon="6.0243">
        <ele>271.79998779297</ele>
        <time>2016-02-24T15:23:28Z</time>
      </trkpt>
      <trkpt lat="43.43768" lon="6.02437">
        <ele>271.79998779297</ele>
        <time>2016-02-24T15:23:30Z</time>
      </trkpt>
      <trkpt lat="43.43768" lon="6.02442">
        <ele>270.79998779297</ele>
        <time>2016-02-24T15:23:32Z</time>
      </trkpt>
      <trkpt lat="43.4377" lon="6.02447">
        <ele>270.20001220703</ele>
        <time>2016-02-24T15:23:34Z</time>
      </trkpt>
      <trkpt lat="43.43771" lon="6.02449">
        <ele>269.79998779297</ele>
        <time>2016-02-24T15:23:35Z</time>
      </trkpt>
      <trkpt lat="43.43771" lon="6.02451">
        <ele>269.60000610352</ele>
        <time>2016-02-24T15:23:36Z</time>
      </trkpt>
      <trkpt lat="43.43771" lon="6.02457">
        <ele>269</ele>
        <time>2016-02-24T15:23:38Z</time>
      </trkpt>
      <trkpt lat="43.43772" lon="6.0246">
        <ele>269</ele>
        <time>2016-02-24T15:23:39Z</time>
      </trkpt>
      <trkpt lat="43.43774" lon="6.02462">
        <ele>269.20001220703</ele>
        <time>2016-02-24T15:23:40Z</time>
      </trkpt>
      <trkpt lat="43.43777" lon="6.02464">
        <ele>269.39999389648</ele>
        <time>2016-02-24T15:23:42Z</time>
      </trkpt>
      <trkpt lat="43.43779" lon="6.02468">
        <ele>269.20001220703</ele>
        <time>2016-02-24T15:23:44Z</time>
      </trkpt>
      <trkpt lat="43.43781" lon="6.02471">
        <ele>269.39999389648</ele>
        <time>2016-02-24T15:23:46Z</time>
      </trkpt>
      <trkpt lat="43.43785" lon="6.02475">
        <ele>269.20001220703</ele>
        <time>2016-02-24T15:23:48Z</time>
      </trkpt>
      <trkpt lat="43.43787" lon="6.02478">
        <ele>268.60000610352</ele>
        <time>2016-02-24T15:23:49Z</time>
      </trkpt>
      <trkpt lat="43.43789" lon="6.0248">
        <ele>268</ele>
        <time>2016-02-24T15:23:50Z</time>
      </trkpt>
      <trkpt lat="43.4379" lon="6.02485">
        <ele>267.20001220703</ele>
        <time>2016-02-24T15:23:51Z</time>
      </trkpt>
      <trkpt lat="43.4379" lon="6.02488">
        <ele>267</ele>
        <time>2016-02-24T15:23:52Z</time>
      </trkpt>
      <trkpt lat="43.4379" lon="6.02493">
        <ele>267</ele>
        <time>2016-02-24T15:23:53Z</time>
      </trkpt>
      <trkpt lat="43.4379" lon="6.02497">
        <ele>267.20001220703</ele>
        <time>2016-02-24T15:23:54Z</time>
      </trkpt>
      <trkpt lat="43.43791" lon="6.02505">
        <ele>267.20001220703</ele>
        <time>2016-02-24T15:23:56Z</time>
      </trkpt>
      <trkpt lat="43.4379" lon="6.02512">
        <ele>267.39999389648</ele>
        <time>2016-02-24T15:23:58Z</time>
      </trkpt>
      <trkpt lat="43.43789" lon="6.02519">
        <ele>267.39999389648</ele>
        <time>2016-02-24T15:24:00Z</time>
      </trkpt>
      <trkpt lat="43.43787" lon="6.02524">
        <ele>267.60000610352</ele>
        <time>2016-02-24T15:24:02Z</time>
      </trkpt>
      <trkpt lat="43.43786" lon="6.02527">
        <ele>267.79998779297</ele>
        <time>2016-02-24T15:24:03Z</time>
      </trkpt>
      <trkpt lat="43.43786" lon="6.0253">
        <ele>268.20001220703</ele>
        <time>2016-02-24T15:24:04Z</time>
      </trkpt>
      <trkpt lat="43.43786" lon="6.02533">
        <ele>268.39999389648</ele>
        <time>2016-02-24T15:24:05Z</time>
      </trkpt>
      <trkpt lat="43.43786" lon="6.02536">
        <ele>268.39999389648</ele>
        <time>2016-02-24T15:24:06Z</time>
      </trkpt>
      <trkpt lat="43.43786" lon="6.02539">
        <ele>268.39999389648</ele>
        <time>2016-02-24T15:24:07Z</time>
      </trkpt>
      <trkpt lat="43.43786" lon="6.02542">
        <ele>268.20001220703</ele>
        <time>2016-02-24T15:24:08Z</time>
      </trkpt>
      <trkpt lat="43.43786" lon="6.02546">
        <ele>268.20001220703</ele>
        <time>2016-02-24T15:24:09Z</time>
      </trkpt>
      <trkpt lat="43.43786" lon="6.02549">
        <ele>267.79998779297</ele>
        <time>2016-02-24T15:24:10Z</time>
      </trkpt>
      <trkpt lat="43.43787" lon="6.02558">
        <ele>267.79998779297</ele>
        <time>2016-02-24T15:24:12Z</time>
      </trkpt>
      <trkpt lat="43.43787" lon="6.02562">
        <ele>267.79998779297</ele>
        <time>2016-02-24T15:24:13Z</time>
      </trkpt>
      <trkpt lat="43.43789" lon="6.02567">
        <ele>267.79998779297</ele>
        <time>2016-02-24T15:24:14Z</time>
      </trkpt>
      <trkpt lat="43.4379" lon="6.02576">
        <ele>268</ele>
        <time>2016-02-24T15:24:16Z</time>
      </trkpt>
      <trkpt lat="43.4379" lon="6.02586">
        <ele>268.20001220703</ele>
        <time>2016-02-24T15:24:18Z</time>
      </trkpt>
      <trkpt lat="43.4379" lon="6.02595">
        <ele>267.39999389648</ele>
        <time>2016-02-24T15:24:20Z</time>
      </trkpt>
      <trkpt lat="43.43789" lon="6.02604">
        <ele>267.60000610352</ele>
        <time>2016-02-24T15:24:22Z</time>
      </trkpt>
      <trkpt lat="43.43786" lon="6.02614">
        <ele>267.39999389648</ele>
        <time>2016-02-24T15:24:24Z</time>
      </trkpt>
      <trkpt lat="43.43783" lon="6.02623">
        <ele>267.79998779297</ele>
        <time>2016-02-24T15:24:26Z</time>
      </trkpt>
      <trkpt lat="43.43781" lon="6.02632">
        <ele>268</ele>
        <time>2016-02-24T15:24:28Z</time>
      </trkpt>
      <trkpt lat="43.4378" lon="6.02643">
        <ele>268.20001220703</ele>
        <time>2016-02-24T15:24:30Z</time>
      </trkpt>
      <trkpt lat="43.43782" lon="6.02654">
        <ele>267.79998779297</ele>
        <time>2016-02-24T15:24:32Z</time>
      </trkpt>
      <trkpt lat="43.43782" lon="6.02664">
        <ele>267.39999389648</ele>
        <time>2016-02-24T15:24:34Z</time>
      </trkpt>
      <trkpt lat="43.43782" lon="6.02674">
        <ele>267.39999389648</ele>
        <time>2016-02-24T15:24:36Z</time>
      </trkpt>
      <trkpt lat="43.43783" lon="6.0268">
        <ele>267.20001220703</ele>
        <time>2016-02-24T15:24:38Z</time>
      </trkpt>
      <trkpt lat="43.43782" lon="6.02683">
        <ele>266.79998779297</ele>
        <time>2016-02-24T15:24:39Z</time>
      </trkpt>
      <trkpt lat="43.43781" lon="6.02686">
        <ele>266.60000610352</ele>
        <time>2016-02-24T15:24:40Z</time>
      </trkpt>
      <trkpt lat="43.43779" lon="6.02688">
        <ele>266.60000610352</ele>
        <time>2016-02-24T15:24:41Z</time>
      </trkpt>
      <trkpt lat="43.43778" lon="6.02691">
        <ele>266.79998779297</ele>
        <time>2016-02-24T15:24:42Z</time>
      </trkpt>
      <trkpt lat="43.43774" lon="6.02697">
        <ele>266.79998779297</ele>
        <time>2016-02-24T15:24:44Z</time>
      </trkpt>
      <trkpt lat="43.43772" lon="6.02698">
        <ele>267</ele>
        <time>2016-02-24T15:24:45Z</time>
      </trkpt>
      <trkpt lat="43.4377" lon="6.02699">
        <ele>267.20001220703</ele>
        <time>2016-02-24T15:24:46Z</time>
      </trkpt>
      <trkpt lat="43.43767" lon="6.027">
        <ele>267.20001220703</ele>
        <time>2016-02-24T15:24:48Z</time>
      </trkpt>
      <trkpt lat="43.43764" lon="6.02702">
        <ele>267.39999389648</ele>
        <time>2016-02-24T15:24:49Z</time>
      </trkpt>
      <trkpt lat="43.43763" lon="6.02704">
        <ele>267.39999389648</ele>
        <time>2016-02-24T15:24:50Z</time>
      </trkpt>
      <trkpt lat="43.43764" lon="6.02709">
        <ele>267</ele>
        <time>2016-02-24T15:24:52Z</time>
      </trkpt>
      <trkpt lat="43.43768" lon="6.02715">
        <ele>266.20001220703</ele>
        <time>2016-02-24T15:24:54Z</time>
      </trkpt>
      <trkpt lat="43.43771" lon="6.02717">
        <ele>266.39999389648</ele>
        <time>2016-02-24T15:24:55Z</time>
      </trkpt>
      <trkpt lat="43.43774" lon="6.02718">
        <ele>266.60000610352</ele>
        <time>2016-02-24T15:24:56Z</time>
      </trkpt>
      <trkpt lat="43.43779" lon="6.0272">
        <ele>265.60000610352</ele>
        <time>2016-02-24T15:24:58Z</time>
      </trkpt>
      <trkpt lat="43.43782" lon="6.02726">
        <ele>265.20001220703</ele>
        <time>2016-02-24T15:25:00Z</time>
      </trkpt>
      <trkpt lat="43.43783" lon="6.02733">
        <ele>265.20001220703</ele>
        <time>2016-02-24T15:25:02Z</time>
      </trkpt>
      <trkpt lat="43.43783" lon="6.02737">
        <ele>265.39999389648</ele>
        <time>2016-02-24T15:25:03Z</time>
      </trkpt>
      <trkpt lat="43.43784" lon="6.0274">
        <ele>265.39999389648</ele>
        <time>2016-02-24T15:25:04Z</time>
      </trkpt>
      <trkpt lat="43.43784" lon="6.02745">
        <ele>265.39999389648</ele>
        <time>2016-02-24T15:25:05Z</time>
      </trkpt>
      <trkpt lat="43.43783" lon="6.02748">
        <ele>265.20001220703</ele>
        <time>2016-02-24T15:25:06Z</time>
      </trkpt>
      <trkpt lat="43.43782" lon="6.02756">
        <ele>264.79998779297</ele>
        <time>2016-02-24T15:25:08Z</time>
      </trkpt>
      <trkpt lat="43.43781" lon="6.0276">
        <ele>265</ele>
        <time>2016-02-24T15:25:09Z</time>
      </trkpt>
      <trkpt lat="43.43781" lon="6.02764">
        <ele>265</ele>
        <time>2016-02-24T15:25:10Z</time>
      </trkpt>
      <trkpt lat="43.43782" lon="6.02773">
        <ele>264.79998779297</ele>
        <time>2016-02-24T15:25:12Z</time>
      </trkpt>
      <trkpt lat="43.43784" lon="6.02778">
        <ele>264.60000610352</ele>
        <time>2016-02-24T15:25:13Z</time>
      </trkpt>
      <trkpt lat="43.43786" lon="6.02782">
        <ele>264.60000610352</ele>
        <time>2016-02-24T15:25:14Z</time>
      </trkpt>
      <trkpt lat="43.43788" lon="6.02786">
        <ele>264.79998779297</ele>
        <time>2016-02-24T15:25:15Z</time>
      </trkpt>
      <trkpt lat="43.4379" lon="6.0279">
        <ele>264.79998779297</ele>
        <time>2016-02-24T15:25:16Z</time>
      </trkpt>
      <trkpt lat="43.43792" lon="6.02794">
        <ele>264.60000610352</ele>
        <time>2016-02-24T15:25:17Z</time>
      </trkpt>
      <trkpt lat="43.43794" lon="6.02797">
        <ele>264.39999389648</ele>
        <time>2016-02-24T15:25:18Z</time>
      </trkpt>
      <trkpt lat="43.43798" lon="6.02802">
        <ele>264</ele>
        <time>2016-02-24T15:25:20Z</time>
      </trkpt>
      <trkpt lat="43.43801" lon="6.02809">
        <ele>264.20001220703</ele>
        <time>2016-02-24T15:25:22Z</time>
      </trkpt>
      <trkpt lat="43.43803" lon="6.02813">
        <ele>264</ele>
        <time>2016-02-24T15:25:23Z</time>
      </trkpt>
      <trkpt lat="43.43804" lon="6.02817">
        <ele>263.79998779297</ele>
        <time>2016-02-24T15:25:24Z</time>
      </trkpt>
      <trkpt lat="43.43805" lon="6.02824">
        <ele>263.20001220703</ele>
        <time>2016-02-24T15:25:25Z</time>
      </trkpt>
      <trkpt lat="43.43805" lon="6.02829">
        <ele>262.79998779297</ele>
        <time>2016-02-24T15:25:26Z</time>
      </trkpt>
      <trkpt lat="43.43804" lon="6.02835">
        <ele>262.39999389648</ele>
        <time>2016-02-24T15:25:27Z</time>
      </trkpt>
      <trkpt lat="43.43802" lon="6.0284">
        <ele>262.20001220703</ele>
        <time>2016-02-24T15:25:28Z</time>
      </trkpt>
      <trkpt lat="43.43801" lon="6.02845">
        <ele>262.20001220703</ele>
        <time>2016-02-24T15:25:29Z</time>
      </trkpt>
      <trkpt lat="43.438" lon="6.02849">
        <ele>262.20001220703</ele>
        <time>2016-02-24T15:25:30Z</time>
      </trkpt>
      <trkpt lat="43.43797" lon="6.02854">
        <ele>262</ele>
        <time>2016-02-24T15:25:32Z</time>
      </trkpt>
      <trkpt lat="43.43795" lon="6.02861">
        <ele>262</ele>
        <time>2016-02-24T15:25:34Z</time>
      </trkpt>
      <trkpt lat="43.43792" lon="6.02869">
        <ele>262.20001220703</ele>
        <time>2016-02-24T15:25:36Z</time>
      </trkpt>
      <trkpt lat="43.4379" lon="6.02874">
        <ele>262</ele>
        <time>2016-02-24T15:25:37Z</time>
      </trkpt>
      <trkpt lat="43.4379" lon="6.02878">
        <ele>261.79998779297</ele>
        <time>2016-02-24T15:25:38Z</time>
      </trkpt>
      <trkpt lat="43.43789" lon="6.02888">
        <ele>262</ele>
        <time>2016-02-24T15:25:40Z</time>
      </trkpt>
      <trkpt lat="43.43788" lon="6.02899">
        <ele>262.20001220703</ele>
        <time>2016-02-24T15:25:42Z</time>
      </trkpt>
      <trkpt lat="43.43789" lon="6.02908">
        <ele>261.20001220703</ele>
        <time>2016-02-24T15:25:44Z</time>
      </trkpt>
      <trkpt lat="43.4379" lon="6.02913">
        <ele>261.39999389648</ele>
        <time>2016-02-24T15:25:45Z</time>
      </trkpt>
      <trkpt lat="43.4379" lon="6.02919">
        <ele>261.39999389648</ele>
        <time>2016-02-24T15:25:46Z</time>
      </trkpt>
      <trkpt lat="43.43788" lon="6.02932">
        <ele>261</ele>
        <time>2016-02-24T15:25:48Z</time>
      </trkpt>
      <trkpt lat="43.43787" lon="6.02938">
        <ele>260.79998779297</ele>
        <time>2016-02-24T15:25:49Z</time>
      </trkpt>
      <trkpt lat="43.43785" lon="6.02943">
        <ele>260.79998779297</ele>
        <time>2016-02-24T15:25:50Z</time>
      </trkpt>
      <trkpt lat="43.43782" lon="6.02955">
        <ele>261</ele>
        <time>2016-02-24T15:25:52Z</time>
      </trkpt>
      <trkpt lat="43.43781" lon="6.02962">
        <ele>261</ele>
        <time>2016-02-24T15:25:53Z</time>
      </trkpt>
      <trkpt lat="43.43781" lon="6.02968">
        <ele>260.60000610352</ele>
        <time>2016-02-24T15:25:54Z</time>
      </trkpt>
      <trkpt lat="43.43781" lon="6.02975">
        <ele>260.39999389648</ele>
        <time>2016-02-24T15:25:55Z</time>
      </trkpt>
      <trkpt lat="43.4378" lon="6.0298">
        <ele>260</ele>
        <time>2016-02-24T15:25:56Z</time>
      </trkpt>
      <trkpt lat="43.43777" lon="6.02991">
        <ele>260</ele>
        <time>2016-02-24T15:25:58Z</time>
      </trkpt>
      <trkpt lat="43.43772" lon="6.03">
        <ele>260.20001220703</ele>
        <time>2016-02-24T15:26:00Z</time>
      </trkpt>
      <trkpt lat="43.43767" lon="6.03008">
        <ele>260</ele>
        <time>2016-02-24T15:26:02Z</time>
      </trkpt>
      <trkpt lat="43.43765" lon="6.03012">
        <ele>259.79998779297</ele>
        <time>2016-02-24T15:26:03Z</time>
      </trkpt>
      <trkpt lat="43.43763" lon="6.03016">
        <ele>259.79998779297</ele>
        <time>2016-02-24T15:26:04Z</time>
      </trkpt>
      <trkpt lat="43.4376" lon="6.03025">
        <ele>259.79998779297</ele>
        <time>2016-02-24T15:26:06Z</time>
      </trkpt>
      <trkpt lat="43.43755" lon="6.03033">
        <ele>259.79998779297</ele>
        <time>2016-02-24T15:26:08Z</time>
      </trkpt>
      <trkpt lat="43.43749" lon="6.03037">
        <ele>260</ele>
        <time>2016-02-24T15:26:10Z</time>
      </trkpt>
      <trkpt lat="43.43742" lon="6.0304">
        <ele>260.39999389648</ele>
        <time>2016-02-24T15:26:12Z</time>
      </trkpt>
      <trkpt lat="43.43738" lon="6.03044">
        <ele>261.20001220703</ele>
        <time>2016-02-24T15:26:14Z</time>
      </trkpt>
      <trkpt lat="43.43735" lon="6.03045">
        <ele>261.60000610352</ele>
        <time>2016-02-24T15:26:15Z</time>
      </trkpt>
      <trkpt lat="43.43733" lon="6.03047">
        <ele>261.79998779297</ele>
        <time>2016-02-24T15:26:16Z</time>
      </trkpt>
      <trkpt lat="43.43727" lon="6.03051">
        <ele>261.79998779297</ele>
        <time>2016-02-24T15:26:18Z</time>
      </trkpt>
      <trkpt lat="43.43722" lon="6.03055">
        <ele>261.79998779297</ele>
        <time>2016-02-24T15:26:20Z</time>
      </trkpt>
      <trkpt lat="43.43716" lon="6.03058">
        <ele>262.20001220703</ele>
        <time>2016-02-24T15:26:22Z</time>
      </trkpt>
      <trkpt lat="43.43714" lon="6.03059">
        <ele>262.20001220703</ele>
        <time>2016-02-24T15:26:23Z</time>
      </trkpt>
      <trkpt lat="43.43711" lon="6.03061">
        <ele>262.20001220703</ele>
        <time>2016-02-24T15:26:24Z</time>
      </trkpt>
      <trkpt lat="43.43707" lon="6.03066">
        <ele>262.39999389648</ele>
        <time>2016-02-24T15:26:26Z</time>
      </trkpt>
      <trkpt lat="43.43702" lon="6.03073">
        <ele>263</ele>
        <time>2016-02-24T15:26:28Z</time>
      </trkpt>
      <trkpt lat="43.43699" lon="6.03081">
        <ele>263</ele>
        <time>2016-02-24T15:26:30Z</time>
      </trkpt>
      <trkpt lat="43.43697" lon="6.0309">
        <ele>263</ele>
        <time>2016-02-24T15:26:32Z</time>
      </trkpt>
      <trkpt lat="43.43695" lon="6.03099">
        <ele>263.39999389648</ele>
        <time>2016-02-24T15:26:34Z</time>
      </trkpt>
      <trkpt lat="43.43692" lon="6.03109">
        <ele>263.60000610352</ele>
        <time>2016-02-24T15:26:36Z</time>
      </trkpt>
      <trkpt lat="43.43691" lon="6.03118">
        <ele>263.79998779297</ele>
        <time>2016-02-24T15:26:38Z</time>
      </trkpt>
      <trkpt lat="43.43691" lon="6.03127">
        <ele>263.39999389648</ele>
        <time>2016-02-24T15:26:40Z</time>
      </trkpt>
      <trkpt lat="43.4369" lon="6.03136">
        <ele>263.39999389648</ele>
        <time>2016-02-24T15:26:42Z</time>
      </trkpt>
      <trkpt lat="43.43689" lon="6.0314">
        <ele>263.39999389648</ele>
        <time>2016-02-24T15:26:43Z</time>
      </trkpt>
      <trkpt lat="43.43687" lon="6.03143">
        <ele>263.20001220703</ele>
        <time>2016-02-24T15:26:44Z</time>
      </trkpt>
      <trkpt lat="43.43687" lon="6.03146">
        <ele>263.39999389648</ele>
        <time>2016-02-24T15:26:45Z</time>
      </trkpt>
      <trkpt lat="43.43687" lon="6.03149">
        <ele>263.39999389648</ele>
        <time>2016-02-24T15:26:46Z</time>
      </trkpt>
      <trkpt lat="43.43689" lon="6.03152">
        <ele>263.79998779297</ele>
        <time>2016-02-24T15:26:47Z</time>
      </trkpt>
      <trkpt lat="43.43689" lon="6.03156">
        <ele>263.79998779297</ele>
        <time>2016-02-24T15:26:48Z</time>
      </trkpt>
      <trkpt lat="43.4369" lon="6.03165">
        <ele>263.60000610352</ele>
        <time>2016-02-24T15:26:50Z</time>
      </trkpt>
      <trkpt lat="43.43689" lon="6.03174">
        <ele>263.60000610352</ele>
        <time>2016-02-24T15:26:52Z</time>
      </trkpt>
      <trkpt lat="43.43692" lon="6.03183">
        <ele>264</ele>
        <time>2016-02-24T15:26:54Z</time>
      </trkpt>
      <trkpt lat="43.43692" lon="6.03191">
        <ele>263.39999389648</ele>
        <time>2016-02-24T15:26:56Z</time>
      </trkpt>
      <trkpt lat="43.4369" lon="6.03195">
        <ele>263.39999389648</ele>
        <time>2016-02-24T15:26:57Z</time>
      </trkpt>
      <trkpt lat="43.43689" lon="6.03199">
        <ele>263.79998779297</ele>
        <time>2016-02-24T15:26:58Z</time>
      </trkpt>
      <trkpt lat="43.43685" lon="6.0321">
        <ele>263.60000610352</ele>
        <time>2016-02-24T15:27:00Z</time>
      </trkpt>
      <trkpt lat="43.43684" lon="6.03215">
        <ele>262.79998779297</ele>
        <time>2016-02-24T15:27:01Z</time>
      </trkpt>
      <trkpt lat="43.43684" lon="6.0322">
        <ele>262.39999389648</ele>
        <time>2016-02-24T15:27:02Z</time>
      </trkpt>
      <trkpt lat="43.43683" lon="6.0323">
        <ele>263</ele>
        <time>2016-02-24T15:27:04Z</time>
      </trkpt>
      <trkpt lat="43.43684" lon="6.03238">
        <ele>262.39999389648</ele>
        <time>2016-02-24T15:27:06Z</time>
      </trkpt>
      <trkpt lat="43.43684" lon="6.03243">
        <ele>262.20001220703</ele>
        <time>2016-02-24T15:27:07Z</time>
      </trkpt>
      <trkpt lat="43.43684" lon="6.03247">
        <ele>262.20001220703</ele>
        <time>2016-02-24T15:27:08Z</time>
      </trkpt>
      <trkpt lat="43.43684" lon="6.03256">
        <ele>262.20001220703</ele>
        <time>2016-02-24T15:27:10Z</time>
      </trkpt>
      <trkpt lat="43.43681" lon="6.03267">
        <ele>262.20001220703</ele>
        <time>2016-02-24T15:27:12Z</time>
      </trkpt>
      <trkpt lat="43.43678" lon="6.03277">
        <ele>262.39999389648</ele>
        <time>2016-02-24T15:27:14Z</time>
      </trkpt>
      <trkpt lat="43.43674" lon="6.03288">
        <ele>262.60000610352</ele>
        <time>2016-02-24T15:27:16Z</time>
      </trkpt>
      <trkpt lat="43.43672" lon="6.03292">
        <ele>263</ele>
        <time>2016-02-24T15:27:17Z</time>
      </trkpt>
      <trkpt lat="43.43669" lon="6.03295">
        <ele>262.79998779297</ele>
        <time>2016-02-24T15:27:18Z</time>
      </trkpt>
      <trkpt lat="43.43664" lon="6.03299">
        <ele>261.60000610352</ele>
        <time>2016-02-24T15:27:20Z</time>
      </trkpt>
      <trkpt lat="43.43661" lon="6.03303">
        <ele>261.60000610352</ele>
        <time>2016-02-24T15:27:22Z</time>
      </trkpt>
      <trkpt lat="43.4366" lon="6.03306">
        <ele>261.39999389648</ele>
        <time>2016-02-24T15:27:23Z</time>
      </trkpt>
      <trkpt lat="43.4366" lon="6.03307">
        <ele>261.20001220703</ele>
        <time>2016-02-24T15:27:24Z</time>
      </trkpt>
      <trkpt lat="43.43662" lon="6.0331">
        <ele>261.20001220703</ele>
        <time>2016-02-24T15:27:26Z</time>
      </trkpt>
      <trkpt lat="43.43663" lon="6.03312">
        <ele>260.79998779297</ele>
        <time>2016-02-24T15:27:28Z</time>
      </trkpt>
      <trkpt lat="43.43663" lon="6.03317">
        <ele>260.79998779297</ele>
        <time>2016-02-24T15:27:30Z</time>
      </trkpt>
      <trkpt lat="43.43661" lon="6.03321">
        <ele>260.79998779297</ele>
        <time>2016-02-24T15:27:32Z</time>
      </trkpt>
      <trkpt lat="43.43658" lon="6.03326">
        <ele>261.20001220703</ele>
        <time>2016-02-24T15:27:34Z</time>
      </trkpt>
      <trkpt lat="43.43656" lon="6.03332">
        <ele>261.39999389648</ele>
        <time>2016-02-24T15:27:36Z</time>
      </trkpt>
      <trkpt lat="43.43653" lon="6.03338">
        <ele>262</ele>
        <time>2016-02-24T15:27:38Z</time>
      </trkpt>
      <trkpt lat="43.43649" lon="6.03343">
        <ele>262.39999389648</ele>
        <time>2016-02-24T15:27:40Z</time>
      </trkpt>
      <trkpt lat="43.43645" lon="6.0335">
        <ele>262.20001220703</ele>
        <time>2016-02-24T15:27:42Z</time>
      </trkpt>
      <trkpt lat="43.43641" lon="6.03358">
        <ele>262.39999389648</ele>
        <time>2016-02-24T15:27:44Z</time>
      </trkpt>
      <trkpt lat="43.43637" lon="6.03366">
        <ele>262.79998779297</ele>
        <time>2016-02-24T15:27:46Z</time>
      </trkpt>
      <trkpt lat="43.43633" lon="6.03374">
        <ele>262.79998779297</ele>
        <time>2016-02-24T15:27:48Z</time>
      </trkpt>
      <trkpt lat="43.43629" lon="6.03382">
        <ele>262.60000610352</ele>
        <time>2016-02-24T15:27:50Z</time>
      </trkpt>
      <trkpt lat="43.43626" lon="6.0339">
        <ele>262.79998779297</ele>
        <time>2016-02-24T15:27:52Z</time>
      </trkpt>
      <trkpt lat="43.43624" lon="6.03399">
        <ele>263</ele>
        <time>2016-02-24T15:27:54Z</time>
      </trkpt>
      <trkpt lat="43.43625" lon="6.03408">
        <ele>262.79998779297</ele>
        <time>2016-02-24T15:27:56Z</time>
      </trkpt>
      <trkpt lat="43.43624" lon="6.03412">
        <ele>263</ele>
        <time>2016-02-24T15:27:57Z</time>
      </trkpt>
      <trkpt lat="43.43624" lon="6.03416">
        <ele>263.20001220703</ele>
        <time>2016-02-24T15:27:58Z</time>
      </trkpt>
      <trkpt lat="43.43624" lon="6.03424">
        <ele>263.20001220703</ele>
        <time>2016-02-24T15:28:00Z</time>
      </trkpt>
      <trkpt lat="43.43624" lon="6.03434">
        <ele>262.79998779297</ele>
        <time>2016-02-24T15:28:02Z</time>
      </trkpt>
      <trkpt lat="43.43623" lon="6.03441">
        <ele>262.79998779297</ele>
        <time>2016-02-24T15:28:03Z</time>
      </trkpt>
      <trkpt lat="43.43622" lon="6.03447">
        <ele>262.60000610352</ele>
        <time>2016-02-24T15:28:04Z</time>
      </trkpt>
      <trkpt lat="43.43621" lon="6.03453">
        <ele>262.39999389648</ele>
        <time>2016-02-24T15:28:05Z</time>
      </trkpt>
      <trkpt lat="43.4362" lon="6.03458">
        <ele>262.60000610352</ele>
        <time>2016-02-24T15:28:06Z</time>
      </trkpt>
      <trkpt lat="43.43617" lon="6.03464">
        <ele>262.60000610352</ele>
        <time>2016-02-24T15:28:07Z</time>
      </trkpt>
      <trkpt lat="43.43615" lon="6.03469">
        <ele>262.60000610352</ele>
        <time>2016-02-24T15:28:08Z</time>
      </trkpt>
      <trkpt lat="43.43613" lon="6.03475">
        <ele>262</ele>
        <time>2016-02-24T15:28:09Z</time>
      </trkpt>
      <trkpt lat="43.43612" lon="6.0348">
        <ele>261.20001220703</ele>
        <time>2016-02-24T15:28:10Z</time>
      </trkpt>
      <trkpt lat="43.4361" lon="6.03487">
        <ele>261.20001220703</ele>
        <time>2016-02-24T15:28:11Z</time>
      </trkpt>
      <trkpt lat="43.43609" lon="6.03493">
        <ele>261.20001220703</ele>
        <time>2016-02-24T15:28:12Z</time>
      </trkpt>
      <trkpt lat="43.43608" lon="6.03499">
        <ele>261</ele>
        <time>2016-02-24T15:28:13Z</time>
      </trkpt>
      <trkpt lat="43.43608" lon="6.03505">
        <ele>261</ele>
        <time>2016-02-24T15:28:14Z</time>
      </trkpt>
      <trkpt lat="43.43605" lon="6.03517">
        <ele>261</ele>
        <time>2016-02-24T15:28:16Z</time>
      </trkpt>
      <trkpt lat="43.43601" lon="6.03529">
        <ele>260.39999389648</ele>
        <time>2016-02-24T15:28:18Z</time>
      </trkpt>
      <trkpt lat="43.436" lon="6.03535">
        <ele>260</ele>
        <time>2016-02-24T15:28:19Z</time>
      </trkpt>
      <trkpt lat="43.43598" lon="6.0354">
        <ele>259.79998779297</ele>
        <time>2016-02-24T15:28:20Z</time>
      </trkpt>
      <trkpt lat="43.43593" lon="6.03549">
        <ele>260</ele>
        <time>2016-02-24T15:28:22Z</time>
      </trkpt>
      <trkpt lat="43.43591" lon="6.03554">
        <ele>260.39999389648</ele>
        <time>2016-02-24T15:28:23Z</time>
      </trkpt>
      <trkpt lat="43.43588" lon="6.03559">
        <ele>260.60000610352</ele>
        <time>2016-02-24T15:28:24Z</time>
      </trkpt>
      <trkpt lat="43.43584" lon="6.03569">
        <ele>260.60000610352</ele>
        <time>2016-02-24T15:28:26Z</time>
      </trkpt>
      <trkpt lat="43.43582" lon="6.03581">
        <ele>260</ele>
        <time>2016-02-24T15:28:28Z</time>
      </trkpt>
      <trkpt lat="43.4358" lon="6.03594">
        <ele>260</ele>
        <time>2016-02-24T15:28:30Z</time>
      </trkpt>
      <trkpt lat="43.4358" lon="6.03601">
        <ele>260</ele>
        <time>2016-02-24T15:28:31Z</time>
      </trkpt>
      <trkpt lat="43.4358" lon="6.03607">
        <ele>260</ele>
        <time>2016-02-24T15:28:32Z</time>
      </trkpt>
      <trkpt lat="43.4358" lon="6.03613">
        <ele>260.20001220703</ele>
        <time>2016-02-24T15:28:33Z</time>
      </trkpt>
      <trkpt lat="43.4358" lon="6.03618">
        <ele>260.20001220703</ele>
        <time>2016-02-24T15:28:34Z</time>
      </trkpt>
      <trkpt lat="43.4358" lon="6.03624">
        <ele>260.39999389648</ele>
        <time>2016-02-24T15:28:35Z</time>
      </trkpt>
      <trkpt lat="43.4358" lon="6.0363">
        <ele>260.39999389648</ele>
        <time>2016-02-24T15:28:36Z</time>
      </trkpt>
      <trkpt lat="43.43579" lon="6.03641">
        <ele>259.20001220703</ele>
        <time>2016-02-24T15:28:38Z</time>
      </trkpt>
      <trkpt lat="43.43576" lon="6.03652">
        <ele>260</ele>
        <time>2016-02-24T15:28:40Z</time>
      </trkpt>
      <trkpt lat="43.43572" lon="6.0366">
        <ele>261</ele>
        <time>2016-02-24T15:28:42Z</time>
      </trkpt>
      <trkpt lat="43.4357" lon="6.03663">
        <ele>260.79998779297</ele>
        <time>2016-02-24T15:28:43Z</time>
      </trkpt>
      <trkpt lat="43.4357" lon="6.03665">
        <ele>260.79998779297</ele>
        <time>2016-02-24T15:28:44Z</time>
      </trkpt>
      <trkpt lat="43.43571" lon="6.03672">
        <ele>260.79998779297</ele>
        <time>2016-02-24T15:28:46Z</time>
      </trkpt>
      <trkpt lat="43.43573" lon="6.0368">
        <ele>260.39999389648</ele>
        <time>2016-02-24T15:28:48Z</time>
      </trkpt>
      <trkpt lat="43.43572" lon="6.03685">
        <ele>260.39999389648</ele>
        <time>2016-02-24T15:28:49Z</time>
      </trkpt>
      <trkpt lat="43.43571" lon="6.0369">
        <ele>260.60000610352</ele>
        <time>2016-02-24T15:28:50Z</time>
      </trkpt>
      <trkpt lat="43.4357" lon="6.037">
        <ele>260.39999389648</ele>
        <time>2016-02-24T15:28:52Z</time>
      </trkpt>
      <trkpt lat="43.4357" lon="6.0371">
        <ele>261.20001220703</ele>
        <time>2016-02-24T15:28:54Z</time>
      </trkpt>
      <trkpt lat="43.4357" lon="6.03719">
        <ele>260.60000610352</ele>
        <time>2016-02-24T15:28:56Z</time>
      </trkpt>
      <trkpt lat="43.4357" lon="6.0373">
        <ele>260.39999389648</ele>
        <time>2016-02-24T15:28:58Z</time>
      </trkpt>
      <trkpt lat="43.43571" lon="6.0374">
        <ele>260.20001220703</ele>
        <time>2016-02-24T15:29:00Z</time>
      </trkpt>
      <trkpt lat="43.43571" lon="6.0375">
        <ele>261</ele>
        <time>2016-02-24T15:29:02Z</time>
      </trkpt>
      <trkpt lat="43.4357" lon="6.03755">
        <ele>261</ele>
        <time>2016-02-24T15:29:03Z</time>
      </trkpt>
      <trkpt lat="43.4357" lon="6.03759">
        <ele>261.39999389648</ele>
        <time>2016-02-24T15:29:04Z</time>
      </trkpt>
      <trkpt lat="43.43568" lon="6.03768">
        <ele>262</ele>
        <time>2016-02-24T15:29:06Z</time>
      </trkpt>
      <trkpt lat="43.43568" lon="6.03776">
        <ele>262</ele>
        <time>2016-02-24T15:29:08Z</time>
      </trkpt>
      <trkpt lat="43.43569" lon="6.03786">
        <ele>262</ele>
        <time>2016-02-24T15:29:10Z</time>
      </trkpt>
      <trkpt lat="43.4357" lon="6.03796">
        <ele>262.60000610352</ele>
        <time>2016-02-24T15:29:12Z</time>
      </trkpt>
      <trkpt lat="43.43575" lon="6.03806">
        <ele>262.39999389648</ele>
        <time>2016-02-24T15:29:14Z</time>
      </trkpt>
      <trkpt lat="43.43578" lon="6.03813">
        <ele>262.20001220703</ele>
        <time>2016-02-24T15:29:15Z</time>
      </trkpt>
      <trkpt lat="43.43579" lon="6.03818">
        <ele>261.79998779297</ele>
        <time>2016-02-24T15:29:16Z</time>
      </trkpt>
      <trkpt lat="43.43581" lon="6.03825">
        <ele>261.39999389648</ele>
        <time>2016-02-24T15:29:17Z</time>
      </trkpt>
      <trkpt lat="43.43582" lon="6.03832">
        <ele>261.20001220703</ele>
        <time>2016-02-24T15:29:18Z</time>
      </trkpt>
      <trkpt lat="43.43583" lon="6.03839">
        <ele>261</ele>
        <time>2016-02-24T15:29:19Z</time>
      </trkpt>
      <trkpt lat="43.43584" lon="6.03845">
        <ele>260.60000610352</ele>
        <time>2016-02-24T15:29:20Z</time>
      </trkpt>
      <trkpt lat="43.43584" lon="6.0386">
        <ele>260</ele>
        <time>2016-02-24T15:29:22Z</time>
      </trkpt>
      <trkpt lat="43.43585" lon="6.03866">
        <ele>260.20001220703</ele>
        <time>2016-02-24T15:29:23Z</time>
      </trkpt>
      <trkpt lat="43.43586" lon="6.03872">
        <ele>260</ele>
        <time>2016-02-24T15:29:24Z</time>
      </trkpt>
      <trkpt lat="43.43585" lon="6.03883">
        <ele>260</ele>
        <time>2016-02-24T15:29:26Z</time>
      </trkpt>
      <trkpt lat="43.43586" lon="6.0389">
        <ele>259.79998779297</ele>
        <time>2016-02-24T15:29:27Z</time>
      </trkpt>
      <trkpt lat="43.43587" lon="6.03897">
        <ele>259.20001220703</ele>
        <time>2016-02-24T15:29:28Z</time>
      </trkpt>
      <trkpt lat="43.4359" lon="6.03911">
        <ele>258.60000610352</ele>
        <time>2016-02-24T15:29:30Z</time>
      </trkpt>
      <trkpt lat="43.43592" lon="6.03918">
        <ele>258.60000610352</ele>
        <time>2016-02-24T15:29:31Z</time>
      </trkpt>
      <trkpt lat="43.43594" lon="6.03925">
        <ele>258.20001220703</ele>
        <time>2016-02-24T15:29:32Z</time>
      </trkpt>
      <trkpt lat="43.43599" lon="6.03938">
        <ele>257.20001220703</ele>
        <time>2016-02-24T15:29:34Z</time>
      </trkpt>
      <trkpt lat="43.43601" lon="6.03952">
        <ele>258</ele>
        <time>2016-02-24T15:29:36Z</time>
      </trkpt>
      <trkpt lat="43.43602" lon="6.03958">
        <ele>257.79998779297</ele>
        <time>2016-02-24T15:29:37Z</time>
      </trkpt>
      <trkpt lat="43.43603" lon="6.03964">
        <ele>257.60000610352</ele>
        <time>2016-02-24T15:29:38Z</time>
      </trkpt>
      <trkpt lat="43.43602" lon="6.03972">
        <ele>258.79998779297</ele>
        <time>2016-02-24T15:29:40Z</time>
      </trkpt>
      <trkpt lat="43.43602" lon="6.03975">
        <ele>259.39999389648</ele>
        <time>2016-02-24T15:29:41Z</time>
      </trkpt>
      <trkpt lat="43.43602" lon="6.03977">
        <ele>259.79998779297</ele>
        <time>2016-02-24T15:29:42Z</time>
      </trkpt>
      <trkpt lat="43.43602" lon="6.03981">
        <ele>260.39999389648</ele>
        <time>2016-02-24T15:29:44Z</time>
      </trkpt>
      <trkpt lat="43.43601" lon="6.03983">
        <ele>260.39999389648</ele>
        <time>2016-02-24T15:29:45Z</time>
      </trkpt>
      <trkpt lat="43.436" lon="6.03986">
        <ele>260.60000610352</ele>
        <time>2016-02-24T15:29:46Z</time>
      </trkpt>
      <trkpt lat="43.43599" lon="6.03991">
        <ele>260.79998779297</ele>
        <time>2016-02-24T15:29:48Z</time>
      </trkpt>
      <trkpt lat="43.43598" lon="6.03994">
        <ele>261</ele>
        <time>2016-02-24T15:29:49Z</time>
      </trkpt>
      <trkpt lat="43.43597" lon="6.03997">
        <ele>261.20001220703</ele>
        <time>2016-02-24T15:29:50Z</time>
      </trkpt>
      <trkpt lat="43.43596" lon="6.04007">
        <ele>261.20001220703</ele>
        <time>2016-02-24T15:29:52Z</time>
      </trkpt>
      <trkpt lat="43.43594" lon="6.04012">
        <ele>260.79998779297</ele>
        <time>2016-02-24T15:29:53Z</time>
      </trkpt>
      <trkpt lat="43.43592" lon="6.04018">
        <ele>260.60000610352</ele>
        <time>2016-02-24T15:29:54Z</time>
      </trkpt>
      <trkpt lat="43.43587" lon="6.04028">
        <ele>260</ele>
        <time>2016-02-24T15:29:56Z</time>
      </trkpt>
      <trkpt lat="43.43581" lon="6.04038">
        <ele>259.60000610352</ele>
        <time>2016-02-24T15:29:58Z</time>
      </trkpt>
      <trkpt lat="43.43578" lon="6.04045">
        <ele>259.60000610352</ele>
        <time>2016-02-24T15:29:59Z</time>
      </trkpt>
      <trkpt lat="43.43575" lon="6.04051">
        <ele>259.39999389648</ele>
        <time>2016-02-24T15:30:00Z</time>
      </trkpt>
      <trkpt lat="43.43571" lon="6.04058">
        <ele>258.79998779297</ele>
        <time>2016-02-24T15:30:01Z</time>
      </trkpt>
      <trkpt lat="43.43567" lon="6.04064">
        <ele>257.79998779297</ele>
        <time>2016-02-24T15:30:02Z</time>
      </trkpt>
      <trkpt lat="43.43563" lon="6.04071">
        <ele>257.39999389648</ele>
        <time>2016-02-24T15:30:03Z</time>
      </trkpt>
      <trkpt lat="43.43561" lon="6.04079">
        <ele>257.20001220703</ele>
        <time>2016-02-24T15:30:04Z</time>
      </trkpt>
      <trkpt lat="43.43559" lon="6.04087">
        <ele>257.20001220703</ele>
        <time>2016-02-24T15:30:05Z</time>
      </trkpt>
      <trkpt lat="43.43557" lon="6.04094">
        <ele>257.39999389648</ele>
        <time>2016-02-24T15:30:06Z</time>
      </trkpt>
      <trkpt lat="43.43555" lon="6.04102">
        <ele>257.39999389648</ele>
        <time>2016-02-24T15:30:07Z</time>
      </trkpt>
      <trkpt lat="43.43553" lon="6.04108">
        <ele>257.20001220703</ele>
        <time>2016-02-24T15:30:08Z</time>
      </trkpt>
      <trkpt lat="43.43547" lon="6.0412">
        <ele>257</ele>
        <time>2016-02-24T15:30:10Z</time>
      </trkpt>
      <trkpt lat="43.43545" lon="6.04126">
        <ele>257.20001220703</ele>
        <time>2016-02-24T15:30:11Z</time>
      </trkpt>
      <trkpt lat="43.43543" lon="6.04131">
        <ele>257.39999389648</ele>
        <time>2016-02-24T15:30:12Z</time>
      </trkpt>
      <trkpt lat="43.43538" lon="6.04142">
        <ele>257.20001220703</ele>
        <time>2016-02-24T15:30:14Z</time>
      </trkpt>
      <trkpt lat="43.43536" lon="6.04148">
        <ele>256.79998779297</ele>
        <time>2016-02-24T15:30:15Z</time>
      </trkpt>
      <trkpt lat="43.43534" lon="6.04155">
        <ele>256.60000610352</ele>
        <time>2016-02-24T15:30:16Z</time>
      </trkpt>
      <trkpt lat="43.43533" lon="6.04163">
        <ele>256.60000610352</ele>
        <time>2016-02-24T15:30:17Z</time>
      </trkpt>
      <trkpt lat="43.43533" lon="6.04169">
        <ele>256.79998779297</ele>
        <time>2016-02-24T15:30:18Z</time>
      </trkpt>
      <trkpt lat="43.43535" lon="6.04184">
        <ele>256.60000610352</ele>
        <time>2016-02-24T15:30:20Z</time>
      </trkpt>
      <trkpt lat="43.43537" lon="6.04192">
        <ele>256.60000610352</ele>
        <time>2016-02-24T15:30:21Z</time>
      </trkpt>
      <trkpt lat="43.43538" lon="6.042">
        <ele>256</ele>
        <time>2016-02-24T15:30:22Z</time>
      </trkpt>
      <trkpt lat="43.43538" lon="6.04208">
        <ele>255.60000610352</ele>
        <time>2016-02-24T15:30:23Z</time>
      </trkpt>
      <trkpt lat="43.43536" lon="6.04216">
        <ele>255</ele>
        <time>2016-02-24T15:30:24Z</time>
      </trkpt>
      <trkpt lat="43.4353" lon="6.04228">
        <ele>254.80000305176</ele>
        <time>2016-02-24T15:30:26Z</time>
      </trkpt>
      <trkpt lat="43.43526" lon="6.04234">
        <ele>254.60000610352</ele>
        <time>2016-02-24T15:30:27Z</time>
      </trkpt>
      <trkpt lat="43.43523" lon="6.04239">
        <ele>254.39999389648</ele>
        <time>2016-02-24T15:30:28Z</time>
      </trkpt>
      <trkpt lat="43.43515" lon="6.04246">
        <ele>254.80000305176</ele>
        <time>2016-02-24T15:30:30Z</time>
      </trkpt>
      <trkpt lat="43.43512" lon="6.0425">
        <ele>255.39999389648</ele>
        <time>2016-02-24T15:30:31Z</time>
      </trkpt>
      <trkpt lat="43.43509" lon="6.04254">
        <ele>255.39999389648</ele>
        <time>2016-02-24T15:30:32Z</time>
      </trkpt>
      <trkpt lat="43.43504" lon="6.04263">
        <ele>255.39999389648</ele>
        <time>2016-02-24T15:30:34Z</time>
      </trkpt>
      <trkpt lat="43.43499" lon="6.04274">
        <ele>255.19999694824</ele>
        <time>2016-02-24T15:30:36Z</time>
      </trkpt>
      <trkpt lat="43.43497" lon="6.0428">
        <ele>255.19999694824</ele>
        <time>2016-02-24T15:30:37Z</time>
      </trkpt>
      <trkpt lat="43.43495" lon="6.04285">
        <ele>255.39999389648</ele>
        <time>2016-02-24T15:30:38Z</time>
      </trkpt>
      <trkpt lat="43.43494" lon="6.04291">
        <ele>255.60000610352</ele>
        <time>2016-02-24T15:30:39Z</time>
      </trkpt>
      <trkpt lat="43.43493" lon="6.04297">
        <ele>255.60000610352</ele>
        <time>2016-02-24T15:30:40Z</time>
      </trkpt>
      <trkpt lat="43.43492" lon="6.04303">
        <ele>255.60000610352</ele>
        <time>2016-02-24T15:30:41Z</time>
      </trkpt>
      <trkpt lat="43.43492" lon="6.04309">
        <ele>256</ele>
        <time>2016-02-24T15:30:42Z</time>
      </trkpt>
      <trkpt lat="43.43491" lon="6.04321">
        <ele>256</ele>
        <time>2016-02-24T15:30:44Z</time>
      </trkpt>
      <trkpt lat="43.4349" lon="6.04333">
        <ele>256</ele>
        <time>2016-02-24T15:30:46Z</time>
      </trkpt>
      <trkpt lat="43.43489" lon="6.04345">
        <ele>256.79998779297</ele>
        <time>2016-02-24T15:30:48Z</time>
      </trkpt>
      <trkpt lat="43.43489" lon="6.04351">
        <ele>256.60000610352</ele>
        <time>2016-02-24T15:30:49Z</time>
      </trkpt>
      <trkpt lat="43.43489" lon="6.04357">
        <ele>256.39999389648</ele>
        <time>2016-02-24T15:30:50Z</time>
      </trkpt>
      <trkpt lat="43.43488" lon="6.0437">
        <ele>256.39999389648</ele>
        <time>2016-02-24T15:30:52Z</time>
      </trkpt>
      <trkpt lat="43.43486" lon="6.04384">
        <ele>256.60000610352</ele>
        <time>2016-02-24T15:30:54Z</time>
      </trkpt>
      <trkpt lat="43.43486" lon="6.04398">
        <ele>256.20001220703</ele>
        <time>2016-02-24T15:30:56Z</time>
      </trkpt>
      <trkpt lat="43.43486" lon="6.04406">
        <ele>256</ele>
        <time>2016-02-24T15:30:57Z</time>
      </trkpt>
      <trkpt lat="43.43486" lon="6.04413">
        <ele>255.80000305176</ele>
        <time>2016-02-24T15:30:58Z</time>
      </trkpt>
      <trkpt lat="43.43485" lon="6.04421">
        <ele>255.80000305176</ele>
        <time>2016-02-24T15:30:59Z</time>
      </trkpt>
      <trkpt lat="43.43483" lon="6.04428">
        <ele>255.60000610352</ele>
        <time>2016-02-24T15:31:00Z</time>
      </trkpt>
      <trkpt lat="43.43481" lon="6.04435">
        <ele>255.60000610352</ele>
        <time>2016-02-24T15:31:01Z</time>
      </trkpt>
      <trkpt lat="43.43481" lon="6.04442">
        <ele>255.60000610352</ele>
        <time>2016-02-24T15:31:02Z</time>
      </trkpt>
      <trkpt lat="43.43482" lon="6.04449">
        <ele>255.60000610352</ele>
        <time>2016-02-24T15:31:03Z</time>
      </trkpt>
      <trkpt lat="43.43484" lon="6.04455">
        <ele>255.60000610352</ele>
        <time>2016-02-24T15:31:04Z</time>
      </trkpt>
      <trkpt lat="43.43485" lon="6.04462">
        <ele>254.80000305176</ele>
        <time>2016-02-24T15:31:05Z</time>
      </trkpt>
      <trkpt lat="43.43486" lon="6.04469">
        <ele>254.19999694824</ele>
        <time>2016-02-24T15:31:06Z</time>
      </trkpt>
      <trkpt lat="43.43487" lon="6.04482">
        <ele>255.60000610352</ele>
        <time>2016-02-24T15:31:08Z</time>
      </trkpt>
      <trkpt lat="43.43487" lon="6.04489">
        <ele>255.80000305176</ele>
        <time>2016-02-24T15:31:09Z</time>
      </trkpt>
      <trkpt lat="43.43486" lon="6.04495">
        <ele>255.80000305176</ele>
        <time>2016-02-24T15:31:10Z</time>
      </trkpt>
      <trkpt lat="43.43486" lon="6.04502">
        <ele>255.60000610352</ele>
        <time>2016-02-24T15:31:11Z</time>
      </trkpt>
      <trkpt lat="43.43484" lon="6.04508">
        <ele>255.39999389648</ele>
        <time>2016-02-24T15:31:12Z</time>
      </trkpt>
      <trkpt lat="43.43481" lon="6.0452">
        <ele>255.39999389648</ele>
        <time>2016-02-24T15:31:14Z</time>
      </trkpt>
      <trkpt lat="43.43479" lon="6.04527">
        <ele>255.39999389648</ele>
        <time>2016-02-24T15:31:15Z</time>
      </trkpt>
      <trkpt lat="43.43476" lon="6.04532">
        <ele>255.19999694824</ele>
        <time>2016-02-24T15:31:16Z</time>
      </trkpt>
      <trkpt lat="43.43472" lon="6.04545">
        <ele>255.60000610352</ele>
        <time>2016-02-24T15:31:18Z</time>
      </trkpt>
      <trkpt lat="43.43467" lon="6.04556">
        <ele>255.39999389648</ele>
        <time>2016-02-24T15:31:20Z</time>
      </trkpt>
      <trkpt lat="43.43465" lon="6.04563">
        <ele>255.19999694824</ele>
        <time>2016-02-24T15:31:21Z</time>
      </trkpt>
      <trkpt lat="43.43464" lon="6.04569">
        <ele>255</ele>
        <time>2016-02-24T15:31:22Z</time>
      </trkpt>
      <trkpt lat="43.43461" lon="6.04582">
        <ele>255.80000305176</ele>
        <time>2016-02-24T15:31:24Z</time>
      </trkpt>
      <trkpt lat="43.43459" lon="6.04595">
        <ele>256.20001220703</ele>
        <time>2016-02-24T15:31:26Z</time>
      </trkpt>
      <trkpt lat="43.43456" lon="6.04609">
        <ele>255.39999389648</ele>
        <time>2016-02-24T15:31:28Z</time>
      </trkpt>
      <trkpt lat="43.43454" lon="6.04625">
        <ele>254.80000305176</ele>
        <time>2016-02-24T15:31:30Z</time>
      </trkpt>
      <trkpt lat="43.43451" lon="6.04639">
        <ele>255.80000305176</ele>
        <time>2016-02-24T15:31:32Z</time>
      </trkpt>
      <trkpt lat="43.43448" lon="6.04653">
        <ele>255.80000305176</ele>
        <time>2016-02-24T15:31:34Z</time>
      </trkpt>
      <trkpt lat="43.43444" lon="6.04668">
        <ele>254.39999389648</ele>
        <time>2016-02-24T15:31:36Z</time>
      </trkpt>
      <trkpt lat="43.43441" lon="6.04683">
        <ele>254.39999389648</ele>
        <time>2016-02-24T15:31:38Z</time>
      </trkpt>
      <trkpt lat="43.43439" lon="6.04698">
        <ele>254</ele>
        <time>2016-02-24T15:31:40Z</time>
      </trkpt>
      <trkpt lat="43.43438" lon="6.04706">
        <ele>254</ele>
        <time>2016-02-24T15:31:41Z</time>
      </trkpt>
      <trkpt lat="43.43438" lon="6.04713">
        <ele>254.19999694824</ele>
        <time>2016-02-24T15:31:42Z</time>
      </trkpt>
      <trkpt lat="43.43436" lon="6.04728">
        <ele>254</ele>
        <time>2016-02-24T15:31:44Z</time>
      </trkpt>
      <trkpt lat="43.43435" lon="6.04744">
        <ele>253.60000610352</ele>
        <time>2016-02-24T15:31:46Z</time>
      </trkpt>
      <trkpt lat="43.43435" lon="6.04752">
        <ele>253.60000610352</ele>
        <time>2016-02-24T15:31:47Z</time>
      </trkpt>
      <trkpt lat="43.43434" lon="6.04761">
        <ele>253.80000305176</ele>
        <time>2016-02-24T15:31:48Z</time>
      </trkpt>
      <trkpt lat="43.43432" lon="6.04777">
        <ele>253.39999389648</ele>
        <time>2016-02-24T15:31:50Z</time>
      </trkpt>
      <trkpt lat="43.43431" lon="6.04786">
        <ele>253.19999694824</ele>
        <time>2016-02-24T15:31:51Z</time>
      </trkpt>
      <trkpt lat="43.4343" lon="6.04794">
        <ele>253</ele>
        <time>2016-02-24T15:31:52Z</time>
      </trkpt>
      <trkpt lat="43.43429" lon="6.04803">
        <ele>253</ele>
        <time>2016-02-24T15:31:53Z</time>
      </trkpt>
      <trkpt lat="43.43429" lon="6.04812">
        <ele>253</ele>
        <time>2016-02-24T15:31:54Z</time>
      </trkpt>
      <trkpt lat="43.43428" lon="6.04828">
        <ele>252.60000610352</ele>
        <time>2016-02-24T15:31:56Z</time>
      </trkpt>
      <trkpt lat="43.43429" lon="6.04846">
        <ele>252.80000305176</ele>
        <time>2016-02-24T15:31:58Z</time>
      </trkpt>
      <trkpt lat="43.43429" lon="6.04855">
        <ele>252.80000305176</ele>
        <time>2016-02-24T15:31:59Z</time>
      </trkpt>
      <trkpt lat="43.43429" lon="6.04864">
        <ele>252.60000610352</ele>
        <time>2016-02-24T15:32:00Z</time>
      </trkpt>
      <trkpt lat="43.43428" lon="6.04873">
        <ele>251.80000305176</ele>
        <time>2016-02-24T15:32:01Z</time>
      </trkpt>
      <trkpt lat="43.43428" lon="6.04881">
        <ele>251.39999389648</ele>
        <time>2016-02-24T15:32:02Z</time>
      </trkpt>
      <trkpt lat="43.43427" lon="6.049">
        <ele>252.80000305176</ele>
        <time>2016-02-24T15:32:04Z</time>
      </trkpt>
      <trkpt lat="43.43426" lon="6.04918">
        <ele>252.39999389648</ele>
        <time>2016-02-24T15:32:06Z</time>
      </trkpt>
      <trkpt lat="43.43425" lon="6.04927">
        <ele>251.80000305176</ele>
        <time>2016-02-24T15:32:07Z</time>
      </trkpt>
      <trkpt lat="43.43423" lon="6.04934">
        <ele>251.39999389648</ele>
        <time>2016-02-24T15:32:08Z</time>
      </trkpt>
      <trkpt lat="43.43422" lon="6.04944">
        <ele>251</ele>
        <time>2016-02-24T15:32:09Z</time>
      </trkpt>
      <trkpt lat="43.43421" lon="6.04952">
        <ele>250.80000305176</ele>
        <time>2016-02-24T15:32:10Z</time>
      </trkpt>
      <trkpt lat="43.43419" lon="6.04968">
        <ele>250.80000305176</ele>
        <time>2016-02-24T15:32:12Z</time>
      </trkpt>
      <trkpt lat="43.43418" lon="6.04976">
        <ele>251.19999694824</ele>
        <time>2016-02-24T15:32:13Z</time>
      </trkpt>
      <trkpt lat="43.43417" lon="6.04983">
        <ele>251.19999694824</ele>
        <time>2016-02-24T15:32:14Z</time>
      </trkpt>
      <trkpt lat="43.43415" lon="6.04991">
        <ele>251</ele>
        <time>2016-02-24T15:32:15Z</time>
      </trkpt>
      <trkpt lat="43.43414" lon="6.04998">
        <ele>251</ele>
        <time>2016-02-24T15:32:16Z</time>
      </trkpt>
      <trkpt lat="43.43411" lon="6.05012">
        <ele>251.80000305176</ele>
        <time>2016-02-24T15:32:18Z</time>
      </trkpt>
      <trkpt lat="43.4341" lon="6.05024">
        <ele>252.39999389648</ele>
        <time>2016-02-24T15:32:20Z</time>
      </trkpt>
      <trkpt lat="43.43408" lon="6.05036">
        <ele>252.19999694824</ele>
        <time>2016-02-24T15:32:22Z</time>
      </trkpt>
      <trkpt lat="43.43407" lon="6.05047">
        <ele>253.19999694824</ele>
        <time>2016-02-24T15:32:24Z</time>
      </trkpt>
      <trkpt lat="43.43406" lon="6.05052">
        <ele>253.60000610352</ele>
        <time>2016-02-24T15:32:25Z</time>
      </trkpt>
      <trkpt lat="43.43406" lon="6.05056">
        <ele>254</ele>
        <time>2016-02-24T15:32:26Z</time>
      </trkpt>
      <trkpt lat="43.43405" lon="6.05061">
        <ele>254.19999694824</ele>
        <time>2016-02-24T15:32:27Z</time>
      </trkpt>
      <trkpt lat="43.43404" lon="6.05065">
        <ele>254.19999694824</ele>
        <time>2016-02-24T15:32:28Z</time>
      </trkpt>
      <trkpt lat="43.43403" lon="6.05073">
        <ele>254.19999694824</ele>
        <time>2016-02-24T15:32:30Z</time>
      </trkpt>
      <trkpt lat="43.43402" lon="6.05081">
        <ele>254.60000610352</ele>
        <time>2016-02-24T15:32:32Z</time>
      </trkpt>
      <trkpt lat="43.43401" lon="6.05089">
        <ele>254.80000305176</ele>
        <time>2016-02-24T15:32:34Z</time>
      </trkpt>
      <trkpt lat="43.434" lon="6.05093">
        <ele>254.80000305176</ele>
        <time>2016-02-24T15:32:35Z</time>
      </trkpt>
      <trkpt lat="43.43399" lon="6.05097">
        <ele>255</ele>
        <time>2016-02-24T15:32:36Z</time>
      </trkpt>
      <trkpt lat="43.43398" lon="6.051">
        <ele>255.19999694824</ele>
        <time>2016-02-24T15:32:37Z</time>
      </trkpt>
      <trkpt lat="43.43397" lon="6.05104">
        <ele>255</ele>
        <time>2016-02-24T15:32:38Z</time>
      </trkpt>
      <trkpt lat="43.43394" lon="6.05111">
        <ele>255.19999694824</ele>
        <time>2016-02-24T15:32:40Z</time>
      </trkpt>
      <trkpt lat="43.43391" lon="6.05118">
        <ele>255.80000305176</ele>
        <time>2016-02-24T15:32:42Z</time>
      </trkpt>
      <trkpt lat="43.4339" lon="6.05123">
        <ele>255.80000305176</ele>
        <time>2016-02-24T15:32:44Z</time>
      </trkpt>
      <trkpt lat="43.43389" lon="6.05126">
        <ele>255.39999389648</ele>
        <time>2016-02-24T15:32:46Z</time>
      </trkpt>
      <trkpt lat="43.43389" lon="6.05127">
        <ele>255.39999389648</ele>
        <time>2016-02-24T15:32:47Z</time>
      </trkpt>
      <trkpt lat="43.43389" lon="6.05127">
        <ele>255.39999389648</ele>
        <time>2016-02-24T15:32:48Z</time>
      </trkpt>
      <trkpt lat="43.43389" lon="6.05127">
        <ele>255.19999694824</ele>
        <time>2016-02-24T15:32:49Z</time>
      </trkpt>
      <trkpt lat="43.43389" lon="6.05127">
        <ele>255.39999389648</ele>
        <time>2016-02-24T15:32:50Z</time>
      </trkpt>
      <trkpt lat="43.43389" lon="6.05127">
        <ele>255.39999389648</ele>
        <time>2016-02-24T15:32:52Z</time>
      </trkpt>
      <trkpt lat="43.43389" lon="6.05127">
        <ele>255.39999389648</ele>
        <time>2016-02-24T15:32:54Z</time>
      </trkpt>
      <trkpt lat="43.43389" lon="6.05127">
        <ele>255.39999389648</ele>
        <time>2016-02-24T15:32:56Z</time>
      </trkpt>
      <trkpt lat="43.43389" lon="6.05127">
        <ele>255.60000610352</ele>
        <time>2016-02-24T15:32:58Z</time>
      </trkpt>
      <trkpt lat="43.43389" lon="6.05127">
        <ele>255.39999389648</ele>
        <time>2016-02-24T15:33:00Z</time>
      </trkpt>
      <trkpt lat="43.43389" lon="6.05127">
        <ele>255.19999694824</ele>
        <time>2016-02-24T15:33:02Z</time>
      </trkpt>
      <trkpt lat="43.43389" lon="6.05127">
        <ele>255.19999694824</ele>
        <time>2016-02-24T15:33:04Z</time>
      </trkpt>
      <trkpt lat="43.43389" lon="6.05127">
        <ele>255.19999694824</ele>
        <time>2016-02-24T15:33:06Z</time>
      </trkpt>
      <trkpt lat="43.43389" lon="6.05127">
        <ele>255.19999694824</ele>
        <time>2016-02-24T15:33:08Z</time>
      </trkpt>
      <trkpt lat="43.43389" lon="6.05127">
        <ele>255.39999389648</ele>
        <time>2016-02-24T15:33:10Z</time>
      </trkpt>
      <trkpt lat="43.43389" lon="6.05127">
        <ele>255.19999694824</ele>
        <time>2016-02-24T15:33:12Z</time>
      </trkpt>
      <trkpt lat="43.43389" lon="6.05127">
        <ele>255.19999694824</ele>
        <time>2016-02-24T15:33:13Z</time>
      </trkpt>
      <trkpt lat="43.43389" lon="6.05127">
        <ele>255.19999694824</ele>
        <time>2016-02-24T15:33:14Z</time>
      </trkpt>
      <trkpt lat="43.43389" lon="6.05127">
        <ele>255.19999694824</ele>
        <time>2016-02-24T15:33:16Z</time>
      </trkpt>
      <trkpt lat="43.43389" lon="6.05127">
        <ele>255.19999694824</ele>
        <time>2016-02-24T15:33:18Z</time>
      </trkpt>
      <trkpt lat="43.43389" lon="6.05127">
        <ele>255.39999389648</ele>
        <time>2016-02-24T15:33:19Z</time>
      </trkpt>
      <trkpt lat="43.43389" lon="6.05127">
        <ele>255.39999389648</ele>
        <time>2016-02-24T15:33:21Z</time>
      </trkpt>
      <trkpt lat="43.43389" lon="6.05127">
        <ele>255.39999389648</ele>
        <time>2016-02-24T15:33:22Z</time>
      </trkpt>
      <trkpt lat="43.43389" lon="6.05127">
        <ele>255.39999389648</ele>
        <time>2016-02-24T15:33:24Z</time>
      </trkpt>
      <trkpt lat="43.43389" lon="6.05127">
        <ele>255.39999389648</ele>
        <time>2016-02-24T15:33:25Z</time>
      </trkpt>
      <trkpt lat="43.43388" lon="6.05127">
        <ele>255.39999389648</ele>
        <time>2016-02-24T15:33:26Z</time>
      </trkpt>
      <trkpt lat="43.43386" lon="6.0513">
        <ele>255.39999389648</ele>
        <time>2016-02-24T15:33:28Z</time>
      </trkpt>
      <trkpt lat="43.43385" lon="6.05133">
        <ele>255.39999389648</ele>
        <time>2016-02-24T15:33:29Z</time>
      </trkpt>
      <trkpt lat="43.43384" lon="6.05137">
        <ele>255.19999694824</ele>
        <time>2016-02-24T15:33:30Z</time>
      </trkpt>
      <trkpt lat="43.43382" lon="6.05145">
        <ele>255</ele>
        <time>2016-02-24T15:33:32Z</time>
      </trkpt>
      <trkpt lat="43.43378" lon="6.05155">
        <ele>254.80000305176</ele>
        <time>2016-02-24T15:33:34Z</time>
      </trkpt>
      <trkpt lat="43.43374" lon="6.05166">
        <ele>254.39999389648</ele>
        <time>2016-02-24T15:33:36Z</time>
      </trkpt>
      <trkpt lat="43.4337" lon="6.05179">
        <ele>254.19999694824</ele>
        <time>2016-02-24T15:33:38Z</time>
      </trkpt>
      <trkpt lat="43.43365" lon="6.05193">
        <ele>253.60000610352</ele>
        <time>2016-02-24T15:33:40Z</time>
      </trkpt>
      <trkpt lat="43.43362" lon="6.052">
        <ele>253.19999694824</ele>
        <time>2016-02-24T15:33:41Z</time>
      </trkpt>
      <trkpt lat="43.43359" lon="6.05207">
        <ele>252.80000305176</ele>
        <time>2016-02-24T15:33:42Z</time>
      </trkpt>
      <trkpt lat="43.43354" lon="6.05221">
        <ele>252.60000610352</ele>
        <time>2016-02-24T15:33:44Z</time>
      </trkpt>
      <trkpt lat="43.4335" lon="6.05235">
        <ele>252.19999694824</ele>
        <time>2016-02-24T15:33:46Z</time>
      </trkpt>
      <trkpt lat="43.43348" lon="6.05241">
        <ele>252.19999694824</ele>
        <time>2016-02-24T15:33:47Z</time>
      </trkpt>
      <trkpt lat="43.43345" lon="6.05247">
        <ele>252</ele>
        <time>2016-02-24T15:33:48Z</time>
      </trkpt>
      <trkpt lat="43.4334" lon="6.05259">
        <ele>252.80000305176</ele>
        <time>2016-02-24T15:33:50Z</time>
      </trkpt>
      <trkpt lat="43.43336" lon="6.0527">
        <ele>252.60000610352</ele>
        <time>2016-02-24T15:33:52Z</time>
      </trkpt>
      <trkpt lat="43.43332" lon="6.05282">
        <ele>252.80000305176</ele>
        <time>2016-02-24T15:33:54Z</time>
      </trkpt>
      <trkpt lat="43.43329" lon="6.05292">
        <ele>253</ele>
        <time>2016-02-24T15:33:56Z</time>
      </trkpt>
      <trkpt lat="43.43325" lon="6.05301">
        <ele>252.80000305176</ele>
        <time>2016-02-24T15:33:58Z</time>
      </trkpt>
      <trkpt lat="43.43322" lon="6.05311">
        <ele>252.60000610352</ele>
        <time>2016-02-24T15:34:00Z</time>
      </trkpt>
      <trkpt lat="43.4332" lon="6.05315">
        <ele>252.80000305176</ele>
        <time>2016-02-24T15:34:01Z</time>
      </trkpt>
      <trkpt lat="43.43318" lon="6.0532">
        <ele>253</ele>
        <time>2016-02-24T15:34:02Z</time>
      </trkpt>
      <trkpt lat="43.43316" lon="6.05325">
        <ele>253.19999694824</ele>
        <time>2016-02-24T15:34:03Z</time>
      </trkpt>
      <trkpt lat="43.43314" lon="6.05329">
        <ele>253.39999389648</ele>
        <time>2016-02-24T15:34:04Z</time>
      </trkpt>
      <trkpt lat="43.43309" lon="6.05339">
        <ele>253.60000610352</ele>
        <time>2016-02-24T15:34:06Z</time>
      </trkpt>
      <trkpt lat="43.43306" lon="6.05348">
        <ele>254</ele>
        <time>2016-02-24T15:34:08Z</time>
      </trkpt>
      <trkpt lat="43.43303" lon="6.05354">
        <ele>254.19999694824</ele>
        <time>2016-02-24T15:34:09Z</time>
      </trkpt>
      <trkpt lat="43.43302" lon="6.05358">
        <ele>254</ele>
        <time>2016-02-24T15:34:10Z</time>
      </trkpt>
      <trkpt lat="43.43298" lon="6.05369">
        <ele>253.80000305176</ele>
        <time>2016-02-24T15:34:12Z</time>
      </trkpt>
      <trkpt lat="43.43295" lon="6.05374">
        <ele>253.60000610352</ele>
        <time>2016-02-24T15:34:13Z</time>
      </trkpt>
      <trkpt lat="43.43293" lon="6.05379">
        <ele>253.39999389648</ele>
        <time>2016-02-24T15:34:14Z</time>
      </trkpt>
      <trkpt lat="43.4329" lon="6.05384">
        <ele>253</ele>
        <time>2016-02-24T15:34:15Z</time>
      </trkpt>
      <trkpt lat="43.43288" lon="6.05389">
        <ele>253</ele>
        <time>2016-02-24T15:34:16Z</time>
      </trkpt>
      <trkpt lat="43.43283" lon="6.054">
        <ele>253.60000610352</ele>
        <time>2016-02-24T15:34:18Z</time>
      </trkpt>
      <trkpt lat="43.43279" lon="6.05411">
        <ele>254</ele>
        <time>2016-02-24T15:34:20Z</time>
      </trkpt>
      <trkpt lat="43.43275" lon="6.0542">
        <ele>253.60000610352</ele>
        <time>2016-02-24T15:34:22Z</time>
      </trkpt>
      <trkpt lat="43.43272" lon="6.0543">
        <ele>253.39999389648</ele>
        <time>2016-02-24T15:34:24Z</time>
      </trkpt>
      <trkpt lat="43.43269" lon="6.05438">
        <ele>253.39999389648</ele>
        <time>2016-02-24T15:34:26Z</time>
      </trkpt>
      <trkpt lat="43.43265" lon="6.05447">
        <ele>253.19999694824</ele>
        <time>2016-02-24T15:34:28Z</time>
      </trkpt>
      <trkpt lat="43.43261" lon="6.05456">
        <ele>254</ele>
        <time>2016-02-24T15:34:30Z</time>
      </trkpt>
      <trkpt lat="43.4326" lon="6.05461">
        <ele>254.19999694824</ele>
        <time>2016-02-24T15:34:31Z</time>
      </trkpt>
      <trkpt lat="43.43259" lon="6.05464">
        <ele>254.39999389648</ele>
        <time>2016-02-24T15:34:32Z</time>
      </trkpt>
      <trkpt lat="43.43257" lon="6.05472">
        <ele>255.19999694824</ele>
        <time>2016-02-24T15:34:34Z</time>
      </trkpt>
      <trkpt lat="43.43255" lon="6.05476">
        <ele>255.19999694824</ele>
        <time>2016-02-24T15:34:35Z</time>
      </trkpt>
      <trkpt lat="43.43254" lon="6.0548">
        <ele>255.39999389648</ele>
        <time>2016-02-24T15:34:36Z</time>
      </trkpt>
      <trkpt lat="43.43252" lon="6.05487">
        <ele>256</ele>
        <time>2016-02-24T15:34:38Z</time>
      </trkpt>
      <trkpt lat="43.43251" lon="6.05493">
        <ele>256.60000610352</ele>
        <time>2016-02-24T15:34:40Z</time>
      </trkpt>
      <trkpt lat="43.4325" lon="6.05496">
        <ele>257</ele>
        <time>2016-02-24T15:34:41Z</time>
      </trkpt>
      <trkpt lat="43.43248" lon="6.055">
        <ele>257.20001220703</ele>
        <time>2016-02-24T15:34:42Z</time>
      </trkpt>
      <trkpt lat="43.43247" lon="6.05503">
        <ele>257.60000610352</ele>
        <time>2016-02-24T15:34:43Z</time>
      </trkpt>
      <trkpt lat="43.43246" lon="6.05506">
        <ele>258</ele>
        <time>2016-02-24T15:34:44Z</time>
      </trkpt>
      <trkpt lat="43.43245" lon="6.05509">
        <ele>258</ele>
        <time>2016-02-24T15:34:45Z</time>
      </trkpt>
      <trkpt lat="43.43244" lon="6.05512">
        <ele>257.79998779297</ele>
        <time>2016-02-24T15:34:46Z</time>
      </trkpt>
      <trkpt lat="43.43244" lon="6.05516">
        <ele>257.79998779297</ele>
        <time>2016-02-24T15:34:47Z</time>
      </trkpt>
      <trkpt lat="43.43243" lon="6.05518">
        <ele>258</ele>
        <time>2016-02-24T15:34:48Z</time>
      </trkpt>
      <trkpt lat="43.43242" lon="6.0552">
        <ele>258.39999389648</ele>
        <time>2016-02-24T15:34:49Z</time>
      </trkpt>
      <trkpt lat="43.43241" lon="6.05523">
        <ele>258.79998779297</ele>
        <time>2016-02-24T15:34:50Z</time>
      </trkpt>
      <trkpt lat="43.4324" lon="6.05528">
        <ele>259.20001220703</ele>
        <time>2016-02-24T15:34:52Z</time>
      </trkpt>
      <trkpt lat="43.43238" lon="6.05534">
        <ele>259.20001220703</ele>
        <time>2016-02-24T15:34:54Z</time>
      </trkpt>
      <trkpt lat="43.43237" lon="6.05537">
        <ele>259</ele>
        <time>2016-02-24T15:34:55Z</time>
      </trkpt>
      <trkpt lat="43.43237" lon="6.05539">
        <ele>259</ele>
        <time>2016-02-24T15:34:56Z</time>
      </trkpt>
      <trkpt lat="43.43236" lon="6.05543">
        <ele>259.20001220703</ele>
        <time>2016-02-24T15:34:57Z</time>
      </trkpt>
      <trkpt lat="43.43236" lon="6.05546">
        <ele>259.20001220703</ele>
        <time>2016-02-24T15:34:58Z</time>
      </trkpt>
      <trkpt lat="43.43234" lon="6.05552">
        <ele>259.39999389648</ele>
        <time>2016-02-24T15:35:00Z</time>
      </trkpt>
      <trkpt lat="43.43233" lon="6.05558">
        <ele>259.39999389648</ele>
        <time>2016-02-24T15:35:02Z</time>
      </trkpt>
      <trkpt lat="43.43231" lon="6.05565">
        <ele>259.20001220703</ele>
        <time>2016-02-24T15:35:04Z</time>
      </trkpt>
      <trkpt lat="43.4323" lon="6.05568">
        <ele>259.39999389648</ele>
        <time>2016-02-24T15:35:05Z</time>
      </trkpt>
      <trkpt lat="43.4323" lon="6.05572">
        <ele>259.60000610352</ele>
        <time>2016-02-24T15:35:06Z</time>
      </trkpt>
      <trkpt lat="43.43229" lon="6.05576">
        <ele>259.60000610352</ele>
        <time>2016-02-24T15:35:07Z</time>
      </trkpt>
      <trkpt lat="43.43229" lon="6.0558">
        <ele>259.60000610352</ele>
        <time>2016-02-24T15:35:08Z</time>
      </trkpt>
      <trkpt lat="43.43228" lon="6.05588">
        <ele>259.39999389648</ele>
        <time>2016-02-24T15:35:10Z</time>
      </trkpt>
      <trkpt lat="43.43227" lon="6.05596">
        <ele>259.60000610352</ele>
        <time>2016-02-24T15:35:12Z</time>
      </trkpt>
      <trkpt lat="43.43227" lon="6.056">
        <ele>259.79998779297</ele>
        <time>2016-02-24T15:35:13Z</time>
      </trkpt>
      <trkpt lat="43.43226" lon="6.05604">
        <ele>259.79998779297</ele>
        <time>2016-02-24T15:35:14Z</time>
      </trkpt>
      <trkpt lat="43.43225" lon="6.05612">
        <ele>259.79998779297</ele>
        <time>2016-02-24T15:35:16Z</time>
      </trkpt>
      <trkpt lat="43.43224" lon="6.0562">
        <ele>259.79998779297</ele>
        <time>2016-02-24T15:35:18Z</time>
      </trkpt>
      <trkpt lat="43.43223" lon="6.05628">
        <ele>260.39999389648</ele>
        <time>2016-02-24T15:35:20Z</time>
      </trkpt>
      <trkpt lat="43.43222" lon="6.05636">
        <ele>260</ele>
        <time>2016-02-24T15:35:22Z</time>
      </trkpt>
      <trkpt lat="43.43222" lon="6.0564">
        <ele>260</ele>
        <time>2016-02-24T15:35:23Z</time>
      </trkpt>
      <trkpt lat="43.43221" lon="6.05644">
        <ele>260.20001220703</ele>
        <time>2016-02-24T15:35:24Z</time>
      </trkpt>
      <trkpt lat="43.43221" lon="6.05651">
        <ele>260</ele>
        <time>2016-02-24T15:35:26Z</time>
      </trkpt>
      <trkpt lat="43.43221" lon="6.05659">
        <ele>260.39999389648</ele>
        <time>2016-02-24T15:35:28Z</time>
      </trkpt>
      <trkpt lat="43.4322" lon="6.05667">
        <ele>260.79998779297</ele>
        <time>2016-02-24T15:35:30Z</time>
      </trkpt>
      <trkpt lat="43.4322" lon="6.05671">
        <ele>261</ele>
        <time>2016-02-24T15:35:31Z</time>
      </trkpt>
      <trkpt lat="43.43219" lon="6.05674">
        <ele>260.79998779297</ele>
        <time>2016-02-24T15:35:32Z</time>
      </trkpt>
      <trkpt lat="43.43219" lon="6.05682">
        <ele>260.79998779297</ele>
        <time>2016-02-24T15:35:34Z</time>
      </trkpt>
      <trkpt lat="43.43218" lon="6.0569">
        <ele>261</ele>
        <time>2016-02-24T15:35:36Z</time>
      </trkpt>
      <trkpt lat="43.43217" lon="6.05697">
        <ele>261</ele>
        <time>2016-02-24T15:35:38Z</time>
      </trkpt>
      <trkpt lat="43.43216" lon="6.05704">
        <ele>261.20001220703</ele>
        <time>2016-02-24T15:35:40Z</time>
      </trkpt>
      <trkpt lat="43.43215" lon="6.05712">
        <ele>261.20001220703</ele>
        <time>2016-02-24T15:35:42Z</time>
      </trkpt>
      <trkpt lat="43.43214" lon="6.05719">
        <ele>261.39999389648</ele>
        <time>2016-02-24T15:35:44Z</time>
      </trkpt>
      <trkpt lat="43.43213" lon="6.05727">
        <ele>261.60000610352</ele>
        <time>2016-02-24T15:35:46Z</time>
      </trkpt>
      <trkpt lat="43.43213" lon="6.05731">
        <ele>261.60000610352</ele>
        <time>2016-02-24T15:35:47Z</time>
      </trkpt>
      <trkpt lat="43.43213" lon="6.05735">
        <ele>261.79998779297</ele>
        <time>2016-02-24T15:35:48Z</time>
      </trkpt>
      <trkpt lat="43.43212" lon="6.05742">
        <ele>261.79998779297</ele>
        <time>2016-02-24T15:35:50Z</time>
      </trkpt>
      <trkpt lat="43.43211" lon="6.05751">
        <ele>262</ele>
        <time>2016-02-24T15:35:52Z</time>
      </trkpt>
      <trkpt lat="43.43211" lon="6.0576">
        <ele>261.39999389648</ele>
        <time>2016-02-24T15:35:54Z</time>
      </trkpt>
      <trkpt lat="43.4321" lon="6.05765">
        <ele>261.20001220703</ele>
        <time>2016-02-24T15:35:55Z</time>
      </trkpt>
      <trkpt lat="43.4321" lon="6.05769">
        <ele>261</ele>
        <time>2016-02-24T15:35:56Z</time>
      </trkpt>
      <trkpt lat="43.43209" lon="6.05778">
        <ele>261.20001220703</ele>
        <time>2016-02-24T15:35:58Z</time>
      </trkpt>
      <trkpt lat="43.43207" lon="6.05788">
        <ele>260.79998779297</ele>
        <time>2016-02-24T15:36:00Z</time>
      </trkpt>
      <trkpt lat="43.43206" lon="6.05799">
        <ele>260</ele>
        <time>2016-02-24T15:36:02Z</time>
      </trkpt>
      <trkpt lat="43.43205" lon="6.05805">
        <ele>260</ele>
        <time>2016-02-24T15:36:03Z</time>
      </trkpt>
      <trkpt lat="43.43204" lon="6.0581">
        <ele>260</ele>
        <time>2016-02-24T15:36:04Z</time>
      </trkpt>
      <trkpt lat="43.43203" lon="6.05821">
        <ele>260</ele>
        <time>2016-02-24T15:36:06Z</time>
      </trkpt>
      <trkpt lat="43.43201" lon="6.05832">
        <ele>260</ele>
        <time>2016-02-24T15:36:08Z</time>
      </trkpt>
      <trkpt lat="43.432" lon="6.05843">
        <ele>259.79998779297</ele>
        <time>2016-02-24T15:36:10Z</time>
      </trkpt>
      <trkpt lat="43.43198" lon="6.05849">
        <ele>259.79998779297</ele>
        <time>2016-02-24T15:36:11Z</time>
      </trkpt>
      <trkpt lat="43.43197" lon="6.05854">
        <ele>259.79998779297</ele>
        <time>2016-02-24T15:36:12Z</time>
      </trkpt>
      <trkpt lat="43.43195" lon="6.05864">
        <ele>260.20001220703</ele>
        <time>2016-02-24T15:36:14Z</time>
      </trkpt>
      <trkpt lat="43.43193" lon="6.05875">
        <ele>259.79998779297</ele>
        <time>2016-02-24T15:36:16Z</time>
      </trkpt>
      <trkpt lat="43.43191" lon="6.05885">
        <ele>259.79998779297</ele>
        <time>2016-02-24T15:36:18Z</time>
      </trkpt>
      <trkpt lat="43.4319" lon="6.0589">
        <ele>259.79998779297</ele>
        <time>2016-02-24T15:36:19Z</time>
      </trkpt>
      <trkpt lat="43.43189" lon="6.05894">
        <ele>259.60000610352</ele>
        <time>2016-02-24T15:36:20Z</time>
      </trkpt>
      <trkpt lat="43.43186" lon="6.05904">
        <ele>259.60000610352</ele>
        <time>2016-02-24T15:36:22Z</time>
      </trkpt>
      <trkpt lat="43.43183" lon="6.05913">
        <ele>259.39999389648</ele>
        <time>2016-02-24T15:36:24Z</time>
      </trkpt>
      <trkpt lat="43.43181" lon="6.05917">
        <ele>259.20001220703</ele>
        <time>2016-02-24T15:36:25Z</time>
      </trkpt>
      <trkpt lat="43.4318" lon="6.05922">
        <ele>259.39999389648</ele>
        <time>2016-02-24T15:36:26Z</time>
      </trkpt>
      <trkpt lat="43.43177" lon="6.05931">
        <ele>259.79998779297</ele>
        <time>2016-02-24T15:36:28Z</time>
      </trkpt>
      <trkpt lat="43.43175" lon="6.0594">
        <ele>260</ele>
        <time>2016-02-24T15:36:30Z</time>
      </trkpt>
      <trkpt lat="43.43174" lon="6.05945">
        <ele>260</ele>
        <time>2016-02-24T15:36:31Z</time>
      </trkpt>
      <trkpt lat="43.43173" lon="6.05949">
        <ele>260</ele>
        <time>2016-02-24T15:36:32Z</time>
      </trkpt>
      <trkpt lat="43.43171" lon="6.05958">
        <ele>260</ele>
        <time>2016-02-24T15:36:34Z</time>
      </trkpt>
      <trkpt lat="43.4317" lon="6.05967">
        <ele>260.20001220703</ele>
        <time>2016-02-24T15:36:36Z</time>
      </trkpt>
      <trkpt lat="43.43168" lon="6.05975">
        <ele>260.39999389648</ele>
        <time>2016-02-24T15:36:38Z</time>
      </trkpt>
      <trkpt lat="43.43166" lon="6.05984">
        <ele>260.60000610352</ele>
        <time>2016-02-24T15:36:40Z</time>
      </trkpt>
      <trkpt lat="43.43163" lon="6.05992">
        <ele>260.20001220703</ele>
        <time>2016-02-24T15:36:42Z</time>
      </trkpt>
      <trkpt lat="43.4316" lon="6.06002">
        <ele>260</ele>
        <time>2016-02-24T15:36:44Z</time>
      </trkpt>
      <trkpt lat="43.43159" lon="6.06007">
        <ele>260.20001220703</ele>
        <time>2016-02-24T15:36:45Z</time>
      </trkpt>
      <trkpt lat="43.43158" lon="6.06011">
        <ele>260.20001220703</ele>
        <time>2016-02-24T15:36:46Z</time>
      </trkpt>
      <trkpt lat="43.43156" lon="6.06021">
        <ele>260.20001220703</ele>
        <time>2016-02-24T15:36:48Z</time>
      </trkpt>
      <trkpt lat="43.43155" lon="6.0603">
        <ele>260.39999389648</ele>
        <time>2016-02-24T15:36:50Z</time>
      </trkpt>
      <trkpt lat="43.43154" lon="6.06034">
        <ele>260.60000610352</ele>
        <time>2016-02-24T15:36:51Z</time>
      </trkpt>
      <trkpt lat="43.43153" lon="6.06039">
        <ele>260.39999389648</ele>
        <time>2016-02-24T15:36:52Z</time>
      </trkpt>
      <trkpt lat="43.43151" lon="6.06048">
        <ele>260.39999389648</ele>
        <time>2016-02-24T15:36:54Z</time>
      </trkpt>
      <trkpt lat="43.4315" lon="6.06056">
        <ele>261</ele>
        <time>2016-02-24T15:36:56Z</time>
      </trkpt>
      <trkpt lat="43.43148" lon="6.06064">
        <ele>261.20001220703</ele>
        <time>2016-02-24T15:36:58Z</time>
      </trkpt>
      <trkpt lat="43.43146" lon="6.06073">
        <ele>261.20001220703</ele>
        <time>2016-02-24T15:37:00Z</time>
      </trkpt>
      <trkpt lat="43.43145" lon="6.06082">
        <ele>261</ele>
        <time>2016-02-24T15:37:02Z</time>
      </trkpt>
      <trkpt lat="43.43142" lon="6.0609">
        <ele>261.20001220703</ele>
        <time>2016-02-24T15:37:04Z</time>
      </trkpt>
      <trkpt lat="43.4314" lon="6.061">
        <ele>261</ele>
        <time>2016-02-24T15:37:06Z</time>
      </trkpt>
      <trkpt lat="43.43137" lon="6.06108">
        <ele>260.79998779297</ele>
        <time>2016-02-24T15:37:08Z</time>
      </trkpt>
      <trkpt lat="43.43135" lon="6.06119">
        <ele>260.79998779297</ele>
        <time>2016-02-24T15:37:10Z</time>
      </trkpt>
      <trkpt lat="43.43133" lon="6.06125">
        <ele>260.60000610352</ele>
        <time>2016-02-24T15:37:11Z</time>
      </trkpt>
      <trkpt lat="43.43132" lon="6.0613">
        <ele>260.39999389648</ele>
        <time>2016-02-24T15:37:12Z</time>
      </trkpt>
      <trkpt lat="43.4313" lon="6.06142">
        <ele>260</ele>
        <time>2016-02-24T15:37:14Z</time>
      </trkpt>
      <trkpt lat="43.43127" lon="6.06154">
        <ele>259.79998779297</ele>
        <time>2016-02-24T15:37:16Z</time>
      </trkpt>
      <trkpt lat="43.43124" lon="6.06165">
        <ele>259.20001220703</ele>
        <time>2016-02-24T15:37:18Z</time>
      </trkpt>
      <trkpt lat="43.43123" lon="6.06171">
        <ele>259.20001220703</ele>
        <time>2016-02-24T15:37:19Z</time>
      </trkpt>
      <trkpt lat="43.43122" lon="6.06176">
        <ele>259</ele>
        <time>2016-02-24T15:37:20Z</time>
      </trkpt>
      <trkpt lat="43.43121" lon="6.06188">
        <ele>259.39999389648</ele>
        <time>2016-02-24T15:37:22Z</time>
      </trkpt>
      <trkpt lat="43.4312" lon="6.06193">
        <ele>259.39999389648</ele>
        <time>2016-02-24T15:37:23Z</time>
      </trkpt>
      <trkpt lat="43.43119" lon="6.06199">
        <ele>259.60000610352</ele>
        <time>2016-02-24T15:37:24Z</time>
      </trkpt>
      <trkpt lat="43.43119" lon="6.0621">
        <ele>260</ele>
        <time>2016-02-24T15:37:26Z</time>
      </trkpt>
      <trkpt lat="43.43119" lon="6.06222">
        <ele>259.79998779297</ele>
        <time>2016-02-24T15:37:28Z</time>
      </trkpt>
      <trkpt lat="43.4312" lon="6.0623">
        <ele>259.20001220703</ele>
        <time>2016-02-24T15:37:29Z</time>
      </trkpt>
      <trkpt lat="43.43122" lon="6.06237">
        <ele>258.60000610352</ele>
        <time>2016-02-24T15:37:30Z</time>
      </trkpt>
      <trkpt lat="43.43123" lon="6.06253">
        <ele>257.60000610352</ele>
        <time>2016-02-24T15:37:32Z</time>
      </trkpt>
      <trkpt lat="43.43123" lon="6.06261">
        <ele>257.20001220703</ele>
        <time>2016-02-24T15:37:33Z</time>
      </trkpt>
      <trkpt lat="43.43124" lon="6.06268">
        <ele>257.39999389648</ele>
        <time>2016-02-24T15:37:34Z</time>
      </trkpt>
      <trkpt lat="43.43125" lon="6.06283">
        <ele>257.60000610352</ele>
        <time>2016-02-24T15:37:36Z</time>
      </trkpt>
      <trkpt lat="43.43126" lon="6.06296">
        <ele>257.20001220703</ele>
        <time>2016-02-24T15:37:38Z</time>
      </trkpt>
      <trkpt lat="43.43126" lon="6.06303">
        <ele>257</ele>
        <time>2016-02-24T15:37:39Z</time>
      </trkpt>
      <trkpt lat="43.43127" lon="6.06308">
        <ele>257</ele>
        <time>2016-02-24T15:37:40Z</time>
      </trkpt>
      <trkpt lat="43.43129" lon="6.06322">
        <ele>256.79998779297</ele>
        <time>2016-02-24T15:37:42Z</time>
      </trkpt>
      <trkpt lat="43.4313" lon="6.06335">
        <ele>256.39999389648</ele>
        <time>2016-02-24T15:37:44Z</time>
      </trkpt>
      <trkpt lat="43.43131" lon="6.06343">
        <ele>255.80000305176</ele>
        <time>2016-02-24T15:37:45Z</time>
      </trkpt>
      <trkpt lat="43.43132" lon="6.06351">
        <ele>255</ele>
        <time>2016-02-24T15:37:46Z</time>
      </trkpt>
      <trkpt lat="43.43133" lon="6.06368">
        <ele>255</ele>
        <time>2016-02-24T15:37:48Z</time>
      </trkpt>
      <trkpt lat="43.43134" lon="6.06376">
        <ele>254.80000305176</ele>
        <time>2016-02-24T15:37:49Z</time>
      </trkpt>
      <trkpt lat="43.43134" lon="6.06384">
        <ele>254.60000610352</ele>
        <time>2016-02-24T15:37:50Z</time>
      </trkpt>
      <trkpt lat="43.43135" lon="6.064">
        <ele>253.60000610352</ele>
        <time>2016-02-24T15:37:52Z</time>
      </trkpt>
      <trkpt lat="43.43137" lon="6.06409">
        <ele>253</ele>
        <time>2016-02-24T15:37:53Z</time>
      </trkpt>
      <trkpt lat="43.43138" lon="6.06416">
        <ele>252.39999389648</ele>
        <time>2016-02-24T15:37:54Z</time>
      </trkpt>
      <trkpt lat="43.4314" lon="6.06432">
        <ele>252.60000610352</ele>
        <time>2016-02-24T15:37:56Z</time>
      </trkpt>
      <trkpt lat="43.43142" lon="6.06449">
        <ele>253</ele>
        <time>2016-02-24T15:37:58Z</time>
      </trkpt>
      <trkpt lat="43.43145" lon="6.06465">
        <ele>253</ele>
        <time>2016-02-24T15:38:00Z</time>
      </trkpt>
      <trkpt lat="43.43145" lon="6.06471">
        <ele>252.19999694824</ele>
        <time>2016-02-24T15:38:01Z</time>
      </trkpt>
      <trkpt lat="43.43144" lon="6.06476">
        <ele>252</ele>
        <time>2016-02-24T15:38:02Z</time>
      </trkpt>
      <trkpt lat="43.4314" lon="6.06482">
        <ele>252.19999694824</ele>
        <time>2016-02-24T15:38:04Z</time>
      </trkpt>
      <trkpt lat="43.43138" lon="6.06483">
        <ele>252.19999694824</ele>
        <time>2016-02-24T15:38:05Z</time>
      </trkpt>
      <trkpt lat="43.43137" lon="6.06484">
        <ele>252.39999389648</ele>
        <time>2016-02-24T15:38:06Z</time>
      </trkpt>
      <trkpt lat="43.43134" lon="6.06484">
        <ele>253.39999389648</ele>
        <time>2016-02-24T15:38:08Z</time>
      </trkpt>
      <trkpt lat="43.43131" lon="6.06483">
        <ele>253.60000610352</ele>
        <time>2016-02-24T15:38:10Z</time>
      </trkpt>
      <trkpt lat="43.43128" lon="6.06484">
        <ele>254</ele>
        <time>2016-02-24T15:38:12Z</time>
      </trkpt>
      <trkpt lat="43.43125" lon="6.06484">
        <ele>254.60000610352</ele>
        <time>2016-02-24T15:38:14Z</time>
      </trkpt>
      <trkpt lat="43.43122" lon="6.06484">
        <ele>255.19999694824</ele>
        <time>2016-02-24T15:38:16Z</time>
      </trkpt>
      <trkpt lat="43.43121" lon="6.06485">
        <ele>255.80000305176</ele>
        <time>2016-02-24T15:38:17Z</time>
      </trkpt>
      <trkpt lat="43.43119" lon="6.06485">
        <ele>256.20001220703</ele>
        <time>2016-02-24T15:38:18Z</time>
      </trkpt>
      <trkpt lat="43.43117" lon="6.06487">
        <ele>256.79998779297</ele>
        <time>2016-02-24T15:38:20Z</time>
      </trkpt>
      <trkpt lat="43.43114" lon="6.06486">
        <ele>257</ele>
        <time>2016-02-24T15:38:22Z</time>
      </trkpt>
      <trkpt lat="43.43111" lon="6.06485">
        <ele>257.39999389648</ele>
        <time>2016-02-24T15:38:24Z</time>
      </trkpt>
      <trkpt lat="43.43111" lon="6.06484">
        <ele>257.60000610352</ele>
        <time>2016-02-24T15:38:25Z</time>
      </trkpt>
      <trkpt lat="43.4311" lon="6.06484">
        <ele>257.79998779297</ele>
        <time>2016-02-24T15:38:26Z</time>
      </trkpt>
      <trkpt lat="43.43109" lon="6.06482">
        <ele>258</ele>
        <time>2016-02-24T15:38:28Z</time>
      </trkpt>
      <trkpt lat="43.43108" lon="6.06481">
        <ele>258</ele>
        <time>2016-02-24T15:38:30Z</time>
      </trkpt>
      <trkpt lat="43.43108" lon="6.06481">
        <ele>258.20001220703</ele>
        <time>2016-02-24T15:38:32Z</time>
      </trkpt>
      <trkpt lat="43.43108" lon="6.06481">
        <ele>258.39999389648</ele>
        <time>2016-02-24T15:38:34Z</time>
      </trkpt>
      <trkpt lat="43.43108" lon="6.06481">
        <ele>258.39999389648</ele>
        <time>2016-02-24T15:38:36Z</time>
      </trkpt>
      <trkpt lat="43.43108" lon="6.06481">
        <ele>258.39999389648</ele>
        <time>2016-02-24T15:38:38Z</time>
      </trkpt>
      <trkpt lat="43.43108" lon="6.06481">
        <ele>258.39999389648</ele>
        <time>2016-02-24T15:38:40Z</time>
      </trkpt>
      <trkpt lat="43.43108" lon="6.06481">
        <ele>258.39999389648</ele>
        <time>2016-02-24T15:38:42Z</time>
      </trkpt>
      <trkpt lat="43.43108" lon="6.06481">
        <ele>258.39999389648</ele>
        <time>2016-02-24T15:38:44Z</time>
      </trkpt>
      <trkpt lat="43.43108" lon="6.06481">
        <ele>258.20001220703</ele>
        <time>2016-02-24T15:38:46Z</time>
      </trkpt>
      <trkpt lat="43.43108" lon="6.06481">
        <ele>258.20001220703</ele>
        <time>2016-02-24T15:38:48Z</time>
      </trkpt>
      <trkpt lat="43.43108" lon="6.06481">
        <ele>258.39999389648</ele>
        <time>2016-02-24T15:38:50Z</time>
      </trkpt>
      <trkpt lat="43.43108" lon="6.06481">
        <ele>258.39999389648</ele>
        <time>2016-02-24T15:38:52Z</time>
      </trkpt>
      <trkpt lat="43.43108" lon="6.06481">
        <ele>258.39999389648</ele>
        <time>2016-02-24T15:38:54Z</time>
      </trkpt>
      <trkpt lat="43.43108" lon="6.06481">
        <ele>258.39999389648</ele>
        <time>2016-02-24T15:38:56Z</time>
      </trkpt>
      <trkpt lat="43.43108" lon="6.06481">
        <ele>258.20001220703</ele>
        <time>2016-02-24T15:38:58Z</time>
      </trkpt>
      <trkpt lat="43.43108" lon="6.06481">
        <ele>258.20001220703</ele>
        <time>2016-02-24T15:39:00Z</time>
      </trkpt>
      <trkpt lat="43.43108" lon="6.06481">
        <ele>258.20001220703</ele>
        <time>2016-02-24T15:39:02Z</time>
      </trkpt>
      <trkpt lat="43.43108" lon="6.06481">
        <ele>258.20001220703</ele>
        <time>2016-02-24T15:39:04Z</time>
      </trkpt>
      <trkpt lat="43.43108" lon="6.06481">
        <ele>258.39999389648</ele>
        <time>2016-02-24T15:39:06Z</time>
      </trkpt>
      <trkpt lat="43.43108" lon="6.06481">
        <ele>258.20001220703</ele>
        <time>2016-02-24T15:39:08Z</time>
      </trkpt>
      <trkpt lat="43.43108" lon="6.06481">
        <ele>258.39999389648</ele>
        <time>2016-02-24T15:39:10Z</time>
      </trkpt>
      <trkpt lat="43.43108" lon="6.06481">
        <ele>258.39999389648</ele>
        <time>2016-02-24T15:39:12Z</time>
      </trkpt>
      <trkpt lat="43.43108" lon="6.06481">
        <ele>258.39999389648</ele>
        <time>2016-02-24T15:39:14Z</time>
      </trkpt>
      <trkpt lat="43.43108" lon="6.06481">
        <ele>258.39999389648</ele>
        <time>2016-02-24T15:39:16Z</time>
      </trkpt>
      <trkpt lat="43.43108" lon="6.06481">
        <ele>258.20001220703</ele>
        <time>2016-02-24T15:39:18Z</time>
      </trkpt>
      <trkpt lat="43.43108" lon="6.06481">
        <ele>258.39999389648</ele>
        <time>2016-02-24T15:39:20Z</time>
      </trkpt>
      <trkpt lat="43.43108" lon="6.06481">
        <ele>258.20001220703</ele>
        <time>2016-02-24T15:39:22Z</time>
      </trkpt>
      <trkpt lat="43.43108" lon="6.06481">
        <ele>258.20001220703</ele>
        <time>2016-02-24T15:39:24Z</time>
      </trkpt>
      <trkpt lat="43.43108" lon="6.06481">
        <ele>258.20001220703</ele>
        <time>2016-02-24T15:39:25Z</time>
      </trkpt>
      <trkpt lat="43.43108" lon="6.06481">
        <ele>258.20001220703</ele>
        <time>2016-02-24T15:39:26Z</time>
      </trkpt>
      <trkpt lat="43.43108" lon="6.0648">
        <ele>258.39999389648</ele>
        <time>2016-02-24T15:39:28Z</time>
      </trkpt>
      <trkpt lat="43.43108" lon="6.0648">
        <ele>258.39999389648</ele>
        <time>2016-02-24T15:39:30Z</time>
      </trkpt>
      <trkpt lat="43.43108" lon="6.0648">
        <ele>258.60000610352</ele>
        <time>2016-02-24T15:39:32Z</time>
      </trkpt>
      <trkpt lat="43.43108" lon="6.0648">
        <ele>258.60000610352</ele>
        <time>2016-02-24T15:39:33Z</time>
      </trkpt>
      <trkpt lat="43.43108" lon="6.0648">
        <ele>258.60000610352</ele>
        <time>2016-02-24T15:39:34Z</time>
      </trkpt>
      <trkpt lat="43.43108" lon="6.0648">
        <ele>258.60000610352</ele>
        <time>2016-02-24T15:39:36Z</time>
      </trkpt>
      <trkpt lat="43.43108" lon="6.0648">
        <ele>258.60000610352</ele>
        <time>2016-02-24T15:39:38Z</time>
      </trkpt>
      <trkpt lat="43.43108" lon="6.0648">
        <ele>258.60000610352</ele>
        <time>2016-02-24T15:39:40Z</time>
      </trkpt>
      <trkpt lat="43.43108" lon="6.0648">
        <ele>258.79998779297</ele>
        <time>2016-02-24T15:39:42Z</time>
      </trkpt>
      <trkpt lat="43.43108" lon="6.0648">
        <ele>259</ele>
        <time>2016-02-24T15:39:43Z</time>
      </trkpt>
      <trkpt lat="43.43108" lon="6.0648">
        <ele>259</ele>
        <time>2016-02-24T15:39:44Z</time>
      </trkpt>
      <trkpt lat="43.43108" lon="6.0648">
        <ele>259</ele>
        <time>2016-02-24T15:39:46Z</time>
      </trkpt>
      <trkpt lat="43.43108" lon="6.0648">
        <ele>259</ele>
        <time>2016-02-24T15:39:48Z</time>
      </trkpt>
      <trkpt lat="43.43108" lon="6.0648">
        <ele>259</ele>
        <time>2016-02-24T15:39:50Z</time>
      </trkpt>
      <trkpt lat="43.43108" lon="6.0648">
        <ele>258.79998779297</ele>
        <time>2016-02-24T15:39:52Z</time>
      </trkpt>
      <trkpt lat="43.43108" lon="6.0648">
        <ele>258.79998779297</ele>
        <time>2016-02-24T15:39:54Z</time>
      </trkpt>
      <trkpt lat="43.43108" lon="6.06479">
        <ele>258.60000610352</ele>
        <time>2016-02-24T15:39:56Z</time>
      </trkpt>
      <trkpt lat="43.43108" lon="6.0648">
        <ele>258.79998779297</ele>
        <time>2016-02-24T15:39:58Z</time>
      </trkpt>
      <trkpt lat="43.43108" lon="6.0648">
        <ele>258.79998779297</ele>
        <time>2016-02-24T15:40:00Z</time>
      </trkpt>
      <trkpt lat="43.43108" lon="6.06479">
        <ele>258.79998779297</ele>
        <time>2016-02-24T15:40:02Z</time>
      </trkpt>
      <trkpt lat="43.43108" lon="6.06479">
        <ele>258.79998779297</ele>
        <time>2016-02-24T15:40:04Z</time>
      </trkpt>
      <trkpt lat="43.43108" lon="6.06479">
        <ele>258.79998779297</ele>
        <time>2016-02-24T15:40:06Z</time>
      </trkpt>
      <trkpt lat="43.43108" lon="6.06479">
        <ele>259</ele>
        <time>2016-02-24T15:40:07Z</time>
      </trkpt>
      <trkpt lat="43.43108" lon="6.06479">
        <ele>259</ele>
        <time>2016-02-24T15:40:08Z</time>
      </trkpt>
      <trkpt lat="43.43108" lon="6.0648">
        <ele>259</ele>
        <time>2016-02-24T15:40:10Z</time>
      </trkpt>
      <trkpt lat="43.43108" lon="6.06481">
        <ele>259</ele>
        <time>2016-02-24T15:40:12Z</time>
      </trkpt>
      <trkpt lat="43.43108" lon="6.06482">
        <ele>259.20001220703</ele>
        <time>2016-02-24T15:40:14Z</time>
      </trkpt>
      <trkpt lat="43.43108" lon="6.06483">
        <ele>259</ele>
        <time>2016-02-24T15:40:15Z</time>
      </trkpt>
      <trkpt lat="43.43108" lon="6.06484">
        <ele>259</ele>
        <time>2016-02-24T15:40:16Z</time>
      </trkpt>
      <trkpt lat="43.43109" lon="6.06485">
        <ele>258.39999389648</ele>
        <time>2016-02-24T15:40:18Z</time>
      </trkpt>
      <trkpt lat="43.43109" lon="6.06486">
        <ele>258</ele>
        <time>2016-02-24T15:40:20Z</time>
      </trkpt>
      <trkpt lat="43.4311" lon="6.06486">
        <ele>258</ele>
        <time>2016-02-24T15:40:21Z</time>
      </trkpt>
      <trkpt lat="43.4311" lon="6.06486">
        <ele>258</ele>
        <time>2016-02-24T15:40:22Z</time>
      </trkpt>
      <trkpt lat="43.4311" lon="6.06485">
        <ele>258</ele>
        <time>2016-02-24T15:40:24Z</time>
      </trkpt>
      <trkpt lat="43.4311" lon="6.06486">
        <ele>258</ele>
        <time>2016-02-24T15:40:26Z</time>
      </trkpt>
      <trkpt lat="43.4311" lon="6.06485">
        <ele>258</ele>
        <time>2016-02-24T15:40:28Z</time>
      </trkpt>
      <trkpt lat="43.4311" lon="6.06485">
        <ele>258.20001220703</ele>
        <time>2016-02-24T15:40:30Z</time>
      </trkpt>
      <trkpt lat="43.4311" lon="6.06485">
        <ele>258.20001220703</ele>
        <time>2016-02-24T15:40:32Z</time>
      </trkpt>
      <trkpt lat="43.4311" lon="6.06485">
        <ele>258</ele>
        <time>2016-02-24T15:40:34Z</time>
      </trkpt>
      <trkpt lat="43.4311" lon="6.06485">
        <ele>258.20001220703</ele>
        <time>2016-02-24T15:40:36Z</time>
      </trkpt>
      <trkpt lat="43.4311" lon="6.06486">
        <ele>258</ele>
        <time>2016-02-24T15:40:38Z</time>
      </trkpt>
      <trkpt lat="43.4311" lon="6.06486">
        <ele>258</ele>
        <time>2016-02-24T15:40:40Z</time>
      </trkpt>
      <trkpt lat="43.4311" lon="6.06486">
        <ele>258</ele>
        <time>2016-02-24T15:40:42Z</time>
      </trkpt>
      <trkpt lat="43.4311" lon="6.06486">
        <ele>257.79998779297</ele>
        <time>2016-02-24T15:40:44Z</time>
      </trkpt>
      <trkpt lat="43.4311" lon="6.06485">
        <ele>257.79998779297</ele>
        <time>2016-02-24T15:40:45Z</time>
      </trkpt>
      <trkpt lat="43.4311" lon="6.06484">
        <ele>257.79998779297</ele>
        <time>2016-02-24T15:40:46Z</time>
      </trkpt>
      <trkpt lat="43.43109" lon="6.06483">
        <ele>258</ele>
        <time>2016-02-24T15:40:47Z</time>
      </trkpt>
      <trkpt lat="43.43109" lon="6.06481">
        <ele>258</ele>
        <time>2016-02-24T15:40:48Z</time>
      </trkpt>
      <trkpt lat="43.43109" lon="6.06479">
        <ele>258</ele>
        <time>2016-02-24T15:40:49Z</time>
      </trkpt>
      <trkpt lat="43.43109" lon="6.06477">
        <ele>258.60000610352</ele>
        <time>2016-02-24T15:40:50Z</time>
      </trkpt>
      <trkpt lat="43.43109" lon="6.06476">
        <ele>258.79998779297</ele>
        <time>2016-02-24T15:40:51Z</time>
      </trkpt>
      <trkpt lat="43.43108" lon="6.06474">
        <ele>259</ele>
        <time>2016-02-24T15:40:52Z</time>
      </trkpt>
      <trkpt lat="43.43108" lon="6.06471">
        <ele>259.39999389648</ele>
        <time>2016-02-24T15:40:54Z</time>
      </trkpt>
      <trkpt lat="43.43107" lon="6.06468">
        <ele>259.79998779297</ele>
        <time>2016-02-24T15:40:56Z</time>
      </trkpt>
      <trkpt lat="43.43106" lon="6.06464">
        <ele>259.79998779297</ele>
        <time>2016-02-24T15:40:58Z</time>
      </trkpt>
      <trkpt lat="43.43105" lon="6.06461">
        <ele>260</ele>
        <time>2016-02-24T15:41:00Z</time>
      </trkpt>
      <trkpt lat="43.43104" lon="6.06459">
        <ele>260.39999389648</ele>
        <time>2016-02-24T15:41:02Z</time>
      </trkpt>
      <trkpt lat="43.43102" lon="6.06456">
        <ele>260.60000610352</ele>
        <time>2016-02-24T15:41:04Z</time>
      </trkpt>
      <trkpt lat="43.431" lon="6.06452">
        <ele>260.60000610352</ele>
        <time>2016-02-24T15:41:06Z</time>
      </trkpt>
      <trkpt lat="43.431" lon="6.06448">
        <ele>261</ele>
        <time>2016-02-24T15:41:08Z</time>
      </trkpt>
      <trkpt lat="43.43098" lon="6.06445">
        <ele>261.20001220703</ele>
        <time>2016-02-24T15:41:10Z</time>
      </trkpt>
      <trkpt lat="43.43097" lon="6.06441">
        <ele>261.39999389648</ele>
        <time>2016-02-24T15:41:12Z</time>
      </trkpt>
      <trkpt lat="43.43095" lon="6.06438">
        <ele>261.60000610352</ele>
        <time>2016-02-24T15:41:14Z</time>
      </trkpt>
      <trkpt lat="43.43095" lon="6.06437">
        <ele>261.60000610352</ele>
        <time>2016-02-24T15:41:15Z</time>
      </trkpt>
      <trkpt lat="43.43094" lon="6.06435">
        <ele>261.79998779297</ele>
        <time>2016-02-24T15:41:16Z</time>
      </trkpt>
      <trkpt lat="43.43093" lon="6.06432">
        <ele>262.20001220703</ele>
        <time>2016-02-24T15:41:18Z</time>
      </trkpt>
      <trkpt lat="43.43092" lon="6.06429">
        <ele>262.60000610352</ele>
        <time>2016-02-24T15:41:20Z</time>
      </trkpt>
      <trkpt lat="43.43091" lon="6.06428">
        <ele>262.60000610352</ele>
        <time>2016-02-24T15:41:21Z</time>
      </trkpt>
      <trkpt lat="43.43091" lon="6.06426">
        <ele>262.79998779297</ele>
        <time>2016-02-24T15:41:22Z</time>
      </trkpt>
      <trkpt lat="43.43091" lon="6.06423">
        <ele>263</ele>
        <time>2016-02-24T15:41:24Z</time>
      </trkpt>
      <trkpt lat="43.43091" lon="6.06419">
        <ele>263.20001220703</ele>
        <time>2016-02-24T15:41:26Z</time>
      </trkpt>
      <trkpt lat="43.43091" lon="6.06415">
        <ele>263.20001220703</ele>
        <time>2016-02-24T15:41:28Z</time>
      </trkpt>
      <trkpt lat="43.43089" lon="6.06412">
        <ele>263.20001220703</ele>
        <time>2016-02-24T15:41:30Z</time>
      </trkpt>
      <trkpt lat="43.43088" lon="6.06409">
        <ele>263.39999389648</ele>
        <time>2016-02-24T15:41:32Z</time>
      </trkpt>
      <trkpt lat="43.43088" lon="6.06407">
        <ele>263.60000610352</ele>
        <time>2016-02-24T15:41:33Z</time>
      </trkpt>
      <trkpt lat="43.43088" lon="6.06406">
        <ele>263.60000610352</ele>
        <time>2016-02-24T15:41:34Z</time>
      </trkpt>
      <trkpt lat="43.43087" lon="6.06402">
        <ele>263.39999389648</ele>
        <time>2016-02-24T15:41:36Z</time>
      </trkpt>
      <trkpt lat="43.43086" lon="6.06398">
        <ele>263.60000610352</ele>
        <time>2016-02-24T15:41:38Z</time>
      </trkpt>
      <trkpt lat="43.43085" lon="6.06394">
        <ele>263.79998779297</ele>
        <time>2016-02-24T15:41:40Z</time>
      </trkpt>
      <trkpt lat="43.43084" lon="6.06392">
        <ele>264</ele>
        <time>2016-02-24T15:41:41Z</time>
      </trkpt>
      <trkpt lat="43.43084" lon="6.0639">
        <ele>264</ele>
        <time>2016-02-24T15:41:42Z</time>
      </trkpt>
      <trkpt lat="43.43082" lon="6.06386">
        <ele>263.60000610352</ele>
        <time>2016-02-24T15:41:44Z</time>
      </trkpt>
      <trkpt lat="43.43081" lon="6.06382">
        <ele>264</ele>
        <time>2016-02-24T15:41:46Z</time>
      </trkpt>
      <trkpt lat="43.4308" lon="6.06378">
        <ele>264</ele>
        <time>2016-02-24T15:41:48Z</time>
      </trkpt>
      <trkpt lat="43.43079" lon="6.06375">
        <ele>264</ele>
        <time>2016-02-24T15:41:50Z</time>
      </trkpt>
      <trkpt lat="43.43078" lon="6.06373">
        <ele>264</ele>
        <time>2016-02-24T15:41:52Z</time>
      </trkpt>
      <trkpt lat="43.43077" lon="6.06371">
        <ele>264.20001220703</ele>
        <time>2016-02-24T15:41:54Z</time>
      </trkpt>
      <trkpt lat="43.43075" lon="6.06368">
        <ele>264.20001220703</ele>
        <time>2016-02-24T15:41:56Z</time>
      </trkpt>
      <trkpt lat="43.43075" lon="6.06366">
        <ele>264.20001220703</ele>
        <time>2016-02-24T15:41:58Z</time>
      </trkpt>
      <trkpt lat="43.43074" lon="6.06365">
        <ele>264.20001220703</ele>
        <time>2016-02-24T15:42:00Z</time>
      </trkpt>
      <trkpt lat="43.43074" lon="6.06363">
        <ele>264.20001220703</ele>
        <time>2016-02-24T15:42:02Z</time>
      </trkpt>
      <trkpt lat="43.43073" lon="6.06363">
        <ele>264.20001220703</ele>
        <time>2016-02-24T15:42:04Z</time>
      </trkpt>
      <trkpt lat="43.4307" lon="6.06362">
        <ele>264</ele>
        <time>2016-02-24T15:42:06Z</time>
      </trkpt>
      <trkpt lat="43.4307" lon="6.06362">
        <ele>264</ele>
        <time>2016-02-24T15:42:07Z</time>
      </trkpt>
      <trkpt lat="43.4307" lon="6.06361">
        <ele>264</ele>
        <time>2016-02-24T15:42:08Z</time>
      </trkpt>
      <trkpt lat="43.4307" lon="6.06361">
        <ele>264</ele>
        <time>2016-02-24T15:42:10Z</time>
      </trkpt>
      <trkpt lat="43.4307" lon="6.06361">
        <ele>263.79998779297</ele>
        <time>2016-02-24T15:42:12Z</time>
      </trkpt>
      <trkpt lat="43.4307" lon="6.06361">
        <ele>263.79998779297</ele>
        <time>2016-02-24T15:42:14Z</time>
      </trkpt>
      <trkpt lat="43.4307" lon="6.06361">
        <ele>264</ele>
        <time>2016-02-24T15:42:16Z</time>
      </trkpt>
      <trkpt lat="43.4307" lon="6.06361">
        <ele>264</ele>
        <time>2016-02-24T15:42:18Z</time>
      </trkpt>
      <trkpt lat="43.4307" lon="6.06361">
        <ele>264</ele>
        <time>2016-02-24T15:42:20Z</time>
      </trkpt>
      <trkpt lat="43.4307" lon="6.06361">
        <ele>264</ele>
        <time>2016-02-24T15:42:22Z</time>
      </trkpt>
      <trkpt lat="43.43069" lon="6.0636">
        <ele>264</ele>
        <time>2016-02-24T15:42:23Z</time>
      </trkpt>
      <trkpt lat="43.43068" lon="6.0636">
        <ele>264</ele>
        <time>2016-02-24T15:42:24Z</time>
      </trkpt>
      <trkpt lat="43.43064" lon="6.06359">
        <ele>264</ele>
        <time>2016-02-24T15:42:26Z</time>
      </trkpt>
      <trkpt lat="43.43061" lon="6.06358">
        <ele>264</ele>
        <time>2016-02-24T15:42:28Z</time>
      </trkpt>
      <trkpt lat="43.43058" lon="6.06356">
        <ele>264.60000610352</ele>
        <time>2016-02-24T15:42:30Z</time>
      </trkpt>
      <trkpt lat="43.43055" lon="6.06355">
        <ele>264.79998779297</ele>
        <time>2016-02-24T15:42:32Z</time>
      </trkpt>
      <trkpt lat="43.43053" lon="6.06354">
        <ele>264.79998779297</ele>
        <time>2016-02-24T15:42:33Z</time>
      </trkpt>
      <trkpt lat="43.43052" lon="6.06354">
        <ele>265</ele>
        <time>2016-02-24T15:42:34Z</time>
      </trkpt>
      <trkpt lat="43.43048" lon="6.06352">
        <ele>265.20001220703</ele>
        <time>2016-02-24T15:42:36Z</time>
      </trkpt>
      <trkpt lat="43.43044" lon="6.0635">
        <ele>265.20001220703</ele>
        <time>2016-02-24T15:42:38Z</time>
      </trkpt>
      <trkpt lat="43.43042" lon="6.06348">
        <ele>265.20001220703</ele>
        <time>2016-02-24T15:42:39Z</time>
      </trkpt>
      <trkpt lat="43.4304" lon="6.06346">
        <ele>265.20001220703</ele>
        <time>2016-02-24T15:42:40Z</time>
      </trkpt>
      <trkpt lat="43.43038" lon="6.06345">
        <ele>265.39999389648</ele>
        <time>2016-02-24T15:42:41Z</time>
      </trkpt>
      <trkpt lat="43.43037" lon="6.06343">
        <ele>265.20001220703</ele>
        <time>2016-02-24T15:42:42Z</time>
      </trkpt>
      <trkpt lat="43.43035" lon="6.06339">
        <ele>265.20001220703</ele>
        <time>2016-02-24T15:42:44Z</time>
      </trkpt>
      <trkpt lat="43.43034" lon="6.06337">
        <ele>265.20001220703</ele>
        <time>2016-02-24T15:42:45Z</time>
      </trkpt>
      <trkpt lat="43.43034" lon="6.06334">
        <ele>265.20001220703</ele>
        <time>2016-02-24T15:42:46Z</time>
      </trkpt>
      <trkpt lat="43.43032" lon="6.06331">
        <ele>265.20001220703</ele>
        <time>2016-02-24T15:42:48Z</time>
      </trkpt>
      <trkpt lat="43.43031" lon="6.06328">
        <ele>265.39999389648</ele>
        <time>2016-02-24T15:42:50Z</time>
      </trkpt>
      <trkpt lat="43.43029" lon="6.06326">
        <ele>265.60000610352</ele>
        <time>2016-02-24T15:42:51Z</time>
      </trkpt>
      <trkpt lat="43.43027" lon="6.06324">
        <ele>265.79998779297</ele>
        <time>2016-02-24T15:42:52Z</time>
      </trkpt>
      <trkpt lat="43.43026" lon="6.06323">
        <ele>266</ele>
        <time>2016-02-24T15:42:53Z</time>
      </trkpt>
      <trkpt lat="43.43025" lon="6.06322">
        <ele>266.39999389648</ele>
        <time>2016-02-24T15:42:54Z</time>
      </trkpt>
      <trkpt lat="43.43021" lon="6.06321">
        <ele>266.20001220703</ele>
        <time>2016-02-24T15:42:56Z</time>
      </trkpt>
      <trkpt lat="43.43019" lon="6.06321">
        <ele>266.20001220703</ele>
        <time>2016-02-24T15:42:57Z</time>
      </trkpt>
      <trkpt lat="43.43017" lon="6.0632">
        <ele>266.39999389648</ele>
        <time>2016-02-24T15:42:58Z</time>
      </trkpt>
      <trkpt lat="43.43012" lon="6.0632">
        <ele>266.60000610352</ele>
        <time>2016-02-24T15:43:00Z</time>
      </trkpt>
      <trkpt lat="43.43009" lon="6.06322">
        <ele>266.79998779297</ele>
        <time>2016-02-24T15:43:02Z</time>
      </trkpt>
      <trkpt lat="43.43007" lon="6.06321">
        <ele>266.79998779297</ele>
        <time>2016-02-24T15:43:03Z</time>
      </trkpt>
      <trkpt lat="43.43005" lon="6.0632">
        <ele>267</ele>
        <time>2016-02-24T15:43:04Z</time>
      </trkpt>
      <trkpt lat="43.43003" lon="6.0632">
        <ele>267.20001220703</ele>
        <time>2016-02-24T15:43:05Z</time>
      </trkpt>
      <trkpt lat="43.43001" lon="6.06319">
        <ele>267.20001220703</ele>
        <time>2016-02-24T15:43:06Z</time>
      </trkpt>
      <trkpt lat="43.42998" lon="6.06319">
        <ele>267.60000610352</ele>
        <time>2016-02-24T15:43:08Z</time>
      </trkpt>
      <trkpt lat="43.42997" lon="6.06318">
        <ele>267.60000610352</ele>
        <time>2016-02-24T15:43:09Z</time>
      </trkpt>
      <trkpt lat="43.42995" lon="6.06319">
        <ele>267.79998779297</ele>
        <time>2016-02-24T15:43:10Z</time>
      </trkpt>
      <trkpt lat="43.42993" lon="6.06317">
        <ele>268</ele>
        <time>2016-02-24T15:43:12Z</time>
      </trkpt>
      <trkpt lat="43.4299" lon="6.06315">
        <ele>268</ele>
        <time>2016-02-24T15:43:14Z</time>
      </trkpt>
      <trkpt lat="43.42986" lon="6.06313">
        <ele>267.79998779297</ele>
        <time>2016-02-24T15:43:16Z</time>
      </trkpt>
      <trkpt lat="43.42982" lon="6.06312">
        <ele>268</ele>
        <time>2016-02-24T15:43:18Z</time>
      </trkpt>
      <trkpt lat="43.42981" lon="6.06313">
        <ele>268.20001220703</ele>
        <time>2016-02-24T15:43:19Z</time>
      </trkpt>
      <trkpt lat="43.42979" lon="6.06312">
        <ele>268.60000610352</ele>
        <time>2016-02-24T15:43:20Z</time>
      </trkpt>
      <trkpt lat="43.42976" lon="6.06313">
        <ele>268.79998779297</ele>
        <time>2016-02-24T15:43:22Z</time>
      </trkpt>
      <trkpt lat="43.42973" lon="6.06313">
        <ele>268.79998779297</ele>
        <time>2016-02-24T15:43:24Z</time>
      </trkpt>
      <trkpt lat="43.42969" lon="6.06312">
        <ele>268.60000610352</ele>
        <time>2016-02-24T15:43:26Z</time>
      </trkpt>
      <trkpt lat="43.42966" lon="6.0631">
        <ele>269.20001220703</ele>
        <time>2016-02-24T15:43:28Z</time>
      </trkpt>
      <trkpt lat="43.42965" lon="6.06309">
        <ele>269.39999389648</ele>
        <time>2016-02-24T15:43:29Z</time>
      </trkpt>
      <trkpt lat="43.42963" lon="6.06308">
        <ele>270</ele>
        <time>2016-02-24T15:43:30Z</time>
      </trkpt>
      <trkpt lat="43.4296" lon="6.06305">
        <ele>270.20001220703</ele>
        <time>2016-02-24T15:43:32Z</time>
      </trkpt>
      <trkpt lat="43.42958" lon="6.06302">
        <ele>270.20001220703</ele>
        <time>2016-02-24T15:43:34Z</time>
      </trkpt>
      <trkpt lat="43.42955" lon="6.06298">
        <ele>270.39999389648</ele>
        <time>2016-02-24T15:43:36Z</time>
      </trkpt>
      <trkpt lat="43.42952" lon="6.06294">
        <ele>270.39999389648</ele>
        <time>2016-02-24T15:43:38Z</time>
      </trkpt>
      <trkpt lat="43.4295" lon="6.0629">
        <ele>270.60000610352</ele>
        <time>2016-02-24T15:43:40Z</time>
      </trkpt>
      <trkpt lat="43.42947" lon="6.06288">
        <ele>270.79998779297</ele>
        <time>2016-02-24T15:43:42Z</time>
      </trkpt>
      <trkpt lat="43.42944" lon="6.06286">
        <ele>271</ele>
        <time>2016-02-24T15:43:44Z</time>
      </trkpt>
      <trkpt lat="43.42942" lon="6.06285">
        <ele>271.20001220703</ele>
        <time>2016-02-24T15:43:46Z</time>
      </trkpt>
      <trkpt lat="43.42939" lon="6.06284">
        <ele>271.39999389648</ele>
        <time>2016-02-24T15:43:48Z</time>
      </trkpt>
      <trkpt lat="43.42938" lon="6.06285">
        <ele>271.39999389648</ele>
        <time>2016-02-24T15:43:49Z</time>
      </trkpt>
      <trkpt lat="43.42938" lon="6.06286">
        <ele>271.39999389648</ele>
        <time>2016-02-24T15:43:50Z</time>
      </trkpt>
      <trkpt lat="43.42938" lon="6.06286">
        <ele>271.60000610352</ele>
        <time>2016-02-24T15:43:51Z</time>
      </trkpt>
      <trkpt lat="43.42937" lon="6.06286">
        <ele>271.79998779297</ele>
        <time>2016-02-24T15:43:52Z</time>
      </trkpt>
      <trkpt lat="43.42936" lon="6.06287">
        <ele>272</ele>
        <time>2016-02-24T15:43:54Z</time>
      </trkpt>
      <trkpt lat="43.42935" lon="6.06288">
        <ele>272.39999389648</ele>
        <time>2016-02-24T15:43:56Z</time>
      </trkpt>
      <trkpt lat="43.42933" lon="6.06289">
        <ele>272.39999389648</ele>
        <time>2016-02-24T15:43:58Z</time>
      </trkpt>
      <trkpt lat="43.42931" lon="6.0629">
        <ele>272.60000610352</ele>
        <time>2016-02-24T15:44:00Z</time>
      </trkpt>
      <trkpt lat="43.42931" lon="6.0629">
        <ele>272.79998779297</ele>
        <time>2016-02-24T15:44:01Z</time>
      </trkpt>
      <trkpt lat="43.42931" lon="6.06291">
        <ele>272.79998779297</ele>
        <time>2016-02-24T15:44:02Z</time>
      </trkpt>
      <trkpt lat="43.4293" lon="6.06292">
        <ele>273.20001220703</ele>
        <time>2016-02-24T15:44:03Z</time>
      </trkpt>
      <trkpt lat="43.42929" lon="6.06293">
        <ele>273.39999389648</ele>
        <time>2016-02-24T15:44:04Z</time>
      </trkpt>
      <trkpt lat="43.42928" lon="6.06294">
        <ele>273.60000610352</ele>
        <time>2016-02-24T15:44:06Z</time>
      </trkpt>
      <trkpt lat="43.42927" lon="6.06294">
        <ele>273.79998779297</ele>
        <time>2016-02-24T15:44:07Z</time>
      </trkpt>
      <trkpt lat="43.42926" lon="6.06294">
        <ele>273.79998779297</ele>
        <time>2016-02-24T15:44:08Z</time>
      </trkpt>
      <trkpt lat="43.42924" lon="6.06296">
        <ele>274.20001220703</ele>
        <time>2016-02-24T15:44:10Z</time>
      </trkpt>
      <trkpt lat="43.42924" lon="6.06296">
        <ele>274.60000610352</ele>
        <time>2016-02-24T15:44:12Z</time>
      </trkpt>
      <trkpt lat="43.42923" lon="6.06297">
        <ele>274.79998779297</ele>
        <time>2016-02-24T15:44:14Z</time>
      </trkpt>
      <trkpt lat="43.42923" lon="6.06297">
        <ele>274.79998779297</ele>
        <time>2016-02-24T15:44:16Z</time>
      </trkpt>
      <trkpt lat="43.42922" lon="6.06298">
        <ele>274.79998779297</ele>
        <time>2016-02-24T15:44:18Z</time>
      </trkpt>
      <trkpt lat="43.42921" lon="6.063">
        <ele>275</ele>
        <time>2016-02-24T15:44:20Z</time>
      </trkpt>
      <trkpt lat="43.42921" lon="6.06301">
        <ele>275.20001220703</ele>
        <time>2016-02-24T15:44:22Z</time>
      </trkpt>
      <trkpt lat="43.4292" lon="6.06301">
        <ele>275.20001220703</ele>
        <time>2016-02-24T15:44:24Z</time>
      </trkpt>
      <trkpt lat="43.42919" lon="6.06301">
        <ele>275.20001220703</ele>
        <time>2016-02-24T15:44:26Z</time>
      </trkpt>
      <trkpt lat="43.42918" lon="6.06302">
        <ele>275.60000610352</ele>
        <time>2016-02-24T15:44:28Z</time>
      </trkpt>
      <trkpt lat="43.42918" lon="6.06302">
        <ele>275.79998779297</ele>
        <time>2016-02-24T15:44:30Z</time>
      </trkpt>
      <trkpt lat="43.42917" lon="6.06303">
        <ele>275.79998779297</ele>
        <time>2016-02-24T15:44:32Z</time>
      </trkpt>
      <trkpt lat="43.42916" lon="6.06304">
        <ele>276.20001220703</ele>
        <time>2016-02-24T15:44:34Z</time>
      </trkpt>
      <trkpt lat="43.42916" lon="6.06304">
        <ele>276.20001220703</ele>
        <time>2016-02-24T15:44:35Z</time>
      </trkpt>
      <trkpt lat="43.42916" lon="6.06304">
        <ele>276.20001220703</ele>
        <time>2016-02-24T15:44:36Z</time>
      </trkpt>
      <trkpt lat="43.42916" lon="6.06304">
        <ele>276</ele>
        <time>2016-02-24T15:44:38Z</time>
      </trkpt>
      <trkpt lat="43.42916" lon="6.06304">
        <ele>276.39999389648</ele>
        <time>2016-02-24T15:44:40Z</time>
      </trkpt>
      <trkpt lat="43.42915" lon="6.06305">
        <ele>276.79998779297</ele>
        <time>2016-02-24T15:44:42Z</time>
      </trkpt>
      <trkpt lat="43.42914" lon="6.06307">
        <ele>277</ele>
        <time>2016-02-24T15:44:44Z</time>
      </trkpt>
      <trkpt lat="43.42914" lon="6.06308">
        <ele>277.39999389648</ele>
        <time>2016-02-24T15:44:46Z</time>
      </trkpt>
      <trkpt lat="43.42914" lon="6.06309">
        <ele>277.79998779297</ele>
        <time>2016-02-24T15:44:48Z</time>
      </trkpt>
      <trkpt lat="43.42914" lon="6.06309">
        <ele>277.60000610352</ele>
        <time>2016-02-24T15:44:50Z</time>
      </trkpt>
      <trkpt lat="43.42914" lon="6.06309">
        <ele>277.79998779297</ele>
        <time>2016-02-24T15:44:52Z</time>
      </trkpt>
      <trkpt lat="43.42913" lon="6.0631">
        <ele>278</ele>
        <time>2016-02-24T15:44:54Z</time>
      </trkpt>
      <trkpt lat="43.42913" lon="6.0631">
        <ele>278.39999389648</ele>
        <time>2016-02-24T15:44:56Z</time>
      </trkpt>
      <trkpt lat="43.42913" lon="6.06311">
        <ele>278.39999389648</ele>
        <time>2016-02-24T15:44:57Z</time>
      </trkpt>
      <trkpt lat="43.42913" lon="6.06311">
        <ele>278.60000610352</ele>
        <time>2016-02-24T15:44:58Z</time>
      </trkpt>
      <trkpt lat="43.42913" lon="6.0631">
        <ele>278.60000610352</ele>
        <time>2016-02-24T15:45:00Z</time>
      </trkpt>
      <trkpt lat="43.42913" lon="6.06312">
        <ele>278.60000610352</ele>
        <time>2016-02-24T15:45:02Z</time>
      </trkpt>
      <trkpt lat="43.42912" lon="6.06312">
        <ele>279</ele>
        <time>2016-02-24T15:45:04Z</time>
      </trkpt>
      <trkpt lat="43.42912" lon="6.06313">
        <ele>279.39999389648</ele>
        <time>2016-02-24T15:45:06Z</time>
      </trkpt>
      <trkpt lat="43.42912" lon="6.06313">
        <ele>279.39999389648</ele>
        <time>2016-02-24T15:45:07Z</time>
      </trkpt>
      <trkpt lat="43.42911" lon="6.06313">
        <ele>279.39999389648</ele>
        <time>2016-02-24T15:45:08Z</time>
      </trkpt>
      <trkpt lat="43.42911" lon="6.06314">
        <ele>279.39999389648</ele>
        <time>2016-02-24T15:45:10Z</time>
      </trkpt>
      <trkpt lat="43.4291" lon="6.06315">
        <ele>279.79998779297</ele>
        <time>2016-02-24T15:45:11Z</time>
      </trkpt>
      <trkpt lat="43.4291" lon="6.06315">
        <ele>279.79998779297</ele>
        <time>2016-02-24T15:45:12Z</time>
      </trkpt>
      <trkpt lat="43.42908" lon="6.06316">
        <ele>279.79998779297</ele>
        <time>2016-02-24T15:45:14Z</time>
      </trkpt>
      <trkpt lat="43.42907" lon="6.06316">
        <ele>280</ele>
        <time>2016-02-24T15:45:16Z</time>
      </trkpt>
      <trkpt lat="43.42907" lon="6.06316">
        <ele>280.39999389648</ele>
        <time>2016-02-24T15:45:18Z</time>
      </trkpt>
      <trkpt lat="43.42907" lon="6.06316">
        <ele>280.39999389648</ele>
        <time>2016-02-24T15:45:19Z</time>
      </trkpt>
      <trkpt lat="43.42907" lon="6.06316">
        <ele>280.39999389648</ele>
        <time>2016-02-24T15:45:20Z</time>
      </trkpt>
      <trkpt lat="43.42907" lon="6.06316">
        <ele>280.60000610352</ele>
        <time>2016-02-24T15:45:22Z</time>
      </trkpt>
      <trkpt lat="43.42907" lon="6.06316">
        <ele>280.60000610352</ele>
        <time>2016-02-24T15:45:24Z</time>
      </trkpt>
      <trkpt lat="43.42907" lon="6.06316">
        <ele>280.60000610352</ele>
        <time>2016-02-24T15:45:26Z</time>
      </trkpt>
      <trkpt lat="43.42907" lon="6.06316">
        <ele>280.60000610352</ele>
        <time>2016-02-24T15:45:28Z</time>
      </trkpt>
      <trkpt lat="43.42907" lon="6.06316">
        <ele>280.60000610352</ele>
        <time>2016-02-24T15:45:30Z</time>
      </trkpt>
      <trkpt lat="43.42908" lon="6.06316">
        <ele>280.20001220703</ele>
        <time>2016-02-24T15:45:32Z</time>
      </trkpt>
      <trkpt lat="43.42908" lon="6.06316">
        <ele>280.20001220703</ele>
        <time>2016-02-24T15:45:33Z</time>
      </trkpt>
      <trkpt lat="43.42908" lon="6.06316">
        <ele>280.20001220703</ele>
        <time>2016-02-24T15:45:34Z</time>
      </trkpt>
      <trkpt lat="43.42908" lon="6.06316">
        <ele>280.20001220703</ele>
        <time>2016-02-24T15:45:36Z</time>
      </trkpt>
      <trkpt lat="43.42908" lon="6.06316">
        <ele>280.20001220703</ele>
        <time>2016-02-24T15:45:38Z</time>
      </trkpt>
      <trkpt lat="43.42907" lon="6.06317">
        <ele>280</ele>
        <time>2016-02-24T15:45:40Z</time>
      </trkpt>
      <trkpt lat="43.42907" lon="6.06317">
        <ele>280</ele>
        <time>2016-02-24T15:45:42Z</time>
      </trkpt>
      <trkpt lat="43.42907" lon="6.06317">
        <ele>280</ele>
        <time>2016-02-24T15:45:44Z</time>
      </trkpt>
      <trkpt lat="43.42907" lon="6.06317">
        <ele>279.79998779297</ele>
        <time>2016-02-24T15:45:46Z</time>
      </trkpt>
      <trkpt lat="43.42907" lon="6.06317">
        <ele>279.79998779297</ele>
        <time>2016-02-24T15:45:48Z</time>
      </trkpt>
      <trkpt lat="43.42907" lon="6.06317">
        <ele>279.79998779297</ele>
        <time>2016-02-24T15:45:50Z</time>
      </trkpt>
      <trkpt lat="43.42907" lon="6.06317">
        <ele>279.79998779297</ele>
        <time>2016-02-24T15:45:52Z</time>
      </trkpt>
      <trkpt lat="43.42907" lon="6.06317">
        <ele>279.79998779297</ele>
        <time>2016-02-24T15:45:54Z</time>
      </trkpt>
      <trkpt lat="43.42907" lon="6.06317">
        <ele>279.79998779297</ele>
        <time>2016-02-24T15:45:56Z</time>
      </trkpt>
      <trkpt lat="43.42907" lon="6.06317">
        <ele>279.79998779297</ele>
        <time>2016-02-24T15:45:58Z</time>
      </trkpt>
      <trkpt lat="43.42907" lon="6.06317">
        <ele>279.79998779297</ele>
        <time>2016-02-24T15:46:00Z</time>
      </trkpt>
      <trkpt lat="43.42907" lon="6.06317">
        <ele>279.79998779297</ele>
        <time>2016-02-24T15:46:02Z</time>
      </trkpt>
      <trkpt lat="43.42907" lon="6.06317">
        <ele>279.79998779297</ele>
        <time>2016-02-24T15:46:04Z</time>
      </trkpt>
      <trkpt lat="43.42907" lon="6.06317">
        <ele>279.79998779297</ele>
        <time>2016-02-24T15:46:06Z</time>
      </trkpt>
      <trkpt lat="43.42907" lon="6.06317">
        <ele>279.79998779297</ele>
        <time>2016-02-24T15:46:08Z</time>
      </trkpt>
      <trkpt lat="43.42907" lon="6.06317">
        <ele>279.79998779297</ele>
        <time>2016-02-24T15:46:10Z</time>
      </trkpt>
      <trkpt lat="43.42907" lon="6.06316">
        <ele>280.20001220703</ele>
        <time>2016-02-24T15:46:12Z</time>
      </trkpt>
      <trkpt lat="43.42906" lon="6.06317">
        <ele>280.60000610352</ele>
        <time>2016-02-24T15:46:13Z</time>
      </trkpt>
      <trkpt lat="43.42906" lon="6.06317">
        <ele>280.60000610352</ele>
        <time>2016-02-24T15:46:14Z</time>
      </trkpt>
      <trkpt lat="43.42905" lon="6.06317">
        <ele>280.79998779297</ele>
        <time>2016-02-24T15:46:16Z</time>
      </trkpt>
      <trkpt lat="43.42905" lon="6.06317">
        <ele>281</ele>
        <time>2016-02-24T15:46:18Z</time>
      </trkpt>
      <trkpt lat="43.42905" lon="6.06317">
        <ele>280.79998779297</ele>
        <time>2016-02-24T15:46:20Z</time>
      </trkpt>
      <trkpt lat="43.42905" lon="6.06317">
        <ele>280.79998779297</ele>
        <time>2016-02-24T15:46:22Z</time>
      </trkpt>
      <trkpt lat="43.42905" lon="6.06317">
        <ele>281</ele>
        <time>2016-02-24T15:46:24Z</time>
      </trkpt>
      <trkpt lat="43.42905" lon="6.06317">
        <ele>281</ele>
        <time>2016-02-24T15:46:26Z</time>
      </trkpt>
      <trkpt lat="43.42905" lon="6.06317">
        <ele>280.79998779297</ele>
        <time>2016-02-24T15:46:28Z</time>
      </trkpt>
      <trkpt lat="43.42904" lon="6.06318">
        <ele>281</ele>
        <time>2016-02-24T15:46:30Z</time>
      </trkpt>
      <trkpt lat="43.42903" lon="6.06318">
        <ele>281</ele>
        <time>2016-02-24T15:46:31Z</time>
      </trkpt>
      <trkpt lat="43.42902" lon="6.06318">
        <ele>281.20001220703</ele>
        <time>2016-02-24T15:46:32Z</time>
      </trkpt>
      <trkpt lat="43.42899" lon="6.06318">
        <ele>281.20001220703</ele>
        <time>2016-02-24T15:46:34Z</time>
      </trkpt>
      <trkpt lat="43.42896" lon="6.06318">
        <ele>281.39999389648</ele>
        <time>2016-02-24T15:46:36Z</time>
      </trkpt>
      <trkpt lat="43.42893" lon="6.06319">
        <ele>281.79998779297</ele>
        <time>2016-02-24T15:46:38Z</time>
      </trkpt>
      <trkpt lat="43.42891" lon="6.06319">
        <ele>282</ele>
        <time>2016-02-24T15:46:39Z</time>
      </trkpt>
      <trkpt lat="43.4289" lon="6.06319">
        <ele>281.79998779297</ele>
        <time>2016-02-24T15:46:40Z</time>
      </trkpt>
      <trkpt lat="43.42886" lon="6.06319">
        <ele>282</ele>
        <time>2016-02-24T15:46:42Z</time>
      </trkpt>
      <trkpt lat="43.42883" lon="6.0632">
        <ele>282.39999389648</ele>
        <time>2016-02-24T15:46:44Z</time>
      </trkpt>
      <trkpt lat="43.4288" lon="6.0632">
        <ele>282.39999389648</ele>
        <time>2016-02-24T15:46:46Z</time>
      </trkpt>
      <trkpt lat="43.42878" lon="6.0632">
        <ele>282.39999389648</ele>
        <time>2016-02-24T15:46:47Z</time>
      </trkpt>
      <trkpt lat="43.42876" lon="6.06319">
        <ele>282.60000610352</ele>
        <time>2016-02-24T15:46:48Z</time>
      </trkpt>
      <trkpt lat="43.42873" lon="6.06318">
        <ele>282.79998779297</ele>
        <time>2016-02-24T15:46:50Z</time>
      </trkpt>
      <trkpt lat="43.42869" lon="6.06316">
        <ele>283.39999389648</ele>
        <time>2016-02-24T15:46:52Z</time>
      </trkpt>
      <trkpt lat="43.42865" lon="6.06315">
        <ele>283.60000610352</ele>
        <time>2016-02-24T15:46:54Z</time>
      </trkpt>
      <trkpt lat="43.42864" lon="6.06315">
        <ele>283.60000610352</ele>
        <time>2016-02-24T15:46:55Z</time>
      </trkpt>
      <trkpt lat="43.42862" lon="6.06314">
        <ele>283.60000610352</ele>
        <time>2016-02-24T15:46:56Z</time>
      </trkpt>
      <trkpt lat="43.42859" lon="6.06314">
        <ele>283.79998779297</ele>
        <time>2016-02-24T15:46:58Z</time>
      </trkpt>
      <trkpt lat="43.42854" lon="6.06314">
        <ele>283.79998779297</ele>
        <time>2016-02-24T15:47:00Z</time>
      </trkpt>
      <trkpt lat="43.42851" lon="6.06316">
        <ele>283.60000610352</ele>
        <time>2016-02-24T15:47:02Z</time>
      </trkpt>
      <trkpt lat="43.42848" lon="6.06317">
        <ele>283.79998779297</ele>
        <time>2016-02-24T15:47:04Z</time>
      </trkpt>
      <trkpt lat="43.42845" lon="6.0632">
        <ele>284.20001220703</ele>
        <time>2016-02-24T15:47:06Z</time>
      </trkpt>
      <trkpt lat="43.42842" lon="6.06322">
        <ele>284</ele>
        <time>2016-02-24T15:47:08Z</time>
      </trkpt>
      <trkpt lat="43.4284" lon="6.06324">
        <ele>284</ele>
        <time>2016-02-24T15:47:10Z</time>
      </trkpt>
      <trkpt lat="43.42839" lon="6.06325">
        <ele>284</ele>
        <time>2016-02-24T15:47:11Z</time>
      </trkpt>
      <trkpt lat="43.42838" lon="6.06326">
        <ele>283.79998779297</ele>
        <time>2016-02-24T15:47:12Z</time>
      </trkpt>
      <trkpt lat="43.42835" lon="6.06328">
        <ele>283.79998779297</ele>
        <time>2016-02-24T15:47:14Z</time>
      </trkpt>
      <trkpt lat="43.42832" lon="6.06331">
        <ele>283.60000610352</ele>
        <time>2016-02-24T15:47:16Z</time>
      </trkpt>
      <trkpt lat="43.42829" lon="6.06334">
        <ele>283.20001220703</ele>
        <time>2016-02-24T15:47:17Z</time>
      </trkpt>
      <trkpt lat="43.42826" lon="6.06338">
        <ele>282.60000610352</ele>
        <time>2016-02-24T15:47:18Z</time>
      </trkpt>
      <trkpt lat="43.42823" lon="6.06341">
        <ele>281.79998779297</ele>
        <time>2016-02-24T15:47:19Z</time>
      </trkpt>
      <trkpt lat="43.42819" lon="6.06344">
        <ele>282</ele>
        <time>2016-02-24T15:47:20Z</time>
      </trkpt>
      <trkpt lat="43.4281" lon="6.06348">
        <ele>281.79998779297</ele>
        <time>2016-02-24T15:47:22Z</time>
      </trkpt>
      <trkpt lat="43.42799" lon="6.06347">
        <ele>280.60000610352</ele>
        <time>2016-02-24T15:47:24Z</time>
      </trkpt>
      <trkpt lat="43.42789" lon="6.06345">
        <ele>279.79998779297</ele>
        <time>2016-02-24T15:47:26Z</time>
      </trkpt>
      <trkpt lat="43.42783" lon="6.06343">
        <ele>279.60000610352</ele>
        <time>2016-02-24T15:47:27Z</time>
      </trkpt>
      <trkpt lat="43.42778" lon="6.0634">
        <ele>278.79998779297</ele>
        <time>2016-02-24T15:47:28Z</time>
      </trkpt>
      <trkpt lat="43.42771" lon="6.06337">
        <ele>277.39999389648</ele>
        <time>2016-02-24T15:47:29Z</time>
      </trkpt>
      <trkpt lat="43.42765" lon="6.06336">
        <ele>276</ele>
        <time>2016-02-24T15:47:30Z</time>
      </trkpt>
      <trkpt lat="43.42758" lon="6.06337">
        <ele>275.60000610352</ele>
        <time>2016-02-24T15:47:31Z</time>
      </trkpt>
      <trkpt lat="43.42752" lon="6.06339">
        <ele>275.39999389648</ele>
        <time>2016-02-24T15:47:32Z</time>
      </trkpt>
      <trkpt lat="43.42741" lon="6.06343">
        <ele>275.20001220703</ele>
        <time>2016-02-24T15:47:34Z</time>
      </trkpt>
      <trkpt lat="43.42735" lon="6.06345">
        <ele>274.79998779297</ele>
        <time>2016-02-24T15:47:35Z</time>
      </trkpt>
      <trkpt lat="43.4273" lon="6.06346">
        <ele>274.60000610352</ele>
        <time>2016-02-24T15:47:36Z</time>
      </trkpt>
      <trkpt lat="43.42724" lon="6.06347">
        <ele>274.79998779297</ele>
        <time>2016-02-24T15:47:37Z</time>
      </trkpt>
      <trkpt lat="43.42719" lon="6.06347">
        <ele>274.39999389648</ele>
        <time>2016-02-24T15:47:38Z</time>
      </trkpt>
      <trkpt lat="43.42709" lon="6.06346">
        <ele>274</ele>
        <time>2016-02-24T15:47:40Z</time>
      </trkpt>
      <trkpt lat="43.42699" lon="6.06342">
        <ele>273.39999389648</ele>
        <time>2016-02-24T15:47:42Z</time>
      </trkpt>
      <trkpt lat="43.42692" lon="6.06338">
        <ele>273</ele>
        <time>2016-02-24T15:47:44Z</time>
      </trkpt>
      <trkpt lat="43.42687" lon="6.06334">
        <ele>273.60000610352</ele>
        <time>2016-02-24T15:47:46Z</time>
      </trkpt>
      <trkpt lat="43.42683" lon="6.06331">
        <ele>273.39999389648</ele>
        <time>2016-02-24T15:47:48Z</time>
      </trkpt>
      <trkpt lat="43.42682" lon="6.06329">
        <ele>273.39999389648</ele>
        <time>2016-02-24T15:47:49Z</time>
      </trkpt>
      <trkpt lat="43.42681" lon="6.06328">
        <ele>273.60000610352</ele>
        <time>2016-02-24T15:47:50Z</time>
      </trkpt>
      <trkpt lat="43.42679" lon="6.06327">
        <ele>273.60000610352</ele>
        <time>2016-02-24T15:47:52Z</time>
      </trkpt>
      <trkpt lat="43.42677" lon="6.06326">
        <ele>273.20001220703</ele>
        <time>2016-02-24T15:47:54Z</time>
      </trkpt>
      <trkpt lat="43.42675" lon="6.06325">
        <ele>273</ele>
        <time>2016-02-24T15:47:56Z</time>
      </trkpt>
      <trkpt lat="43.42675" lon="6.06325">
        <ele>272.79998779297</ele>
        <time>2016-02-24T15:47:57Z</time>
      </trkpt>
      <trkpt lat="43.42675" lon="6.06325">
        <ele>272.60000610352</ele>
        <time>2016-02-24T15:47:58Z</time>
      </trkpt>
      <trkpt lat="43.42674" lon="6.06325">
        <ele>272.60000610352</ele>
        <time>2016-02-24T15:47:59Z</time>
      </trkpt>
      <trkpt lat="43.42674" lon="6.06325">
        <ele>272.60000610352</ele>
        <time>2016-02-24T15:48:00Z</time>
      </trkpt>
      <trkpt lat="43.42674" lon="6.06325">
        <ele>272.79998779297</ele>
        <time>2016-02-24T15:48:02Z</time>
      </trkpt>
      <trkpt lat="43.42674" lon="6.06325">
        <ele>272.79998779297</ele>
        <time>2016-02-24T15:48:04Z</time>
      </trkpt>
      <trkpt lat="43.42674" lon="6.06325">
        <ele>272.79998779297</ele>
        <time>2016-02-24T15:48:06Z</time>
      </trkpt>
      <trkpt lat="43.42674" lon="6.06325">
        <ele>272.60000610352</ele>
        <time>2016-02-24T15:48:08Z</time>
      </trkpt>
      <trkpt lat="43.42674" lon="6.06325">
        <ele>272.60000610352</ele>
        <time>2016-02-24T15:48:10Z</time>
      </trkpt>
      <trkpt lat="43.42674" lon="6.06325">
        <ele>272.60000610352</ele>
        <time>2016-02-24T15:48:12Z</time>
      </trkpt>
      <trkpt lat="43.42674" lon="6.06325">
        <ele>272.39999389648</ele>
        <time>2016-02-24T15:48:14Z</time>
      </trkpt>
      <trkpt lat="43.42674" lon="6.06325">
        <ele>272.39999389648</ele>
        <time>2016-02-24T15:48:16Z</time>
      </trkpt>
      <trkpt lat="43.42674" lon="6.06325">
        <ele>272.60000610352</ele>
        <time>2016-02-24T15:48:18Z</time>
      </trkpt>
      <trkpt lat="43.42674" lon="6.06325">
        <ele>272.60000610352</ele>
        <time>2016-02-24T15:48:20Z</time>
      </trkpt>
      <trkpt lat="43.42674" lon="6.06325">
        <ele>272.39999389648</ele>
        <time>2016-02-24T15:48:22Z</time>
      </trkpt>
      <trkpt lat="43.42673" lon="6.06325">
        <ele>272.60000610352</ele>
        <time>2016-02-24T15:48:24Z</time>
      </trkpt>
      <trkpt lat="43.42673" lon="6.06325">
        <ele>272.60000610352</ele>
        <time>2016-02-24T15:48:26Z</time>
      </trkpt>
      <trkpt lat="43.42673" lon="6.06325">
        <ele>272.39999389648</ele>
        <time>2016-02-24T15:48:28Z</time>
      </trkpt>
      <trkpt lat="43.42673" lon="6.06325">
        <ele>272.39999389648</ele>
        <time>2016-02-24T15:48:30Z</time>
      </trkpt>
      <trkpt lat="43.4267" lon="6.06325">
        <ele>272.39999389648</ele>
        <time>2016-02-24T15:48:32Z</time>
      </trkpt>
      <trkpt lat="43.42667" lon="6.06324">
        <ele>272.39999389648</ele>
        <time>2016-02-24T15:48:34Z</time>
      </trkpt>
      <trkpt lat="43.42661" lon="6.06323">
        <ele>272.20001220703</ele>
        <time>2016-02-24T15:48:36Z</time>
      </trkpt>
      <trkpt lat="43.42654" lon="6.06322">
        <ele>272.60000610352</ele>
        <time>2016-02-24T15:48:38Z</time>
      </trkpt>
      <trkpt lat="43.42648" lon="6.06322">
        <ele>271.39999389648</ele>
        <time>2016-02-24T15:48:40Z</time>
      </trkpt>
      <trkpt lat="43.42645" lon="6.06322">
        <ele>271.20001220703</ele>
        <time>2016-02-24T15:48:41Z</time>
      </trkpt>
      <trkpt lat="43.42641" lon="6.06322">
        <ele>271.39999389648</ele>
        <time>2016-02-24T15:48:42Z</time>
      </trkpt>
      <trkpt lat="43.42635" lon="6.0632">
        <ele>271</ele>
        <time>2016-02-24T15:48:44Z</time>
      </trkpt>
      <trkpt lat="43.42628" lon="6.06317">
        <ele>270.79998779297</ele>
        <time>2016-02-24T15:48:46Z</time>
      </trkpt>
      <trkpt lat="43.42624" lon="6.06314">
        <ele>270.79998779297</ele>
        <time>2016-02-24T15:48:47Z</time>
      </trkpt>
      <trkpt lat="43.4262" lon="6.06311">
        <ele>270.79998779297</ele>
        <time>2016-02-24T15:48:48Z</time>
      </trkpt>
      <trkpt lat="43.42617" lon="6.0631">
        <ele>270.39999389648</ele>
        <time>2016-02-24T15:48:49Z</time>
      </trkpt>
      <trkpt lat="43.42613" lon="6.06309">
        <ele>269.39999389648</ele>
        <time>2016-02-24T15:48:50Z</time>
      </trkpt>
      <trkpt lat="43.42608" lon="6.06308">
        <ele>269</ele>
        <time>2016-02-24T15:48:51Z</time>
      </trkpt>
      <trkpt lat="43.42604" lon="6.06309">
        <ele>268.79998779297</ele>
        <time>2016-02-24T15:48:52Z</time>
      </trkpt>
      <trkpt lat="43.42596" lon="6.06312">
        <ele>268.79998779297</ele>
        <time>2016-02-24T15:48:54Z</time>
      </trkpt>
      <trkpt lat="43.42589" lon="6.06318">
        <ele>269.20001220703</ele>
        <time>2016-02-24T15:48:56Z</time>
      </trkpt>
      <trkpt lat="43.42585" lon="6.06321">
        <ele>269.20001220703</ele>
        <time>2016-02-24T15:48:57Z</time>
      </trkpt>
      <trkpt lat="43.42582" lon="6.06325">
        <ele>269.79998779297</ele>
        <time>2016-02-24T15:48:58Z</time>
      </trkpt>
      <trkpt lat="43.42574" lon="6.06333">
        <ele>268.39999389648</ele>
        <time>2016-02-24T15:49:00Z</time>
      </trkpt>
      <trkpt lat="43.4257" lon="6.06337">
        <ele>267.20001220703</ele>
        <time>2016-02-24T15:49:01Z</time>
      </trkpt>
      <trkpt lat="43.42566" lon="6.0634">
        <ele>266.79998779297</ele>
        <time>2016-02-24T15:49:02Z</time>
      </trkpt>
      <trkpt lat="43.42556" lon="6.06347">
        <ele>267.39999389648</ele>
        <time>2016-02-24T15:49:04Z</time>
      </trkpt>
      <trkpt lat="43.42545" lon="6.06354">
        <ele>266.20001220703</ele>
        <time>2016-02-24T15:49:06Z</time>
      </trkpt>
      <trkpt lat="43.4254" lon="6.06357">
        <ele>265.60000610352</ele>
        <time>2016-02-24T15:49:07Z</time>
      </trkpt>
      <trkpt lat="43.42535" lon="6.06359">
        <ele>265</ele>
        <time>2016-02-24T15:49:08Z</time>
      </trkpt>
      <trkpt lat="43.42526" lon="6.06363">
        <ele>264.60000610352</ele>
        <time>2016-02-24T15:49:10Z</time>
      </trkpt>
      <trkpt lat="43.42521" lon="6.06364">
        <ele>264.39999389648</ele>
        <time>2016-02-24T15:49:11Z</time>
      </trkpt>
      <trkpt lat="43.42516" lon="6.06365">
        <ele>264.20001220703</ele>
        <time>2016-02-24T15:49:12Z</time>
      </trkpt>
      <trkpt lat="43.42511" lon="6.06367">
        <ele>264.20001220703</ele>
        <time>2016-02-24T15:49:13Z</time>
      </trkpt>
      <trkpt lat="43.42507" lon="6.06369">
        <ele>264</ele>
        <time>2016-02-24T15:49:14Z</time>
      </trkpt>
      <trkpt lat="43.42496" lon="6.06375">
        <ele>263</ele>
        <time>2016-02-24T15:49:16Z</time>
      </trkpt>
      <trkpt lat="43.4249" lon="6.06377">
        <ele>262.79998779297</ele>
        <time>2016-02-24T15:49:17Z</time>
      </trkpt>
      <trkpt lat="43.42485" lon="6.06378">
        <ele>262.79998779297</ele>
        <time>2016-02-24T15:49:18Z</time>
      </trkpt>
      <trkpt lat="43.42474" lon="6.06379">
        <ele>262.39999389648</ele>
        <time>2016-02-24T15:49:20Z</time>
      </trkpt>
      <trkpt lat="43.42462" lon="6.0638">
        <ele>261.60000610352</ele>
        <time>2016-02-24T15:49:22Z</time>
      </trkpt>
      <trkpt lat="43.42451" lon="6.06383">
        <ele>261.60000610352</ele>
        <time>2016-02-24T15:49:24Z</time>
      </trkpt>
      <trkpt lat="43.42442" lon="6.06389">
        <ele>261.20001220703</ele>
        <time>2016-02-24T15:49:26Z</time>
      </trkpt>
      <trkpt lat="43.42437" lon="6.06393">
        <ele>261</ele>
        <time>2016-02-24T15:49:27Z</time>
      </trkpt>
      <trkpt lat="43.42433" lon="6.06396">
        <ele>261</ele>
        <time>2016-02-24T15:49:28Z</time>
      </trkpt>
      <trkpt lat="43.42424" lon="6.06403">
        <ele>261.39999389648</ele>
        <time>2016-02-24T15:49:30Z</time>
      </trkpt>
      <trkpt lat="43.42416" lon="6.06408">
        <ele>261.60000610352</ele>
        <time>2016-02-24T15:49:32Z</time>
      </trkpt>
      <trkpt lat="43.42412" lon="6.06408">
        <ele>261.60000610352</ele>
        <time>2016-02-24T15:49:33Z</time>
      </trkpt>
      <trkpt lat="43.42408" lon="6.06407">
        <ele>261.60000610352</ele>
        <time>2016-02-24T15:49:34Z</time>
      </trkpt>
      <trkpt lat="43.42405" lon="6.06406">
        <ele>261.60000610352</ele>
        <time>2016-02-24T15:49:35Z</time>
      </trkpt>
      <trkpt lat="43.424" lon="6.06405">
        <ele>261.39999389648</ele>
        <time>2016-02-24T15:49:36Z</time>
      </trkpt>
      <trkpt lat="43.42396" lon="6.06403">
        <ele>261.20001220703</ele>
        <time>2016-02-24T15:49:37Z</time>
      </trkpt>
      <trkpt lat="43.42392" lon="6.06401">
        <ele>260.60000610352</ele>
        <time>2016-02-24T15:49:38Z</time>
      </trkpt>
      <trkpt lat="43.42386" lon="6.064">
        <ele>260.20001220703</ele>
        <time>2016-02-24T15:49:39Z</time>
      </trkpt>
      <trkpt lat="43.42381" lon="6.064">
        <ele>259.79998779297</ele>
        <time>2016-02-24T15:49:40Z</time>
      </trkpt>
      <trkpt lat="43.42376" lon="6.06402">
        <ele>259.79998779297</ele>
        <time>2016-02-24T15:49:41Z</time>
      </trkpt>
      <trkpt lat="43.42371" lon="6.06405">
        <ele>259.79998779297</ele>
        <time>2016-02-24T15:49:42Z</time>
      </trkpt>
      <trkpt lat="43.42366" lon="6.0641">
        <ele>259.39999389648</ele>
        <time>2016-02-24T15:49:43Z</time>
      </trkpt>
      <trkpt lat="43.42362" lon="6.06414">
        <ele>258.79998779297</ele>
        <time>2016-02-24T15:49:44Z</time>
      </trkpt>
      <trkpt lat="43.42358" lon="6.06419">
        <ele>258.79998779297</ele>
        <time>2016-02-24T15:49:45Z</time>
      </trkpt>
      <trkpt lat="43.42354" lon="6.06422">
        <ele>258.39999389648</ele>
        <time>2016-02-24T15:49:46Z</time>
      </trkpt>
      <trkpt lat="43.42346" lon="6.06428">
        <ele>258.39999389648</ele>
        <time>2016-02-24T15:49:48Z</time>
      </trkpt>
      <trkpt lat="43.42338" lon="6.06433">
        <ele>258.60000610352</ele>
        <time>2016-02-24T15:49:50Z</time>
      </trkpt>
      <trkpt lat="43.42334" lon="6.06436">
        <ele>258.39999389648</ele>
        <time>2016-02-24T15:49:51Z</time>
      </trkpt>
      <trkpt lat="43.42331" lon="6.06439">
        <ele>258.39999389648</ele>
        <time>2016-02-24T15:49:52Z</time>
      </trkpt>
      <trkpt lat="43.42323" lon="6.06445">
        <ele>258.60000610352</ele>
        <time>2016-02-24T15:49:54Z</time>
      </trkpt>
      <trkpt lat="43.42316" lon="6.06453">
        <ele>258</ele>
        <time>2016-02-24T15:49:56Z</time>
      </trkpt>
      <trkpt lat="43.42312" lon="6.06458">
        <ele>257.79998779297</ele>
        <time>2016-02-24T15:49:57Z</time>
      </trkpt>
      <trkpt lat="43.42308" lon="6.06462">
        <ele>257.60000610352</ele>
        <time>2016-02-24T15:49:58Z</time>
      </trkpt>
      <trkpt lat="43.42299" lon="6.06471">
        <ele>257</ele>
        <time>2016-02-24T15:50:00Z</time>
      </trkpt>
      <trkpt lat="43.42295" lon="6.06477">
        <ele>256.60000610352</ele>
        <time>2016-02-24T15:50:01Z</time>
      </trkpt>
      <trkpt lat="43.42292" lon="6.06481">
        <ele>256.20001220703</ele>
        <time>2016-02-24T15:50:02Z</time>
      </trkpt>
      <trkpt lat="43.42289" lon="6.06486">
        <ele>255.39999389648</ele>
        <time>2016-02-24T15:50:03Z</time>
      </trkpt>
      <trkpt lat="43.42286" lon="6.06491">
        <ele>255.19999694824</ele>
        <time>2016-02-24T15:50:04Z</time>
      </trkpt>
      <trkpt lat="43.42279" lon="6.06498">
        <ele>254.19999694824</ele>
        <time>2016-02-24T15:50:06Z</time>
      </trkpt>
      <trkpt lat="43.42274" lon="6.06502">
        <ele>253.60000610352</ele>
        <time>2016-02-24T15:50:07Z</time>
      </trkpt>
      <trkpt lat="43.4227" lon="6.06505">
        <ele>253.39999389648</ele>
        <time>2016-02-24T15:50:08Z</time>
      </trkpt>
      <trkpt lat="43.42262" lon="6.06511">
        <ele>253.19999694824</ele>
        <time>2016-02-24T15:50:10Z</time>
      </trkpt>
      <trkpt lat="43.42257" lon="6.06513">
        <ele>253</ele>
        <time>2016-02-24T15:50:11Z</time>
      </trkpt>
      <trkpt lat="43.42253" lon="6.06514">
        <ele>252.80000305176</ele>
        <time>2016-02-24T15:50:12Z</time>
      </trkpt>
      <trkpt lat="43.42243" lon="6.06514">
        <ele>252.39999389648</ele>
        <time>2016-02-24T15:50:14Z</time>
      </trkpt>
      <trkpt lat="43.42238" lon="6.06513">
        <ele>252</ele>
        <time>2016-02-24T15:50:15Z</time>
      </trkpt>
      <trkpt lat="43.42233" lon="6.06512">
        <ele>251.60000610352</ele>
        <time>2016-02-24T15:50:16Z</time>
      </trkpt>
      <trkpt lat="43.42227" lon="6.06511">
        <ele>251.60000610352</ele>
        <time>2016-02-24T15:50:17Z</time>
      </trkpt>
      <trkpt lat="43.42222" lon="6.0651">
        <ele>251.19999694824</ele>
        <time>2016-02-24T15:50:18Z</time>
      </trkpt>
      <trkpt lat="43.42216" lon="6.06509">
        <ele>250.39999389648</ele>
        <time>2016-02-24T15:50:19Z</time>
      </trkpt>
      <trkpt lat="43.4221" lon="6.06509">
        <ele>249.80000305176</ele>
        <time>2016-02-24T15:50:20Z</time>
      </trkpt>
      <trkpt lat="43.42205" lon="6.06509">
        <ele>249.39999389648</ele>
        <time>2016-02-24T15:50:21Z</time>
      </trkpt>
      <trkpt lat="43.42201" lon="6.0651">
        <ele>248.80000305176</ele>
        <time>2016-02-24T15:50:22Z</time>
      </trkpt>
      <trkpt lat="43.42197" lon="6.06508">
        <ele>248.39999389648</ele>
        <time>2016-02-24T15:50:23Z</time>
      </trkpt>
      <trkpt lat="43.42195" lon="6.06505">
        <ele>248.19999694824</ele>
        <time>2016-02-24T15:50:24Z</time>
      </trkpt>
      <trkpt lat="43.42193" lon="6.06496">
        <ele>248</ele>
        <time>2016-02-24T15:50:26Z</time>
      </trkpt>
      <trkpt lat="43.4219" lon="6.06488">
        <ele>248.19999694824</ele>
        <time>2016-02-24T15:50:28Z</time>
      </trkpt>
      <trkpt lat="43.42189" lon="6.06483">
        <ele>248.19999694824</ele>
        <time>2016-02-24T15:50:29Z</time>
      </trkpt>
      <trkpt lat="43.42188" lon="6.06479">
        <ele>248.19999694824</ele>
        <time>2016-02-24T15:50:30Z</time>
      </trkpt>
      <trkpt lat="43.42186" lon="6.0647">
        <ele>248.19999694824</ele>
        <time>2016-02-24T15:50:32Z</time>
      </trkpt>
      <trkpt lat="43.42184" lon="6.0646">
        <ele>248</ele>
        <time>2016-02-24T15:50:34Z</time>
      </trkpt>
      <trkpt lat="43.42182" lon="6.0645">
        <ele>247.80000305176</ele>
        <time>2016-02-24T15:50:36Z</time>
      </trkpt>
      <trkpt lat="43.4218" lon="6.06439">
        <ele>247.80000305176</ele>
        <time>2016-02-24T15:50:38Z</time>
      </trkpt>
      <trkpt lat="43.42179" lon="6.06429">
        <ele>247.80000305176</ele>
        <time>2016-02-24T15:50:40Z</time>
      </trkpt>
      <trkpt lat="43.42177" lon="6.06418">
        <ele>247.60000610352</ele>
        <time>2016-02-24T15:50:42Z</time>
      </trkpt>
      <trkpt lat="43.42175" lon="6.06408">
        <ele>247.60000610352</ele>
        <time>2016-02-24T15:50:44Z</time>
      </trkpt>
      <trkpt lat="43.42173" lon="6.06398">
        <ele>247.80000305176</ele>
        <time>2016-02-24T15:50:46Z</time>
      </trkpt>
      <trkpt lat="43.4217" lon="6.06388">
        <ele>247.60000610352</ele>
        <time>2016-02-24T15:50:48Z</time>
      </trkpt>
      <trkpt lat="43.42168" lon="6.06378">
        <ele>247.60000610352</ele>
        <time>2016-02-24T15:50:50Z</time>
      </trkpt>
      <trkpt lat="43.42167" lon="6.06368">
        <ele>247.19999694824</ele>
        <time>2016-02-24T15:50:52Z</time>
      </trkpt>
      <trkpt lat="43.42165" lon="6.06358">
        <ele>247.39999389648</ele>
        <time>2016-02-24T15:50:54Z</time>
      </trkpt>
      <trkpt lat="43.42163" lon="6.06349">
        <ele>248</ele>
        <time>2016-02-24T15:50:56Z</time>
      </trkpt>
      <trkpt lat="43.42162" lon="6.0634">
        <ele>248.39999389648</ele>
        <time>2016-02-24T15:50:58Z</time>
      </trkpt>
      <trkpt lat="43.4216" lon="6.0633">
        <ele>248.80000305176</ele>
        <time>2016-02-24T15:51:00Z</time>
      </trkpt>
      <trkpt lat="43.42159" lon="6.06322">
        <ele>248.80000305176</ele>
        <time>2016-02-24T15:51:02Z</time>
      </trkpt>
      <trkpt lat="43.42157" lon="6.06314">
        <ele>249</ele>
        <time>2016-02-24T15:51:04Z</time>
      </trkpt>
      <trkpt lat="43.42157" lon="6.0631">
        <ele>249.19999694824</ele>
        <time>2016-02-24T15:51:05Z</time>
      </trkpt>
      <trkpt lat="43.42157" lon="6.06306">
        <ele>249.39999389648</ele>
        <time>2016-02-24T15:51:06Z</time>
      </trkpt>
      <trkpt lat="43.42157" lon="6.06303">
        <ele>249.60000610352</ele>
        <time>2016-02-24T15:51:07Z</time>
      </trkpt>
      <trkpt lat="43.42156" lon="6.063">
        <ele>249.80000305176</ele>
        <time>2016-02-24T15:51:08Z</time>
      </trkpt>
      <trkpt lat="43.42156" lon="6.06293">
        <ele>250.19999694824</ele>
        <time>2016-02-24T15:51:10Z</time>
      </trkpt>
      <trkpt lat="43.42156" lon="6.06284">
        <ele>250.60000610352</ele>
        <time>2016-02-24T15:51:12Z</time>
      </trkpt>
      <trkpt lat="43.42155" lon="6.06276">
        <ele>251.19999694824</ele>
        <time>2016-02-24T15:51:14Z</time>
      </trkpt>
      <trkpt lat="43.42156" lon="6.06267">
        <ele>251.60000610352</ele>
        <time>2016-02-24T15:51:16Z</time>
      </trkpt>
      <trkpt lat="43.42155" lon="6.06258">
        <ele>251.80000305176</ele>
        <time>2016-02-24T15:51:18Z</time>
      </trkpt>
      <trkpt lat="43.42155" lon="6.06251">
        <ele>252.19999694824</ele>
        <time>2016-02-24T15:51:20Z</time>
      </trkpt>
      <trkpt lat="43.42155" lon="6.06243">
        <ele>252.80000305176</ele>
        <time>2016-02-24T15:51:22Z</time>
      </trkpt>
      <trkpt lat="43.42155" lon="6.06236">
        <ele>253.19999694824</ele>
        <time>2016-02-24T15:51:24Z</time>
      </trkpt>
      <trkpt lat="43.42154" lon="6.06229">
        <ele>253.39999389648</ele>
        <time>2016-02-24T15:51:26Z</time>
      </trkpt>
      <trkpt lat="43.42152" lon="6.06224">
        <ele>253.80000305176</ele>
        <time>2016-02-24T15:51:28Z</time>
      </trkpt>
      <trkpt lat="43.4215" lon="6.06222">
        <ele>254</ele>
        <time>2016-02-24T15:51:29Z</time>
      </trkpt>
      <trkpt lat="43.42149" lon="6.0622">
        <ele>254.19999694824</ele>
        <time>2016-02-24T15:51:30Z</time>
      </trkpt>
      <trkpt lat="43.42147" lon="6.06219">
        <ele>254.19999694824</ele>
        <time>2016-02-24T15:51:32Z</time>
      </trkpt>
      <trkpt lat="43.42144" lon="6.06219">
        <ele>254.19999694824</ele>
        <time>2016-02-24T15:51:34Z</time>
      </trkpt>
      <trkpt lat="43.4214" lon="6.0622">
        <ele>253.80000305176</ele>
        <time>2016-02-24T15:51:36Z</time>
      </trkpt>
      <trkpt lat="43.42136" lon="6.06221">
        <ele>253.80000305176</ele>
        <time>2016-02-24T15:51:38Z</time>
      </trkpt>
      <trkpt lat="43.42132" lon="6.06222">
        <ele>253.80000305176</ele>
        <time>2016-02-24T15:51:40Z</time>
      </trkpt>
      <trkpt lat="43.42128" lon="6.06224">
        <ele>253.39999389648</ele>
        <time>2016-02-24T15:51:42Z</time>
      </trkpt>
      <trkpt lat="43.42125" lon="6.06225">
        <ele>253.19999694824</ele>
        <time>2016-02-24T15:51:44Z</time>
      </trkpt>
      <trkpt lat="43.42123" lon="6.06226">
        <ele>253</ele>
        <time>2016-02-24T15:51:46Z</time>
      </trkpt>
      <trkpt lat="43.42122" lon="6.06226">
        <ele>253</ele>
        <time>2016-02-24T15:51:47Z</time>
      </trkpt>
      <trkpt lat="43.42121" lon="6.06227">
        <ele>253</ele>
        <time>2016-02-24T15:51:48Z</time>
      </trkpt>
      <trkpt lat="43.42118" lon="6.06227">
        <ele>252.80000305176</ele>
        <time>2016-02-24T15:51:50Z</time>
      </trkpt>
      <trkpt lat="43.42113" lon="6.06229">
        <ele>252.80000305176</ele>
        <time>2016-02-24T15:51:52Z</time>
      </trkpt>
      <trkpt lat="43.4211" lon="6.06229">
        <ele>252.80000305176</ele>
        <time>2016-02-24T15:51:53Z</time>
      </trkpt>
      <trkpt lat="43.42107" lon="6.0623">
        <ele>252.80000305176</ele>
        <time>2016-02-24T15:51:54Z</time>
      </trkpt>
      <trkpt lat="43.42101" lon="6.06233">
        <ele>252</ele>
        <time>2016-02-24T15:51:56Z</time>
      </trkpt>
      <trkpt lat="43.42092" lon="6.06236">
        <ele>251.39999389648</ele>
        <time>2016-02-24T15:51:58Z</time>
      </trkpt>
      <trkpt lat="43.42086" lon="6.06238">
        <ele>250.80000305176</ele>
        <time>2016-02-24T15:51:59Z</time>
      </trkpt>
      <trkpt lat="43.42081" lon="6.0624">
        <ele>250.39999389648</ele>
        <time>2016-02-24T15:52:00Z</time>
      </trkpt>
      <trkpt lat="43.42068" lon="6.06244">
        <ele>249.19999694824</ele>
        <time>2016-02-24T15:52:02Z</time>
      </trkpt>
      <trkpt lat="43.42061" lon="6.06247">
        <ele>248.60000610352</ele>
        <time>2016-02-24T15:52:03Z</time>
      </trkpt>
      <trkpt lat="43.42054" lon="6.06249">
        <ele>248.19999694824</ele>
        <time>2016-02-24T15:52:04Z</time>
      </trkpt>
      <trkpt lat="43.42036" lon="6.06255">
        <ele>246.60000610352</ele>
        <time>2016-02-24T15:52:06Z</time>
      </trkpt>
      <trkpt lat="43.42026" lon="6.06258">
        <ele>245.60000610352</ele>
        <time>2016-02-24T15:52:07Z</time>
      </trkpt>
      <trkpt lat="43.42017" lon="6.06262">
        <ele>244.39999389648</ele>
        <time>2016-02-24T15:52:08Z</time>
      </trkpt>
      <trkpt lat="43.41996" lon="6.06269">
        <ele>242</ele>
        <time>2016-02-24T15:52:10Z</time>
      </trkpt>
      <trkpt lat="43.41984" lon="6.06273">
        <ele>240.80000305176</ele>
        <time>2016-02-24T15:52:11Z</time>
      </trkpt>
      <trkpt lat="43.41973" lon="6.06276">
        <ele>239.39999389648</ele>
        <time>2016-02-24T15:52:12Z</time>
      </trkpt>
      <trkpt lat="43.41962" lon="6.06279">
        <ele>238.19999694824</ele>
        <time>2016-02-24T15:52:13Z</time>
      </trkpt>
      <trkpt lat="43.41953" lon="6.06282">
        <ele>237.39999389648</ele>
        <time>2016-02-24T15:52:14Z</time>
      </trkpt>
      <trkpt lat="43.41943" lon="6.06286">
        <ele>236.39999389648</ele>
        <time>2016-02-24T15:52:15Z</time>
      </trkpt>
      <trkpt lat="43.41934" lon="6.06288">
        <ele>235.60000610352</ele>
        <time>2016-02-24T15:52:16Z</time>
      </trkpt>
      <trkpt lat="43.41925" lon="6.06291">
        <ele>235.19999694824</ele>
        <time>2016-02-24T15:52:17Z</time>
      </trkpt>
      <trkpt lat="43.41917" lon="6.06293">
        <ele>234.80000305176</ele>
        <time>2016-02-24T15:52:18Z</time>
      </trkpt>
      <trkpt lat="43.41899" lon="6.06295">
        <ele>234.39999389648</ele>
        <time>2016-02-24T15:52:20Z</time>
      </trkpt>
      <trkpt lat="43.4189" lon="6.06295">
        <ele>233.60000610352</ele>
        <time>2016-02-24T15:52:21Z</time>
      </trkpt>
      <trkpt lat="43.41881" lon="6.06295">
        <ele>232.80000305176</ele>
        <time>2016-02-24T15:52:22Z</time>
      </trkpt>
      <trkpt lat="43.41872" lon="6.06294">
        <ele>232.19999694824</ele>
        <time>2016-02-24T15:52:23Z</time>
      </trkpt>
      <trkpt lat="43.41863" lon="6.06294">
        <ele>232</ele>
        <time>2016-02-24T15:52:24Z</time>
      </trkpt>
      <trkpt lat="43.41846" lon="6.06293">
        <ele>230.60000610352</ele>
        <time>2016-02-24T15:52:26Z</time>
      </trkpt>
      <trkpt lat="43.41836" lon="6.06293">
        <ele>229.39999389648</ele>
        <time>2016-02-24T15:52:27Z</time>
      </trkpt>
      <trkpt lat="43.41828" lon="6.06293">
        <ele>228.80000305176</ele>
        <time>2016-02-24T15:52:28Z</time>
      </trkpt>
      <trkpt lat="43.41819" lon="6.06292">
        <ele>228.39999389648</ele>
        <time>2016-02-24T15:52:29Z</time>
      </trkpt>
      <trkpt lat="43.41811" lon="6.06291">
        <ele>228.39999389648</ele>
        <time>2016-02-24T15:52:30Z</time>
      </trkpt>
      <trkpt lat="43.41796" lon="6.06284">
        <ele>227.60000610352</ele>
        <time>2016-02-24T15:52:32Z</time>
      </trkpt>
      <trkpt lat="43.41789" lon="6.06278">
        <ele>227</ele>
        <time>2016-02-24T15:52:33Z</time>
      </trkpt>
      <trkpt lat="43.41782" lon="6.06272">
        <ele>226.80000305176</ele>
        <time>2016-02-24T15:52:34Z</time>
      </trkpt>
      <trkpt lat="43.41774" lon="6.06266">
        <ele>226.39999389648</ele>
        <time>2016-02-24T15:52:35Z</time>
      </trkpt>
      <trkpt lat="43.41767" lon="6.06262">
        <ele>226.19999694824</ele>
        <time>2016-02-24T15:52:36Z</time>
      </trkpt>
      <trkpt lat="43.41758" lon="6.06258">
        <ele>225.19999694824</ele>
        <time>2016-02-24T15:52:37Z</time>
      </trkpt>
      <trkpt lat="43.41751" lon="6.06255">
        <ele>224.60000610352</ele>
        <time>2016-02-24T15:52:38Z</time>
      </trkpt>
      <trkpt lat="43.41742" lon="6.06253">
        <ele>224</ele>
        <time>2016-02-24T15:52:39Z</time>
      </trkpt>
      <trkpt lat="43.41733" lon="6.06252">
        <ele>223.39999389648</ele>
        <time>2016-02-24T15:52:40Z</time>
      </trkpt>
      <trkpt lat="43.41715" lon="6.0625">
        <ele>223</ele>
        <time>2016-02-24T15:52:42Z</time>
      </trkpt>
      <trkpt lat="43.41698" lon="6.0625">
        <ele>222.80000305176</ele>
        <time>2016-02-24T15:52:44Z</time>
      </trkpt>
      <trkpt lat="43.41681" lon="6.06249">
        <ele>222.60000610352</ele>
        <time>2016-02-24T15:52:46Z</time>
      </trkpt>
      <trkpt lat="43.41666" lon="6.06247">
        <ele>222</ele>
        <time>2016-02-24T15:52:48Z</time>
      </trkpt>
      <trkpt lat="43.41653" lon="6.06244">
        <ele>221.80000305176</ele>
        <time>2016-02-24T15:52:50Z</time>
      </trkpt>
      <trkpt lat="43.4164" lon="6.06238">
        <ele>221.80000305176</ele>
        <time>2016-02-24T15:52:52Z</time>
      </trkpt>
      <trkpt lat="43.41633" lon="6.06234">
        <ele>221.80000305176</ele>
        <time>2016-02-24T15:52:53Z</time>
      </trkpt>
      <trkpt lat="43.41629" lon="6.06231">
        <ele>221.39999389648</ele>
        <time>2016-02-24T15:52:54Z</time>
      </trkpt>
      <trkpt lat="43.41622" lon="6.06232">
        <ele>220.39999389648</ele>
        <time>2016-02-24T15:52:56Z</time>
      </trkpt>
      <trkpt lat="43.41616" lon="6.06233">
        <ele>219.80000305176</ele>
        <time>2016-02-24T15:52:58Z</time>
      </trkpt>
      <trkpt lat="43.4161" lon="6.06235">
        <ele>219.60000610352</ele>
        <time>2016-02-24T15:53:00Z</time>
      </trkpt>
      <trkpt lat="43.41608" lon="6.06235">
        <ele>219.60000610352</ele>
        <time>2016-02-24T15:53:01Z</time>
      </trkpt>
      <trkpt lat="43.41607" lon="6.06236">
        <ele>219.39999389648</ele>
        <time>2016-02-24T15:53:02Z</time>
      </trkpt>
      <trkpt lat="43.41606" lon="6.06238">
        <ele>219.19999694824</ele>
        <time>2016-02-24T15:53:04Z</time>
      </trkpt>
      <trkpt lat="43.41606" lon="6.06238">
        <ele>219.19999694824</ele>
        <time>2016-02-24T15:53:05Z</time>
      </trkpt>
      <trkpt lat="43.41606" lon="6.06239">
        <ele>219</ele>
        <time>2016-02-24T15:53:06Z</time>
      </trkpt>
      <trkpt lat="43.41605" lon="6.0624">
        <ele>218.80000305176</ele>
        <time>2016-02-24T15:53:08Z</time>
      </trkpt>
      <trkpt lat="43.41604" lon="6.06241">
        <ele>218.80000305176</ele>
        <time>2016-02-24T15:53:10Z</time>
      </trkpt>
      <trkpt lat="43.41603" lon="6.06243">
        <ele>218.80000305176</ele>
        <time>2016-02-24T15:53:12Z</time>
      </trkpt>
      <trkpt lat="43.41603" lon="6.06245">
        <ele>218.60000610352</ele>
        <time>2016-02-24T15:53:14Z</time>
      </trkpt>
      <trkpt lat="43.41602" lon="6.06247">
        <ele>218.60000610352</ele>
        <time>2016-02-24T15:53:16Z</time>
      </trkpt>
      <trkpt lat="43.41602" lon="6.06249">
        <ele>218.60000610352</ele>
        <time>2016-02-24T15:53:18Z</time>
      </trkpt>
      <trkpt lat="43.41603" lon="6.0625">
        <ele>218.80000305176</ele>
        <time>2016-02-24T15:53:20Z</time>
      </trkpt>
      <trkpt lat="43.41603" lon="6.0625">
        <ele>219</ele>
        <time>2016-02-24T15:53:22Z</time>
      </trkpt>
      <trkpt lat="43.41603" lon="6.0625">
        <ele>219</ele>
        <time>2016-02-24T15:53:24Z</time>
      </trkpt>
      <trkpt lat="43.41603" lon="6.0625">
        <ele>218.80000305176</ele>
        <time>2016-02-24T15:53:26Z</time>
      </trkpt>
      <trkpt lat="43.41603" lon="6.0625">
        <ele>218.80000305176</ele>
        <time>2016-02-24T15:53:28Z</time>
      </trkpt>
      <trkpt lat="43.41603" lon="6.06249">
        <ele>219</ele>
        <time>2016-02-24T15:53:29Z</time>
      </trkpt>
      <trkpt lat="43.41603" lon="6.0625">
        <ele>219</ele>
        <time>2016-02-24T15:53:30Z</time>
      </trkpt>
      <trkpt lat="43.41603" lon="6.0625">
        <ele>219</ele>
        <time>2016-02-24T15:53:32Z</time>
      </trkpt>
      <trkpt lat="43.41602" lon="6.06251">
        <ele>218.80000305176</ele>
        <time>2016-02-24T15:53:34Z</time>
      </trkpt>
      <trkpt lat="43.41602" lon="6.06252">
        <ele>218.80000305176</ele>
        <time>2016-02-24T15:53:36Z</time>
      </trkpt>
      <trkpt lat="43.41602" lon="6.06255">
        <ele>218.60000610352</ele>
        <time>2016-02-24T15:53:38Z</time>
      </trkpt>
      <trkpt lat="43.41601" lon="6.06259">
        <ele>218.80000305176</ele>
        <time>2016-02-24T15:53:40Z</time>
      </trkpt>
      <trkpt lat="43.416" lon="6.06261">
        <ele>218.80000305176</ele>
        <time>2016-02-24T15:53:41Z</time>
      </trkpt>
      <trkpt lat="43.41599" lon="6.06261">
        <ele>219</ele>
        <time>2016-02-24T15:53:42Z</time>
      </trkpt>
      <trkpt lat="43.41596" lon="6.06263">
        <ele>219</ele>
        <time>2016-02-24T15:53:44Z</time>
      </trkpt>
      <trkpt lat="43.41592" lon="6.06267">
        <ele>218.60000610352</ele>
        <time>2016-02-24T15:53:46Z</time>
      </trkpt>
      <trkpt lat="43.41587" lon="6.06273">
        <ele>218.39999389648</ele>
        <time>2016-02-24T15:53:48Z</time>
      </trkpt>
      <trkpt lat="43.41586" lon="6.06278">
        <ele>218.39999389648</ele>
        <time>2016-02-24T15:53:49Z</time>
      </trkpt>
      <trkpt lat="43.41586" lon="6.06283">
        <ele>218.19999694824</ele>
        <time>2016-02-24T15:53:50Z</time>
      </trkpt>
      <trkpt lat="43.41585" lon="6.06296">
        <ele>217.60000610352</ele>
        <time>2016-02-24T15:53:52Z</time>
      </trkpt>
      <trkpt lat="43.41584" lon="6.0631">
        <ele>217.19999694824</ele>
        <time>2016-02-24T15:53:54Z</time>
      </trkpt>
      <trkpt lat="43.41581" lon="6.06317">
        <ele>217</ele>
        <time>2016-02-24T15:53:55Z</time>
      </trkpt>
      <trkpt lat="43.41578" lon="6.06324">
        <ele>216.60000610352</ele>
        <time>2016-02-24T15:53:56Z</time>
      </trkpt>
      <trkpt lat="43.4157" lon="6.06337">
        <ele>216.39999389648</ele>
        <time>2016-02-24T15:53:58Z</time>
      </trkpt>
      <trkpt lat="43.41565" lon="6.06344">
        <ele>215.80000305176</ele>
        <time>2016-02-24T15:53:59Z</time>
      </trkpt>
      <trkpt lat="43.41561" lon="6.06352">
        <ele>215.39999389648</ele>
        <time>2016-02-24T15:54:00Z</time>
      </trkpt>
      <trkpt lat="43.41557" lon="6.06365">
        <ele>214.39999389648</ele>
        <time>2016-02-24T15:54:02Z</time>
      </trkpt>
      <trkpt lat="43.41554" lon="6.06375">
        <ele>213.60000610352</ele>
        <time>2016-02-24T15:54:04Z</time>
      </trkpt>
      <trkpt lat="43.41553" lon="6.06382">
        <ele>213.39999389648</ele>
        <time>2016-02-24T15:54:05Z</time>
      </trkpt>
      <trkpt lat="43.41552" lon="6.06388">
        <ele>213</ele>
        <time>2016-02-24T15:54:06Z</time>
      </trkpt>
      <trkpt lat="43.4155" lon="6.06396">
        <ele>212.80000305176</ele>
        <time>2016-02-24T15:54:07Z</time>
      </trkpt>
      <trkpt lat="43.41549" lon="6.06403">
        <ele>212.60000610352</ele>
        <time>2016-02-24T15:54:08Z</time>
      </trkpt>
      <trkpt lat="43.41547" lon="6.06412">
        <ele>212</ele>
        <time>2016-02-24T15:54:09Z</time>
      </trkpt>
      <trkpt lat="43.41545" lon="6.0642">
        <ele>211.60000610352</ele>
        <time>2016-02-24T15:54:10Z</time>
      </trkpt>
      <trkpt lat="43.41542" lon="6.0644">
        <ele>211</ele>
        <time>2016-02-24T15:54:12Z</time>
      </trkpt>
      <trkpt lat="43.41542" lon="6.06451">
        <ele>210.60000610352</ele>
        <time>2016-02-24T15:54:13Z</time>
      </trkpt>
      <trkpt lat="43.41543" lon="6.0646">
        <ele>210.39999389648</ele>
        <time>2016-02-24T15:54:14Z</time>
      </trkpt>
      <trkpt lat="43.41544" lon="6.06477">
        <ele>209.80000305176</ele>
        <time>2016-02-24T15:54:16Z</time>
      </trkpt>
      <trkpt lat="43.4154" lon="6.06488">
        <ele>209.60000610352</ele>
        <time>2016-02-24T15:54:18Z</time>
      </trkpt>
      <trkpt lat="43.41537" lon="6.06491">
        <ele>209.39999389648</ele>
        <time>2016-02-24T15:54:19Z</time>
      </trkpt>
      <trkpt lat="43.41535" lon="6.06494">
        <ele>209.39999389648</ele>
        <time>2016-02-24T15:54:20Z</time>
      </trkpt>
      <trkpt lat="43.41532" lon="6.06499">
        <ele>209.19999694824</ele>
        <time>2016-02-24T15:54:22Z</time>
      </trkpt>
      <trkpt lat="43.4153" lon="6.06502">
        <ele>209</ele>
        <time>2016-02-24T15:54:23Z</time>
      </trkpt>
      <trkpt lat="43.41529" lon="6.06504">
        <ele>208.80000305176</ele>
        <time>2016-02-24T15:54:24Z</time>
      </trkpt>
      <trkpt lat="43.41526" lon="6.06509">
        <ele>208.60000610352</ele>
        <time>2016-02-24T15:54:26Z</time>
      </trkpt>
      <trkpt lat="43.41524" lon="6.06516">
        <ele>208.80000305176</ele>
        <time>2016-02-24T15:54:28Z</time>
      </trkpt>
      <trkpt lat="43.41523" lon="6.06522">
        <ele>208.80000305176</ele>
        <time>2016-02-24T15:54:29Z</time>
      </trkpt>
      <trkpt lat="43.41521" lon="6.06528">
        <ele>208.80000305176</ele>
        <time>2016-02-24T15:54:30Z</time>
      </trkpt>
      <trkpt lat="43.41519" lon="6.06542">
        <ele>208.39999389648</ele>
        <time>2016-02-24T15:54:32Z</time>
      </trkpt>
      <trkpt lat="43.41516" lon="6.06558">
        <ele>208.39999389648</ele>
        <time>2016-02-24T15:54:34Z</time>
      </trkpt>
      <trkpt lat="43.41513" lon="6.06575">
        <ele>208</ele>
        <time>2016-02-24T15:54:36Z</time>
      </trkpt>
      <trkpt lat="43.4151" lon="6.06593">
        <ele>208.39999389648</ele>
        <time>2016-02-24T15:54:38Z</time>
      </trkpt>
      <trkpt lat="43.41507" lon="6.06613">
        <ele>208.39999389648</ele>
        <time>2016-02-24T15:54:40Z</time>
      </trkpt>
      <trkpt lat="43.41505" lon="6.06623">
        <ele>208.19999694824</ele>
        <time>2016-02-24T15:54:41Z</time>
      </trkpt>
      <trkpt lat="43.41504" lon="6.06632">
        <ele>207.80000305176</ele>
        <time>2016-02-24T15:54:42Z</time>
      </trkpt>
      <trkpt lat="43.41501" lon="6.06651">
        <ele>208.19999694824</ele>
        <time>2016-02-24T15:54:44Z</time>
      </trkpt>
      <trkpt lat="43.41498" lon="6.0667">
        <ele>208.19999694824</ele>
        <time>2016-02-24T15:54:46Z</time>
      </trkpt>
      <trkpt lat="43.41496" lon="6.0669">
        <ele>208</ele>
        <time>2016-02-24T15:54:48Z</time>
      </trkpt>
      <trkpt lat="43.41496" lon="6.06709">
        <ele>207.60000610352</ele>
        <time>2016-02-24T15:54:50Z</time>
      </trkpt>
      <trkpt lat="43.41495" lon="6.06729">
        <ele>207.19999694824</ele>
        <time>2016-02-24T15:54:52Z</time>
      </trkpt>
      <trkpt lat="43.41493" lon="6.0675">
        <ele>207</ele>
        <time>2016-02-24T15:54:54Z</time>
      </trkpt>
      <trkpt lat="43.41492" lon="6.06761">
        <ele>206.80000305176</ele>
        <time>2016-02-24T15:54:55Z</time>
      </trkpt>
      <trkpt lat="43.41491" lon="6.06771">
        <ele>206.19999694824</ele>
        <time>2016-02-24T15:54:56Z</time>
      </trkpt>
      <trkpt lat="43.41488" lon="6.06792">
        <ele>205.39999389648</ele>
        <time>2016-02-24T15:54:58Z</time>
      </trkpt>
      <trkpt lat="43.41486" lon="6.06803">
        <ele>205</ele>
        <time>2016-02-24T15:54:59Z</time>
      </trkpt>
      <trkpt lat="43.41483" lon="6.06813">
        <ele>204.80000305176</ele>
        <time>2016-02-24T15:55:00Z</time>
      </trkpt>
      <trkpt lat="43.41481" lon="6.06823">
        <ele>204.60000610352</ele>
        <time>2016-02-24T15:55:01Z</time>
      </trkpt>
      <trkpt lat="43.41478" lon="6.06831">
        <ele>204.60000610352</ele>
        <time>2016-02-24T15:55:02Z</time>
      </trkpt>
      <trkpt lat="43.41474" lon="6.06844">
        <ele>204.60000610352</ele>
        <time>2016-02-24T15:55:04Z</time>
      </trkpt>
      <trkpt lat="43.41472" lon="6.06857">
        <ele>205</ele>
        <time>2016-02-24T15:55:06Z</time>
      </trkpt>
      <trkpt lat="43.41472" lon="6.06864">
        <ele>205</ele>
        <time>2016-02-24T15:55:08Z</time>
      </trkpt>
      <trkpt lat="43.41472" lon="6.06868">
        <ele>205</ele>
        <time>2016-02-24T15:55:10Z</time>
      </trkpt>
      <trkpt lat="43.41473" lon="6.06871">
        <ele>205</ele>
        <time>2016-02-24T15:55:12Z</time>
      </trkpt>
      <trkpt lat="43.41473" lon="6.06873">
        <ele>205.19999694824</ele>
        <time>2016-02-24T15:55:13Z</time>
      </trkpt>
      <trkpt lat="43.41475" lon="6.06875">
        <ele>205.19999694824</ele>
        <time>2016-02-24T15:55:14Z</time>
      </trkpt>
      <trkpt lat="43.41475" lon="6.06877">
        <ele>205.39999389648</ele>
        <time>2016-02-24T15:55:16Z</time>
      </trkpt>
      <trkpt lat="43.41475" lon="6.06876">
        <ele>205.60000610352</ele>
        <time>2016-02-24T15:55:18Z</time>
      </trkpt>
      <trkpt lat="43.41475" lon="6.06876">
        <ele>205.60000610352</ele>
        <time>2016-02-24T15:55:20Z</time>
      </trkpt>
      <trkpt lat="43.41476" lon="6.06877">
        <ele>205.19999694824</ele>
        <time>2016-02-24T15:55:22Z</time>
      </trkpt>
      <trkpt lat="43.41476" lon="6.06878">
        <ele>205.19999694824</ele>
        <time>2016-02-24T15:55:23Z</time>
      </trkpt>
      <trkpt lat="43.41476" lon="6.06879">
        <ele>205.19999694824</ele>
        <time>2016-02-24T15:55:24Z</time>
      </trkpt>
      <trkpt lat="43.41476" lon="6.06879">
        <ele>205.19999694824</ele>
        <time>2016-02-24T15:55:25Z</time>
      </trkpt>
      <trkpt lat="43.41476" lon="6.06879">
        <ele>205.19999694824</ele>
        <time>2016-02-24T15:55:26Z</time>
      </trkpt>
      <trkpt lat="43.41475" lon="6.06881">
        <ele>205.19999694824</ele>
        <time>2016-02-24T15:55:27Z</time>
      </trkpt>
      <trkpt lat="43.41475" lon="6.06883">
        <ele>205.19999694824</ele>
        <time>2016-02-24T15:55:28Z</time>
      </trkpt>
      <trkpt lat="43.41475" lon="6.06884">
        <ele>205.19999694824</ele>
        <time>2016-02-24T15:55:29Z</time>
      </trkpt>
      <trkpt lat="43.41475" lon="6.06886">
        <ele>205</ele>
        <time>2016-02-24T15:55:30Z</time>
      </trkpt>
      <trkpt lat="43.41475" lon="6.06887">
        <ele>204.80000305176</ele>
        <time>2016-02-24T15:55:32Z</time>
      </trkpt>
      <trkpt lat="43.41475" lon="6.06889">
        <ele>204.80000305176</ele>
        <time>2016-02-24T15:55:34Z</time>
      </trkpt>
      <trkpt lat="43.41475" lon="6.06889">
        <ele>204.80000305176</ele>
        <time>2016-02-24T15:55:35Z</time>
      </trkpt>
      <trkpt lat="43.41475" lon="6.0689">
        <ele>204.80000305176</ele>
        <time>2016-02-24T15:55:36Z</time>
      </trkpt>
      <trkpt lat="43.41474" lon="6.06892">
        <ele>205.19999694824</ele>
        <time>2016-02-24T15:55:38Z</time>
      </trkpt>
      <trkpt lat="43.41474" lon="6.06895">
        <ele>205</ele>
        <time>2016-02-24T15:55:40Z</time>
      </trkpt>
      <trkpt lat="43.41474" lon="6.06897">
        <ele>205</ele>
        <time>2016-02-24T15:55:41Z</time>
      </trkpt>
      <trkpt lat="43.41474" lon="6.069">
        <ele>204.80000305176</ele>
        <time>2016-02-24T15:55:42Z</time>
      </trkpt>
      <trkpt lat="43.41474" lon="6.06906">
        <ele>205</ele>
        <time>2016-02-24T15:55:44Z</time>
      </trkpt>
      <trkpt lat="43.41473" lon="6.06911">
        <ele>205</ele>
        <time>2016-02-24T15:55:45Z</time>
      </trkpt>
      <trkpt lat="43.41472" lon="6.06915">
        <ele>204.80000305176</ele>
        <time>2016-02-24T15:55:46Z</time>
      </trkpt>
      <trkpt lat="43.41469" lon="6.06924">
        <ele>205</ele>
        <time>2016-02-24T15:55:48Z</time>
      </trkpt>
      <trkpt lat="43.41468" lon="6.06932">
        <ele>205</ele>
        <time>2016-02-24T15:55:50Z</time>
      </trkpt>
      <trkpt lat="43.41469" lon="6.06935">
        <ele>205</ele>
        <time>2016-02-24T15:55:51Z</time>
      </trkpt>
      <trkpt lat="43.4147" lon="6.06938">
        <ele>205</ele>
        <time>2016-02-24T15:55:52Z</time>
      </trkpt>
      <trkpt lat="43.41475" lon="6.06944">
        <ele>204.39999389648</ele>
        <time>2016-02-24T15:55:54Z</time>
      </trkpt>
      <trkpt lat="43.41481" lon="6.06949">
        <ele>204.19999694824</ele>
        <time>2016-02-24T15:55:56Z</time>
      </trkpt>
      <trkpt lat="43.41487" lon="6.06955">
        <ele>204.39999389648</ele>
        <time>2016-02-24T15:55:58Z</time>
      </trkpt>
      <trkpt lat="43.41492" lon="6.06961">
        <ele>204.80000305176</ele>
        <time>2016-02-24T15:56:00Z</time>
      </trkpt>
      <trkpt lat="43.41496" lon="6.06966">
        <ele>204.60000610352</ele>
        <time>2016-02-24T15:56:02Z</time>
      </trkpt>
      <trkpt lat="43.41499" lon="6.06969">
        <ele>204.39999389648</ele>
        <time>2016-02-24T15:56:04Z</time>
      </trkpt>
      <trkpt lat="43.41503" lon="6.06972">
        <ele>204.60000610352</ele>
        <time>2016-02-24T15:56:06Z</time>
      </trkpt>
      <trkpt lat="43.41507" lon="6.06974">
        <ele>204.60000610352</ele>
        <time>2016-02-24T15:56:08Z</time>
      </trkpt>
      <trkpt lat="43.41511" lon="6.06975">
        <ele>204.39999389648</ele>
        <time>2016-02-24T15:56:10Z</time>
      </trkpt>
      <trkpt lat="43.41516" lon="6.06976">
        <ele>204.19999694824</ele>
        <time>2016-02-24T15:56:12Z</time>
      </trkpt>
      <trkpt lat="43.4152" lon="6.06976">
        <ele>204.19999694824</ele>
        <time>2016-02-24T15:56:13Z</time>
      </trkpt>
      <trkpt lat="43.41523" lon="6.06976">
        <ele>204.19999694824</ele>
        <time>2016-02-24T15:56:14Z</time>
      </trkpt>
      <trkpt lat="43.41529" lon="6.06975">
        <ele>204.39999389648</ele>
        <time>2016-02-24T15:56:16Z</time>
      </trkpt>
      <trkpt lat="43.41536" lon="6.06973">
        <ele>204.60000610352</ele>
        <time>2016-02-24T15:56:18Z</time>
      </trkpt>
      <trkpt lat="43.41539" lon="6.06972">
        <ele>204.60000610352</ele>
        <time>2016-02-24T15:56:19Z</time>
      </trkpt>
      <trkpt lat="43.41541" lon="6.06971">
        <ele>204.80000305176</ele>
        <time>2016-02-24T15:56:20Z</time>
      </trkpt>
      <trkpt lat="43.41543" lon="6.06971">
        <ele>204.60000610352</ele>
        <time>2016-02-24T15:56:22Z</time>
      </trkpt>
      <trkpt lat="43.41543" lon="6.06971">
        <ele>204.60000610352</ele>
        <time>2016-02-24T15:56:23Z</time>
      </trkpt>
      <trkpt lat="43.41543" lon="6.06971">
        <ele>204.60000610352</ele>
        <time>2016-02-24T15:56:24Z</time>
      </trkpt>
      <trkpt lat="43.41543" lon="6.06971">
        <ele>204.39999389648</ele>
        <time>2016-02-24T15:56:26Z</time>
      </trkpt>
      <trkpt lat="43.41543" lon="6.06971">
        <ele>204.19999694824</ele>
        <time>2016-02-24T15:56:28Z</time>
      </trkpt>
      <trkpt lat="43.41543" lon="6.06971">
        <ele>204.19999694824</ele>
        <time>2016-02-24T15:56:30Z</time>
      </trkpt>
      <trkpt lat="43.41543" lon="6.06971">
        <ele>204.39999389648</ele>
        <time>2016-02-24T15:56:32Z</time>
      </trkpt>
      <trkpt lat="43.41543" lon="6.06971">
        <ele>204.80000305176</ele>
        <time>2016-02-24T15:56:34Z</time>
      </trkpt>
      <trkpt lat="43.41543" lon="6.06971">
        <ele>204.60000610352</ele>
        <time>2016-02-24T15:56:36Z</time>
      </trkpt>
      <trkpt lat="43.41543" lon="6.0697">
        <ele>204.60000610352</ele>
        <time>2016-02-24T15:56:38Z</time>
      </trkpt>
      <trkpt lat="43.41542" lon="6.0697">
        <ele>204.60000610352</ele>
        <time>2016-02-24T15:56:40Z</time>
      </trkpt>
      <trkpt lat="43.41542" lon="6.0697">
        <ele>204.60000610352</ele>
        <time>2016-02-24T15:56:42Z</time>
      </trkpt>
      <trkpt lat="43.41542" lon="6.06971">
        <ele>204.60000610352</ele>
        <time>2016-02-24T15:56:43Z</time>
      </trkpt>
      <trkpt lat="43.41542" lon="6.06971">
        <ele>204.60000610352</ele>
        <time>2016-02-24T15:56:44Z</time>
      </trkpt>
      <trkpt lat="43.41542" lon="6.0697">
        <ele>204.39999389648</ele>
        <time>2016-02-24T15:56:46Z</time>
      </trkpt>
      <trkpt lat="43.41542" lon="6.06971">
        <ele>204.60000610352</ele>
        <time>2016-02-24T15:56:48Z</time>
      </trkpt>
      <trkpt lat="43.41542" lon="6.06971">
        <ele>204.39999389648</ele>
        <time>2016-02-24T15:56:50Z</time>
      </trkpt>
      <trkpt lat="43.41542" lon="6.06971">
        <ele>204.60000610352</ele>
        <time>2016-02-24T15:56:52Z</time>
      </trkpt>
      <trkpt lat="43.41542" lon="6.06971">
        <ele>204.39999389648</ele>
        <time>2016-02-24T15:56:54Z</time>
      </trkpt>
      <trkpt lat="43.41542" lon="6.06971">
        <ele>204.60000610352</ele>
        <time>2016-02-24T15:56:56Z</time>
      </trkpt>
      <trkpt lat="43.41542" lon="6.06971">
        <ele>204.60000610352</ele>
        <time>2016-02-24T15:56:58Z</time>
      </trkpt>
      <trkpt lat="43.41542" lon="6.06971">
        <ele>204.60000610352</ele>
        <time>2016-02-24T15:57:00Z</time>
      </trkpt>
      <trkpt lat="43.41542" lon="6.06971">
        <ele>204.60000610352</ele>
        <time>2016-02-24T15:57:02Z</time>
      </trkpt>
      <trkpt lat="43.41542" lon="6.06971">
        <ele>204.60000610352</ele>
        <time>2016-02-24T15:57:04Z</time>
      </trkpt>
      <trkpt lat="43.41542" lon="6.06971">
        <ele>204.39999389648</ele>
        <time>2016-02-24T15:57:06Z</time>
      </trkpt>
      <trkpt lat="43.41542" lon="6.06971">
        <ele>204.60000610352</ele>
        <time>2016-02-24T15:57:08Z</time>
      </trkpt>
      <trkpt lat="43.41542" lon="6.06971">
        <ele>204.39999389648</ele>
        <time>2016-02-24T15:57:10Z</time>
      </trkpt>
      <trkpt lat="43.41542" lon="6.06971">
        <ele>204.39999389648</ele>
        <time>2016-02-24T15:57:12Z</time>
      </trkpt>
      <trkpt lat="43.41542" lon="6.06971">
        <ele>204.39999389648</ele>
        <time>2016-02-24T15:57:14Z</time>
      </trkpt>
      <trkpt lat="43.41542" lon="6.06971">
        <ele>204.39999389648</ele>
        <time>2016-02-24T15:57:16Z</time>
      </trkpt>
      <trkpt lat="43.41542" lon="6.06971">
        <ele>204.39999389648</ele>
        <time>2016-02-24T15:57:17Z</time>
      </trkpt>
      <trkpt lat="43.41542" lon="6.06971">
        <ele>204.19999694824</ele>
        <time>2016-02-24T15:57:18Z</time>
      </trkpt>
    </trkseg>
  </trk>
</gpx>